<?xml version="1.0" encoding="UTF-8"?>
<gpx version="1.1" creator="https://www.youtrack.es" xsi:schemaLocation="http://www.topografix.com/GPX/1/1 http://www.topografix.com/GPX/1/1/gpx.xsd http://www.garmin.com/xmlschemas/GpxExtensions/v3 http://www.garmin.com/xmlschemas/GpxExtensionsv3.xsd http://www.garmin.com/xmlschemas/TrackPointExtension/v1 http://www.garmin.com/xmlschemas/TrackPointExtensionv1.xsd" xmlns:gpxtpx="http://www.garmin.com/xmlschemas/TrackPointExtension/v1" xmlns:gpxx="http://www.garmin.com/xmlschemas/GpxExtensions/v3" xmlns:xsi="http://www.w3.org/2001/XMLSchema-instance">
  <metadata>
    <link href="https://www.youtrack.es">
      <text>YouTrack.es</text>
    </link>
    <time>2026-05-08T21:17:03Z</time>
  </metadata>
  <trk>
    <src>https://www.youtrack.es</src>
    <link href="https://www.youtrack.es/ruta/30981-sigueiro-santiso-pontevea-sigueiro">
      <text>YouTrack.es</text>
    </link>
    <trkseg>
      <trkpt lat="42.9703870" lon="-8.4170350">
        <ele>245.7</ele>
        <time>2022-04-14T10:14:32Z</time>
      </trkpt>
      <trkpt lat="42.9703580" lon="-8.4169850">
        <ele>245.8</ele>
        <time>2022-04-14T10:14:33Z</time>
      </trkpt>
      <trkpt lat="42.9703460" lon="-8.4169480">
        <ele>245.9</ele>
        <time>2022-04-14T10:14:34Z</time>
      </trkpt>
      <trkpt lat="42.9703300" lon="-8.4168930">
        <ele>246.1</ele>
        <time>2022-04-14T10:14:35Z</time>
      </trkpt>
      <trkpt lat="42.9703140" lon="-8.4168380">
        <ele>246.3</ele>
        <time>2022-04-14T10:14:36Z</time>
      </trkpt>
      <trkpt lat="42.9703000" lon="-8.4167760">
        <ele>246.5</ele>
        <time>2022-04-14T10:14:37Z</time>
      </trkpt>
      <trkpt lat="42.9702780" lon="-8.4167110">
        <ele>246.7</ele>
        <time>2022-04-14T10:14:38Z</time>
      </trkpt>
      <trkpt lat="42.9702570" lon="-8.4166380">
        <ele>247.0</ele>
        <time>2022-04-14T10:14:39Z</time>
      </trkpt>
      <trkpt lat="42.9702370" lon="-8.4165660">
        <ele>247.2</ele>
        <time>2022-04-14T10:14:40Z</time>
      </trkpt>
      <trkpt lat="42.9702180" lon="-8.4164940">
        <ele>247.5</ele>
        <time>2022-04-14T10:14:41Z</time>
      </trkpt>
      <trkpt lat="42.9702000" lon="-8.4164220">
        <ele>247.7</ele>
        <time>2022-04-14T10:14:42Z</time>
      </trkpt>
      <trkpt lat="42.9701870" lon="-8.4163460">
        <ele>247.8</ele>
        <time>2022-04-14T10:14:43Z</time>
      </trkpt>
      <trkpt lat="42.9701840" lon="-8.4162730">
        <ele>247.8</ele>
        <time>2022-04-14T10:14:44Z</time>
      </trkpt>
      <trkpt lat="42.9701900" lon="-8.4162010">
        <ele>247.8</ele>
        <time>2022-04-14T10:14:45Z</time>
      </trkpt>
      <trkpt lat="42.9702100" lon="-8.4161350">
        <ele>247.8</ele>
        <time>2022-04-14T10:14:46Z</time>
      </trkpt>
      <trkpt lat="42.9702450" lon="-8.4160810">
        <ele>248.1</ele>
        <time>2022-04-14T10:14:47Z</time>
      </trkpt>
      <trkpt lat="42.9702910" lon="-8.4160430">
        <ele>248.4</ele>
        <time>2022-04-14T10:14:48Z</time>
      </trkpt>
      <trkpt lat="42.9703400" lon="-8.4160140">
        <ele>248.7</ele>
        <time>2022-04-14T10:14:49Z</time>
      </trkpt>
      <trkpt lat="42.9703860" lon="-8.4159910">
        <ele>249.0</ele>
        <time>2022-04-14T10:14:50Z</time>
      </trkpt>
      <trkpt lat="42.9704750" lon="-8.4159480">
        <ele>249.7</ele>
        <time>2022-04-14T10:14:51Z</time>
      </trkpt>
      <trkpt lat="42.9704750" lon="-8.4159480">
        <ele>249.7</ele>
        <time>2022-04-14T10:14:52Z</time>
      </trkpt>
      <trkpt lat="42.9705170" lon="-8.4159280">
        <ele>250.0</ele>
        <time>2022-04-14T10:14:53Z</time>
      </trkpt>
      <trkpt lat="42.9705600" lon="-8.4159080">
        <ele>250.3</ele>
        <time>2022-04-14T10:14:54Z</time>
      </trkpt>
      <trkpt lat="42.9706050" lon="-8.4158860">
        <ele>250.7</ele>
        <time>2022-04-14T10:14:55Z</time>
      </trkpt>
      <trkpt lat="42.9706490" lon="-8.4158610">
        <ele>251.0</ele>
        <time>2022-04-14T10:14:56Z</time>
      </trkpt>
      <trkpt lat="42.9706970" lon="-8.4158330">
        <ele>251.4</ele>
        <time>2022-04-14T10:14:57Z</time>
      </trkpt>
      <trkpt lat="42.9707430" lon="-8.4158090">
        <ele>251.7</ele>
        <time>2022-04-14T10:14:58Z</time>
      </trkpt>
      <trkpt lat="42.9707900" lon="-8.4157850">
        <ele>252.0</ele>
        <time>2022-04-14T10:14:59Z</time>
      </trkpt>
      <trkpt lat="42.9708350" lon="-8.4157610">
        <ele>252.3</ele>
        <time>2022-04-14T10:15:00Z</time>
      </trkpt>
      <trkpt lat="42.9708800" lon="-8.4157390">
        <ele>252.4</ele>
        <time>2022-04-14T10:15:01Z</time>
      </trkpt>
      <trkpt lat="42.9709280" lon="-8.4157180">
        <ele>252.5</ele>
        <time>2022-04-14T10:15:02Z</time>
      </trkpt>
      <trkpt lat="42.9709720" lon="-8.4156960">
        <ele>252.6</ele>
        <time>2022-04-14T10:15:03Z</time>
      </trkpt>
      <trkpt lat="42.9710170" lon="-8.4156710">
        <ele>252.8</ele>
        <time>2022-04-14T10:15:04Z</time>
      </trkpt>
      <trkpt lat="42.9710620" lon="-8.4156460">
        <ele>252.9</ele>
        <time>2022-04-14T10:15:05Z</time>
      </trkpt>
      <trkpt lat="42.9711070" lon="-8.4156250">
        <ele>253.1</ele>
        <time>2022-04-14T10:15:06Z</time>
      </trkpt>
      <trkpt lat="42.9711520" lon="-8.4156040">
        <ele>253.3</ele>
        <time>2022-04-14T10:15:07Z</time>
      </trkpt>
      <trkpt lat="42.9711960" lon="-8.4155830">
        <ele>253.4</ele>
        <time>2022-04-14T10:15:08Z</time>
      </trkpt>
      <trkpt lat="42.9712390" lon="-8.4155620">
        <ele>253.6</ele>
        <time>2022-04-14T10:15:09Z</time>
      </trkpt>
      <trkpt lat="42.9713210" lon="-8.4155190">
        <ele>253.9</ele>
        <time>2022-04-14T10:15:10Z</time>
      </trkpt>
      <trkpt lat="42.9713210" lon="-8.4155190">
        <ele>253.9</ele>
        <time>2022-04-14T10:15:11Z</time>
      </trkpt>
      <trkpt lat="42.9713670" lon="-8.4154940">
        <ele>254.1</ele>
        <time>2022-04-14T10:15:12Z</time>
      </trkpt>
      <trkpt lat="42.9714110" lon="-8.4154690">
        <ele>254.2</ele>
        <time>2022-04-14T10:15:13Z</time>
      </trkpt>
      <trkpt lat="42.9714580" lon="-8.4154450">
        <ele>254.4</ele>
        <time>2022-04-14T10:15:14Z</time>
      </trkpt>
      <trkpt lat="42.9715050" lon="-8.4154200">
        <ele>254.6</ele>
        <time>2022-04-14T10:15:15Z</time>
      </trkpt>
      <trkpt lat="42.9715520" lon="-8.4153940">
        <ele>254.8</ele>
        <time>2022-04-14T10:15:16Z</time>
      </trkpt>
      <trkpt lat="42.9715990" lon="-8.4153660">
        <ele>254.9</ele>
        <time>2022-04-14T10:15:17Z</time>
      </trkpt>
      <trkpt lat="42.9716480" lon="-8.4153400">
        <ele>255.1</ele>
        <time>2022-04-14T10:15:18Z</time>
      </trkpt>
      <trkpt lat="42.9716970" lon="-8.4153100">
        <ele>255.3</ele>
        <time>2022-04-14T10:15:19Z</time>
      </trkpt>
      <trkpt lat="42.9717490" lon="-8.4152800">
        <ele>255.5</ele>
        <time>2022-04-14T10:15:20Z</time>
      </trkpt>
      <trkpt lat="42.9718010" lon="-8.4152500">
        <ele>255.7</ele>
        <time>2022-04-14T10:15:21Z</time>
      </trkpt>
      <trkpt lat="42.9718510" lon="-8.4152210">
        <ele>255.9</ele>
        <time>2022-04-14T10:15:22Z</time>
      </trkpt>
      <trkpt lat="42.9719510" lon="-8.4151690">
        <ele>256.4</ele>
        <time>2022-04-14T10:15:23Z</time>
      </trkpt>
      <trkpt lat="42.9719510" lon="-8.4151690">
        <ele>256.4</ele>
        <time>2022-04-14T10:15:24Z</time>
      </trkpt>
      <trkpt lat="42.9719990" lon="-8.4151460">
        <ele>256.6</ele>
        <time>2022-04-14T10:15:25Z</time>
      </trkpt>
      <trkpt lat="42.9720490" lon="-8.4151240">
        <ele>256.8</ele>
        <time>2022-04-14T10:15:26Z</time>
      </trkpt>
      <trkpt lat="42.9720980" lon="-8.4151000">
        <ele>257.0</ele>
        <time>2022-04-14T10:15:27Z</time>
      </trkpt>
      <trkpt lat="42.9721480" lon="-8.4150760">
        <ele>257.3</ele>
        <time>2022-04-14T10:15:28Z</time>
      </trkpt>
      <trkpt lat="42.9722460" lon="-8.4150240">
        <ele>257.8</ele>
        <time>2022-04-14T10:15:29Z</time>
      </trkpt>
      <trkpt lat="42.9722460" lon="-8.4150240">
        <ele>257.8</ele>
        <time>2022-04-14T10:15:30Z</time>
      </trkpt>
      <trkpt lat="42.9722950" lon="-8.4149940">
        <ele>258.0</ele>
        <time>2022-04-14T10:15:31Z</time>
      </trkpt>
      <trkpt lat="42.9723450" lon="-8.4149640">
        <ele>258.3</ele>
        <time>2022-04-14T10:15:32Z</time>
      </trkpt>
      <trkpt lat="42.9723950" lon="-8.4149360">
        <ele>258.5</ele>
        <time>2022-04-14T10:15:33Z</time>
      </trkpt>
      <trkpt lat="42.9724440" lon="-8.4149070">
        <ele>258.7</ele>
        <time>2022-04-14T10:15:34Z</time>
      </trkpt>
      <trkpt lat="42.9724930" lon="-8.4148780">
        <ele>258.9</ele>
        <time>2022-04-14T10:15:35Z</time>
      </trkpt>
      <trkpt lat="42.9725440" lon="-8.4148500">
        <ele>259.1</ele>
        <time>2022-04-14T10:15:36Z</time>
      </trkpt>
      <trkpt lat="42.9725960" lon="-8.4148240">
        <ele>259.3</ele>
        <time>2022-04-14T10:15:37Z</time>
      </trkpt>
      <trkpt lat="42.9726490" lon="-8.4147990">
        <ele>259.6</ele>
        <time>2022-04-14T10:15:38Z</time>
      </trkpt>
      <trkpt lat="42.9726990" lon="-8.4147740">
        <ele>259.8</ele>
        <time>2022-04-14T10:15:39Z</time>
      </trkpt>
      <trkpt lat="42.9727510" lon="-8.4147480">
        <ele>260.1</ele>
        <time>2022-04-14T10:15:40Z</time>
      </trkpt>
      <trkpt lat="42.9728020" lon="-8.4147220">
        <ele>260.3</ele>
        <time>2022-04-14T10:15:41Z</time>
      </trkpt>
      <trkpt lat="42.9728530" lon="-8.4146950">
        <ele>260.6</ele>
        <time>2022-04-14T10:15:42Z</time>
      </trkpt>
      <trkpt lat="42.9729030" lon="-8.4146680">
        <ele>260.8</ele>
        <time>2022-04-14T10:15:43Z</time>
      </trkpt>
      <trkpt lat="42.9729540" lon="-8.4146430">
        <ele>261.1</ele>
        <time>2022-04-14T10:15:44Z</time>
      </trkpt>
      <trkpt lat="42.9730030" lon="-8.4146180">
        <ele>261.3</ele>
        <time>2022-04-14T10:15:45Z</time>
      </trkpt>
      <trkpt lat="42.9730520" lon="-8.4145940">
        <ele>261.6</ele>
        <time>2022-04-14T10:15:46Z</time>
      </trkpt>
      <trkpt lat="42.9731000" lon="-8.4145700">
        <ele>261.8</ele>
        <time>2022-04-14T10:15:47Z</time>
      </trkpt>
      <trkpt lat="42.9731920" lon="-8.4145250">
        <ele>262.3</ele>
        <time>2022-04-14T10:15:48Z</time>
      </trkpt>
      <trkpt lat="42.9731920" lon="-8.4145250">
        <ele>262.3</ele>
        <time>2022-04-14T10:15:49Z</time>
      </trkpt>
      <trkpt lat="42.9732380" lon="-8.4145020">
        <ele>262.6</ele>
        <time>2022-04-14T10:15:50Z</time>
      </trkpt>
      <trkpt lat="42.9732840" lon="-8.4144790">
        <ele>262.9</ele>
        <time>2022-04-14T10:15:51Z</time>
      </trkpt>
      <trkpt lat="42.9733290" lon="-8.4144570">
        <ele>263.1</ele>
        <time>2022-04-14T10:15:52Z</time>
      </trkpt>
      <trkpt lat="42.9733740" lon="-8.4144350">
        <ele>263.3</ele>
        <time>2022-04-14T10:15:53Z</time>
      </trkpt>
      <trkpt lat="42.9734180" lon="-8.4144130">
        <ele>263.6</ele>
        <time>2022-04-14T10:15:54Z</time>
      </trkpt>
      <trkpt lat="42.9734630" lon="-8.4143930">
        <ele>263.8</ele>
        <time>2022-04-14T10:15:55Z</time>
      </trkpt>
      <trkpt lat="42.9735090" lon="-8.4143790">
        <ele>264.1</ele>
        <time>2022-04-14T10:15:56Z</time>
      </trkpt>
      <trkpt lat="42.9735530" lon="-8.4143660">
        <ele>264.3</ele>
        <time>2022-04-14T10:15:57Z</time>
      </trkpt>
      <trkpt lat="42.9735960" lon="-8.4143530">
        <ele>264.5</ele>
        <time>2022-04-14T10:15:58Z</time>
      </trkpt>
      <trkpt lat="42.9736390" lon="-8.4143430">
        <ele>264.7</ele>
        <time>2022-04-14T10:15:59Z</time>
      </trkpt>
      <trkpt lat="42.9736870" lon="-8.4143350">
        <ele>265.0</ele>
        <time>2022-04-14T10:16:00Z</time>
      </trkpt>
      <trkpt lat="42.9737340" lon="-8.4143390">
        <ele>265.2</ele>
        <time>2022-04-14T10:16:01Z</time>
      </trkpt>
      <trkpt lat="42.9737790" lon="-8.4143620">
        <ele>265.7</ele>
        <time>2022-04-14T10:16:02Z</time>
      </trkpt>
      <trkpt lat="42.9738170" lon="-8.4144000">
        <ele>265.7</ele>
        <time>2022-04-14T10:16:03Z</time>
      </trkpt>
      <trkpt lat="42.9738490" lon="-8.4144530">
        <ele>265.5</ele>
        <time>2022-04-14T10:16:04Z</time>
      </trkpt>
      <trkpt lat="42.9738770" lon="-8.4145200">
        <ele>265.3</ele>
        <time>2022-04-14T10:16:05Z</time>
      </trkpt>
      <trkpt lat="42.9739040" lon="-8.4145920">
        <ele>265.1</ele>
        <time>2022-04-14T10:16:06Z</time>
      </trkpt>
      <trkpt lat="42.9739460" lon="-8.4147590">
        <ele>264.5</ele>
        <time>2022-04-14T10:16:07Z</time>
      </trkpt>
      <trkpt lat="42.9739460" lon="-8.4147590">
        <ele>264.5</ele>
        <time>2022-04-14T10:16:08Z</time>
      </trkpt>
      <trkpt lat="42.9739660" lon="-8.4148540">
        <ele>264.2</ele>
        <time>2022-04-14T10:16:09Z</time>
      </trkpt>
      <trkpt lat="42.9739870" lon="-8.4149540">
        <ele>263.8</ele>
        <time>2022-04-14T10:16:10Z</time>
      </trkpt>
      <trkpt lat="42.9740100" lon="-8.4150570">
        <ele>263.4</ele>
        <time>2022-04-14T10:16:11Z</time>
      </trkpt>
      <trkpt lat="42.9740310" lon="-8.4151620">
        <ele>263.1</ele>
        <time>2022-04-14T10:16:12Z</time>
      </trkpt>
      <trkpt lat="42.9740540" lon="-8.4152700">
        <ele>262.6</ele>
        <time>2022-04-14T10:16:13Z</time>
      </trkpt>
      <trkpt lat="42.9740780" lon="-8.4153800">
        <ele>262.1</ele>
        <time>2022-04-14T10:16:14Z</time>
      </trkpt>
      <trkpt lat="42.9741030" lon="-8.4154920">
        <ele>261.6</ele>
        <time>2022-04-14T10:16:15Z</time>
      </trkpt>
      <trkpt lat="42.9741600" lon="-8.4157220">
        <ele>260.1</ele>
        <time>2022-04-14T10:16:16Z</time>
      </trkpt>
      <trkpt lat="42.9741600" lon="-8.4157220">
        <ele>260.1</ele>
        <time>2022-04-14T10:16:17Z</time>
      </trkpt>
      <trkpt lat="42.9741900" lon="-8.4158410">
        <ele>259.3</ele>
        <time>2022-04-14T10:16:18Z</time>
      </trkpt>
      <trkpt lat="42.9742230" lon="-8.4159650">
        <ele>258.4</ele>
        <time>2022-04-14T10:16:19Z</time>
      </trkpt>
      <trkpt lat="42.9742570" lon="-8.4160940">
        <ele>257.3</ele>
        <time>2022-04-14T10:16:20Z</time>
      </trkpt>
      <trkpt lat="42.9742930" lon="-8.4162280">
        <ele>256.2</ele>
        <time>2022-04-14T10:16:21Z</time>
      </trkpt>
      <trkpt lat="42.9743310" lon="-8.4163660">
        <ele>255.0</ele>
        <time>2022-04-14T10:16:22Z</time>
      </trkpt>
      <trkpt lat="42.9743670" lon="-8.4165090">
        <ele>254.0</ele>
        <time>2022-04-14T10:16:23Z</time>
      </trkpt>
      <trkpt lat="42.9744430" lon="-8.4168030">
        <ele>252.2</ele>
        <time>2022-04-14T10:16:24Z</time>
      </trkpt>
      <trkpt lat="42.9744430" lon="-8.4168030">
        <ele>252.2</ele>
        <time>2022-04-14T10:16:25Z</time>
      </trkpt>
      <trkpt lat="42.9744810" lon="-8.4169510">
        <ele>251.4</ele>
        <time>2022-04-14T10:16:26Z</time>
      </trkpt>
      <trkpt lat="42.9745170" lon="-8.4170990">
        <ele>250.7</ele>
        <time>2022-04-14T10:16:27Z</time>
      </trkpt>
      <trkpt lat="42.9745550" lon="-8.4172440">
        <ele>250.1</ele>
        <time>2022-04-14T10:16:28Z</time>
      </trkpt>
      <trkpt lat="42.9745900" lon="-8.4173860">
        <ele>249.7</ele>
        <time>2022-04-14T10:16:29Z</time>
      </trkpt>
      <trkpt lat="42.9746530" lon="-8.4176690">
        <ele>249.2</ele>
        <time>2022-04-14T10:16:30Z</time>
      </trkpt>
      <trkpt lat="42.9746530" lon="-8.4176690">
        <ele>249.2</ele>
        <time>2022-04-14T10:16:31Z</time>
      </trkpt>
      <trkpt lat="42.9746840" lon="-8.4178090">
        <ele>249.1</ele>
        <time>2022-04-14T10:16:32Z</time>
      </trkpt>
      <trkpt lat="42.9747180" lon="-8.4179450">
        <ele>249.0</ele>
        <time>2022-04-14T10:16:33Z</time>
      </trkpt>
      <trkpt lat="42.9747530" lon="-8.4180770">
        <ele>248.9</ele>
        <time>2022-04-14T10:16:34Z</time>
      </trkpt>
      <trkpt lat="42.9747880" lon="-8.4182080">
        <ele>249.0</ele>
        <time>2022-04-14T10:16:35Z</time>
      </trkpt>
      <trkpt lat="42.9748240" lon="-8.4183370">
        <ele>249.1</ele>
        <time>2022-04-14T10:16:36Z</time>
      </trkpt>
      <trkpt lat="42.9748580" lon="-8.4184640">
        <ele>249.3</ele>
        <time>2022-04-14T10:16:37Z</time>
      </trkpt>
      <trkpt lat="42.9748900" lon="-8.4185890">
        <ele>249.6</ele>
        <time>2022-04-14T10:16:38Z</time>
      </trkpt>
      <trkpt lat="42.9749200" lon="-8.4187110">
        <ele>250.0</ele>
        <time>2022-04-14T10:16:39Z</time>
      </trkpt>
      <trkpt lat="42.9749790" lon="-8.4189410">
        <ele>251.2</ele>
        <time>2022-04-14T10:16:40Z</time>
      </trkpt>
      <trkpt lat="42.9749790" lon="-8.4189410">
        <ele>251.2</ele>
        <time>2022-04-14T10:16:41Z</time>
      </trkpt>
      <trkpt lat="42.9750060" lon="-8.4190460">
        <ele>251.9</ele>
        <time>2022-04-14T10:16:42Z</time>
      </trkpt>
      <trkpt lat="42.9750360" lon="-8.4191440">
        <ele>252.5</ele>
        <time>2022-04-14T10:16:43Z</time>
      </trkpt>
      <trkpt lat="42.9750640" lon="-8.4192360">
        <ele>253.2</ele>
        <time>2022-04-14T10:16:44Z</time>
      </trkpt>
      <trkpt lat="42.9751170" lon="-8.4194100">
        <ele>254.3</ele>
        <time>2022-04-14T10:16:45Z</time>
      </trkpt>
      <trkpt lat="42.9751170" lon="-8.4194100">
        <ele>254.3</ele>
        <time>2022-04-14T10:16:46Z</time>
      </trkpt>
      <trkpt lat="42.9751450" lon="-8.4194910">
        <ele>254.9</ele>
        <time>2022-04-14T10:16:47Z</time>
      </trkpt>
      <trkpt lat="42.9751730" lon="-8.4195700">
        <ele>255.4</ele>
        <time>2022-04-14T10:16:48Z</time>
      </trkpt>
      <trkpt lat="42.9751990" lon="-8.4196480">
        <ele>255.9</ele>
        <time>2022-04-14T10:16:49Z</time>
      </trkpt>
      <trkpt lat="42.9752260" lon="-8.4197270">
        <ele>256.4</ele>
        <time>2022-04-14T10:16:50Z</time>
      </trkpt>
      <trkpt lat="42.9752530" lon="-8.4198060">
        <ele>256.8</ele>
        <time>2022-04-14T10:16:51Z</time>
      </trkpt>
      <trkpt lat="42.9752800" lon="-8.4198860">
        <ele>257.2</ele>
        <time>2022-04-14T10:16:52Z</time>
      </trkpt>
      <trkpt lat="42.9753060" lon="-8.4199660">
        <ele>257.6</ele>
        <time>2022-04-14T10:16:53Z</time>
      </trkpt>
      <trkpt lat="42.9753320" lon="-8.4200460">
        <ele>257.9</ele>
        <time>2022-04-14T10:16:54Z</time>
      </trkpt>
      <trkpt lat="42.9753840" lon="-8.4202050">
        <ele>258.4</ele>
        <time>2022-04-14T10:16:55Z</time>
      </trkpt>
      <trkpt lat="42.9753840" lon="-8.4202050">
        <ele>258.4</ele>
        <time>2022-04-14T10:16:56Z</time>
      </trkpt>
      <trkpt lat="42.9754100" lon="-8.4202830">
        <ele>258.6</ele>
        <time>2022-04-14T10:16:57Z</time>
      </trkpt>
      <trkpt lat="42.9754390" lon="-8.4203560">
        <ele>258.8</ele>
        <time>2022-04-14T10:16:58Z</time>
      </trkpt>
      <trkpt lat="42.9754690" lon="-8.4204200">
        <ele>258.9</ele>
        <time>2022-04-14T10:16:59Z</time>
      </trkpt>
      <trkpt lat="42.9754920" lon="-8.4204690">
        <ele>259.0</ele>
        <time>2022-04-14T10:17:00Z</time>
      </trkpt>
      <trkpt lat="42.9755070" lon="-8.4205050">
        <ele>259.0</ele>
        <time>2022-04-14T10:17:01Z</time>
      </trkpt>
      <trkpt lat="42.9755190" lon="-8.4205480">
        <ele>259.0</ele>
        <time>2022-04-14T10:17:02Z</time>
      </trkpt>
      <trkpt lat="42.9755220" lon="-8.4206060">
        <ele>259.0</ele>
        <time>2022-04-14T10:17:03Z</time>
      </trkpt>
      <trkpt lat="42.9755100" lon="-8.4206760">
        <ele>258.9</ele>
        <time>2022-04-14T10:17:04Z</time>
      </trkpt>
      <trkpt lat="42.9754850" lon="-8.4207510">
        <ele>258.7</ele>
        <time>2022-04-14T10:17:05Z</time>
      </trkpt>
      <trkpt lat="42.9754510" lon="-8.4208300">
        <ele>258.4</ele>
        <time>2022-04-14T10:17:06Z</time>
      </trkpt>
      <trkpt lat="42.9754140" lon="-8.4209140">
        <ele>258.2</ele>
        <time>2022-04-14T10:17:07Z</time>
      </trkpt>
      <trkpt lat="42.9753750" lon="-8.4210020">
        <ele>257.8</ele>
        <time>2022-04-14T10:17:08Z</time>
      </trkpt>
      <trkpt lat="42.9753340" lon="-8.4210940">
        <ele>257.5</ele>
        <time>2022-04-14T10:17:09Z</time>
      </trkpt>
      <trkpt lat="42.9752910" lon="-8.4211900">
        <ele>257.1</ele>
        <time>2022-04-14T10:17:10Z</time>
      </trkpt>
      <trkpt lat="42.9752470" lon="-8.4212890">
        <ele>256.7</ele>
        <time>2022-04-14T10:17:11Z</time>
      </trkpt>
      <trkpt lat="42.9752010" lon="-8.4213920">
        <ele>256.3</ele>
        <time>2022-04-14T10:17:12Z</time>
      </trkpt>
      <trkpt lat="42.9751540" lon="-8.4214970">
        <ele>255.8</ele>
        <time>2022-04-14T10:17:13Z</time>
      </trkpt>
      <trkpt lat="42.9751060" lon="-8.4216060">
        <ele>255.4</ele>
        <time>2022-04-14T10:17:14Z</time>
      </trkpt>
      <trkpt lat="42.9750570" lon="-8.4217180">
        <ele>254.9</ele>
        <time>2022-04-14T10:17:15Z</time>
      </trkpt>
      <trkpt lat="42.9750070" lon="-8.4218310">
        <ele>254.4</ele>
        <time>2022-04-14T10:17:16Z</time>
      </trkpt>
      <trkpt lat="42.9749030" lon="-8.4220590">
        <ele>253.4</ele>
        <time>2022-04-14T10:17:17Z</time>
      </trkpt>
      <trkpt lat="42.9749030" lon="-8.4220590">
        <ele>253.4</ele>
        <time>2022-04-14T10:17:18Z</time>
      </trkpt>
      <trkpt lat="42.9748500" lon="-8.4221760">
        <ele>252.9</ele>
        <time>2022-04-14T10:17:19Z</time>
      </trkpt>
      <trkpt lat="42.9747970" lon="-8.4222930">
        <ele>252.4</ele>
        <time>2022-04-14T10:17:20Z</time>
      </trkpt>
      <trkpt lat="42.9747440" lon="-8.4224110">
        <ele>252.0</ele>
        <time>2022-04-14T10:17:21Z</time>
      </trkpt>
      <trkpt lat="42.9746910" lon="-8.4225300">
        <ele>251.5</ele>
        <time>2022-04-14T10:17:22Z</time>
      </trkpt>
      <trkpt lat="42.9745840" lon="-8.4227720">
        <ele>250.8</ele>
        <time>2022-04-14T10:17:23Z</time>
      </trkpt>
      <trkpt lat="42.9745840" lon="-8.4227720">
        <ele>250.8</ele>
        <time>2022-04-14T10:17:24Z</time>
      </trkpt>
      <trkpt lat="42.9745540" lon="-8.4228380">
        <ele>250.6</ele>
        <time>2022-04-14T10:17:25Z</time>
      </trkpt>
      <trkpt lat="42.9745230" lon="-8.4229040">
        <ele>250.5</ele>
        <time>2022-04-14T10:17:26Z</time>
      </trkpt>
      <trkpt lat="42.9744930" lon="-8.4229710">
        <ele>250.3</ele>
        <time>2022-04-14T10:17:27Z</time>
      </trkpt>
      <trkpt lat="42.9744620" lon="-8.4230370">
        <ele>250.2</ele>
        <time>2022-04-14T10:17:28Z</time>
      </trkpt>
      <trkpt lat="42.9744320" lon="-8.4231030">
        <ele>250.1</ele>
        <time>2022-04-14T10:17:29Z</time>
      </trkpt>
      <trkpt lat="42.9744010" lon="-8.4231700">
        <ele>250.0</ele>
        <time>2022-04-14T10:17:30Z</time>
      </trkpt>
      <trkpt lat="42.9743710" lon="-8.4232360">
        <ele>249.9</ele>
        <time>2022-04-14T10:17:31Z</time>
      </trkpt>
      <trkpt lat="42.9741570" lon="-8.4237010">
        <ele>249.4</ele>
        <time>2022-04-14T10:17:32Z</time>
      </trkpt>
      <trkpt lat="42.9741040" lon="-8.4238140">
        <ele>249.2</ele>
        <time>2022-04-14T10:17:33Z</time>
      </trkpt>
      <trkpt lat="42.9740520" lon="-8.4239280">
        <ele>248.9</ele>
        <time>2022-04-14T10:17:34Z</time>
      </trkpt>
      <trkpt lat="42.9740020" lon="-8.4240410">
        <ele>248.7</ele>
        <time>2022-04-14T10:17:35Z</time>
      </trkpt>
      <trkpt lat="42.9738970" lon="-8.4242790">
        <ele>248.2</ele>
        <time>2022-04-14T10:17:36Z</time>
      </trkpt>
      <trkpt lat="42.9738970" lon="-8.4242790">
        <ele>248.2</ele>
        <time>2022-04-14T10:17:37Z</time>
      </trkpt>
      <trkpt lat="42.9738400" lon="-8.4244000">
        <ele>247.9</ele>
        <time>2022-04-14T10:17:38Z</time>
      </trkpt>
      <trkpt lat="42.9737890" lon="-8.4245210">
        <ele>247.6</ele>
        <time>2022-04-14T10:17:39Z</time>
      </trkpt>
      <trkpt lat="42.9737320" lon="-8.4246410">
        <ele>247.2</ele>
        <time>2022-04-14T10:17:40Z</time>
      </trkpt>
      <trkpt lat="42.9736740" lon="-8.4247620">
        <ele>246.9</ele>
        <time>2022-04-14T10:17:41Z</time>
      </trkpt>
      <trkpt lat="42.9736170" lon="-8.4248830">
        <ele>246.5</ele>
        <time>2022-04-14T10:17:42Z</time>
      </trkpt>
      <trkpt lat="42.9735690" lon="-8.4249830">
        <ele>246.2</ele>
        <time>2022-04-14T10:17:43Z</time>
      </trkpt>
      <trkpt lat="42.9735250" lon="-8.4250940">
        <ele>246.0</ele>
        <time>2022-04-14T10:17:44Z</time>
      </trkpt>
      <trkpt lat="42.9734690" lon="-8.4252150">
        <ele>245.7</ele>
        <time>2022-04-14T10:17:45Z</time>
      </trkpt>
      <trkpt lat="42.9734210" lon="-8.4253520">
        <ele>245.5</ele>
        <time>2022-04-14T10:17:46Z</time>
      </trkpt>
      <trkpt lat="42.9733620" lon="-8.4254690">
        <ele>245.4</ele>
        <time>2022-04-14T10:17:47Z</time>
      </trkpt>
      <trkpt lat="42.9733080" lon="-8.4255820">
        <ele>245.3</ele>
        <time>2022-04-14T10:17:48Z</time>
      </trkpt>
      <trkpt lat="42.9732550" lon="-8.4256990">
        <ele>245.3</ele>
        <time>2022-04-14T10:17:49Z</time>
      </trkpt>
      <trkpt lat="42.9732040" lon="-8.4258140">
        <ele>245.2</ele>
        <time>2022-04-14T10:17:50Z</time>
      </trkpt>
      <trkpt lat="42.9731030" lon="-8.4260510">
        <ele>245.2</ele>
        <time>2022-04-14T10:17:51Z</time>
      </trkpt>
      <trkpt lat="42.9731030" lon="-8.4260510">
        <ele>245.2</ele>
        <time>2022-04-14T10:17:52Z</time>
      </trkpt>
      <trkpt lat="42.9730480" lon="-8.4261750">
        <ele>245.1</ele>
        <time>2022-04-14T10:17:53Z</time>
      </trkpt>
      <trkpt lat="42.9729990" lon="-8.4262880">
        <ele>245.1</ele>
        <time>2022-04-14T10:17:54Z</time>
      </trkpt>
      <trkpt lat="42.9729490" lon="-8.4263970">
        <ele>245.1</ele>
        <time>2022-04-14T10:17:55Z</time>
      </trkpt>
      <trkpt lat="42.9729000" lon="-8.4265060">
        <ele>245.1</ele>
        <time>2022-04-14T10:17:56Z</time>
      </trkpt>
      <trkpt lat="42.9728500" lon="-8.4266150">
        <ele>245.1</ele>
        <time>2022-04-14T10:17:57Z</time>
      </trkpt>
      <trkpt lat="42.9728050" lon="-8.4267240">
        <ele>245.1</ele>
        <time>2022-04-14T10:17:58Z</time>
      </trkpt>
      <trkpt lat="42.9727590" lon="-8.4268380">
        <ele>245.1</ele>
        <time>2022-04-14T10:17:59Z</time>
      </trkpt>
      <trkpt lat="42.9727100" lon="-8.4269480">
        <ele>245.3</ele>
        <time>2022-04-14T10:18:00Z</time>
      </trkpt>
      <trkpt lat="42.9726160" lon="-8.4271610">
        <ele>245.5</ele>
        <time>2022-04-14T10:18:01Z</time>
      </trkpt>
      <trkpt lat="42.9726160" lon="-8.4271610">
        <ele>245.5</ele>
        <time>2022-04-14T10:18:02Z</time>
      </trkpt>
      <trkpt lat="42.9725920" lon="-8.4272130">
        <ele>245.6</ele>
        <time>2022-04-14T10:18:03Z</time>
      </trkpt>
      <trkpt lat="42.9725690" lon="-8.4272650">
        <ele>245.7</ele>
        <time>2022-04-14T10:18:04Z</time>
      </trkpt>
      <trkpt lat="42.9725000" lon="-8.4274180">
        <ele>245.9</ele>
        <time>2022-04-14T10:18:05Z</time>
      </trkpt>
      <trkpt lat="42.9724780" lon="-8.4274670">
        <ele>246.0</ele>
        <time>2022-04-14T10:18:06Z</time>
      </trkpt>
      <trkpt lat="42.9724130" lon="-8.4276150">
        <ele>246.2</ele>
        <time>2022-04-14T10:18:07Z</time>
      </trkpt>
      <trkpt lat="42.9723920" lon="-8.4276640">
        <ele>246.3</ele>
        <time>2022-04-14T10:18:08Z</time>
      </trkpt>
      <trkpt lat="42.9723280" lon="-8.4278110">
        <ele>246.6</ele>
        <time>2022-04-14T10:18:09Z</time>
      </trkpt>
      <trkpt lat="42.9723070" lon="-8.4278600">
        <ele>246.7</ele>
        <time>2022-04-14T10:18:10Z</time>
      </trkpt>
      <trkpt lat="42.9722230" lon="-8.4280500">
        <ele>247.1</ele>
        <time>2022-04-14T10:18:11Z</time>
      </trkpt>
      <trkpt lat="42.9721810" lon="-8.4281420">
        <ele>247.2</ele>
        <time>2022-04-14T10:18:12Z</time>
      </trkpt>
      <trkpt lat="42.9720980" lon="-8.4283270">
        <ele>247.5</ele>
        <time>2022-04-14T10:18:13Z</time>
      </trkpt>
      <trkpt lat="42.9720980" lon="-8.4283270">
        <ele>247.5</ele>
        <time>2022-04-14T10:18:14Z</time>
      </trkpt>
      <trkpt lat="42.9720770" lon="-8.4283700">
        <ele>247.6</ele>
        <time>2022-04-14T10:18:15Z</time>
      </trkpt>
      <trkpt lat="42.9720570" lon="-8.4284130">
        <ele>247.6</ele>
        <time>2022-04-14T10:18:16Z</time>
      </trkpt>
      <trkpt lat="42.9719980" lon="-8.4285430">
        <ele>247.7</ele>
        <time>2022-04-14T10:18:17Z</time>
      </trkpt>
      <trkpt lat="42.9719800" lon="-8.4285880">
        <ele>247.7</ele>
        <time>2022-04-14T10:18:18Z</time>
      </trkpt>
      <trkpt lat="42.9719240" lon="-8.4287190">
        <ele>247.7</ele>
        <time>2022-04-14T10:18:19Z</time>
      </trkpt>
      <trkpt lat="42.9719040" lon="-8.4287630">
        <ele>247.7</ele>
        <time>2022-04-14T10:18:20Z</time>
      </trkpt>
      <trkpt lat="42.9718440" lon="-8.4288940">
        <ele>247.7</ele>
        <time>2022-04-14T10:18:21Z</time>
      </trkpt>
      <trkpt lat="42.9718240" lon="-8.4289390">
        <ele>247.6</ele>
        <time>2022-04-14T10:18:22Z</time>
      </trkpt>
      <trkpt lat="42.9717630" lon="-8.4290720">
        <ele>247.4</ele>
        <time>2022-04-14T10:18:23Z</time>
      </trkpt>
      <trkpt lat="42.9717430" lon="-8.4291170">
        <ele>247.3</ele>
        <time>2022-04-14T10:18:24Z</time>
      </trkpt>
      <trkpt lat="42.9716700" lon="-8.4292850">
        <ele>246.9</ele>
        <time>2022-04-14T10:18:25Z</time>
      </trkpt>
      <trkpt lat="42.9716380" lon="-8.4293640">
        <ele>246.6</ele>
        <time>2022-04-14T10:18:26Z</time>
      </trkpt>
      <trkpt lat="42.9715740" lon="-8.4295230">
        <ele>246.1</ele>
        <time>2022-04-14T10:18:27Z</time>
      </trkpt>
      <trkpt lat="42.9715320" lon="-8.4296330">
        <ele>245.7</ele>
        <time>2022-04-14T10:18:28Z</time>
      </trkpt>
      <trkpt lat="42.9714870" lon="-8.4297390">
        <ele>245.4</ele>
        <time>2022-04-14T10:18:29Z</time>
      </trkpt>
      <trkpt lat="42.9714420" lon="-8.4298510">
        <ele>245.1</ele>
        <time>2022-04-14T10:18:30Z</time>
      </trkpt>
      <trkpt lat="42.9713940" lon="-8.4299680">
        <ele>244.8</ele>
        <time>2022-04-14T10:18:31Z</time>
      </trkpt>
      <trkpt lat="42.9713430" lon="-8.4300810">
        <ele>244.5</ele>
        <time>2022-04-14T10:18:32Z</time>
      </trkpt>
      <trkpt lat="42.9712950" lon="-8.4301920">
        <ele>244.2</ele>
        <time>2022-04-14T10:18:33Z</time>
      </trkpt>
      <trkpt lat="42.9712470" lon="-8.4303010">
        <ele>244.0</ele>
        <time>2022-04-14T10:18:34Z</time>
      </trkpt>
      <trkpt lat="42.9711970" lon="-8.4304060">
        <ele>244.0</ele>
        <time>2022-04-14T10:18:35Z</time>
      </trkpt>
      <trkpt lat="42.9711500" lon="-8.4305110">
        <ele>243.9</ele>
        <time>2022-04-14T10:18:36Z</time>
      </trkpt>
      <trkpt lat="42.9711030" lon="-8.4306140">
        <ele>243.8</ele>
        <time>2022-04-14T10:18:37Z</time>
      </trkpt>
      <trkpt lat="42.9710570" lon="-8.4307160">
        <ele>243.7</ele>
        <time>2022-04-14T10:18:38Z</time>
      </trkpt>
      <trkpt lat="42.9709640" lon="-8.4309210">
        <ele>243.6</ele>
        <time>2022-04-14T10:18:39Z</time>
      </trkpt>
      <trkpt lat="42.9709640" lon="-8.4309210">
        <ele>243.6</ele>
        <time>2022-04-14T10:18:40Z</time>
      </trkpt>
      <trkpt lat="42.9709410" lon="-8.4309710">
        <ele>243.6</ele>
        <time>2022-04-14T10:18:41Z</time>
      </trkpt>
      <trkpt lat="42.9709180" lon="-8.4310220">
        <ele>243.6</ele>
        <time>2022-04-14T10:18:42Z</time>
      </trkpt>
      <trkpt lat="42.9708500" lon="-8.4311720">
        <ele>243.6</ele>
        <time>2022-04-14T10:18:43Z</time>
      </trkpt>
      <trkpt lat="42.9708280" lon="-8.4312230">
        <ele>243.6</ele>
        <time>2022-04-14T10:18:44Z</time>
      </trkpt>
      <trkpt lat="42.9707610" lon="-8.4313700">
        <ele>243.7</ele>
        <time>2022-04-14T10:18:45Z</time>
      </trkpt>
      <trkpt lat="42.9707390" lon="-8.4314180">
        <ele>243.8</ele>
        <time>2022-04-14T10:18:46Z</time>
      </trkpt>
      <trkpt lat="42.9706730" lon="-8.4315600">
        <ele>243.9</ele>
        <time>2022-04-14T10:18:47Z</time>
      </trkpt>
      <trkpt lat="42.9706510" lon="-8.4316080">
        <ele>244.0</ele>
        <time>2022-04-14T10:18:48Z</time>
      </trkpt>
      <trkpt lat="42.9705860" lon="-8.4317500">
        <ele>244.3</ele>
        <time>2022-04-14T10:18:49Z</time>
      </trkpt>
      <trkpt lat="42.9705640" lon="-8.4317960">
        <ele>244.3</ele>
        <time>2022-04-14T10:18:50Z</time>
      </trkpt>
      <trkpt lat="42.9704980" lon="-8.4319290">
        <ele>244.6</ele>
        <time>2022-04-14T10:18:51Z</time>
      </trkpt>
      <trkpt lat="42.9704760" lon="-8.4319700">
        <ele>244.7</ele>
        <time>2022-04-14T10:18:52Z</time>
      </trkpt>
      <trkpt lat="42.9704120" lon="-8.4320970">
        <ele>245.1</ele>
        <time>2022-04-14T10:18:53Z</time>
      </trkpt>
      <trkpt lat="42.9703920" lon="-8.4321420">
        <ele>245.2</ele>
        <time>2022-04-14T10:18:54Z</time>
      </trkpt>
      <trkpt lat="42.9703140" lon="-8.4323160">
        <ele>245.8</ele>
        <time>2022-04-14T10:18:55Z</time>
      </trkpt>
      <trkpt lat="42.9702770" lon="-8.4324030">
        <ele>246.1</ele>
        <time>2022-04-14T10:18:56Z</time>
      </trkpt>
      <trkpt lat="42.9702040" lon="-8.4325750">
        <ele>246.8</ele>
        <time>2022-04-14T10:18:57Z</time>
      </trkpt>
      <trkpt lat="42.9702040" lon="-8.4325750">
        <ele>246.8</ele>
        <time>2022-04-14T10:18:58Z</time>
      </trkpt>
      <trkpt lat="42.9701870" lon="-8.4326170">
        <ele>247.0</ele>
        <time>2022-04-14T10:18:59Z</time>
      </trkpt>
      <trkpt lat="42.9701700" lon="-8.4326580">
        <ele>247.2</ele>
        <time>2022-04-14T10:19:00Z</time>
      </trkpt>
      <trkpt lat="42.9701190" lon="-8.4327790">
        <ele>247.7</ele>
        <time>2022-04-14T10:19:01Z</time>
      </trkpt>
      <trkpt lat="42.9701020" lon="-8.4328170">
        <ele>247.8</ele>
        <time>2022-04-14T10:19:02Z</time>
      </trkpt>
      <trkpt lat="42.9700520" lon="-8.4329310">
        <ele>248.3</ele>
        <time>2022-04-14T10:19:03Z</time>
      </trkpt>
      <trkpt lat="42.9700350" lon="-8.4329690">
        <ele>248.4</ele>
        <time>2022-04-14T10:19:04Z</time>
      </trkpt>
      <trkpt lat="42.9699860" lon="-8.4330830">
        <ele>248.8</ele>
        <time>2022-04-14T10:19:05Z</time>
      </trkpt>
      <trkpt lat="42.9699690" lon="-8.4331190">
        <ele>248.9</ele>
        <time>2022-04-14T10:19:06Z</time>
      </trkpt>
      <trkpt lat="42.9699180" lon="-8.4332300">
        <ele>249.2</ele>
        <time>2022-04-14T10:19:07Z</time>
      </trkpt>
      <trkpt lat="42.9699020" lon="-8.4332660">
        <ele>249.3</ele>
        <time>2022-04-14T10:19:08Z</time>
      </trkpt>
      <trkpt lat="42.9698520" lon="-8.4333770">
        <ele>249.5</ele>
        <time>2022-04-14T10:19:09Z</time>
      </trkpt>
      <trkpt lat="42.9698360" lon="-8.4334140">
        <ele>249.6</ele>
        <time>2022-04-14T10:19:10Z</time>
      </trkpt>
      <trkpt lat="42.9697870" lon="-8.4335270">
        <ele>249.7</ele>
        <time>2022-04-14T10:19:11Z</time>
      </trkpt>
      <trkpt lat="42.9697700" lon="-8.4335650">
        <ele>249.7</ele>
        <time>2022-04-14T10:19:12Z</time>
      </trkpt>
      <trkpt lat="42.9697200" lon="-8.4336830">
        <ele>249.7</ele>
        <time>2022-04-14T10:19:13Z</time>
      </trkpt>
      <trkpt lat="42.9697010" lon="-8.4337230">
        <ele>249.7</ele>
        <time>2022-04-14T10:19:14Z</time>
      </trkpt>
      <trkpt lat="42.9696280" lon="-8.4338890">
        <ele>249.6</ele>
        <time>2022-04-14T10:19:15Z</time>
      </trkpt>
      <trkpt lat="42.9695910" lon="-8.4339740">
        <ele>249.5</ele>
        <time>2022-04-14T10:19:16Z</time>
      </trkpt>
      <trkpt lat="42.9695170" lon="-8.4341450">
        <ele>249.1</ele>
        <time>2022-04-14T10:19:17Z</time>
      </trkpt>
      <trkpt lat="42.9695170" lon="-8.4341450">
        <ele>249.1</ele>
        <time>2022-04-14T10:19:18Z</time>
      </trkpt>
      <trkpt lat="42.9694970" lon="-8.4341940">
        <ele>248.9</ele>
        <time>2022-04-14T10:19:19Z</time>
      </trkpt>
      <trkpt lat="42.9694780" lon="-8.4342440">
        <ele>248.8</ele>
        <time>2022-04-14T10:19:20Z</time>
      </trkpt>
      <trkpt lat="42.9694110" lon="-8.4344260">
        <ele>248.1</ele>
        <time>2022-04-14T10:19:21Z</time>
      </trkpt>
      <trkpt lat="42.9693830" lon="-8.4345090">
        <ele>247.7</ele>
        <time>2022-04-14T10:19:22Z</time>
      </trkpt>
      <trkpt lat="42.9693280" lon="-8.4346760">
        <ele>246.9</ele>
        <time>2022-04-14T10:19:23Z</time>
      </trkpt>
      <trkpt lat="42.9692910" lon="-8.4347890">
        <ele>246.3</ele>
        <time>2022-04-14T10:19:24Z</time>
      </trkpt>
      <trkpt lat="42.9692540" lon="-8.4349110">
        <ele>245.7</ele>
        <time>2022-04-14T10:19:25Z</time>
      </trkpt>
      <trkpt lat="42.9692100" lon="-8.4350270">
        <ele>245.1</ele>
        <time>2022-04-14T10:19:26Z</time>
      </trkpt>
      <trkpt lat="42.9691750" lon="-8.4351600">
        <ele>244.4</ele>
        <time>2022-04-14T10:19:27Z</time>
      </trkpt>
      <trkpt lat="42.9691380" lon="-8.4352950">
        <ele>243.8</ele>
        <time>2022-04-14T10:19:28Z</time>
      </trkpt>
      <trkpt lat="42.9691010" lon="-8.4354220">
        <ele>243.3</ele>
        <time>2022-04-14T10:19:29Z</time>
      </trkpt>
      <trkpt lat="42.9690690" lon="-8.4355460">
        <ele>242.9</ele>
        <time>2022-04-14T10:19:30Z</time>
      </trkpt>
      <trkpt lat="42.9690390" lon="-8.4356730">
        <ele>242.6</ele>
        <time>2022-04-14T10:19:31Z</time>
      </trkpt>
      <trkpt lat="42.9690010" lon="-8.4358040">
        <ele>242.3</ele>
        <time>2022-04-14T10:19:32Z</time>
      </trkpt>
      <trkpt lat="42.9689630" lon="-8.4359340">
        <ele>242.1</ele>
        <time>2022-04-14T10:19:33Z</time>
      </trkpt>
      <trkpt lat="42.9689230" lon="-8.4360570">
        <ele>241.9</ele>
        <time>2022-04-14T10:19:34Z</time>
      </trkpt>
      <trkpt lat="42.9688860" lon="-8.4361750">
        <ele>241.8</ele>
        <time>2022-04-14T10:19:35Z</time>
      </trkpt>
      <trkpt lat="42.9688130" lon="-8.4364110">
        <ele>241.7</ele>
        <time>2022-04-14T10:19:36Z</time>
      </trkpt>
      <trkpt lat="42.9688130" lon="-8.4364110">
        <ele>241.7</ele>
        <time>2022-04-14T10:19:37Z</time>
      </trkpt>
      <trkpt lat="42.9687770" lon="-8.4365250">
        <ele>241.7</ele>
        <time>2022-04-14T10:19:38Z</time>
      </trkpt>
      <trkpt lat="42.9687600" lon="-8.4365790">
        <ele>241.7</ele>
        <time>2022-04-14T10:19:39Z</time>
      </trkpt>
      <trkpt lat="42.9687420" lon="-8.4366340">
        <ele>241.8</ele>
        <time>2022-04-14T10:19:40Z</time>
      </trkpt>
      <trkpt lat="42.9686920" lon="-8.4367960">
        <ele>241.8</ele>
        <time>2022-04-14T10:19:41Z</time>
      </trkpt>
      <trkpt lat="42.9686760" lon="-8.4368480">
        <ele>241.8</ele>
        <time>2022-04-14T10:19:42Z</time>
      </trkpt>
      <trkpt lat="42.9686280" lon="-8.4370040">
        <ele>241.9</ele>
        <time>2022-04-14T10:19:43Z</time>
      </trkpt>
      <trkpt lat="42.9686110" lon="-8.4370530">
        <ele>241.9</ele>
        <time>2022-04-14T10:19:44Z</time>
      </trkpt>
      <trkpt lat="42.9685650" lon="-8.4372010">
        <ele>241.8</ele>
        <time>2022-04-14T10:19:45Z</time>
      </trkpt>
      <trkpt lat="42.9685500" lon="-8.4372500">
        <ele>241.8</ele>
        <time>2022-04-14T10:19:46Z</time>
      </trkpt>
      <trkpt lat="42.9685080" lon="-8.4373970">
        <ele>241.7</ele>
        <time>2022-04-14T10:19:47Z</time>
      </trkpt>
      <trkpt lat="42.9684940" lon="-8.4374480">
        <ele>241.6</ele>
        <time>2022-04-14T10:19:48Z</time>
      </trkpt>
      <trkpt lat="42.9684510" lon="-8.4375980">
        <ele>241.6</ele>
        <time>2022-04-14T10:19:49Z</time>
      </trkpt>
      <trkpt lat="42.9684360" lon="-8.4376460">
        <ele>241.6</ele>
        <time>2022-04-14T10:19:50Z</time>
      </trkpt>
      <trkpt lat="42.9683920" lon="-8.4377930">
        <ele>241.6</ele>
        <time>2022-04-14T10:19:51Z</time>
      </trkpt>
      <trkpt lat="42.9683780" lon="-8.4378430">
        <ele>241.6</ele>
        <time>2022-04-14T10:19:52Z</time>
      </trkpt>
      <trkpt lat="42.9683180" lon="-8.4380360">
        <ele>241.6</ele>
        <time>2022-04-14T10:19:53Z</time>
      </trkpt>
      <trkpt lat="42.9682860" lon="-8.4381310">
        <ele>241.6</ele>
        <time>2022-04-14T10:19:54Z</time>
      </trkpt>
      <trkpt lat="42.9682240" lon="-8.4383200">
        <ele>241.7</ele>
        <time>2022-04-14T10:19:55Z</time>
      </trkpt>
      <trkpt lat="42.9682240" lon="-8.4383200">
        <ele>241.7</ele>
        <time>2022-04-14T10:19:56Z</time>
      </trkpt>
      <trkpt lat="42.9682090" lon="-8.4383600">
        <ele>241.8</ele>
        <time>2022-04-14T10:19:57Z</time>
      </trkpt>
      <trkpt lat="42.9681940" lon="-8.4384000">
        <ele>241.8</ele>
        <time>2022-04-14T10:19:58Z</time>
      </trkpt>
      <trkpt lat="42.9681490" lon="-8.4385190">
        <ele>241.9</ele>
        <time>2022-04-14T10:19:59Z</time>
      </trkpt>
      <trkpt lat="42.9681350" lon="-8.4385580">
        <ele>241.9</ele>
        <time>2022-04-14T10:20:00Z</time>
      </trkpt>
      <trkpt lat="42.9680920" lon="-8.4386740">
        <ele>242.1</ele>
        <time>2022-04-14T10:20:01Z</time>
      </trkpt>
      <trkpt lat="42.9680770" lon="-8.4387130">
        <ele>242.1</ele>
        <time>2022-04-14T10:20:02Z</time>
      </trkpt>
      <trkpt lat="42.9680350" lon="-8.4388390">
        <ele>242.3</ele>
        <time>2022-04-14T10:20:03Z</time>
      </trkpt>
      <trkpt lat="42.9680210" lon="-8.4388860">
        <ele>242.3</ele>
        <time>2022-04-14T10:20:04Z</time>
      </trkpt>
      <trkpt lat="42.9679840" lon="-8.4390240">
        <ele>242.5</ele>
        <time>2022-04-14T10:20:05Z</time>
      </trkpt>
      <trkpt lat="42.9679730" lon="-8.4390670">
        <ele>242.6</ele>
        <time>2022-04-14T10:20:06Z</time>
      </trkpt>
      <trkpt lat="42.9679380" lon="-8.4391960">
        <ele>242.7</ele>
        <time>2022-04-14T10:20:07Z</time>
      </trkpt>
      <trkpt lat="42.9679240" lon="-8.4392380">
        <ele>242.8</ele>
        <time>2022-04-14T10:20:08Z</time>
      </trkpt>
      <trkpt lat="42.9678820" lon="-8.4393600">
        <ele>243.0</ele>
        <time>2022-04-14T10:20:09Z</time>
      </trkpt>
      <trkpt lat="42.9678670" lon="-8.4394000">
        <ele>243.0</ele>
        <time>2022-04-14T10:20:10Z</time>
      </trkpt>
      <trkpt lat="42.9678220" lon="-8.4395230">
        <ele>243.2</ele>
        <time>2022-04-14T10:20:11Z</time>
      </trkpt>
      <trkpt lat="42.9678070" lon="-8.4395670">
        <ele>243.2</ele>
        <time>2022-04-14T10:20:12Z</time>
      </trkpt>
      <trkpt lat="42.9677590" lon="-8.4396970">
        <ele>243.1</ele>
        <time>2022-04-14T10:20:13Z</time>
      </trkpt>
      <trkpt lat="42.9677410" lon="-8.4397390">
        <ele>243.1</ele>
        <time>2022-04-14T10:20:14Z</time>
      </trkpt>
      <trkpt lat="42.9676870" lon="-8.4398700">
        <ele>242.8</ele>
        <time>2022-04-14T10:20:15Z</time>
      </trkpt>
      <trkpt lat="42.9676690" lon="-8.4399180">
        <ele>242.7</ele>
        <time>2022-04-14T10:20:16Z</time>
      </trkpt>
      <trkpt lat="42.9676130" lon="-8.4400610">
        <ele>242.3</ele>
        <time>2022-04-14T10:20:17Z</time>
      </trkpt>
      <trkpt lat="42.9675920" lon="-8.4401080">
        <ele>242.1</ele>
        <time>2022-04-14T10:20:18Z</time>
      </trkpt>
      <trkpt lat="42.9675320" lon="-8.4402560">
        <ele>241.5</ele>
        <time>2022-04-14T10:20:19Z</time>
      </trkpt>
      <trkpt lat="42.9675130" lon="-8.4403080">
        <ele>241.3</ele>
        <time>2022-04-14T10:20:20Z</time>
      </trkpt>
      <trkpt lat="42.9674470" lon="-8.4404950">
        <ele>240.8</ele>
        <time>2022-04-14T10:20:21Z</time>
      </trkpt>
      <trkpt lat="42.9674190" lon="-8.4405780">
        <ele>240.5</ele>
        <time>2022-04-14T10:20:22Z</time>
      </trkpt>
      <trkpt lat="42.9673630" lon="-8.4407450">
        <ele>240.1</ele>
        <time>2022-04-14T10:20:23Z</time>
      </trkpt>
      <trkpt lat="42.9673330" lon="-8.4408390">
        <ele>239.9</ele>
        <time>2022-04-14T10:20:24Z</time>
      </trkpt>
      <trkpt lat="42.9673030" lon="-8.4409340">
        <ele>239.6</ele>
        <time>2022-04-14T10:20:25Z</time>
      </trkpt>
      <trkpt lat="42.9672730" lon="-8.4410280">
        <ele>239.3</ele>
        <time>2022-04-14T10:20:26Z</time>
      </trkpt>
      <trkpt lat="42.9671830" lon="-8.4413120">
        <ele>238.4</ele>
        <time>2022-04-14T10:20:27Z</time>
      </trkpt>
      <trkpt lat="42.9671830" lon="-8.4413120">
        <ele>238.4</ele>
        <time>2022-04-14T10:20:28Z</time>
      </trkpt>
      <trkpt lat="42.9671660" lon="-8.4413660">
        <ele>238.2</ele>
        <time>2022-04-14T10:20:29Z</time>
      </trkpt>
      <trkpt lat="42.9671490" lon="-8.4414210">
        <ele>238.1</ele>
        <time>2022-04-14T10:20:30Z</time>
      </trkpt>
      <trkpt lat="42.9670880" lon="-8.4416410">
        <ele>237.3</ele>
        <time>2022-04-14T10:20:31Z</time>
      </trkpt>
      <trkpt lat="42.9670620" lon="-8.4417540">
        <ele>237.0</ele>
        <time>2022-04-14T10:20:32Z</time>
      </trkpt>
      <trkpt lat="42.9670100" lon="-8.4419780">
        <ele>236.4</ele>
        <time>2022-04-14T10:20:33Z</time>
      </trkpt>
      <trkpt lat="42.9670100" lon="-8.4419780">
        <ele>236.4</ele>
        <time>2022-04-14T10:20:34Z</time>
      </trkpt>
      <trkpt lat="42.9669920" lon="-8.4420670">
        <ele>236.2</ele>
        <time>2022-04-14T10:20:35Z</time>
      </trkpt>
      <trkpt lat="42.9669740" lon="-8.4421550">
        <ele>236.0</ele>
        <time>2022-04-14T10:20:36Z</time>
      </trkpt>
      <trkpt lat="42.9669370" lon="-8.4423320">
        <ele>235.6</ele>
        <time>2022-04-14T10:20:37Z</time>
      </trkpt>
      <trkpt lat="42.9669290" lon="-8.4423920">
        <ele>235.5</ele>
        <time>2022-04-14T10:20:38Z</time>
      </trkpt>
      <trkpt lat="42.9669200" lon="-8.4424510">
        <ele>235.4</ele>
        <time>2022-04-14T10:20:39Z</time>
      </trkpt>
      <trkpt lat="42.9668950" lon="-8.4426310">
        <ele>235.0</ele>
        <time>2022-04-14T10:20:40Z</time>
      </trkpt>
      <trkpt lat="42.9668870" lon="-8.4426910">
        <ele>234.9</ele>
        <time>2022-04-14T10:20:41Z</time>
      </trkpt>
      <trkpt lat="42.9668580" lon="-8.4428700">
        <ele>234.1</ele>
        <time>2022-04-14T10:20:42Z</time>
      </trkpt>
      <trkpt lat="42.9668460" lon="-8.4429280">
        <ele>233.8</ele>
        <time>2022-04-14T10:20:43Z</time>
      </trkpt>
      <trkpt lat="42.9668070" lon="-8.4431030">
        <ele>232.9</ele>
        <time>2022-04-14T10:20:44Z</time>
      </trkpt>
      <trkpt lat="42.9667920" lon="-8.4431600">
        <ele>232.6</ele>
        <time>2022-04-14T10:20:45Z</time>
      </trkpt>
      <trkpt lat="42.9667480" lon="-8.4433630">
        <ele>231.6</ele>
        <time>2022-04-14T10:20:46Z</time>
      </trkpt>
      <trkpt lat="42.9667330" lon="-8.4434530">
        <ele>231.2</ele>
        <time>2022-04-14T10:20:47Z</time>
      </trkpt>
      <trkpt lat="42.9667020" lon="-8.4436320">
        <ele>230.4</ele>
        <time>2022-04-14T10:20:48Z</time>
      </trkpt>
      <trkpt lat="42.9667070" lon="-8.4436870">
        <ele>230.3</ele>
        <time>2022-04-14T10:20:49Z</time>
      </trkpt>
      <trkpt lat="42.9667120" lon="-8.4437430">
        <ele>230.2</ele>
        <time>2022-04-14T10:20:50Z</time>
      </trkpt>
      <trkpt lat="42.9667350" lon="-8.4438990">
        <ele>229.4</ele>
        <time>2022-04-14T10:20:51Z</time>
      </trkpt>
      <trkpt lat="42.9667470" lon="-8.4439450">
        <ele>229.2</ele>
        <time>2022-04-14T10:20:52Z</time>
      </trkpt>
      <trkpt lat="42.9667600" lon="-8.4441000">
        <ele>228.6</ele>
        <time>2022-04-14T10:20:53Z</time>
      </trkpt>
      <trkpt lat="42.9667480" lon="-8.4441630">
        <ele>228.4</ele>
        <time>2022-04-14T10:20:54Z</time>
      </trkpt>
      <trkpt lat="42.9667070" lon="-8.4442040">
        <ele>228.3</ele>
        <time>2022-04-14T10:20:55Z</time>
      </trkpt>
      <trkpt lat="42.9666660" lon="-8.4442440">
        <ele>228.2</ele>
        <time>2022-04-14T10:20:56Z</time>
      </trkpt>
      <trkpt lat="42.9665830" lon="-8.4443250">
        <ele>228.0</ele>
        <time>2022-04-14T10:20:57Z</time>
      </trkpt>
      <trkpt lat="42.9665830" lon="-8.4443250">
        <ele>228.0</ele>
        <time>2022-04-14T10:20:58Z</time>
      </trkpt>
      <trkpt lat="42.9665520" lon="-8.4443410">
        <ele>228.0</ele>
        <time>2022-04-14T10:20:59Z</time>
      </trkpt>
      <trkpt lat="42.9665210" lon="-8.4443570">
        <ele>227.9</ele>
        <time>2022-04-14T10:21:00Z</time>
      </trkpt>
      <trkpt lat="42.9664250" lon="-8.4444120">
        <ele>227.7</ele>
        <time>2022-04-14T10:21:01Z</time>
      </trkpt>
      <trkpt lat="42.9663910" lon="-8.4444340">
        <ele>227.7</ele>
        <time>2022-04-14T10:21:02Z</time>
      </trkpt>
      <trkpt lat="42.9662930" lon="-8.4445080">
        <ele>227.6</ele>
        <time>2022-04-14T10:21:03Z</time>
      </trkpt>
      <trkpt lat="42.9662630" lon="-8.4445360">
        <ele>227.6</ele>
        <time>2022-04-14T10:21:04Z</time>
      </trkpt>
      <trkpt lat="42.9661750" lon="-8.4446310">
        <ele>227.5</ele>
        <time>2022-04-14T10:21:05Z</time>
      </trkpt>
      <trkpt lat="42.9661480" lon="-8.4446680">
        <ele>227.5</ele>
        <time>2022-04-14T10:21:06Z</time>
      </trkpt>
      <trkpt lat="42.9660700" lon="-8.4447880">
        <ele>227.6</ele>
        <time>2022-04-14T10:21:07Z</time>
      </trkpt>
      <trkpt lat="42.9660470" lon="-8.4448330">
        <ele>227.6</ele>
        <time>2022-04-14T10:21:08Z</time>
      </trkpt>
      <trkpt lat="42.9659670" lon="-8.4450300">
        <ele>227.7</ele>
        <time>2022-04-14T10:21:09Z</time>
      </trkpt>
      <trkpt lat="42.9659340" lon="-8.4451360">
        <ele>227.7</ele>
        <time>2022-04-14T10:21:10Z</time>
      </trkpt>
      <trkpt lat="42.9658690" lon="-8.4453480">
        <ele>227.8</ele>
        <time>2022-04-14T10:21:11Z</time>
      </trkpt>
      <trkpt lat="42.9658690" lon="-8.4453480">
        <ele>227.8</ele>
        <time>2022-04-14T10:21:12Z</time>
      </trkpt>
      <trkpt lat="42.9658580" lon="-8.4453970">
        <ele>227.8</ele>
        <time>2022-04-14T10:21:13Z</time>
      </trkpt>
      <trkpt lat="42.9658470" lon="-8.4454460">
        <ele>227.8</ele>
        <time>2022-04-14T10:21:14Z</time>
      </trkpt>
      <trkpt lat="42.9658110" lon="-8.4455950">
        <ele>227.8</ele>
        <time>2022-04-14T10:21:15Z</time>
      </trkpt>
      <trkpt lat="42.9657980" lon="-8.4456450">
        <ele>227.8</ele>
        <time>2022-04-14T10:21:16Z</time>
      </trkpt>
      <trkpt lat="42.9657590" lon="-8.4458030">
        <ele>227.7</ele>
        <time>2022-04-14T10:21:17Z</time>
      </trkpt>
      <trkpt lat="42.9657480" lon="-8.4458600">
        <ele>227.7</ele>
        <time>2022-04-14T10:21:18Z</time>
      </trkpt>
      <trkpt lat="42.9657040" lon="-8.4460600">
        <ele>227.5</ele>
        <time>2022-04-14T10:21:19Z</time>
      </trkpt>
      <trkpt lat="42.9656840" lon="-8.4461460">
        <ele>227.4</ele>
        <time>2022-04-14T10:21:20Z</time>
      </trkpt>
      <trkpt lat="42.9656420" lon="-8.4463190">
        <ele>227.3</ele>
        <time>2022-04-14T10:21:21Z</time>
      </trkpt>
      <trkpt lat="42.9656150" lon="-8.4464390">
        <ele>227.2</ele>
        <time>2022-04-14T10:21:22Z</time>
      </trkpt>
      <trkpt lat="42.9655910" lon="-8.4465590">
        <ele>227.1</ele>
        <time>2022-04-14T10:21:23Z</time>
      </trkpt>
      <trkpt lat="42.9655640" lon="-8.4466770">
        <ele>227.1</ele>
        <time>2022-04-14T10:21:24Z</time>
      </trkpt>
      <trkpt lat="42.9655320" lon="-8.4467920">
        <ele>227.0</ele>
        <time>2022-04-14T10:21:25Z</time>
      </trkpt>
      <trkpt lat="42.9655210" lon="-8.4468490">
        <ele>227.0</ele>
        <time>2022-04-14T10:21:26Z</time>
      </trkpt>
      <trkpt lat="42.9655090" lon="-8.4469050">
        <ele>227.0</ele>
        <time>2022-04-14T10:21:27Z</time>
      </trkpt>
      <trkpt lat="42.9654640" lon="-8.4471270">
        <ele>227.3</ele>
        <time>2022-04-14T10:21:28Z</time>
      </trkpt>
      <trkpt lat="42.9654430" lon="-8.4472360">
        <ele>227.5</ele>
        <time>2022-04-14T10:21:29Z</time>
      </trkpt>
      <trkpt lat="42.9653990" lon="-8.4474540">
        <ele>227.9</ele>
        <time>2022-04-14T10:21:30Z</time>
      </trkpt>
      <trkpt lat="42.9653990" lon="-8.4474540">
        <ele>227.9</ele>
        <time>2022-04-14T10:21:31Z</time>
      </trkpt>
      <trkpt lat="42.9653860" lon="-8.4475020">
        <ele>228.1</ele>
        <time>2022-04-14T10:21:32Z</time>
      </trkpt>
      <trkpt lat="42.9653730" lon="-8.4475500">
        <ele>228.2</ele>
        <time>2022-04-14T10:21:33Z</time>
      </trkpt>
      <trkpt lat="42.9653290" lon="-8.4476890">
        <ele>228.6</ele>
        <time>2022-04-14T10:21:34Z</time>
      </trkpt>
      <trkpt lat="42.9653120" lon="-8.4477320">
        <ele>228.7</ele>
        <time>2022-04-14T10:21:35Z</time>
      </trkpt>
      <trkpt lat="42.9652600" lon="-8.4478600">
        <ele>229.2</ele>
        <time>2022-04-14T10:21:36Z</time>
      </trkpt>
      <trkpt lat="42.9652410" lon="-8.4479000">
        <ele>229.4</ele>
        <time>2022-04-14T10:21:37Z</time>
      </trkpt>
      <trkpt lat="42.9651850" lon="-8.4480220">
        <ele>229.9</ele>
        <time>2022-04-14T10:21:38Z</time>
      </trkpt>
      <trkpt lat="42.9651650" lon="-8.4480620">
        <ele>230.1</ele>
        <time>2022-04-14T10:21:39Z</time>
      </trkpt>
      <trkpt lat="42.9651070" lon="-8.4481820">
        <ele>230.7</ele>
        <time>2022-04-14T10:21:40Z</time>
      </trkpt>
      <trkpt lat="42.9650880" lon="-8.4482220">
        <ele>230.9</ele>
        <time>2022-04-14T10:21:41Z</time>
      </trkpt>
      <trkpt lat="42.9650320" lon="-8.4483370">
        <ele>231.6</ele>
        <time>2022-04-14T10:21:42Z</time>
      </trkpt>
      <trkpt lat="42.9650140" lon="-8.4483730">
        <ele>231.8</ele>
        <time>2022-04-14T10:21:43Z</time>
      </trkpt>
      <trkpt lat="42.9649600" lon="-8.4484770">
        <ele>232.4</ele>
        <time>2022-04-14T10:21:44Z</time>
      </trkpt>
      <trkpt lat="42.9649430" lon="-8.4485100">
        <ele>232.6</ele>
        <time>2022-04-14T10:21:45Z</time>
      </trkpt>
      <trkpt lat="42.9648910" lon="-8.4486060">
        <ele>233.3</ele>
        <time>2022-04-14T10:21:46Z</time>
      </trkpt>
      <trkpt lat="42.9648730" lon="-8.4486390">
        <ele>233.5</ele>
        <time>2022-04-14T10:21:47Z</time>
      </trkpt>
      <trkpt lat="42.9648090" lon="-8.4487600">
        <ele>234.4</ele>
        <time>2022-04-14T10:21:48Z</time>
      </trkpt>
      <trkpt lat="42.9647800" lon="-8.4488170">
        <ele>234.8</ele>
        <time>2022-04-14T10:21:49Z</time>
      </trkpt>
      <trkpt lat="42.9647640" lon="-8.4488450">
        <ele>235.0</ele>
        <time>2022-04-14T10:21:50Z</time>
      </trkpt>
      <trkpt lat="42.9647490" lon="-8.4488720">
        <ele>235.2</ele>
        <time>2022-04-14T10:21:51Z</time>
      </trkpt>
      <trkpt lat="42.9646880" lon="-8.4489850">
        <ele>236.0</ele>
        <time>2022-04-14T10:21:52Z</time>
      </trkpt>
      <trkpt lat="42.9646590" lon="-8.4490420">
        <ele>236.4</ele>
        <time>2022-04-14T10:21:53Z</time>
      </trkpt>
      <trkpt lat="42.9646440" lon="-8.4490710">
        <ele>236.7</ele>
        <time>2022-04-14T10:21:54Z</time>
      </trkpt>
      <trkpt lat="42.9646290" lon="-8.4491010">
        <ele>236.9</ele>
        <time>2022-04-14T10:21:55Z</time>
      </trkpt>
      <trkpt lat="42.9645720" lon="-8.4492150">
        <ele>237.7</ele>
        <time>2022-04-14T10:21:56Z</time>
      </trkpt>
      <trkpt lat="42.9645440" lon="-8.4492700">
        <ele>238.0</ele>
        <time>2022-04-14T10:21:57Z</time>
      </trkpt>
      <trkpt lat="42.9645100" lon="-8.4493250">
        <ele>238.4</ele>
        <time>2022-04-14T10:21:58Z</time>
      </trkpt>
      <trkpt lat="42.9644760" lon="-8.4493810">
        <ele>238.8</ele>
        <time>2022-04-14T10:21:59Z</time>
      </trkpt>
      <trkpt lat="42.9644480" lon="-8.4494320">
        <ele>239.2</ele>
        <time>2022-04-14T10:22:00Z</time>
      </trkpt>
      <trkpt lat="42.9644190" lon="-8.4494840">
        <ele>239.5</ele>
        <time>2022-04-14T10:22:01Z</time>
      </trkpt>
      <trkpt lat="42.9643900" lon="-8.4495410">
        <ele>239.8</ele>
        <time>2022-04-14T10:22:02Z</time>
      </trkpt>
      <trkpt lat="42.9643610" lon="-8.4495980">
        <ele>240.0</ele>
        <time>2022-04-14T10:22:03Z</time>
      </trkpt>
      <trkpt lat="42.9643460" lon="-8.4496270">
        <ele>240.0</ele>
        <time>2022-04-14T10:22:04Z</time>
      </trkpt>
      <trkpt lat="42.9643320" lon="-8.4496560">
        <ele>240.0</ele>
        <time>2022-04-14T10:22:05Z</time>
      </trkpt>
      <trkpt lat="42.9642710" lon="-8.4497670">
        <ele>240.5</ele>
        <time>2022-04-14T10:22:06Z</time>
      </trkpt>
      <trkpt lat="42.9642390" lon="-8.4498200">
        <ele>240.8</ele>
        <time>2022-04-14T10:22:07Z</time>
      </trkpt>
      <trkpt lat="42.9641660" lon="-8.4499240">
        <ele>241.4</ele>
        <time>2022-04-14T10:22:08Z</time>
      </trkpt>
      <trkpt lat="42.9641660" lon="-8.4499240">
        <ele>241.4</ele>
        <time>2022-04-14T10:22:09Z</time>
      </trkpt>
      <trkpt lat="42.9641470" lon="-8.4499490">
        <ele>241.5</ele>
        <time>2022-04-14T10:22:10Z</time>
      </trkpt>
      <trkpt lat="42.9641280" lon="-8.4499750">
        <ele>241.7</ele>
        <time>2022-04-14T10:22:11Z</time>
      </trkpt>
      <trkpt lat="42.9640680" lon="-8.4500510">
        <ele>242.1</ele>
        <time>2022-04-14T10:22:12Z</time>
      </trkpt>
      <trkpt lat="42.9640480" lon="-8.4500760">
        <ele>242.2</ele>
        <time>2022-04-14T10:22:13Z</time>
      </trkpt>
      <trkpt lat="42.9639850" lon="-8.4501480">
        <ele>242.5</ele>
        <time>2022-04-14T10:22:14Z</time>
      </trkpt>
      <trkpt lat="42.9639640" lon="-8.4501700">
        <ele>242.7</ele>
        <time>2022-04-14T10:22:15Z</time>
      </trkpt>
      <trkpt lat="42.9638810" lon="-8.4502590">
        <ele>243.0</ele>
        <time>2022-04-14T10:22:16Z</time>
      </trkpt>
      <trkpt lat="42.9638410" lon="-8.4503040">
        <ele>243.2</ele>
        <time>2022-04-14T10:22:17Z</time>
      </trkpt>
      <trkpt lat="42.9638210" lon="-8.4503280">
        <ele>243.3</ele>
        <time>2022-04-14T10:22:18Z</time>
      </trkpt>
      <trkpt lat="42.9638000" lon="-8.4503520">
        <ele>243.3</ele>
        <time>2022-04-14T10:22:19Z</time>
      </trkpt>
      <trkpt lat="42.9637380" lon="-8.4504220">
        <ele>243.6</ele>
        <time>2022-04-14T10:22:20Z</time>
      </trkpt>
      <trkpt lat="42.9637170" lon="-8.4504430">
        <ele>243.6</ele>
        <time>2022-04-14T10:22:21Z</time>
      </trkpt>
      <trkpt lat="42.9636320" lon="-8.4505340">
        <ele>243.9</ele>
        <time>2022-04-14T10:22:22Z</time>
      </trkpt>
      <trkpt lat="42.9635880" lon="-8.4505830">
        <ele>244.1</ele>
        <time>2022-04-14T10:22:23Z</time>
      </trkpt>
      <trkpt lat="42.9635010" lon="-8.4506810">
        <ele>244.4</ele>
        <time>2022-04-14T10:22:24Z</time>
      </trkpt>
      <trkpt lat="42.9635010" lon="-8.4506810">
        <ele>244.4</ele>
        <time>2022-04-14T10:22:25Z</time>
      </trkpt>
      <trkpt lat="42.9634780" lon="-8.4507070">
        <ele>244.5</ele>
        <time>2022-04-14T10:22:26Z</time>
      </trkpt>
      <trkpt lat="42.9634540" lon="-8.4507330">
        <ele>244.6</ele>
        <time>2022-04-14T10:22:27Z</time>
      </trkpt>
      <trkpt lat="42.9633850" lon="-8.4508090">
        <ele>244.9</ele>
        <time>2022-04-14T10:22:28Z</time>
      </trkpt>
      <trkpt lat="42.9633640" lon="-8.4508340">
        <ele>245.0</ele>
        <time>2022-04-14T10:22:29Z</time>
      </trkpt>
      <trkpt lat="42.9633000" lon="-8.4509090">
        <ele>245.3</ele>
        <time>2022-04-14T10:22:30Z</time>
      </trkpt>
      <trkpt lat="42.9632800" lon="-8.4509350">
        <ele>245.4</ele>
        <time>2022-04-14T10:22:31Z</time>
      </trkpt>
      <trkpt lat="42.9632170" lon="-8.4510100">
        <ele>245.7</ele>
        <time>2022-04-14T10:22:32Z</time>
      </trkpt>
      <trkpt lat="42.9631940" lon="-8.4510330">
        <ele>245.8</ele>
        <time>2022-04-14T10:22:33Z</time>
      </trkpt>
      <trkpt lat="42.9631280" lon="-8.4510990">
        <ele>246.2</ele>
        <time>2022-04-14T10:22:34Z</time>
      </trkpt>
      <trkpt lat="42.9631060" lon="-8.4511210">
        <ele>246.3</ele>
        <time>2022-04-14T10:22:35Z</time>
      </trkpt>
      <trkpt lat="42.9630420" lon="-8.4511880">
        <ele>246.6</ele>
        <time>2022-04-14T10:22:36Z</time>
      </trkpt>
      <trkpt lat="42.9630210" lon="-8.4512110">
        <ele>246.7</ele>
        <time>2022-04-14T10:22:37Z</time>
      </trkpt>
      <trkpt lat="42.9629580" lon="-8.4512800">
        <ele>247.0</ele>
        <time>2022-04-14T10:22:38Z</time>
      </trkpt>
      <trkpt lat="42.9629370" lon="-8.4513030">
        <ele>247.1</ele>
        <time>2022-04-14T10:22:39Z</time>
      </trkpt>
      <trkpt lat="42.9628740" lon="-8.4513730">
        <ele>247.4</ele>
        <time>2022-04-14T10:22:40Z</time>
      </trkpt>
      <trkpt lat="42.9628540" lon="-8.4513970">
        <ele>247.5</ele>
        <time>2022-04-14T10:22:41Z</time>
      </trkpt>
      <trkpt lat="42.9627750" lon="-8.4514920">
        <ele>247.9</ele>
        <time>2022-04-14T10:22:42Z</time>
      </trkpt>
      <trkpt lat="42.9627360" lon="-8.4515400">
        <ele>248.1</ele>
        <time>2022-04-14T10:22:43Z</time>
      </trkpt>
      <trkpt lat="42.9626960" lon="-8.4515810">
        <ele>248.3</ele>
        <time>2022-04-14T10:22:44Z</time>
      </trkpt>
      <trkpt lat="42.9626570" lon="-8.4516220">
        <ele>248.5</ele>
        <time>2022-04-14T10:22:45Z</time>
      </trkpt>
      <trkpt lat="42.9625770" lon="-8.4517050">
        <ele>249.0</ele>
        <time>2022-04-14T10:22:46Z</time>
      </trkpt>
      <trkpt lat="42.9625770" lon="-8.4517050">
        <ele>249.0</ele>
        <time>2022-04-14T10:22:47Z</time>
      </trkpt>
      <trkpt lat="42.9625410" lon="-8.4517450">
        <ele>249.3</ele>
        <time>2022-04-14T10:22:48Z</time>
      </trkpt>
      <trkpt lat="42.9625040" lon="-8.4517850">
        <ele>249.5</ele>
        <time>2022-04-14T10:22:49Z</time>
      </trkpt>
      <trkpt lat="42.9624650" lon="-8.4518280">
        <ele>249.9</ele>
        <time>2022-04-14T10:22:50Z</time>
      </trkpt>
      <trkpt lat="42.9624260" lon="-8.4518720">
        <ele>250.2</ele>
        <time>2022-04-14T10:22:51Z</time>
      </trkpt>
      <trkpt lat="42.9623890" lon="-8.4519100">
        <ele>250.6</ele>
        <time>2022-04-14T10:22:52Z</time>
      </trkpt>
      <trkpt lat="42.9623520" lon="-8.4519490">
        <ele>250.9</ele>
        <time>2022-04-14T10:22:53Z</time>
      </trkpt>
      <trkpt lat="42.9623320" lon="-8.4519680">
        <ele>251.1</ele>
        <time>2022-04-14T10:22:54Z</time>
      </trkpt>
      <trkpt lat="42.9623110" lon="-8.4519880">
        <ele>251.3</ele>
        <time>2022-04-14T10:22:55Z</time>
      </trkpt>
      <trkpt lat="42.9622290" lon="-8.4520690">
        <ele>252.0</ele>
        <time>2022-04-14T10:22:56Z</time>
      </trkpt>
      <trkpt lat="42.9621870" lon="-8.4521110">
        <ele>252.4</ele>
        <time>2022-04-14T10:22:57Z</time>
      </trkpt>
      <trkpt lat="42.9621460" lon="-8.4521530">
        <ele>252.8</ele>
        <time>2022-04-14T10:22:58Z</time>
      </trkpt>
      <trkpt lat="42.9621050" lon="-8.4521950">
        <ele>253.2</ele>
        <time>2022-04-14T10:22:59Z</time>
      </trkpt>
      <trkpt lat="42.9620840" lon="-8.4522160">
        <ele>253.4</ele>
        <time>2022-04-14T10:23:00Z</time>
      </trkpt>
      <trkpt lat="42.9620640" lon="-8.4522380">
        <ele>253.6</ele>
        <time>2022-04-14T10:23:01Z</time>
      </trkpt>
      <trkpt lat="42.9619860" lon="-8.4523220">
        <ele>254.4</ele>
        <time>2022-04-14T10:23:02Z</time>
      </trkpt>
      <trkpt lat="42.9619480" lon="-8.4523640">
        <ele>254.8</ele>
        <time>2022-04-14T10:23:03Z</time>
      </trkpt>
      <trkpt lat="42.9619090" lon="-8.4524060">
        <ele>255.3</ele>
        <time>2022-04-14T10:23:04Z</time>
      </trkpt>
      <trkpt lat="42.9618700" lon="-8.4524490">
        <ele>255.7</ele>
        <time>2022-04-14T10:23:05Z</time>
      </trkpt>
      <trkpt lat="42.9618310" lon="-8.4524870">
        <ele>256.1</ele>
        <time>2022-04-14T10:23:06Z</time>
      </trkpt>
      <trkpt lat="42.9617930" lon="-8.4525260">
        <ele>256.5</ele>
        <time>2022-04-14T10:23:07Z</time>
      </trkpt>
      <trkpt lat="42.9617560" lon="-8.4525650">
        <ele>256.9</ele>
        <time>2022-04-14T10:23:08Z</time>
      </trkpt>
      <trkpt lat="42.9617180" lon="-8.4526040">
        <ele>257.3</ele>
        <time>2022-04-14T10:23:09Z</time>
      </trkpt>
      <trkpt lat="42.9616800" lon="-8.4526410">
        <ele>257.7</ele>
        <time>2022-04-14T10:23:10Z</time>
      </trkpt>
      <trkpt lat="42.9616420" lon="-8.4526790">
        <ele>258.1</ele>
        <time>2022-04-14T10:23:11Z</time>
      </trkpt>
      <trkpt lat="42.9616040" lon="-8.4527190">
        <ele>258.5</ele>
        <time>2022-04-14T10:23:12Z</time>
      </trkpt>
      <trkpt lat="42.9615660" lon="-8.4527600">
        <ele>259.0</ele>
        <time>2022-04-14T10:23:13Z</time>
      </trkpt>
      <trkpt lat="42.9615280" lon="-8.4527940">
        <ele>259.3</ele>
        <time>2022-04-14T10:23:14Z</time>
      </trkpt>
      <trkpt lat="42.9614900" lon="-8.4528280">
        <ele>259.7</ele>
        <time>2022-04-14T10:23:15Z</time>
      </trkpt>
      <trkpt lat="42.9614720" lon="-8.4528450">
        <ele>259.9</ele>
        <time>2022-04-14T10:23:16Z</time>
      </trkpt>
      <trkpt lat="42.9614540" lon="-8.4528630">
        <ele>260.1</ele>
        <time>2022-04-14T10:23:17Z</time>
      </trkpt>
      <trkpt lat="42.9614360" lon="-8.4528800">
        <ele>260.2</ele>
        <time>2022-04-14T10:23:18Z</time>
      </trkpt>
      <trkpt lat="42.9613450" lon="-8.4529660">
        <ele>260.9</ele>
        <time>2022-04-14T10:23:19Z</time>
      </trkpt>
      <trkpt lat="42.9613070" lon="-8.4530000">
        <ele>261.2</ele>
        <time>2022-04-14T10:23:20Z</time>
      </trkpt>
      <trkpt lat="42.9612690" lon="-8.4530400">
        <ele>261.5</ele>
        <time>2022-04-14T10:23:21Z</time>
      </trkpt>
      <trkpt lat="42.9612310" lon="-8.4530800">
        <ele>261.8</ele>
        <time>2022-04-14T10:23:22Z</time>
      </trkpt>
      <trkpt lat="42.9611960" lon="-8.4531260">
        <ele>262.2</ele>
        <time>2022-04-14T10:23:23Z</time>
      </trkpt>
      <trkpt lat="42.9611600" lon="-8.4531730">
        <ele>262.5</ele>
        <time>2022-04-14T10:23:24Z</time>
      </trkpt>
      <trkpt lat="42.9611420" lon="-8.4531960">
        <ele>262.6</ele>
        <time>2022-04-14T10:23:25Z</time>
      </trkpt>
      <trkpt lat="42.9611230" lon="-8.4532200">
        <ele>262.8</ele>
        <time>2022-04-14T10:23:26Z</time>
      </trkpt>
      <trkpt lat="42.9610650" lon="-8.4532940">
        <ele>263.3</ele>
        <time>2022-04-14T10:23:27Z</time>
      </trkpt>
      <trkpt lat="42.9610440" lon="-8.4533200">
        <ele>263.4</ele>
        <time>2022-04-14T10:23:28Z</time>
      </trkpt>
      <trkpt lat="42.9609820" lon="-8.4533970">
        <ele>263.9</ele>
        <time>2022-04-14T10:23:29Z</time>
      </trkpt>
      <trkpt lat="42.9609610" lon="-8.4534200">
        <ele>264.0</ele>
        <time>2022-04-14T10:23:30Z</time>
      </trkpt>
      <trkpt lat="42.9608820" lon="-8.4535080">
        <ele>264.5</ele>
        <time>2022-04-14T10:23:31Z</time>
      </trkpt>
      <trkpt lat="42.9608430" lon="-8.4535500">
        <ele>264.7</ele>
        <time>2022-04-14T10:23:32Z</time>
      </trkpt>
      <trkpt lat="42.9608060" lon="-8.4535920">
        <ele>264.9</ele>
        <time>2022-04-14T10:23:33Z</time>
      </trkpt>
      <trkpt lat="42.9607680" lon="-8.4536350">
        <ele>265.1</ele>
        <time>2022-04-14T10:23:34Z</time>
      </trkpt>
      <trkpt lat="42.9607480" lon="-8.4536580">
        <ele>265.2</ele>
        <time>2022-04-14T10:23:35Z</time>
      </trkpt>
      <trkpt lat="42.9607280" lon="-8.4536810">
        <ele>265.2</ele>
        <time>2022-04-14T10:23:36Z</time>
      </trkpt>
      <trkpt lat="42.9606480" lon="-8.4537730">
        <ele>265.5</ele>
        <time>2022-04-14T10:23:37Z</time>
      </trkpt>
      <trkpt lat="42.9606080" lon="-8.4538190">
        <ele>265.7</ele>
        <time>2022-04-14T10:23:38Z</time>
      </trkpt>
      <trkpt lat="42.9605860" lon="-8.4538430">
        <ele>265.7</ele>
        <time>2022-04-14T10:23:39Z</time>
      </trkpt>
      <trkpt lat="42.9605650" lon="-8.4538670">
        <ele>265.8</ele>
        <time>2022-04-14T10:23:40Z</time>
      </trkpt>
      <trkpt lat="42.9604760" lon="-8.4539640">
        <ele>266.0</ele>
        <time>2022-04-14T10:23:41Z</time>
      </trkpt>
      <trkpt lat="42.9604300" lon="-8.4540140">
        <ele>266.1</ele>
        <time>2022-04-14T10:23:42Z</time>
      </trkpt>
      <trkpt lat="42.9603380" lon="-8.4541130">
        <ele>266.3</ele>
        <time>2022-04-14T10:23:43Z</time>
      </trkpt>
      <trkpt lat="42.9603380" lon="-8.4541130">
        <ele>266.3</ele>
        <time>2022-04-14T10:23:44Z</time>
      </trkpt>
      <trkpt lat="42.9603140" lon="-8.4541400">
        <ele>266.4</ele>
        <time>2022-04-14T10:23:45Z</time>
      </trkpt>
      <trkpt lat="42.9602900" lon="-8.4541680">
        <ele>266.4</ele>
        <time>2022-04-14T10:23:46Z</time>
      </trkpt>
      <trkpt lat="42.9602180" lon="-8.4542490">
        <ele>266.6</ele>
        <time>2022-04-14T10:23:47Z</time>
      </trkpt>
      <trkpt lat="42.9601940" lon="-8.4542760">
        <ele>266.6</ele>
        <time>2022-04-14T10:23:48Z</time>
      </trkpt>
      <trkpt lat="42.9601200" lon="-8.4543540">
        <ele>266.8</ele>
        <time>2022-04-14T10:23:49Z</time>
      </trkpt>
      <trkpt lat="42.9600950" lon="-8.4543790">
        <ele>266.8</ele>
        <time>2022-04-14T10:23:50Z</time>
      </trkpt>
      <trkpt lat="42.9600200" lon="-8.4544550">
        <ele>266.9</ele>
        <time>2022-04-14T10:23:51Z</time>
      </trkpt>
      <trkpt lat="42.9599950" lon="-8.4544820">
        <ele>267.0</ele>
        <time>2022-04-14T10:23:52Z</time>
      </trkpt>
      <trkpt lat="42.9599200" lon="-8.4545610">
        <ele>267.1</ele>
        <time>2022-04-14T10:23:53Z</time>
      </trkpt>
      <trkpt lat="42.9598960" lon="-8.4545870">
        <ele>267.1</ele>
        <time>2022-04-14T10:23:54Z</time>
      </trkpt>
      <trkpt lat="42.9598230" lon="-8.4546660">
        <ele>267.3</ele>
        <time>2022-04-14T10:23:55Z</time>
      </trkpt>
      <trkpt lat="42.9597980" lon="-8.4546920">
        <ele>267.4</ele>
        <time>2022-04-14T10:23:56Z</time>
      </trkpt>
      <trkpt lat="42.9597280" lon="-8.4547740">
        <ele>267.5</ele>
        <time>2022-04-14T10:23:57Z</time>
      </trkpt>
      <trkpt lat="42.9597050" lon="-8.4548040">
        <ele>267.6</ele>
        <time>2022-04-14T10:23:58Z</time>
      </trkpt>
      <trkpt lat="42.9596320" lon="-8.4548920">
        <ele>267.7</ele>
        <time>2022-04-14T10:23:59Z</time>
      </trkpt>
      <trkpt lat="42.9596050" lon="-8.4549200">
        <ele>267.7</ele>
        <time>2022-04-14T10:24:00Z</time>
      </trkpt>
      <trkpt lat="42.9595270" lon="-8.4550030">
        <ele>267.8</ele>
        <time>2022-04-14T10:24:01Z</time>
      </trkpt>
      <trkpt lat="42.9595020" lon="-8.4550300">
        <ele>267.8</ele>
        <time>2022-04-14T10:24:02Z</time>
      </trkpt>
      <trkpt lat="42.9594290" lon="-8.4551120">
        <ele>267.8</ele>
        <time>2022-04-14T10:24:03Z</time>
      </trkpt>
      <trkpt lat="42.9594030" lon="-8.4551390">
        <ele>267.9</ele>
        <time>2022-04-14T10:24:04Z</time>
      </trkpt>
      <trkpt lat="42.9593280" lon="-8.4552200">
        <ele>267.9</ele>
        <time>2022-04-14T10:24:05Z</time>
      </trkpt>
      <trkpt lat="42.9593030" lon="-8.4552480">
        <ele>267.9</ele>
        <time>2022-04-14T10:24:06Z</time>
      </trkpt>
      <trkpt lat="42.9592270" lon="-8.4553310">
        <ele>267.9</ele>
        <time>2022-04-14T10:24:07Z</time>
      </trkpt>
      <trkpt lat="42.9592010" lon="-8.4553590">
        <ele>267.9</ele>
        <time>2022-04-14T10:24:08Z</time>
      </trkpt>
      <trkpt lat="42.9591230" lon="-8.4554430">
        <ele>267.9</ele>
        <time>2022-04-14T10:24:09Z</time>
      </trkpt>
      <trkpt lat="42.9590960" lon="-8.4554710">
        <ele>267.9</ele>
        <time>2022-04-14T10:24:10Z</time>
      </trkpt>
      <trkpt lat="42.9590170" lon="-8.4555570">
        <ele>267.8</ele>
        <time>2022-04-14T10:24:11Z</time>
      </trkpt>
      <trkpt lat="42.9589890" lon="-8.4555860">
        <ele>267.7</ele>
        <time>2022-04-14T10:24:12Z</time>
      </trkpt>
      <trkpt lat="42.9589060" lon="-8.4556740">
        <ele>267.6</ele>
        <time>2022-04-14T10:24:13Z</time>
      </trkpt>
      <trkpt lat="42.9588770" lon="-8.4557040">
        <ele>267.6</ele>
        <time>2022-04-14T10:24:14Z</time>
      </trkpt>
      <trkpt lat="42.9587890" lon="-8.4557920">
        <ele>267.4</ele>
        <time>2022-04-14T10:24:15Z</time>
      </trkpt>
      <trkpt lat="42.9587580" lon="-8.4558200">
        <ele>267.4</ele>
        <time>2022-04-14T10:24:16Z</time>
      </trkpt>
      <trkpt lat="42.9586670" lon="-8.4559050">
        <ele>267.3</ele>
        <time>2022-04-14T10:24:17Z</time>
      </trkpt>
      <trkpt lat="42.9586360" lon="-8.4559340">
        <ele>267.2</ele>
        <time>2022-04-14T10:24:18Z</time>
      </trkpt>
      <trkpt lat="42.9585110" lon="-8.4560480">
        <ele>267.1</ele>
        <time>2022-04-14T10:24:19Z</time>
      </trkpt>
      <trkpt lat="42.9584470" lon="-8.4561060">
        <ele>267.1</ele>
        <time>2022-04-14T10:24:20Z</time>
      </trkpt>
      <trkpt lat="42.9583200" lon="-8.4562220">
        <ele>267.0</ele>
        <time>2022-04-14T10:24:21Z</time>
      </trkpt>
      <trkpt lat="42.9583200" lon="-8.4562220">
        <ele>267.0</ele>
        <time>2022-04-14T10:24:22Z</time>
      </trkpt>
      <trkpt lat="42.9582870" lon="-8.4562500">
        <ele>267.0</ele>
        <time>2022-04-14T10:24:23Z</time>
      </trkpt>
      <trkpt lat="42.9582540" lon="-8.4562790">
        <ele>267.0</ele>
        <time>2022-04-14T10:24:24Z</time>
      </trkpt>
      <trkpt lat="42.9581200" lon="-8.4563900">
        <ele>267.1</ele>
        <time>2022-04-14T10:24:25Z</time>
      </trkpt>
      <trkpt lat="42.9580500" lon="-8.4564440">
        <ele>267.2</ele>
        <time>2022-04-14T10:24:26Z</time>
      </trkpt>
      <trkpt lat="42.9579120" lon="-8.4565510">
        <ele>267.4</ele>
        <time>2022-04-14T10:24:27Z</time>
      </trkpt>
      <trkpt lat="42.9579120" lon="-8.4565510">
        <ele>267.4</ele>
        <time>2022-04-14T10:24:28Z</time>
      </trkpt>
      <trkpt lat="42.9578790" lon="-8.4565770">
        <ele>267.4</ele>
        <time>2022-04-14T10:24:29Z</time>
      </trkpt>
      <trkpt lat="42.9578450" lon="-8.4566030">
        <ele>267.5</ele>
        <time>2022-04-14T10:24:30Z</time>
      </trkpt>
      <trkpt lat="42.9577480" lon="-8.4566860">
        <ele>267.6</ele>
        <time>2022-04-14T10:24:31Z</time>
      </trkpt>
      <trkpt lat="42.9577170" lon="-8.4567170">
        <ele>267.7</ele>
        <time>2022-04-14T10:24:32Z</time>
      </trkpt>
      <trkpt lat="42.9576250" lon="-8.4568110">
        <ele>267.9</ele>
        <time>2022-04-14T10:24:33Z</time>
      </trkpt>
      <trkpt lat="42.9575930" lon="-8.4568420">
        <ele>268.0</ele>
        <time>2022-04-14T10:24:34Z</time>
      </trkpt>
      <trkpt lat="42.9574980" lon="-8.4569350">
        <ele>268.2</ele>
        <time>2022-04-14T10:24:35Z</time>
      </trkpt>
      <trkpt lat="42.9574650" lon="-8.4569650">
        <ele>268.3</ele>
        <time>2022-04-14T10:24:36Z</time>
      </trkpt>
      <trkpt lat="42.9573680" lon="-8.4570550">
        <ele>268.6</ele>
        <time>2022-04-14T10:24:37Z</time>
      </trkpt>
      <trkpt lat="42.9573350" lon="-8.4570840">
        <ele>268.7</ele>
        <time>2022-04-14T10:24:38Z</time>
      </trkpt>
      <trkpt lat="42.9572410" lon="-8.4571690">
        <ele>269.1</ele>
        <time>2022-04-14T10:24:39Z</time>
      </trkpt>
      <trkpt lat="42.9572100" lon="-8.4571970">
        <ele>269.3</ele>
        <time>2022-04-14T10:24:40Z</time>
      </trkpt>
      <trkpt lat="42.9571210" lon="-8.4572790">
        <ele>269.7</ele>
        <time>2022-04-14T10:24:41Z</time>
      </trkpt>
      <trkpt lat="42.9570920" lon="-8.4573050">
        <ele>269.8</ele>
        <time>2022-04-14T10:24:42Z</time>
      </trkpt>
      <trkpt lat="42.9570050" lon="-8.4573790">
        <ele>270.3</ele>
        <time>2022-04-14T10:24:43Z</time>
      </trkpt>
      <trkpt lat="42.9569760" lon="-8.4574010">
        <ele>270.4</ele>
        <time>2022-04-14T10:24:44Z</time>
      </trkpt>
      <trkpt lat="42.9568900" lon="-8.4574680">
        <ele>270.8</ele>
        <time>2022-04-14T10:24:45Z</time>
      </trkpt>
      <trkpt lat="42.9568610" lon="-8.4574900">
        <ele>270.9</ele>
        <time>2022-04-14T10:24:46Z</time>
      </trkpt>
      <trkpt lat="42.9567760" lon="-8.4575560">
        <ele>271.3</ele>
        <time>2022-04-14T10:24:47Z</time>
      </trkpt>
      <trkpt lat="42.9567490" lon="-8.4575780">
        <ele>271.4</ele>
        <time>2022-04-14T10:24:48Z</time>
      </trkpt>
      <trkpt lat="42.9566670" lon="-8.4576440">
        <ele>271.8</ele>
        <time>2022-04-14T10:24:49Z</time>
      </trkpt>
      <trkpt lat="42.9566410" lon="-8.4576670">
        <ele>271.9</ele>
        <time>2022-04-14T10:24:50Z</time>
      </trkpt>
      <trkpt lat="42.9565600" lon="-8.4577350">
        <ele>272.2</ele>
        <time>2022-04-14T10:24:51Z</time>
      </trkpt>
      <trkpt lat="42.9565330" lon="-8.4577590">
        <ele>272.3</ele>
        <time>2022-04-14T10:24:52Z</time>
      </trkpt>
      <trkpt lat="42.9564500" lon="-8.4578290">
        <ele>272.6</ele>
        <time>2022-04-14T10:24:53Z</time>
      </trkpt>
      <trkpt lat="42.9564210" lon="-8.4578510">
        <ele>272.8</ele>
        <time>2022-04-14T10:24:54Z</time>
      </trkpt>
      <trkpt lat="42.9563370" lon="-8.4579180">
        <ele>273.1</ele>
        <time>2022-04-14T10:24:55Z</time>
      </trkpt>
      <trkpt lat="42.9563090" lon="-8.4579400">
        <ele>273.2</ele>
        <time>2022-04-14T10:24:56Z</time>
      </trkpt>
      <trkpt lat="42.9561970" lon="-8.4580300">
        <ele>273.5</ele>
        <time>2022-04-14T10:24:57Z</time>
      </trkpt>
      <trkpt lat="42.9561410" lon="-8.4580760">
        <ele>273.7</ele>
        <time>2022-04-14T10:24:58Z</time>
      </trkpt>
      <trkpt lat="42.9560290" lon="-8.4581690">
        <ele>274.0</ele>
        <time>2022-04-14T10:24:59Z</time>
      </trkpt>
      <trkpt lat="42.9560290" lon="-8.4581690">
        <ele>274.0</ele>
        <time>2022-04-14T10:25:00Z</time>
      </trkpt>
      <trkpt lat="42.9559980" lon="-8.4581950">
        <ele>274.0</ele>
        <time>2022-04-14T10:25:01Z</time>
      </trkpt>
      <trkpt lat="42.9559680" lon="-8.4582200">
        <ele>274.1</ele>
        <time>2022-04-14T10:25:02Z</time>
      </trkpt>
      <trkpt lat="42.9558770" lon="-8.4582960">
        <ele>274.3</ele>
        <time>2022-04-14T10:25:03Z</time>
      </trkpt>
      <trkpt lat="42.9558470" lon="-8.4583220">
        <ele>274.3</ele>
        <time>2022-04-14T10:25:04Z</time>
      </trkpt>
      <trkpt lat="42.9557560" lon="-8.4583960">
        <ele>274.5</ele>
        <time>2022-04-14T10:25:05Z</time>
      </trkpt>
      <trkpt lat="42.9557250" lon="-8.4584210">
        <ele>274.5</ele>
        <time>2022-04-14T10:25:06Z</time>
      </trkpt>
      <trkpt lat="42.9556330" lon="-8.4584940">
        <ele>274.7</ele>
        <time>2022-04-14T10:25:07Z</time>
      </trkpt>
      <trkpt lat="42.9556030" lon="-8.4585190">
        <ele>274.7</ele>
        <time>2022-04-14T10:25:08Z</time>
      </trkpt>
      <trkpt lat="42.9555110" lon="-8.4585940">
        <ele>274.9</ele>
        <time>2022-04-14T10:25:09Z</time>
      </trkpt>
      <trkpt lat="42.9554800" lon="-8.4586180">
        <ele>275.0</ele>
        <time>2022-04-14T10:25:10Z</time>
      </trkpt>
      <trkpt lat="42.9553880" lon="-8.4586920">
        <ele>275.1</ele>
        <time>2022-04-14T10:25:11Z</time>
      </trkpt>
      <trkpt lat="42.9553580" lon="-8.4587160">
        <ele>275.2</ele>
        <time>2022-04-14T10:25:12Z</time>
      </trkpt>
      <trkpt lat="42.9552670" lon="-8.4587890">
        <ele>275.4</ele>
        <time>2022-04-14T10:25:13Z</time>
      </trkpt>
      <trkpt lat="42.9552370" lon="-8.4588130">
        <ele>275.4</ele>
        <time>2022-04-14T10:25:14Z</time>
      </trkpt>
      <trkpt lat="42.9551450" lon="-8.4588860">
        <ele>275.6</ele>
        <time>2022-04-14T10:25:15Z</time>
      </trkpt>
      <trkpt lat="42.9551140" lon="-8.4589100">
        <ele>275.6</ele>
        <time>2022-04-14T10:25:16Z</time>
      </trkpt>
      <trkpt lat="42.9550220" lon="-8.4589830">
        <ele>275.8</ele>
        <time>2022-04-14T10:25:17Z</time>
      </trkpt>
      <trkpt lat="42.9549920" lon="-8.4590070">
        <ele>275.9</ele>
        <time>2022-04-14T10:25:18Z</time>
      </trkpt>
      <trkpt lat="42.9549010" lon="-8.4590770">
        <ele>276.0</ele>
        <time>2022-04-14T10:25:19Z</time>
      </trkpt>
      <trkpt lat="42.9548700" lon="-8.4591000">
        <ele>276.1</ele>
        <time>2022-04-14T10:25:20Z</time>
      </trkpt>
      <trkpt lat="42.9547770" lon="-8.4591690">
        <ele>276.2</ele>
        <time>2022-04-14T10:25:21Z</time>
      </trkpt>
      <trkpt lat="42.9547450" lon="-8.4591920">
        <ele>276.3</ele>
        <time>2022-04-14T10:25:22Z</time>
      </trkpt>
      <trkpt lat="42.9546500" lon="-8.4592640">
        <ele>276.4</ele>
        <time>2022-04-14T10:25:23Z</time>
      </trkpt>
      <trkpt lat="42.9546180" lon="-8.4592880">
        <ele>276.5</ele>
        <time>2022-04-14T10:25:24Z</time>
      </trkpt>
      <trkpt lat="42.9545240" lon="-8.4593580">
        <ele>276.6</ele>
        <time>2022-04-14T10:25:25Z</time>
      </trkpt>
      <trkpt lat="42.9544950" lon="-8.4593820">
        <ele>276.7</ele>
        <time>2022-04-14T10:25:26Z</time>
      </trkpt>
      <trkpt lat="42.9544050" lon="-8.4594540">
        <ele>276.8</ele>
        <time>2022-04-14T10:25:27Z</time>
      </trkpt>
      <trkpt lat="42.9543740" lon="-8.4594790">
        <ele>276.8</ele>
        <time>2022-04-14T10:25:28Z</time>
      </trkpt>
      <trkpt lat="42.9542810" lon="-8.4595560">
        <ele>277.0</ele>
        <time>2022-04-14T10:25:29Z</time>
      </trkpt>
      <trkpt lat="42.9542510" lon="-8.4595800">
        <ele>277.0</ele>
        <time>2022-04-14T10:25:30Z</time>
      </trkpt>
      <trkpt lat="42.9541600" lon="-8.4596540">
        <ele>277.2</ele>
        <time>2022-04-14T10:25:31Z</time>
      </trkpt>
      <trkpt lat="42.9541310" lon="-8.4596780">
        <ele>277.2</ele>
        <time>2022-04-14T10:25:32Z</time>
      </trkpt>
      <trkpt lat="42.9540430" lon="-8.4597490">
        <ele>277.4</ele>
        <time>2022-04-14T10:25:33Z</time>
      </trkpt>
      <trkpt lat="42.9540140" lon="-8.4597720">
        <ele>277.4</ele>
        <time>2022-04-14T10:25:34Z</time>
      </trkpt>
      <trkpt lat="42.9538960" lon="-8.4598620">
        <ele>277.6</ele>
        <time>2022-04-14T10:25:35Z</time>
      </trkpt>
      <trkpt lat="42.9538370" lon="-8.4599080">
        <ele>277.7</ele>
        <time>2022-04-14T10:25:36Z</time>
      </trkpt>
      <trkpt lat="42.9537190" lon="-8.4599990">
        <ele>277.9</ele>
        <time>2022-04-14T10:25:37Z</time>
      </trkpt>
      <trkpt lat="42.9537190" lon="-8.4599990">
        <ele>277.9</ele>
        <time>2022-04-14T10:25:38Z</time>
      </trkpt>
      <trkpt lat="42.9536890" lon="-8.4600220">
        <ele>277.9</ele>
        <time>2022-04-14T10:25:39Z</time>
      </trkpt>
      <trkpt lat="42.9536600" lon="-8.4600450">
        <ele>278.0</ele>
        <time>2022-04-14T10:25:40Z</time>
      </trkpt>
      <trkpt lat="42.9535720" lon="-8.4601140">
        <ele>278.1</ele>
        <time>2022-04-14T10:25:41Z</time>
      </trkpt>
      <trkpt lat="42.9535420" lon="-8.4601370">
        <ele>278.2</ele>
        <time>2022-04-14T10:25:42Z</time>
      </trkpt>
      <trkpt lat="42.9534530" lon="-8.4602060">
        <ele>278.3</ele>
        <time>2022-04-14T10:25:43Z</time>
      </trkpt>
      <trkpt lat="42.9534240" lon="-8.4602290">
        <ele>278.4</ele>
        <time>2022-04-14T10:25:44Z</time>
      </trkpt>
      <trkpt lat="42.9533370" lon="-8.4602980">
        <ele>278.5</ele>
        <time>2022-04-14T10:25:45Z</time>
      </trkpt>
      <trkpt lat="42.9533070" lon="-8.4603200">
        <ele>278.6</ele>
        <time>2022-04-14T10:25:46Z</time>
      </trkpt>
      <trkpt lat="42.9532180" lon="-8.4603880">
        <ele>278.7</ele>
        <time>2022-04-14T10:25:47Z</time>
      </trkpt>
      <trkpt lat="42.9531890" lon="-8.4604120">
        <ele>278.7</ele>
        <time>2022-04-14T10:25:48Z</time>
      </trkpt>
      <trkpt lat="42.9531010" lon="-8.4604810">
        <ele>278.9</ele>
        <time>2022-04-14T10:25:49Z</time>
      </trkpt>
      <trkpt lat="42.9530720" lon="-8.4605040">
        <ele>278.9</ele>
        <time>2022-04-14T10:25:50Z</time>
      </trkpt>
      <trkpt lat="42.9529840" lon="-8.4605720">
        <ele>279.0</ele>
        <time>2022-04-14T10:25:51Z</time>
      </trkpt>
      <trkpt lat="42.9529550" lon="-8.4605940">
        <ele>279.1</ele>
        <time>2022-04-14T10:25:52Z</time>
      </trkpt>
      <trkpt lat="42.9528680" lon="-8.4606620">
        <ele>279.2</ele>
        <time>2022-04-14T10:25:53Z</time>
      </trkpt>
      <trkpt lat="42.9528380" lon="-8.4606840">
        <ele>279.3</ele>
        <time>2022-04-14T10:25:54Z</time>
      </trkpt>
      <trkpt lat="42.9527480" lon="-8.4607490">
        <ele>279.4</ele>
        <time>2022-04-14T10:25:55Z</time>
      </trkpt>
      <trkpt lat="42.9527190" lon="-8.4607700">
        <ele>279.4</ele>
        <time>2022-04-14T10:25:56Z</time>
      </trkpt>
      <trkpt lat="42.9526300" lon="-8.4608330">
        <ele>279.6</ele>
        <time>2022-04-14T10:25:57Z</time>
      </trkpt>
      <trkpt lat="42.9526000" lon="-8.4608560">
        <ele>279.7</ele>
        <time>2022-04-14T10:25:58Z</time>
      </trkpt>
      <trkpt lat="42.9525110" lon="-8.4609240">
        <ele>279.8</ele>
        <time>2022-04-14T10:25:59Z</time>
      </trkpt>
      <trkpt lat="42.9524820" lon="-8.4609470">
        <ele>279.9</ele>
        <time>2022-04-14T10:26:00Z</time>
      </trkpt>
      <trkpt lat="42.9523960" lon="-8.4610160">
        <ele>280.1</ele>
        <time>2022-04-14T10:26:01Z</time>
      </trkpt>
      <trkpt lat="42.9523670" lon="-8.4610380">
        <ele>280.1</ele>
        <time>2022-04-14T10:26:02Z</time>
      </trkpt>
      <trkpt lat="42.9522810" lon="-8.4611060">
        <ele>280.3</ele>
        <time>2022-04-14T10:26:03Z</time>
      </trkpt>
      <trkpt lat="42.9522520" lon="-8.4611290">
        <ele>280.4</ele>
        <time>2022-04-14T10:26:04Z</time>
      </trkpt>
      <trkpt lat="42.9521680" lon="-8.4611980">
        <ele>280.6</ele>
        <time>2022-04-14T10:26:05Z</time>
      </trkpt>
      <trkpt lat="42.9521400" lon="-8.4612200">
        <ele>280.7</ele>
        <time>2022-04-14T10:26:06Z</time>
      </trkpt>
      <trkpt lat="42.9520570" lon="-8.4612870">
        <ele>280.9</ele>
        <time>2022-04-14T10:26:07Z</time>
      </trkpt>
      <trkpt lat="42.9520290" lon="-8.4613100">
        <ele>280.9</ele>
        <time>2022-04-14T10:26:08Z</time>
      </trkpt>
      <trkpt lat="42.9519440" lon="-8.4613780">
        <ele>281.0</ele>
        <time>2022-04-14T10:26:09Z</time>
      </trkpt>
      <trkpt lat="42.9519160" lon="-8.4614000">
        <ele>281.1</ele>
        <time>2022-04-14T10:26:10Z</time>
      </trkpt>
      <trkpt lat="42.9518310" lon="-8.4614670">
        <ele>281.3</ele>
        <time>2022-04-14T10:26:11Z</time>
      </trkpt>
      <trkpt lat="42.9518030" lon="-8.4614890">
        <ele>281.3</ele>
        <time>2022-04-14T10:26:12Z</time>
      </trkpt>
      <trkpt lat="42.9516910" lon="-8.4615770">
        <ele>281.6</ele>
        <time>2022-04-14T10:26:13Z</time>
      </trkpt>
      <trkpt lat="42.9516360" lon="-8.4616190">
        <ele>281.8</ele>
        <time>2022-04-14T10:26:14Z</time>
      </trkpt>
      <trkpt lat="42.9515240" lon="-8.4617040">
        <ele>282.1</ele>
        <time>2022-04-14T10:26:15Z</time>
      </trkpt>
      <trkpt lat="42.9515240" lon="-8.4617040">
        <ele>282.1</ele>
        <time>2022-04-14T10:26:16Z</time>
      </trkpt>
      <trkpt lat="42.9514980" lon="-8.4617260">
        <ele>282.2</ele>
        <time>2022-04-14T10:26:17Z</time>
      </trkpt>
      <trkpt lat="42.9514720" lon="-8.4617470">
        <ele>282.3</ele>
        <time>2022-04-14T10:26:18Z</time>
      </trkpt>
      <trkpt lat="42.9513920" lon="-8.4618100">
        <ele>282.6</ele>
        <time>2022-04-14T10:26:19Z</time>
      </trkpt>
      <trkpt lat="42.9513640" lon="-8.4618300">
        <ele>282.7</ele>
        <time>2022-04-14T10:26:20Z</time>
      </trkpt>
      <trkpt lat="42.9512810" lon="-8.4618910">
        <ele>283.0</ele>
        <time>2022-04-14T10:26:21Z</time>
      </trkpt>
      <trkpt lat="42.9512530" lon="-8.4619120">
        <ele>283.0</ele>
        <time>2022-04-14T10:26:22Z</time>
      </trkpt>
      <trkpt lat="42.9511710" lon="-8.4619730">
        <ele>283.4</ele>
        <time>2022-04-14T10:26:23Z</time>
      </trkpt>
      <trkpt lat="42.9511450" lon="-8.4619930">
        <ele>283.5</ele>
        <time>2022-04-14T10:26:24Z</time>
      </trkpt>
      <trkpt lat="42.9510670" lon="-8.4620520">
        <ele>283.8</ele>
        <time>2022-04-14T10:26:25Z</time>
      </trkpt>
      <trkpt lat="42.9510410" lon="-8.4620710">
        <ele>284.0</ele>
        <time>2022-04-14T10:26:26Z</time>
      </trkpt>
      <trkpt lat="42.9509650" lon="-8.4621280">
        <ele>284.4</ele>
        <time>2022-04-14T10:26:27Z</time>
      </trkpt>
      <trkpt lat="42.9509400" lon="-8.4621470">
        <ele>284.5</ele>
        <time>2022-04-14T10:26:28Z</time>
      </trkpt>
      <trkpt lat="42.9508640" lon="-8.4622030">
        <ele>284.9</ele>
        <time>2022-04-14T10:26:29Z</time>
      </trkpt>
      <trkpt lat="42.9508370" lon="-8.4622200">
        <ele>285.0</ele>
        <time>2022-04-14T10:26:30Z</time>
      </trkpt>
      <trkpt lat="42.9507550" lon="-8.4622750">
        <ele>285.4</ele>
        <time>2022-04-14T10:26:31Z</time>
      </trkpt>
      <trkpt lat="42.9507270" lon="-8.4622950">
        <ele>285.6</ele>
        <time>2022-04-14T10:26:32Z</time>
      </trkpt>
      <trkpt lat="42.9506440" lon="-8.4623540">
        <ele>286.0</ele>
        <time>2022-04-14T10:26:33Z</time>
      </trkpt>
      <trkpt lat="42.9506170" lon="-8.4623730">
        <ele>286.2</ele>
        <time>2022-04-14T10:26:34Z</time>
      </trkpt>
      <trkpt lat="42.9505390" lon="-8.4624300">
        <ele>286.6</ele>
        <time>2022-04-14T10:26:35Z</time>
      </trkpt>
      <trkpt lat="42.9505130" lon="-8.4624480">
        <ele>286.7</ele>
        <time>2022-04-14T10:26:36Z</time>
      </trkpt>
      <trkpt lat="42.9504350" lon="-8.4625020">
        <ele>287.2</ele>
        <time>2022-04-14T10:26:37Z</time>
      </trkpt>
      <trkpt lat="42.9504080" lon="-8.4625190">
        <ele>287.3</ele>
        <time>2022-04-14T10:26:38Z</time>
      </trkpt>
      <trkpt lat="42.9503270" lon="-8.4625720">
        <ele>287.7</ele>
        <time>2022-04-14T10:26:39Z</time>
      </trkpt>
      <trkpt lat="42.9503020" lon="-8.4625910">
        <ele>287.9</ele>
        <time>2022-04-14T10:26:40Z</time>
      </trkpt>
      <trkpt lat="42.9502240" lon="-8.4626460">
        <ele>288.3</ele>
        <time>2022-04-14T10:26:41Z</time>
      </trkpt>
      <trkpt lat="42.9501980" lon="-8.4626620">
        <ele>288.4</ele>
        <time>2022-04-14T10:26:42Z</time>
      </trkpt>
      <trkpt lat="42.9501200" lon="-8.4627130">
        <ele>288.9</ele>
        <time>2022-04-14T10:26:43Z</time>
      </trkpt>
      <trkpt lat="42.9500940" lon="-8.4627320">
        <ele>289.0</ele>
        <time>2022-04-14T10:26:44Z</time>
      </trkpt>
      <trkpt lat="42.9500150" lon="-8.4627900">
        <ele>289.5</ele>
        <time>2022-04-14T10:26:45Z</time>
      </trkpt>
      <trkpt lat="42.9499870" lon="-8.4628100">
        <ele>289.6</ele>
        <time>2022-04-14T10:26:46Z</time>
      </trkpt>
      <trkpt lat="42.9499080" lon="-8.4628680">
        <ele>290.1</ele>
        <time>2022-04-14T10:26:47Z</time>
      </trkpt>
      <trkpt lat="42.9498840" lon="-8.4628850">
        <ele>290.2</ele>
        <time>2022-04-14T10:26:48Z</time>
      </trkpt>
      <trkpt lat="42.9498120" lon="-8.4629370">
        <ele>290.6</ele>
        <time>2022-04-14T10:26:49Z</time>
      </trkpt>
      <trkpt lat="42.9497890" lon="-8.4629530">
        <ele>290.7</ele>
        <time>2022-04-14T10:26:50Z</time>
      </trkpt>
      <trkpt lat="42.9496920" lon="-8.4630240">
        <ele>291.3</ele>
        <time>2022-04-14T10:26:51Z</time>
      </trkpt>
      <trkpt lat="42.9496430" lon="-8.4630620">
        <ele>291.6</ele>
        <time>2022-04-14T10:26:52Z</time>
      </trkpt>
      <trkpt lat="42.9495450" lon="-8.4631370">
        <ele>292.2</ele>
        <time>2022-04-14T10:26:53Z</time>
      </trkpt>
      <trkpt lat="42.9495450" lon="-8.4631370">
        <ele>292.2</ele>
        <time>2022-04-14T10:26:54Z</time>
      </trkpt>
      <trkpt lat="42.9495220" lon="-8.4631550">
        <ele>292.3</ele>
        <time>2022-04-14T10:26:55Z</time>
      </trkpt>
      <trkpt lat="42.9494990" lon="-8.4631720">
        <ele>292.4</ele>
        <time>2022-04-14T10:26:56Z</time>
      </trkpt>
      <trkpt lat="42.9494100" lon="-8.4632510">
        <ele>293.0</ele>
        <time>2022-04-14T10:26:57Z</time>
      </trkpt>
      <trkpt lat="42.9493670" lon="-8.4632940">
        <ele>293.2</ele>
        <time>2022-04-14T10:26:58Z</time>
      </trkpt>
      <trkpt lat="42.9493440" lon="-8.4633100">
        <ele>293.4</ele>
        <time>2022-04-14T10:26:59Z</time>
      </trkpt>
      <trkpt lat="42.9493210" lon="-8.4633260">
        <ele>293.5</ele>
        <time>2022-04-14T10:27:00Z</time>
      </trkpt>
      <trkpt lat="42.9492980" lon="-8.4633420">
        <ele>293.6</ele>
        <time>2022-04-14T10:27:01Z</time>
      </trkpt>
      <trkpt lat="42.9492060" lon="-8.4634130">
        <ele>294.2</ele>
        <time>2022-04-14T10:27:02Z</time>
      </trkpt>
      <trkpt lat="42.9491820" lon="-8.4634360">
        <ele>294.3</ele>
        <time>2022-04-14T10:27:03Z</time>
      </trkpt>
      <trkpt lat="42.9491110" lon="-8.4635020">
        <ele>294.7</ele>
        <time>2022-04-14T10:27:04Z</time>
      </trkpt>
      <trkpt lat="42.9490880" lon="-8.4635220">
        <ele>294.8</ele>
        <time>2022-04-14T10:27:05Z</time>
      </trkpt>
      <trkpt lat="42.9490170" lon="-8.4635880">
        <ele>295.2</ele>
        <time>2022-04-14T10:27:06Z</time>
      </trkpt>
      <trkpt lat="42.9489920" lon="-8.4636120">
        <ele>295.3</ele>
        <time>2022-04-14T10:27:07Z</time>
      </trkpt>
      <trkpt lat="42.9489200" lon="-8.4636780">
        <ele>295.7</ele>
        <time>2022-04-14T10:27:08Z</time>
      </trkpt>
      <trkpt lat="42.9488980" lon="-8.4636960">
        <ele>295.8</ele>
        <time>2022-04-14T10:27:09Z</time>
      </trkpt>
      <trkpt lat="42.9488060" lon="-8.4637700">
        <ele>296.2</ele>
        <time>2022-04-14T10:27:10Z</time>
      </trkpt>
      <trkpt lat="42.9487580" lon="-8.4638080">
        <ele>296.5</ele>
        <time>2022-04-14T10:27:11Z</time>
      </trkpt>
      <trkpt lat="42.9486620" lon="-8.4638840">
        <ele>296.9</ele>
        <time>2022-04-14T10:27:12Z</time>
      </trkpt>
      <trkpt lat="42.9486620" lon="-8.4638840">
        <ele>296.9</ele>
        <time>2022-04-14T10:27:13Z</time>
      </trkpt>
      <trkpt lat="42.9486350" lon="-8.4639020">
        <ele>297.0</ele>
        <time>2022-04-14T10:27:14Z</time>
      </trkpt>
      <trkpt lat="42.9486090" lon="-8.4639190">
        <ele>297.1</ele>
        <time>2022-04-14T10:27:15Z</time>
      </trkpt>
      <trkpt lat="42.9485310" lon="-8.4639710">
        <ele>297.3</ele>
        <time>2022-04-14T10:27:16Z</time>
      </trkpt>
      <trkpt lat="42.9485060" lon="-8.4639880">
        <ele>297.4</ele>
        <time>2022-04-14T10:27:17Z</time>
      </trkpt>
      <trkpt lat="42.9484320" lon="-8.4640400">
        <ele>297.5</ele>
        <time>2022-04-14T10:27:18Z</time>
      </trkpt>
      <trkpt lat="42.9484080" lon="-8.4640590">
        <ele>297.6</ele>
        <time>2022-04-14T10:27:19Z</time>
      </trkpt>
      <trkpt lat="42.9483350" lon="-8.4641140">
        <ele>297.9</ele>
        <time>2022-04-14T10:27:20Z</time>
      </trkpt>
      <trkpt lat="42.9483100" lon="-8.4641320">
        <ele>298.0</ele>
        <time>2022-04-14T10:27:21Z</time>
      </trkpt>
      <trkpt lat="42.9482370" lon="-8.4641890">
        <ele>298.4</ele>
        <time>2022-04-14T10:27:22Z</time>
      </trkpt>
      <trkpt lat="42.9482140" lon="-8.4642110">
        <ele>298.5</ele>
        <time>2022-04-14T10:27:23Z</time>
      </trkpt>
      <trkpt lat="42.9481440" lon="-8.4642700">
        <ele>298.9</ele>
        <time>2022-04-14T10:27:24Z</time>
      </trkpt>
      <trkpt lat="42.9481190" lon="-8.4642860">
        <ele>299.1</ele>
        <time>2022-04-14T10:27:25Z</time>
      </trkpt>
      <trkpt lat="42.9480410" lon="-8.4643380">
        <ele>299.5</ele>
        <time>2022-04-14T10:27:26Z</time>
      </trkpt>
      <trkpt lat="42.9480140" lon="-8.4643580">
        <ele>299.7</ele>
        <time>2022-04-14T10:27:27Z</time>
      </trkpt>
      <trkpt lat="42.9479350" lon="-8.4644180">
        <ele>300.1</ele>
        <time>2022-04-14T10:27:28Z</time>
      </trkpt>
      <trkpt lat="42.9479110" lon="-8.4644380">
        <ele>300.3</ele>
        <time>2022-04-14T10:27:29Z</time>
      </trkpt>
      <trkpt lat="42.9478380" lon="-8.4644960">
        <ele>300.7</ele>
        <time>2022-04-14T10:27:30Z</time>
      </trkpt>
      <trkpt lat="42.9478140" lon="-8.4645140">
        <ele>300.8</ele>
        <time>2022-04-14T10:27:31Z</time>
      </trkpt>
      <trkpt lat="42.9477430" lon="-8.4645710">
        <ele>301.2</ele>
        <time>2022-04-14T10:27:32Z</time>
      </trkpt>
      <trkpt lat="42.9477200" lon="-8.4645900">
        <ele>301.4</ele>
        <time>2022-04-14T10:27:33Z</time>
      </trkpt>
      <trkpt lat="42.9476520" lon="-8.4646450">
        <ele>301.7</ele>
        <time>2022-04-14T10:27:34Z</time>
      </trkpt>
      <trkpt lat="42.9476290" lon="-8.4646620">
        <ele>301.8</ele>
        <time>2022-04-14T10:27:35Z</time>
      </trkpt>
      <trkpt lat="42.9475380" lon="-8.4647280">
        <ele>301.9</ele>
        <time>2022-04-14T10:27:36Z</time>
      </trkpt>
      <trkpt lat="42.9474920" lon="-8.4647600">
        <ele>302.1</ele>
        <time>2022-04-14T10:27:37Z</time>
      </trkpt>
      <trkpt lat="42.9474470" lon="-8.4647920">
        <ele>302.3</ele>
        <time>2022-04-14T10:27:38Z</time>
      </trkpt>
      <trkpt lat="42.9474030" lon="-8.4648230">
        <ele>302.5</ele>
        <time>2022-04-14T10:27:39Z</time>
      </trkpt>
      <trkpt lat="42.9473810" lon="-8.4648400">
        <ele>302.6</ele>
        <time>2022-04-14T10:27:40Z</time>
      </trkpt>
      <trkpt lat="42.9473590" lon="-8.4648560">
        <ele>302.7</ele>
        <time>2022-04-14T10:27:41Z</time>
      </trkpt>
      <trkpt lat="42.9472740" lon="-8.4649260">
        <ele>303.1</ele>
        <time>2022-04-14T10:27:42Z</time>
      </trkpt>
      <trkpt lat="42.9472330" lon="-8.4649630">
        <ele>303.3</ele>
        <time>2022-04-14T10:27:43Z</time>
      </trkpt>
      <trkpt lat="42.9471890" lon="-8.4649980">
        <ele>303.5</ele>
        <time>2022-04-14T10:27:44Z</time>
      </trkpt>
      <trkpt lat="42.9471450" lon="-8.4650330">
        <ele>303.7</ele>
        <time>2022-04-14T10:27:45Z</time>
      </trkpt>
      <trkpt lat="42.9471030" lon="-8.4650680">
        <ele>303.9</ele>
        <time>2022-04-14T10:27:46Z</time>
      </trkpt>
      <trkpt lat="42.9470610" lon="-8.4651040">
        <ele>304.1</ele>
        <time>2022-04-14T10:27:47Z</time>
      </trkpt>
      <trkpt lat="42.9470200" lon="-8.4651390">
        <ele>304.3</ele>
        <time>2022-04-14T10:27:48Z</time>
      </trkpt>
      <trkpt lat="42.9469790" lon="-8.4651740">
        <ele>304.5</ele>
        <time>2022-04-14T10:27:49Z</time>
      </trkpt>
      <trkpt lat="42.9468920" lon="-8.4652430">
        <ele>305.0</ele>
        <time>2022-04-14T10:27:50Z</time>
      </trkpt>
      <trkpt lat="42.9468920" lon="-8.4652430">
        <ele>305.0</ele>
        <time>2022-04-14T10:27:51Z</time>
      </trkpt>
      <trkpt lat="42.9468490" lon="-8.4652810">
        <ele>305.2</ele>
        <time>2022-04-14T10:27:52Z</time>
      </trkpt>
      <trkpt lat="42.9468070" lon="-8.4653200">
        <ele>305.4</ele>
        <time>2022-04-14T10:27:53Z</time>
      </trkpt>
      <trkpt lat="42.9467850" lon="-8.4653380">
        <ele>305.6</ele>
        <time>2022-04-14T10:27:54Z</time>
      </trkpt>
      <trkpt lat="42.9467630" lon="-8.4653570">
        <ele>305.7</ele>
        <time>2022-04-14T10:27:55Z</time>
      </trkpt>
      <trkpt lat="42.9466760" lon="-8.4654300">
        <ele>306.1</ele>
        <time>2022-04-14T10:27:56Z</time>
      </trkpt>
      <trkpt lat="42.9466320" lon="-8.4654650">
        <ele>306.4</ele>
        <time>2022-04-14T10:27:57Z</time>
      </trkpt>
      <trkpt lat="42.9465880" lon="-8.4655010">
        <ele>306.6</ele>
        <time>2022-04-14T10:27:58Z</time>
      </trkpt>
      <trkpt lat="42.9465450" lon="-8.4655360">
        <ele>306.8</ele>
        <time>2022-04-14T10:27:59Z</time>
      </trkpt>
      <trkpt lat="42.9465040" lon="-8.4655700">
        <ele>307.0</ele>
        <time>2022-04-14T10:28:00Z</time>
      </trkpt>
      <trkpt lat="42.9464640" lon="-8.4656040">
        <ele>307.2</ele>
        <time>2022-04-14T10:28:01Z</time>
      </trkpt>
      <trkpt lat="42.9464240" lon="-8.4656400">
        <ele>307.5</ele>
        <time>2022-04-14T10:28:02Z</time>
      </trkpt>
      <trkpt lat="42.9463840" lon="-8.4656760">
        <ele>307.7</ele>
        <time>2022-04-14T10:28:03Z</time>
      </trkpt>
      <trkpt lat="42.9463620" lon="-8.4656930">
        <ele>307.8</ele>
        <time>2022-04-14T10:28:04Z</time>
      </trkpt>
      <trkpt lat="42.9463400" lon="-8.4657100">
        <ele>307.9</ele>
        <time>2022-04-14T10:28:05Z</time>
      </trkpt>
      <trkpt lat="42.9462730" lon="-8.4657630">
        <ele>308.3</ele>
        <time>2022-04-14T10:28:06Z</time>
      </trkpt>
      <trkpt lat="42.9462500" lon="-8.4657820">
        <ele>308.4</ele>
        <time>2022-04-14T10:28:07Z</time>
      </trkpt>
      <trkpt lat="42.9461620" lon="-8.4658500">
        <ele>308.8</ele>
        <time>2022-04-14T10:28:08Z</time>
      </trkpt>
      <trkpt lat="42.9461190" lon="-8.4658810">
        <ele>308.9</ele>
        <time>2022-04-14T10:28:09Z</time>
      </trkpt>
      <trkpt lat="42.9460950" lon="-8.4658960">
        <ele>309.0</ele>
        <time>2022-04-14T10:28:10Z</time>
      </trkpt>
      <trkpt lat="42.9460710" lon="-8.4659110">
        <ele>309.1</ele>
        <time>2022-04-14T10:28:11Z</time>
      </trkpt>
      <trkpt lat="42.9459790" lon="-8.4659730">
        <ele>309.4</ele>
        <time>2022-04-14T10:28:12Z</time>
      </trkpt>
      <trkpt lat="42.9459340" lon="-8.4660040">
        <ele>309.6</ele>
        <time>2022-04-14T10:28:13Z</time>
      </trkpt>
      <trkpt lat="42.9459120" lon="-8.4660230">
        <ele>309.7</ele>
        <time>2022-04-14T10:28:14Z</time>
      </trkpt>
      <trkpt lat="42.9458900" lon="-8.4660410">
        <ele>309.7</ele>
        <time>2022-04-14T10:28:15Z</time>
      </trkpt>
      <trkpt lat="42.9458240" lon="-8.4660980">
        <ele>309.9</ele>
        <time>2022-04-14T10:28:16Z</time>
      </trkpt>
      <trkpt lat="42.9458010" lon="-8.4661180">
        <ele>310.0</ele>
        <time>2022-04-14T10:28:17Z</time>
      </trkpt>
      <trkpt lat="42.9457110" lon="-8.4661860">
        <ele>310.3</ele>
        <time>2022-04-14T10:28:18Z</time>
      </trkpt>
      <trkpt lat="42.9456650" lon="-8.4662150">
        <ele>310.4</ele>
        <time>2022-04-14T10:28:19Z</time>
      </trkpt>
      <trkpt lat="42.9456170" lon="-8.4662410">
        <ele>310.6</ele>
        <time>2022-04-14T10:28:20Z</time>
      </trkpt>
      <trkpt lat="42.9455680" lon="-8.4662670">
        <ele>310.7</ele>
        <time>2022-04-14T10:28:21Z</time>
      </trkpt>
      <trkpt lat="42.9455450" lon="-8.4662820">
        <ele>310.7</ele>
        <time>2022-04-14T10:28:22Z</time>
      </trkpt>
      <trkpt lat="42.9455220" lon="-8.4662980">
        <ele>310.8</ele>
        <time>2022-04-14T10:28:23Z</time>
      </trkpt>
      <trkpt lat="42.9454510" lon="-8.4663450">
        <ele>310.9</ele>
        <time>2022-04-14T10:28:24Z</time>
      </trkpt>
      <trkpt lat="42.9454270" lon="-8.4663610">
        <ele>310.9</ele>
        <time>2022-04-14T10:28:25Z</time>
      </trkpt>
      <trkpt lat="42.9453210" lon="-8.4664300">
        <ele>310.9</ele>
        <time>2022-04-14T10:28:26Z</time>
      </trkpt>
      <trkpt lat="42.9452640" lon="-8.4664650">
        <ele>310.9</ele>
        <time>2022-04-14T10:28:27Z</time>
      </trkpt>
      <trkpt lat="42.9451500" lon="-8.4665370">
        <ele>310.7</ele>
        <time>2022-04-14T10:28:28Z</time>
      </trkpt>
      <trkpt lat="42.9451500" lon="-8.4665370">
        <ele>310.7</ele>
        <time>2022-04-14T10:28:29Z</time>
      </trkpt>
      <trkpt lat="42.9451170" lon="-8.4665580">
        <ele>310.6</ele>
        <time>2022-04-14T10:28:30Z</time>
      </trkpt>
      <trkpt lat="42.9450830" lon="-8.4665780">
        <ele>310.5</ele>
        <time>2022-04-14T10:28:31Z</time>
      </trkpt>
      <trkpt lat="42.9449800" lon="-8.4666400">
        <ele>310.2</ele>
        <time>2022-04-14T10:28:32Z</time>
      </trkpt>
      <trkpt lat="42.9449450" lon="-8.4666600">
        <ele>310.0</ele>
        <time>2022-04-14T10:28:33Z</time>
      </trkpt>
      <trkpt lat="42.9448400" lon="-8.4667240">
        <ele>309.6</ele>
        <time>2022-04-14T10:28:34Z</time>
      </trkpt>
      <trkpt lat="42.9448040" lon="-8.4667480">
        <ele>309.4</ele>
        <time>2022-04-14T10:28:35Z</time>
      </trkpt>
      <trkpt lat="42.9446960" lon="-8.4668220">
        <ele>308.6</ele>
        <time>2022-04-14T10:28:36Z</time>
      </trkpt>
      <trkpt lat="42.9446590" lon="-8.4668480">
        <ele>308.3</ele>
        <time>2022-04-14T10:28:37Z</time>
      </trkpt>
      <trkpt lat="42.9445240" lon="-8.4669460">
        <ele>307.2</ele>
        <time>2022-04-14T10:28:38Z</time>
      </trkpt>
      <trkpt lat="42.9444640" lon="-8.4669900">
        <ele>306.7</ele>
        <time>2022-04-14T10:28:39Z</time>
      </trkpt>
      <trkpt lat="42.9443430" lon="-8.4670790">
        <ele>305.6</ele>
        <time>2022-04-14T10:28:40Z</time>
      </trkpt>
      <trkpt lat="42.9442580" lon="-8.4671460">
        <ele>304.7</ele>
        <time>2022-04-14T10:28:41Z</time>
      </trkpt>
      <trkpt lat="42.9441700" lon="-8.4672070">
        <ele>304.0</ele>
        <time>2022-04-14T10:28:42Z</time>
      </trkpt>
      <trkpt lat="42.9440770" lon="-8.4672730">
        <ele>303.1</ele>
        <time>2022-04-14T10:28:43Z</time>
      </trkpt>
      <trkpt lat="42.9439840" lon="-8.4673340">
        <ele>302.3</ele>
        <time>2022-04-14T10:28:44Z</time>
      </trkpt>
      <trkpt lat="42.9438830" lon="-8.4673980">
        <ele>301.3</ele>
        <time>2022-04-14T10:28:45Z</time>
      </trkpt>
      <trkpt lat="42.9437870" lon="-8.4674640">
        <ele>300.3</ele>
        <time>2022-04-14T10:28:46Z</time>
      </trkpt>
      <trkpt lat="42.9435910" lon="-8.4675930">
        <ele>298.4</ele>
        <time>2022-04-14T10:28:47Z</time>
      </trkpt>
      <trkpt lat="42.9435910" lon="-8.4675930">
        <ele>298.4</ele>
        <time>2022-04-14T10:28:48Z</time>
      </trkpt>
      <trkpt lat="42.9434890" lon="-8.4676600">
        <ele>298.1</ele>
        <time>2022-04-14T10:28:49Z</time>
      </trkpt>
      <trkpt lat="42.9433850" lon="-8.4677260">
        <ele>297.0</ele>
        <time>2022-04-14T10:28:50Z</time>
      </trkpt>
      <trkpt lat="42.9432800" lon="-8.4677970">
        <ele>295.9</ele>
        <time>2022-04-14T10:28:51Z</time>
      </trkpt>
      <trkpt lat="42.9431720" lon="-8.4678670">
        <ele>294.8</ele>
        <time>2022-04-14T10:28:52Z</time>
      </trkpt>
      <trkpt lat="42.9430670" lon="-8.4679460">
        <ele>293.6</ele>
        <time>2022-04-14T10:28:53Z</time>
      </trkpt>
      <trkpt lat="42.9429590" lon="-8.4680190">
        <ele>292.6</ele>
        <time>2022-04-14T10:28:54Z</time>
      </trkpt>
      <trkpt lat="42.9428470" lon="-8.4680930">
        <ele>291.6</ele>
        <time>2022-04-14T10:28:55Z</time>
      </trkpt>
      <trkpt lat="42.9427380" lon="-8.4681640">
        <ele>290.7</ele>
        <time>2022-04-14T10:28:56Z</time>
      </trkpt>
      <trkpt lat="42.9426280" lon="-8.4682330">
        <ele>289.9</ele>
        <time>2022-04-14T10:28:57Z</time>
      </trkpt>
      <trkpt lat="42.9425230" lon="-8.4683090">
        <ele>289.3</ele>
        <time>2022-04-14T10:28:58Z</time>
      </trkpt>
      <trkpt lat="42.9424190" lon="-8.4683810">
        <ele>288.8</ele>
        <time>2022-04-14T10:28:59Z</time>
      </trkpt>
      <trkpt lat="42.9423150" lon="-8.4684510">
        <ele>288.4</ele>
        <time>2022-04-14T10:29:00Z</time>
      </trkpt>
      <trkpt lat="42.9422090" lon="-8.4685170">
        <ele>288.0</ele>
        <time>2022-04-14T10:29:01Z</time>
      </trkpt>
      <trkpt lat="42.9421040" lon="-8.4685830">
        <ele>287.6</ele>
        <time>2022-04-14T10:29:02Z</time>
      </trkpt>
      <trkpt lat="42.9420020" lon="-8.4686510">
        <ele>287.3</ele>
        <time>2022-04-14T10:29:03Z</time>
      </trkpt>
      <trkpt lat="42.9419000" lon="-8.4687180">
        <ele>286.9</ele>
        <time>2022-04-14T10:29:04Z</time>
      </trkpt>
      <trkpt lat="42.9417970" lon="-8.4687880">
        <ele>286.5</ele>
        <time>2022-04-14T10:29:05Z</time>
      </trkpt>
      <trkpt lat="42.9415920" lon="-8.4689260">
        <ele>285.6</ele>
        <time>2022-04-14T10:29:06Z</time>
      </trkpt>
      <trkpt lat="42.9415920" lon="-8.4689260">
        <ele>285.6</ele>
        <time>2022-04-14T10:29:07Z</time>
      </trkpt>
      <trkpt lat="42.9414940" lon="-8.4690010">
        <ele>285.1</ele>
        <time>2022-04-14T10:29:08Z</time>
      </trkpt>
      <trkpt lat="42.9413920" lon="-8.4690810">
        <ele>284.7</ele>
        <time>2022-04-14T10:29:09Z</time>
      </trkpt>
      <trkpt lat="42.9412860" lon="-8.4691590">
        <ele>284.2</ele>
        <time>2022-04-14T10:29:10Z</time>
      </trkpt>
      <trkpt lat="42.9411830" lon="-8.4692270">
        <ele>283.7</ele>
        <time>2022-04-14T10:29:11Z</time>
      </trkpt>
      <trkpt lat="42.9410810" lon="-8.4692980">
        <ele>283.1</ele>
        <time>2022-04-14T10:29:12Z</time>
      </trkpt>
      <trkpt lat="42.9409840" lon="-8.4693710">
        <ele>282.6</ele>
        <time>2022-04-14T10:29:13Z</time>
      </trkpt>
      <trkpt lat="42.9408800" lon="-8.4694420">
        <ele>282.0</ele>
        <time>2022-04-14T10:29:14Z</time>
      </trkpt>
      <trkpt lat="42.9407760" lon="-8.4695220">
        <ele>281.5</ele>
        <time>2022-04-14T10:29:15Z</time>
      </trkpt>
      <trkpt lat="42.9406720" lon="-8.4695940">
        <ele>281.0</ele>
        <time>2022-04-14T10:29:16Z</time>
      </trkpt>
      <trkpt lat="42.9405700" lon="-8.4696670">
        <ele>280.6</ele>
        <time>2022-04-14T10:29:17Z</time>
      </trkpt>
      <trkpt lat="42.9404700" lon="-8.4697360">
        <ele>280.2</ele>
        <time>2022-04-14T10:29:18Z</time>
      </trkpt>
      <trkpt lat="42.9403710" lon="-8.4698040">
        <ele>280.0</ele>
        <time>2022-04-14T10:29:19Z</time>
      </trkpt>
      <trkpt lat="42.9402660" lon="-8.4698760">
        <ele>279.7</ele>
        <time>2022-04-14T10:29:20Z</time>
      </trkpt>
      <trkpt lat="42.9401630" lon="-8.4699420">
        <ele>279.6</ele>
        <time>2022-04-14T10:29:21Z</time>
      </trkpt>
      <trkpt lat="42.9400650" lon="-8.4700130">
        <ele>279.4</ele>
        <time>2022-04-14T10:29:22Z</time>
      </trkpt>
      <trkpt lat="42.9399670" lon="-8.4700830">
        <ele>279.3</ele>
        <time>2022-04-14T10:29:23Z</time>
      </trkpt>
      <trkpt lat="42.9398720" lon="-8.4701490">
        <ele>279.2</ele>
        <time>2022-04-14T10:29:24Z</time>
      </trkpt>
      <trkpt lat="42.9396760" lon="-8.4702800">
        <ele>279.1</ele>
        <time>2022-04-14T10:29:25Z</time>
      </trkpt>
      <trkpt lat="42.9396760" lon="-8.4702800">
        <ele>279.1</ele>
        <time>2022-04-14T10:29:26Z</time>
      </trkpt>
      <trkpt lat="42.9395760" lon="-8.4703470">
        <ele>279.0</ele>
        <time>2022-04-14T10:29:27Z</time>
      </trkpt>
      <trkpt lat="42.9394850" lon="-8.4704110">
        <ele>278.9</ele>
        <time>2022-04-14T10:29:28Z</time>
      </trkpt>
      <trkpt lat="42.9393880" lon="-8.4704740">
        <ele>278.9</ele>
        <time>2022-04-14T10:29:29Z</time>
      </trkpt>
      <trkpt lat="42.9392950" lon="-8.4705400">
        <ele>278.8</ele>
        <time>2022-04-14T10:29:30Z</time>
      </trkpt>
      <trkpt lat="42.9392020" lon="-8.4706050">
        <ele>278.8</ele>
        <time>2022-04-14T10:29:31Z</time>
      </trkpt>
      <trkpt lat="42.9391100" lon="-8.4706680">
        <ele>278.7</ele>
        <time>2022-04-14T10:29:32Z</time>
      </trkpt>
      <trkpt lat="42.9390140" lon="-8.4707360">
        <ele>278.7</ele>
        <time>2022-04-14T10:29:33Z</time>
      </trkpt>
      <trkpt lat="42.9389240" lon="-8.4707980">
        <ele>278.7</ele>
        <time>2022-04-14T10:29:34Z</time>
      </trkpt>
      <trkpt lat="42.9388310" lon="-8.4708610">
        <ele>278.7</ele>
        <time>2022-04-14T10:29:35Z</time>
      </trkpt>
      <trkpt lat="42.9387400" lon="-8.4709250">
        <ele>278.7</ele>
        <time>2022-04-14T10:29:36Z</time>
      </trkpt>
      <trkpt lat="42.9386500" lon="-8.4709840">
        <ele>278.7</ele>
        <time>2022-04-14T10:29:37Z</time>
      </trkpt>
      <trkpt lat="42.9385590" lon="-8.4710450">
        <ele>278.7</ele>
        <time>2022-04-14T10:29:38Z</time>
      </trkpt>
      <trkpt lat="42.9384710" lon="-8.4710970">
        <ele>278.7</ele>
        <time>2022-04-14T10:29:39Z</time>
      </trkpt>
      <trkpt lat="42.9383830" lon="-8.4711500">
        <ele>278.6</ele>
        <time>2022-04-14T10:29:40Z</time>
      </trkpt>
      <trkpt lat="42.9382940" lon="-8.4712120">
        <ele>278.6</ele>
        <time>2022-04-14T10:29:41Z</time>
      </trkpt>
      <trkpt lat="42.9382070" lon="-8.4712720">
        <ele>278.6</ele>
        <time>2022-04-14T10:29:42Z</time>
      </trkpt>
      <trkpt lat="42.9381160" lon="-8.4713360">
        <ele>278.5</ele>
        <time>2022-04-14T10:29:43Z</time>
      </trkpt>
      <trkpt lat="42.9379470" lon="-8.4714500">
        <ele>278.4</ele>
        <time>2022-04-14T10:29:44Z</time>
      </trkpt>
      <trkpt lat="42.9379470" lon="-8.4714500">
        <ele>278.4</ele>
        <time>2022-04-14T10:29:45Z</time>
      </trkpt>
      <trkpt lat="42.9378590" lon="-8.4715100">
        <ele>278.2</ele>
        <time>2022-04-14T10:29:46Z</time>
      </trkpt>
      <trkpt lat="42.9377690" lon="-8.4715810">
        <ele>278.1</ele>
        <time>2022-04-14T10:29:47Z</time>
      </trkpt>
      <trkpt lat="42.9376840" lon="-8.4716470">
        <ele>278.0</ele>
        <time>2022-04-14T10:29:48Z</time>
      </trkpt>
      <trkpt lat="42.9375990" lon="-8.4717150">
        <ele>277.7</ele>
        <time>2022-04-14T10:29:49Z</time>
      </trkpt>
      <trkpt lat="42.9375130" lon="-8.4717770">
        <ele>277.5</ele>
        <time>2022-04-14T10:29:50Z</time>
      </trkpt>
      <trkpt lat="42.9374270" lon="-8.4718410">
        <ele>277.2</ele>
        <time>2022-04-14T10:29:51Z</time>
      </trkpt>
      <trkpt lat="42.9373420" lon="-8.4719010">
        <ele>276.9</ele>
        <time>2022-04-14T10:29:52Z</time>
      </trkpt>
      <trkpt lat="42.9372590" lon="-8.4719710">
        <ele>276.7</ele>
        <time>2022-04-14T10:29:53Z</time>
      </trkpt>
      <trkpt lat="42.9371990" lon="-8.4720180">
        <ele>276.5</ele>
        <time>2022-04-14T10:29:54Z</time>
      </trkpt>
      <trkpt lat="42.9371400" lon="-8.4720650">
        <ele>276.3</ele>
        <time>2022-04-14T10:29:55Z</time>
      </trkpt>
      <trkpt lat="42.9370200" lon="-8.4721600">
        <ele>275.9</ele>
        <time>2022-04-14T10:29:56Z</time>
      </trkpt>
      <trkpt lat="42.9369280" lon="-8.4722220">
        <ele>275.5</ele>
        <time>2022-04-14T10:29:57Z</time>
      </trkpt>
      <trkpt lat="42.9368410" lon="-8.4722850">
        <ele>275.3</ele>
        <time>2022-04-14T10:29:58Z</time>
      </trkpt>
      <trkpt lat="42.9367500" lon="-8.4723620">
        <ele>274.9</ele>
        <time>2022-04-14T10:29:59Z</time>
      </trkpt>
      <trkpt lat="42.9366600" lon="-8.4724280">
        <ele>274.6</ele>
        <time>2022-04-14T10:30:00Z</time>
      </trkpt>
      <trkpt lat="42.9365720" lon="-8.4724920">
        <ele>274.3</ele>
        <time>2022-04-14T10:30:01Z</time>
      </trkpt>
      <trkpt lat="42.9364800" lon="-8.4725560">
        <ele>274.0</ele>
        <time>2022-04-14T10:30:02Z</time>
      </trkpt>
      <trkpt lat="42.9362990" lon="-8.4726860">
        <ele>273.4</ele>
        <time>2022-04-14T10:30:03Z</time>
      </trkpt>
      <trkpt lat="42.9362990" lon="-8.4726860">
        <ele>273.4</ele>
        <time>2022-04-14T10:30:04Z</time>
      </trkpt>
      <trkpt lat="42.9362090" lon="-8.4727500">
        <ele>273.1</ele>
        <time>2022-04-14T10:30:05Z</time>
      </trkpt>
      <trkpt lat="42.9361170" lon="-8.4728150">
        <ele>272.8</ele>
        <time>2022-04-14T10:30:06Z</time>
      </trkpt>
      <trkpt lat="42.9360270" lon="-8.4728820">
        <ele>272.6</ele>
        <time>2022-04-14T10:30:07Z</time>
      </trkpt>
      <trkpt lat="42.9359360" lon="-8.4729470">
        <ele>272.4</ele>
        <time>2022-04-14T10:30:08Z</time>
      </trkpt>
      <trkpt lat="42.9358450" lon="-8.4730090">
        <ele>272.2</ele>
        <time>2022-04-14T10:30:09Z</time>
      </trkpt>
      <trkpt lat="42.9357510" lon="-8.4730710">
        <ele>271.9</ele>
        <time>2022-04-14T10:30:10Z</time>
      </trkpt>
      <trkpt lat="42.9356560" lon="-8.4731330">
        <ele>271.6</ele>
        <time>2022-04-14T10:30:11Z</time>
      </trkpt>
      <trkpt lat="42.9355590" lon="-8.4731970">
        <ele>271.3</ele>
        <time>2022-04-14T10:30:12Z</time>
      </trkpt>
      <trkpt lat="42.9354630" lon="-8.4732590">
        <ele>271.0</ele>
        <time>2022-04-14T10:30:13Z</time>
      </trkpt>
      <trkpt lat="42.9353670" lon="-8.4733160">
        <ele>270.7</ele>
        <time>2022-04-14T10:30:14Z</time>
      </trkpt>
      <trkpt lat="42.9352690" lon="-8.4733730">
        <ele>270.4</ele>
        <time>2022-04-14T10:30:15Z</time>
      </trkpt>
      <trkpt lat="42.9351740" lon="-8.4734310">
        <ele>270.1</ele>
        <time>2022-04-14T10:30:16Z</time>
      </trkpt>
      <trkpt lat="42.9350770" lon="-8.4734940">
        <ele>269.7</ele>
        <time>2022-04-14T10:30:17Z</time>
      </trkpt>
      <trkpt lat="42.9349800" lon="-8.4735650">
        <ele>269.4</ele>
        <time>2022-04-14T10:30:18Z</time>
      </trkpt>
      <trkpt lat="42.9348840" lon="-8.4736330">
        <ele>269.1</ele>
        <time>2022-04-14T10:30:19Z</time>
      </trkpt>
      <trkpt lat="42.9347910" lon="-8.4736950">
        <ele>268.7</ele>
        <time>2022-04-14T10:30:20Z</time>
      </trkpt>
      <trkpt lat="42.9346990" lon="-8.4737640">
        <ele>268.3</ele>
        <time>2022-04-14T10:30:21Z</time>
      </trkpt>
      <trkpt lat="42.9345180" lon="-8.4739320">
        <ele>267.5</ele>
        <time>2022-04-14T10:30:22Z</time>
      </trkpt>
      <trkpt lat="42.9345180" lon="-8.4739320">
        <ele>267.5</ele>
        <time>2022-04-14T10:30:23Z</time>
      </trkpt>
      <trkpt lat="42.9344280" lon="-8.4740160">
        <ele>267.1</ele>
        <time>2022-04-14T10:30:24Z</time>
      </trkpt>
      <trkpt lat="42.9343420" lon="-8.4741020">
        <ele>266.8</ele>
        <time>2022-04-14T10:30:25Z</time>
      </trkpt>
      <trkpt lat="42.9342610" lon="-8.4741850">
        <ele>266.5</ele>
        <time>2022-04-14T10:30:26Z</time>
      </trkpt>
      <trkpt lat="42.9341780" lon="-8.4742760">
        <ele>266.3</ele>
        <time>2022-04-14T10:30:27Z</time>
      </trkpt>
      <trkpt lat="42.9340970" lon="-8.4743660">
        <ele>266.0</ele>
        <time>2022-04-14T10:30:28Z</time>
      </trkpt>
      <trkpt lat="42.9340110" lon="-8.4744430">
        <ele>265.8</ele>
        <time>2022-04-14T10:30:29Z</time>
      </trkpt>
      <trkpt lat="42.9339190" lon="-8.4745300">
        <ele>265.6</ele>
        <time>2022-04-14T10:30:30Z</time>
      </trkpt>
      <trkpt lat="42.9338280" lon="-8.4746210">
        <ele>265.4</ele>
        <time>2022-04-14T10:30:31Z</time>
      </trkpt>
      <trkpt lat="42.9337410" lon="-8.4747080">
        <ele>265.3</ele>
        <time>2022-04-14T10:30:32Z</time>
      </trkpt>
      <trkpt lat="42.9336630" lon="-8.4747980">
        <ele>265.1</ele>
        <time>2022-04-14T10:30:33Z</time>
      </trkpt>
      <trkpt lat="42.9335820" lon="-8.4748840">
        <ele>265.0</ele>
        <time>2022-04-14T10:30:34Z</time>
      </trkpt>
      <trkpt lat="42.9335010" lon="-8.4749700">
        <ele>264.9</ele>
        <time>2022-04-14T10:30:35Z</time>
      </trkpt>
      <trkpt lat="42.9334170" lon="-8.4750580">
        <ele>264.8</ele>
        <time>2022-04-14T10:30:36Z</time>
      </trkpt>
      <trkpt lat="42.9333360" lon="-8.4751460">
        <ele>264.8</ele>
        <time>2022-04-14T10:30:37Z</time>
      </trkpt>
      <trkpt lat="42.9332550" lon="-8.4752330">
        <ele>264.7</ele>
        <time>2022-04-14T10:30:38Z</time>
      </trkpt>
      <trkpt lat="42.9331720" lon="-8.4753220">
        <ele>264.8</ele>
        <time>2022-04-14T10:30:39Z</time>
      </trkpt>
      <trkpt lat="42.9330910" lon="-8.4754070">
        <ele>264.9</ele>
        <time>2022-04-14T10:30:40Z</time>
      </trkpt>
      <trkpt lat="42.9329340" lon="-8.4755820">
        <ele>265.1</ele>
        <time>2022-04-14T10:30:41Z</time>
      </trkpt>
      <trkpt lat="42.9329340" lon="-8.4755820">
        <ele>265.1</ele>
        <time>2022-04-14T10:30:42Z</time>
      </trkpt>
      <trkpt lat="42.9328610" lon="-8.4756600">
        <ele>265.1</ele>
        <time>2022-04-14T10:30:43Z</time>
      </trkpt>
      <trkpt lat="42.9327870" lon="-8.4757390">
        <ele>265.2</ele>
        <time>2022-04-14T10:30:44Z</time>
      </trkpt>
      <trkpt lat="42.9327140" lon="-8.4758190">
        <ele>265.3</ele>
        <time>2022-04-14T10:30:45Z</time>
      </trkpt>
      <trkpt lat="42.9326780" lon="-8.4758570">
        <ele>265.3</ele>
        <time>2022-04-14T10:30:46Z</time>
      </trkpt>
      <trkpt lat="42.9326420" lon="-8.4758960">
        <ele>265.4</ele>
        <time>2022-04-14T10:30:47Z</time>
      </trkpt>
      <trkpt lat="42.9325370" lon="-8.4760110">
        <ele>265.5</ele>
        <time>2022-04-14T10:30:48Z</time>
      </trkpt>
      <trkpt lat="42.9325030" lon="-8.4760490">
        <ele>265.5</ele>
        <time>2022-04-14T10:30:49Z</time>
      </trkpt>
      <trkpt lat="42.9324020" lon="-8.4761610">
        <ele>265.7</ele>
        <time>2022-04-14T10:30:50Z</time>
      </trkpt>
      <trkpt lat="42.9323690" lon="-8.4761980">
        <ele>265.7</ele>
        <time>2022-04-14T10:30:51Z</time>
      </trkpt>
      <trkpt lat="42.9322690" lon="-8.4763090">
        <ele>265.9</ele>
        <time>2022-04-14T10:30:52Z</time>
      </trkpt>
      <trkpt lat="42.9322370" lon="-8.4763450">
        <ele>266.0</ele>
        <time>2022-04-14T10:30:53Z</time>
      </trkpt>
      <trkpt lat="42.9321400" lon="-8.4764520">
        <ele>266.2</ele>
        <time>2022-04-14T10:30:54Z</time>
      </trkpt>
      <trkpt lat="42.9321090" lon="-8.4764870">
        <ele>266.3</ele>
        <time>2022-04-14T10:30:55Z</time>
      </trkpt>
      <trkpt lat="42.9320120" lon="-8.4765960">
        <ele>266.3</ele>
        <time>2022-04-14T10:30:56Z</time>
      </trkpt>
      <trkpt lat="42.9319790" lon="-8.4766340">
        <ele>266.3</ele>
        <time>2022-04-14T10:30:57Z</time>
      </trkpt>
      <trkpt lat="42.9318500" lon="-8.4767820">
        <ele>266.4</ele>
        <time>2022-04-14T10:30:58Z</time>
      </trkpt>
      <trkpt lat="42.9317870" lon="-8.4768530">
        <ele>266.4</ele>
        <time>2022-04-14T10:30:59Z</time>
      </trkpt>
      <trkpt lat="42.9316630" lon="-8.4769940">
        <ele>266.3</ele>
        <time>2022-04-14T10:31:00Z</time>
      </trkpt>
      <trkpt lat="42.9316630" lon="-8.4769940">
        <ele>266.3</ele>
        <time>2022-04-14T10:31:01Z</time>
      </trkpt>
      <trkpt lat="42.9316330" lon="-8.4770260">
        <ele>266.3</ele>
        <time>2022-04-14T10:31:02Z</time>
      </trkpt>
      <trkpt lat="42.9316030" lon="-8.4770590">
        <ele>266.2</ele>
        <time>2022-04-14T10:31:03Z</time>
      </trkpt>
      <trkpt lat="42.9315110" lon="-8.4771550">
        <ele>266.2</ele>
        <time>2022-04-14T10:31:04Z</time>
      </trkpt>
      <trkpt lat="42.9314800" lon="-8.4771860">
        <ele>266.1</ele>
        <time>2022-04-14T10:31:05Z</time>
      </trkpt>
      <trkpt lat="42.9313570" lon="-8.4773210">
        <ele>265.8</ele>
        <time>2022-04-14T10:31:06Z</time>
      </trkpt>
      <trkpt lat="42.9312970" lon="-8.4773950">
        <ele>265.5</ele>
        <time>2022-04-14T10:31:07Z</time>
      </trkpt>
      <trkpt lat="42.9311780" lon="-8.4775430">
        <ele>264.9</ele>
        <time>2022-04-14T10:31:08Z</time>
      </trkpt>
      <trkpt lat="42.9311780" lon="-8.4775430">
        <ele>264.9</ele>
        <time>2022-04-14T10:31:09Z</time>
      </trkpt>
      <trkpt lat="42.9311450" lon="-8.4775810">
        <ele>264.8</ele>
        <time>2022-04-14T10:31:10Z</time>
      </trkpt>
      <trkpt lat="42.9311130" lon="-8.4776190">
        <ele>264.6</ele>
        <time>2022-04-14T10:31:11Z</time>
      </trkpt>
      <trkpt lat="42.9309960" lon="-8.4777530">
        <ele>263.8</ele>
        <time>2022-04-14T10:31:12Z</time>
      </trkpt>
      <trkpt lat="42.9309440" lon="-8.4778120">
        <ele>263.5</ele>
        <time>2022-04-14T10:31:13Z</time>
      </trkpt>
      <trkpt lat="42.9308410" lon="-8.4779300">
        <ele>262.6</ele>
        <time>2022-04-14T10:31:14Z</time>
      </trkpt>
      <trkpt lat="42.9307600" lon="-8.4780120">
        <ele>262.1</ele>
        <time>2022-04-14T10:31:15Z</time>
      </trkpt>
      <trkpt lat="42.9306810" lon="-8.4780940">
        <ele>261.8</ele>
        <time>2022-04-14T10:31:16Z</time>
      </trkpt>
      <trkpt lat="42.9306050" lon="-8.4781760">
        <ele>261.5</ele>
        <time>2022-04-14T10:31:17Z</time>
      </trkpt>
      <trkpt lat="42.9305240" lon="-8.4782720">
        <ele>260.7</ele>
        <time>2022-04-14T10:31:18Z</time>
      </trkpt>
      <trkpt lat="42.9303470" lon="-8.4784380">
        <ele>259.0</ele>
        <time>2022-04-14T10:31:19Z</time>
      </trkpt>
      <trkpt lat="42.9303470" lon="-8.4784380">
        <ele>259.0</ele>
        <time>2022-04-14T10:31:20Z</time>
      </trkpt>
      <trkpt lat="42.9302530" lon="-8.4785310">
        <ele>258.0</ele>
        <time>2022-04-14T10:31:21Z</time>
      </trkpt>
      <trkpt lat="42.9301600" lon="-8.4786150">
        <ele>257.1</ele>
        <time>2022-04-14T10:31:22Z</time>
      </trkpt>
      <trkpt lat="42.9300700" lon="-8.4787150">
        <ele>256.1</ele>
        <time>2022-04-14T10:31:23Z</time>
      </trkpt>
      <trkpt lat="42.9299820" lon="-8.4788060">
        <ele>255.1</ele>
        <time>2022-04-14T10:31:24Z</time>
      </trkpt>
      <trkpt lat="42.9298950" lon="-8.4788960">
        <ele>254.3</ele>
        <time>2022-04-14T10:31:25Z</time>
      </trkpt>
      <trkpt lat="42.9298070" lon="-8.4789890">
        <ele>253.4</ele>
        <time>2022-04-14T10:31:26Z</time>
      </trkpt>
      <trkpt lat="42.9297200" lon="-8.4790860">
        <ele>252.6</ele>
        <time>2022-04-14T10:31:27Z</time>
      </trkpt>
      <trkpt lat="42.9296360" lon="-8.4791880">
        <ele>251.9</ele>
        <time>2022-04-14T10:31:28Z</time>
      </trkpt>
      <trkpt lat="42.9295520" lon="-8.4792830">
        <ele>251.3</ele>
        <time>2022-04-14T10:31:29Z</time>
      </trkpt>
      <trkpt lat="42.9294610" lon="-8.4793770">
        <ele>250.8</ele>
        <time>2022-04-14T10:31:30Z</time>
      </trkpt>
      <trkpt lat="42.9293740" lon="-8.4794790">
        <ele>250.4</ele>
        <time>2022-04-14T10:31:31Z</time>
      </trkpt>
      <trkpt lat="42.9292840" lon="-8.4795750">
        <ele>250.2</ele>
        <time>2022-04-14T10:31:32Z</time>
      </trkpt>
      <trkpt lat="42.9291950" lon="-8.4796670">
        <ele>250.0</ele>
        <time>2022-04-14T10:31:33Z</time>
      </trkpt>
      <trkpt lat="42.9291080" lon="-8.4797600">
        <ele>249.9</ele>
        <time>2022-04-14T10:31:34Z</time>
      </trkpt>
      <trkpt lat="42.9290210" lon="-8.4798520">
        <ele>249.8</ele>
        <time>2022-04-14T10:31:35Z</time>
      </trkpt>
      <trkpt lat="42.9289310" lon="-8.4799440">
        <ele>249.7</ele>
        <time>2022-04-14T10:31:36Z</time>
      </trkpt>
      <trkpt lat="42.9288440" lon="-8.4800350">
        <ele>249.6</ele>
        <time>2022-04-14T10:31:37Z</time>
      </trkpt>
      <trkpt lat="42.9287590" lon="-8.4801290">
        <ele>249.5</ele>
        <time>2022-04-14T10:31:38Z</time>
      </trkpt>
      <trkpt lat="42.9286860" lon="-8.4802190">
        <ele>249.6</ele>
        <time>2022-04-14T10:31:39Z</time>
      </trkpt>
      <trkpt lat="42.9286080" lon="-8.4803040">
        <ele>249.6</ele>
        <time>2022-04-14T10:31:40Z</time>
      </trkpt>
      <trkpt lat="42.9285280" lon="-8.4803880">
        <ele>249.7</ele>
        <time>2022-04-14T10:31:41Z</time>
      </trkpt>
      <trkpt lat="42.9284520" lon="-8.4804670">
        <ele>249.8</ele>
        <time>2022-04-14T10:31:42Z</time>
      </trkpt>
      <trkpt lat="42.9283770" lon="-8.4805490">
        <ele>249.9</ele>
        <time>2022-04-14T10:31:43Z</time>
      </trkpt>
      <trkpt lat="42.9283420" lon="-8.4805870">
        <ele>249.9</ele>
        <time>2022-04-14T10:31:44Z</time>
      </trkpt>
      <trkpt lat="42.9283070" lon="-8.4806250">
        <ele>249.9</ele>
        <time>2022-04-14T10:31:45Z</time>
      </trkpt>
      <trkpt lat="42.9281830" lon="-8.4807590">
        <ele>249.9</ele>
        <time>2022-04-14T10:31:46Z</time>
      </trkpt>
      <trkpt lat="42.9281300" lon="-8.4808160">
        <ele>249.9</ele>
        <time>2022-04-14T10:31:47Z</time>
      </trkpt>
      <trkpt lat="42.9280230" lon="-8.4809300">
        <ele>249.9</ele>
        <time>2022-04-14T10:31:48Z</time>
      </trkpt>
      <trkpt lat="42.9279910" lon="-8.4809680">
        <ele>250.0</ele>
        <time>2022-04-14T10:31:49Z</time>
      </trkpt>
      <trkpt lat="42.9279590" lon="-8.4810060">
        <ele>250.0</ele>
        <time>2022-04-14T10:31:50Z</time>
      </trkpt>
      <trkpt lat="42.9278620" lon="-8.4811140">
        <ele>250.2</ele>
        <time>2022-04-14T10:31:51Z</time>
      </trkpt>
      <trkpt lat="42.9278290" lon="-8.4811460">
        <ele>250.3</ele>
        <time>2022-04-14T10:31:52Z</time>
      </trkpt>
      <trkpt lat="42.9277300" lon="-8.4812420">
        <ele>250.5</ele>
        <time>2022-04-14T10:31:53Z</time>
      </trkpt>
      <trkpt lat="42.9276980" lon="-8.4812730">
        <ele>250.5</ele>
        <time>2022-04-14T10:31:54Z</time>
      </trkpt>
      <trkpt lat="42.9275730" lon="-8.4814040">
        <ele>250.9</ele>
        <time>2022-04-14T10:31:55Z</time>
      </trkpt>
      <trkpt lat="42.9275110" lon="-8.4814740">
        <ele>251.0</ele>
        <time>2022-04-14T10:31:56Z</time>
      </trkpt>
      <trkpt lat="42.9273870" lon="-8.4816130">
        <ele>251.4</ele>
        <time>2022-04-14T10:31:57Z</time>
      </trkpt>
      <trkpt lat="42.9273870" lon="-8.4816130">
        <ele>251.4</ele>
        <time>2022-04-14T10:31:58Z</time>
      </trkpt>
      <trkpt lat="42.9273580" lon="-8.4816500">
        <ele>251.5</ele>
        <time>2022-04-14T10:31:59Z</time>
      </trkpt>
      <trkpt lat="42.9273280" lon="-8.4816870">
        <ele>251.7</ele>
        <time>2022-04-14T10:32:00Z</time>
      </trkpt>
      <trkpt lat="42.9272410" lon="-8.4818000">
        <ele>252.0</ele>
        <time>2022-04-14T10:32:01Z</time>
      </trkpt>
      <trkpt lat="42.9272110" lon="-8.4818390">
        <ele>252.2</ele>
        <time>2022-04-14T10:32:02Z</time>
      </trkpt>
      <trkpt lat="42.9271220" lon="-8.4819490">
        <ele>252.6</ele>
        <time>2022-04-14T10:32:03Z</time>
      </trkpt>
      <trkpt lat="42.9270930" lon="-8.4819830">
        <ele>252.8</ele>
        <time>2022-04-14T10:32:04Z</time>
      </trkpt>
      <trkpt lat="42.9270030" lon="-8.4820850">
        <ele>253.0</ele>
        <time>2022-04-14T10:32:05Z</time>
      </trkpt>
      <trkpt lat="42.9269740" lon="-8.4821200">
        <ele>253.1</ele>
        <time>2022-04-14T10:32:06Z</time>
      </trkpt>
      <trkpt lat="42.9268890" lon="-8.4822190">
        <ele>253.2</ele>
        <time>2022-04-14T10:32:07Z</time>
      </trkpt>
      <trkpt lat="42.9268650" lon="-8.4822500">
        <ele>253.2</ele>
        <time>2022-04-14T10:32:08Z</time>
      </trkpt>
      <trkpt lat="42.9267880" lon="-8.4823450">
        <ele>253.6</ele>
        <time>2022-04-14T10:32:09Z</time>
      </trkpt>
      <trkpt lat="42.9267600" lon="-8.4823780">
        <ele>253.8</ele>
        <time>2022-04-14T10:32:10Z</time>
      </trkpt>
      <trkpt lat="42.9266790" lon="-8.4824700">
        <ele>254.3</ele>
        <time>2022-04-14T10:32:11Z</time>
      </trkpt>
      <trkpt lat="42.9266530" lon="-8.4824960">
        <ele>254.5</ele>
        <time>2022-04-14T10:32:12Z</time>
      </trkpt>
      <trkpt lat="42.9265750" lon="-8.4825750">
        <ele>255.0</ele>
        <time>2022-04-14T10:32:13Z</time>
      </trkpt>
      <trkpt lat="42.9265500" lon="-8.4826030">
        <ele>255.1</ele>
        <time>2022-04-14T10:32:14Z</time>
      </trkpt>
      <trkpt lat="42.9264720" lon="-8.4826820">
        <ele>255.7</ele>
        <time>2022-04-14T10:32:15Z</time>
      </trkpt>
      <trkpt lat="42.9264460" lon="-8.4827060">
        <ele>255.8</ele>
        <time>2022-04-14T10:32:16Z</time>
      </trkpt>
      <trkpt lat="42.9263680" lon="-8.4827800">
        <ele>256.4</ele>
        <time>2022-04-14T10:32:17Z</time>
      </trkpt>
      <trkpt lat="42.9263440" lon="-8.4828070">
        <ele>256.6</ele>
        <time>2022-04-14T10:32:18Z</time>
      </trkpt>
      <trkpt lat="42.9262700" lon="-8.4828890">
        <ele>257.2</ele>
        <time>2022-04-14T10:32:19Z</time>
      </trkpt>
      <trkpt lat="42.9262460" lon="-8.4829160">
        <ele>257.4</ele>
        <time>2022-04-14T10:32:20Z</time>
      </trkpt>
      <trkpt lat="42.9261730" lon="-8.4829940">
        <ele>258.0</ele>
        <time>2022-04-14T10:32:21Z</time>
      </trkpt>
      <trkpt lat="42.9261500" lon="-8.4830170">
        <ele>258.2</ele>
        <time>2022-04-14T10:32:22Z</time>
      </trkpt>
      <trkpt lat="42.9260850" lon="-8.4830870">
        <ele>258.8</ele>
        <time>2022-04-14T10:32:23Z</time>
      </trkpt>
      <trkpt lat="42.9260650" lon="-8.4831110">
        <ele>259.0</ele>
        <time>2022-04-14T10:32:24Z</time>
      </trkpt>
      <trkpt lat="42.9259870" lon="-8.4832060">
        <ele>259.8</ele>
        <time>2022-04-14T10:32:25Z</time>
      </trkpt>
      <trkpt lat="42.9259470" lon="-8.4832530">
        <ele>260.2</ele>
        <time>2022-04-14T10:32:26Z</time>
      </trkpt>
      <trkpt lat="42.9259270" lon="-8.4832770">
        <ele>260.4</ele>
        <time>2022-04-14T10:32:27Z</time>
      </trkpt>
      <trkpt lat="42.9259070" lon="-8.4833010">
        <ele>260.6</ele>
        <time>2022-04-14T10:32:28Z</time>
      </trkpt>
      <trkpt lat="42.9258330" lon="-8.4833900">
        <ele>261.3</ele>
        <time>2022-04-14T10:32:29Z</time>
      </trkpt>
      <trkpt lat="42.9257980" lon="-8.4834320">
        <ele>261.7</ele>
        <time>2022-04-14T10:32:30Z</time>
      </trkpt>
      <trkpt lat="42.9257660" lon="-8.4834760">
        <ele>262.1</ele>
        <time>2022-04-14T10:32:31Z</time>
      </trkpt>
      <trkpt lat="42.9257330" lon="-8.4835200">
        <ele>262.5</ele>
        <time>2022-04-14T10:32:32Z</time>
      </trkpt>
      <trkpt lat="42.9257190" lon="-8.4835450">
        <ele>262.6</ele>
        <time>2022-04-14T10:32:33Z</time>
      </trkpt>
      <trkpt lat="42.9257040" lon="-8.4835690">
        <ele>262.8</ele>
        <time>2022-04-14T10:32:34Z</time>
      </trkpt>
      <trkpt lat="42.9256900" lon="-8.4835940">
        <ele>263.0</ele>
        <time>2022-04-14T10:32:35Z</time>
      </trkpt>
      <trkpt lat="42.9256210" lon="-8.4837190">
        <ele>263.9</ele>
        <time>2022-04-14T10:32:36Z</time>
      </trkpt>
      <trkpt lat="42.9255940" lon="-8.4837700">
        <ele>264.3</ele>
        <time>2022-04-14T10:32:37Z</time>
      </trkpt>
      <trkpt lat="42.9255700" lon="-8.4838230">
        <ele>264.7</ele>
        <time>2022-04-14T10:32:38Z</time>
      </trkpt>
      <trkpt lat="42.9255450" lon="-8.4838760">
        <ele>265.2</ele>
        <time>2022-04-14T10:32:39Z</time>
      </trkpt>
      <trkpt lat="42.9255330" lon="-8.4838960">
        <ele>265.3</ele>
        <time>2022-04-14T10:32:40Z</time>
      </trkpt>
      <trkpt lat="42.9255220" lon="-8.4839160">
        <ele>265.5</ele>
        <time>2022-04-14T10:32:41Z</time>
      </trkpt>
      <trkpt lat="42.9255100" lon="-8.4839360">
        <ele>265.7</ele>
        <time>2022-04-14T10:32:42Z</time>
      </trkpt>
      <trkpt lat="42.9254630" lon="-8.4840550">
        <ele>266.6</ele>
        <time>2022-04-14T10:32:43Z</time>
      </trkpt>
      <trkpt lat="42.9254510" lon="-8.4841140">
        <ele>267.0</ele>
        <time>2022-04-14T10:32:44Z</time>
      </trkpt>
      <trkpt lat="42.9254390" lon="-8.4841740">
        <ele>267.4</ele>
        <time>2022-04-14T10:32:45Z</time>
      </trkpt>
      <trkpt lat="42.9254030" lon="-8.4843510">
        <ele>268.6</ele>
        <time>2022-04-14T10:32:46Z</time>
      </trkpt>
      <trkpt lat="42.9254030" lon="-8.4843510">
        <ele>268.6</ele>
        <time>2022-04-14T10:32:47Z</time>
      </trkpt>
      <trkpt lat="42.9253940" lon="-8.4843750">
        <ele>268.8</ele>
        <time>2022-04-14T10:32:48Z</time>
      </trkpt>
      <trkpt lat="42.9253850" lon="-8.4843980">
        <ele>269.0</ele>
        <time>2022-04-14T10:32:49Z</time>
      </trkpt>
      <trkpt lat="42.9253760" lon="-8.4844220">
        <ele>269.2</ele>
        <time>2022-04-14T10:32:50Z</time>
      </trkpt>
      <trkpt lat="42.9253400" lon="-8.4845170">
        <ele>269.9</ele>
        <time>2022-04-14T10:32:51Z</time>
      </trkpt>
      <trkpt lat="42.9253310" lon="-8.4845420">
        <ele>270.1</ele>
        <time>2022-04-14T10:32:52Z</time>
      </trkpt>
      <trkpt lat="42.9253220" lon="-8.4845660">
        <ele>270.2</ele>
        <time>2022-04-14T10:32:53Z</time>
      </trkpt>
      <trkpt lat="42.9252800" lon="-8.4846840">
        <ele>271.1</ele>
        <time>2022-04-14T10:32:54Z</time>
      </trkpt>
      <trkpt lat="42.9252670" lon="-8.4847280">
        <ele>271.4</ele>
        <time>2022-04-14T10:32:55Z</time>
      </trkpt>
      <trkpt lat="42.9252530" lon="-8.4847730">
        <ele>271.7</ele>
        <time>2022-04-14T10:32:56Z</time>
      </trkpt>
      <trkpt lat="42.9252370" lon="-8.4848100">
        <ele>272.0</ele>
        <time>2022-04-14T10:32:57Z</time>
      </trkpt>
      <trkpt lat="42.9252220" lon="-8.4848460">
        <ele>272.3</ele>
        <time>2022-04-14T10:32:58Z</time>
      </trkpt>
      <trkpt lat="42.9252060" lon="-8.4848830">
        <ele>272.5</ele>
        <time>2022-04-14T10:32:59Z</time>
      </trkpt>
      <trkpt lat="42.9251980" lon="-8.4849050">
        <ele>272.7</ele>
        <time>2022-04-14T10:33:00Z</time>
      </trkpt>
      <trkpt lat="42.9251900" lon="-8.4849260">
        <ele>272.9</ele>
        <time>2022-04-14T10:33:01Z</time>
      </trkpt>
      <trkpt lat="42.9251810" lon="-8.4849480">
        <ele>273.0</ele>
        <time>2022-04-14T10:33:02Z</time>
      </trkpt>
      <trkpt lat="42.9251490" lon="-8.4850350">
        <ele>273.7</ele>
        <time>2022-04-14T10:33:03Z</time>
      </trkpt>
      <trkpt lat="42.9251420" lon="-8.4850580">
        <ele>273.9</ele>
        <time>2022-04-14T10:33:04Z</time>
      </trkpt>
      <trkpt lat="42.9251350" lon="-8.4850810">
        <ele>274.0</ele>
        <time>2022-04-14T10:33:05Z</time>
      </trkpt>
      <trkpt lat="42.9251060" lon="-8.4851730">
        <ele>274.7</ele>
        <time>2022-04-14T10:33:06Z</time>
      </trkpt>
      <trkpt lat="42.9250970" lon="-8.4851970">
        <ele>274.9</ele>
        <time>2022-04-14T10:33:07Z</time>
      </trkpt>
      <trkpt lat="42.9250890" lon="-8.4852210">
        <ele>275.0</ele>
        <time>2022-04-14T10:33:08Z</time>
      </trkpt>
      <trkpt lat="42.9250550" lon="-8.4853160">
        <ele>275.7</ele>
        <time>2022-04-14T10:33:09Z</time>
      </trkpt>
      <trkpt lat="42.9250460" lon="-8.4853400">
        <ele>275.9</ele>
        <time>2022-04-14T10:33:10Z</time>
      </trkpt>
      <trkpt lat="42.9250380" lon="-8.4853640">
        <ele>276.1</ele>
        <time>2022-04-14T10:33:11Z</time>
      </trkpt>
      <trkpt lat="42.9249970" lon="-8.4854840">
        <ele>276.9</ele>
        <time>2022-04-14T10:33:12Z</time>
      </trkpt>
      <trkpt lat="42.9249810" lon="-8.4855340">
        <ele>277.3</ele>
        <time>2022-04-14T10:33:13Z</time>
      </trkpt>
      <trkpt lat="42.9249650" lon="-8.4855840">
        <ele>277.6</ele>
        <time>2022-04-14T10:33:14Z</time>
      </trkpt>
      <trkpt lat="42.9249570" lon="-8.4856070">
        <ele>277.8</ele>
        <time>2022-04-14T10:33:15Z</time>
      </trkpt>
      <trkpt lat="42.9249490" lon="-8.4856300">
        <ele>277.9</ele>
        <time>2022-04-14T10:33:16Z</time>
      </trkpt>
      <trkpt lat="42.9249410" lon="-8.4856530">
        <ele>278.1</ele>
        <time>2022-04-14T10:33:17Z</time>
      </trkpt>
      <trkpt lat="42.9249080" lon="-8.4857430">
        <ele>278.8</ele>
        <time>2022-04-14T10:33:18Z</time>
      </trkpt>
      <trkpt lat="42.9248990" lon="-8.4857640">
        <ele>278.9</ele>
        <time>2022-04-14T10:33:19Z</time>
      </trkpt>
      <trkpt lat="42.9248900" lon="-8.4857860">
        <ele>279.1</ele>
        <time>2022-04-14T10:33:20Z</time>
      </trkpt>
      <trkpt lat="42.9248540" lon="-8.4858730">
        <ele>279.8</ele>
        <time>2022-04-14T10:33:21Z</time>
      </trkpt>
      <trkpt lat="42.9248450" lon="-8.4858970">
        <ele>280.0</ele>
        <time>2022-04-14T10:33:22Z</time>
      </trkpt>
      <trkpt lat="42.9248350" lon="-8.4859210">
        <ele>280.1</ele>
        <time>2022-04-14T10:33:23Z</time>
      </trkpt>
      <trkpt lat="42.9247980" lon="-8.4860130">
        <ele>280.8</ele>
        <time>2022-04-14T10:33:24Z</time>
      </trkpt>
      <trkpt lat="42.9247890" lon="-8.4860340">
        <ele>281.0</ele>
        <time>2022-04-14T10:33:25Z</time>
      </trkpt>
      <trkpt lat="42.9247790" lon="-8.4860550">
        <ele>281.2</ele>
        <time>2022-04-14T10:33:26Z</time>
      </trkpt>
      <trkpt lat="42.9247340" lon="-8.4861610">
        <ele>282.0</ele>
        <time>2022-04-14T10:33:27Z</time>
      </trkpt>
      <trkpt lat="42.9247160" lon="-8.4862030">
        <ele>282.3</ele>
        <time>2022-04-14T10:33:28Z</time>
      </trkpt>
      <trkpt lat="42.9246980" lon="-8.4862450">
        <ele>282.6</ele>
        <time>2022-04-14T10:33:29Z</time>
      </trkpt>
      <trkpt lat="42.9246890" lon="-8.4862650">
        <ele>282.8</ele>
        <time>2022-04-14T10:33:30Z</time>
      </trkpt>
      <trkpt lat="42.9246790" lon="-8.4862850">
        <ele>283.0</ele>
        <time>2022-04-14T10:33:31Z</time>
      </trkpt>
      <trkpt lat="42.9246690" lon="-8.4863050">
        <ele>283.1</ele>
        <time>2022-04-14T10:33:32Z</time>
      </trkpt>
      <trkpt lat="42.9246290" lon="-8.4863840">
        <ele>283.8</ele>
        <time>2022-04-14T10:33:33Z</time>
      </trkpt>
      <trkpt lat="42.9246180" lon="-8.4864040">
        <ele>283.9</ele>
        <time>2022-04-14T10:33:34Z</time>
      </trkpt>
      <trkpt lat="42.9246070" lon="-8.4864230">
        <ele>284.1</ele>
        <time>2022-04-14T10:33:35Z</time>
      </trkpt>
      <trkpt lat="42.9245600" lon="-8.4865030">
        <ele>284.7</ele>
        <time>2022-04-14T10:33:36Z</time>
      </trkpt>
      <trkpt lat="42.9245470" lon="-8.4865230">
        <ele>284.9</ele>
        <time>2022-04-14T10:33:37Z</time>
      </trkpt>
      <trkpt lat="42.9245340" lon="-8.4865430">
        <ele>285.1</ele>
        <time>2022-04-14T10:33:38Z</time>
      </trkpt>
      <trkpt lat="42.9244810" lon="-8.4866220">
        <ele>285.7</ele>
        <time>2022-04-14T10:33:39Z</time>
      </trkpt>
      <trkpt lat="42.9244670" lon="-8.4866420">
        <ele>285.9</ele>
        <time>2022-04-14T10:33:40Z</time>
      </trkpt>
      <trkpt lat="42.9244520" lon="-8.4866610">
        <ele>286.0</ele>
        <time>2022-04-14T10:33:41Z</time>
      </trkpt>
      <trkpt lat="42.9243950" lon="-8.4867380">
        <ele>286.7</ele>
        <time>2022-04-14T10:33:42Z</time>
      </trkpt>
      <trkpt lat="42.9243810" lon="-8.4867570">
        <ele>286.8</ele>
        <time>2022-04-14T10:33:43Z</time>
      </trkpt>
      <trkpt lat="42.9243670" lon="-8.4867760">
        <ele>287.0</ele>
        <time>2022-04-14T10:33:44Z</time>
      </trkpt>
      <trkpt lat="42.9243100" lon="-8.4868470">
        <ele>287.6</ele>
        <time>2022-04-14T10:33:45Z</time>
      </trkpt>
      <trkpt lat="42.9242970" lon="-8.4868620">
        <ele>287.7</ele>
        <time>2022-04-14T10:33:46Z</time>
      </trkpt>
      <trkpt lat="42.9242830" lon="-8.4868770">
        <ele>287.8</ele>
        <time>2022-04-14T10:33:47Z</time>
      </trkpt>
      <trkpt lat="42.9242030" lon="-8.4869590">
        <ele>288.5</ele>
        <time>2022-04-14T10:33:48Z</time>
      </trkpt>
      <trkpt lat="42.9241640" lon="-8.4869960">
        <ele>288.9</ele>
        <time>2022-04-14T10:33:49Z</time>
      </trkpt>
      <trkpt lat="42.9240780" lon="-8.4870660">
        <ele>289.5</ele>
        <time>2022-04-14T10:33:50Z</time>
      </trkpt>
      <trkpt lat="42.9240780" lon="-8.4870660">
        <ele>289.5</ele>
        <time>2022-04-14T10:33:51Z</time>
      </trkpt>
      <trkpt lat="42.9240600" lon="-8.4870780">
        <ele>289.6</ele>
        <time>2022-04-14T10:33:52Z</time>
      </trkpt>
      <trkpt lat="42.9240420" lon="-8.4870900">
        <ele>289.7</ele>
        <time>2022-04-14T10:33:53Z</time>
      </trkpt>
      <trkpt lat="42.9240240" lon="-8.4871020">
        <ele>289.9</ele>
        <time>2022-04-14T10:33:54Z</time>
      </trkpt>
      <trkpt lat="42.9239260" lon="-8.4871560">
        <ele>290.5</ele>
        <time>2022-04-14T10:33:55Z</time>
      </trkpt>
      <trkpt lat="42.9238810" lon="-8.4871760">
        <ele>290.8</ele>
        <time>2022-04-14T10:33:56Z</time>
      </trkpt>
      <trkpt lat="42.9238610" lon="-8.4871870">
        <ele>290.9</ele>
        <time>2022-04-14T10:33:57Z</time>
      </trkpt>
      <trkpt lat="42.9238420" lon="-8.4871980">
        <ele>291.0</ele>
        <time>2022-04-14T10:33:58Z</time>
      </trkpt>
      <trkpt lat="42.9238220" lon="-8.4872080">
        <ele>291.1</ele>
        <time>2022-04-14T10:33:59Z</time>
      </trkpt>
      <trkpt lat="42.9237200" lon="-8.4872620">
        <ele>291.7</ele>
        <time>2022-04-14T10:34:00Z</time>
      </trkpt>
      <trkpt lat="42.9236780" lon="-8.4872830">
        <ele>291.9</ele>
        <time>2022-04-14T10:34:01Z</time>
      </trkpt>
      <trkpt lat="42.9236560" lon="-8.4872880">
        <ele>292.0</ele>
        <time>2022-04-14T10:34:02Z</time>
      </trkpt>
      <trkpt lat="42.9236340" lon="-8.4872930">
        <ele>292.1</ele>
        <time>2022-04-14T10:34:03Z</time>
      </trkpt>
      <trkpt lat="42.9236120" lon="-8.4872970">
        <ele>292.2</ele>
        <time>2022-04-14T10:34:04Z</time>
      </trkpt>
      <trkpt lat="42.9235250" lon="-8.4873160">
        <ele>292.6</ele>
        <time>2022-04-14T10:34:05Z</time>
      </trkpt>
      <trkpt lat="42.9235050" lon="-8.4873190">
        <ele>292.7</ele>
        <time>2022-04-14T10:34:06Z</time>
      </trkpt>
      <trkpt lat="42.9234850" lon="-8.4873230">
        <ele>292.8</ele>
        <time>2022-04-14T10:34:07Z</time>
      </trkpt>
      <trkpt lat="42.9234020" lon="-8.4873370">
        <ele>293.1</ele>
        <time>2022-04-14T10:34:08Z</time>
      </trkpt>
      <trkpt lat="42.9233800" lon="-8.4873400">
        <ele>293.2</ele>
        <time>2022-04-14T10:34:09Z</time>
      </trkpt>
      <trkpt lat="42.9233590" lon="-8.4873430">
        <ele>293.2</ele>
        <time>2022-04-14T10:34:10Z</time>
      </trkpt>
      <trkpt lat="42.9232650" lon="-8.4873560">
        <ele>293.6</ele>
        <time>2022-04-14T10:34:11Z</time>
      </trkpt>
      <trkpt lat="42.9232360" lon="-8.4873600">
        <ele>293.6</ele>
        <time>2022-04-14T10:34:12Z</time>
      </trkpt>
      <trkpt lat="42.9231510" lon="-8.4873740">
        <ele>293.9</ele>
        <time>2022-04-14T10:34:13Z</time>
      </trkpt>
      <trkpt lat="42.9231240" lon="-8.4873800">
        <ele>294.0</ele>
        <time>2022-04-14T10:34:14Z</time>
      </trkpt>
      <trkpt lat="42.9230400" lon="-8.4873930">
        <ele>294.2</ele>
        <time>2022-04-14T10:34:15Z</time>
      </trkpt>
      <trkpt lat="42.9230100" lon="-8.4873950">
        <ele>294.3</ele>
        <time>2022-04-14T10:34:16Z</time>
      </trkpt>
      <trkpt lat="42.9229250" lon="-8.4874050">
        <ele>294.4</ele>
        <time>2022-04-14T10:34:17Z</time>
      </trkpt>
      <trkpt lat="42.9228970" lon="-8.4874110">
        <ele>294.5</ele>
        <time>2022-04-14T10:34:18Z</time>
      </trkpt>
      <trkpt lat="42.9228120" lon="-8.4874250">
        <ele>294.7</ele>
        <time>2022-04-14T10:34:19Z</time>
      </trkpt>
      <trkpt lat="42.9227810" lon="-8.4874280">
        <ele>294.7</ele>
        <time>2022-04-14T10:34:20Z</time>
      </trkpt>
      <trkpt lat="42.9226870" lon="-8.4874360">
        <ele>294.9</ele>
        <time>2022-04-14T10:34:21Z</time>
      </trkpt>
      <trkpt lat="42.9226550" lon="-8.4874380">
        <ele>294.9</ele>
        <time>2022-04-14T10:34:22Z</time>
      </trkpt>
      <trkpt lat="42.9225600" lon="-8.4874470">
        <ele>295.1</ele>
        <time>2022-04-14T10:34:23Z</time>
      </trkpt>
      <trkpt lat="42.9225280" lon="-8.4874520">
        <ele>295.1</ele>
        <time>2022-04-14T10:34:24Z</time>
      </trkpt>
      <trkpt lat="42.9224330" lon="-8.4874700">
        <ele>295.2</ele>
        <time>2022-04-14T10:34:25Z</time>
      </trkpt>
      <trkpt lat="42.9224010" lon="-8.4874780">
        <ele>295.2</ele>
        <time>2022-04-14T10:34:26Z</time>
      </trkpt>
      <trkpt lat="42.9222710" lon="-8.4875140">
        <ele>295.3</ele>
        <time>2022-04-14T10:34:27Z</time>
      </trkpt>
      <trkpt lat="42.9222060" lon="-8.4875360">
        <ele>295.4</ele>
        <time>2022-04-14T10:34:28Z</time>
      </trkpt>
      <trkpt lat="42.9220770" lon="-8.4875800">
        <ele>295.5</ele>
        <time>2022-04-14T10:34:29Z</time>
      </trkpt>
      <trkpt lat="42.9220770" lon="-8.4875800">
        <ele>295.5</ele>
        <time>2022-04-14T10:34:30Z</time>
      </trkpt>
      <trkpt lat="42.9220400" lon="-8.4875910">
        <ele>295.5</ele>
        <time>2022-04-14T10:34:31Z</time>
      </trkpt>
      <trkpt lat="42.9220040" lon="-8.4876010">
        <ele>295.6</ele>
        <time>2022-04-14T10:34:32Z</time>
      </trkpt>
      <trkpt lat="42.9218950" lon="-8.4876400">
        <ele>295.7</ele>
        <time>2022-04-14T10:34:33Z</time>
      </trkpt>
      <trkpt lat="42.9218580" lon="-8.4876590">
        <ele>295.7</ele>
        <time>2022-04-14T10:34:34Z</time>
      </trkpt>
      <trkpt lat="42.9217520" lon="-8.4877220">
        <ele>295.9</ele>
        <time>2022-04-14T10:34:35Z</time>
      </trkpt>
      <trkpt lat="42.9217190" lon="-8.4877490">
        <ele>295.9</ele>
        <time>2022-04-14T10:34:36Z</time>
      </trkpt>
      <trkpt lat="42.9216230" lon="-8.4878330">
        <ele>296.2</ele>
        <time>2022-04-14T10:34:37Z</time>
      </trkpt>
      <trkpt lat="42.9215950" lon="-8.4878630">
        <ele>296.3</ele>
        <time>2022-04-14T10:34:38Z</time>
      </trkpt>
      <trkpt lat="42.9215110" lon="-8.4879580">
        <ele>296.5</ele>
        <time>2022-04-14T10:34:39Z</time>
      </trkpt>
      <trkpt lat="42.9214830" lon="-8.4879930">
        <ele>296.6</ele>
        <time>2022-04-14T10:34:40Z</time>
      </trkpt>
      <trkpt lat="42.9214040" lon="-8.4880950">
        <ele>296.7</ele>
        <time>2022-04-14T10:34:41Z</time>
      </trkpt>
      <trkpt lat="42.9213790" lon="-8.4881280">
        <ele>296.8</ele>
        <time>2022-04-14T10:34:42Z</time>
      </trkpt>
      <trkpt lat="42.9213090" lon="-8.4882250">
        <ele>297.1</ele>
        <time>2022-04-14T10:34:43Z</time>
      </trkpt>
      <trkpt lat="42.9212890" lon="-8.4882550">
        <ele>297.2</ele>
        <time>2022-04-14T10:34:44Z</time>
      </trkpt>
      <trkpt lat="42.9212290" lon="-8.4883470">
        <ele>297.4</ele>
        <time>2022-04-14T10:34:45Z</time>
      </trkpt>
      <trkpt lat="42.9212100" lon="-8.4883770">
        <ele>297.5</ele>
        <time>2022-04-14T10:34:46Z</time>
      </trkpt>
      <trkpt lat="42.9211520" lon="-8.4884700">
        <ele>297.8</ele>
        <time>2022-04-14T10:34:47Z</time>
      </trkpt>
      <trkpt lat="42.9211320" lon="-8.4885020">
        <ele>298.0</ele>
        <time>2022-04-14T10:34:48Z</time>
      </trkpt>
      <trkpt lat="42.9210750" lon="-8.4885960">
        <ele>298.3</ele>
        <time>2022-04-14T10:34:49Z</time>
      </trkpt>
      <trkpt lat="42.9210570" lon="-8.4886280">
        <ele>298.4</ele>
        <time>2022-04-14T10:34:50Z</time>
      </trkpt>
      <trkpt lat="42.9210020" lon="-8.4887230">
        <ele>298.8</ele>
        <time>2022-04-14T10:34:51Z</time>
      </trkpt>
      <trkpt lat="42.9209840" lon="-8.4887550">
        <ele>298.9</ele>
        <time>2022-04-14T10:34:52Z</time>
      </trkpt>
      <trkpt lat="42.9209300" lon="-8.4888500">
        <ele>299.3</ele>
        <time>2022-04-14T10:34:53Z</time>
      </trkpt>
      <trkpt lat="42.9209110" lon="-8.4888820">
        <ele>299.5</ele>
        <time>2022-04-14T10:34:54Z</time>
      </trkpt>
      <trkpt lat="42.9208460" lon="-8.4889940">
        <ele>300.0</ele>
        <time>2022-04-14T10:34:55Z</time>
      </trkpt>
      <trkpt lat="42.9208180" lon="-8.4890440">
        <ele>300.2</ele>
        <time>2022-04-14T10:34:56Z</time>
      </trkpt>
      <trkpt lat="42.9207950" lon="-8.4890720">
        <ele>300.3</ele>
        <time>2022-04-14T10:34:57Z</time>
      </trkpt>
      <trkpt lat="42.9207730" lon="-8.4890990">
        <ele>300.5</ele>
        <time>2022-04-14T10:34:58Z</time>
      </trkpt>
      <trkpt lat="42.9207510" lon="-8.4891270">
        <ele>300.7</ele>
        <time>2022-04-14T10:34:59Z</time>
      </trkpt>
      <trkpt lat="42.9207340" lon="-8.4891160">
        <ele>300.8</ele>
        <time>2022-04-14T10:35:00Z</time>
      </trkpt>
      <trkpt lat="42.9207180" lon="-8.4891040">
        <ele>300.8</ele>
        <time>2022-04-14T10:35:01Z</time>
      </trkpt>
      <trkpt lat="42.9207010" lon="-8.4890930">
        <ele>300.9</ele>
        <time>2022-04-14T10:35:02Z</time>
      </trkpt>
      <trkpt lat="42.9206280" lon="-8.4890400">
        <ele>299.7</ele>
        <time>2022-04-14T10:35:03Z</time>
      </trkpt>
      <trkpt lat="42.9206050" lon="-8.4890210">
        <ele>299.1</ele>
        <time>2022-04-14T10:35:04Z</time>
      </trkpt>
      <trkpt lat="42.9204970" lon="-8.4889300">
        <ele>297.5</ele>
        <time>2022-04-14T10:35:05Z</time>
      </trkpt>
      <trkpt lat="42.9204370" lon="-8.4888750">
        <ele>296.9</ele>
        <time>2022-04-14T10:35:06Z</time>
      </trkpt>
      <trkpt lat="42.9203160" lon="-8.4887670">
        <ele>295.7</ele>
        <time>2022-04-14T10:35:07Z</time>
      </trkpt>
      <trkpt lat="42.9203160" lon="-8.4887670">
        <ele>295.7</ele>
        <time>2022-04-14T10:35:08Z</time>
      </trkpt>
      <trkpt lat="42.9202820" lon="-8.4887390">
        <ele>295.3</ele>
        <time>2022-04-14T10:35:09Z</time>
      </trkpt>
      <trkpt lat="42.9202480" lon="-8.4887110">
        <ele>295.0</ele>
        <time>2022-04-14T10:35:10Z</time>
      </trkpt>
      <trkpt lat="42.9201460" lon="-8.4886280">
        <ele>294.1</ele>
        <time>2022-04-14T10:35:11Z</time>
      </trkpt>
      <trkpt lat="42.9201120" lon="-8.4885990">
        <ele>293.8</ele>
        <time>2022-04-14T10:35:12Z</time>
      </trkpt>
      <trkpt lat="42.9200120" lon="-8.4885090">
        <ele>293.0</ele>
        <time>2022-04-14T10:35:13Z</time>
      </trkpt>
      <trkpt lat="42.9199800" lon="-8.4884760">
        <ele>292.7</ele>
        <time>2022-04-14T10:35:14Z</time>
      </trkpt>
      <trkpt lat="42.9198820" lon="-8.4883770">
        <ele>291.9</ele>
        <time>2022-04-14T10:35:15Z</time>
      </trkpt>
      <trkpt lat="42.9198460" lon="-8.4883450">
        <ele>291.6</ele>
        <time>2022-04-14T10:35:16Z</time>
      </trkpt>
      <trkpt lat="42.9197430" lon="-8.4882410">
        <ele>290.8</ele>
        <time>2022-04-14T10:35:17Z</time>
      </trkpt>
      <trkpt lat="42.9197110" lon="-8.4882010">
        <ele>290.6</ele>
        <time>2022-04-14T10:35:18Z</time>
      </trkpt>
      <trkpt lat="42.9196150" lon="-8.4880910">
        <ele>290.1</ele>
        <time>2022-04-14T10:35:19Z</time>
      </trkpt>
      <trkpt lat="42.9195840" lon="-8.4880590">
        <ele>290.0</ele>
        <time>2022-04-14T10:35:20Z</time>
      </trkpt>
      <trkpt lat="42.9194880" lon="-8.4879910">
        <ele>289.4</ele>
        <time>2022-04-14T10:35:21Z</time>
      </trkpt>
      <trkpt lat="42.9194520" lon="-8.4879840">
        <ele>289.2</ele>
        <time>2022-04-14T10:35:22Z</time>
      </trkpt>
      <trkpt lat="42.9193420" lon="-8.4879720">
        <ele>288.6</ele>
        <time>2022-04-14T10:35:23Z</time>
      </trkpt>
      <trkpt lat="42.9193030" lon="-8.4879730">
        <ele>288.5</ele>
        <time>2022-04-14T10:35:24Z</time>
      </trkpt>
      <trkpt lat="42.9191600" lon="-8.4879850">
        <ele>288.0</ele>
        <time>2022-04-14T10:35:25Z</time>
      </trkpt>
      <trkpt lat="42.9190950" lon="-8.4879970">
        <ele>287.9</ele>
        <time>2022-04-14T10:35:26Z</time>
      </trkpt>
      <trkpt lat="42.9189670" lon="-8.4880200">
        <ele>287.8</ele>
        <time>2022-04-14T10:35:27Z</time>
      </trkpt>
      <trkpt lat="42.9188790" lon="-8.4880680">
        <ele>287.9</ele>
        <time>2022-04-14T10:35:28Z</time>
      </trkpt>
      <trkpt lat="42.9188460" lon="-8.4880970">
        <ele>288.0</ele>
        <time>2022-04-14T10:35:29Z</time>
      </trkpt>
      <trkpt lat="42.9188130" lon="-8.4881270">
        <ele>288.1</ele>
        <time>2022-04-14T10:35:30Z</time>
      </trkpt>
      <trkpt lat="42.9187200" lon="-8.4882230">
        <ele>288.3</ele>
        <time>2022-04-14T10:35:31Z</time>
      </trkpt>
      <trkpt lat="42.9186920" lon="-8.4882610">
        <ele>288.4</ele>
        <time>2022-04-14T10:35:32Z</time>
      </trkpt>
      <trkpt lat="42.9186120" lon="-8.4883700">
        <ele>288.8</ele>
        <time>2022-04-14T10:35:33Z</time>
      </trkpt>
      <trkpt lat="42.9185850" lon="-8.4884040">
        <ele>288.9</ele>
        <time>2022-04-14T10:35:34Z</time>
      </trkpt>
      <trkpt lat="42.9185120" lon="-8.4885080">
        <ele>289.4</ele>
        <time>2022-04-14T10:35:35Z</time>
      </trkpt>
      <trkpt lat="42.9184910" lon="-8.4885430">
        <ele>289.5</ele>
        <time>2022-04-14T10:35:36Z</time>
      </trkpt>
      <trkpt lat="42.9184250" lon="-8.4886450">
        <ele>290.0</ele>
        <time>2022-04-14T10:35:37Z</time>
      </trkpt>
      <trkpt lat="42.9184000" lon="-8.4886770">
        <ele>290.1</ele>
        <time>2022-04-14T10:35:38Z</time>
      </trkpt>
      <trkpt lat="42.9183260" lon="-8.4887770">
        <ele>290.6</ele>
        <time>2022-04-14T10:35:39Z</time>
      </trkpt>
      <trkpt lat="42.9183020" lon="-8.4888130">
        <ele>290.8</ele>
        <time>2022-04-14T10:35:40Z</time>
      </trkpt>
      <trkpt lat="42.9182320" lon="-8.4889190">
        <ele>291.4</ele>
        <time>2022-04-14T10:35:41Z</time>
      </trkpt>
      <trkpt lat="42.9182110" lon="-8.4889500">
        <ele>291.5</ele>
        <time>2022-04-14T10:35:42Z</time>
      </trkpt>
      <trkpt lat="42.9181260" lon="-8.4890740">
        <ele>292.2</ele>
        <time>2022-04-14T10:35:43Z</time>
      </trkpt>
      <trkpt lat="42.9180840" lon="-8.4891350">
        <ele>292.6</ele>
        <time>2022-04-14T10:35:44Z</time>
      </trkpt>
      <trkpt lat="42.9180000" lon="-8.4892560">
        <ele>293.4</ele>
        <time>2022-04-14T10:35:45Z</time>
      </trkpt>
      <trkpt lat="42.9180000" lon="-8.4892560">
        <ele>293.4</ele>
        <time>2022-04-14T10:35:46Z</time>
      </trkpt>
      <trkpt lat="42.9179790" lon="-8.4892850">
        <ele>293.6</ele>
        <time>2022-04-14T10:35:47Z</time>
      </trkpt>
      <trkpt lat="42.9179580" lon="-8.4893150">
        <ele>293.8</ele>
        <time>2022-04-14T10:35:48Z</time>
      </trkpt>
      <trkpt lat="42.9179010" lon="-8.4894030">
        <ele>294.5</ele>
        <time>2022-04-14T10:35:49Z</time>
      </trkpt>
      <trkpt lat="42.9178850" lon="-8.4894320">
        <ele>294.8</ele>
        <time>2022-04-14T10:35:50Z</time>
      </trkpt>
      <trkpt lat="42.9178340" lon="-8.4895160">
        <ele>295.4</ele>
        <time>2022-04-14T10:35:51Z</time>
      </trkpt>
      <trkpt lat="42.9178160" lon="-8.4895410">
        <ele>295.5</ele>
        <time>2022-04-14T10:35:52Z</time>
      </trkpt>
      <trkpt lat="42.9177590" lon="-8.4896210">
        <ele>295.7</ele>
        <time>2022-04-14T10:35:53Z</time>
      </trkpt>
      <trkpt lat="42.9177390" lon="-8.4896500">
        <ele>295.7</ele>
        <time>2022-04-14T10:35:54Z</time>
      </trkpt>
      <trkpt lat="42.9176820" lon="-8.4897320">
        <ele>295.9</ele>
        <time>2022-04-14T10:35:55Z</time>
      </trkpt>
      <trkpt lat="42.9176640" lon="-8.4897570">
        <ele>295.9</ele>
        <time>2022-04-14T10:35:56Z</time>
      </trkpt>
      <trkpt lat="42.9176090" lon="-8.4898370">
        <ele>296.1</ele>
        <time>2022-04-14T10:35:57Z</time>
      </trkpt>
      <trkpt lat="42.9175900" lon="-8.4898660">
        <ele>296.2</ele>
        <time>2022-04-14T10:35:58Z</time>
      </trkpt>
      <trkpt lat="42.9175340" lon="-8.4899520">
        <ele>296.5</ele>
        <time>2022-04-14T10:35:59Z</time>
      </trkpt>
      <trkpt lat="42.9175160" lon="-8.4899790">
        <ele>296.6</ele>
        <time>2022-04-14T10:36:00Z</time>
      </trkpt>
      <trkpt lat="42.9174600" lon="-8.4900630">
        <ele>296.9</ele>
        <time>2022-04-14T10:36:01Z</time>
      </trkpt>
      <trkpt lat="42.9174410" lon="-8.4900930">
        <ele>297.0</ele>
        <time>2022-04-14T10:36:02Z</time>
      </trkpt>
      <trkpt lat="42.9173830" lon="-8.4901790">
        <ele>297.5</ele>
        <time>2022-04-14T10:36:03Z</time>
      </trkpt>
      <trkpt lat="42.9173630" lon="-8.4902060">
        <ele>297.6</ele>
        <time>2022-04-14T10:36:04Z</time>
      </trkpt>
      <trkpt lat="42.9172930" lon="-8.4903110">
        <ele>298.2</ele>
        <time>2022-04-14T10:36:05Z</time>
      </trkpt>
      <trkpt lat="42.9172610" lon="-8.4903610">
        <ele>298.5</ele>
        <time>2022-04-14T10:36:06Z</time>
      </trkpt>
      <trkpt lat="42.9172290" lon="-8.4904130">
        <ele>298.7</ele>
        <time>2022-04-14T10:36:07Z</time>
      </trkpt>
      <trkpt lat="42.9171960" lon="-8.4904650">
        <ele>299.0</ele>
        <time>2022-04-14T10:36:08Z</time>
      </trkpt>
      <trkpt lat="42.9171790" lon="-8.4904940">
        <ele>299.2</ele>
        <time>2022-04-14T10:36:09Z</time>
      </trkpt>
      <trkpt lat="42.9171610" lon="-8.4905230">
        <ele>299.3</ele>
        <time>2022-04-14T10:36:10Z</time>
      </trkpt>
      <trkpt lat="42.9171080" lon="-8.4906080">
        <ele>299.7</ele>
        <time>2022-04-14T10:36:11Z</time>
      </trkpt>
      <trkpt lat="42.9170900" lon="-8.4906360">
        <ele>299.9</ele>
        <time>2022-04-14T10:36:12Z</time>
      </trkpt>
      <trkpt lat="42.9170370" lon="-8.4907190">
        <ele>300.2</ele>
        <time>2022-04-14T10:36:13Z</time>
      </trkpt>
      <trkpt lat="42.9170210" lon="-8.4907480">
        <ele>300.3</ele>
        <time>2022-04-14T10:36:14Z</time>
      </trkpt>
      <trkpt lat="42.9169720" lon="-8.4908330">
        <ele>300.7</ele>
        <time>2022-04-14T10:36:15Z</time>
      </trkpt>
      <trkpt lat="42.9169550" lon="-8.4908600">
        <ele>300.8</ele>
        <time>2022-04-14T10:36:16Z</time>
      </trkpt>
      <trkpt lat="42.9168870" lon="-8.4909600">
        <ele>301.2</ele>
        <time>2022-04-14T10:36:17Z</time>
      </trkpt>
      <trkpt lat="42.9168530" lon="-8.4910070">
        <ele>301.4</ele>
        <time>2022-04-14T10:36:18Z</time>
      </trkpt>
      <trkpt lat="42.9168360" lon="-8.4910330">
        <ele>301.5</ele>
        <time>2022-04-14T10:36:19Z</time>
      </trkpt>
      <trkpt lat="42.9168190" lon="-8.4910600">
        <ele>301.6</ele>
        <time>2022-04-14T10:36:20Z</time>
      </trkpt>
      <trkpt lat="42.9167470" lon="-8.4911740">
        <ele>302.0</ele>
        <time>2022-04-14T10:36:21Z</time>
      </trkpt>
      <trkpt lat="42.9167090" lon="-8.4912350">
        <ele>302.1</ele>
        <time>2022-04-14T10:36:22Z</time>
      </trkpt>
      <trkpt lat="42.9166330" lon="-8.4913580">
        <ele>302.4</ele>
        <time>2022-04-14T10:36:23Z</time>
      </trkpt>
      <trkpt lat="42.9166330" lon="-8.4913580">
        <ele>302.4</ele>
        <time>2022-04-14T10:36:24Z</time>
      </trkpt>
      <trkpt lat="42.9166140" lon="-8.4913880">
        <ele>302.4</ele>
        <time>2022-04-14T10:36:25Z</time>
      </trkpt>
      <trkpt lat="42.9165950" lon="-8.4914190">
        <ele>302.5</ele>
        <time>2022-04-14T10:36:26Z</time>
      </trkpt>
      <trkpt lat="42.9165380" lon="-8.4915120">
        <ele>302.5</ele>
        <time>2022-04-14T10:36:27Z</time>
      </trkpt>
      <trkpt lat="42.9165180" lon="-8.4915430">
        <ele>302.6</ele>
        <time>2022-04-14T10:36:28Z</time>
      </trkpt>
      <trkpt lat="42.9164600" lon="-8.4916370">
        <ele>302.6</ele>
        <time>2022-04-14T10:36:29Z</time>
      </trkpt>
      <trkpt lat="42.9164410" lon="-8.4916690">
        <ele>302.6</ele>
        <time>2022-04-14T10:36:30Z</time>
      </trkpt>
      <trkpt lat="42.9163820" lon="-8.4917660">
        <ele>302.5</ele>
        <time>2022-04-14T10:36:31Z</time>
      </trkpt>
      <trkpt lat="42.9163610" lon="-8.4918000">
        <ele>302.5</ele>
        <time>2022-04-14T10:36:32Z</time>
      </trkpt>
      <trkpt lat="42.9162990" lon="-8.4918990">
        <ele>302.3</ele>
        <time>2022-04-14T10:36:33Z</time>
      </trkpt>
      <trkpt lat="42.9162790" lon="-8.4919310">
        <ele>302.3</ele>
        <time>2022-04-14T10:36:34Z</time>
      </trkpt>
      <trkpt lat="42.9162190" lon="-8.4920310">
        <ele>302.2</ele>
        <time>2022-04-14T10:36:35Z</time>
      </trkpt>
      <trkpt lat="42.9161980" lon="-8.4920660">
        <ele>302.1</ele>
        <time>2022-04-14T10:36:36Z</time>
      </trkpt>
      <trkpt lat="42.9161350" lon="-8.4921700">
        <ele>302.0</ele>
        <time>2022-04-14T10:36:37Z</time>
      </trkpt>
      <trkpt lat="42.9161130" lon="-8.4922050">
        <ele>301.9</ele>
        <time>2022-04-14T10:36:38Z</time>
      </trkpt>
      <trkpt lat="42.9160450" lon="-8.4923150">
        <ele>301.7</ele>
        <time>2022-04-14T10:36:39Z</time>
      </trkpt>
      <trkpt lat="42.9160200" lon="-8.4923560">
        <ele>301.7</ele>
        <time>2022-04-14T10:36:40Z</time>
      </trkpt>
      <trkpt lat="42.9159450" lon="-8.4924790">
        <ele>301.5</ele>
        <time>2022-04-14T10:36:41Z</time>
      </trkpt>
      <trkpt lat="42.9159190" lon="-8.4925210">
        <ele>301.5</ele>
        <time>2022-04-14T10:36:42Z</time>
      </trkpt>
      <trkpt lat="42.9158420" lon="-8.4926430">
        <ele>301.2</ele>
        <time>2022-04-14T10:36:43Z</time>
      </trkpt>
      <trkpt lat="42.9158160" lon="-8.4926820">
        <ele>301.2</ele>
        <time>2022-04-14T10:36:44Z</time>
      </trkpt>
      <trkpt lat="42.9157360" lon="-8.4927990">
        <ele>301.0</ele>
        <time>2022-04-14T10:36:45Z</time>
      </trkpt>
      <trkpt lat="42.9157080" lon="-8.4928380">
        <ele>300.9</ele>
        <time>2022-04-14T10:36:46Z</time>
      </trkpt>
      <trkpt lat="42.9156260" lon="-8.4929610">
        <ele>300.7</ele>
        <time>2022-04-14T10:36:47Z</time>
      </trkpt>
      <trkpt lat="42.9156000" lon="-8.4930060">
        <ele>300.7</ele>
        <time>2022-04-14T10:36:48Z</time>
      </trkpt>
      <trkpt lat="42.9155270" lon="-8.4931330">
        <ele>300.6</ele>
        <time>2022-04-14T10:36:49Z</time>
      </trkpt>
      <trkpt lat="42.9155050" lon="-8.4931700">
        <ele>300.6</ele>
        <time>2022-04-14T10:36:50Z</time>
      </trkpt>
      <trkpt lat="42.9154180" lon="-8.4933210">
        <ele>300.6</ele>
        <time>2022-04-14T10:36:51Z</time>
      </trkpt>
      <trkpt lat="42.9153740" lon="-8.4933970">
        <ele>300.7</ele>
        <time>2022-04-14T10:36:52Z</time>
      </trkpt>
      <trkpt lat="42.9152850" lon="-8.4935490">
        <ele>300.8</ele>
        <time>2022-04-14T10:36:53Z</time>
      </trkpt>
      <trkpt lat="42.9152850" lon="-8.4935490">
        <ele>300.8</ele>
        <time>2022-04-14T10:36:54Z</time>
      </trkpt>
      <trkpt lat="42.9152630" lon="-8.4935830">
        <ele>300.9</ele>
        <time>2022-04-14T10:36:55Z</time>
      </trkpt>
      <trkpt lat="42.9152400" lon="-8.4936170">
        <ele>301.0</ele>
        <time>2022-04-14T10:36:56Z</time>
      </trkpt>
      <trkpt lat="42.9151650" lon="-8.4937160">
        <ele>301.2</ele>
        <time>2022-04-14T10:36:57Z</time>
      </trkpt>
      <trkpt lat="42.9151350" lon="-8.4937480">
        <ele>301.2</ele>
        <time>2022-04-14T10:36:58Z</time>
      </trkpt>
      <trkpt lat="42.9150350" lon="-8.4938630">
        <ele>301.6</ele>
        <time>2022-04-14T10:36:59Z</time>
      </trkpt>
      <trkpt lat="42.9149930" lon="-8.4939150">
        <ele>301.8</ele>
        <time>2022-04-14T10:37:00Z</time>
      </trkpt>
      <trkpt lat="42.9149090" lon="-8.4940180">
        <ele>302.1</ele>
        <time>2022-04-14T10:37:01Z</time>
      </trkpt>
      <trkpt lat="42.9149090" lon="-8.4940180">
        <ele>302.1</ele>
        <time>2022-04-14T10:37:02Z</time>
      </trkpt>
      <trkpt lat="42.9148890" lon="-8.4940530">
        <ele>302.2</ele>
        <time>2022-04-14T10:37:03Z</time>
      </trkpt>
      <trkpt lat="42.9148680" lon="-8.4940870">
        <ele>302.3</ele>
        <time>2022-04-14T10:37:04Z</time>
      </trkpt>
      <trkpt lat="42.9148100" lon="-8.4941850">
        <ele>302.7</ele>
        <time>2022-04-14T10:37:05Z</time>
      </trkpt>
      <trkpt lat="42.9147930" lon="-8.4942150">
        <ele>302.9</ele>
        <time>2022-04-14T10:37:06Z</time>
      </trkpt>
      <trkpt lat="42.9147410" lon="-8.4943050">
        <ele>303.4</ele>
        <time>2022-04-14T10:37:07Z</time>
      </trkpt>
      <trkpt lat="42.9147220" lon="-8.4943340">
        <ele>303.5</ele>
        <time>2022-04-14T10:37:08Z</time>
      </trkpt>
      <trkpt lat="42.9146640" lon="-8.4944200">
        <ele>304.1</ele>
        <time>2022-04-14T10:37:09Z</time>
      </trkpt>
      <trkpt lat="42.9146430" lon="-8.4944480">
        <ele>304.3</ele>
        <time>2022-04-14T10:37:10Z</time>
      </trkpt>
      <trkpt lat="42.9145830" lon="-8.4945330">
        <ele>304.8</ele>
        <time>2022-04-14T10:37:11Z</time>
      </trkpt>
      <trkpt lat="42.9145630" lon="-8.4945610">
        <ele>305.0</ele>
        <time>2022-04-14T10:37:12Z</time>
      </trkpt>
      <trkpt lat="42.9145000" lon="-8.4946430">
        <ele>305.5</ele>
        <time>2022-04-14T10:37:13Z</time>
      </trkpt>
      <trkpt lat="42.9144770" lon="-8.4946670">
        <ele>305.7</ele>
        <time>2022-04-14T10:37:14Z</time>
      </trkpt>
      <trkpt lat="42.9144020" lon="-8.4947220">
        <ele>306.2</ele>
        <time>2022-04-14T10:37:15Z</time>
      </trkpt>
      <trkpt lat="42.9143730" lon="-8.4947290">
        <ele>306.3</ele>
        <time>2022-04-14T10:37:16Z</time>
      </trkpt>
      <trkpt lat="42.9142870" lon="-8.4947330">
        <ele>307.1</ele>
        <time>2022-04-14T10:37:17Z</time>
      </trkpt>
      <trkpt lat="42.9142580" lon="-8.4947230">
        <ele>307.2</ele>
        <time>2022-04-14T10:37:18Z</time>
      </trkpt>
      <trkpt lat="42.9141720" lon="-8.4946820">
        <ele>307.3</ele>
        <time>2022-04-14T10:37:19Z</time>
      </trkpt>
      <trkpt lat="42.9141450" lon="-8.4946620">
        <ele>307.3</ele>
        <time>2022-04-14T10:37:20Z</time>
      </trkpt>
      <trkpt lat="42.9140670" lon="-8.4945980">
        <ele>307.5</ele>
        <time>2022-04-14T10:37:21Z</time>
      </trkpt>
      <trkpt lat="42.9140430" lon="-8.4945730">
        <ele>307.6</ele>
        <time>2022-04-14T10:37:22Z</time>
      </trkpt>
      <trkpt lat="42.9139720" lon="-8.4945000">
        <ele>307.8</ele>
        <time>2022-04-14T10:37:23Z</time>
      </trkpt>
      <trkpt lat="42.9139480" lon="-8.4944760">
        <ele>307.9</ele>
        <time>2022-04-14T10:37:24Z</time>
      </trkpt>
      <trkpt lat="42.9138770" lon="-8.4944050">
        <ele>308.1</ele>
        <time>2022-04-14T10:37:25Z</time>
      </trkpt>
      <trkpt lat="42.9138540" lon="-8.4943810">
        <ele>308.1</ele>
        <time>2022-04-14T10:37:26Z</time>
      </trkpt>
      <trkpt lat="42.9137850" lon="-8.4943100">
        <ele>308.3</ele>
        <time>2022-04-14T10:37:27Z</time>
      </trkpt>
      <trkpt lat="42.9137600" lon="-8.4942870">
        <ele>308.4</ele>
        <time>2022-04-14T10:37:28Z</time>
      </trkpt>
      <trkpt lat="42.9136830" lon="-8.4942320">
        <ele>308.5</ele>
        <time>2022-04-14T10:37:29Z</time>
      </trkpt>
      <trkpt lat="42.9136550" lon="-8.4942220">
        <ele>308.6</ele>
        <time>2022-04-14T10:37:30Z</time>
      </trkpt>
      <trkpt lat="42.9135730" lon="-8.4942120">
        <ele>308.7</ele>
        <time>2022-04-14T10:37:31Z</time>
      </trkpt>
      <trkpt lat="42.9135460" lon="-8.4942210">
        <ele>308.7</ele>
        <time>2022-04-14T10:37:32Z</time>
      </trkpt>
      <trkpt lat="42.9134720" lon="-8.4942640">
        <ele>308.9</ele>
        <time>2022-04-14T10:37:33Z</time>
      </trkpt>
      <trkpt lat="42.9134520" lon="-8.4942890">
        <ele>308.9</ele>
        <time>2022-04-14T10:37:34Z</time>
      </trkpt>
      <trkpt lat="42.9133930" lon="-8.4943690">
        <ele>309.1</ele>
        <time>2022-04-14T10:37:35Z</time>
      </trkpt>
      <trkpt lat="42.9133750" lon="-8.4943980">
        <ele>309.2</ele>
        <time>2022-04-14T10:37:36Z</time>
      </trkpt>
      <trkpt lat="42.9132990" lon="-8.4945180">
        <ele>309.5</ele>
        <time>2022-04-14T10:37:37Z</time>
      </trkpt>
      <trkpt lat="42.9132590" lon="-8.4945800">
        <ele>309.6</ele>
        <time>2022-04-14T10:37:38Z</time>
      </trkpt>
      <trkpt lat="42.9131790" lon="-8.4947040">
        <ele>309.9</ele>
        <time>2022-04-14T10:37:39Z</time>
      </trkpt>
      <trkpt lat="42.9131790" lon="-8.4947040">
        <ele>309.9</ele>
        <time>2022-04-14T10:37:40Z</time>
      </trkpt>
      <trkpt lat="42.9131610" lon="-8.4947350">
        <ele>310.0</ele>
        <time>2022-04-14T10:37:41Z</time>
      </trkpt>
      <trkpt lat="42.9131420" lon="-8.4947650">
        <ele>310.0</ele>
        <time>2022-04-14T10:37:42Z</time>
      </trkpt>
      <trkpt lat="42.9130860" lon="-8.4948540">
        <ele>310.2</ele>
        <time>2022-04-14T10:37:43Z</time>
      </trkpt>
      <trkpt lat="42.9130670" lon="-8.4948830">
        <ele>310.3</ele>
        <time>2022-04-14T10:37:44Z</time>
      </trkpt>
      <trkpt lat="42.9130100" lon="-8.4949650">
        <ele>310.5</ele>
        <time>2022-04-14T10:37:45Z</time>
      </trkpt>
      <trkpt lat="42.9129910" lon="-8.4949900">
        <ele>310.5</ele>
        <time>2022-04-14T10:37:46Z</time>
      </trkpt>
      <trkpt lat="42.9129320" lon="-8.4950600">
        <ele>310.7</ele>
        <time>2022-04-14T10:37:47Z</time>
      </trkpt>
      <trkpt lat="42.9129100" lon="-8.4950800">
        <ele>310.8</ele>
        <time>2022-04-14T10:37:48Z</time>
      </trkpt>
      <trkpt lat="42.9128380" lon="-8.4951290">
        <ele>311.0</ele>
        <time>2022-04-14T10:37:49Z</time>
      </trkpt>
      <trkpt lat="42.9128090" lon="-8.4951360">
        <ele>311.1</ele>
        <time>2022-04-14T10:37:50Z</time>
      </trkpt>
      <trkpt lat="42.9127240" lon="-8.4951420">
        <ele>311.3</ele>
        <time>2022-04-14T10:37:51Z</time>
      </trkpt>
      <trkpt lat="42.9126960" lon="-8.4951340">
        <ele>311.4</ele>
        <time>2022-04-14T10:37:52Z</time>
      </trkpt>
      <trkpt lat="42.9126170" lon="-8.4950970">
        <ele>311.5</ele>
        <time>2022-04-14T10:37:53Z</time>
      </trkpt>
      <trkpt lat="42.9125950" lon="-8.4950770">
        <ele>311.6</ele>
        <time>2022-04-14T10:37:54Z</time>
      </trkpt>
      <trkpt lat="42.9125300" lon="-8.4950120">
        <ele>311.7</ele>
        <time>2022-04-14T10:37:55Z</time>
      </trkpt>
      <trkpt lat="42.9125080" lon="-8.4949880">
        <ele>311.8</ele>
        <time>2022-04-14T10:37:56Z</time>
      </trkpt>
      <trkpt lat="42.9124420" lon="-8.4949160">
        <ele>311.9</ele>
        <time>2022-04-14T10:37:57Z</time>
      </trkpt>
      <trkpt lat="42.9124190" lon="-8.4948920">
        <ele>312.0</ele>
        <time>2022-04-14T10:37:58Z</time>
      </trkpt>
      <trkpt lat="42.9123500" lon="-8.4948210">
        <ele>312.1</ele>
        <time>2022-04-14T10:37:59Z</time>
      </trkpt>
      <trkpt lat="42.9123280" lon="-8.4947980">
        <ele>312.1</ele>
        <time>2022-04-14T10:38:00Z</time>
      </trkpt>
      <trkpt lat="42.9122620" lon="-8.4947280">
        <ele>312.2</ele>
        <time>2022-04-14T10:38:01Z</time>
      </trkpt>
      <trkpt lat="42.9122400" lon="-8.4947050">
        <ele>312.2</ele>
        <time>2022-04-14T10:38:02Z</time>
      </trkpt>
      <trkpt lat="42.9121730" lon="-8.4946330">
        <ele>312.3</ele>
        <time>2022-04-14T10:38:03Z</time>
      </trkpt>
      <trkpt lat="42.9121500" lon="-8.4946090">
        <ele>312.3</ele>
        <time>2022-04-14T10:38:04Z</time>
      </trkpt>
      <trkpt lat="42.9120840" lon="-8.4945380">
        <ele>312.4</ele>
        <time>2022-04-14T10:38:05Z</time>
      </trkpt>
      <trkpt lat="42.9120620" lon="-8.4945160">
        <ele>312.4</ele>
        <time>2022-04-14T10:38:06Z</time>
      </trkpt>
      <trkpt lat="42.9119930" lon="-8.4944470">
        <ele>312.5</ele>
        <time>2022-04-14T10:38:07Z</time>
      </trkpt>
      <trkpt lat="42.9119670" lon="-8.4944230">
        <ele>312.5</ele>
        <time>2022-04-14T10:38:08Z</time>
      </trkpt>
      <trkpt lat="42.9118910" lon="-8.4943490">
        <ele>312.6</ele>
        <time>2022-04-14T10:38:09Z</time>
      </trkpt>
      <trkpt lat="42.9118660" lon="-8.4943240">
        <ele>312.6</ele>
        <time>2022-04-14T10:38:10Z</time>
      </trkpt>
      <trkpt lat="42.9117940" lon="-8.4942470">
        <ele>312.6</ele>
        <time>2022-04-14T10:38:11Z</time>
      </trkpt>
      <trkpt lat="42.9117700" lon="-8.4942210">
        <ele>312.6</ele>
        <time>2022-04-14T10:38:12Z</time>
      </trkpt>
      <trkpt lat="42.9116980" lon="-8.4941420">
        <ele>312.6</ele>
        <time>2022-04-14T10:38:13Z</time>
      </trkpt>
      <trkpt lat="42.9116730" lon="-8.4941150">
        <ele>312.6</ele>
        <time>2022-04-14T10:38:14Z</time>
      </trkpt>
      <trkpt lat="42.9115760" lon="-8.4940040">
        <ele>312.7</ele>
        <time>2022-04-14T10:38:15Z</time>
      </trkpt>
      <trkpt lat="42.9115280" lon="-8.4939480">
        <ele>312.6</ele>
        <time>2022-04-14T10:38:16Z</time>
      </trkpt>
      <trkpt lat="42.9114320" lon="-8.4938360">
        <ele>312.6</ele>
        <time>2022-04-14T10:38:17Z</time>
      </trkpt>
      <trkpt lat="42.9114320" lon="-8.4938360">
        <ele>312.6</ele>
        <time>2022-04-14T10:38:18Z</time>
      </trkpt>
      <trkpt lat="42.9114070" lon="-8.4938080">
        <ele>312.6</ele>
        <time>2022-04-14T10:38:19Z</time>
      </trkpt>
      <trkpt lat="42.9113810" lon="-8.4937810">
        <ele>312.6</ele>
        <time>2022-04-14T10:38:20Z</time>
      </trkpt>
      <trkpt lat="42.9113030" lon="-8.4936980">
        <ele>312.6</ele>
        <time>2022-04-14T10:38:21Z</time>
      </trkpt>
      <trkpt lat="42.9112760" lon="-8.4936690">
        <ele>312.6</ele>
        <time>2022-04-14T10:38:22Z</time>
      </trkpt>
      <trkpt lat="42.9111950" lon="-8.4935810">
        <ele>312.5</ele>
        <time>2022-04-14T10:38:23Z</time>
      </trkpt>
      <trkpt lat="42.9111670" lon="-8.4935510">
        <ele>312.5</ele>
        <time>2022-04-14T10:38:24Z</time>
      </trkpt>
      <trkpt lat="42.9110840" lon="-8.4934610">
        <ele>312.5</ele>
        <time>2022-04-14T10:38:25Z</time>
      </trkpt>
      <trkpt lat="42.9110560" lon="-8.4934310">
        <ele>312.5</ele>
        <time>2022-04-14T10:38:26Z</time>
      </trkpt>
      <trkpt lat="42.9109760" lon="-8.4933420">
        <ele>312.5</ele>
        <time>2022-04-14T10:38:27Z</time>
      </trkpt>
      <trkpt lat="42.9109500" lon="-8.4933120">
        <ele>312.5</ele>
        <time>2022-04-14T10:38:28Z</time>
      </trkpt>
      <trkpt lat="42.9108720" lon="-8.4932230">
        <ele>312.4</ele>
        <time>2022-04-14T10:38:29Z</time>
      </trkpt>
      <trkpt lat="42.9108450" lon="-8.4931930">
        <ele>312.4</ele>
        <time>2022-04-14T10:38:30Z</time>
      </trkpt>
      <trkpt lat="42.9107640" lon="-8.4931020">
        <ele>312.5</ele>
        <time>2022-04-14T10:38:31Z</time>
      </trkpt>
      <trkpt lat="42.9107360" lon="-8.4930700">
        <ele>312.5</ele>
        <time>2022-04-14T10:38:32Z</time>
      </trkpt>
      <trkpt lat="42.9106550" lon="-8.4929770">
        <ele>312.5</ele>
        <time>2022-04-14T10:38:33Z</time>
      </trkpt>
      <trkpt lat="42.9106300" lon="-8.4929480">
        <ele>312.6</ele>
        <time>2022-04-14T10:38:34Z</time>
      </trkpt>
      <trkpt lat="42.9105550" lon="-8.4928590">
        <ele>312.6</ele>
        <time>2022-04-14T10:38:35Z</time>
      </trkpt>
      <trkpt lat="42.9105300" lon="-8.4928300">
        <ele>312.6</ele>
        <time>2022-04-14T10:38:36Z</time>
      </trkpt>
      <trkpt lat="42.9104520" lon="-8.4927430">
        <ele>312.7</ele>
        <time>2022-04-14T10:38:37Z</time>
      </trkpt>
      <trkpt lat="42.9104240" lon="-8.4927150">
        <ele>312.7</ele>
        <time>2022-04-14T10:38:38Z</time>
      </trkpt>
      <trkpt lat="42.9103430" lon="-8.4926310">
        <ele>312.8</ele>
        <time>2022-04-14T10:38:39Z</time>
      </trkpt>
      <trkpt lat="42.9103180" lon="-8.4926020">
        <ele>312.8</ele>
        <time>2022-04-14T10:38:40Z</time>
      </trkpt>
      <trkpt lat="42.9102440" lon="-8.4925140">
        <ele>312.9</ele>
        <time>2022-04-14T10:38:41Z</time>
      </trkpt>
      <trkpt lat="42.9102200" lon="-8.4924830">
        <ele>312.9</ele>
        <time>2022-04-14T10:38:42Z</time>
      </trkpt>
      <trkpt lat="42.9101460" lon="-8.4923930">
        <ele>313.1</ele>
        <time>2022-04-14T10:38:43Z</time>
      </trkpt>
      <trkpt lat="42.9101200" lon="-8.4923650">
        <ele>313.1</ele>
        <time>2022-04-14T10:38:44Z</time>
      </trkpt>
      <trkpt lat="42.9100410" lon="-8.4922840">
        <ele>313.2</ele>
        <time>2022-04-14T10:38:45Z</time>
      </trkpt>
      <trkpt lat="42.9100130" lon="-8.4922580">
        <ele>313.3</ele>
        <time>2022-04-14T10:38:46Z</time>
      </trkpt>
      <trkpt lat="42.9099260" lon="-8.4921930">
        <ele>313.3</ele>
        <time>2022-04-14T10:38:47Z</time>
      </trkpt>
      <trkpt lat="42.9098950" lon="-8.4921800">
        <ele>313.4</ele>
        <time>2022-04-14T10:38:48Z</time>
      </trkpt>
      <trkpt lat="42.9098000" lon="-8.4921610">
        <ele>313.4</ele>
        <time>2022-04-14T10:38:49Z</time>
      </trkpt>
      <trkpt lat="42.9097670" lon="-8.4921670">
        <ele>313.4</ele>
        <time>2022-04-14T10:38:50Z</time>
      </trkpt>
      <trkpt lat="42.9096720" lon="-8.4921940">
        <ele>313.5</ele>
        <time>2022-04-14T10:38:51Z</time>
      </trkpt>
      <trkpt lat="42.9096410" lon="-8.4922100">
        <ele>313.5</ele>
        <time>2022-04-14T10:38:52Z</time>
      </trkpt>
      <trkpt lat="42.9095510" lon="-8.4922700">
        <ele>313.6</ele>
        <time>2022-04-14T10:38:53Z</time>
      </trkpt>
      <trkpt lat="42.9095220" lon="-8.4923000">
        <ele>313.6</ele>
        <time>2022-04-14T10:38:54Z</time>
      </trkpt>
      <trkpt lat="42.9094130" lon="-8.4924250">
        <ele>313.6</ele>
        <time>2022-04-14T10:38:55Z</time>
      </trkpt>
      <trkpt lat="42.9093610" lon="-8.4924920">
        <ele>313.7</ele>
        <time>2022-04-14T10:38:56Z</time>
      </trkpt>
      <trkpt lat="42.9093080" lon="-8.4925580">
        <ele>313.7</ele>
        <time>2022-04-14T10:38:57Z</time>
      </trkpt>
      <trkpt lat="42.9092580" lon="-8.4926240">
        <ele>313.7</ele>
        <time>2022-04-14T10:38:58Z</time>
      </trkpt>
      <trkpt lat="42.9092350" lon="-8.4926550">
        <ele>313.7</ele>
        <time>2022-04-14T10:38:59Z</time>
      </trkpt>
      <trkpt lat="42.9092110" lon="-8.4926870">
        <ele>313.8</ele>
        <time>2022-04-14T10:39:00Z</time>
      </trkpt>
      <trkpt lat="42.9091410" lon="-8.4927830">
        <ele>313.8</ele>
        <time>2022-04-14T10:39:01Z</time>
      </trkpt>
      <trkpt lat="42.9091190" lon="-8.4928150">
        <ele>313.9</ele>
        <time>2022-04-14T10:39:02Z</time>
      </trkpt>
      <trkpt lat="42.9090540" lon="-8.4929150">
        <ele>314.0</ele>
        <time>2022-04-14T10:39:03Z</time>
      </trkpt>
      <trkpt lat="42.9090340" lon="-8.4929500">
        <ele>314.0</ele>
        <time>2022-04-14T10:39:04Z</time>
      </trkpt>
      <trkpt lat="42.9089700" lon="-8.4930530">
        <ele>314.1</ele>
        <time>2022-04-14T10:39:05Z</time>
      </trkpt>
      <trkpt lat="42.9089490" lon="-8.4930850">
        <ele>314.2</ele>
        <time>2022-04-14T10:39:06Z</time>
      </trkpt>
      <trkpt lat="42.9088840" lon="-8.4931790">
        <ele>314.4</ele>
        <time>2022-04-14T10:39:07Z</time>
      </trkpt>
      <trkpt lat="42.9088630" lon="-8.4932110">
        <ele>314.5</ele>
        <time>2022-04-14T10:39:08Z</time>
      </trkpt>
      <trkpt lat="42.9088000" lon="-8.4933010">
        <ele>314.7</ele>
        <time>2022-04-14T10:39:09Z</time>
      </trkpt>
      <trkpt lat="42.9087800" lon="-8.4933300">
        <ele>314.8</ele>
        <time>2022-04-14T10:39:10Z</time>
      </trkpt>
      <trkpt lat="42.9087210" lon="-8.4934170">
        <ele>315.1</ele>
        <time>2022-04-14T10:39:11Z</time>
      </trkpt>
      <trkpt lat="42.9087030" lon="-8.4934480">
        <ele>315.2</ele>
        <time>2022-04-14T10:39:12Z</time>
      </trkpt>
      <trkpt lat="42.9086450" lon="-8.4935370">
        <ele>315.5</ele>
        <time>2022-04-14T10:39:13Z</time>
      </trkpt>
      <trkpt lat="42.9086240" lon="-8.4935630">
        <ele>315.6</ele>
        <time>2022-04-14T10:39:14Z</time>
      </trkpt>
      <trkpt lat="42.9085620" lon="-8.4936450">
        <ele>315.8</ele>
        <time>2022-04-14T10:39:15Z</time>
      </trkpt>
      <trkpt lat="42.9085420" lon="-8.4936730">
        <ele>315.9</ele>
        <time>2022-04-14T10:39:16Z</time>
      </trkpt>
      <trkpt lat="42.9084810" lon="-8.4937560">
        <ele>316.2</ele>
        <time>2022-04-14T10:39:17Z</time>
      </trkpt>
      <trkpt lat="42.9084590" lon="-8.4937840">
        <ele>316.3</ele>
        <time>2022-04-14T10:39:18Z</time>
      </trkpt>
      <trkpt lat="42.9083960" lon="-8.4938670">
        <ele>316.5</ele>
        <time>2022-04-14T10:39:19Z</time>
      </trkpt>
      <trkpt lat="42.9083770" lon="-8.4938940">
        <ele>316.6</ele>
        <time>2022-04-14T10:39:20Z</time>
      </trkpt>
      <trkpt lat="42.9083190" lon="-8.4939830">
        <ele>316.9</ele>
        <time>2022-04-14T10:39:21Z</time>
      </trkpt>
      <trkpt lat="42.9083000" lon="-8.4940160">
        <ele>317.1</ele>
        <time>2022-04-14T10:39:22Z</time>
      </trkpt>
      <trkpt lat="42.9082410" lon="-8.4941090">
        <ele>317.4</ele>
        <time>2022-04-14T10:39:23Z</time>
      </trkpt>
      <trkpt lat="42.9082220" lon="-8.4941360">
        <ele>317.5</ele>
        <time>2022-04-14T10:39:24Z</time>
      </trkpt>
      <trkpt lat="42.9081660" lon="-8.4942160">
        <ele>317.7</ele>
        <time>2022-04-14T10:39:25Z</time>
      </trkpt>
      <trkpt lat="42.9081470" lon="-8.4942400">
        <ele>317.8</ele>
        <time>2022-04-14T10:39:26Z</time>
      </trkpt>
      <trkpt lat="42.9080900" lon="-8.4943170">
        <ele>318.1</ele>
        <time>2022-04-14T10:39:27Z</time>
      </trkpt>
      <trkpt lat="42.9080700" lon="-8.4943450">
        <ele>318.2</ele>
        <time>2022-04-14T10:39:28Z</time>
      </trkpt>
      <trkpt lat="42.9080100" lon="-8.4944280">
        <ele>318.5</ele>
        <time>2022-04-14T10:39:29Z</time>
      </trkpt>
      <trkpt lat="42.9079920" lon="-8.4944560">
        <ele>318.6</ele>
        <time>2022-04-14T10:39:30Z</time>
      </trkpt>
      <trkpt lat="42.9079210" lon="-8.4945800">
        <ele>318.9</ele>
        <time>2022-04-14T10:39:31Z</time>
      </trkpt>
      <trkpt lat="42.9078870" lon="-8.4946470">
        <ele>319.0</ele>
        <time>2022-04-14T10:39:32Z</time>
      </trkpt>
      <trkpt lat="42.9078200" lon="-8.4947820">
        <ele>319.4</ele>
        <time>2022-04-14T10:39:33Z</time>
      </trkpt>
      <trkpt lat="42.9078200" lon="-8.4947820">
        <ele>319.4</ele>
        <time>2022-04-14T10:39:34Z</time>
      </trkpt>
      <trkpt lat="42.9078080" lon="-8.4948210">
        <ele>319.5</ele>
        <time>2022-04-14T10:39:35Z</time>
      </trkpt>
      <trkpt lat="42.9077950" lon="-8.4948610">
        <ele>319.6</ele>
        <time>2022-04-14T10:39:36Z</time>
      </trkpt>
      <trkpt lat="42.9077540" lon="-8.4949730">
        <ele>319.8</ele>
        <time>2022-04-14T10:39:37Z</time>
      </trkpt>
      <trkpt lat="42.9077380" lon="-8.4950070">
        <ele>319.9</ele>
        <time>2022-04-14T10:39:38Z</time>
      </trkpt>
      <trkpt lat="42.9076800" lon="-8.4951020">
        <ele>320.0</ele>
        <time>2022-04-14T10:39:39Z</time>
      </trkpt>
      <trkpt lat="42.9076560" lon="-8.4951300">
        <ele>320.1</ele>
        <time>2022-04-14T10:39:40Z</time>
      </trkpt>
      <trkpt lat="42.9075790" lon="-8.4952140">
        <ele>320.2</ele>
        <time>2022-04-14T10:39:41Z</time>
      </trkpt>
      <trkpt lat="42.9075510" lon="-8.4952450">
        <ele>320.2</ele>
        <time>2022-04-14T10:39:42Z</time>
      </trkpt>
      <trkpt lat="42.9074680" lon="-8.4953340">
        <ele>320.3</ele>
        <time>2022-04-14T10:39:43Z</time>
      </trkpt>
      <trkpt lat="42.9074400" lon="-8.4953630">
        <ele>320.3</ele>
        <time>2022-04-14T10:39:44Z</time>
      </trkpt>
      <trkpt lat="42.9073630" lon="-8.4954510">
        <ele>320.3</ele>
        <time>2022-04-14T10:39:45Z</time>
      </trkpt>
      <trkpt lat="42.9073410" lon="-8.4954820">
        <ele>320.2</ele>
        <time>2022-04-14T10:39:46Z</time>
      </trkpt>
      <trkpt lat="42.9072750" lon="-8.4955800">
        <ele>320.1</ele>
        <time>2022-04-14T10:39:47Z</time>
      </trkpt>
      <trkpt lat="42.9072520" lon="-8.4956160">
        <ele>320.1</ele>
        <time>2022-04-14T10:39:48Z</time>
      </trkpt>
      <trkpt lat="42.9071830" lon="-8.4957220">
        <ele>320.0</ele>
        <time>2022-04-14T10:39:49Z</time>
      </trkpt>
      <trkpt lat="42.9071600" lon="-8.4957560">
        <ele>320.0</ele>
        <time>2022-04-14T10:39:50Z</time>
      </trkpt>
      <trkpt lat="42.9070890" lon="-8.4958630">
        <ele>319.8</ele>
        <time>2022-04-14T10:39:51Z</time>
      </trkpt>
      <trkpt lat="42.9070650" lon="-8.4959010">
        <ele>319.8</ele>
        <time>2022-04-14T10:39:52Z</time>
      </trkpt>
      <trkpt lat="42.9069920" lon="-8.4960110">
        <ele>319.7</ele>
        <time>2022-04-14T10:39:53Z</time>
      </trkpt>
      <trkpt lat="42.9069670" lon="-8.4960470">
        <ele>319.6</ele>
        <time>2022-04-14T10:39:54Z</time>
      </trkpt>
      <trkpt lat="42.9068920" lon="-8.4961520">
        <ele>319.5</ele>
        <time>2022-04-14T10:39:55Z</time>
      </trkpt>
      <trkpt lat="42.9068650" lon="-8.4961860">
        <ele>319.4</ele>
        <time>2022-04-14T10:39:56Z</time>
      </trkpt>
      <trkpt lat="42.9067860" lon="-8.4962920">
        <ele>319.2</ele>
        <time>2022-04-14T10:39:57Z</time>
      </trkpt>
      <trkpt lat="42.9067600" lon="-8.4963290">
        <ele>319.2</ele>
        <time>2022-04-14T10:39:58Z</time>
      </trkpt>
      <trkpt lat="42.9066820" lon="-8.4964390">
        <ele>319.0</ele>
        <time>2022-04-14T10:39:59Z</time>
      </trkpt>
      <trkpt lat="42.9066560" lon="-8.4964760">
        <ele>318.9</ele>
        <time>2022-04-14T10:40:00Z</time>
      </trkpt>
      <trkpt lat="42.9065760" lon="-8.4965880">
        <ele>318.6</ele>
        <time>2022-04-14T10:40:01Z</time>
      </trkpt>
      <trkpt lat="42.9065480" lon="-8.4966260">
        <ele>318.5</ele>
        <time>2022-04-14T10:40:02Z</time>
      </trkpt>
      <trkpt lat="42.9064680" lon="-8.4967390">
        <ele>318.2</ele>
        <time>2022-04-14T10:40:03Z</time>
      </trkpt>
      <trkpt lat="42.9064430" lon="-8.4967770">
        <ele>318.1</ele>
        <time>2022-04-14T10:40:04Z</time>
      </trkpt>
      <trkpt lat="42.9063650" lon="-8.4968910">
        <ele>317.8</ele>
        <time>2022-04-14T10:40:05Z</time>
      </trkpt>
      <trkpt lat="42.9063370" lon="-8.4969300">
        <ele>317.6</ele>
        <time>2022-04-14T10:40:06Z</time>
      </trkpt>
      <trkpt lat="42.9062550" lon="-8.4970470">
        <ele>317.4</ele>
        <time>2022-04-14T10:40:07Z</time>
      </trkpt>
      <trkpt lat="42.9062260" lon="-8.4970880">
        <ele>317.3</ele>
        <time>2022-04-14T10:40:08Z</time>
      </trkpt>
      <trkpt lat="42.9061180" lon="-8.4972560">
        <ele>316.9</ele>
        <time>2022-04-14T10:40:09Z</time>
      </trkpt>
      <trkpt lat="42.9060660" lon="-8.4973420">
        <ele>316.8</ele>
        <time>2022-04-14T10:40:10Z</time>
      </trkpt>
      <trkpt lat="42.9059620" lon="-8.4975140">
        <ele>316.6</ele>
        <time>2022-04-14T10:40:11Z</time>
      </trkpt>
      <trkpt lat="42.9059620" lon="-8.4975140">
        <ele>316.6</ele>
        <time>2022-04-14T10:40:12Z</time>
      </trkpt>
      <trkpt lat="42.9059360" lon="-8.4975550">
        <ele>316.5</ele>
        <time>2022-04-14T10:40:13Z</time>
      </trkpt>
      <trkpt lat="42.9059090" lon="-8.4975970">
        <ele>316.5</ele>
        <time>2022-04-14T10:40:14Z</time>
      </trkpt>
      <trkpt lat="42.9058350" lon="-8.4977210">
        <ele>316.4</ele>
        <time>2022-04-14T10:40:15Z</time>
      </trkpt>
      <trkpt lat="42.9058130" lon="-8.4977640">
        <ele>316.4</ele>
        <time>2022-04-14T10:40:16Z</time>
      </trkpt>
      <trkpt lat="42.9057570" lon="-8.4978980">
        <ele>316.4</ele>
        <time>2022-04-14T10:40:17Z</time>
      </trkpt>
      <trkpt lat="42.9057440" lon="-8.4979490">
        <ele>316.5</ele>
        <time>2022-04-14T10:40:18Z</time>
      </trkpt>
      <trkpt lat="42.9056980" lon="-8.4980920">
        <ele>316.6</ele>
        <time>2022-04-14T10:40:19Z</time>
      </trkpt>
      <trkpt lat="42.9056780" lon="-8.4981350">
        <ele>316.7</ele>
        <time>2022-04-14T10:40:20Z</time>
      </trkpt>
      <trkpt lat="42.9056080" lon="-8.4982500">
        <ele>316.7</ele>
        <time>2022-04-14T10:40:21Z</time>
      </trkpt>
      <trkpt lat="42.9055790" lon="-8.4982780">
        <ele>316.7</ele>
        <time>2022-04-14T10:40:22Z</time>
      </trkpt>
      <trkpt lat="42.9054880" lon="-8.4983580">
        <ele>316.7</ele>
        <time>2022-04-14T10:40:23Z</time>
      </trkpt>
      <trkpt lat="42.9054570" lon="-8.4983800">
        <ele>316.7</ele>
        <time>2022-04-14T10:40:24Z</time>
      </trkpt>
      <trkpt lat="42.9053690" lon="-8.4984510">
        <ele>316.6</ele>
        <time>2022-04-14T10:40:25Z</time>
      </trkpt>
      <trkpt lat="42.9053450" lon="-8.4984780">
        <ele>316.6</ele>
        <time>2022-04-14T10:40:26Z</time>
      </trkpt>
      <trkpt lat="42.9052700" lon="-8.4985670">
        <ele>316.5</ele>
        <time>2022-04-14T10:40:27Z</time>
      </trkpt>
      <trkpt lat="42.9052440" lon="-8.4986040">
        <ele>316.5</ele>
        <time>2022-04-14T10:40:28Z</time>
      </trkpt>
      <trkpt lat="42.9051650" lon="-8.4987170">
        <ele>316.4</ele>
        <time>2022-04-14T10:40:29Z</time>
      </trkpt>
      <trkpt lat="42.9051380" lon="-8.4987570">
        <ele>316.3</ele>
        <time>2022-04-14T10:40:30Z</time>
      </trkpt>
      <trkpt lat="42.9050550" lon="-8.4988720">
        <ele>316.2</ele>
        <time>2022-04-14T10:40:31Z</time>
      </trkpt>
      <trkpt lat="42.9050260" lon="-8.4989070">
        <ele>316.2</ele>
        <time>2022-04-14T10:40:32Z</time>
      </trkpt>
      <trkpt lat="42.9049410" lon="-8.4990140">
        <ele>316.1</ele>
        <time>2022-04-14T10:40:33Z</time>
      </trkpt>
      <trkpt lat="42.9049120" lon="-8.4990530">
        <ele>316.0</ele>
        <time>2022-04-14T10:40:34Z</time>
      </trkpt>
      <trkpt lat="42.9048270" lon="-8.4991680">
        <ele>315.9</ele>
        <time>2022-04-14T10:40:35Z</time>
      </trkpt>
      <trkpt lat="42.9048010" lon="-8.4992080">
        <ele>315.8</ele>
        <time>2022-04-14T10:40:36Z</time>
      </trkpt>
      <trkpt lat="42.9047190" lon="-8.4993250">
        <ele>315.7</ele>
        <time>2022-04-14T10:40:37Z</time>
      </trkpt>
      <trkpt lat="42.9046900" lon="-8.4993640">
        <ele>315.6</ele>
        <time>2022-04-14T10:40:38Z</time>
      </trkpt>
      <trkpt lat="42.9045930" lon="-8.4994960">
        <ele>315.4</ele>
        <time>2022-04-14T10:40:39Z</time>
      </trkpt>
      <trkpt lat="42.9045530" lon="-8.4995500">
        <ele>315.3</ele>
        <time>2022-04-14T10:40:40Z</time>
      </trkpt>
      <trkpt lat="42.9045140" lon="-8.4996050">
        <ele>315.2</ele>
        <time>2022-04-14T10:40:41Z</time>
      </trkpt>
      <trkpt lat="42.9043950" lon="-8.4997680">
        <ele>314.8</ele>
        <time>2022-04-14T10:40:42Z</time>
      </trkpt>
      <trkpt lat="42.9043280" lon="-8.4998520">
        <ele>314.6</ele>
        <time>2022-04-14T10:40:43Z</time>
      </trkpt>
      <trkpt lat="42.9042680" lon="-8.4999440">
        <ele>314.3</ele>
        <time>2022-04-14T10:40:44Z</time>
      </trkpt>
      <trkpt lat="42.9042390" lon="-8.4999880">
        <ele>314.1</ele>
        <time>2022-04-14T10:40:45Z</time>
      </trkpt>
      <trkpt lat="42.9042090" lon="-8.5000330">
        <ele>313.9</ele>
        <time>2022-04-14T10:40:46Z</time>
      </trkpt>
      <trkpt lat="42.9041050" lon="-8.5001890">
        <ele>313.4</ele>
        <time>2022-04-14T10:40:47Z</time>
      </trkpt>
      <trkpt lat="42.9040590" lon="-8.5002570">
        <ele>313.1</ele>
        <time>2022-04-14T10:40:48Z</time>
      </trkpt>
      <trkpt lat="42.9039670" lon="-8.5003930">
        <ele>312.5</ele>
        <time>2022-04-14T10:40:49Z</time>
      </trkpt>
      <trkpt lat="42.9039010" lon="-8.5004860">
        <ele>312.0</ele>
        <time>2022-04-14T10:40:50Z</time>
      </trkpt>
      <trkpt lat="42.9038340" lon="-8.5005780">
        <ele>311.6</ele>
        <time>2022-04-14T10:40:51Z</time>
      </trkpt>
      <trkpt lat="42.9037620" lon="-8.5006700">
        <ele>311.1</ele>
        <time>2022-04-14T10:40:52Z</time>
      </trkpt>
      <trkpt lat="42.9036990" lon="-8.5007740">
        <ele>310.7</ele>
        <time>2022-04-14T10:40:53Z</time>
      </trkpt>
      <trkpt lat="42.9036330" lon="-8.5008810">
        <ele>310.2</ele>
        <time>2022-04-14T10:40:54Z</time>
      </trkpt>
      <trkpt lat="42.9035710" lon="-8.5009830">
        <ele>309.8</ele>
        <time>2022-04-14T10:40:55Z</time>
      </trkpt>
      <trkpt lat="42.9035050" lon="-8.5010710">
        <ele>309.3</ele>
        <time>2022-04-14T10:40:56Z</time>
      </trkpt>
      <trkpt lat="42.9034370" lon="-8.5011690">
        <ele>308.9</ele>
        <time>2022-04-14T10:40:57Z</time>
      </trkpt>
      <trkpt lat="42.9033690" lon="-8.5012680">
        <ele>308.5</ele>
        <time>2022-04-14T10:40:58Z</time>
      </trkpt>
      <trkpt lat="42.9032340" lon="-8.5014600">
        <ele>307.9</ele>
        <time>2022-04-14T10:40:59Z</time>
      </trkpt>
      <trkpt lat="42.9032340" lon="-8.5014600">
        <ele>307.9</ele>
        <time>2022-04-14T10:41:00Z</time>
      </trkpt>
      <trkpt lat="42.9031770" lon="-8.5015660">
        <ele>307.8</ele>
        <time>2022-04-14T10:41:01Z</time>
      </trkpt>
      <trkpt lat="42.9031210" lon="-8.5016750">
        <ele>307.7</ele>
        <time>2022-04-14T10:41:02Z</time>
      </trkpt>
      <trkpt lat="42.9030900" lon="-8.5017530">
        <ele>307.7</ele>
        <time>2022-04-14T10:41:03Z</time>
      </trkpt>
      <trkpt lat="42.9030590" lon="-8.5018310">
        <ele>307.7</ele>
        <time>2022-04-14T10:41:04Z</time>
      </trkpt>
      <trkpt lat="42.9029980" lon="-8.5019870">
        <ele>308.0</ele>
        <time>2022-04-14T10:41:05Z</time>
      </trkpt>
      <trkpt lat="42.9029250" lon="-8.5020470">
        <ele>308.1</ele>
        <time>2022-04-14T10:41:06Z</time>
      </trkpt>
      <trkpt lat="42.9028510" lon="-8.5021070">
        <ele>308.0</ele>
        <time>2022-04-14T10:41:07Z</time>
      </trkpt>
      <trkpt lat="42.9026840" lon="-8.5022430">
        <ele>307.3</ele>
        <time>2022-04-14T10:41:08Z</time>
      </trkpt>
      <trkpt lat="42.9026630" lon="-8.5022590">
        <ele>307.2</ele>
        <time>2022-04-14T10:41:09Z</time>
      </trkpt>
      <trkpt lat="42.9026220" lon="-8.5022910">
        <ele>307.0</ele>
        <time>2022-04-14T10:41:10Z</time>
      </trkpt>
      <trkpt lat="42.9025440" lon="-8.5023710">
        <ele>306.6</ele>
        <time>2022-04-14T10:41:11Z</time>
      </trkpt>
      <trkpt lat="42.9024730" lon="-8.5024590">
        <ele>306.1</ele>
        <time>2022-04-14T10:41:12Z</time>
      </trkpt>
      <trkpt lat="42.9023970" lon="-8.5025520">
        <ele>305.5</ele>
        <time>2022-04-14T10:41:13Z</time>
      </trkpt>
      <trkpt lat="42.9023230" lon="-8.5026400">
        <ele>304.9</ele>
        <time>2022-04-14T10:41:14Z</time>
      </trkpt>
      <trkpt lat="42.9022430" lon="-8.5027320">
        <ele>304.2</ele>
        <time>2022-04-14T10:41:15Z</time>
      </trkpt>
      <trkpt lat="42.9021650" lon="-8.5028090">
        <ele>303.5</ele>
        <time>2022-04-14T10:41:16Z</time>
      </trkpt>
      <trkpt lat="42.9020810" lon="-8.5028900">
        <ele>302.8</ele>
        <time>2022-04-14T10:41:17Z</time>
      </trkpt>
      <trkpt lat="42.9019950" lon="-8.5029740">
        <ele>302.1</ele>
        <time>2022-04-14T10:41:18Z</time>
      </trkpt>
      <trkpt lat="42.9019130" lon="-8.5030530">
        <ele>301.4</ele>
        <time>2022-04-14T10:41:19Z</time>
      </trkpt>
      <trkpt lat="42.9018260" lon="-8.5031400">
        <ele>300.6</ele>
        <time>2022-04-14T10:41:20Z</time>
      </trkpt>
      <trkpt lat="42.9017400" lon="-8.5032250">
        <ele>299.9</ele>
        <time>2022-04-14T10:41:21Z</time>
      </trkpt>
      <trkpt lat="42.9016510" lon="-8.5032990">
        <ele>299.3</ele>
        <time>2022-04-14T10:41:22Z</time>
      </trkpt>
      <trkpt lat="42.9015590" lon="-8.5033740">
        <ele>298.6</ele>
        <time>2022-04-14T10:41:23Z</time>
      </trkpt>
      <trkpt lat="42.9014710" lon="-8.5034330">
        <ele>297.9</ele>
        <time>2022-04-14T10:41:24Z</time>
      </trkpt>
      <trkpt lat="42.9013790" lon="-8.5034900">
        <ele>297.3</ele>
        <time>2022-04-14T10:41:25Z</time>
      </trkpt>
      <trkpt lat="42.9012890" lon="-8.5035490">
        <ele>296.6</ele>
        <time>2022-04-14T10:41:26Z</time>
      </trkpt>
      <trkpt lat="42.9010890" lon="-8.5036710">
        <ele>295.3</ele>
        <time>2022-04-14T10:41:27Z</time>
      </trkpt>
      <trkpt lat="42.9010890" lon="-8.5036710">
        <ele>295.3</ele>
        <time>2022-04-14T10:41:28Z</time>
      </trkpt>
      <trkpt lat="42.9009890" lon="-8.5037220">
        <ele>294.8</ele>
        <time>2022-04-14T10:41:29Z</time>
      </trkpt>
      <trkpt lat="42.9008810" lon="-8.5037740">
        <ele>294.7</ele>
        <time>2022-04-14T10:41:30Z</time>
      </trkpt>
      <trkpt lat="42.9007840" lon="-8.5038130">
        <ele>294.2</ele>
        <time>2022-04-14T10:41:31Z</time>
      </trkpt>
      <trkpt lat="42.9006800" lon="-8.5038550">
        <ele>293.6</ele>
        <time>2022-04-14T10:41:32Z</time>
      </trkpt>
      <trkpt lat="42.9005790" lon="-8.5038970">
        <ele>292.9</ele>
        <time>2022-04-14T10:41:33Z</time>
      </trkpt>
      <trkpt lat="42.9004770" lon="-8.5039340">
        <ele>292.3</ele>
        <time>2022-04-14T10:41:34Z</time>
      </trkpt>
      <trkpt lat="42.9003700" lon="-8.5039700">
        <ele>291.7</ele>
        <time>2022-04-14T10:41:35Z</time>
      </trkpt>
      <trkpt lat="42.9002680" lon="-8.5040000">
        <ele>291.2</ele>
        <time>2022-04-14T10:41:36Z</time>
      </trkpt>
      <trkpt lat="42.9001610" lon="-8.5040290">
        <ele>290.8</ele>
        <time>2022-04-14T10:41:37Z</time>
      </trkpt>
      <trkpt lat="42.9000540" lon="-8.5040570">
        <ele>290.5</ele>
        <time>2022-04-14T10:41:38Z</time>
      </trkpt>
      <trkpt lat="42.8999900" lon="-8.5040800">
        <ele>290.4</ele>
        <time>2022-04-14T10:41:39Z</time>
      </trkpt>
      <trkpt lat="42.8999270" lon="-8.5041030">
        <ele>290.2</ele>
        <time>2022-04-14T10:41:40Z</time>
      </trkpt>
      <trkpt lat="42.8998640" lon="-8.5041250">
        <ele>290.1</ele>
        <time>2022-04-14T10:41:41Z</time>
      </trkpt>
      <trkpt lat="42.8998000" lon="-8.5041480">
        <ele>289.9</ele>
        <time>2022-04-14T10:41:42Z</time>
      </trkpt>
      <trkpt lat="42.8994970" lon="-8.5042650">
        <ele>289.3</ele>
        <time>2022-04-14T10:41:43Z</time>
      </trkpt>
      <trkpt lat="42.8994470" lon="-8.5042910">
        <ele>289.2</ele>
        <time>2022-04-14T10:41:44Z</time>
      </trkpt>
      <trkpt lat="42.8993470" lon="-8.5043430">
        <ele>289.0</ele>
        <time>2022-04-14T10:41:45Z</time>
      </trkpt>
      <trkpt lat="42.8991500" lon="-8.5044470">
        <ele>288.7</ele>
        <time>2022-04-14T10:41:46Z</time>
      </trkpt>
      <trkpt lat="42.8991500" lon="-8.5044470">
        <ele>288.7</ele>
        <time>2022-04-14T10:41:47Z</time>
      </trkpt>
      <trkpt lat="42.8990540" lon="-8.5044980">
        <ele>288.6</ele>
        <time>2022-04-14T10:41:48Z</time>
      </trkpt>
      <trkpt lat="42.8989680" lon="-8.5045510">
        <ele>288.4</ele>
        <time>2022-04-14T10:41:49Z</time>
      </trkpt>
      <trkpt lat="42.8988830" lon="-8.5046010">
        <ele>288.3</ele>
        <time>2022-04-14T10:41:50Z</time>
      </trkpt>
      <trkpt lat="42.8988010" lon="-8.5046630">
        <ele>288.2</ele>
        <time>2022-04-14T10:41:51Z</time>
      </trkpt>
      <trkpt lat="42.8987120" lon="-8.5047140">
        <ele>288.0</ele>
        <time>2022-04-14T10:41:52Z</time>
      </trkpt>
      <trkpt lat="42.8986210" lon="-8.5047630">
        <ele>287.8</ele>
        <time>2022-04-14T10:41:53Z</time>
      </trkpt>
      <trkpt lat="42.8985330" lon="-8.5048050">
        <ele>287.7</ele>
        <time>2022-04-14T10:41:54Z</time>
      </trkpt>
      <trkpt lat="42.8984430" lon="-8.5048520">
        <ele>287.6</ele>
        <time>2022-04-14T10:41:55Z</time>
      </trkpt>
      <trkpt lat="42.8983550" lon="-8.5049010">
        <ele>287.4</ele>
        <time>2022-04-14T10:41:56Z</time>
      </trkpt>
      <trkpt lat="42.8982660" lon="-8.5049460">
        <ele>287.3</ele>
        <time>2022-04-14T10:41:57Z</time>
      </trkpt>
      <trkpt lat="42.8981770" lon="-8.5049990">
        <ele>287.2</ele>
        <time>2022-04-14T10:41:58Z</time>
      </trkpt>
      <trkpt lat="42.8980890" lon="-8.5050490">
        <ele>287.0</ele>
        <time>2022-04-14T10:41:59Z</time>
      </trkpt>
      <trkpt lat="42.8979980" lon="-8.5051040">
        <ele>286.8</ele>
        <time>2022-04-14T10:42:00Z</time>
      </trkpt>
      <trkpt lat="42.8979040" lon="-8.5051630">
        <ele>286.7</ele>
        <time>2022-04-14T10:42:01Z</time>
      </trkpt>
      <trkpt lat="42.8978140" lon="-8.5052160">
        <ele>286.5</ele>
        <time>2022-04-14T10:42:02Z</time>
      </trkpt>
      <trkpt lat="42.8977290" lon="-8.5052610">
        <ele>286.3</ele>
        <time>2022-04-14T10:42:03Z</time>
      </trkpt>
      <trkpt lat="42.8976450" lon="-8.5053170">
        <ele>286.2</ele>
        <time>2022-04-14T10:42:04Z</time>
      </trkpt>
      <trkpt lat="42.8974780" lon="-8.5054300">
        <ele>285.9</ele>
        <time>2022-04-14T10:42:05Z</time>
      </trkpt>
      <trkpt lat="42.8974780" lon="-8.5054300">
        <ele>285.9</ele>
        <time>2022-04-14T10:42:06Z</time>
      </trkpt>
      <trkpt lat="42.8973930" lon="-8.5054910">
        <ele>285.7</ele>
        <time>2022-04-14T10:42:07Z</time>
      </trkpt>
      <trkpt lat="42.8973110" lon="-8.5055500">
        <ele>285.6</ele>
        <time>2022-04-14T10:42:08Z</time>
      </trkpt>
      <trkpt lat="42.8972280" lon="-8.5056130">
        <ele>285.4</ele>
        <time>2022-04-14T10:42:09Z</time>
      </trkpt>
      <trkpt lat="42.8971480" lon="-8.5056720">
        <ele>285.3</ele>
        <time>2022-04-14T10:42:10Z</time>
      </trkpt>
      <trkpt lat="42.8970660" lon="-8.5057300">
        <ele>285.2</ele>
        <time>2022-04-14T10:42:11Z</time>
      </trkpt>
      <trkpt lat="42.8970070" lon="-8.5057750">
        <ele>285.1</ele>
        <time>2022-04-14T10:42:12Z</time>
      </trkpt>
      <trkpt lat="42.8969490" lon="-8.5058200">
        <ele>285.0</ele>
        <time>2022-04-14T10:42:13Z</time>
      </trkpt>
      <trkpt lat="42.8968320" lon="-8.5059100">
        <ele>284.9</ele>
        <time>2022-04-14T10:42:14Z</time>
      </trkpt>
      <trkpt lat="42.8967530" lon="-8.5059800">
        <ele>284.7</ele>
        <time>2022-04-14T10:42:15Z</time>
      </trkpt>
      <trkpt lat="42.8966770" lon="-8.5060500">
        <ele>284.6</ele>
        <time>2022-04-14T10:42:16Z</time>
      </trkpt>
      <trkpt lat="42.8966390" lon="-8.5060820">
        <ele>284.6</ele>
        <time>2022-04-14T10:42:17Z</time>
      </trkpt>
      <trkpt lat="42.8966000" lon="-8.5061140">
        <ele>284.5</ele>
        <time>2022-04-14T10:42:18Z</time>
      </trkpt>
      <trkpt lat="42.8964870" lon="-8.5062080">
        <ele>284.3</ele>
        <time>2022-04-14T10:42:19Z</time>
      </trkpt>
      <trkpt lat="42.8964510" lon="-8.5062380">
        <ele>284.3</ele>
        <time>2022-04-14T10:42:20Z</time>
      </trkpt>
      <trkpt lat="42.8963430" lon="-8.5063280">
        <ele>284.1</ele>
        <time>2022-04-14T10:42:21Z</time>
      </trkpt>
      <trkpt lat="42.8963090" lon="-8.5063580">
        <ele>284.0</ele>
        <time>2022-04-14T10:42:22Z</time>
      </trkpt>
      <trkpt lat="42.8962080" lon="-8.5064490">
        <ele>283.8</ele>
        <time>2022-04-14T10:42:23Z</time>
      </trkpt>
      <trkpt lat="42.8961760" lon="-8.5064780">
        <ele>283.7</ele>
        <time>2022-04-14T10:42:24Z</time>
      </trkpt>
      <trkpt lat="42.8960850" lon="-8.5065470">
        <ele>283.6</ele>
        <time>2022-04-14T10:42:25Z</time>
      </trkpt>
      <trkpt lat="42.8960570" lon="-8.5065560">
        <ele>283.5</ele>
        <time>2022-04-14T10:42:26Z</time>
      </trkpt>
      <trkpt lat="42.8959780" lon="-8.5065470">
        <ele>283.0</ele>
        <time>2022-04-14T10:42:27Z</time>
      </trkpt>
      <trkpt lat="42.8959520" lon="-8.5065200">
        <ele>282.9</ele>
        <time>2022-04-14T10:42:28Z</time>
      </trkpt>
      <trkpt lat="42.8959270" lon="-8.5064920">
        <ele>282.8</ele>
        <time>2022-04-14T10:42:29Z</time>
      </trkpt>
      <trkpt lat="42.8959290" lon="-8.5064610">
        <ele>282.7</ele>
        <time>2022-04-14T10:42:30Z</time>
      </trkpt>
      <trkpt lat="42.8959310" lon="-8.5064310">
        <ele>282.7</ele>
        <time>2022-04-14T10:42:31Z</time>
      </trkpt>
      <trkpt lat="42.8959330" lon="-8.5064000">
        <ele>282.6</ele>
        <time>2022-04-14T10:42:32Z</time>
      </trkpt>
      <trkpt lat="42.8959440" lon="-8.5062660">
        <ele>282.4</ele>
        <time>2022-04-14T10:42:33Z</time>
      </trkpt>
      <trkpt lat="42.8959480" lon="-8.5062240">
        <ele>282.4</ele>
        <time>2022-04-14T10:42:34Z</time>
      </trkpt>
      <trkpt lat="42.8959580" lon="-8.5060970">
        <ele>282.3</ele>
        <time>2022-04-14T10:42:35Z</time>
      </trkpt>
      <trkpt lat="42.8959590" lon="-8.5060530">
        <ele>282.2</ele>
        <time>2022-04-14T10:42:36Z</time>
      </trkpt>
      <trkpt lat="42.8959530" lon="-8.5059300">
        <ele>282.1</ele>
        <time>2022-04-14T10:42:37Z</time>
      </trkpt>
      <trkpt lat="42.8959440" lon="-8.5058930">
        <ele>282.1</ele>
        <time>2022-04-14T10:42:38Z</time>
      </trkpt>
      <trkpt lat="42.8959060" lon="-8.5057950">
        <ele>282.0</ele>
        <time>2022-04-14T10:42:39Z</time>
      </trkpt>
      <trkpt lat="42.8958830" lon="-8.5057710">
        <ele>282.0</ele>
        <time>2022-04-14T10:42:40Z</time>
      </trkpt>
      <trkpt lat="42.8958000" lon="-8.5056760">
        <ele>281.9</ele>
        <time>2022-04-14T10:42:41Z</time>
      </trkpt>
      <trkpt lat="42.8957610" lon="-8.5056300">
        <ele>281.9</ele>
        <time>2022-04-14T10:42:42Z</time>
      </trkpt>
      <trkpt lat="42.8957270" lon="-8.5054900">
        <ele>281.8</ele>
        <time>2022-04-14T10:42:43Z</time>
      </trkpt>
      <trkpt lat="42.8957270" lon="-8.5054900">
        <ele>281.8</ele>
        <time>2022-04-14T10:42:44Z</time>
      </trkpt>
      <trkpt lat="42.8957230" lon="-8.5054500">
        <ele>281.8</ele>
        <time>2022-04-14T10:42:45Z</time>
      </trkpt>
      <trkpt lat="42.8957190" lon="-8.5054090">
        <ele>281.7</ele>
        <time>2022-04-14T10:42:46Z</time>
      </trkpt>
      <trkpt lat="42.8957110" lon="-8.5052920">
        <ele>281.7</ele>
        <time>2022-04-14T10:42:47Z</time>
      </trkpt>
      <trkpt lat="42.8957100" lon="-8.5052570">
        <ele>281.7</ele>
        <time>2022-04-14T10:42:48Z</time>
      </trkpt>
      <trkpt lat="42.8957090" lon="-8.5052210">
        <ele>281.7</ele>
        <time>2022-04-14T10:42:49Z</time>
      </trkpt>
      <trkpt lat="42.8957070" lon="-8.5051850">
        <ele>281.7</ele>
        <time>2022-04-14T10:42:50Z</time>
      </trkpt>
      <trkpt lat="42.8956940" lon="-8.5049910">
        <ele>281.8</ele>
        <time>2022-04-14T10:42:51Z</time>
      </trkpt>
      <trkpt lat="42.8956840" lon="-8.5049410">
        <ele>281.8</ele>
        <time>2022-04-14T10:42:52Z</time>
      </trkpt>
      <trkpt lat="42.8956750" lon="-8.5048900">
        <ele>282.0</ele>
        <time>2022-04-14T10:42:53Z</time>
      </trkpt>
      <trkpt lat="42.8956470" lon="-8.5047380">
        <ele>282.4</ele>
        <time>2022-04-14T10:42:54Z</time>
      </trkpt>
      <trkpt lat="42.8956470" lon="-8.5047380">
        <ele>282.4</ele>
        <time>2022-04-14T10:42:55Z</time>
      </trkpt>
      <trkpt lat="42.8956480" lon="-8.5046710">
        <ele>282.5</ele>
        <time>2022-04-14T10:42:56Z</time>
      </trkpt>
      <trkpt lat="42.8956500" lon="-8.5046030">
        <ele>282.7</ele>
        <time>2022-04-14T10:42:57Z</time>
      </trkpt>
      <trkpt lat="42.8956450" lon="-8.5045680">
        <ele>282.8</ele>
        <time>2022-04-14T10:42:58Z</time>
      </trkpt>
      <trkpt lat="42.8956390" lon="-8.5045340">
        <ele>282.9</ele>
        <time>2022-04-14T10:42:59Z</time>
      </trkpt>
      <trkpt lat="42.8956220" lon="-8.5044320">
        <ele>283.2</ele>
        <time>2022-04-14T10:43:00Z</time>
      </trkpt>
      <trkpt lat="42.8956140" lon="-8.5043990">
        <ele>283.3</ele>
        <time>2022-04-14T10:43:01Z</time>
      </trkpt>
      <trkpt lat="42.8956070" lon="-8.5043670">
        <ele>283.3</ele>
        <time>2022-04-14T10:43:02Z</time>
      </trkpt>
      <trkpt lat="42.8956000" lon="-8.5043350">
        <ele>283.3</ele>
        <time>2022-04-14T10:43:03Z</time>
      </trkpt>
      <trkpt lat="42.8955920" lon="-8.5043030">
        <ele>283.3</ele>
        <time>2022-04-14T10:43:04Z</time>
      </trkpt>
      <trkpt lat="42.8955850" lon="-8.5042700">
        <ele>283.4</ele>
        <time>2022-04-14T10:43:05Z</time>
      </trkpt>
      <trkpt lat="42.8955780" lon="-8.5042380">
        <ele>283.6</ele>
        <time>2022-04-14T10:43:06Z</time>
      </trkpt>
      <trkpt lat="42.8955700" lon="-8.5042060">
        <ele>283.8</ele>
        <time>2022-04-14T10:43:07Z</time>
      </trkpt>
      <trkpt lat="42.8955630" lon="-8.5041730">
        <ele>284.0</ele>
        <time>2022-04-14T10:43:08Z</time>
      </trkpt>
      <trkpt lat="42.8955560" lon="-8.5041410">
        <ele>284.2</ele>
        <time>2022-04-14T10:43:09Z</time>
      </trkpt>
      <trkpt lat="42.8955490" lon="-8.5041090">
        <ele>284.4</ele>
        <time>2022-04-14T10:43:10Z</time>
      </trkpt>
      <trkpt lat="42.8955410" lon="-8.5040760">
        <ele>284.6</ele>
        <time>2022-04-14T10:43:11Z</time>
      </trkpt>
      <trkpt lat="42.8955340" lon="-8.5040440">
        <ele>284.8</ele>
        <time>2022-04-14T10:43:12Z</time>
      </trkpt>
      <trkpt lat="42.8955270" lon="-8.5040120">
        <ele>284.9</ele>
        <time>2022-04-14T10:43:13Z</time>
      </trkpt>
      <trkpt lat="42.8954010" lon="-8.5035450">
        <ele>287.3</ele>
        <time>2022-04-14T10:43:14Z</time>
      </trkpt>
      <trkpt lat="42.8953770" lon="-8.5035310">
        <ele>287.6</ele>
        <time>2022-04-14T10:43:15Z</time>
      </trkpt>
      <trkpt lat="42.8953120" lon="-8.5034930">
        <ele>288.2</ele>
        <time>2022-04-14T10:43:16Z</time>
      </trkpt>
      <trkpt lat="42.8952950" lon="-8.5034830">
        <ele>288.4</ele>
        <time>2022-04-14T10:43:17Z</time>
      </trkpt>
      <trkpt lat="42.8952780" lon="-8.5034730">
        <ele>288.6</ele>
        <time>2022-04-14T10:43:18Z</time>
      </trkpt>
      <trkpt lat="42.8952090" lon="-8.5034390">
        <ele>289.2</ele>
        <time>2022-04-14T10:43:19Z</time>
      </trkpt>
      <trkpt lat="42.8951910" lon="-8.5034340">
        <ele>289.4</ele>
        <time>2022-04-14T10:43:20Z</time>
      </trkpt>
      <trkpt lat="42.8951730" lon="-8.5034300">
        <ele>289.6</ele>
        <time>2022-04-14T10:43:21Z</time>
      </trkpt>
      <trkpt lat="42.8951000" lon="-8.5034140">
        <ele>290.3</ele>
        <time>2022-04-14T10:43:22Z</time>
      </trkpt>
      <trkpt lat="42.8950810" lon="-8.5034130">
        <ele>290.5</ele>
        <time>2022-04-14T10:43:23Z</time>
      </trkpt>
      <trkpt lat="42.8950620" lon="-8.5034110">
        <ele>290.7</ele>
        <time>2022-04-14T10:43:24Z</time>
      </trkpt>
      <trkpt lat="42.8949870" lon="-8.5034010">
        <ele>291.5</ele>
        <time>2022-04-14T10:43:25Z</time>
      </trkpt>
      <trkpt lat="42.8949680" lon="-8.5033980">
        <ele>291.7</ele>
        <time>2022-04-14T10:43:26Z</time>
      </trkpt>
      <trkpt lat="42.8949500" lon="-8.5033940">
        <ele>291.9</ele>
        <time>2022-04-14T10:43:27Z</time>
      </trkpt>
      <trkpt lat="42.8948750" lon="-8.5033890">
        <ele>292.8</ele>
        <time>2022-04-14T10:43:28Z</time>
      </trkpt>
      <trkpt lat="42.8948560" lon="-8.5033970">
        <ele>293.0</ele>
        <time>2022-04-14T10:43:29Z</time>
      </trkpt>
      <trkpt lat="42.8948370" lon="-8.5034040">
        <ele>293.3</ele>
        <time>2022-04-14T10:43:30Z</time>
      </trkpt>
      <trkpt lat="42.8947610" lon="-8.5034220">
        <ele>294.2</ele>
        <time>2022-04-14T10:43:31Z</time>
      </trkpt>
      <trkpt lat="42.8947430" lon="-8.5034200">
        <ele>294.4</ele>
        <time>2022-04-14T10:43:32Z</time>
      </trkpt>
      <trkpt lat="42.8947250" lon="-8.5034170">
        <ele>294.7</ele>
        <time>2022-04-14T10:43:33Z</time>
      </trkpt>
      <trkpt lat="42.8946510" lon="-8.5034070">
        <ele>295.6</ele>
        <time>2022-04-14T10:43:34Z</time>
      </trkpt>
      <trkpt lat="42.8946310" lon="-8.5034060">
        <ele>295.8</ele>
        <time>2022-04-14T10:43:35Z</time>
      </trkpt>
      <trkpt lat="42.8946120" lon="-8.5034050">
        <ele>296.0</ele>
        <time>2022-04-14T10:43:36Z</time>
      </trkpt>
      <trkpt lat="42.8945200" lon="-8.5034040">
        <ele>297.1</ele>
        <time>2022-04-14T10:43:37Z</time>
      </trkpt>
      <trkpt lat="42.8944860" lon="-8.5034060">
        <ele>297.5</ele>
        <time>2022-04-14T10:43:38Z</time>
      </trkpt>
      <trkpt lat="42.8944520" lon="-8.5034080">
        <ele>297.9</ele>
        <time>2022-04-14T10:43:39Z</time>
      </trkpt>
      <trkpt lat="42.8944320" lon="-8.5034110">
        <ele>298.1</ele>
        <time>2022-04-14T10:43:40Z</time>
      </trkpt>
      <trkpt lat="42.8944120" lon="-8.5034130">
        <ele>298.4</ele>
        <time>2022-04-14T10:43:41Z</time>
      </trkpt>
      <trkpt lat="42.8943920" lon="-8.5034160">
        <ele>298.6</ele>
        <time>2022-04-14T10:43:42Z</time>
      </trkpt>
      <trkpt lat="42.8943140" lon="-8.5034180">
        <ele>299.5</ele>
        <time>2022-04-14T10:43:43Z</time>
      </trkpt>
      <trkpt lat="42.8942960" lon="-8.5034120">
        <ele>299.7</ele>
        <time>2022-04-14T10:43:44Z</time>
      </trkpt>
      <trkpt lat="42.8942780" lon="-8.5034060">
        <ele>299.9</ele>
        <time>2022-04-14T10:43:45Z</time>
      </trkpt>
      <trkpt lat="42.8941930" lon="-8.5033780">
        <ele>300.8</ele>
        <time>2022-04-14T10:43:46Z</time>
      </trkpt>
      <trkpt lat="42.8941600" lon="-8.5033690">
        <ele>301.1</ele>
        <time>2022-04-14T10:43:47Z</time>
      </trkpt>
      <trkpt lat="42.8941270" lon="-8.5033590">
        <ele>301.4</ele>
        <time>2022-04-14T10:43:48Z</time>
      </trkpt>
      <trkpt lat="42.8941100" lon="-8.5033600">
        <ele>301.6</ele>
        <time>2022-04-14T10:43:49Z</time>
      </trkpt>
      <trkpt lat="42.8940920" lon="-8.5033600">
        <ele>301.7</ele>
        <time>2022-04-14T10:43:50Z</time>
      </trkpt>
      <trkpt lat="42.8940740" lon="-8.5033610">
        <ele>301.9</ele>
        <time>2022-04-14T10:43:51Z</time>
      </trkpt>
      <trkpt lat="42.8940020" lon="-8.5033630">
        <ele>302.5</ele>
        <time>2022-04-14T10:43:52Z</time>
      </trkpt>
      <trkpt lat="42.8939830" lon="-8.5033640">
        <ele>302.7</ele>
        <time>2022-04-14T10:43:53Z</time>
      </trkpt>
      <trkpt lat="42.8939640" lon="-8.5033640">
        <ele>302.8</ele>
        <time>2022-04-14T10:43:54Z</time>
      </trkpt>
      <trkpt lat="42.8938850" lon="-8.5033730">
        <ele>303.5</ele>
        <time>2022-04-14T10:43:55Z</time>
      </trkpt>
      <trkpt lat="42.8938630" lon="-8.5033800">
        <ele>303.6</ele>
        <time>2022-04-14T10:43:56Z</time>
      </trkpt>
      <trkpt lat="42.8938420" lon="-8.5033870">
        <ele>303.8</ele>
        <time>2022-04-14T10:43:57Z</time>
      </trkpt>
      <trkpt lat="42.8937360" lon="-8.5034060">
        <ele>304.5</ele>
        <time>2022-04-14T10:43:58Z</time>
      </trkpt>
      <trkpt lat="42.8936940" lon="-8.5034050">
        <ele>304.8</ele>
        <time>2022-04-14T10:43:59Z</time>
      </trkpt>
      <trkpt lat="42.8936520" lon="-8.5034030">
        <ele>305.0</ele>
        <time>2022-04-14T10:44:00Z</time>
      </trkpt>
      <trkpt lat="42.8936300" lon="-8.5034000">
        <ele>305.1</ele>
        <time>2022-04-14T10:44:01Z</time>
      </trkpt>
      <trkpt lat="42.8936090" lon="-8.5033970">
        <ele>305.2</ele>
        <time>2022-04-14T10:44:02Z</time>
      </trkpt>
      <trkpt lat="42.8935880" lon="-8.5033940">
        <ele>305.2</ele>
        <time>2022-04-14T10:44:03Z</time>
      </trkpt>
      <trkpt lat="42.8935010" lon="-8.5033840">
        <ele>305.5</ele>
        <time>2022-04-14T10:44:04Z</time>
      </trkpt>
      <trkpt lat="42.8934780" lon="-8.5033830">
        <ele>305.6</ele>
        <time>2022-04-14T10:44:05Z</time>
      </trkpt>
      <trkpt lat="42.8934560" lon="-8.5033820">
        <ele>305.6</ele>
        <time>2022-04-14T10:44:06Z</time>
      </trkpt>
      <trkpt lat="42.8933410" lon="-8.5033810">
        <ele>305.8</ele>
        <time>2022-04-14T10:44:07Z</time>
      </trkpt>
      <trkpt lat="42.8932950" lon="-8.5033830">
        <ele>305.8</ele>
        <time>2022-04-14T10:44:08Z</time>
      </trkpt>
      <trkpt lat="42.8932680" lon="-8.5033820">
        <ele>305.8</ele>
        <time>2022-04-14T10:44:09Z</time>
      </trkpt>
      <trkpt lat="42.8932410" lon="-8.5033800">
        <ele>305.8</ele>
        <time>2022-04-14T10:44:10Z</time>
      </trkpt>
      <trkpt lat="42.8931610" lon="-8.5033770">
        <ele>305.8</ele>
        <time>2022-04-14T10:44:11Z</time>
      </trkpt>
      <trkpt lat="42.8931350" lon="-8.5033760">
        <ele>305.8</ele>
        <time>2022-04-14T10:44:12Z</time>
      </trkpt>
      <trkpt lat="42.8930520" lon="-8.5033750">
        <ele>305.7</ele>
        <time>2022-04-14T10:44:13Z</time>
      </trkpt>
      <trkpt lat="42.8930220" lon="-8.5033750">
        <ele>305.7</ele>
        <time>2022-04-14T10:44:14Z</time>
      </trkpt>
      <trkpt lat="42.8929310" lon="-8.5033740">
        <ele>305.6</ele>
        <time>2022-04-14T10:44:15Z</time>
      </trkpt>
      <trkpt lat="42.8929000" lon="-8.5033730">
        <ele>305.5</ele>
        <time>2022-04-14T10:44:16Z</time>
      </trkpt>
      <trkpt lat="42.8928060" lon="-8.5033700">
        <ele>305.3</ele>
        <time>2022-04-14T10:44:17Z</time>
      </trkpt>
      <trkpt lat="42.8927730" lon="-8.5033680">
        <ele>305.2</ele>
        <time>2022-04-14T10:44:18Z</time>
      </trkpt>
      <trkpt lat="42.8926740" lon="-8.5033640">
        <ele>305.0</ele>
        <time>2022-04-14T10:44:19Z</time>
      </trkpt>
      <trkpt lat="42.8926410" lon="-8.5033630">
        <ele>304.9</ele>
        <time>2022-04-14T10:44:20Z</time>
      </trkpt>
      <trkpt lat="42.8925410" lon="-8.5033600">
        <ele>304.6</ele>
        <time>2022-04-14T10:44:21Z</time>
      </trkpt>
      <trkpt lat="42.8925080" lon="-8.5033580">
        <ele>304.5</ele>
        <time>2022-04-14T10:44:22Z</time>
      </trkpt>
      <trkpt lat="42.8924070" lon="-8.5033550">
        <ele>304.1</ele>
        <time>2022-04-14T10:44:23Z</time>
      </trkpt>
      <trkpt lat="42.8923720" lon="-8.5033550">
        <ele>304.0</ele>
        <time>2022-04-14T10:44:24Z</time>
      </trkpt>
      <trkpt lat="42.8922650" lon="-8.5033580">
        <ele>303.6</ele>
        <time>2022-04-14T10:44:25Z</time>
      </trkpt>
      <trkpt lat="42.8922300" lon="-8.5033590">
        <ele>303.4</ele>
        <time>2022-04-14T10:44:26Z</time>
      </trkpt>
      <trkpt lat="42.8921220" lon="-8.5033620">
        <ele>302.8</ele>
        <time>2022-04-14T10:44:27Z</time>
      </trkpt>
      <trkpt lat="42.8920840" lon="-8.5033610">
        <ele>302.6</ele>
        <time>2022-04-14T10:44:28Z</time>
      </trkpt>
      <trkpt lat="42.8919700" lon="-8.5033580">
        <ele>302.0</ele>
        <time>2022-04-14T10:44:29Z</time>
      </trkpt>
      <trkpt lat="42.8919330" lon="-8.5033570">
        <ele>301.7</ele>
        <time>2022-04-14T10:44:30Z</time>
      </trkpt>
      <trkpt lat="42.8918190" lon="-8.5033600">
        <ele>301.0</ele>
        <time>2022-04-14T10:44:31Z</time>
      </trkpt>
      <trkpt lat="42.8917800" lon="-8.5033650">
        <ele>300.7</ele>
        <time>2022-04-14T10:44:32Z</time>
      </trkpt>
      <trkpt lat="42.8916360" lon="-8.5033810">
        <ele>299.6</ele>
        <time>2022-04-14T10:44:33Z</time>
      </trkpt>
      <trkpt lat="42.8915700" lon="-8.5033860">
        <ele>298.9</ele>
        <time>2022-04-14T10:44:34Z</time>
      </trkpt>
      <trkpt lat="42.8914370" lon="-8.5033980">
        <ele>297.8</ele>
        <time>2022-04-14T10:44:35Z</time>
      </trkpt>
      <trkpt lat="42.8913420" lon="-8.5034180">
        <ele>296.9</ele>
        <time>2022-04-14T10:44:36Z</time>
      </trkpt>
      <trkpt lat="42.8912520" lon="-8.5034400">
        <ele>296.0</ele>
        <time>2022-04-14T10:44:37Z</time>
      </trkpt>
      <trkpt lat="42.8911540" lon="-8.5034650">
        <ele>295.2</ele>
        <time>2022-04-14T10:44:38Z</time>
      </trkpt>
      <trkpt lat="42.8910570" lon="-8.5034730">
        <ele>294.4</ele>
        <time>2022-04-14T10:44:39Z</time>
      </trkpt>
      <trkpt lat="42.8909570" lon="-8.5034780">
        <ele>293.6</ele>
        <time>2022-04-14T10:44:40Z</time>
      </trkpt>
      <trkpt lat="42.8908570" lon="-8.5034700">
        <ele>292.9</ele>
        <time>2022-04-14T10:44:41Z</time>
      </trkpt>
      <trkpt lat="42.8907590" lon="-8.5034500">
        <ele>292.5</ele>
        <time>2022-04-14T10:44:42Z</time>
      </trkpt>
      <trkpt lat="42.8906620" lon="-8.5034140">
        <ele>292.3</ele>
        <time>2022-04-14T10:44:43Z</time>
      </trkpt>
      <trkpt lat="42.8905740" lon="-8.5033610">
        <ele>292.1</ele>
        <time>2022-04-14T10:44:44Z</time>
      </trkpt>
      <trkpt lat="42.8904900" lon="-8.5032930">
        <ele>292.0</ele>
        <time>2022-04-14T10:44:45Z</time>
      </trkpt>
      <trkpt lat="42.8904060" lon="-8.5032240">
        <ele>292.0</ele>
        <time>2022-04-14T10:44:46Z</time>
      </trkpt>
      <trkpt lat="42.8903240" lon="-8.5031590">
        <ele>291.9</ele>
        <time>2022-04-14T10:44:47Z</time>
      </trkpt>
      <trkpt lat="42.8902850" lon="-8.5031270">
        <ele>292.0</ele>
        <time>2022-04-14T10:44:48Z</time>
      </trkpt>
      <trkpt lat="42.8902470" lon="-8.5030950">
        <ele>292.0</ele>
        <time>2022-04-14T10:44:49Z</time>
      </trkpt>
      <trkpt lat="42.8901340" lon="-8.5030020">
        <ele>292.1</ele>
        <time>2022-04-14T10:44:50Z</time>
      </trkpt>
      <trkpt lat="42.8900980" lon="-8.5029730">
        <ele>292.1</ele>
        <time>2022-04-14T10:44:51Z</time>
      </trkpt>
      <trkpt lat="42.8899890" lon="-8.5028890">
        <ele>292.3</ele>
        <time>2022-04-14T10:44:52Z</time>
      </trkpt>
      <trkpt lat="42.8899530" lon="-8.5028640">
        <ele>292.4</ele>
        <time>2022-04-14T10:44:53Z</time>
      </trkpt>
      <trkpt lat="42.8898040" lon="-8.5027840">
        <ele>292.7</ele>
        <time>2022-04-14T10:44:54Z</time>
      </trkpt>
      <trkpt lat="42.8897280" lon="-8.5027530">
        <ele>292.8</ele>
        <time>2022-04-14T10:44:55Z</time>
      </trkpt>
      <trkpt lat="42.8895750" lon="-8.5026920">
        <ele>293.1</ele>
        <time>2022-04-14T10:44:56Z</time>
      </trkpt>
      <trkpt lat="42.8895750" lon="-8.5026920">
        <ele>293.1</ele>
        <time>2022-04-14T10:44:57Z</time>
      </trkpt>
      <trkpt lat="42.8895400" lon="-8.5026870">
        <ele>293.2</ele>
        <time>2022-04-14T10:44:58Z</time>
      </trkpt>
      <trkpt lat="42.8895050" lon="-8.5026830">
        <ele>293.3</ele>
        <time>2022-04-14T10:44:59Z</time>
      </trkpt>
      <trkpt lat="42.8894690" lon="-8.5026780">
        <ele>293.5</ele>
        <time>2022-04-14T10:45:00Z</time>
      </trkpt>
      <trkpt lat="42.8894340" lon="-8.5026740">
        <ele>293.6</ele>
        <time>2022-04-14T10:45:01Z</time>
      </trkpt>
      <trkpt lat="42.8892540" lon="-8.5026670">
        <ele>294.5</ele>
        <time>2022-04-14T10:45:02Z</time>
      </trkpt>
      <trkpt lat="42.8892140" lon="-8.5026780">
        <ele>294.6</ele>
        <time>2022-04-14T10:45:03Z</time>
      </trkpt>
      <trkpt lat="42.8891740" lon="-8.5026900">
        <ele>294.8</ele>
        <time>2022-04-14T10:45:04Z</time>
      </trkpt>
      <trkpt lat="42.8891180" lon="-8.5027320">
        <ele>295.1</ele>
        <time>2022-04-14T10:45:05Z</time>
      </trkpt>
      <trkpt lat="42.8890610" lon="-8.5027730">
        <ele>295.2</ele>
        <time>2022-04-14T10:45:06Z</time>
      </trkpt>
      <trkpt lat="42.8890050" lon="-8.5028150">
        <ele>295.3</ele>
        <time>2022-04-14T10:45:07Z</time>
      </trkpt>
      <trkpt lat="42.8888350" lon="-8.5029400">
        <ele>295.2</ele>
        <time>2022-04-14T10:45:08Z</time>
      </trkpt>
      <trkpt lat="42.8888050" lon="-8.5029580">
        <ele>295.2</ele>
        <time>2022-04-14T10:45:09Z</time>
      </trkpt>
      <trkpt lat="42.8887750" lon="-8.5029770">
        <ele>295.1</ele>
        <time>2022-04-14T10:45:10Z</time>
      </trkpt>
      <trkpt lat="42.8886910" lon="-8.5030490">
        <ele>294.7</ele>
        <time>2022-04-14T10:45:11Z</time>
      </trkpt>
      <trkpt lat="42.8886670" lon="-8.5030860">
        <ele>294.6</ele>
        <time>2022-04-14T10:45:12Z</time>
      </trkpt>
      <trkpt lat="42.8885770" lon="-8.5032490">
        <ele>294.2</ele>
        <time>2022-04-14T10:45:13Z</time>
      </trkpt>
      <trkpt lat="42.8885370" lon="-8.5033400">
        <ele>294.0</ele>
        <time>2022-04-14T10:45:14Z</time>
      </trkpt>
      <trkpt lat="42.8884550" lon="-8.5035210">
        <ele>293.7</ele>
        <time>2022-04-14T10:45:15Z</time>
      </trkpt>
      <trkpt lat="42.8884550" lon="-8.5035210">
        <ele>293.7</ele>
        <time>2022-04-14T10:45:16Z</time>
      </trkpt>
      <trkpt lat="42.8884280" lon="-8.5035640">
        <ele>293.6</ele>
        <time>2022-04-14T10:45:17Z</time>
      </trkpt>
      <trkpt lat="42.8884020" lon="-8.5036060">
        <ele>293.6</ele>
        <time>2022-04-14T10:45:18Z</time>
      </trkpt>
      <trkpt lat="42.8883190" lon="-8.5037320">
        <ele>293.4</ele>
        <time>2022-04-14T10:45:19Z</time>
      </trkpt>
      <trkpt lat="42.8882900" lon="-8.5037720">
        <ele>293.3</ele>
        <time>2022-04-14T10:45:20Z</time>
      </trkpt>
      <trkpt lat="42.8881990" lon="-8.5038900">
        <ele>293.0</ele>
        <time>2022-04-14T10:45:21Z</time>
      </trkpt>
      <trkpt lat="42.8881670" lon="-8.5039270">
        <ele>292.9</ele>
        <time>2022-04-14T10:45:22Z</time>
      </trkpt>
      <trkpt lat="42.8880710" lon="-8.5040310">
        <ele>292.7</ele>
        <time>2022-04-14T10:45:23Z</time>
      </trkpt>
      <trkpt lat="42.8880390" lon="-8.5040630">
        <ele>292.6</ele>
        <time>2022-04-14T10:45:24Z</time>
      </trkpt>
      <trkpt lat="42.8879400" lon="-8.5041560">
        <ele>292.4</ele>
        <time>2022-04-14T10:45:25Z</time>
      </trkpt>
      <trkpt lat="42.8879060" lon="-8.5041870">
        <ele>292.4</ele>
        <time>2022-04-14T10:45:26Z</time>
      </trkpt>
      <trkpt lat="42.8878040" lon="-8.5042740">
        <ele>292.4</ele>
        <time>2022-04-14T10:45:27Z</time>
      </trkpt>
      <trkpt lat="42.8877700" lon="-8.5042980">
        <ele>292.4</ele>
        <time>2022-04-14T10:45:28Z</time>
      </trkpt>
      <trkpt lat="42.8876690" lon="-8.5043700">
        <ele>292.4</ele>
        <time>2022-04-14T10:45:29Z</time>
      </trkpt>
      <trkpt lat="42.8876350" lon="-8.5043930">
        <ele>292.4</ele>
        <time>2022-04-14T10:45:30Z</time>
      </trkpt>
      <trkpt lat="42.8875330" lon="-8.5044590">
        <ele>292.4</ele>
        <time>2022-04-14T10:45:31Z</time>
      </trkpt>
      <trkpt lat="42.8874990" lon="-8.5044810">
        <ele>292.4</ele>
        <time>2022-04-14T10:45:32Z</time>
      </trkpt>
      <trkpt lat="42.8873950" lon="-8.5045440">
        <ele>292.4</ele>
        <time>2022-04-14T10:45:33Z</time>
      </trkpt>
      <trkpt lat="42.8873620" lon="-8.5045650">
        <ele>292.4</ele>
        <time>2022-04-14T10:45:34Z</time>
      </trkpt>
      <trkpt lat="42.8872610" lon="-8.5046340">
        <ele>292.3</ele>
        <time>2022-04-14T10:45:35Z</time>
      </trkpt>
      <trkpt lat="42.8872290" lon="-8.5046630">
        <ele>292.3</ele>
        <time>2022-04-14T10:45:36Z</time>
      </trkpt>
      <trkpt lat="42.8871320" lon="-8.5047500">
        <ele>292.1</ele>
        <time>2022-04-14T10:45:37Z</time>
      </trkpt>
      <trkpt lat="42.8871000" lon="-8.5047810">
        <ele>292.1</ele>
        <time>2022-04-14T10:45:38Z</time>
      </trkpt>
      <trkpt lat="42.8870090" lon="-8.5048620">
        <ele>291.9</ele>
        <time>2022-04-14T10:45:39Z</time>
      </trkpt>
      <trkpt lat="42.8869800" lon="-8.5048830">
        <ele>291.8</ele>
        <time>2022-04-14T10:45:40Z</time>
      </trkpt>
      <trkpt lat="42.8868750" lon="-8.5049380">
        <ele>293.5</ele>
        <time>2022-04-14T10:45:41Z</time>
      </trkpt>
      <trkpt lat="42.8868270" lon="-8.5049520">
        <ele>293.4</ele>
        <time>2022-04-14T10:45:42Z</time>
      </trkpt>
      <trkpt lat="42.8867990" lon="-8.5049580">
        <ele>293.4</ele>
        <time>2022-04-14T10:45:43Z</time>
      </trkpt>
      <trkpt lat="42.8867710" lon="-8.5049640">
        <ele>293.3</ele>
        <time>2022-04-14T10:45:44Z</time>
      </trkpt>
      <trkpt lat="42.8866870" lon="-8.5049930">
        <ele>293.2</ele>
        <time>2022-04-14T10:45:45Z</time>
      </trkpt>
      <trkpt lat="42.8866600" lon="-8.5050100">
        <ele>293.2</ele>
        <time>2022-04-14T10:45:46Z</time>
      </trkpt>
      <trkpt lat="42.8865810" lon="-8.5050750">
        <ele>293.2</ele>
        <time>2022-04-14T10:45:47Z</time>
      </trkpt>
      <trkpt lat="42.8865560" lon="-8.5051040">
        <ele>293.2</ele>
        <time>2022-04-14T10:45:48Z</time>
      </trkpt>
      <trkpt lat="42.8864840" lon="-8.5051970">
        <ele>293.1</ele>
        <time>2022-04-14T10:45:49Z</time>
      </trkpt>
      <trkpt lat="42.8864610" lon="-8.5052320">
        <ele>293.1</ele>
        <time>2022-04-14T10:45:50Z</time>
      </trkpt>
      <trkpt lat="42.8863630" lon="-8.5053680">
        <ele>292.8</ele>
        <time>2022-04-14T10:45:51Z</time>
      </trkpt>
      <trkpt lat="42.8863120" lon="-8.5054360">
        <ele>292.5</ele>
        <time>2022-04-14T10:45:52Z</time>
      </trkpt>
      <trkpt lat="42.8862100" lon="-8.5055720">
        <ele>292.0</ele>
        <time>2022-04-14T10:45:53Z</time>
      </trkpt>
      <trkpt lat="42.8862100" lon="-8.5055720">
        <ele>292.0</ele>
        <time>2022-04-14T10:45:54Z</time>
      </trkpt>
      <trkpt lat="42.8861800" lon="-8.5056040">
        <ele>291.9</ele>
        <time>2022-04-14T10:45:55Z</time>
      </trkpt>
      <trkpt lat="42.8861490" lon="-8.5056350">
        <ele>291.9</ele>
        <time>2022-04-14T10:45:56Z</time>
      </trkpt>
      <trkpt lat="42.8860510" lon="-8.5057180">
        <ele>291.9</ele>
        <time>2022-04-14T10:45:57Z</time>
      </trkpt>
      <trkpt lat="42.8860140" lon="-8.5057380">
        <ele>291.9</ele>
        <time>2022-04-14T10:45:58Z</time>
      </trkpt>
      <trkpt lat="42.8859040" lon="-8.5057900">
        <ele>292.3</ele>
        <time>2022-04-14T10:45:59Z</time>
      </trkpt>
      <trkpt lat="42.8858680" lon="-8.5058030">
        <ele>292.4</ele>
        <time>2022-04-14T10:46:00Z</time>
      </trkpt>
      <trkpt lat="42.8857640" lon="-8.5058390">
        <ele>292.9</ele>
        <time>2022-04-14T10:46:01Z</time>
      </trkpt>
      <trkpt lat="42.8857310" lon="-8.5058480">
        <ele>293.1</ele>
        <time>2022-04-14T10:46:02Z</time>
      </trkpt>
      <trkpt lat="42.8856350" lon="-8.5058740">
        <ele>293.6</ele>
        <time>2022-04-14T10:46:03Z</time>
      </trkpt>
      <trkpt lat="42.8856040" lon="-8.5058820">
        <ele>293.7</ele>
        <time>2022-04-14T10:46:04Z</time>
      </trkpt>
      <trkpt lat="42.8855150" lon="-8.5059060">
        <ele>294.2</ele>
        <time>2022-04-14T10:46:05Z</time>
      </trkpt>
      <trkpt lat="42.8854860" lon="-8.5059140">
        <ele>294.3</ele>
        <time>2022-04-14T10:46:06Z</time>
      </trkpt>
      <trkpt lat="42.8853980" lon="-8.5059360">
        <ele>294.7</ele>
        <time>2022-04-14T10:46:07Z</time>
      </trkpt>
      <trkpt lat="42.8853680" lon="-8.5059430">
        <ele>294.8</ele>
        <time>2022-04-14T10:46:08Z</time>
      </trkpt>
      <trkpt lat="42.8852790" lon="-8.5059710">
        <ele>295.1</ele>
        <time>2022-04-14T10:46:09Z</time>
      </trkpt>
      <trkpt lat="42.8852500" lon="-8.5059860">
        <ele>295.1</ele>
        <time>2022-04-14T10:46:10Z</time>
      </trkpt>
      <trkpt lat="42.8851640" lon="-8.5060300">
        <ele>295.3</ele>
        <time>2022-04-14T10:46:11Z</time>
      </trkpt>
      <trkpt lat="42.8851370" lon="-8.5060440">
        <ele>295.3</ele>
        <time>2022-04-14T10:46:12Z</time>
      </trkpt>
      <trkpt lat="42.8850530" lon="-8.5060890">
        <ele>295.4</ele>
        <time>2022-04-14T10:46:13Z</time>
      </trkpt>
      <trkpt lat="42.8850230" lon="-8.5061070">
        <ele>295.4</ele>
        <time>2022-04-14T10:46:14Z</time>
      </trkpt>
      <trkpt lat="42.8849320" lon="-8.5061600">
        <ele>295.3</ele>
        <time>2022-04-14T10:46:15Z</time>
      </trkpt>
      <trkpt lat="42.8848990" lon="-8.5061780">
        <ele>295.2</ele>
        <time>2022-04-14T10:46:16Z</time>
      </trkpt>
      <trkpt lat="42.8847980" lon="-8.5062310">
        <ele>295.1</ele>
        <time>2022-04-14T10:46:17Z</time>
      </trkpt>
      <trkpt lat="42.8847630" lon="-8.5062490">
        <ele>295.0</ele>
        <time>2022-04-14T10:46:18Z</time>
      </trkpt>
      <trkpt lat="42.8846570" lon="-8.5063000">
        <ele>295.0</ele>
        <time>2022-04-14T10:46:19Z</time>
      </trkpt>
      <trkpt lat="42.8846200" lon="-8.5063160">
        <ele>295.0</ele>
        <time>2022-04-14T10:46:20Z</time>
      </trkpt>
      <trkpt lat="42.8845120" lon="-8.5063430">
        <ele>295.0</ele>
        <time>2022-04-14T10:46:21Z</time>
      </trkpt>
      <trkpt lat="42.8844760" lon="-8.5063390">
        <ele>295.0</ele>
        <time>2022-04-14T10:46:22Z</time>
      </trkpt>
      <trkpt lat="42.8843740" lon="-8.5063100">
        <ele>295.1</ele>
        <time>2022-04-14T10:46:23Z</time>
      </trkpt>
      <trkpt lat="42.8843430" lon="-8.5062890">
        <ele>295.2</ele>
        <time>2022-04-14T10:46:24Z</time>
      </trkpt>
      <trkpt lat="42.8842550" lon="-8.5062180">
        <ele>295.3</ele>
        <time>2022-04-14T10:46:25Z</time>
      </trkpt>
      <trkpt lat="42.8842280" lon="-8.5061900">
        <ele>295.3</ele>
        <time>2022-04-14T10:46:26Z</time>
      </trkpt>
      <trkpt lat="42.8841540" lon="-8.5061020">
        <ele>295.4</ele>
        <time>2022-04-14T10:46:27Z</time>
      </trkpt>
      <trkpt lat="42.8841330" lon="-8.5060710">
        <ele>295.5</ele>
        <time>2022-04-14T10:46:28Z</time>
      </trkpt>
      <trkpt lat="42.8840410" lon="-8.5059510">
        <ele>295.7</ele>
        <time>2022-04-14T10:46:29Z</time>
      </trkpt>
      <trkpt lat="42.8839920" lon="-8.5058930">
        <ele>295.7</ele>
        <time>2022-04-14T10:46:30Z</time>
      </trkpt>
      <trkpt lat="42.8838940" lon="-8.5057770">
        <ele>295.8</ele>
        <time>2022-04-14T10:46:31Z</time>
      </trkpt>
      <trkpt lat="42.8838940" lon="-8.5057770">
        <ele>295.8</ele>
        <time>2022-04-14T10:46:32Z</time>
      </trkpt>
      <trkpt lat="42.8838700" lon="-8.5057470">
        <ele>295.7</ele>
        <time>2022-04-14T10:46:33Z</time>
      </trkpt>
      <trkpt lat="42.8838450" lon="-8.5057180">
        <ele>295.7</ele>
        <time>2022-04-14T10:46:34Z</time>
      </trkpt>
      <trkpt lat="42.8837680" lon="-8.5056250">
        <ele>295.6</ele>
        <time>2022-04-14T10:46:35Z</time>
      </trkpt>
      <trkpt lat="42.8837420" lon="-8.5055920">
        <ele>295.5</ele>
        <time>2022-04-14T10:46:36Z</time>
      </trkpt>
      <trkpt lat="42.8836660" lon="-8.5054910">
        <ele>295.3</ele>
        <time>2022-04-14T10:46:37Z</time>
      </trkpt>
      <trkpt lat="42.8836420" lon="-8.5054560">
        <ele>295.2</ele>
        <time>2022-04-14T10:46:38Z</time>
      </trkpt>
      <trkpt lat="42.8835670" lon="-8.5053500">
        <ele>294.8</ele>
        <time>2022-04-14T10:46:39Z</time>
      </trkpt>
      <trkpt lat="42.8835390" lon="-8.5053140">
        <ele>294.7</ele>
        <time>2022-04-14T10:46:40Z</time>
      </trkpt>
      <trkpt lat="42.8834350" lon="-8.5051960">
        <ele>294.2</ele>
        <time>2022-04-14T10:46:41Z</time>
      </trkpt>
      <trkpt lat="42.8833870" lon="-8.5051500">
        <ele>293.9</ele>
        <time>2022-04-14T10:46:42Z</time>
      </trkpt>
      <trkpt lat="42.8833390" lon="-8.5051040">
        <ele>293.6</ele>
        <time>2022-04-14T10:46:43Z</time>
      </trkpt>
      <trkpt lat="42.8831950" lon="-8.5049660">
        <ele>292.6</ele>
        <time>2022-04-14T10:46:44Z</time>
      </trkpt>
      <trkpt lat="42.8831100" lon="-8.5049010">
        <ele>292.1</ele>
        <time>2022-04-14T10:46:45Z</time>
      </trkpt>
      <trkpt lat="42.8830340" lon="-8.5048260">
        <ele>291.6</ele>
        <time>2022-04-14T10:46:46Z</time>
      </trkpt>
      <trkpt lat="42.8830340" lon="-8.5048260">
        <ele>291.6</ele>
        <time>2022-04-14T10:46:47Z</time>
      </trkpt>
      <trkpt lat="42.8828950" lon="-8.5046650">
        <ele>290.8</ele>
        <time>2022-04-14T10:46:48Z</time>
      </trkpt>
      <trkpt lat="42.8828230" lon="-8.5045900">
        <ele>290.4</ele>
        <time>2022-04-14T10:46:49Z</time>
      </trkpt>
      <trkpt lat="42.8827550" lon="-8.5045080">
        <ele>290.1</ele>
        <time>2022-04-14T10:46:50Z</time>
      </trkpt>
      <trkpt lat="42.8826790" lon="-8.5044260">
        <ele>289.7</ele>
        <time>2022-04-14T10:46:51Z</time>
      </trkpt>
      <trkpt lat="42.8825980" lon="-8.5043480">
        <ele>289.4</ele>
        <time>2022-04-14T10:46:52Z</time>
      </trkpt>
      <trkpt lat="42.8825240" lon="-8.5042660">
        <ele>289.1</ele>
        <time>2022-04-14T10:46:53Z</time>
      </trkpt>
      <trkpt lat="42.8824530" lon="-8.5041870">
        <ele>288.8</ele>
        <time>2022-04-14T10:46:54Z</time>
      </trkpt>
      <trkpt lat="42.8823800" lon="-8.5041060">
        <ele>288.6</ele>
        <time>2022-04-14T10:46:55Z</time>
      </trkpt>
      <trkpt lat="42.8823070" lon="-8.5040260">
        <ele>288.4</ele>
        <time>2022-04-14T10:46:56Z</time>
      </trkpt>
      <trkpt lat="42.8822320" lon="-8.5039460">
        <ele>288.3</ele>
        <time>2022-04-14T10:46:57Z</time>
      </trkpt>
      <trkpt lat="42.8821520" lon="-8.5038730">
        <ele>288.3</ele>
        <time>2022-04-14T10:46:58Z</time>
      </trkpt>
      <trkpt lat="42.8820710" lon="-8.5037980">
        <ele>288.2</ele>
        <time>2022-04-14T10:46:59Z</time>
      </trkpt>
      <trkpt lat="42.8819930" lon="-8.5037230">
        <ele>288.2</ele>
        <time>2022-04-14T10:47:00Z</time>
      </trkpt>
      <trkpt lat="42.8819130" lon="-8.5036460">
        <ele>288.3</ele>
        <time>2022-04-14T10:47:01Z</time>
      </trkpt>
      <trkpt lat="42.8818310" lon="-8.5035740">
        <ele>288.4</ele>
        <time>2022-04-14T10:47:02Z</time>
      </trkpt>
      <trkpt lat="42.8817540" lon="-8.5035040">
        <ele>288.4</ele>
        <time>2022-04-14T10:47:03Z</time>
      </trkpt>
      <trkpt lat="42.8816770" lon="-8.5034380">
        <ele>288.4</ele>
        <time>2022-04-14T10:47:04Z</time>
      </trkpt>
      <trkpt lat="42.8816420" lon="-8.5034060">
        <ele>288.7</ele>
        <time>2022-04-14T10:47:05Z</time>
      </trkpt>
      <trkpt lat="42.8816070" lon="-8.5033740">
        <ele>288.9</ele>
        <time>2022-04-14T10:47:06Z</time>
      </trkpt>
      <trkpt lat="42.8814760" lon="-8.5032460">
        <ele>290.0</ele>
        <time>2022-04-14T10:47:07Z</time>
      </trkpt>
      <trkpt lat="42.8814150" lon="-8.5031800">
        <ele>290.5</ele>
        <time>2022-04-14T10:47:08Z</time>
      </trkpt>
      <trkpt lat="42.8812940" lon="-8.5030500">
        <ele>291.4</ele>
        <time>2022-04-14T10:47:09Z</time>
      </trkpt>
      <trkpt lat="42.8812940" lon="-8.5030500">
        <ele>291.4</ele>
        <time>2022-04-14T10:47:10Z</time>
      </trkpt>
      <trkpt lat="42.8812640" lon="-8.5030210">
        <ele>291.6</ele>
        <time>2022-04-14T10:47:11Z</time>
      </trkpt>
      <trkpt lat="42.8812340" lon="-8.5029920">
        <ele>291.8</ele>
        <time>2022-04-14T10:47:12Z</time>
      </trkpt>
      <trkpt lat="42.8811460" lon="-8.5029060">
        <ele>292.3</ele>
        <time>2022-04-14T10:47:13Z</time>
      </trkpt>
      <trkpt lat="42.8811180" lon="-8.5028770">
        <ele>292.4</ele>
        <time>2022-04-14T10:47:14Z</time>
      </trkpt>
      <trkpt lat="42.8810340" lon="-8.5027910">
        <ele>292.7</ele>
        <time>2022-04-14T10:47:15Z</time>
      </trkpt>
      <trkpt lat="42.8810070" lon="-8.5027610">
        <ele>292.8</ele>
        <time>2022-04-14T10:47:16Z</time>
      </trkpt>
      <trkpt lat="42.8809240" lon="-8.5026730">
        <ele>293.1</ele>
        <time>2022-04-14T10:47:17Z</time>
      </trkpt>
      <trkpt lat="42.8808970" lon="-8.5026430">
        <ele>293.1</ele>
        <time>2022-04-14T10:47:18Z</time>
      </trkpt>
      <trkpt lat="42.8808140" lon="-8.5025520">
        <ele>293.4</ele>
        <time>2022-04-14T10:47:19Z</time>
      </trkpt>
      <trkpt lat="42.8807870" lon="-8.5025210">
        <ele>293.4</ele>
        <time>2022-04-14T10:47:20Z</time>
      </trkpt>
      <trkpt lat="42.8807020" lon="-8.5024300">
        <ele>293.6</ele>
        <time>2022-04-14T10:47:21Z</time>
      </trkpt>
      <trkpt lat="42.8806730" lon="-8.5024000">
        <ele>293.6</ele>
        <time>2022-04-14T10:47:22Z</time>
      </trkpt>
      <trkpt lat="42.8805830" lon="-8.5023150">
        <ele>293.8</ele>
        <time>2022-04-14T10:47:23Z</time>
      </trkpt>
      <trkpt lat="42.8805520" lon="-8.5022910">
        <ele>293.9</ele>
        <time>2022-04-14T10:47:24Z</time>
      </trkpt>
      <trkpt lat="42.8804580" lon="-8.5022200">
        <ele>294.1</ele>
        <time>2022-04-14T10:47:25Z</time>
      </trkpt>
      <trkpt lat="42.8804270" lon="-8.5021970">
        <ele>294.2</ele>
        <time>2022-04-14T10:47:26Z</time>
      </trkpt>
      <trkpt lat="42.8803370" lon="-8.5021200">
        <ele>294.3</ele>
        <time>2022-04-14T10:47:27Z</time>
      </trkpt>
      <trkpt lat="42.8803120" lon="-8.5020860">
        <ele>294.3</ele>
        <time>2022-04-14T10:47:28Z</time>
      </trkpt>
      <trkpt lat="42.8802370" lon="-8.5019850">
        <ele>294.4</ele>
        <time>2022-04-14T10:47:29Z</time>
      </trkpt>
      <trkpt lat="42.8802150" lon="-8.5019500">
        <ele>294.4</ele>
        <time>2022-04-14T10:47:30Z</time>
      </trkpt>
      <trkpt lat="42.8801410" lon="-8.5018480">
        <ele>294.6</ele>
        <time>2022-04-14T10:47:31Z</time>
      </trkpt>
      <trkpt lat="42.8801140" lon="-8.5018170">
        <ele>294.6</ele>
        <time>2022-04-14T10:47:32Z</time>
      </trkpt>
      <trkpt lat="42.8800300" lon="-8.5017260">
        <ele>294.8</ele>
        <time>2022-04-14T10:47:33Z</time>
      </trkpt>
      <trkpt lat="42.8800030" lon="-8.5016980">
        <ele>294.8</ele>
        <time>2022-04-14T10:47:34Z</time>
      </trkpt>
      <trkpt lat="42.8799220" lon="-8.5016130">
        <ele>295.0</ele>
        <time>2022-04-14T10:47:35Z</time>
      </trkpt>
      <trkpt lat="42.8798960" lon="-8.5015840">
        <ele>295.0</ele>
        <time>2022-04-14T10:47:36Z</time>
      </trkpt>
      <trkpt lat="42.8798190" lon="-8.5015000">
        <ele>295.1</ele>
        <time>2022-04-14T10:47:37Z</time>
      </trkpt>
      <trkpt lat="42.8797930" lon="-8.5014720">
        <ele>295.2</ele>
        <time>2022-04-14T10:47:38Z</time>
      </trkpt>
      <trkpt lat="42.8797120" lon="-8.5013890">
        <ele>295.3</ele>
        <time>2022-04-14T10:47:39Z</time>
      </trkpt>
      <trkpt lat="42.8796850" lon="-8.5013610">
        <ele>295.4</ele>
        <time>2022-04-14T10:47:40Z</time>
      </trkpt>
      <trkpt lat="42.8796000" lon="-8.5012760">
        <ele>295.5</ele>
        <time>2022-04-14T10:47:41Z</time>
      </trkpt>
      <trkpt lat="42.8795710" lon="-8.5012480">
        <ele>295.6</ele>
        <time>2022-04-14T10:47:42Z</time>
      </trkpt>
      <trkpt lat="42.8794850" lon="-8.5011650">
        <ele>295.7</ele>
        <time>2022-04-14T10:47:43Z</time>
      </trkpt>
      <trkpt lat="42.8794590" lon="-8.5011380">
        <ele>295.8</ele>
        <time>2022-04-14T10:47:44Z</time>
      </trkpt>
      <trkpt lat="42.8793520" lon="-8.5010300">
        <ele>296.0</ele>
        <time>2022-04-14T10:47:45Z</time>
      </trkpt>
      <trkpt lat="42.8792990" lon="-8.5009770">
        <ele>296.1</ele>
        <time>2022-04-14T10:47:46Z</time>
      </trkpt>
      <trkpt lat="42.8791930" lon="-8.5008700">
        <ele>296.3</ele>
        <time>2022-04-14T10:47:47Z</time>
      </trkpt>
      <trkpt lat="42.8791930" lon="-8.5008700">
        <ele>296.3</ele>
        <time>2022-04-14T10:47:48Z</time>
      </trkpt>
      <trkpt lat="42.8791670" lon="-8.5008470">
        <ele>296.3</ele>
        <time>2022-04-14T10:47:49Z</time>
      </trkpt>
      <trkpt lat="42.8791420" lon="-8.5008230">
        <ele>296.4</ele>
        <time>2022-04-14T10:47:50Z</time>
      </trkpt>
      <trkpt lat="42.8790640" lon="-8.5007500">
        <ele>296.5</ele>
        <time>2022-04-14T10:47:51Z</time>
      </trkpt>
      <trkpt lat="42.8790370" lon="-8.5007230">
        <ele>296.5</ele>
        <time>2022-04-14T10:47:52Z</time>
      </trkpt>
      <trkpt lat="42.8789600" lon="-8.5006440">
        <ele>296.6</ele>
        <time>2022-04-14T10:47:53Z</time>
      </trkpt>
      <trkpt lat="42.8789350" lon="-8.5006180">
        <ele>296.7</ele>
        <time>2022-04-14T10:47:54Z</time>
      </trkpt>
      <trkpt lat="42.8788540" lon="-8.5005360">
        <ele>296.8</ele>
        <time>2022-04-14T10:47:55Z</time>
      </trkpt>
      <trkpt lat="42.8788230" lon="-8.5005060">
        <ele>296.8</ele>
        <time>2022-04-14T10:47:56Z</time>
      </trkpt>
      <trkpt lat="42.8787290" lon="-8.5004190">
        <ele>296.9</ele>
        <time>2022-04-14T10:47:57Z</time>
      </trkpt>
      <trkpt lat="42.8787000" lon="-8.5003910">
        <ele>296.9</ele>
        <time>2022-04-14T10:47:58Z</time>
      </trkpt>
      <trkpt lat="42.8786120" lon="-8.5003080">
        <ele>296.9</ele>
        <time>2022-04-14T10:47:59Z</time>
      </trkpt>
      <trkpt lat="42.8785830" lon="-8.5002810">
        <ele>296.9</ele>
        <time>2022-04-14T10:48:00Z</time>
      </trkpt>
      <trkpt lat="42.8784980" lon="-8.5001970">
        <ele>297.0</ele>
        <time>2022-04-14T10:48:01Z</time>
      </trkpt>
      <trkpt lat="42.8784690" lon="-8.5001690">
        <ele>297.0</ele>
        <time>2022-04-14T10:48:02Z</time>
      </trkpt>
      <trkpt lat="42.8783840" lon="-8.5000830">
        <ele>297.0</ele>
        <time>2022-04-14T10:48:03Z</time>
      </trkpt>
      <trkpt lat="42.8783550" lon="-8.5000540">
        <ele>297.0</ele>
        <time>2022-04-14T10:48:04Z</time>
      </trkpt>
      <trkpt lat="42.8782670" lon="-8.4999680">
        <ele>297.1</ele>
        <time>2022-04-14T10:48:05Z</time>
      </trkpt>
      <trkpt lat="42.8782360" lon="-8.4999380">
        <ele>297.1</ele>
        <time>2022-04-14T10:48:06Z</time>
      </trkpt>
      <trkpt lat="42.8781440" lon="-8.4998500">
        <ele>297.1</ele>
        <time>2022-04-14T10:48:07Z</time>
      </trkpt>
      <trkpt lat="42.8781140" lon="-8.4998200">
        <ele>297.1</ele>
        <time>2022-04-14T10:48:08Z</time>
      </trkpt>
      <trkpt lat="42.8780230" lon="-8.4997290">
        <ele>297.1</ele>
        <time>2022-04-14T10:48:09Z</time>
      </trkpt>
      <trkpt lat="42.8779930" lon="-8.4996970">
        <ele>297.1</ele>
        <time>2022-04-14T10:48:10Z</time>
      </trkpt>
      <trkpt lat="42.8779020" lon="-8.4996030">
        <ele>297.0</ele>
        <time>2022-04-14T10:48:11Z</time>
      </trkpt>
      <trkpt lat="42.8778710" lon="-8.4995710">
        <ele>297.0</ele>
        <time>2022-04-14T10:48:12Z</time>
      </trkpt>
      <trkpt lat="42.8777760" lon="-8.4994840">
        <ele>296.9</ele>
        <time>2022-04-14T10:48:13Z</time>
      </trkpt>
      <trkpt lat="42.8777440" lon="-8.4994610">
        <ele>296.9</ele>
        <time>2022-04-14T10:48:14Z</time>
      </trkpt>
      <trkpt lat="42.8776490" lon="-8.4993890">
        <ele>296.8</ele>
        <time>2022-04-14T10:48:15Z</time>
      </trkpt>
      <trkpt lat="42.8776180" lon="-8.4993620">
        <ele>296.7</ele>
        <time>2022-04-14T10:48:16Z</time>
      </trkpt>
      <trkpt lat="42.8775880" lon="-8.4993360">
        <ele>296.7</ele>
        <time>2022-04-14T10:48:17Z</time>
      </trkpt>
      <trkpt lat="42.8775570" lon="-8.4993100">
        <ele>296.6</ele>
        <time>2022-04-14T10:48:18Z</time>
      </trkpt>
      <trkpt lat="42.8774110" lon="-8.4991690">
        <ele>296.3</ele>
        <time>2022-04-14T10:48:19Z</time>
      </trkpt>
      <trkpt lat="42.8773880" lon="-8.4991340">
        <ele>296.2</ele>
        <time>2022-04-14T10:48:20Z</time>
      </trkpt>
      <trkpt lat="42.8772960" lon="-8.4990140">
        <ele>295.8</ele>
        <time>2022-04-14T10:48:21Z</time>
      </trkpt>
      <trkpt lat="42.8772510" lon="-8.4989660">
        <ele>295.5</ele>
        <time>2022-04-14T10:48:22Z</time>
      </trkpt>
      <trkpt lat="42.8771600" lon="-8.4988690">
        <ele>294.9</ele>
        <time>2022-04-14T10:48:23Z</time>
      </trkpt>
      <trkpt lat="42.8771030" lon="-8.4988050">
        <ele>294.4</ele>
        <time>2022-04-14T10:48:24Z</time>
      </trkpt>
      <trkpt lat="42.8770460" lon="-8.4987410">
        <ele>293.8</ele>
        <time>2022-04-14T10:48:25Z</time>
      </trkpt>
      <trkpt lat="42.8769890" lon="-8.4986770">
        <ele>293.1</ele>
        <time>2022-04-14T10:48:26Z</time>
      </trkpt>
      <trkpt lat="42.8769310" lon="-8.4986130">
        <ele>292.4</ele>
        <time>2022-04-14T10:48:27Z</time>
      </trkpt>
      <trkpt lat="42.8768450" lon="-8.4985270">
        <ele>291.4</ele>
        <time>2022-04-14T10:48:28Z</time>
      </trkpt>
      <trkpt lat="42.8768140" lon="-8.4984970">
        <ele>291.1</ele>
        <time>2022-04-14T10:48:29Z</time>
      </trkpt>
      <trkpt lat="42.8767520" lon="-8.4984360">
        <ele>290.3</ele>
        <time>2022-04-14T10:48:30Z</time>
      </trkpt>
      <trkpt lat="42.8766690" lon="-8.4983480">
        <ele>289.4</ele>
        <time>2022-04-14T10:48:31Z</time>
      </trkpt>
      <trkpt lat="42.8766040" lon="-8.4982630">
        <ele>288.6</ele>
        <time>2022-04-14T10:48:32Z</time>
      </trkpt>
      <trkpt lat="42.8765240" lon="-8.4981860">
        <ele>287.8</ele>
        <time>2022-04-14T10:48:33Z</time>
      </trkpt>
      <trkpt lat="42.8764350" lon="-8.4981230">
        <ele>287.0</ele>
        <time>2022-04-14T10:48:34Z</time>
      </trkpt>
      <trkpt lat="42.8763290" lon="-8.4981110">
        <ele>285.9</ele>
        <time>2022-04-14T10:48:35Z</time>
      </trkpt>
      <trkpt lat="42.8762220" lon="-8.4981320">
        <ele>285.1</ele>
        <time>2022-04-14T10:48:36Z</time>
      </trkpt>
      <trkpt lat="42.8761220" lon="-8.4981730">
        <ele>284.3</ele>
        <time>2022-04-14T10:48:37Z</time>
      </trkpt>
      <trkpt lat="42.8760220" lon="-8.4982170">
        <ele>283.4</ele>
        <time>2022-04-14T10:48:38Z</time>
      </trkpt>
      <trkpt lat="42.8759260" lon="-8.4982590">
        <ele>282.5</ele>
        <time>2022-04-14T10:48:39Z</time>
      </trkpt>
      <trkpt lat="42.8758320" lon="-8.4983010">
        <ele>281.7</ele>
        <time>2022-04-14T10:48:40Z</time>
      </trkpt>
      <trkpt lat="42.8757360" lon="-8.4983400">
        <ele>280.8</ele>
        <time>2022-04-14T10:48:41Z</time>
      </trkpt>
      <trkpt lat="42.8756370" lon="-8.4983830">
        <ele>279.8</ele>
        <time>2022-04-14T10:48:42Z</time>
      </trkpt>
      <trkpt lat="42.8755350" lon="-8.4984390">
        <ele>278.8</ele>
        <time>2022-04-14T10:48:43Z</time>
      </trkpt>
      <trkpt lat="42.8753240" lon="-8.4985470">
        <ele>276.4</ele>
        <time>2022-04-14T10:48:44Z</time>
      </trkpt>
      <trkpt lat="42.8753240" lon="-8.4985470">
        <ele>276.4</ele>
        <time>2022-04-14T10:48:45Z</time>
      </trkpt>
      <trkpt lat="42.8752170" lon="-8.4985930">
        <ele>275.1</ele>
        <time>2022-04-14T10:48:46Z</time>
      </trkpt>
      <trkpt lat="42.8751070" lon="-8.4986410">
        <ele>273.8</ele>
        <time>2022-04-14T10:48:47Z</time>
      </trkpt>
      <trkpt lat="42.8749990" lon="-8.4986890">
        <ele>272.3</ele>
        <time>2022-04-14T10:48:48Z</time>
      </trkpt>
      <trkpt lat="42.8748830" lon="-8.4987390">
        <ele>270.5</ele>
        <time>2022-04-14T10:48:49Z</time>
      </trkpt>
      <trkpt lat="42.8747620" lon="-8.4987990">
        <ele>268.7</ele>
        <time>2022-04-14T10:48:50Z</time>
      </trkpt>
      <trkpt lat="42.8746380" lon="-8.4988570">
        <ele>266.9</ele>
        <time>2022-04-14T10:48:51Z</time>
      </trkpt>
      <trkpt lat="42.8745140" lon="-8.4989200">
        <ele>265.1</ele>
        <time>2022-04-14T10:48:52Z</time>
      </trkpt>
      <trkpt lat="42.8743870" lon="-8.4989810">
        <ele>263.5</ele>
        <time>2022-04-14T10:48:53Z</time>
      </trkpt>
      <trkpt lat="42.8742570" lon="-8.4990440">
        <ele>261.8</ele>
        <time>2022-04-14T10:48:54Z</time>
      </trkpt>
      <trkpt lat="42.8741320" lon="-8.4991090">
        <ele>260.2</ele>
        <time>2022-04-14T10:48:55Z</time>
      </trkpt>
      <trkpt lat="42.8740110" lon="-8.4991650">
        <ele>258.7</ele>
        <time>2022-04-14T10:48:56Z</time>
      </trkpt>
      <trkpt lat="42.8738890" lon="-8.4992220">
        <ele>257.2</ele>
        <time>2022-04-14T10:48:57Z</time>
      </trkpt>
      <trkpt lat="42.8737590" lon="-8.4992920">
        <ele>255.7</ele>
        <time>2022-04-14T10:48:58Z</time>
      </trkpt>
      <trkpt lat="42.8736210" lon="-8.4993630">
        <ele>254.1</ele>
        <time>2022-04-14T10:48:59Z</time>
      </trkpt>
      <trkpt lat="42.8734860" lon="-8.4994250">
        <ele>252.7</ele>
        <time>2022-04-14T10:49:00Z</time>
      </trkpt>
      <trkpt lat="42.8733570" lon="-8.4994920">
        <ele>251.3</ele>
        <time>2022-04-14T10:49:01Z</time>
      </trkpt>
      <trkpt lat="42.8732230" lon="-8.4995560">
        <ele>249.9</ele>
        <time>2022-04-14T10:49:02Z</time>
      </trkpt>
      <trkpt lat="42.8729490" lon="-8.4996870">
        <ele>247.6</ele>
        <time>2022-04-14T10:49:03Z</time>
      </trkpt>
      <trkpt lat="42.8729490" lon="-8.4996870">
        <ele>247.6</ele>
        <time>2022-04-14T10:49:04Z</time>
      </trkpt>
      <trkpt lat="42.8728070" lon="-8.4997490">
        <ele>246.4</ele>
        <time>2022-04-14T10:49:05Z</time>
      </trkpt>
      <trkpt lat="42.8725380" lon="-8.4998650">
        <ele>244.1</ele>
        <time>2022-04-14T10:49:06Z</time>
      </trkpt>
      <trkpt lat="42.8725380" lon="-8.4998650">
        <ele>244.1</ele>
        <time>2022-04-14T10:49:07Z</time>
      </trkpt>
      <trkpt lat="42.8724010" lon="-8.4999240">
        <ele>243.0</ele>
        <time>2022-04-14T10:49:08Z</time>
      </trkpt>
      <trkpt lat="42.8722700" lon="-8.4999860">
        <ele>242.1</ele>
        <time>2022-04-14T10:49:09Z</time>
      </trkpt>
      <trkpt lat="42.8721340" lon="-8.5000520">
        <ele>241.3</ele>
        <time>2022-04-14T10:49:10Z</time>
      </trkpt>
      <trkpt lat="42.8720100" lon="-8.5001190">
        <ele>240.7</ele>
        <time>2022-04-14T10:49:11Z</time>
      </trkpt>
      <trkpt lat="42.8718820" lon="-8.5001850">
        <ele>240.2</ele>
        <time>2022-04-14T10:49:12Z</time>
      </trkpt>
      <trkpt lat="42.8717550" lon="-8.5002480">
        <ele>239.8</ele>
        <time>2022-04-14T10:49:13Z</time>
      </trkpt>
      <trkpt lat="42.8716300" lon="-8.5003110">
        <ele>239.5</ele>
        <time>2022-04-14T10:49:14Z</time>
      </trkpt>
      <trkpt lat="42.8715050" lon="-8.5003750">
        <ele>239.2</ele>
        <time>2022-04-14T10:49:15Z</time>
      </trkpt>
      <trkpt lat="42.8713890" lon="-8.5004310">
        <ele>238.9</ele>
        <time>2022-04-14T10:49:16Z</time>
      </trkpt>
      <trkpt lat="42.8712760" lon="-8.5004900">
        <ele>238.7</ele>
        <time>2022-04-14T10:49:17Z</time>
      </trkpt>
      <trkpt lat="42.8711610" lon="-8.5005510">
        <ele>238.4</ele>
        <time>2022-04-14T10:49:18Z</time>
      </trkpt>
      <trkpt lat="42.8710500" lon="-8.5006050">
        <ele>238.1</ele>
        <time>2022-04-14T10:49:19Z</time>
      </trkpt>
      <trkpt lat="42.8709400" lon="-8.5006630">
        <ele>238.1</ele>
        <time>2022-04-14T10:49:20Z</time>
      </trkpt>
      <trkpt lat="42.8708310" lon="-8.5007170">
        <ele>238.1</ele>
        <time>2022-04-14T10:49:21Z</time>
      </trkpt>
      <trkpt lat="42.8706220" lon="-8.5008220">
        <ele>238.2</ele>
        <time>2022-04-14T10:49:22Z</time>
      </trkpt>
      <trkpt lat="42.8706220" lon="-8.5008220">
        <ele>238.2</ele>
        <time>2022-04-14T10:49:23Z</time>
      </trkpt>
      <trkpt lat="42.8705180" lon="-8.5008660">
        <ele>238.3</ele>
        <time>2022-04-14T10:49:24Z</time>
      </trkpt>
      <trkpt lat="42.8704100" lon="-8.5009060">
        <ele>238.4</ele>
        <time>2022-04-14T10:49:25Z</time>
      </trkpt>
      <trkpt lat="42.8703070" lon="-8.5009500">
        <ele>238.6</ele>
        <time>2022-04-14T10:49:26Z</time>
      </trkpt>
      <trkpt lat="42.8702030" lon="-8.5009920">
        <ele>238.8</ele>
        <time>2022-04-14T10:49:27Z</time>
      </trkpt>
      <trkpt lat="42.8701020" lon="-8.5010380">
        <ele>239.0</ele>
        <time>2022-04-14T10:49:28Z</time>
      </trkpt>
      <trkpt lat="42.8700110" lon="-8.5010770">
        <ele>239.3</ele>
        <time>2022-04-14T10:49:29Z</time>
      </trkpt>
      <trkpt lat="42.8699230" lon="-8.5011240">
        <ele>239.6</ele>
        <time>2022-04-14T10:49:30Z</time>
      </trkpt>
      <trkpt lat="42.8698320" lon="-8.5011650">
        <ele>239.8</ele>
        <time>2022-04-14T10:49:31Z</time>
      </trkpt>
      <trkpt lat="42.8697430" lon="-8.5012100">
        <ele>240.1</ele>
        <time>2022-04-14T10:49:32Z</time>
      </trkpt>
      <trkpt lat="42.8696560" lon="-8.5012450">
        <ele>240.3</ele>
        <time>2022-04-14T10:49:33Z</time>
      </trkpt>
      <trkpt lat="42.8696120" lon="-8.5012630">
        <ele>240.4</ele>
        <time>2022-04-14T10:49:34Z</time>
      </trkpt>
      <trkpt lat="42.8695690" lon="-8.5012810">
        <ele>240.6</ele>
        <time>2022-04-14T10:49:35Z</time>
      </trkpt>
      <trkpt lat="42.8694420" lon="-8.5013370">
        <ele>241.0</ele>
        <time>2022-04-14T10:49:36Z</time>
      </trkpt>
      <trkpt lat="42.8694030" lon="-8.5013560">
        <ele>241.1</ele>
        <time>2022-04-14T10:49:37Z</time>
      </trkpt>
      <trkpt lat="42.8692640" lon="-8.5014270">
        <ele>241.6</ele>
        <time>2022-04-14T10:49:38Z</time>
      </trkpt>
      <trkpt lat="42.8692050" lon="-8.5014590">
        <ele>241.9</ele>
        <time>2022-04-14T10:49:39Z</time>
      </trkpt>
      <trkpt lat="42.8690860" lon="-8.5015220">
        <ele>242.4</ele>
        <time>2022-04-14T10:49:40Z</time>
      </trkpt>
      <trkpt lat="42.8689220" lon="-8.5015890">
        <ele>243.2</ele>
        <time>2022-04-14T10:49:41Z</time>
      </trkpt>
      <trkpt lat="42.8689220" lon="-8.5015890">
        <ele>243.2</ele>
        <time>2022-04-14T10:49:42Z</time>
      </trkpt>
      <trkpt lat="42.8688610" lon="-8.5016250">
        <ele>243.5</ele>
        <time>2022-04-14T10:49:43Z</time>
      </trkpt>
      <trkpt lat="42.8688000" lon="-8.5016610">
        <ele>243.7</ele>
        <time>2022-04-14T10:49:44Z</time>
      </trkpt>
      <trkpt lat="42.8687380" lon="-8.5016960">
        <ele>243.9</ele>
        <time>2022-04-14T10:49:45Z</time>
      </trkpt>
      <trkpt lat="42.8685550" lon="-8.5018030">
        <ele>243.9</ele>
        <time>2022-04-14T10:49:46Z</time>
      </trkpt>
      <trkpt lat="42.8685550" lon="-8.5018030">
        <ele>243.9</ele>
        <time>2022-04-14T10:49:47Z</time>
      </trkpt>
      <trkpt lat="42.8685210" lon="-8.5018250">
        <ele>243.9</ele>
        <time>2022-04-14T10:49:48Z</time>
      </trkpt>
      <trkpt lat="42.8684870" lon="-8.5018460">
        <ele>243.8</ele>
        <time>2022-04-14T10:49:49Z</time>
      </trkpt>
      <trkpt lat="42.8683810" lon="-8.5019040">
        <ele>243.4</ele>
        <time>2022-04-14T10:49:50Z</time>
      </trkpt>
      <trkpt lat="42.8683430" lon="-8.5019190">
        <ele>243.2</ele>
        <time>2022-04-14T10:49:51Z</time>
      </trkpt>
      <trkpt lat="42.8682250" lon="-8.5019660">
        <ele>242.6</ele>
        <time>2022-04-14T10:49:52Z</time>
      </trkpt>
      <trkpt lat="42.8681840" lon="-8.5019830">
        <ele>242.4</ele>
        <time>2022-04-14T10:49:53Z</time>
      </trkpt>
      <trkpt lat="42.8680390" lon="-8.5020440">
        <ele>241.5</ele>
        <time>2022-04-14T10:49:54Z</time>
      </trkpt>
      <trkpt lat="42.8679770" lon="-8.5020710">
        <ele>241.1</ele>
        <time>2022-04-14T10:49:55Z</time>
      </trkpt>
      <trkpt lat="42.8678540" lon="-8.5021250">
        <ele>240.3</ele>
        <time>2022-04-14T10:49:56Z</time>
      </trkpt>
      <trkpt lat="42.8677620" lon="-8.5021620">
        <ele>239.7</ele>
        <time>2022-04-14T10:49:57Z</time>
      </trkpt>
      <trkpt lat="42.8676660" lon="-8.5022090">
        <ele>238.9</ele>
        <time>2022-04-14T10:49:58Z</time>
      </trkpt>
      <trkpt lat="42.8675650" lon="-8.5022550">
        <ele>238.2</ele>
        <time>2022-04-14T10:49:59Z</time>
      </trkpt>
      <trkpt lat="42.8673620" lon="-8.5023430">
        <ele>236.6</ele>
        <time>2022-04-14T10:50:00Z</time>
      </trkpt>
      <trkpt lat="42.8673620" lon="-8.5023430">
        <ele>236.6</ele>
        <time>2022-04-14T10:50:01Z</time>
      </trkpt>
      <trkpt lat="42.8672580" lon="-8.5023970">
        <ele>235.7</ele>
        <time>2022-04-14T10:50:02Z</time>
      </trkpt>
      <trkpt lat="42.8671540" lon="-8.5024490">
        <ele>234.7</ele>
        <time>2022-04-14T10:50:03Z</time>
      </trkpt>
      <trkpt lat="42.8670470" lon="-8.5024990">
        <ele>233.7</ele>
        <time>2022-04-14T10:50:04Z</time>
      </trkpt>
      <trkpt lat="42.8669430" lon="-8.5025470">
        <ele>232.7</ele>
        <time>2022-04-14T10:50:05Z</time>
      </trkpt>
      <trkpt lat="42.8668370" lon="-8.5026010">
        <ele>231.6</ele>
        <time>2022-04-14T10:50:06Z</time>
      </trkpt>
      <trkpt lat="42.8667280" lon="-8.5026590">
        <ele>230.6</ele>
        <time>2022-04-14T10:50:07Z</time>
      </trkpt>
      <trkpt lat="42.8666210" lon="-8.5027130">
        <ele>229.6</ele>
        <time>2022-04-14T10:50:08Z</time>
      </trkpt>
      <trkpt lat="42.8665140" lon="-8.5027690">
        <ele>228.7</ele>
        <time>2022-04-14T10:50:09Z</time>
      </trkpt>
      <trkpt lat="42.8664020" lon="-8.5028180">
        <ele>227.8</ele>
        <time>2022-04-14T10:50:10Z</time>
      </trkpt>
      <trkpt lat="42.8662970" lon="-8.5028700">
        <ele>227.0</ele>
        <time>2022-04-14T10:50:11Z</time>
      </trkpt>
      <trkpt lat="42.8661900" lon="-8.5029220">
        <ele>226.2</ele>
        <time>2022-04-14T10:50:12Z</time>
      </trkpt>
      <trkpt lat="42.8660860" lon="-8.5029690">
        <ele>225.4</ele>
        <time>2022-04-14T10:50:13Z</time>
      </trkpt>
      <trkpt lat="42.8659820" lon="-8.5030230">
        <ele>224.6</ele>
        <time>2022-04-14T10:50:14Z</time>
      </trkpt>
      <trkpt lat="42.8658810" lon="-8.5030730">
        <ele>223.9</ele>
        <time>2022-04-14T10:50:15Z</time>
      </trkpt>
      <trkpt lat="42.8657760" lon="-8.5031200">
        <ele>223.2</ele>
        <time>2022-04-14T10:50:16Z</time>
      </trkpt>
      <trkpt lat="42.8656760" lon="-8.5031640">
        <ele>222.6</ele>
        <time>2022-04-14T10:50:17Z</time>
      </trkpt>
      <trkpt lat="42.8655720" lon="-8.5032120">
        <ele>221.9</ele>
        <time>2022-04-14T10:50:18Z</time>
      </trkpt>
      <trkpt lat="42.8654660" lon="-8.5032580">
        <ele>221.3</ele>
        <time>2022-04-14T10:50:19Z</time>
      </trkpt>
      <trkpt lat="42.8653610" lon="-8.5033050">
        <ele>220.8</ele>
        <time>2022-04-14T10:50:20Z</time>
      </trkpt>
      <trkpt lat="42.8652590" lon="-8.5033560">
        <ele>220.5</ele>
        <time>2022-04-14T10:50:21Z</time>
      </trkpt>
      <trkpt lat="42.8651630" lon="-8.5034060">
        <ele>220.4</ele>
        <time>2022-04-14T10:50:22Z</time>
      </trkpt>
      <trkpt lat="42.8650670" lon="-8.5034580">
        <ele>220.3</ele>
        <time>2022-04-14T10:50:23Z</time>
      </trkpt>
      <trkpt lat="42.8649730" lon="-8.5035080">
        <ele>220.3</ele>
        <time>2022-04-14T10:50:24Z</time>
      </trkpt>
      <trkpt lat="42.8648860" lon="-8.5035500">
        <ele>220.3</ele>
        <time>2022-04-14T10:50:25Z</time>
      </trkpt>
      <trkpt lat="42.8647940" lon="-8.5035970">
        <ele>220.4</ele>
        <time>2022-04-14T10:50:26Z</time>
      </trkpt>
      <trkpt lat="42.8647080" lon="-8.5036390">
        <ele>220.4</ele>
        <time>2022-04-14T10:50:27Z</time>
      </trkpt>
      <trkpt lat="42.8646200" lon="-8.5036800">
        <ele>220.4</ele>
        <time>2022-04-14T10:50:28Z</time>
      </trkpt>
      <trkpt lat="42.8645280" lon="-8.5037200">
        <ele>220.4</ele>
        <time>2022-04-14T10:50:29Z</time>
      </trkpt>
      <trkpt lat="42.8644640" lon="-8.5037490">
        <ele>220.4</ele>
        <time>2022-04-14T10:50:30Z</time>
      </trkpt>
      <trkpt lat="42.8643990" lon="-8.5037770">
        <ele>220.4</ele>
        <time>2022-04-14T10:50:31Z</time>
      </trkpt>
      <trkpt lat="42.8642710" lon="-8.5038330">
        <ele>220.2</ele>
        <time>2022-04-14T10:50:32Z</time>
      </trkpt>
      <trkpt lat="42.8641850" lon="-8.5038780">
        <ele>220.0</ele>
        <time>2022-04-14T10:50:33Z</time>
      </trkpt>
      <trkpt lat="42.8640960" lon="-8.5039230">
        <ele>219.8</ele>
        <time>2022-04-14T10:50:34Z</time>
      </trkpt>
      <trkpt lat="42.8640540" lon="-8.5039430">
        <ele>219.8</ele>
        <time>2022-04-14T10:50:35Z</time>
      </trkpt>
      <trkpt lat="42.8640120" lon="-8.5039630">
        <ele>219.7</ele>
        <time>2022-04-14T10:50:36Z</time>
      </trkpt>
      <trkpt lat="42.8638630" lon="-8.5040340">
        <ele>219.3</ele>
        <time>2022-04-14T10:50:37Z</time>
      </trkpt>
      <trkpt lat="42.8637980" lon="-8.5040640">
        <ele>219.1</ele>
        <time>2022-04-14T10:50:38Z</time>
      </trkpt>
      <trkpt lat="42.8636690" lon="-8.5041240">
        <ele>218.7</ele>
        <time>2022-04-14T10:50:39Z</time>
      </trkpt>
      <trkpt lat="42.8635810" lon="-8.5041700">
        <ele>218.4</ele>
        <time>2022-04-14T10:50:40Z</time>
      </trkpt>
      <trkpt lat="42.8634900" lon="-8.5042200">
        <ele>218.1</ele>
        <time>2022-04-14T10:50:41Z</time>
      </trkpt>
      <trkpt lat="42.8634030" lon="-8.5042630">
        <ele>217.9</ele>
        <time>2022-04-14T10:50:42Z</time>
      </trkpt>
      <trkpt lat="42.8633170" lon="-8.5043070">
        <ele>217.6</ele>
        <time>2022-04-14T10:50:43Z</time>
      </trkpt>
      <trkpt lat="42.8632270" lon="-8.5043510">
        <ele>217.3</ele>
        <time>2022-04-14T10:50:44Z</time>
      </trkpt>
      <trkpt lat="42.8631430" lon="-8.5043950">
        <ele>217.1</ele>
        <time>2022-04-14T10:50:45Z</time>
      </trkpt>
      <trkpt lat="42.8630550" lon="-8.5044330">
        <ele>216.7</ele>
        <time>2022-04-14T10:50:46Z</time>
      </trkpt>
      <trkpt lat="42.8629880" lon="-8.5044660">
        <ele>216.3</ele>
        <time>2022-04-14T10:50:47Z</time>
      </trkpt>
      <trkpt lat="42.8629210" lon="-8.5044990">
        <ele>215.9</ele>
        <time>2022-04-14T10:50:48Z</time>
      </trkpt>
      <trkpt lat="42.8627880" lon="-8.5045640">
        <ele>215.1</ele>
        <time>2022-04-14T10:50:49Z</time>
      </trkpt>
      <trkpt lat="42.8626990" lon="-8.5046050">
        <ele>214.5</ele>
        <time>2022-04-14T10:50:50Z</time>
      </trkpt>
      <trkpt lat="42.8626090" lon="-8.5046460">
        <ele>213.9</ele>
        <time>2022-04-14T10:50:51Z</time>
      </trkpt>
      <trkpt lat="42.8625220" lon="-8.5046890">
        <ele>213.3</ele>
        <time>2022-04-14T10:50:52Z</time>
      </trkpt>
      <trkpt lat="42.8624340" lon="-8.5047320">
        <ele>212.7</ele>
        <time>2022-04-14T10:50:53Z</time>
      </trkpt>
      <trkpt lat="42.8623420" lon="-8.5047820">
        <ele>212.1</ele>
        <time>2022-04-14T10:50:54Z</time>
      </trkpt>
      <trkpt lat="42.8622480" lon="-8.5048280">
        <ele>211.4</ele>
        <time>2022-04-14T10:50:55Z</time>
      </trkpt>
      <trkpt lat="42.8621580" lon="-8.5048710">
        <ele>210.8</ele>
        <time>2022-04-14T10:50:56Z</time>
      </trkpt>
      <trkpt lat="42.8619710" lon="-8.5049730">
        <ele>209.6</ele>
        <time>2022-04-14T10:50:57Z</time>
      </trkpt>
      <trkpt lat="42.8619710" lon="-8.5049730">
        <ele>209.6</ele>
        <time>2022-04-14T10:50:58Z</time>
      </trkpt>
      <trkpt lat="42.8618760" lon="-8.5050220">
        <ele>209.0</ele>
        <time>2022-04-14T10:50:59Z</time>
      </trkpt>
      <trkpt lat="42.8617820" lon="-8.5050670">
        <ele>208.5</ele>
        <time>2022-04-14T10:51:00Z</time>
      </trkpt>
      <trkpt lat="42.8616870" lon="-8.5051170">
        <ele>208.0</ele>
        <time>2022-04-14T10:51:01Z</time>
      </trkpt>
      <trkpt lat="42.8615950" lon="-8.5051610">
        <ele>207.6</ele>
        <time>2022-04-14T10:51:02Z</time>
      </trkpt>
      <trkpt lat="42.8615080" lon="-8.5052070">
        <ele>207.3</ele>
        <time>2022-04-14T10:51:03Z</time>
      </trkpt>
      <trkpt lat="42.8614150" lon="-8.5052560">
        <ele>206.9</ele>
        <time>2022-04-14T10:51:04Z</time>
      </trkpt>
      <trkpt lat="42.8613280" lon="-8.5052970">
        <ele>206.6</ele>
        <time>2022-04-14T10:51:05Z</time>
      </trkpt>
      <trkpt lat="42.8612970" lon="-8.5053130">
        <ele>206.5</ele>
        <time>2022-04-14T10:51:06Z</time>
      </trkpt>
      <trkpt lat="42.8612660" lon="-8.5053280">
        <ele>206.4</ele>
        <time>2022-04-14T10:51:07Z</time>
      </trkpt>
      <trkpt lat="42.8611800" lon="-8.5053920">
        <ele>206.1</ele>
        <time>2022-04-14T10:51:08Z</time>
      </trkpt>
      <trkpt lat="42.8611550" lon="-8.5054250">
        <ele>206.1</ele>
        <time>2022-04-14T10:51:09Z</time>
      </trkpt>
      <trkpt lat="42.8611300" lon="-8.5054580">
        <ele>206.1</ele>
        <time>2022-04-14T10:51:10Z</time>
      </trkpt>
      <trkpt lat="42.8611260" lon="-8.5054870">
        <ele>206.1</ele>
        <time>2022-04-14T10:51:11Z</time>
      </trkpt>
      <trkpt lat="42.8611220" lon="-8.5055160">
        <ele>206.1</ele>
        <time>2022-04-14T10:51:12Z</time>
      </trkpt>
      <trkpt lat="42.8611170" lon="-8.5055440">
        <ele>206.1</ele>
        <time>2022-04-14T10:51:13Z</time>
      </trkpt>
      <trkpt lat="42.8610980" lon="-8.5056970">
        <ele>206.2</ele>
        <time>2022-04-14T10:51:14Z</time>
      </trkpt>
      <trkpt lat="42.8610910" lon="-8.5057640">
        <ele>206.5</ele>
        <time>2022-04-14T10:51:15Z</time>
      </trkpt>
      <trkpt lat="42.8610700" lon="-8.5058950">
        <ele>206.9</ele>
        <time>2022-04-14T10:51:16Z</time>
      </trkpt>
      <trkpt lat="42.8610700" lon="-8.5058950">
        <ele>206.9</ele>
        <time>2022-04-14T10:51:17Z</time>
      </trkpt>
      <trkpt lat="42.8610660" lon="-8.5059330">
        <ele>207.1</ele>
        <time>2022-04-14T10:51:18Z</time>
      </trkpt>
      <trkpt lat="42.8610610" lon="-8.5059710">
        <ele>207.2</ele>
        <time>2022-04-14T10:51:19Z</time>
      </trkpt>
      <trkpt lat="42.8610430" lon="-8.5061130">
        <ele>207.7</ele>
        <time>2022-04-14T10:51:20Z</time>
      </trkpt>
      <trkpt lat="42.8610340" lon="-8.5061790">
        <ele>208.0</ele>
        <time>2022-04-14T10:51:21Z</time>
      </trkpt>
      <trkpt lat="42.8610220" lon="-8.5062480">
        <ele>208.3</ele>
        <time>2022-04-14T10:51:22Z</time>
      </trkpt>
      <trkpt lat="42.8610100" lon="-8.5063160">
        <ele>208.5</ele>
        <time>2022-04-14T10:51:23Z</time>
      </trkpt>
      <trkpt lat="42.8610050" lon="-8.5063510">
        <ele>208.7</ele>
        <time>2022-04-14T10:51:24Z</time>
      </trkpt>
      <trkpt lat="42.8610000" lon="-8.5063860">
        <ele>208.8</ele>
        <time>2022-04-14T10:51:25Z</time>
      </trkpt>
      <trkpt lat="42.8609820" lon="-8.5064920">
        <ele>209.2</ele>
        <time>2022-04-14T10:51:26Z</time>
      </trkpt>
      <trkpt lat="42.8609750" lon="-8.5065280">
        <ele>209.4</ele>
        <time>2022-04-14T10:51:27Z</time>
      </trkpt>
      <trkpt lat="42.8609540" lon="-8.5066380">
        <ele>209.8</ele>
        <time>2022-04-14T10:51:28Z</time>
      </trkpt>
      <trkpt lat="42.8609470" lon="-8.5066760">
        <ele>210.0</ele>
        <time>2022-04-14T10:51:29Z</time>
      </trkpt>
      <trkpt lat="42.8609260" lon="-8.5067850">
        <ele>210.4</ele>
        <time>2022-04-14T10:51:30Z</time>
      </trkpt>
      <trkpt lat="42.8609170" lon="-8.5068190">
        <ele>210.6</ele>
        <time>2022-04-14T10:51:31Z</time>
      </trkpt>
      <trkpt lat="42.8608800" lon="-8.5069530">
        <ele>211.1</ele>
        <time>2022-04-14T10:51:32Z</time>
      </trkpt>
      <trkpt lat="42.8608600" lon="-8.5070190">
        <ele>211.3</ele>
        <time>2022-04-14T10:51:33Z</time>
      </trkpt>
      <trkpt lat="42.8608510" lon="-8.5070550">
        <ele>211.4</ele>
        <time>2022-04-14T10:51:34Z</time>
      </trkpt>
      <trkpt lat="42.8608410" lon="-8.5070900">
        <ele>211.6</ele>
        <time>2022-04-14T10:51:35Z</time>
      </trkpt>
      <trkpt lat="42.8608100" lon="-8.5071940">
        <ele>212.0</ele>
        <time>2022-04-14T10:51:36Z</time>
      </trkpt>
      <trkpt lat="42.8607990" lon="-8.5072270">
        <ele>212.1</ele>
        <time>2022-04-14T10:51:37Z</time>
      </trkpt>
      <trkpt lat="42.8607660" lon="-8.5073290">
        <ele>212.5</ele>
        <time>2022-04-14T10:51:38Z</time>
      </trkpt>
      <trkpt lat="42.8607550" lon="-8.5073640">
        <ele>212.7</ele>
        <time>2022-04-14T10:51:39Z</time>
      </trkpt>
      <trkpt lat="42.8607200" lon="-8.5074680">
        <ele>213.2</ele>
        <time>2022-04-14T10:51:40Z</time>
      </trkpt>
      <trkpt lat="42.8607060" lon="-8.5075020">
        <ele>213.4</ele>
        <time>2022-04-14T10:51:41Z</time>
      </trkpt>
      <trkpt lat="42.8606430" lon="-8.5076230">
        <ele>214.1</ele>
        <time>2022-04-14T10:51:42Z</time>
      </trkpt>
      <trkpt lat="42.8606090" lon="-8.5076750">
        <ele>214.4</ele>
        <time>2022-04-14T10:51:43Z</time>
      </trkpt>
      <trkpt lat="42.8605890" lon="-8.5076980">
        <ele>214.6</ele>
        <time>2022-04-14T10:51:44Z</time>
      </trkpt>
      <trkpt lat="42.8605680" lon="-8.5077210">
        <ele>214.8</ele>
        <time>2022-04-14T10:51:45Z</time>
      </trkpt>
      <trkpt lat="42.8605070" lon="-8.5077800">
        <ele>215.3</ele>
        <time>2022-04-14T10:51:46Z</time>
      </trkpt>
      <trkpt lat="42.8604880" lon="-8.5077930">
        <ele>215.5</ele>
        <time>2022-04-14T10:51:47Z</time>
      </trkpt>
      <trkpt lat="42.8604680" lon="-8.5078050">
        <ele>215.6</ele>
        <time>2022-04-14T10:51:48Z</time>
      </trkpt>
      <trkpt lat="42.8603910" lon="-8.5078520">
        <ele>216.3</ele>
        <time>2022-04-14T10:51:49Z</time>
      </trkpt>
      <trkpt lat="42.8603720" lon="-8.5078600">
        <ele>216.4</ele>
        <time>2022-04-14T10:51:50Z</time>
      </trkpt>
      <trkpt lat="42.8603530" lon="-8.5078680">
        <ele>216.6</ele>
        <time>2022-04-14T10:51:51Z</time>
      </trkpt>
      <trkpt lat="42.8602760" lon="-8.5078980">
        <ele>217.1</ele>
        <time>2022-04-14T10:51:52Z</time>
      </trkpt>
      <trkpt lat="42.8602580" lon="-8.5079020">
        <ele>217.2</ele>
        <time>2022-04-14T10:51:53Z</time>
      </trkpt>
      <trkpt lat="42.8602390" lon="-8.5079060">
        <ele>217.3</ele>
        <time>2022-04-14T10:51:54Z</time>
      </trkpt>
      <trkpt lat="42.8601620" lon="-8.5079260">
        <ele>217.6</ele>
        <time>2022-04-14T10:51:55Z</time>
      </trkpt>
      <trkpt lat="42.8601410" lon="-8.5079340">
        <ele>217.7</ele>
        <time>2022-04-14T10:51:56Z</time>
      </trkpt>
      <trkpt lat="42.8601210" lon="-8.5079410">
        <ele>217.8</ele>
        <time>2022-04-14T10:51:57Z</time>
      </trkpt>
      <trkpt lat="42.8600390" lon="-8.5079750">
        <ele>218.2</ele>
        <time>2022-04-14T10:51:58Z</time>
      </trkpt>
      <trkpt lat="42.8600200" lon="-8.5079860">
        <ele>218.3</ele>
        <time>2022-04-14T10:51:59Z</time>
      </trkpt>
      <trkpt lat="42.8600000" lon="-8.5079970">
        <ele>218.5</ele>
        <time>2022-04-14T10:52:00Z</time>
      </trkpt>
      <trkpt lat="42.8599220" lon="-8.5080420">
        <ele>219.1</ele>
        <time>2022-04-14T10:52:01Z</time>
      </trkpt>
      <trkpt lat="42.8599030" lon="-8.5080550">
        <ele>219.2</ele>
        <time>2022-04-14T10:52:02Z</time>
      </trkpt>
      <trkpt lat="42.8598850" lon="-8.5080670">
        <ele>219.4</ele>
        <time>2022-04-14T10:52:03Z</time>
      </trkpt>
      <trkpt lat="42.8598100" lon="-8.5081160">
        <ele>220.0</ele>
        <time>2022-04-14T10:52:04Z</time>
      </trkpt>
      <trkpt lat="42.8597900" lon="-8.5081280">
        <ele>220.2</ele>
        <time>2022-04-14T10:52:05Z</time>
      </trkpt>
      <trkpt lat="42.8597700" lon="-8.5081390">
        <ele>220.3</ele>
        <time>2022-04-14T10:52:06Z</time>
      </trkpt>
      <trkpt lat="42.8596910" lon="-8.5081850">
        <ele>221.0</ele>
        <time>2022-04-14T10:52:07Z</time>
      </trkpt>
      <trkpt lat="42.8596710" lon="-8.5081980">
        <ele>221.2</ele>
        <time>2022-04-14T10:52:08Z</time>
      </trkpt>
      <trkpt lat="42.8596520" lon="-8.5082110">
        <ele>221.3</ele>
        <time>2022-04-14T10:52:09Z</time>
      </trkpt>
      <trkpt lat="42.8595760" lon="-8.5082610">
        <ele>222.0</ele>
        <time>2022-04-14T10:52:10Z</time>
      </trkpt>
      <trkpt lat="42.8595590" lon="-8.5082730">
        <ele>222.2</ele>
        <time>2022-04-14T10:52:11Z</time>
      </trkpt>
      <trkpt lat="42.8595420" lon="-8.5082840">
        <ele>222.3</ele>
        <time>2022-04-14T10:52:12Z</time>
      </trkpt>
      <trkpt lat="42.8594720" lon="-8.5083310">
        <ele>223.0</ele>
        <time>2022-04-14T10:52:13Z</time>
      </trkpt>
      <trkpt lat="42.8594530" lon="-8.5083440">
        <ele>223.1</ele>
        <time>2022-04-14T10:52:14Z</time>
      </trkpt>
      <trkpt lat="42.8594340" lon="-8.5083560">
        <ele>223.3</ele>
        <time>2022-04-14T10:52:15Z</time>
      </trkpt>
      <trkpt lat="42.8593600" lon="-8.5084010">
        <ele>224.0</ele>
        <time>2022-04-14T10:52:16Z</time>
      </trkpt>
      <trkpt lat="42.8593410" lon="-8.5084100">
        <ele>224.1</ele>
        <time>2022-04-14T10:52:17Z</time>
      </trkpt>
      <trkpt lat="42.8593220" lon="-8.5084190">
        <ele>224.3</ele>
        <time>2022-04-14T10:52:18Z</time>
      </trkpt>
      <trkpt lat="42.8592470" lon="-8.5084530">
        <ele>225.0</ele>
        <time>2022-04-14T10:52:19Z</time>
      </trkpt>
      <trkpt lat="42.8592290" lon="-8.5084600">
        <ele>225.1</ele>
        <time>2022-04-14T10:52:20Z</time>
      </trkpt>
      <trkpt lat="42.8592110" lon="-8.5084670">
        <ele>225.3</ele>
        <time>2022-04-14T10:52:21Z</time>
      </trkpt>
      <trkpt lat="42.8591370" lon="-8.5084940">
        <ele>225.9</ele>
        <time>2022-04-14T10:52:22Z</time>
      </trkpt>
      <trkpt lat="42.8591170" lon="-8.5085000">
        <ele>226.0</ele>
        <time>2022-04-14T10:52:23Z</time>
      </trkpt>
      <trkpt lat="42.8590970" lon="-8.5085050">
        <ele>226.2</ele>
        <time>2022-04-14T10:52:24Z</time>
      </trkpt>
      <trkpt lat="42.8590180" lon="-8.5085320">
        <ele>226.8</ele>
        <time>2022-04-14T10:52:25Z</time>
      </trkpt>
      <trkpt lat="42.8589990" lon="-8.5085420">
        <ele>227.0</ele>
        <time>2022-04-14T10:52:26Z</time>
      </trkpt>
      <trkpt lat="42.8589790" lon="-8.5085520">
        <ele>227.2</ele>
        <time>2022-04-14T10:52:27Z</time>
      </trkpt>
      <trkpt lat="42.8589040" lon="-8.5086010">
        <ele>227.8</ele>
        <time>2022-04-14T10:52:28Z</time>
      </trkpt>
      <trkpt lat="42.8588860" lon="-8.5086190">
        <ele>228.0</ele>
        <time>2022-04-14T10:52:29Z</time>
      </trkpt>
      <trkpt lat="42.8588690" lon="-8.5086380">
        <ele>228.2</ele>
        <time>2022-04-14T10:52:30Z</time>
      </trkpt>
      <trkpt lat="42.8587870" lon="-8.5087360">
        <ele>229.2</ele>
        <time>2022-04-14T10:52:31Z</time>
      </trkpt>
      <trkpt lat="42.8587570" lon="-8.5087780">
        <ele>229.6</ele>
        <time>2022-04-14T10:52:32Z</time>
      </trkpt>
      <trkpt lat="42.8587270" lon="-8.5088200">
        <ele>229.9</ele>
        <time>2022-04-14T10:52:33Z</time>
      </trkpt>
      <trkpt lat="42.8587110" lon="-8.5088360">
        <ele>230.1</ele>
        <time>2022-04-14T10:52:34Z</time>
      </trkpt>
      <trkpt lat="42.8586950" lon="-8.5088530">
        <ele>230.3</ele>
        <time>2022-04-14T10:52:35Z</time>
      </trkpt>
      <trkpt lat="42.8586790" lon="-8.5088690">
        <ele>230.4</ele>
        <time>2022-04-14T10:52:36Z</time>
      </trkpt>
      <trkpt lat="42.8586180" lon="-8.5089370">
        <ele>231.1</ele>
        <time>2022-04-14T10:52:37Z</time>
      </trkpt>
      <trkpt lat="42.8586050" lon="-8.5089560">
        <ele>231.3</ele>
        <time>2022-04-14T10:52:38Z</time>
      </trkpt>
      <trkpt lat="42.8585910" lon="-8.5089750">
        <ele>231.4</ele>
        <time>2022-04-14T10:52:39Z</time>
      </trkpt>
      <trkpt lat="42.8585370" lon="-8.5090520">
        <ele>232.1</ele>
        <time>2022-04-14T10:52:40Z</time>
      </trkpt>
      <trkpt lat="42.8585230" lon="-8.5090700">
        <ele>232.2</ele>
        <time>2022-04-14T10:52:41Z</time>
      </trkpt>
      <trkpt lat="42.8585090" lon="-8.5090880">
        <ele>232.4</ele>
        <time>2022-04-14T10:52:42Z</time>
      </trkpt>
      <trkpt lat="42.8584520" lon="-8.5091620">
        <ele>233.1</ele>
        <time>2022-04-14T10:52:43Z</time>
      </trkpt>
      <trkpt lat="42.8584370" lon="-8.5091810">
        <ele>233.2</ele>
        <time>2022-04-14T10:52:44Z</time>
      </trkpt>
      <trkpt lat="42.8584220" lon="-8.5092000">
        <ele>233.4</ele>
        <time>2022-04-14T10:52:45Z</time>
      </trkpt>
      <trkpt lat="42.8583460" lon="-8.5093070">
        <ele>234.2</ele>
        <time>2022-04-14T10:52:46Z</time>
      </trkpt>
      <trkpt lat="42.8583140" lon="-8.5093550">
        <ele>234.6</ele>
        <time>2022-04-14T10:52:47Z</time>
      </trkpt>
      <trkpt lat="42.8582890" lon="-8.5094080">
        <ele>234.9</ele>
        <time>2022-04-14T10:52:48Z</time>
      </trkpt>
      <trkpt lat="42.8582630" lon="-8.5094610">
        <ele>235.2</ele>
        <time>2022-04-14T10:52:49Z</time>
      </trkpt>
      <trkpt lat="42.8582360" lon="-8.5095010">
        <ele>235.4</ele>
        <time>2022-04-14T10:52:50Z</time>
      </trkpt>
      <trkpt lat="42.8582080" lon="-8.5095410">
        <ele>235.7</ele>
        <time>2022-04-14T10:52:51Z</time>
      </trkpt>
      <trkpt lat="42.8581800" lon="-8.5095800">
        <ele>235.9</ele>
        <time>2022-04-14T10:52:52Z</time>
      </trkpt>
      <trkpt lat="42.8581690" lon="-8.5096020">
        <ele>236.0</ele>
        <time>2022-04-14T10:52:53Z</time>
      </trkpt>
      <trkpt lat="42.8581570" lon="-8.5096240">
        <ele>236.1</ele>
        <time>2022-04-14T10:52:54Z</time>
      </trkpt>
      <trkpt lat="42.8581450" lon="-8.5096450">
        <ele>236.3</ele>
        <time>2022-04-14T10:52:55Z</time>
      </trkpt>
      <trkpt lat="42.8581010" lon="-8.5097340">
        <ele>236.7</ele>
        <time>2022-04-14T10:52:56Z</time>
      </trkpt>
      <trkpt lat="42.8580910" lon="-8.5097570">
        <ele>236.8</ele>
        <time>2022-04-14T10:52:57Z</time>
      </trkpt>
      <trkpt lat="42.8580820" lon="-8.5097810">
        <ele>236.9</ele>
        <time>2022-04-14T10:52:58Z</time>
      </trkpt>
      <trkpt lat="42.8580460" lon="-8.5098770">
        <ele>237.4</ele>
        <time>2022-04-14T10:52:59Z</time>
      </trkpt>
      <trkpt lat="42.8580380" lon="-8.5099020">
        <ele>237.5</ele>
        <time>2022-04-14T10:53:00Z</time>
      </trkpt>
      <trkpt lat="42.8580310" lon="-8.5099280">
        <ele>237.6</ele>
        <time>2022-04-14T10:53:01Z</time>
      </trkpt>
      <trkpt lat="42.8580020" lon="-8.5100310">
        <ele>238.0</ele>
        <time>2022-04-14T10:53:02Z</time>
      </trkpt>
      <trkpt lat="42.8579960" lon="-8.5100590">
        <ele>238.0</ele>
        <time>2022-04-14T10:53:03Z</time>
      </trkpt>
      <trkpt lat="42.8579900" lon="-8.5100860">
        <ele>238.1</ele>
        <time>2022-04-14T10:53:04Z</time>
      </trkpt>
      <trkpt lat="42.8579650" lon="-8.5101940">
        <ele>238.3</ele>
        <time>2022-04-14T10:53:05Z</time>
      </trkpt>
      <trkpt lat="42.8579580" lon="-8.5102210">
        <ele>238.3</ele>
        <time>2022-04-14T10:53:06Z</time>
      </trkpt>
      <trkpt lat="42.8579520" lon="-8.5102480">
        <ele>238.4</ele>
        <time>2022-04-14T10:53:07Z</time>
      </trkpt>
      <trkpt lat="42.8579250" lon="-8.5103820">
        <ele>239.0</ele>
        <time>2022-04-14T10:53:08Z</time>
      </trkpt>
      <trkpt lat="42.8579180" lon="-8.5104380">
        <ele>239.3</ele>
        <time>2022-04-14T10:53:09Z</time>
      </trkpt>
      <trkpt lat="42.8579100" lon="-8.5104930">
        <ele>239.6</ele>
        <time>2022-04-14T10:53:10Z</time>
      </trkpt>
      <trkpt lat="42.8579070" lon="-8.5105210">
        <ele>239.7</ele>
        <time>2022-04-14T10:53:11Z</time>
      </trkpt>
      <trkpt lat="42.8579030" lon="-8.5105490">
        <ele>239.9</ele>
        <time>2022-04-14T10:53:12Z</time>
      </trkpt>
      <trkpt lat="42.8579000" lon="-8.5105770">
        <ele>240.0</ele>
        <time>2022-04-14T10:53:13Z</time>
      </trkpt>
      <trkpt lat="42.8578880" lon="-8.5106890">
        <ele>240.5</ele>
        <time>2022-04-14T10:53:14Z</time>
      </trkpt>
      <trkpt lat="42.8578850" lon="-8.5107170">
        <ele>240.7</ele>
        <time>2022-04-14T10:53:15Z</time>
      </trkpt>
      <trkpt lat="42.8578830" lon="-8.5107460">
        <ele>240.8</ele>
        <time>2022-04-14T10:53:16Z</time>
      </trkpt>
      <trkpt lat="42.8578770" lon="-8.5108590">
        <ele>241.3</ele>
        <time>2022-04-14T10:53:17Z</time>
      </trkpt>
      <trkpt lat="42.8578770" lon="-8.5108870">
        <ele>241.4</ele>
        <time>2022-04-14T10:53:18Z</time>
      </trkpt>
      <trkpt lat="42.8578780" lon="-8.5109150">
        <ele>241.6</ele>
        <time>2022-04-14T10:53:19Z</time>
      </trkpt>
      <trkpt lat="42.8578810" lon="-8.5110290">
        <ele>242.1</ele>
        <time>2022-04-14T10:53:20Z</time>
      </trkpt>
      <trkpt lat="42.8578820" lon="-8.5110580">
        <ele>242.2</ele>
        <time>2022-04-14T10:53:21Z</time>
      </trkpt>
      <trkpt lat="42.8578840" lon="-8.5110860">
        <ele>242.3</ele>
        <time>2022-04-14T10:53:22Z</time>
      </trkpt>
      <trkpt lat="42.8578900" lon="-8.5112000">
        <ele>242.8</ele>
        <time>2022-04-14T10:53:23Z</time>
      </trkpt>
      <trkpt lat="42.8578930" lon="-8.5112290">
        <ele>242.9</ele>
        <time>2022-04-14T10:53:24Z</time>
      </trkpt>
      <trkpt lat="42.8578970" lon="-8.5112570">
        <ele>243.1</ele>
        <time>2022-04-14T10:53:25Z</time>
      </trkpt>
      <trkpt lat="42.8579100" lon="-8.5113710">
        <ele>243.6</ele>
        <time>2022-04-14T10:53:26Z</time>
      </trkpt>
      <trkpt lat="42.8579140" lon="-8.5114000">
        <ele>243.7</ele>
        <time>2022-04-14T10:53:27Z</time>
      </trkpt>
      <trkpt lat="42.8579180" lon="-8.5114280">
        <ele>243.8</ele>
        <time>2022-04-14T10:53:28Z</time>
      </trkpt>
      <trkpt lat="42.8579340" lon="-8.5115430">
        <ele>244.3</ele>
        <time>2022-04-14T10:53:29Z</time>
      </trkpt>
      <trkpt lat="42.8579390" lon="-8.5115720">
        <ele>244.5</ele>
        <time>2022-04-14T10:53:30Z</time>
      </trkpt>
      <trkpt lat="42.8579430" lon="-8.5116000">
        <ele>244.6</ele>
        <time>2022-04-14T10:53:31Z</time>
      </trkpt>
      <trkpt lat="42.8579600" lon="-8.5117130">
        <ele>245.1</ele>
        <time>2022-04-14T10:53:32Z</time>
      </trkpt>
      <trkpt lat="42.8579640" lon="-8.5117410">
        <ele>245.2</ele>
        <time>2022-04-14T10:53:33Z</time>
      </trkpt>
      <trkpt lat="42.8579690" lon="-8.5117690">
        <ele>245.4</ele>
        <time>2022-04-14T10:53:34Z</time>
      </trkpt>
      <trkpt lat="42.8579880" lon="-8.5118810">
        <ele>245.9</ele>
        <time>2022-04-14T10:53:35Z</time>
      </trkpt>
      <trkpt lat="42.8579950" lon="-8.5119080">
        <ele>246.0</ele>
        <time>2022-04-14T10:53:36Z</time>
      </trkpt>
      <trkpt lat="42.8580020" lon="-8.5119360">
        <ele>246.1</ele>
        <time>2022-04-14T10:53:37Z</time>
      </trkpt>
      <trkpt lat="42.8580320" lon="-8.5120460">
        <ele>246.6</ele>
        <time>2022-04-14T10:53:38Z</time>
      </trkpt>
      <trkpt lat="42.8580400" lon="-8.5120740">
        <ele>246.7</ele>
        <time>2022-04-14T10:53:39Z</time>
      </trkpt>
      <trkpt lat="42.8580490" lon="-8.5121010">
        <ele>246.9</ele>
        <time>2022-04-14T10:53:40Z</time>
      </trkpt>
      <trkpt lat="42.8580970" lon="-8.5122420">
        <ele>247.6</ele>
        <time>2022-04-14T10:53:41Z</time>
      </trkpt>
      <trkpt lat="42.8581180" lon="-8.5123010">
        <ele>247.9</ele>
        <time>2022-04-14T10:53:42Z</time>
      </trkpt>
      <trkpt lat="42.8581430" lon="-8.5123580">
        <ele>248.2</ele>
        <time>2022-04-14T10:53:43Z</time>
      </trkpt>
      <trkpt lat="42.8581670" lon="-8.5124150">
        <ele>248.5</ele>
        <time>2022-04-14T10:53:44Z</time>
      </trkpt>
      <trkpt lat="42.8581860" lon="-8.5124750">
        <ele>248.6</ele>
        <time>2022-04-14T10:53:45Z</time>
      </trkpt>
      <trkpt lat="42.8582040" lon="-8.5125350">
        <ele>248.7</ele>
        <time>2022-04-14T10:53:46Z</time>
      </trkpt>
      <trkpt lat="42.8582130" lon="-8.5125700">
        <ele>248.8</ele>
        <time>2022-04-14T10:53:47Z</time>
      </trkpt>
      <trkpt lat="42.8582220" lon="-8.5126040">
        <ele>248.8</ele>
        <time>2022-04-14T10:53:48Z</time>
      </trkpt>
      <trkpt lat="42.8582360" lon="-8.5127350">
        <ele>249.0</ele>
        <time>2022-04-14T10:53:49Z</time>
      </trkpt>
      <trkpt lat="42.8582330" lon="-8.5127960">
        <ele>249.1</ele>
        <time>2022-04-14T10:53:50Z</time>
      </trkpt>
      <trkpt lat="42.8582170" lon="-8.5128250">
        <ele>248.8</ele>
        <time>2022-04-14T10:53:51Z</time>
      </trkpt>
      <trkpt lat="42.8582020" lon="-8.5128550">
        <ele>248.6</ele>
        <time>2022-04-14T10:53:52Z</time>
      </trkpt>
      <trkpt lat="42.8581480" lon="-8.5129450">
        <ele>248.0</ele>
        <time>2022-04-14T10:53:53Z</time>
      </trkpt>
      <trkpt lat="42.8581270" lon="-8.5129750">
        <ele>247.8</ele>
        <time>2022-04-14T10:53:54Z</time>
      </trkpt>
      <trkpt lat="42.8580620" lon="-8.5130740">
        <ele>247.1</ele>
        <time>2022-04-14T10:53:55Z</time>
      </trkpt>
      <trkpt lat="42.8580410" lon="-8.5131120">
        <ele>246.9</ele>
        <time>2022-04-14T10:53:56Z</time>
      </trkpt>
      <trkpt lat="42.8579740" lon="-8.5132250">
        <ele>246.2</ele>
        <time>2022-04-14T10:53:57Z</time>
      </trkpt>
      <trkpt lat="42.8579500" lon="-8.5132630">
        <ele>246.0</ele>
        <time>2022-04-14T10:53:58Z</time>
      </trkpt>
      <trkpt lat="42.8578700" lon="-8.5133780">
        <ele>245.3</ele>
        <time>2022-04-14T10:53:59Z</time>
      </trkpt>
      <trkpt lat="42.8578390" lon="-8.5134170">
        <ele>245.1</ele>
        <time>2022-04-14T10:54:00Z</time>
      </trkpt>
      <trkpt lat="42.8577430" lon="-8.5135360">
        <ele>244.2</ele>
        <time>2022-04-14T10:54:01Z</time>
      </trkpt>
      <trkpt lat="42.8577080" lon="-8.5135750">
        <ele>243.9</ele>
        <time>2022-04-14T10:54:02Z</time>
      </trkpt>
      <trkpt lat="42.8575820" lon="-8.5137080">
        <ele>242.6</ele>
        <time>2022-04-14T10:54:03Z</time>
      </trkpt>
      <trkpt lat="42.8575250" lon="-8.5137630">
        <ele>242.0</ele>
        <time>2022-04-14T10:54:04Z</time>
      </trkpt>
      <trkpt lat="42.8574120" lon="-8.5138730">
        <ele>240.7</ele>
        <time>2022-04-14T10:54:05Z</time>
      </trkpt>
      <trkpt lat="42.8573320" lon="-8.5139470">
        <ele>239.7</ele>
        <time>2022-04-14T10:54:06Z</time>
      </trkpt>
      <trkpt lat="42.8571670" lon="-8.5141040">
        <ele>237.4</ele>
        <time>2022-04-14T10:54:07Z</time>
      </trkpt>
      <trkpt lat="42.8571670" lon="-8.5141040">
        <ele>237.4</ele>
        <time>2022-04-14T10:54:08Z</time>
      </trkpt>
      <trkpt lat="42.8570790" lon="-8.5141830">
        <ele>236.3</ele>
        <time>2022-04-14T10:54:09Z</time>
      </trkpt>
      <trkpt lat="42.8569930" lon="-8.5142620">
        <ele>235.5</ele>
        <time>2022-04-14T10:54:10Z</time>
      </trkpt>
      <trkpt lat="42.8569050" lon="-8.5143410">
        <ele>234.9</ele>
        <time>2022-04-14T10:54:11Z</time>
      </trkpt>
      <trkpt lat="42.8568200" lon="-8.5144200">
        <ele>234.3</ele>
        <time>2022-04-14T10:54:12Z</time>
      </trkpt>
      <trkpt lat="42.8567340" lon="-8.5144920">
        <ele>233.8</ele>
        <time>2022-04-14T10:54:13Z</time>
      </trkpt>
      <trkpt lat="42.8566480" lon="-8.5145680">
        <ele>233.4</ele>
        <time>2022-04-14T10:54:14Z</time>
      </trkpt>
      <trkpt lat="42.8565650" lon="-8.5146390">
        <ele>233.2</ele>
        <time>2022-04-14T10:54:15Z</time>
      </trkpt>
      <trkpt lat="42.8564840" lon="-8.5147140">
        <ele>233.0</ele>
        <time>2022-04-14T10:54:16Z</time>
      </trkpt>
      <trkpt lat="42.8564070" lon="-8.5147890">
        <ele>232.9</ele>
        <time>2022-04-14T10:54:17Z</time>
      </trkpt>
      <trkpt lat="42.8563310" lon="-8.5148590">
        <ele>232.9</ele>
        <time>2022-04-14T10:54:18Z</time>
      </trkpt>
      <trkpt lat="42.8562560" lon="-8.5149310">
        <ele>233.0</ele>
        <time>2022-04-14T10:54:19Z</time>
      </trkpt>
      <trkpt lat="42.8562210" lon="-8.5149650">
        <ele>233.0</ele>
        <time>2022-04-14T10:54:20Z</time>
      </trkpt>
      <trkpt lat="42.8561860" lon="-8.5149990">
        <ele>233.1</ele>
        <time>2022-04-14T10:54:21Z</time>
      </trkpt>
      <trkpt lat="42.8560840" lon="-8.5150990">
        <ele>233.1</ele>
        <time>2022-04-14T10:54:22Z</time>
      </trkpt>
      <trkpt lat="42.8560520" lon="-8.5151310">
        <ele>233.1</ele>
        <time>2022-04-14T10:54:23Z</time>
      </trkpt>
      <trkpt lat="42.8559170" lon="-8.5152500">
        <ele>233.2</ele>
        <time>2022-04-14T10:54:24Z</time>
      </trkpt>
      <trkpt lat="42.8558460" lon="-8.5153050">
        <ele>233.3</ele>
        <time>2022-04-14T10:54:25Z</time>
      </trkpt>
      <trkpt lat="42.8557040" lon="-8.5154150">
        <ele>233.7</ele>
        <time>2022-04-14T10:54:26Z</time>
      </trkpt>
      <trkpt lat="42.8557040" lon="-8.5154150">
        <ele>233.7</ele>
        <time>2022-04-14T10:54:27Z</time>
      </trkpt>
      <trkpt lat="42.8556380" lon="-8.5153990">
        <ele>233.9</ele>
        <time>2022-04-14T10:54:28Z</time>
      </trkpt>
      <trkpt lat="42.8555720" lon="-8.5153840">
        <ele>232.9</ele>
        <time>2022-04-14T10:54:29Z</time>
      </trkpt>
      <trkpt lat="42.8554390" lon="-8.5153530">
        <ele>229.5</ele>
        <time>2022-04-14T10:54:30Z</time>
      </trkpt>
      <trkpt lat="42.8553610" lon="-8.5152640">
        <ele>227.4</ele>
        <time>2022-04-14T10:54:31Z</time>
      </trkpt>
      <trkpt lat="42.8552900" lon="-8.5151560">
        <ele>225.3</ele>
        <time>2022-04-14T10:54:32Z</time>
      </trkpt>
      <trkpt lat="42.8552100" lon="-8.5150370">
        <ele>222.9</ele>
        <time>2022-04-14T10:54:33Z</time>
      </trkpt>
      <trkpt lat="42.8551230" lon="-8.5149170">
        <ele>220.4</ele>
        <time>2022-04-14T10:54:34Z</time>
      </trkpt>
      <trkpt lat="42.8550380" lon="-8.5148070">
        <ele>218.2</ele>
        <time>2022-04-14T10:54:35Z</time>
      </trkpt>
      <trkpt lat="42.8549530" lon="-8.5147080">
        <ele>216.1</ele>
        <time>2022-04-14T10:54:36Z</time>
      </trkpt>
      <trkpt lat="42.8548930" lon="-8.5146790">
        <ele>215.2</ele>
        <time>2022-04-14T10:54:37Z</time>
      </trkpt>
      <trkpt lat="42.8548330" lon="-8.5146490">
        <ele>214.7</ele>
        <time>2022-04-14T10:54:38Z</time>
      </trkpt>
      <trkpt lat="42.8547720" lon="-8.5146200">
        <ele>214.2</ele>
        <time>2022-04-14T10:54:39Z</time>
      </trkpt>
      <trkpt lat="42.8545920" lon="-8.5145330">
        <ele>213.0</ele>
        <time>2022-04-14T10:54:40Z</time>
      </trkpt>
      <trkpt lat="42.8545030" lon="-8.5146590">
        <ele>211.6</ele>
        <time>2022-04-14T10:54:41Z</time>
      </trkpt>
      <trkpt lat="42.8544050" lon="-8.5147850">
        <ele>210.4</ele>
        <time>2022-04-14T10:54:42Z</time>
      </trkpt>
      <trkpt lat="42.8543220" lon="-8.5149120">
        <ele>209.6</ele>
        <time>2022-04-14T10:54:43Z</time>
      </trkpt>
      <trkpt lat="42.8542520" lon="-8.5150210">
        <ele>209.1</ele>
        <time>2022-04-14T10:54:44Z</time>
      </trkpt>
      <trkpt lat="42.8541120" lon="-8.5152230">
        <ele>209.1</ele>
        <time>2022-04-14T10:54:45Z</time>
      </trkpt>
      <trkpt lat="42.8541120" lon="-8.5152230">
        <ele>209.1</ele>
        <time>2022-04-14T10:54:46Z</time>
      </trkpt>
      <trkpt lat="42.8540440" lon="-8.5153260">
        <ele>209.5</ele>
        <time>2022-04-14T10:54:47Z</time>
      </trkpt>
      <trkpt lat="42.8539820" lon="-8.5154270">
        <ele>210.1</ele>
        <time>2022-04-14T10:54:48Z</time>
      </trkpt>
      <trkpt lat="42.8539540" lon="-8.5154730">
        <ele>210.5</ele>
        <time>2022-04-14T10:54:49Z</time>
      </trkpt>
      <trkpt lat="42.8539270" lon="-8.5155190">
        <ele>210.9</ele>
        <time>2022-04-14T10:54:50Z</time>
      </trkpt>
      <trkpt lat="42.8538500" lon="-8.5156570">
        <ele>212.1</ele>
        <time>2022-04-14T10:54:51Z</time>
      </trkpt>
      <trkpt lat="42.8538290" lon="-8.5157040">
        <ele>212.5</ele>
        <time>2022-04-14T10:54:52Z</time>
      </trkpt>
      <trkpt lat="42.8537660" lon="-8.5158440">
        <ele>213.6</ele>
        <time>2022-04-14T10:54:53Z</time>
      </trkpt>
      <trkpt lat="42.8537450" lon="-8.5158900">
        <ele>213.9</ele>
        <time>2022-04-14T10:54:54Z</time>
      </trkpt>
      <trkpt lat="42.8536900" lon="-8.5160290">
        <ele>214.9</ele>
        <time>2022-04-14T10:54:55Z</time>
      </trkpt>
      <trkpt lat="42.8536770" lon="-8.5160750">
        <ele>215.1</ele>
        <time>2022-04-14T10:54:56Z</time>
      </trkpt>
      <trkpt lat="42.8536380" lon="-8.5162100">
        <ele>215.3</ele>
        <time>2022-04-14T10:54:57Z</time>
      </trkpt>
      <trkpt lat="42.8536230" lon="-8.5162520">
        <ele>215.1</ele>
        <time>2022-04-14T10:54:58Z</time>
      </trkpt>
      <trkpt lat="42.8535810" lon="-8.5163820">
        <ele>214.6</ele>
        <time>2022-04-14T10:54:59Z</time>
      </trkpt>
      <trkpt lat="42.8535710" lon="-8.5164270">
        <ele>214.4</ele>
        <time>2022-04-14T10:55:00Z</time>
      </trkpt>
      <trkpt lat="42.8535380" lon="-8.5165600">
        <ele>213.8</ele>
        <time>2022-04-14T10:55:01Z</time>
      </trkpt>
      <trkpt lat="42.8535270" lon="-8.5166040">
        <ele>213.6</ele>
        <time>2022-04-14T10:55:02Z</time>
      </trkpt>
      <trkpt lat="42.8534950" lon="-8.5167390">
        <ele>213.8</ele>
        <time>2022-04-14T10:55:03Z</time>
      </trkpt>
      <trkpt lat="42.8534860" lon="-8.5167860">
        <ele>213.9</ele>
        <time>2022-04-14T10:55:04Z</time>
      </trkpt>
      <trkpt lat="42.8534540" lon="-8.5169170">
        <ele>214.2</ele>
        <time>2022-04-14T10:55:05Z</time>
      </trkpt>
      <trkpt lat="42.8534410" lon="-8.5169520">
        <ele>214.4</ele>
        <time>2022-04-14T10:55:06Z</time>
      </trkpt>
      <trkpt lat="42.8533920" lon="-8.5170260">
        <ele>214.7</ele>
        <time>2022-04-14T10:55:07Z</time>
      </trkpt>
      <trkpt lat="42.8533700" lon="-8.5170300">
        <ele>213.5</ele>
        <time>2022-04-14T10:55:08Z</time>
      </trkpt>
      <trkpt lat="42.8533490" lon="-8.5170340">
        <ele>213.0</ele>
        <time>2022-04-14T10:55:09Z</time>
      </trkpt>
      <trkpt lat="42.8532520" lon="-8.5170460">
        <ele>210.8</ele>
        <time>2022-04-14T10:55:10Z</time>
      </trkpt>
      <trkpt lat="42.8532210" lon="-8.5170460">
        <ele>210.0</ele>
        <time>2022-04-14T10:55:11Z</time>
      </trkpt>
      <trkpt lat="42.8531900" lon="-8.5170460">
        <ele>208.7</ele>
        <time>2022-04-14T10:55:12Z</time>
      </trkpt>
      <trkpt lat="42.8531930" lon="-8.5170330">
        <ele>208.7</ele>
        <time>2022-04-14T10:55:13Z</time>
      </trkpt>
      <trkpt lat="42.8531960" lon="-8.5170210">
        <ele>208.6</ele>
        <time>2022-04-14T10:55:14Z</time>
      </trkpt>
      <trkpt lat="42.8531990" lon="-8.5170080">
        <ele>208.6</ele>
        <time>2022-04-14T10:55:15Z</time>
      </trkpt>
      <trkpt lat="42.8532020" lon="-8.5169960">
        <ele>208.5</ele>
        <time>2022-04-14T10:55:16Z</time>
      </trkpt>
      <trkpt lat="42.8532050" lon="-8.5169830">
        <ele>208.5</ele>
        <time>2022-04-14T10:55:17Z</time>
      </trkpt>
      <trkpt lat="42.8532080" lon="-8.5169710">
        <ele>208.4</ele>
        <time>2022-04-14T10:55:18Z</time>
      </trkpt>
      <trkpt lat="42.8532110" lon="-8.5169590">
        <ele>208.4</ele>
        <time>2022-04-14T10:55:19Z</time>
      </trkpt>
      <trkpt lat="42.8532140" lon="-8.5169460">
        <ele>208.3</ele>
        <time>2022-04-14T10:55:20Z</time>
      </trkpt>
      <trkpt lat="42.8532180" lon="-8.5169340">
        <ele>208.3</ele>
        <time>2022-04-14T10:55:21Z</time>
      </trkpt>
      <trkpt lat="42.8532210" lon="-8.5169210">
        <ele>208.2</ele>
        <time>2022-04-14T10:55:22Z</time>
      </trkpt>
      <trkpt lat="42.8532670" lon="-8.5167860">
        <ele>207.6</ele>
        <time>2022-04-14T10:55:23Z</time>
      </trkpt>
      <trkpt lat="42.8532670" lon="-8.5167860">
        <ele>207.6</ele>
        <time>2022-04-14T10:55:24Z</time>
      </trkpt>
      <trkpt lat="42.8532820" lon="-8.5167470">
        <ele>207.5</ele>
        <time>2022-04-14T10:55:25Z</time>
      </trkpt>
      <trkpt lat="42.8532980" lon="-8.5167080">
        <ele>207.3</ele>
        <time>2022-04-14T10:55:26Z</time>
      </trkpt>
      <trkpt lat="42.8533430" lon="-8.5165900">
        <ele>206.9</ele>
        <time>2022-04-14T10:55:27Z</time>
      </trkpt>
      <trkpt lat="42.8533570" lon="-8.5165500">
        <ele>206.7</ele>
        <time>2022-04-14T10:55:28Z</time>
      </trkpt>
      <trkpt lat="42.8533770" lon="-8.5164250">
        <ele>206.0</ele>
        <time>2022-04-14T10:55:29Z</time>
      </trkpt>
      <trkpt lat="42.8533690" lon="-8.5163820">
        <ele>205.7</ele>
        <time>2022-04-14T10:55:30Z</time>
      </trkpt>
      <trkpt lat="42.8533280" lon="-8.5162600">
        <ele>204.5</ele>
        <time>2022-04-14T10:55:31Z</time>
      </trkpt>
      <trkpt lat="42.8533020" lon="-8.5162260">
        <ele>204.0</ele>
        <time>2022-04-14T10:55:32Z</time>
      </trkpt>
      <trkpt lat="42.8532230" lon="-8.5161190">
        <ele>202.5</ele>
        <time>2022-04-14T10:55:33Z</time>
      </trkpt>
      <trkpt lat="42.8531970" lon="-8.5160800">
        <ele>202.0</ele>
        <time>2022-04-14T10:55:34Z</time>
      </trkpt>
      <trkpt lat="42.8531270" lon="-8.5159510">
        <ele>200.6</ele>
        <time>2022-04-14T10:55:35Z</time>
      </trkpt>
      <trkpt lat="42.8531100" lon="-8.5159000">
        <ele>200.3</ele>
        <time>2022-04-14T10:55:36Z</time>
      </trkpt>
      <trkpt lat="42.8530610" lon="-8.5157050">
        <ele>198.8</ele>
        <time>2022-04-14T10:55:37Z</time>
      </trkpt>
      <trkpt lat="42.8530460" lon="-8.5156110">
        <ele>197.9</ele>
        <time>2022-04-14T10:55:38Z</time>
      </trkpt>
      <trkpt lat="42.8530160" lon="-8.5154240">
        <ele>196.4</ele>
        <time>2022-04-14T10:55:39Z</time>
      </trkpt>
      <trkpt lat="42.8530230" lon="-8.5152860">
        <ele>195.4</ele>
        <time>2022-04-14T10:55:40Z</time>
      </trkpt>
      <trkpt lat="42.8530420" lon="-8.5151530">
        <ele>194.6</ele>
        <time>2022-04-14T10:55:41Z</time>
      </trkpt>
      <trkpt lat="42.8530680" lon="-8.5150320">
        <ele>194.1</ele>
        <time>2022-04-14T10:55:42Z</time>
      </trkpt>
      <trkpt lat="42.8530710" lon="-8.5149930">
        <ele>193.9</ele>
        <time>2022-04-14T10:55:43Z</time>
      </trkpt>
      <trkpt lat="42.8530750" lon="-8.5149540">
        <ele>193.8</ele>
        <time>2022-04-14T10:55:44Z</time>
      </trkpt>
      <trkpt lat="42.8530600" lon="-8.5148620">
        <ele>193.0</ele>
        <time>2022-04-14T10:55:45Z</time>
      </trkpt>
      <trkpt lat="42.8530370" lon="-8.5148490">
        <ele>192.7</ele>
        <time>2022-04-14T10:55:46Z</time>
      </trkpt>
      <trkpt lat="42.8530140" lon="-8.5148360">
        <ele>192.5</ele>
        <time>2022-04-14T10:55:47Z</time>
      </trkpt>
      <trkpt lat="42.8528820" lon="-8.5148110">
        <ele>191.0</ele>
        <time>2022-04-14T10:55:48Z</time>
      </trkpt>
      <trkpt lat="42.8528190" lon="-8.5148250">
        <ele>190.3</ele>
        <time>2022-04-14T10:55:49Z</time>
      </trkpt>
      <trkpt lat="42.8526930" lon="-8.5148540">
        <ele>188.9</ele>
        <time>2022-04-14T10:55:50Z</time>
      </trkpt>
      <trkpt lat="42.8525970" lon="-8.5148630">
        <ele>187.8</ele>
        <time>2022-04-14T10:55:51Z</time>
      </trkpt>
      <trkpt lat="42.8524990" lon="-8.5148730">
        <ele>186.8</ele>
        <time>2022-04-14T10:55:52Z</time>
      </trkpt>
      <trkpt lat="42.8523870" lon="-8.5148840">
        <ele>185.5</ele>
        <time>2022-04-14T10:55:53Z</time>
      </trkpt>
      <trkpt lat="42.8522780" lon="-8.5148990">
        <ele>184.3</ele>
        <time>2022-04-14T10:55:54Z</time>
      </trkpt>
      <trkpt lat="42.8521610" lon="-8.5149070">
        <ele>183.0</ele>
        <time>2022-04-14T10:55:55Z</time>
      </trkpt>
      <trkpt lat="42.8520370" lon="-8.5149210">
        <ele>181.5</ele>
        <time>2022-04-14T10:55:56Z</time>
      </trkpt>
      <trkpt lat="42.8519110" lon="-8.5149400">
        <ele>180.0</ele>
        <time>2022-04-14T10:55:57Z</time>
      </trkpt>
      <trkpt lat="42.8517780" lon="-8.5149520">
        <ele>178.5</ele>
        <time>2022-04-14T10:55:58Z</time>
      </trkpt>
      <trkpt lat="42.8516510" lon="-8.5149600">
        <ele>177.0</ele>
        <time>2022-04-14T10:55:59Z</time>
      </trkpt>
      <trkpt lat="42.8515180" lon="-8.5149730">
        <ele>175.4</ele>
        <time>2022-04-14T10:56:00Z</time>
      </trkpt>
      <trkpt lat="42.8512510" lon="-8.5150760">
        <ele>172.1</ele>
        <time>2022-04-14T10:56:01Z</time>
      </trkpt>
      <trkpt lat="42.8512510" lon="-8.5150760">
        <ele>172.1</ele>
        <time>2022-04-14T10:56:02Z</time>
      </trkpt>
      <trkpt lat="42.8511210" lon="-8.5151500">
        <ele>170.7</ele>
        <time>2022-04-14T10:56:03Z</time>
      </trkpt>
      <trkpt lat="42.8509950" lon="-8.5152250">
        <ele>169.5</ele>
        <time>2022-04-14T10:56:04Z</time>
      </trkpt>
      <trkpt lat="42.8508790" lon="-8.5153240">
        <ele>168.6</ele>
        <time>2022-04-14T10:56:05Z</time>
      </trkpt>
      <trkpt lat="42.8507620" lon="-8.5154360">
        <ele>168.2</ele>
        <time>2022-04-14T10:56:06Z</time>
      </trkpt>
      <trkpt lat="42.8506540" lon="-8.5155660">
        <ele>168.3</ele>
        <time>2022-04-14T10:56:07Z</time>
      </trkpt>
      <trkpt lat="42.8505770" lon="-8.5157390">
        <ele>168.6</ele>
        <time>2022-04-14T10:56:08Z</time>
      </trkpt>
      <trkpt lat="42.8505520" lon="-8.5159050">
        <ele>168.9</ele>
        <time>2022-04-14T10:56:09Z</time>
      </trkpt>
      <trkpt lat="42.8505470" lon="-8.5160550">
        <ele>169.1</ele>
        <time>2022-04-14T10:56:10Z</time>
      </trkpt>
      <trkpt lat="42.8505310" lon="-8.5161970">
        <ele>169.4</ele>
        <time>2022-04-14T10:56:11Z</time>
      </trkpt>
      <trkpt lat="42.8505230" lon="-8.5163370">
        <ele>169.6</ele>
        <time>2022-04-14T10:56:12Z</time>
      </trkpt>
      <trkpt lat="42.8505060" lon="-8.5164780">
        <ele>169.8</ele>
        <time>2022-04-14T10:56:13Z</time>
      </trkpt>
      <trkpt lat="42.8504850" lon="-8.5166090">
        <ele>169.9</ele>
        <time>2022-04-14T10:56:14Z</time>
      </trkpt>
      <trkpt lat="42.8504610" lon="-8.5167330">
        <ele>170.0</ele>
        <time>2022-04-14T10:56:15Z</time>
      </trkpt>
      <trkpt lat="42.8504410" lon="-8.5168560">
        <ele>170.0</ele>
        <time>2022-04-14T10:56:16Z</time>
      </trkpt>
      <trkpt lat="42.8504220" lon="-8.5169820">
        <ele>169.9</ele>
        <time>2022-04-14T10:56:17Z</time>
      </trkpt>
      <trkpt lat="42.8504020" lon="-8.5171110">
        <ele>169.8</ele>
        <time>2022-04-14T10:56:18Z</time>
      </trkpt>
      <trkpt lat="42.8503850" lon="-8.5172340">
        <ele>169.7</ele>
        <time>2022-04-14T10:56:19Z</time>
      </trkpt>
      <trkpt lat="42.8503460" lon="-8.5175080">
        <ele>169.2</ele>
        <time>2022-04-14T10:56:20Z</time>
      </trkpt>
      <trkpt lat="42.8503410" lon="-8.5175400">
        <ele>169.1</ele>
        <time>2022-04-14T10:56:21Z</time>
      </trkpt>
      <trkpt lat="42.8503320" lon="-8.5176040">
        <ele>168.9</ele>
        <time>2022-04-14T10:56:22Z</time>
      </trkpt>
      <trkpt lat="42.8503120" lon="-8.5177320">
        <ele>168.5</ele>
        <time>2022-04-14T10:56:23Z</time>
      </trkpt>
      <trkpt lat="42.8502900" lon="-8.5178530">
        <ele>168.0</ele>
        <time>2022-04-14T10:56:24Z</time>
      </trkpt>
      <trkpt lat="42.8502670" lon="-8.5179730">
        <ele>167.4</ele>
        <time>2022-04-14T10:56:25Z</time>
      </trkpt>
      <trkpt lat="42.8502500" lon="-8.5180980">
        <ele>166.7</ele>
        <time>2022-04-14T10:56:26Z</time>
      </trkpt>
      <trkpt lat="42.8502300" lon="-8.5182320">
        <ele>165.9</ele>
        <time>2022-04-14T10:56:27Z</time>
      </trkpt>
      <trkpt lat="42.8502090" lon="-8.5183720">
        <ele>164.9</ele>
        <time>2022-04-14T10:56:28Z</time>
      </trkpt>
      <trkpt lat="42.8501920" lon="-8.5185070">
        <ele>163.9</ele>
        <time>2022-04-14T10:56:29Z</time>
      </trkpt>
      <trkpt lat="42.8501730" lon="-8.5186490">
        <ele>162.9</ele>
        <time>2022-04-14T10:56:30Z</time>
      </trkpt>
      <trkpt lat="42.8501510" lon="-8.5187960">
        <ele>161.8</ele>
        <time>2022-04-14T10:56:31Z</time>
      </trkpt>
      <trkpt lat="42.8501310" lon="-8.5189450">
        <ele>160.7</ele>
        <time>2022-04-14T10:56:32Z</time>
      </trkpt>
      <trkpt lat="42.8501090" lon="-8.5191050">
        <ele>159.5</ele>
        <time>2022-04-14T10:56:33Z</time>
      </trkpt>
      <trkpt lat="42.8500880" lon="-8.5192640">
        <ele>158.4</ele>
        <time>2022-04-14T10:56:34Z</time>
      </trkpt>
      <trkpt lat="42.8500650" lon="-8.5194260">
        <ele>157.3</ele>
        <time>2022-04-14T10:56:35Z</time>
      </trkpt>
      <trkpt lat="42.8500420" lon="-8.5195860">
        <ele>156.2</ele>
        <time>2022-04-14T10:56:36Z</time>
      </trkpt>
      <trkpt lat="42.8500230" lon="-8.5197480">
        <ele>155.1</ele>
        <time>2022-04-14T10:56:37Z</time>
      </trkpt>
      <trkpt lat="42.8500030" lon="-8.5199110">
        <ele>154.1</ele>
        <time>2022-04-14T10:56:38Z</time>
      </trkpt>
      <trkpt lat="42.8499910" lon="-8.5200540">
        <ele>153.2</ele>
        <time>2022-04-14T10:56:39Z</time>
      </trkpt>
      <trkpt lat="42.8499820" lon="-8.5201090">
        <ele>152.9</ele>
        <time>2022-04-14T10:56:40Z</time>
      </trkpt>
      <trkpt lat="42.8499730" lon="-8.5201630">
        <ele>152.6</ele>
        <time>2022-04-14T10:56:41Z</time>
      </trkpt>
      <trkpt lat="42.8499210" lon="-8.5202960">
        <ele>151.7</ele>
        <time>2022-04-14T10:56:42Z</time>
      </trkpt>
      <trkpt lat="42.8498880" lon="-8.5203210">
        <ele>149.9</ele>
        <time>2022-04-14T10:56:43Z</time>
      </trkpt>
      <trkpt lat="42.8497600" lon="-8.5203510">
        <ele>148.7</ele>
        <time>2022-04-14T10:56:44Z</time>
      </trkpt>
      <trkpt lat="42.8496980" lon="-8.5203300">
        <ele>148.2</ele>
        <time>2022-04-14T10:56:45Z</time>
      </trkpt>
      <trkpt lat="42.8495730" lon="-8.5202880">
        <ele>147.1</ele>
        <time>2022-04-14T10:56:46Z</time>
      </trkpt>
      <trkpt lat="42.8494810" lon="-8.5202460">
        <ele>146.4</ele>
        <time>2022-04-14T10:56:47Z</time>
      </trkpt>
      <trkpt lat="42.8493840" lon="-8.5202060">
        <ele>145.7</ele>
        <time>2022-04-14T10:56:48Z</time>
      </trkpt>
      <trkpt lat="42.8492880" lon="-8.5201650">
        <ele>145.1</ele>
        <time>2022-04-14T10:56:49Z</time>
      </trkpt>
      <trkpt lat="42.8491940" lon="-8.5201190">
        <ele>144.6</ele>
        <time>2022-04-14T10:56:50Z</time>
      </trkpt>
      <trkpt lat="42.8490960" lon="-8.5200740">
        <ele>144.1</ele>
        <time>2022-04-14T10:56:51Z</time>
      </trkpt>
      <trkpt lat="42.8489880" lon="-8.5200310">
        <ele>143.6</ele>
        <time>2022-04-14T10:56:52Z</time>
      </trkpt>
      <trkpt lat="42.8488770" lon="-8.5199900">
        <ele>143.1</ele>
        <time>2022-04-14T10:56:53Z</time>
      </trkpt>
      <trkpt lat="42.8487740" lon="-8.5199490">
        <ele>142.7</ele>
        <time>2022-04-14T10:56:54Z</time>
      </trkpt>
      <trkpt lat="42.8486710" lon="-8.5199090">
        <ele>142.2</ele>
        <time>2022-04-14T10:56:55Z</time>
      </trkpt>
      <trkpt lat="42.8485700" lon="-8.5198690">
        <ele>141.8</ele>
        <time>2022-04-14T10:56:56Z</time>
      </trkpt>
      <trkpt lat="42.8484710" lon="-8.5198300">
        <ele>141.4</ele>
        <time>2022-04-14T10:56:57Z</time>
      </trkpt>
      <trkpt lat="42.8482690" lon="-8.5197670">
        <ele>140.2</ele>
        <time>2022-04-14T10:56:58Z</time>
      </trkpt>
      <trkpt lat="42.8482690" lon="-8.5197670">
        <ele>140.2</ele>
        <time>2022-04-14T10:56:59Z</time>
      </trkpt>
      <trkpt lat="42.8481680" lon="-8.5197390">
        <ele>139.7</ele>
        <time>2022-04-14T10:57:00Z</time>
      </trkpt>
      <trkpt lat="42.8480680" lon="-8.5197120">
        <ele>139.1</ele>
        <time>2022-04-14T10:57:01Z</time>
      </trkpt>
      <trkpt lat="42.8479680" lon="-8.5196830">
        <ele>138.8</ele>
        <time>2022-04-14T10:57:02Z</time>
      </trkpt>
      <trkpt lat="42.8478620" lon="-8.5196530">
        <ele>138.4</ele>
        <time>2022-04-14T10:57:03Z</time>
      </trkpt>
      <trkpt lat="42.8477620" lon="-8.5196280">
        <ele>138.2</ele>
        <time>2022-04-14T10:57:04Z</time>
      </trkpt>
      <trkpt lat="42.8476610" lon="-8.5196080">
        <ele>137.9</ele>
        <time>2022-04-14T10:57:05Z</time>
      </trkpt>
      <trkpt lat="42.8475650" lon="-8.5195830">
        <ele>137.7</ele>
        <time>2022-04-14T10:57:06Z</time>
      </trkpt>
      <trkpt lat="42.8474730" lon="-8.5195600">
        <ele>137.5</ele>
        <time>2022-04-14T10:57:07Z</time>
      </trkpt>
      <trkpt lat="42.8473790" lon="-8.5195340">
        <ele>137.4</ele>
        <time>2022-04-14T10:57:08Z</time>
      </trkpt>
      <trkpt lat="42.8473340" lon="-8.5195220">
        <ele>137.3</ele>
        <time>2022-04-14T10:57:09Z</time>
      </trkpt>
      <trkpt lat="42.8472900" lon="-8.5195100">
        <ele>137.2</ele>
        <time>2022-04-14T10:57:10Z</time>
      </trkpt>
      <trkpt lat="42.8471570" lon="-8.5194720">
        <ele>137.1</ele>
        <time>2022-04-14T10:57:11Z</time>
      </trkpt>
      <trkpt lat="42.8471130" lon="-8.5194590">
        <ele>137.1</ele>
        <time>2022-04-14T10:57:12Z</time>
      </trkpt>
      <trkpt lat="42.8469840" lon="-8.5194230">
        <ele>137.0</ele>
        <time>2022-04-14T10:57:13Z</time>
      </trkpt>
      <trkpt lat="42.8469430" lon="-8.5194130">
        <ele>137.0</ele>
        <time>2022-04-14T10:57:14Z</time>
      </trkpt>
      <trkpt lat="42.8468160" lon="-8.5193980">
        <ele>136.9</ele>
        <time>2022-04-14T10:57:15Z</time>
      </trkpt>
      <trkpt lat="42.8467700" lon="-8.5194020">
        <ele>136.9</ele>
        <time>2022-04-14T10:57:16Z</time>
      </trkpt>
      <trkpt lat="42.8467570" lon="-8.5194210">
        <ele>136.9</ele>
        <time>2022-04-14T10:57:17Z</time>
      </trkpt>
      <trkpt lat="42.8467430" lon="-8.5194410">
        <ele>136.9</ele>
        <time>2022-04-14T10:57:18Z</time>
      </trkpt>
      <trkpt lat="42.8467300" lon="-8.5194610">
        <ele>136.6</ele>
        <time>2022-04-14T10:57:19Z</time>
      </trkpt>
      <trkpt lat="42.8466790" lon="-8.5195630">
        <ele>135.9</ele>
        <time>2022-04-14T10:57:20Z</time>
      </trkpt>
      <trkpt lat="42.8466680" lon="-8.5196070">
        <ele>135.7</ele>
        <time>2022-04-14T10:57:21Z</time>
      </trkpt>
      <trkpt lat="42.8466170" lon="-8.5197830">
        <ele>134.6</ele>
        <time>2022-04-14T10:57:22Z</time>
      </trkpt>
      <trkpt lat="42.8465900" lon="-8.5198720">
        <ele>134.1</ele>
        <time>2022-04-14T10:57:23Z</time>
      </trkpt>
      <trkpt lat="42.8465360" lon="-8.5200490">
        <ele>133.3</ele>
        <time>2022-04-14T10:57:24Z</time>
      </trkpt>
      <trkpt lat="42.8465030" lon="-8.5201810">
        <ele>132.5</ele>
        <time>2022-04-14T10:57:25Z</time>
      </trkpt>
      <trkpt lat="42.8464630" lon="-8.5203120">
        <ele>131.8</ele>
        <time>2022-04-14T10:57:26Z</time>
      </trkpt>
      <trkpt lat="42.8464170" lon="-8.5204450">
        <ele>131.2</ele>
        <time>2022-04-14T10:57:27Z</time>
      </trkpt>
      <trkpt lat="42.8463700" lon="-8.5205770">
        <ele>130.7</ele>
        <time>2022-04-14T10:57:28Z</time>
      </trkpt>
      <trkpt lat="42.8463180" lon="-8.5207020">
        <ele>130.2</ele>
        <time>2022-04-14T10:57:29Z</time>
      </trkpt>
      <trkpt lat="42.8462660" lon="-8.5208340">
        <ele>130.1</ele>
        <time>2022-04-14T10:57:30Z</time>
      </trkpt>
      <trkpt lat="42.8462070" lon="-8.5209650">
        <ele>130.1</ele>
        <time>2022-04-14T10:57:31Z</time>
      </trkpt>
      <trkpt lat="42.8461480" lon="-8.5210870">
        <ele>129.8</ele>
        <time>2022-04-14T10:57:32Z</time>
      </trkpt>
      <trkpt lat="42.8460920" lon="-8.5212160">
        <ele>129.6</ele>
        <time>2022-04-14T10:57:33Z</time>
      </trkpt>
      <trkpt lat="42.8460360" lon="-8.5213350">
        <ele>129.3</ele>
        <time>2022-04-14T10:57:34Z</time>
      </trkpt>
      <trkpt lat="42.8459830" lon="-8.5214550">
        <ele>129.1</ele>
        <time>2022-04-14T10:57:35Z</time>
      </trkpt>
      <trkpt lat="42.8459310" lon="-8.5215780">
        <ele>128.9</ele>
        <time>2022-04-14T10:57:36Z</time>
      </trkpt>
      <trkpt lat="42.8458500" lon="-8.5217520">
        <ele>128.6</ele>
        <time>2022-04-14T10:57:37Z</time>
      </trkpt>
      <trkpt lat="42.8458250" lon="-8.5218120">
        <ele>128.5</ele>
        <time>2022-04-14T10:57:38Z</time>
      </trkpt>
      <trkpt lat="42.8457730" lon="-8.5219210">
        <ele>128.3</ele>
        <time>2022-04-14T10:57:39Z</time>
      </trkpt>
      <trkpt lat="42.8457210" lon="-8.5220300">
        <ele>128.0</ele>
        <time>2022-04-14T10:57:40Z</time>
      </trkpt>
      <trkpt lat="42.8456970" lon="-8.5220840">
        <ele>127.9</ele>
        <time>2022-04-14T10:57:41Z</time>
      </trkpt>
      <trkpt lat="42.8456730" lon="-8.5221370">
        <ele>127.8</ele>
        <time>2022-04-14T10:57:42Z</time>
      </trkpt>
      <trkpt lat="42.8456030" lon="-8.5222950">
        <ele>127.4</ele>
        <time>2022-04-14T10:57:43Z</time>
      </trkpt>
      <trkpt lat="42.8455810" lon="-8.5223460">
        <ele>127.3</ele>
        <time>2022-04-14T10:57:44Z</time>
      </trkpt>
      <trkpt lat="42.8455140" lon="-8.5224990">
        <ele>126.9</ele>
        <time>2022-04-14T10:57:45Z</time>
      </trkpt>
      <trkpt lat="42.8454920" lon="-8.5225490">
        <ele>126.8</ele>
        <time>2022-04-14T10:57:46Z</time>
      </trkpt>
      <trkpt lat="42.8454020" lon="-8.5227200">
        <ele>126.5</ele>
        <time>2022-04-14T10:57:47Z</time>
      </trkpt>
      <trkpt lat="42.8453580" lon="-8.5227910">
        <ele>126.4</ele>
        <time>2022-04-14T10:57:48Z</time>
      </trkpt>
      <trkpt lat="42.8452700" lon="-8.5229330">
        <ele>126.2</ele>
        <time>2022-04-14T10:57:49Z</time>
      </trkpt>
      <trkpt lat="42.8452140" lon="-8.5229830">
        <ele>126.1</ele>
        <time>2022-04-14T10:57:50Z</time>
      </trkpt>
      <trkpt lat="42.8451590" lon="-8.5230330">
        <ele>126.1</ele>
        <time>2022-04-14T10:57:51Z</time>
      </trkpt>
      <trkpt lat="42.8450480" lon="-8.5231320">
        <ele>125.9</ele>
        <time>2022-04-14T10:57:52Z</time>
      </trkpt>
      <trkpt lat="42.8449630" lon="-8.5231780">
        <ele>125.8</ele>
        <time>2022-04-14T10:57:53Z</time>
      </trkpt>
      <trkpt lat="42.8449210" lon="-8.5231980">
        <ele>125.8</ele>
        <time>2022-04-14T10:57:54Z</time>
      </trkpt>
      <trkpt lat="42.8448800" lon="-8.5232170">
        <ele>125.8</ele>
        <time>2022-04-14T10:57:55Z</time>
      </trkpt>
      <trkpt lat="42.8447580" lon="-8.5232750">
        <ele>125.8</ele>
        <time>2022-04-14T10:57:56Z</time>
      </trkpt>
      <trkpt lat="42.8447180" lon="-8.5232940">
        <ele>125.8</ele>
        <time>2022-04-14T10:57:57Z</time>
      </trkpt>
      <trkpt lat="42.8446030" lon="-8.5233500">
        <ele>125.8</ele>
        <time>2022-04-14T10:57:58Z</time>
      </trkpt>
      <trkpt lat="42.8445680" lon="-8.5233690">
        <ele>125.9</ele>
        <time>2022-04-14T10:57:59Z</time>
      </trkpt>
      <trkpt lat="42.8444820" lon="-8.5234210">
        <ele>126.0</ele>
        <time>2022-04-14T10:58:00Z</time>
      </trkpt>
      <trkpt lat="42.8444660" lon="-8.5234350">
        <ele>126.0</ele>
        <time>2022-04-14T10:58:01Z</time>
      </trkpt>
      <trkpt lat="42.8444510" lon="-8.5234490">
        <ele>126.0</ele>
        <time>2022-04-14T10:58:02Z</time>
      </trkpt>
      <trkpt lat="42.8443930" lon="-8.5235120">
        <ele>126.1</ele>
        <time>2022-04-14T10:58:03Z</time>
      </trkpt>
      <trkpt lat="42.8443820" lon="-8.5235340">
        <ele>126.1</ele>
        <time>2022-04-14T10:58:04Z</time>
      </trkpt>
      <trkpt lat="42.8443710" lon="-8.5235560">
        <ele>126.1</ele>
        <time>2022-04-14T10:58:05Z</time>
      </trkpt>
      <trkpt lat="42.8443600" lon="-8.5235780">
        <ele>126.1</ele>
        <time>2022-04-14T10:58:06Z</time>
      </trkpt>
      <trkpt lat="42.8443490" lon="-8.5236000">
        <ele>126.1</ele>
        <time>2022-04-14T10:58:07Z</time>
      </trkpt>
      <trkpt lat="42.8443390" lon="-8.5236230">
        <ele>126.2</ele>
        <time>2022-04-14T10:58:08Z</time>
      </trkpt>
      <trkpt lat="42.8443300" lon="-8.5236470">
        <ele>126.2</ele>
        <time>2022-04-14T10:58:09Z</time>
      </trkpt>
      <trkpt lat="42.8443200" lon="-8.5236700">
        <ele>126.2</ele>
        <time>2022-04-14T10:58:10Z</time>
      </trkpt>
      <trkpt lat="42.8442680" lon="-8.5237580">
        <ele>126.2</ele>
        <time>2022-04-14T10:58:11Z</time>
      </trkpt>
      <trkpt lat="42.8442450" lon="-8.5237750">
        <ele>126.2</ele>
        <time>2022-04-14T10:58:12Z</time>
      </trkpt>
      <trkpt lat="42.8441690" lon="-8.5238070">
        <ele>126.1</ele>
        <time>2022-04-14T10:58:13Z</time>
      </trkpt>
      <trkpt lat="42.8441410" lon="-8.5238060">
        <ele>126.1</ele>
        <time>2022-04-14T10:58:14Z</time>
      </trkpt>
      <trkpt lat="42.8440410" lon="-8.5237760">
        <ele>126.4</ele>
        <time>2022-04-14T10:58:15Z</time>
      </trkpt>
      <trkpt lat="42.8439970" lon="-8.5237480">
        <ele>126.5</ele>
        <time>2022-04-14T10:58:16Z</time>
      </trkpt>
      <trkpt lat="42.8439950" lon="-8.5237430">
        <ele>126.5</ele>
        <time>2022-04-14T10:58:17Z</time>
      </trkpt>
      <trkpt lat="42.8439940" lon="-8.5237370">
        <ele>126.5</ele>
        <time>2022-04-14T10:58:18Z</time>
      </trkpt>
      <trkpt lat="42.8439930" lon="-8.5237320">
        <ele>126.5</ele>
        <time>2022-04-14T10:58:19Z</time>
      </trkpt>
      <trkpt lat="42.8439910" lon="-8.5237270">
        <ele>126.5</ele>
        <time>2022-04-14T10:58:20Z</time>
      </trkpt>
      <trkpt lat="42.8439900" lon="-8.5237220">
        <ele>126.5</ele>
        <time>2022-04-14T10:58:21Z</time>
      </trkpt>
      <trkpt lat="42.8439880" lon="-8.5237170">
        <ele>126.5</ele>
        <time>2022-04-14T10:58:22Z</time>
      </trkpt>
      <trkpt lat="42.8439870" lon="-8.5237120">
        <ele>126.5</ele>
        <time>2022-04-14T10:58:23Z</time>
      </trkpt>
      <trkpt lat="42.8439860" lon="-8.5237070">
        <ele>126.5</ele>
        <time>2022-04-14T10:58:24Z</time>
      </trkpt>
      <trkpt lat="42.8439840" lon="-8.5237020">
        <ele>126.5</ele>
        <time>2022-04-14T10:58:25Z</time>
      </trkpt>
      <trkpt lat="42.8439830" lon="-8.5236970">
        <ele>126.5</ele>
        <time>2022-04-14T10:58:26Z</time>
      </trkpt>
      <trkpt lat="42.8439820" lon="-8.5236920">
        <ele>126.5</ele>
        <time>2022-04-14T10:58:27Z</time>
      </trkpt>
      <trkpt lat="42.8439800" lon="-8.5236870">
        <ele>126.5</ele>
        <time>2022-04-14T10:58:28Z</time>
      </trkpt>
      <trkpt lat="42.8439790" lon="-8.5236810">
        <ele>126.5</ele>
        <time>2022-04-14T10:58:29Z</time>
      </trkpt>
      <trkpt lat="42.8439770" lon="-8.5236760">
        <ele>126.5</ele>
        <time>2022-04-14T10:58:30Z</time>
      </trkpt>
      <trkpt lat="42.8439760" lon="-8.5236710">
        <ele>126.5</ele>
        <time>2022-04-14T10:58:31Z</time>
      </trkpt>
      <trkpt lat="42.8439530" lon="-8.5235280">
        <ele>126.7</ele>
        <time>2022-04-14T10:58:32Z</time>
      </trkpt>
      <trkpt lat="42.8439510" lon="-8.5234610">
        <ele>126.6</ele>
        <time>2022-04-14T10:58:33Z</time>
      </trkpt>
      <trkpt lat="42.8439490" lon="-8.5233940">
        <ele>126.4</ele>
        <time>2022-04-14T10:58:34Z</time>
      </trkpt>
      <trkpt lat="42.8439430" lon="-8.5233540">
        <ele>126.3</ele>
        <time>2022-04-14T10:58:35Z</time>
      </trkpt>
      <trkpt lat="42.8439370" lon="-8.5233150">
        <ele>126.3</ele>
        <time>2022-04-14T10:58:36Z</time>
      </trkpt>
      <trkpt lat="42.8439140" lon="-8.5231960">
        <ele>126.0</ele>
        <time>2022-04-14T10:58:37Z</time>
      </trkpt>
      <trkpt lat="42.8439030" lon="-8.5231560">
        <ele>125.9</ele>
        <time>2022-04-14T10:58:38Z</time>
      </trkpt>
      <trkpt lat="42.8438690" lon="-8.5230350">
        <ele>125.7</ele>
        <time>2022-04-14T10:58:39Z</time>
      </trkpt>
      <trkpt lat="42.8438560" lon="-8.5229950">
        <ele>125.7</ele>
        <time>2022-04-14T10:58:40Z</time>
      </trkpt>
      <trkpt lat="42.8438170" lon="-8.5228750">
        <ele>125.5</ele>
        <time>2022-04-14T10:58:41Z</time>
      </trkpt>
      <trkpt lat="42.8438030" lon="-8.5228350">
        <ele>125.4</ele>
        <time>2022-04-14T10:58:42Z</time>
      </trkpt>
      <trkpt lat="42.8437600" lon="-8.5227140">
        <ele>125.2</ele>
        <time>2022-04-14T10:58:43Z</time>
      </trkpt>
      <trkpt lat="42.8437450" lon="-8.5226730">
        <ele>125.2</ele>
        <time>2022-04-14T10:58:44Z</time>
      </trkpt>
      <trkpt lat="42.8436990" lon="-8.5225510">
        <ele>125.0</ele>
        <time>2022-04-14T10:58:45Z</time>
      </trkpt>
      <trkpt lat="42.8436830" lon="-8.5225120">
        <ele>125.0</ele>
        <time>2022-04-14T10:58:46Z</time>
      </trkpt>
      <trkpt lat="42.8436340" lon="-8.5223930">
        <ele>124.9</ele>
        <time>2022-04-14T10:58:47Z</time>
      </trkpt>
      <trkpt lat="42.8436170" lon="-8.5223520">
        <ele>124.8</ele>
        <time>2022-04-14T10:58:48Z</time>
      </trkpt>
      <trkpt lat="42.8435560" lon="-8.5221840">
        <ele>124.7</ele>
        <time>2022-04-14T10:58:49Z</time>
      </trkpt>
      <trkpt lat="42.8435290" lon="-8.5220970">
        <ele>124.7</ele>
        <time>2022-04-14T10:58:50Z</time>
      </trkpt>
      <trkpt lat="42.8435010" lon="-8.5220110">
        <ele>124.7</ele>
        <time>2022-04-14T10:58:51Z</time>
      </trkpt>
      <trkpt lat="42.8434630" lon="-8.5218870">
        <ele>124.8</ele>
        <time>2022-04-14T10:58:52Z</time>
      </trkpt>
      <trkpt lat="42.8434500" lon="-8.5218470">
        <ele>124.9</ele>
        <time>2022-04-14T10:58:53Z</time>
      </trkpt>
      <trkpt lat="42.8434250" lon="-8.5217670">
        <ele>125.0</ele>
        <time>2022-04-14T10:58:54Z</time>
      </trkpt>
      <trkpt lat="42.8434130" lon="-8.5217280">
        <ele>125.0</ele>
        <time>2022-04-14T10:58:55Z</time>
      </trkpt>
      <trkpt lat="42.8434010" lon="-8.5216900">
        <ele>125.1</ele>
        <time>2022-04-14T10:58:56Z</time>
      </trkpt>
      <trkpt lat="42.8433630" lon="-8.5215760">
        <ele>125.3</ele>
        <time>2022-04-14T10:58:57Z</time>
      </trkpt>
      <trkpt lat="42.8433500" lon="-8.5215390">
        <ele>125.3</ele>
        <time>2022-04-14T10:58:58Z</time>
      </trkpt>
      <trkpt lat="42.8432970" lon="-8.5213940">
        <ele>125.8</ele>
        <time>2022-04-14T10:58:59Z</time>
      </trkpt>
      <trkpt lat="42.8432720" lon="-8.5213240">
        <ele>126.0</ele>
        <time>2022-04-14T10:59:00Z</time>
      </trkpt>
      <trkpt lat="42.8432470" lon="-8.5212540">
        <ele>126.3</ele>
        <time>2022-04-14T10:59:01Z</time>
      </trkpt>
      <trkpt lat="42.8432220" lon="-8.5211830">
        <ele>126.5</ele>
        <time>2022-04-14T10:59:02Z</time>
      </trkpt>
      <trkpt lat="42.8431880" lon="-8.5210760">
        <ele>127.0</ele>
        <time>2022-04-14T10:59:03Z</time>
      </trkpt>
      <trkpt lat="42.8431790" lon="-8.5210420">
        <ele>127.1</ele>
        <time>2022-04-14T10:59:04Z</time>
      </trkpt>
      <trkpt lat="42.8431590" lon="-8.5209740">
        <ele>127.5</ele>
        <time>2022-04-14T10:59:05Z</time>
      </trkpt>
      <trkpt lat="42.8431480" lon="-8.5209410">
        <ele>127.6</ele>
        <time>2022-04-14T10:59:06Z</time>
      </trkpt>
      <trkpt lat="42.8431380" lon="-8.5209080">
        <ele>127.8</ele>
        <time>2022-04-14T10:59:07Z</time>
      </trkpt>
      <trkpt lat="42.8431040" lon="-8.5208100">
        <ele>128.3</ele>
        <time>2022-04-14T10:59:08Z</time>
      </trkpt>
      <trkpt lat="42.8430930" lon="-8.5207770">
        <ele>128.5</ele>
        <time>2022-04-14T10:59:09Z</time>
      </trkpt>
      <trkpt lat="42.8430580" lon="-8.5206790">
        <ele>129.0</ele>
        <time>2022-04-14T10:59:10Z</time>
      </trkpt>
      <trkpt lat="42.8430470" lon="-8.5206470">
        <ele>129.2</ele>
        <time>2022-04-14T10:59:11Z</time>
      </trkpt>
      <trkpt lat="42.8430010" lon="-8.5205210">
        <ele>129.8</ele>
        <time>2022-04-14T10:59:12Z</time>
      </trkpt>
      <trkpt lat="42.8429760" lon="-8.5204600">
        <ele>130.1</ele>
        <time>2022-04-14T10:59:13Z</time>
      </trkpt>
      <trkpt lat="42.8429650" lon="-8.5204270">
        <ele>130.2</ele>
        <time>2022-04-14T10:59:14Z</time>
      </trkpt>
      <trkpt lat="42.8429540" lon="-8.5203930">
        <ele>130.4</ele>
        <time>2022-04-14T10:59:15Z</time>
      </trkpt>
      <trkpt lat="42.8429190" lon="-8.5202930">
        <ele>130.9</ele>
        <time>2022-04-14T10:59:16Z</time>
      </trkpt>
      <trkpt lat="42.8429070" lon="-8.5202600">
        <ele>131.2</ele>
        <time>2022-04-14T10:59:17Z</time>
      </trkpt>
      <trkpt lat="42.8428590" lon="-8.5201330">
        <ele>132.3</ele>
        <time>2022-04-14T10:59:18Z</time>
      </trkpt>
      <trkpt lat="42.8428370" lon="-8.5200710">
        <ele>132.8</ele>
        <time>2022-04-14T10:59:19Z</time>
      </trkpt>
      <trkpt lat="42.8428060" lon="-8.5200210">
        <ele>133.4</ele>
        <time>2022-04-14T10:59:20Z</time>
      </trkpt>
      <trkpt lat="42.8427740" lon="-8.5199700">
        <ele>133.9</ele>
        <time>2022-04-14T10:59:21Z</time>
      </trkpt>
      <trkpt lat="42.8427210" lon="-8.5199810">
        <ele>134.5</ele>
        <time>2022-04-14T10:59:22Z</time>
      </trkpt>
      <trkpt lat="42.8426680" lon="-8.5199920">
        <ele>135.1</ele>
        <time>2022-04-14T10:59:23Z</time>
      </trkpt>
      <trkpt lat="42.8426140" lon="-8.5200030">
        <ele>135.5</ele>
        <time>2022-04-14T10:59:24Z</time>
      </trkpt>
      <trkpt lat="42.8425610" lon="-8.5200140">
        <ele>135.6</ele>
        <time>2022-04-14T10:59:25Z</time>
      </trkpt>
      <trkpt lat="42.8425080" lon="-8.5200250">
        <ele>135.6</ele>
        <time>2022-04-14T10:59:26Z</time>
      </trkpt>
      <trkpt lat="42.8424130" lon="-8.5200840">
        <ele>135.8</ele>
        <time>2022-04-14T10:59:27Z</time>
      </trkpt>
      <trkpt lat="42.8423860" lon="-8.5201010">
        <ele>135.8</ele>
        <time>2022-04-14T10:59:28Z</time>
      </trkpt>
      <trkpt lat="42.8423300" lon="-8.5201350">
        <ele>136.0</ele>
        <time>2022-04-14T10:59:29Z</time>
      </trkpt>
      <trkpt lat="42.8422220" lon="-8.5201910">
        <ele>136.2</ele>
        <time>2022-04-14T10:59:30Z</time>
      </trkpt>
      <trkpt lat="42.8422220" lon="-8.5201910">
        <ele>136.2</ele>
        <time>2022-04-14T10:59:31Z</time>
      </trkpt>
      <trkpt lat="42.8421910" lon="-8.5202050">
        <ele>136.3</ele>
        <time>2022-04-14T10:59:32Z</time>
      </trkpt>
      <trkpt lat="42.8421600" lon="-8.5202190">
        <ele>136.4</ele>
        <time>2022-04-14T10:59:33Z</time>
      </trkpt>
      <trkpt lat="42.8420700" lon="-8.5202640">
        <ele>136.6</ele>
        <time>2022-04-14T10:59:34Z</time>
      </trkpt>
      <trkpt lat="42.8420420" lon="-8.5202820">
        <ele>136.6</ele>
        <time>2022-04-14T10:59:35Z</time>
      </trkpt>
      <trkpt lat="42.8419570" lon="-8.5203340">
        <ele>136.9</ele>
        <time>2022-04-14T10:59:36Z</time>
      </trkpt>
      <trkpt lat="42.8419270" lon="-8.5203510">
        <ele>136.9</ele>
        <time>2022-04-14T10:59:37Z</time>
      </trkpt>
      <trkpt lat="42.8418370" lon="-8.5204030">
        <ele>137.1</ele>
        <time>2022-04-14T10:59:38Z</time>
      </trkpt>
      <trkpt lat="42.8418050" lon="-8.5204210">
        <ele>137.2</ele>
        <time>2022-04-14T10:59:39Z</time>
      </trkpt>
      <trkpt lat="42.8417110" lon="-8.5204770">
        <ele>137.4</ele>
        <time>2022-04-14T10:59:40Z</time>
      </trkpt>
      <trkpt lat="42.8416810" lon="-8.5204960">
        <ele>137.5</ele>
        <time>2022-04-14T10:59:41Z</time>
      </trkpt>
      <trkpt lat="42.8415890" lon="-8.5205530">
        <ele>137.7</ele>
        <time>2022-04-14T10:59:42Z</time>
      </trkpt>
      <trkpt lat="42.8415590" lon="-8.5205710">
        <ele>137.8</ele>
        <time>2022-04-14T10:59:43Z</time>
      </trkpt>
      <trkpt lat="42.8414680" lon="-8.5206270">
        <ele>138.0</ele>
        <time>2022-04-14T10:59:44Z</time>
      </trkpt>
      <trkpt lat="42.8414370" lon="-8.5206470">
        <ele>138.1</ele>
        <time>2022-04-14T10:59:45Z</time>
      </trkpt>
      <trkpt lat="42.8413450" lon="-8.5207040">
        <ele>138.3</ele>
        <time>2022-04-14T10:59:46Z</time>
      </trkpt>
      <trkpt lat="42.8413130" lon="-8.5207220">
        <ele>138.4</ele>
        <time>2022-04-14T10:59:47Z</time>
      </trkpt>
      <trkpt lat="42.8412170" lon="-8.5207760">
        <ele>138.6</ele>
        <time>2022-04-14T10:59:48Z</time>
      </trkpt>
      <trkpt lat="42.8411850" lon="-8.5207940">
        <ele>138.6</ele>
        <time>2022-04-14T10:59:49Z</time>
      </trkpt>
      <trkpt lat="42.8410900" lon="-8.5208490">
        <ele>138.7</ele>
        <time>2022-04-14T10:59:50Z</time>
      </trkpt>
      <trkpt lat="42.8410610" lon="-8.5208680">
        <ele>138.7</ele>
        <time>2022-04-14T10:59:51Z</time>
      </trkpt>
      <trkpt lat="42.8409740" lon="-8.5209280">
        <ele>138.8</ele>
        <time>2022-04-14T10:59:52Z</time>
      </trkpt>
      <trkpt lat="42.8409470" lon="-8.5209510">
        <ele>138.8</ele>
        <time>2022-04-14T10:59:53Z</time>
      </trkpt>
      <trkpt lat="42.8408640" lon="-8.5210200">
        <ele>138.8</ele>
        <time>2022-04-14T10:59:54Z</time>
      </trkpt>
      <trkpt lat="42.8408370" lon="-8.5210430">
        <ele>138.8</ele>
        <time>2022-04-14T10:59:55Z</time>
      </trkpt>
      <trkpt lat="42.8407540" lon="-8.5211170">
        <ele>138.7</ele>
        <time>2022-04-14T10:59:56Z</time>
      </trkpt>
      <trkpt lat="42.8407250" lon="-8.5211450">
        <ele>138.7</ele>
        <time>2022-04-14T10:59:57Z</time>
      </trkpt>
      <trkpt lat="42.8406380" lon="-8.5212340">
        <ele>138.5</ele>
        <time>2022-04-14T10:59:58Z</time>
      </trkpt>
      <trkpt lat="42.8406100" lon="-8.5212680">
        <ele>138.4</ele>
        <time>2022-04-14T10:59:59Z</time>
      </trkpt>
      <trkpt lat="42.8405240" lon="-8.5213700">
        <ele>138.1</ele>
        <time>2022-04-14T11:00:00Z</time>
      </trkpt>
      <trkpt lat="42.8404970" lon="-8.5214050">
        <ele>138.0</ele>
        <time>2022-04-14T11:00:01Z</time>
      </trkpt>
      <trkpt lat="42.8404100" lon="-8.5215070">
        <ele>137.6</ele>
        <time>2022-04-14T11:00:02Z</time>
      </trkpt>
      <trkpt lat="42.8403780" lon="-8.5215400">
        <ele>137.4</ele>
        <time>2022-04-14T11:00:03Z</time>
      </trkpt>
      <trkpt lat="42.8402770" lon="-8.5216280">
        <ele>136.9</ele>
        <time>2022-04-14T11:00:04Z</time>
      </trkpt>
      <trkpt lat="42.8402400" lon="-8.5216520">
        <ele>136.7</ele>
        <time>2022-04-14T11:00:05Z</time>
      </trkpt>
      <trkpt lat="42.8400820" lon="-8.5217330">
        <ele>135.9</ele>
        <time>2022-04-14T11:00:06Z</time>
      </trkpt>
      <trkpt lat="42.8400000" lon="-8.5217670">
        <ele>135.5</ele>
        <time>2022-04-14T11:00:07Z</time>
      </trkpt>
      <trkpt lat="42.8398360" lon="-8.5218350">
        <ele>134.7</ele>
        <time>2022-04-14T11:00:08Z</time>
      </trkpt>
      <trkpt lat="42.8398360" lon="-8.5218350">
        <ele>134.7</ele>
        <time>2022-04-14T11:00:09Z</time>
      </trkpt>
      <trkpt lat="42.8397960" lon="-8.5218500">
        <ele>134.5</ele>
        <time>2022-04-14T11:00:10Z</time>
      </trkpt>
      <trkpt lat="42.8397570" lon="-8.5218640">
        <ele>134.4</ele>
        <time>2022-04-14T11:00:11Z</time>
      </trkpt>
      <trkpt lat="42.8396140" lon="-8.5219140">
        <ele>133.7</ele>
        <time>2022-04-14T11:00:12Z</time>
      </trkpt>
      <trkpt lat="42.8395510" lon="-8.5219340">
        <ele>133.4</ele>
        <time>2022-04-14T11:00:13Z</time>
      </trkpt>
      <trkpt lat="42.8394250" lon="-8.5219750">
        <ele>132.7</ele>
        <time>2022-04-14T11:00:14Z</time>
      </trkpt>
      <trkpt lat="42.8393840" lon="-8.5219920">
        <ele>132.5</ele>
        <time>2022-04-14T11:00:15Z</time>
      </trkpt>
      <trkpt lat="42.8393430" lon="-8.5220090">
        <ele>132.3</ele>
        <time>2022-04-14T11:00:16Z</time>
      </trkpt>
      <trkpt lat="42.8391970" lon="-8.5220670">
        <ele>131.5</ele>
        <time>2022-04-14T11:00:17Z</time>
      </trkpt>
      <trkpt lat="42.8391340" lon="-8.5220910">
        <ele>131.1</ele>
        <time>2022-04-14T11:00:18Z</time>
      </trkpt>
      <trkpt lat="42.8390060" lon="-8.5221390">
        <ele>130.3</ele>
        <time>2022-04-14T11:00:19Z</time>
      </trkpt>
      <trkpt lat="42.8389640" lon="-8.5221600">
        <ele>130.0</ele>
        <time>2022-04-14T11:00:20Z</time>
      </trkpt>
      <trkpt lat="42.8389220" lon="-8.5221820">
        <ele>129.7</ele>
        <time>2022-04-14T11:00:21Z</time>
      </trkpt>
      <trkpt lat="42.8387740" lon="-8.5222650">
        <ele>128.6</ele>
        <time>2022-04-14T11:00:22Z</time>
      </trkpt>
      <trkpt lat="42.8387100" lon="-8.5223060">
        <ele>128.1</ele>
        <time>2022-04-14T11:00:23Z</time>
      </trkpt>
      <trkpt lat="42.8385810" lon="-8.5223870">
        <ele>127.0</ele>
        <time>2022-04-14T11:00:24Z</time>
      </trkpt>
      <trkpt lat="42.8384950" lon="-8.5224420">
        <ele>126.3</ele>
        <time>2022-04-14T11:00:25Z</time>
      </trkpt>
      <trkpt lat="42.8384090" lon="-8.5224980">
        <ele>125.6</ele>
        <time>2022-04-14T11:00:26Z</time>
      </trkpt>
      <trkpt lat="42.8382300" lon="-8.5226070">
        <ele>124.3</ele>
        <time>2022-04-14T11:00:27Z</time>
      </trkpt>
      <trkpt lat="42.8382300" lon="-8.5226070">
        <ele>124.3</ele>
        <time>2022-04-14T11:00:28Z</time>
      </trkpt>
      <trkpt lat="42.8381340" lon="-8.5226610">
        <ele>123.6</ele>
        <time>2022-04-14T11:00:29Z</time>
      </trkpt>
      <trkpt lat="42.8380340" lon="-8.5227000">
        <ele>122.9</ele>
        <time>2022-04-14T11:00:30Z</time>
      </trkpt>
      <trkpt lat="42.8379250" lon="-8.5227410">
        <ele>122.1</ele>
        <time>2022-04-14T11:00:31Z</time>
      </trkpt>
      <trkpt lat="42.8378150" lon="-8.5227760">
        <ele>121.3</ele>
        <time>2022-04-14T11:00:32Z</time>
      </trkpt>
      <trkpt lat="42.8377040" lon="-8.5228070">
        <ele>120.6</ele>
        <time>2022-04-14T11:00:33Z</time>
      </trkpt>
      <trkpt lat="42.8375850" lon="-8.5228350">
        <ele>119.9</ele>
        <time>2022-04-14T11:00:34Z</time>
      </trkpt>
      <trkpt lat="42.8374720" lon="-8.5228630">
        <ele>119.3</ele>
        <time>2022-04-14T11:00:35Z</time>
      </trkpt>
      <trkpt lat="42.8373550" lon="-8.5228880">
        <ele>118.9</ele>
        <time>2022-04-14T11:00:36Z</time>
      </trkpt>
      <trkpt lat="42.8372380" lon="-8.5229100">
        <ele>118.5</ele>
        <time>2022-04-14T11:00:37Z</time>
      </trkpt>
      <trkpt lat="42.8371230" lon="-8.5229180">
        <ele>118.3</ele>
        <time>2022-04-14T11:00:38Z</time>
      </trkpt>
      <trkpt lat="42.8370080" lon="-8.5229260">
        <ele>118.1</ele>
        <time>2022-04-14T11:00:39Z</time>
      </trkpt>
      <trkpt lat="42.8368980" lon="-8.5229270">
        <ele>118.0</ele>
        <time>2022-04-14T11:00:40Z</time>
      </trkpt>
      <trkpt lat="42.8367900" lon="-8.5229320">
        <ele>118.0</ele>
        <time>2022-04-14T11:00:41Z</time>
      </trkpt>
      <trkpt lat="42.8366910" lon="-8.5229310">
        <ele>118.0</ele>
        <time>2022-04-14T11:00:42Z</time>
      </trkpt>
      <trkpt lat="42.8365910" lon="-8.5229330">
        <ele>118.1</ele>
        <time>2022-04-14T11:00:43Z</time>
      </trkpt>
      <trkpt lat="42.8364870" lon="-8.5229430">
        <ele>118.2</ele>
        <time>2022-04-14T11:00:44Z</time>
      </trkpt>
      <trkpt lat="42.8363870" lon="-8.5229460">
        <ele>118.2</ele>
        <time>2022-04-14T11:00:45Z</time>
      </trkpt>
      <trkpt lat="42.8361930" lon="-8.5229410">
        <ele>118.1</ele>
        <time>2022-04-14T11:00:46Z</time>
      </trkpt>
      <trkpt lat="42.8361930" lon="-8.5229410">
        <ele>118.1</ele>
        <time>2022-04-14T11:00:47Z</time>
      </trkpt>
      <trkpt lat="42.8360950" lon="-8.5229400">
        <ele>118.0</ele>
        <time>2022-04-14T11:00:48Z</time>
      </trkpt>
      <trkpt lat="42.8359960" lon="-8.5229440">
        <ele>117.8</ele>
        <time>2022-04-14T11:00:49Z</time>
      </trkpt>
      <trkpt lat="42.8358940" lon="-8.5229460">
        <ele>117.6</ele>
        <time>2022-04-14T11:00:50Z</time>
      </trkpt>
      <trkpt lat="42.8357930" lon="-8.5229400">
        <ele>117.3</ele>
        <time>2022-04-14T11:00:51Z</time>
      </trkpt>
      <trkpt lat="42.8356910" lon="-8.5229390">
        <ele>117.0</ele>
        <time>2022-04-14T11:00:52Z</time>
      </trkpt>
      <trkpt lat="42.8355850" lon="-8.5229410">
        <ele>116.7</ele>
        <time>2022-04-14T11:00:53Z</time>
      </trkpt>
      <trkpt lat="42.8354800" lon="-8.5229430">
        <ele>116.4</ele>
        <time>2022-04-14T11:00:54Z</time>
      </trkpt>
      <trkpt lat="42.8353750" lon="-8.5229390">
        <ele>116.1</ele>
        <time>2022-04-14T11:00:55Z</time>
      </trkpt>
      <trkpt lat="42.8352670" lon="-8.5229400">
        <ele>115.9</ele>
        <time>2022-04-14T11:00:56Z</time>
      </trkpt>
      <trkpt lat="42.8351600" lon="-8.5229430">
        <ele>115.8</ele>
        <time>2022-04-14T11:00:57Z</time>
      </trkpt>
      <trkpt lat="42.8350590" lon="-8.5229400">
        <ele>115.8</ele>
        <time>2022-04-14T11:00:58Z</time>
      </trkpt>
      <trkpt lat="42.8349520" lon="-8.5229470">
        <ele>115.7</ele>
        <time>2022-04-14T11:00:59Z</time>
      </trkpt>
      <trkpt lat="42.8348530" lon="-8.5229440">
        <ele>115.7</ele>
        <time>2022-04-14T11:01:00Z</time>
      </trkpt>
      <trkpt lat="42.8347620" lon="-8.5229310">
        <ele>115.7</ele>
        <time>2022-04-14T11:01:01Z</time>
      </trkpt>
      <trkpt lat="42.8346720" lon="-8.5229290">
        <ele>115.8</ele>
        <time>2022-04-14T11:01:02Z</time>
      </trkpt>
      <trkpt lat="42.8345820" lon="-8.5229290">
        <ele>116.0</ele>
        <time>2022-04-14T11:01:03Z</time>
      </trkpt>
      <trkpt lat="42.8344920" lon="-8.5229290">
        <ele>116.2</ele>
        <time>2022-04-14T11:01:04Z</time>
      </trkpt>
      <trkpt lat="42.8343110" lon="-8.5229300">
        <ele>116.8</ele>
        <time>2022-04-14T11:01:05Z</time>
      </trkpt>
      <trkpt lat="42.8343110" lon="-8.5229300">
        <ele>116.8</ele>
        <time>2022-04-14T11:01:06Z</time>
      </trkpt>
      <trkpt lat="42.8342690" lon="-8.5229360">
        <ele>117.0</ele>
        <time>2022-04-14T11:01:07Z</time>
      </trkpt>
      <trkpt lat="42.8342260" lon="-8.5229410">
        <ele>117.2</ele>
        <time>2022-04-14T11:01:08Z</time>
      </trkpt>
      <trkpt lat="42.8341010" lon="-8.5229630">
        <ele>117.6</ele>
        <time>2022-04-14T11:01:09Z</time>
      </trkpt>
      <trkpt lat="42.8340610" lon="-8.5229740">
        <ele>117.8</ele>
        <time>2022-04-14T11:01:10Z</time>
      </trkpt>
      <trkpt lat="42.8339440" lon="-8.5230110">
        <ele>118.2</ele>
        <time>2022-04-14T11:01:11Z</time>
      </trkpt>
      <trkpt lat="42.8339070" lon="-8.5230270">
        <ele>118.3</ele>
        <time>2022-04-14T11:01:12Z</time>
      </trkpt>
      <trkpt lat="42.8337960" lon="-8.5230780">
        <ele>118.7</ele>
        <time>2022-04-14T11:01:13Z</time>
      </trkpt>
      <trkpt lat="42.8337590" lon="-8.5230970">
        <ele>118.9</ele>
        <time>2022-04-14T11:01:14Z</time>
      </trkpt>
      <trkpt lat="42.8336520" lon="-8.5231540">
        <ele>119.3</ele>
        <time>2022-04-14T11:01:15Z</time>
      </trkpt>
      <trkpt lat="42.8336170" lon="-8.5231730">
        <ele>119.5</ele>
        <time>2022-04-14T11:01:16Z</time>
      </trkpt>
      <trkpt lat="42.8335150" lon="-8.5232340">
        <ele>119.9</ele>
        <time>2022-04-14T11:01:17Z</time>
      </trkpt>
      <trkpt lat="42.8334820" lon="-8.5232540">
        <ele>120.0</ele>
        <time>2022-04-14T11:01:18Z</time>
      </trkpt>
      <trkpt lat="42.8333780" lon="-8.5233160">
        <ele>120.5</ele>
        <time>2022-04-14T11:01:19Z</time>
      </trkpt>
      <trkpt lat="42.8333410" lon="-8.5233370">
        <ele>120.6</ele>
        <time>2022-04-14T11:01:20Z</time>
      </trkpt>
      <trkpt lat="42.8332330" lon="-8.5233950">
        <ele>121.1</ele>
        <time>2022-04-14T11:01:21Z</time>
      </trkpt>
      <trkpt lat="42.8331990" lon="-8.5234120">
        <ele>121.3</ele>
        <time>2022-04-14T11:01:22Z</time>
      </trkpt>
      <trkpt lat="42.8330970" lon="-8.5234610">
        <ele>121.8</ele>
        <time>2022-04-14T11:01:23Z</time>
      </trkpt>
      <trkpt lat="42.8330630" lon="-8.5234770">
        <ele>121.9</ele>
        <time>2022-04-14T11:01:24Z</time>
      </trkpt>
      <trkpt lat="42.8329620" lon="-8.5235180">
        <ele>122.4</ele>
        <time>2022-04-14T11:01:25Z</time>
      </trkpt>
      <trkpt lat="42.8329310" lon="-8.5235290">
        <ele>122.5</ele>
        <time>2022-04-14T11:01:26Z</time>
      </trkpt>
      <trkpt lat="42.8328320" lon="-8.5235610">
        <ele>122.8</ele>
        <time>2022-04-14T11:01:27Z</time>
      </trkpt>
      <trkpt lat="42.8327970" lon="-8.5235720">
        <ele>122.9</ele>
        <time>2022-04-14T11:01:28Z</time>
      </trkpt>
      <trkpt lat="42.8326890" lon="-8.5236030">
        <ele>123.2</ele>
        <time>2022-04-14T11:01:29Z</time>
      </trkpt>
      <trkpt lat="42.8326520" lon="-8.5236110">
        <ele>123.3</ele>
        <time>2022-04-14T11:01:30Z</time>
      </trkpt>
      <trkpt lat="42.8325430" lon="-8.5236290">
        <ele>123.5</ele>
        <time>2022-04-14T11:01:31Z</time>
      </trkpt>
      <trkpt lat="42.8325070" lon="-8.5236320">
        <ele>123.5</ele>
        <time>2022-04-14T11:01:32Z</time>
      </trkpt>
      <trkpt lat="42.8323990" lon="-8.5236360">
        <ele>123.5</ele>
        <time>2022-04-14T11:01:33Z</time>
      </trkpt>
      <trkpt lat="42.8323620" lon="-8.5236350">
        <ele>123.5</ele>
        <time>2022-04-14T11:01:34Z</time>
      </trkpt>
      <trkpt lat="42.8322510" lon="-8.5236310">
        <ele>123.4</ele>
        <time>2022-04-14T11:01:35Z</time>
      </trkpt>
      <trkpt lat="42.8322150" lon="-8.5236280">
        <ele>123.4</ele>
        <time>2022-04-14T11:01:36Z</time>
      </trkpt>
      <trkpt lat="42.8321040" lon="-8.5236200">
        <ele>123.2</ele>
        <time>2022-04-14T11:01:37Z</time>
      </trkpt>
      <trkpt lat="42.8320660" lon="-8.5236170">
        <ele>123.2</ele>
        <time>2022-04-14T11:01:38Z</time>
      </trkpt>
      <trkpt lat="42.8319530" lon="-8.5236040">
        <ele>123.0</ele>
        <time>2022-04-14T11:01:39Z</time>
      </trkpt>
      <trkpt lat="42.8319150" lon="-8.5235970">
        <ele>123.0</ele>
        <time>2022-04-14T11:01:40Z</time>
      </trkpt>
      <trkpt lat="42.8317620" lon="-8.5235630">
        <ele>122.8</ele>
        <time>2022-04-14T11:01:41Z</time>
      </trkpt>
      <trkpt lat="42.8316850" lon="-8.5235430">
        <ele>122.7</ele>
        <time>2022-04-14T11:01:42Z</time>
      </trkpt>
      <trkpt lat="42.8315290" lon="-8.5235040">
        <ele>122.6</ele>
        <time>2022-04-14T11:01:43Z</time>
      </trkpt>
      <trkpt lat="42.8315290" lon="-8.5235040">
        <ele>122.6</ele>
        <time>2022-04-14T11:01:44Z</time>
      </trkpt>
      <trkpt lat="42.8314920" lon="-8.5234940">
        <ele>122.5</ele>
        <time>2022-04-14T11:01:45Z</time>
      </trkpt>
      <trkpt lat="42.8314540" lon="-8.5234830">
        <ele>122.5</ele>
        <time>2022-04-14T11:01:46Z</time>
      </trkpt>
      <trkpt lat="42.8313410" lon="-8.5234520">
        <ele>122.5</ele>
        <time>2022-04-14T11:01:47Z</time>
      </trkpt>
      <trkpt lat="42.8313030" lon="-8.5234410">
        <ele>122.5</ele>
        <time>2022-04-14T11:01:48Z</time>
      </trkpt>
      <trkpt lat="42.8311890" lon="-8.5234110">
        <ele>122.7</ele>
        <time>2022-04-14T11:01:49Z</time>
      </trkpt>
      <trkpt lat="42.8311510" lon="-8.5234020">
        <ele>122.7</ele>
        <time>2022-04-14T11:01:50Z</time>
      </trkpt>
      <trkpt lat="42.8310390" lon="-8.5233740">
        <ele>123.0</ele>
        <time>2022-04-14T11:01:51Z</time>
      </trkpt>
      <trkpt lat="42.8310040" lon="-8.5233640">
        <ele>123.1</ele>
        <time>2022-04-14T11:01:52Z</time>
      </trkpt>
      <trkpt lat="42.8308960" lon="-8.5233380">
        <ele>123.4</ele>
        <time>2022-04-14T11:01:53Z</time>
      </trkpt>
      <trkpt lat="42.8308600" lon="-8.5233310">
        <ele>123.5</ele>
        <time>2022-04-14T11:01:54Z</time>
      </trkpt>
      <trkpt lat="42.8307550" lon="-8.5233090">
        <ele>123.8</ele>
        <time>2022-04-14T11:01:55Z</time>
      </trkpt>
      <trkpt lat="42.8307210" lon="-8.5233020">
        <ele>123.9</ele>
        <time>2022-04-14T11:01:56Z</time>
      </trkpt>
      <trkpt lat="42.8306210" lon="-8.5232790">
        <ele>124.1</ele>
        <time>2022-04-14T11:01:57Z</time>
      </trkpt>
      <trkpt lat="42.8305880" lon="-8.5232710">
        <ele>124.1</ele>
        <time>2022-04-14T11:01:58Z</time>
      </trkpt>
      <trkpt lat="42.8304900" lon="-8.5232460">
        <ele>124.3</ele>
        <time>2022-04-14T11:01:59Z</time>
      </trkpt>
      <trkpt lat="42.8304590" lon="-8.5232380">
        <ele>124.3</ele>
        <time>2022-04-14T11:02:00Z</time>
      </trkpt>
      <trkpt lat="42.8303660" lon="-8.5232120">
        <ele>124.4</ele>
        <time>2022-04-14T11:02:01Z</time>
      </trkpt>
      <trkpt lat="42.8303350" lon="-8.5232040">
        <ele>124.4</ele>
        <time>2022-04-14T11:02:02Z</time>
      </trkpt>
      <trkpt lat="42.8302400" lon="-8.5231780">
        <ele>124.4</ele>
        <time>2022-04-14T11:02:03Z</time>
      </trkpt>
      <trkpt lat="42.8302080" lon="-8.5231690">
        <ele>124.4</ele>
        <time>2022-04-14T11:02:04Z</time>
      </trkpt>
      <trkpt lat="42.8301110" lon="-8.5231400">
        <ele>124.3</ele>
        <time>2022-04-14T11:02:05Z</time>
      </trkpt>
      <trkpt lat="42.8300790" lon="-8.5231300">
        <ele>124.2</ele>
        <time>2022-04-14T11:02:06Z</time>
      </trkpt>
      <trkpt lat="42.8299790" lon="-8.5231000">
        <ele>124.0</ele>
        <time>2022-04-14T11:02:07Z</time>
      </trkpt>
      <trkpt lat="42.8299440" lon="-8.5230910">
        <ele>124.0</ele>
        <time>2022-04-14T11:02:08Z</time>
      </trkpt>
      <trkpt lat="42.8298380" lon="-8.5230660">
        <ele>123.8</ele>
        <time>2022-04-14T11:02:09Z</time>
      </trkpt>
      <trkpt lat="42.8298010" lon="-8.5230600">
        <ele>123.7</ele>
        <time>2022-04-14T11:02:10Z</time>
      </trkpt>
      <trkpt lat="42.8296900" lon="-8.5230410">
        <ele>123.6</ele>
        <time>2022-04-14T11:02:11Z</time>
      </trkpt>
      <trkpt lat="42.8296520" lon="-8.5230360">
        <ele>123.6</ele>
        <time>2022-04-14T11:02:12Z</time>
      </trkpt>
      <trkpt lat="42.8295350" lon="-8.5230170">
        <ele>123.6</ele>
        <time>2022-04-14T11:02:13Z</time>
      </trkpt>
      <trkpt lat="42.8294960" lon="-8.5230110">
        <ele>123.6</ele>
        <time>2022-04-14T11:02:14Z</time>
      </trkpt>
      <trkpt lat="42.8293760" lon="-8.5229910">
        <ele>123.6</ele>
        <time>2022-04-14T11:02:15Z</time>
      </trkpt>
      <trkpt lat="42.8293370" lon="-8.5229850">
        <ele>123.6</ele>
        <time>2022-04-14T11:02:16Z</time>
      </trkpt>
      <trkpt lat="42.8292170" lon="-8.5229660">
        <ele>123.5</ele>
        <time>2022-04-14T11:02:17Z</time>
      </trkpt>
      <trkpt lat="42.8291770" lon="-8.5229610">
        <ele>123.5</ele>
        <time>2022-04-14T11:02:18Z</time>
      </trkpt>
      <trkpt lat="42.8290230" lon="-8.5229410">
        <ele>123.6</ele>
        <time>2022-04-14T11:02:19Z</time>
      </trkpt>
      <trkpt lat="42.8289480" lon="-8.5229330">
        <ele>123.7</ele>
        <time>2022-04-14T11:02:20Z</time>
      </trkpt>
      <trkpt lat="42.8287990" lon="-8.5229160">
        <ele>123.9</ele>
        <time>2022-04-14T11:02:21Z</time>
      </trkpt>
      <trkpt lat="42.8287990" lon="-8.5229160">
        <ele>123.9</ele>
        <time>2022-04-14T11:02:22Z</time>
      </trkpt>
      <trkpt lat="42.8287670" lon="-8.5229130">
        <ele>123.9</ele>
        <time>2022-04-14T11:02:23Z</time>
      </trkpt>
      <trkpt lat="42.8287340" lon="-8.5229090">
        <ele>124.0</ele>
        <time>2022-04-14T11:02:24Z</time>
      </trkpt>
      <trkpt lat="42.8286370" lon="-8.5228960">
        <ele>124.1</ele>
        <time>2022-04-14T11:02:25Z</time>
      </trkpt>
      <trkpt lat="42.8286060" lon="-8.5228910">
        <ele>124.2</ele>
        <time>2022-04-14T11:02:26Z</time>
      </trkpt>
      <trkpt lat="42.8285090" lon="-8.5228770">
        <ele>124.3</ele>
        <time>2022-04-14T11:02:27Z</time>
      </trkpt>
      <trkpt lat="42.8284760" lon="-8.5228740">
        <ele>124.3</ele>
        <time>2022-04-14T11:02:28Z</time>
      </trkpt>
      <trkpt lat="42.8283750" lon="-8.5228660">
        <ele>124.4</ele>
        <time>2022-04-14T11:02:29Z</time>
      </trkpt>
      <trkpt lat="42.8283410" lon="-8.5228630">
        <ele>124.5</ele>
        <time>2022-04-14T11:02:30Z</time>
      </trkpt>
      <trkpt lat="42.8282370" lon="-8.5228530">
        <ele>124.6</ele>
        <time>2022-04-14T11:02:31Z</time>
      </trkpt>
      <trkpt lat="42.8282040" lon="-8.5228490">
        <ele>124.6</ele>
        <time>2022-04-14T11:02:32Z</time>
      </trkpt>
      <trkpt lat="42.8281000" lon="-8.5228400">
        <ele>124.6</ele>
        <time>2022-04-14T11:02:33Z</time>
      </trkpt>
      <trkpt lat="42.8280640" lon="-8.5228370">
        <ele>124.7</ele>
        <time>2022-04-14T11:02:34Z</time>
      </trkpt>
      <trkpt lat="42.8279550" lon="-8.5228300">
        <ele>124.6</ele>
        <time>2022-04-14T11:02:35Z</time>
      </trkpt>
      <trkpt lat="42.8279180" lon="-8.5228280">
        <ele>124.6</ele>
        <time>2022-04-14T11:02:36Z</time>
      </trkpt>
      <trkpt lat="42.8278060" lon="-8.5228200">
        <ele>124.5</ele>
        <time>2022-04-14T11:02:37Z</time>
      </trkpt>
      <trkpt lat="42.8277690" lon="-8.5228180">
        <ele>124.5</ele>
        <time>2022-04-14T11:02:38Z</time>
      </trkpt>
      <trkpt lat="42.8276590" lon="-8.5228060">
        <ele>124.4</ele>
        <time>2022-04-14T11:02:39Z</time>
      </trkpt>
      <trkpt lat="42.8276230" lon="-8.5228000">
        <ele>124.4</ele>
        <time>2022-04-14T11:02:40Z</time>
      </trkpt>
      <trkpt lat="42.8275170" lon="-8.5227820">
        <ele>124.2</ele>
        <time>2022-04-14T11:02:41Z</time>
      </trkpt>
      <trkpt lat="42.8274830" lon="-8.5227770">
        <ele>124.2</ele>
        <time>2022-04-14T11:02:42Z</time>
      </trkpt>
      <trkpt lat="42.8274100" lon="-8.5228010">
        <ele>123.8</ele>
        <time>2022-04-14T11:02:43Z</time>
      </trkpt>
      <trkpt lat="42.8274050" lon="-8.5228350">
        <ele>123.8</ele>
        <time>2022-04-14T11:02:44Z</time>
      </trkpt>
      <trkpt lat="42.8273990" lon="-8.5228690">
        <ele>122.1</ele>
        <time>2022-04-14T11:02:45Z</time>
      </trkpt>
      <trkpt lat="42.8273930" lon="-8.5229030">
        <ele>121.8</ele>
        <time>2022-04-14T11:02:46Z</time>
      </trkpt>
      <trkpt lat="42.8274140" lon="-8.5229360">
        <ele>121.5</ele>
        <time>2022-04-14T11:02:47Z</time>
      </trkpt>
      <trkpt lat="42.8274350" lon="-8.5229690">
        <ele>121.1</ele>
        <time>2022-04-14T11:02:48Z</time>
      </trkpt>
      <trkpt lat="42.8275170" lon="-8.5231110">
        <ele>119.7</ele>
        <time>2022-04-14T11:02:49Z</time>
      </trkpt>
      <trkpt lat="42.8275580" lon="-8.5231870">
        <ele>119.0</ele>
        <time>2022-04-14T11:02:50Z</time>
      </trkpt>
      <trkpt lat="42.8276400" lon="-8.5233380">
        <ele>117.7</ele>
        <time>2022-04-14T11:02:51Z</time>
      </trkpt>
      <trkpt lat="42.8276990" lon="-8.5234510">
        <ele>116.8</ele>
        <time>2022-04-14T11:02:52Z</time>
      </trkpt>
      <trkpt lat="42.8277540" lon="-8.5235750">
        <ele>115.7</ele>
        <time>2022-04-14T11:02:53Z</time>
      </trkpt>
      <trkpt lat="42.8277990" lon="-8.5237040">
        <ele>114.7</ele>
        <time>2022-04-14T11:02:54Z</time>
      </trkpt>
      <trkpt lat="42.8278310" lon="-8.5238240">
        <ele>113.8</ele>
        <time>2022-04-14T11:02:55Z</time>
      </trkpt>
      <trkpt lat="42.8278340" lon="-8.5238740">
        <ele>113.4</ele>
        <time>2022-04-14T11:02:56Z</time>
      </trkpt>
      <trkpt lat="42.8278380" lon="-8.5239250">
        <ele>113.0</ele>
        <time>2022-04-14T11:02:57Z</time>
      </trkpt>
      <trkpt lat="42.8278220" lon="-8.5240690">
        <ele>111.9</ele>
        <time>2022-04-14T11:02:58Z</time>
      </trkpt>
      <trkpt lat="42.8277990" lon="-8.5241140">
        <ele>111.5</ele>
        <time>2022-04-14T11:02:59Z</time>
      </trkpt>
      <trkpt lat="42.8277200" lon="-8.5242370">
        <ele>110.4</ele>
        <time>2022-04-14T11:03:00Z</time>
      </trkpt>
      <trkpt lat="42.8276860" lon="-8.5242710">
        <ele>110.0</ele>
        <time>2022-04-14T11:03:01Z</time>
      </trkpt>
      <trkpt lat="42.8275780" lon="-8.5243540">
        <ele>109.1</ele>
        <time>2022-04-14T11:03:02Z</time>
      </trkpt>
      <trkpt lat="42.8275370" lon="-8.5243680">
        <ele>108.8</ele>
        <time>2022-04-14T11:03:03Z</time>
      </trkpt>
      <trkpt lat="42.8273700" lon="-8.5243670">
        <ele>108.1</ele>
        <time>2022-04-14T11:03:04Z</time>
      </trkpt>
      <trkpt lat="42.8272850" lon="-8.5243390">
        <ele>107.9</ele>
        <time>2022-04-14T11:03:05Z</time>
      </trkpt>
      <trkpt lat="42.8272000" lon="-8.5243110">
        <ele>107.7</ele>
        <time>2022-04-14T11:03:06Z</time>
      </trkpt>
      <trkpt lat="42.8271150" lon="-8.5242830">
        <ele>107.6</ele>
        <time>2022-04-14T11:03:07Z</time>
      </trkpt>
      <trkpt lat="42.8270250" lon="-8.5242250">
        <ele>107.5</ele>
        <time>2022-04-14T11:03:08Z</time>
      </trkpt>
      <trkpt lat="42.8269400" lon="-8.5241710">
        <ele>107.4</ele>
        <time>2022-04-14T11:03:09Z</time>
      </trkpt>
      <trkpt lat="42.8269400" lon="-8.5241710">
        <ele>107.4</ele>
        <time>2022-04-14T11:03:10Z</time>
      </trkpt>
      <trkpt lat="42.8268340" lon="-8.5240800">
        <ele>107.5</ele>
        <time>2022-04-14T11:03:11Z</time>
      </trkpt>
      <trkpt lat="42.8267280" lon="-8.5239900">
        <ele>107.6</ele>
        <time>2022-04-14T11:03:12Z</time>
      </trkpt>
      <trkpt lat="42.8266220" lon="-8.5238990">
        <ele>107.2</ele>
        <time>2022-04-14T11:03:13Z</time>
      </trkpt>
      <trkpt lat="42.8265160" lon="-8.5238080">
        <ele>107.8</ele>
        <time>2022-04-14T11:03:14Z</time>
      </trkpt>
      <trkpt lat="42.8264220" lon="-8.5237430">
        <ele>108.5</ele>
        <time>2022-04-14T11:03:15Z</time>
      </trkpt>
      <trkpt lat="42.8263380" lon="-8.5236930">
        <ele>109.2</ele>
        <time>2022-04-14T11:03:16Z</time>
      </trkpt>
      <trkpt lat="42.8262680" lon="-8.5236620">
        <ele>109.9</ele>
        <time>2022-04-14T11:03:17Z</time>
      </trkpt>
      <trkpt lat="42.8261990" lon="-8.5236320">
        <ele>110.7</ele>
        <time>2022-04-14T11:03:18Z</time>
      </trkpt>
      <trkpt lat="42.8261300" lon="-8.5236010">
        <ele>111.5</ele>
        <time>2022-04-14T11:03:19Z</time>
      </trkpt>
      <trkpt lat="42.8260760" lon="-8.5235950">
        <ele>112.1</ele>
        <time>2022-04-14T11:03:20Z</time>
      </trkpt>
      <trkpt lat="42.8260450" lon="-8.5236010">
        <ele>112.4</ele>
        <time>2022-04-14T11:03:21Z</time>
      </trkpt>
      <trkpt lat="42.8260140" lon="-8.5236080">
        <ele>112.7</ele>
        <time>2022-04-14T11:03:22Z</time>
      </trkpt>
      <trkpt lat="42.8259830" lon="-8.5236140">
        <ele>113.1</ele>
        <time>2022-04-14T11:03:23Z</time>
      </trkpt>
      <trkpt lat="42.8258650" lon="-8.5236710">
        <ele>114.2</ele>
        <time>2022-04-14T11:03:24Z</time>
      </trkpt>
      <trkpt lat="42.8258650" lon="-8.5236710">
        <ele>114.2</ele>
        <time>2022-04-14T11:03:25Z</time>
      </trkpt>
      <trkpt lat="42.8258230" lon="-8.5236830">
        <ele>114.6</ele>
        <time>2022-04-14T11:03:26Z</time>
      </trkpt>
      <trkpt lat="42.8257820" lon="-8.5236940">
        <ele>114.9</ele>
        <time>2022-04-14T11:03:27Z</time>
      </trkpt>
      <trkpt lat="42.8257400" lon="-8.5237060">
        <ele>115.2</ele>
        <time>2022-04-14T11:03:28Z</time>
      </trkpt>
      <trkpt lat="42.8256990" lon="-8.5237180">
        <ele>115.5</ele>
        <time>2022-04-14T11:03:29Z</time>
      </trkpt>
      <trkpt lat="42.8256520" lon="-8.5237370">
        <ele>115.8</ele>
        <time>2022-04-14T11:03:30Z</time>
      </trkpt>
      <trkpt lat="42.8256520" lon="-8.5237370">
        <ele>115.8</ele>
        <time>2022-04-14T11:03:31Z</time>
      </trkpt>
      <trkpt lat="42.8255550" lon="-8.5237910">
        <ele>116.3</ele>
        <time>2022-04-14T11:03:32Z</time>
      </trkpt>
      <trkpt lat="42.8255360" lon="-8.5237960">
        <ele>116.4</ele>
        <time>2022-04-14T11:03:33Z</time>
      </trkpt>
      <trkpt lat="42.8255180" lon="-8.5238000">
        <ele>116.5</ele>
        <time>2022-04-14T11:03:34Z</time>
      </trkpt>
      <trkpt lat="42.8254990" lon="-8.5238050">
        <ele>116.5</ele>
        <time>2022-04-14T11:03:35Z</time>
      </trkpt>
      <trkpt lat="42.8254080" lon="-8.5238160">
        <ele>116.8</ele>
        <time>2022-04-14T11:03:36Z</time>
      </trkpt>
      <trkpt lat="42.8253720" lon="-8.5238130">
        <ele>116.8</ele>
        <time>2022-04-14T11:03:37Z</time>
      </trkpt>
      <trkpt lat="42.8252730" lon="-8.5237890">
        <ele>116.9</ele>
        <time>2022-04-14T11:03:38Z</time>
      </trkpt>
      <trkpt lat="42.8252450" lon="-8.5237710">
        <ele>117.0</ele>
        <time>2022-04-14T11:03:39Z</time>
      </trkpt>
      <trkpt lat="42.8251610" lon="-8.5237190">
        <ele>117.1</ele>
        <time>2022-04-14T11:03:40Z</time>
      </trkpt>
      <trkpt lat="42.8251300" lon="-8.5237030">
        <ele>117.2</ele>
        <time>2022-04-14T11:03:41Z</time>
      </trkpt>
      <trkpt lat="42.8250130" lon="-8.5236390">
        <ele>117.6</ele>
        <time>2022-04-14T11:03:42Z</time>
      </trkpt>
      <trkpt lat="42.8249550" lon="-8.5236100">
        <ele>117.9</ele>
        <time>2022-04-14T11:03:43Z</time>
      </trkpt>
      <trkpt lat="42.8248980" lon="-8.5235800">
        <ele>118.2</ele>
        <time>2022-04-14T11:03:44Z</time>
      </trkpt>
      <trkpt lat="42.8248410" lon="-8.5235510">
        <ele>118.6</ele>
        <time>2022-04-14T11:03:45Z</time>
      </trkpt>
      <trkpt lat="42.8247570" lon="-8.5235170">
        <ele>119.4</ele>
        <time>2022-04-14T11:03:46Z</time>
      </trkpt>
      <trkpt lat="42.8247290" lon="-8.5235100">
        <ele>119.6</ele>
        <time>2022-04-14T11:03:47Z</time>
      </trkpt>
      <trkpt lat="42.8246740" lon="-8.5234950">
        <ele>120.2</ele>
        <time>2022-04-14T11:03:48Z</time>
      </trkpt>
      <trkpt lat="42.8246740" lon="-8.5234950">
        <ele>120.2</ele>
        <time>2022-04-14T11:03:49Z</time>
      </trkpt>
      <trkpt lat="42.8246420" lon="-8.5234850">
        <ele>120.5</ele>
        <time>2022-04-14T11:03:50Z</time>
      </trkpt>
      <trkpt lat="42.8246110" lon="-8.5234750">
        <ele>120.8</ele>
        <time>2022-04-14T11:03:51Z</time>
      </trkpt>
      <trkpt lat="42.8245160" lon="-8.5234460">
        <ele>121.9</ele>
        <time>2022-04-14T11:03:52Z</time>
      </trkpt>
      <trkpt lat="42.8244850" lon="-8.5234360">
        <ele>122.2</ele>
        <time>2022-04-14T11:03:53Z</time>
      </trkpt>
      <trkpt lat="42.8244540" lon="-8.5234270">
        <ele>122.5</ele>
        <time>2022-04-14T11:03:54Z</time>
      </trkpt>
      <trkpt lat="42.8244270" lon="-8.5234250">
        <ele>122.8</ele>
        <time>2022-04-14T11:03:55Z</time>
      </trkpt>
      <trkpt lat="42.8243990" lon="-8.5234240">
        <ele>123.1</ele>
        <time>2022-04-14T11:03:56Z</time>
      </trkpt>
      <trkpt lat="42.8243720" lon="-8.5234220">
        <ele>123.4</ele>
        <time>2022-04-14T11:03:57Z</time>
      </trkpt>
      <trkpt lat="42.8243450" lon="-8.5234210">
        <ele>123.6</ele>
        <time>2022-04-14T11:03:58Z</time>
      </trkpt>
      <trkpt lat="42.8243120" lon="-8.5234250">
        <ele>124.0</ele>
        <time>2022-04-14T11:03:59Z</time>
      </trkpt>
      <trkpt lat="42.8242790" lon="-8.5234290">
        <ele>124.3</ele>
        <time>2022-04-14T11:04:00Z</time>
      </trkpt>
      <trkpt lat="42.8242460" lon="-8.5234330">
        <ele>124.6</ele>
        <time>2022-04-14T11:04:01Z</time>
      </trkpt>
      <trkpt lat="42.8241880" lon="-8.5234330">
        <ele>125.1</ele>
        <time>2022-04-14T11:04:02Z</time>
      </trkpt>
      <trkpt lat="42.8241290" lon="-8.5234340">
        <ele>125.6</ele>
        <time>2022-04-14T11:04:03Z</time>
      </trkpt>
      <trkpt lat="42.8240710" lon="-8.5234340">
        <ele>126.1</ele>
        <time>2022-04-14T11:04:04Z</time>
      </trkpt>
      <trkpt lat="42.8240200" lon="-8.5234420">
        <ele>126.5</ele>
        <time>2022-04-14T11:04:05Z</time>
      </trkpt>
      <trkpt lat="42.8240020" lon="-8.5234450">
        <ele>126.7</ele>
        <time>2022-04-14T11:04:06Z</time>
      </trkpt>
      <trkpt lat="42.8239840" lon="-8.5234470">
        <ele>126.8</ele>
        <time>2022-04-14T11:04:07Z</time>
      </trkpt>
      <trkpt lat="42.8239650" lon="-8.5234500">
        <ele>127.0</ele>
        <time>2022-04-14T11:04:08Z</time>
      </trkpt>
      <trkpt lat="42.8238970" lon="-8.5234570">
        <ele>127.6</ele>
        <time>2022-04-14T11:04:09Z</time>
      </trkpt>
      <trkpt lat="42.8238820" lon="-8.5234580">
        <ele>127.7</ele>
        <time>2022-04-14T11:04:10Z</time>
      </trkpt>
      <trkpt lat="42.8238680" lon="-8.5234580">
        <ele>127.8</ele>
        <time>2022-04-14T11:04:11Z</time>
      </trkpt>
      <trkpt lat="42.8238540" lon="-8.5234590">
        <ele>127.9</ele>
        <time>2022-04-14T11:04:12Z</time>
      </trkpt>
      <trkpt lat="42.8237670" lon="-8.5234560">
        <ele>128.8</ele>
        <time>2022-04-14T11:04:13Z</time>
      </trkpt>
      <trkpt lat="42.8237370" lon="-8.5234520">
        <ele>129.1</ele>
        <time>2022-04-14T11:04:14Z</time>
      </trkpt>
      <trkpt lat="42.8237070" lon="-8.5234480">
        <ele>129.3</ele>
        <time>2022-04-14T11:04:15Z</time>
      </trkpt>
      <trkpt lat="42.8236890" lon="-8.5234480">
        <ele>129.5</ele>
        <time>2022-04-14T11:04:16Z</time>
      </trkpt>
      <trkpt lat="42.8236710" lon="-8.5234480">
        <ele>129.7</ele>
        <time>2022-04-14T11:04:17Z</time>
      </trkpt>
      <trkpt lat="42.8236530" lon="-8.5234480">
        <ele>129.9</ele>
        <time>2022-04-14T11:04:18Z</time>
      </trkpt>
      <trkpt lat="42.8235770" lon="-8.5234500">
        <ele>130.7</ele>
        <time>2022-04-14T11:04:19Z</time>
      </trkpt>
      <trkpt lat="42.8235550" lon="-8.5234520">
        <ele>130.9</ele>
        <time>2022-04-14T11:04:20Z</time>
      </trkpt>
      <trkpt lat="42.8235320" lon="-8.5234550">
        <ele>131.1</ele>
        <time>2022-04-14T11:04:21Z</time>
      </trkpt>
      <trkpt lat="42.8234170" lon="-8.5234620">
        <ele>132.3</ele>
        <time>2022-04-14T11:04:22Z</time>
      </trkpt>
      <trkpt lat="42.8233690" lon="-8.5234620">
        <ele>132.9</ele>
        <time>2022-04-14T11:04:23Z</time>
      </trkpt>
      <trkpt lat="42.8233470" lon="-8.5234680">
        <ele>133.1</ele>
        <time>2022-04-14T11:04:24Z</time>
      </trkpt>
      <trkpt lat="42.8233250" lon="-8.5234730">
        <ele>133.4</ele>
        <time>2022-04-14T11:04:25Z</time>
      </trkpt>
      <trkpt lat="42.8233030" lon="-8.5234790">
        <ele>133.7</ele>
        <time>2022-04-14T11:04:26Z</time>
      </trkpt>
      <trkpt lat="42.8232220" lon="-8.5235070">
        <ele>134.7</ele>
        <time>2022-04-14T11:04:27Z</time>
      </trkpt>
      <trkpt lat="42.8232060" lon="-8.5235200">
        <ele>134.9</ele>
        <time>2022-04-14T11:04:28Z</time>
      </trkpt>
      <trkpt lat="42.8231910" lon="-8.5235320">
        <ele>135.2</ele>
        <time>2022-04-14T11:04:29Z</time>
      </trkpt>
      <trkpt lat="42.8231320" lon="-8.5236120">
        <ele>136.6</ele>
        <time>2022-04-14T11:04:30Z</time>
      </trkpt>
      <trkpt lat="42.8231200" lon="-8.5236550">
        <ele>136.9</ele>
        <time>2022-04-14T11:04:31Z</time>
      </trkpt>
      <trkpt lat="42.8231070" lon="-8.5236970">
        <ele>137.2</ele>
        <time>2022-04-14T11:04:32Z</time>
      </trkpt>
      <trkpt lat="42.8230990" lon="-8.5237430">
        <ele>137.5</ele>
        <time>2022-04-14T11:04:33Z</time>
      </trkpt>
      <trkpt lat="42.8230920" lon="-8.5237890">
        <ele>137.8</ele>
        <time>2022-04-14T11:04:34Z</time>
      </trkpt>
      <trkpt lat="42.8230840" lon="-8.5238350">
        <ele>138.0</ele>
        <time>2022-04-14T11:04:35Z</time>
      </trkpt>
      <trkpt lat="42.8230770" lon="-8.5238810">
        <ele>138.3</ele>
        <time>2022-04-14T11:04:36Z</time>
      </trkpt>
      <trkpt lat="42.8230700" lon="-8.5239260">
        <ele>138.5</ele>
        <time>2022-04-14T11:04:37Z</time>
      </trkpt>
      <trkpt lat="42.8230630" lon="-8.5239720">
        <ele>138.8</ele>
        <time>2022-04-14T11:04:38Z</time>
      </trkpt>
      <trkpt lat="42.8230580" lon="-8.5240160">
        <ele>139.0</ele>
        <time>2022-04-14T11:04:39Z</time>
      </trkpt>
      <trkpt lat="42.8230520" lon="-8.5240610">
        <ele>139.2</ele>
        <time>2022-04-14T11:04:40Z</time>
      </trkpt>
      <trkpt lat="42.8230470" lon="-8.5241050">
        <ele>139.5</ele>
        <time>2022-04-14T11:04:41Z</time>
      </trkpt>
      <trkpt lat="42.8230430" lon="-8.5241290">
        <ele>139.6</ele>
        <time>2022-04-14T11:04:42Z</time>
      </trkpt>
      <trkpt lat="42.8230390" lon="-8.5241520">
        <ele>139.7</ele>
        <time>2022-04-14T11:04:43Z</time>
      </trkpt>
      <trkpt lat="42.8230350" lon="-8.5241760">
        <ele>139.9</ele>
        <time>2022-04-14T11:04:44Z</time>
      </trkpt>
      <trkpt lat="42.8230190" lon="-8.5242700">
        <ele>140.5</ele>
        <time>2022-04-14T11:04:45Z</time>
      </trkpt>
      <trkpt lat="42.8230150" lon="-8.5242950">
        <ele>140.6</ele>
        <time>2022-04-14T11:04:46Z</time>
      </trkpt>
      <trkpt lat="42.8230100" lon="-8.5243200">
        <ele>140.8</ele>
        <time>2022-04-14T11:04:47Z</time>
      </trkpt>
      <trkpt lat="42.8229930" lon="-8.5244170">
        <ele>141.4</ele>
        <time>2022-04-14T11:04:48Z</time>
      </trkpt>
      <trkpt lat="42.8229890" lon="-8.5244400">
        <ele>141.6</ele>
        <time>2022-04-14T11:04:49Z</time>
      </trkpt>
      <trkpt lat="42.8229850" lon="-8.5244640">
        <ele>141.7</ele>
        <time>2022-04-14T11:04:50Z</time>
      </trkpt>
      <trkpt lat="42.8229720" lon="-8.5245580">
        <ele>142.4</ele>
        <time>2022-04-14T11:04:51Z</time>
      </trkpt>
      <trkpt lat="42.8229690" lon="-8.5245820">
        <ele>142.5</ele>
        <time>2022-04-14T11:04:52Z</time>
      </trkpt>
      <trkpt lat="42.8229670" lon="-8.5246050">
        <ele>142.7</ele>
        <time>2022-04-14T11:04:53Z</time>
      </trkpt>
      <trkpt lat="42.8229520" lon="-8.5247450">
        <ele>143.4</ele>
        <time>2022-04-14T11:04:54Z</time>
      </trkpt>
      <trkpt lat="42.8229440" lon="-8.5248140">
        <ele>143.7</ele>
        <time>2022-04-14T11:04:55Z</time>
      </trkpt>
      <trkpt lat="42.8229360" lon="-8.5248810">
        <ele>143.8</ele>
        <time>2022-04-14T11:04:56Z</time>
      </trkpt>
      <trkpt lat="42.8229290" lon="-8.5249480">
        <ele>143.9</ele>
        <time>2022-04-14T11:04:57Z</time>
      </trkpt>
      <trkpt lat="42.8229160" lon="-8.5250100">
        <ele>143.9</ele>
        <time>2022-04-14T11:04:58Z</time>
      </trkpt>
      <trkpt lat="42.8229030" lon="-8.5250720">
        <ele>144.0</ele>
        <time>2022-04-14T11:04:59Z</time>
      </trkpt>
      <trkpt lat="42.8228870" lon="-8.5251330">
        <ele>144.0</ele>
        <time>2022-04-14T11:05:00Z</time>
      </trkpt>
      <trkpt lat="42.8228720" lon="-8.5251940">
        <ele>144.0</ele>
        <time>2022-04-14T11:05:01Z</time>
      </trkpt>
      <trkpt lat="42.8228490" lon="-8.5252530">
        <ele>144.0</ele>
        <time>2022-04-14T11:05:02Z</time>
      </trkpt>
      <trkpt lat="42.8228270" lon="-8.5253120">
        <ele>144.0</ele>
        <time>2022-04-14T11:05:03Z</time>
      </trkpt>
      <trkpt lat="42.8228130" lon="-8.5253430">
        <ele>144.0</ele>
        <time>2022-04-14T11:05:04Z</time>
      </trkpt>
      <trkpt lat="42.8227990" lon="-8.5253730">
        <ele>144.0</ele>
        <time>2022-04-14T11:05:05Z</time>
      </trkpt>
      <trkpt lat="42.8227590" lon="-8.5254650">
        <ele>144.1</ele>
        <time>2022-04-14T11:05:06Z</time>
      </trkpt>
      <trkpt lat="42.8227460" lon="-8.5254960">
        <ele>144.1</ele>
        <time>2022-04-14T11:05:07Z</time>
      </trkpt>
      <trkpt lat="42.8226990" lon="-8.5256210">
        <ele>144.2</ele>
        <time>2022-04-14T11:05:08Z</time>
      </trkpt>
      <trkpt lat="42.8226790" lon="-8.5256840">
        <ele>144.3</ele>
        <time>2022-04-14T11:05:09Z</time>
      </trkpt>
      <trkpt lat="42.8226880" lon="-8.5257550">
        <ele>144.4</ele>
        <time>2022-04-14T11:05:10Z</time>
      </trkpt>
      <trkpt lat="42.8226970" lon="-8.5258260">
        <ele>144.4</ele>
        <time>2022-04-14T11:05:11Z</time>
      </trkpt>
      <trkpt lat="42.8227160" lon="-8.5259670">
        <ele>144.6</ele>
        <time>2022-04-14T11:05:12Z</time>
      </trkpt>
      <trkpt lat="42.8227160" lon="-8.5259670">
        <ele>144.6</ele>
        <time>2022-04-14T11:05:13Z</time>
      </trkpt>
      <trkpt lat="42.8227340" lon="-8.5260330">
        <ele>144.5</ele>
        <time>2022-04-14T11:05:14Z</time>
      </trkpt>
      <trkpt lat="42.8227530" lon="-8.5260990">
        <ele>144.5</ele>
        <time>2022-04-14T11:05:15Z</time>
      </trkpt>
      <trkpt lat="42.8227610" lon="-8.5261340">
        <ele>144.5</ele>
        <time>2022-04-14T11:05:16Z</time>
      </trkpt>
      <trkpt lat="42.8227690" lon="-8.5261690">
        <ele>144.6</ele>
        <time>2022-04-14T11:05:17Z</time>
      </trkpt>
      <trkpt lat="42.8227940" lon="-8.5263190">
        <ele>144.6</ele>
        <time>2022-04-14T11:05:18Z</time>
      </trkpt>
      <trkpt lat="42.8228040" lon="-8.5264000">
        <ele>144.6</ele>
        <time>2022-04-14T11:05:19Z</time>
      </trkpt>
      <trkpt lat="42.8228130" lon="-8.5264800">
        <ele>144.6</ele>
        <time>2022-04-14T11:05:20Z</time>
      </trkpt>
      <trkpt lat="42.8228180" lon="-8.5265610">
        <ele>144.7</ele>
        <time>2022-04-14T11:05:21Z</time>
      </trkpt>
      <trkpt lat="42.8228200" lon="-8.5266020">
        <ele>144.7</ele>
        <time>2022-04-14T11:05:22Z</time>
      </trkpt>
      <trkpt lat="42.8228220" lon="-8.5266430">
        <ele>144.7</ele>
        <time>2022-04-14T11:05:23Z</time>
      </trkpt>
      <trkpt lat="42.8228220" lon="-8.5267660">
        <ele>144.7</ele>
        <time>2022-04-14T11:05:24Z</time>
      </trkpt>
      <trkpt lat="42.8228180" lon="-8.5268080">
        <ele>144.7</ele>
        <time>2022-04-14T11:05:25Z</time>
      </trkpt>
      <trkpt lat="42.8228020" lon="-8.5269340">
        <ele>144.7</ele>
        <time>2022-04-14T11:05:26Z</time>
      </trkpt>
      <trkpt lat="42.8227950" lon="-8.5269760">
        <ele>144.7</ele>
        <time>2022-04-14T11:05:27Z</time>
      </trkpt>
      <trkpt lat="42.8227760" lon="-8.5271020">
        <ele>144.8</ele>
        <time>2022-04-14T11:05:28Z</time>
      </trkpt>
      <trkpt lat="42.8227700" lon="-8.5271440">
        <ele>144.8</ele>
        <time>2022-04-14T11:05:29Z</time>
      </trkpt>
      <trkpt lat="42.8227530" lon="-8.5272680">
        <ele>144.9</ele>
        <time>2022-04-14T11:05:30Z</time>
      </trkpt>
      <trkpt lat="42.8227450" lon="-8.5273070">
        <ele>144.9</ele>
        <time>2022-04-14T11:05:31Z</time>
      </trkpt>
      <trkpt lat="42.8227250" lon="-8.5274250">
        <ele>145.1</ele>
        <time>2022-04-14T11:05:32Z</time>
      </trkpt>
      <trkpt lat="42.8227200" lon="-8.5274660">
        <ele>145.1</ele>
        <time>2022-04-14T11:05:33Z</time>
      </trkpt>
      <trkpt lat="42.8227080" lon="-8.5275910">
        <ele>145.3</ele>
        <time>2022-04-14T11:05:34Z</time>
      </trkpt>
      <trkpt lat="42.8227060" lon="-8.5276330">
        <ele>145.4</ele>
        <time>2022-04-14T11:05:35Z</time>
      </trkpt>
      <trkpt lat="42.8227020" lon="-8.5277570">
        <ele>145.5</ele>
        <time>2022-04-14T11:05:36Z</time>
      </trkpt>
      <trkpt lat="42.8227000" lon="-8.5277970">
        <ele>145.6</ele>
        <time>2022-04-14T11:05:37Z</time>
      </trkpt>
      <trkpt lat="42.8226950" lon="-8.5279160">
        <ele>145.9</ele>
        <time>2022-04-14T11:05:38Z</time>
      </trkpt>
      <trkpt lat="42.8226940" lon="-8.5279560">
        <ele>146.0</ele>
        <time>2022-04-14T11:05:39Z</time>
      </trkpt>
      <trkpt lat="42.8226920" lon="-8.5280770">
        <ele>146.3</ele>
        <time>2022-04-14T11:05:40Z</time>
      </trkpt>
      <trkpt lat="42.8226930" lon="-8.5281180">
        <ele>146.4</ele>
        <time>2022-04-14T11:05:41Z</time>
      </trkpt>
      <trkpt lat="42.8226940" lon="-8.5282410">
        <ele>146.8</ele>
        <time>2022-04-14T11:05:42Z</time>
      </trkpt>
      <trkpt lat="42.8226940" lon="-8.5282810">
        <ele>146.9</ele>
        <time>2022-04-14T11:05:43Z</time>
      </trkpt>
      <trkpt lat="42.8226950" lon="-8.5284010">
        <ele>147.2</ele>
        <time>2022-04-14T11:05:44Z</time>
      </trkpt>
      <trkpt lat="42.8226960" lon="-8.5284410">
        <ele>147.4</ele>
        <time>2022-04-14T11:05:45Z</time>
      </trkpt>
      <trkpt lat="42.8227000" lon="-8.5285600">
        <ele>147.7</ele>
        <time>2022-04-14T11:05:46Z</time>
      </trkpt>
      <trkpt lat="42.8227010" lon="-8.5286000">
        <ele>147.9</ele>
        <time>2022-04-14T11:05:47Z</time>
      </trkpt>
      <trkpt lat="42.8227050" lon="-8.5287550">
        <ele>148.5</ele>
        <time>2022-04-14T11:05:48Z</time>
      </trkpt>
      <trkpt lat="42.8227070" lon="-8.5288300">
        <ele>148.8</ele>
        <time>2022-04-14T11:05:49Z</time>
      </trkpt>
      <trkpt lat="42.8227110" lon="-8.5289790">
        <ele>149.5</ele>
        <time>2022-04-14T11:05:50Z</time>
      </trkpt>
      <trkpt lat="42.8227110" lon="-8.5289790">
        <ele>149.5</ele>
        <time>2022-04-14T11:05:51Z</time>
      </trkpt>
      <trkpt lat="42.8227100" lon="-8.5290160">
        <ele>149.7</ele>
        <time>2022-04-14T11:05:52Z</time>
      </trkpt>
      <trkpt lat="42.8227100" lon="-8.5290520">
        <ele>149.9</ele>
        <time>2022-04-14T11:05:53Z</time>
      </trkpt>
      <trkpt lat="42.8227090" lon="-8.5291630">
        <ele>150.5</ele>
        <time>2022-04-14T11:05:54Z</time>
      </trkpt>
      <trkpt lat="42.8227090" lon="-8.5292010">
        <ele>150.7</ele>
        <time>2022-04-14T11:05:55Z</time>
      </trkpt>
      <trkpt lat="42.8227100" lon="-8.5293140">
        <ele>151.3</ele>
        <time>2022-04-14T11:05:56Z</time>
      </trkpt>
      <trkpt lat="42.8227100" lon="-8.5293510">
        <ele>151.5</ele>
        <time>2022-04-14T11:05:57Z</time>
      </trkpt>
      <trkpt lat="42.8227110" lon="-8.5294610">
        <ele>152.1</ele>
        <time>2022-04-14T11:05:58Z</time>
      </trkpt>
      <trkpt lat="42.8227120" lon="-8.5294970">
        <ele>152.3</ele>
        <time>2022-04-14T11:05:59Z</time>
      </trkpt>
      <trkpt lat="42.8227140" lon="-8.5296060">
        <ele>153.0</ele>
        <time>2022-04-14T11:06:00Z</time>
      </trkpt>
      <trkpt lat="42.8227150" lon="-8.5296430">
        <ele>153.2</ele>
        <time>2022-04-14T11:06:01Z</time>
      </trkpt>
      <trkpt lat="42.8227190" lon="-8.5297820">
        <ele>154.1</ele>
        <time>2022-04-14T11:06:02Z</time>
      </trkpt>
      <trkpt lat="42.8227200" lon="-8.5298470">
        <ele>154.6</ele>
        <time>2022-04-14T11:06:03Z</time>
      </trkpt>
      <trkpt lat="42.8227220" lon="-8.5299110">
        <ele>155.0</ele>
        <time>2022-04-14T11:06:04Z</time>
      </trkpt>
      <trkpt lat="42.8227240" lon="-8.5299750">
        <ele>155.5</ele>
        <time>2022-04-14T11:06:05Z</time>
      </trkpt>
      <trkpt lat="42.8227240" lon="-8.5300430">
        <ele>156.0</ele>
        <time>2022-04-14T11:06:06Z</time>
      </trkpt>
      <trkpt lat="42.8227230" lon="-8.5301100">
        <ele>156.5</ele>
        <time>2022-04-14T11:06:07Z</time>
      </trkpt>
      <trkpt lat="42.8227220" lon="-8.5301710">
        <ele>156.9</ele>
        <time>2022-04-14T11:06:08Z</time>
      </trkpt>
      <trkpt lat="42.8227220" lon="-8.5302310">
        <ele>157.4</ele>
        <time>2022-04-14T11:06:09Z</time>
      </trkpt>
      <trkpt lat="42.8227210" lon="-8.5302910">
        <ele>157.8</ele>
        <time>2022-04-14T11:06:10Z</time>
      </trkpt>
      <trkpt lat="42.8227240" lon="-8.5303200">
        <ele>158.0</ele>
        <time>2022-04-14T11:06:11Z</time>
      </trkpt>
      <trkpt lat="42.8227270" lon="-8.5303490">
        <ele>158.3</ele>
        <time>2022-04-14T11:06:12Z</time>
      </trkpt>
      <trkpt lat="42.8227300" lon="-8.5303780">
        <ele>158.5</ele>
        <time>2022-04-14T11:06:13Z</time>
      </trkpt>
      <trkpt lat="42.8227430" lon="-8.5304940">
        <ele>159.4</ele>
        <time>2022-04-14T11:06:14Z</time>
      </trkpt>
      <trkpt lat="42.8227460" lon="-8.5305220">
        <ele>159.6</ele>
        <time>2022-04-14T11:06:15Z</time>
      </trkpt>
      <trkpt lat="42.8227490" lon="-8.5305500">
        <ele>159.8</ele>
        <time>2022-04-14T11:06:16Z</time>
      </trkpt>
      <trkpt lat="42.8227600" lon="-8.5306590">
        <ele>160.6</ele>
        <time>2022-04-14T11:06:17Z</time>
      </trkpt>
      <trkpt lat="42.8227610" lon="-8.5306830">
        <ele>160.8</ele>
        <time>2022-04-14T11:06:18Z</time>
      </trkpt>
      <trkpt lat="42.8227620" lon="-8.5307080">
        <ele>161.0</ele>
        <time>2022-04-14T11:06:19Z</time>
      </trkpt>
      <trkpt lat="42.8227540" lon="-8.5308000">
        <ele>161.4</ele>
        <time>2022-04-14T11:06:20Z</time>
      </trkpt>
      <trkpt lat="42.8227430" lon="-8.5308180">
        <ele>161.3</ele>
        <time>2022-04-14T11:06:21Z</time>
      </trkpt>
      <trkpt lat="42.8227330" lon="-8.5308360">
        <ele>161.2</ele>
        <time>2022-04-14T11:06:22Z</time>
      </trkpt>
      <trkpt lat="42.8226870" lon="-8.5309070">
        <ele>161.0</ele>
        <time>2022-04-14T11:06:23Z</time>
      </trkpt>
      <trkpt lat="42.8226730" lon="-8.5309240">
        <ele>160.9</ele>
        <time>2022-04-14T11:06:24Z</time>
      </trkpt>
      <trkpt lat="42.8226590" lon="-8.5309400">
        <ele>160.9</ele>
        <time>2022-04-14T11:06:25Z</time>
      </trkpt>
      <trkpt lat="42.8225990" lon="-8.5310100">
        <ele>160.5</ele>
        <time>2022-04-14T11:06:26Z</time>
      </trkpt>
      <trkpt lat="42.8225820" lon="-8.5310290">
        <ele>160.4</ele>
        <time>2022-04-14T11:06:27Z</time>
      </trkpt>
      <trkpt lat="42.8225640" lon="-8.5310480">
        <ele>160.4</ele>
        <time>2022-04-14T11:06:28Z</time>
      </trkpt>
      <trkpt lat="42.8224940" lon="-8.5311230">
        <ele>160.1</ele>
        <time>2022-04-14T11:06:29Z</time>
      </trkpt>
      <trkpt lat="42.8224760" lon="-8.5311400">
        <ele>160.0</ele>
        <time>2022-04-14T11:06:30Z</time>
      </trkpt>
      <trkpt lat="42.8224570" lon="-8.5311570">
        <ele>160.0</ele>
        <time>2022-04-14T11:06:31Z</time>
      </trkpt>
      <trkpt lat="42.8223630" lon="-8.5312430">
        <ele>159.9</ele>
        <time>2022-04-14T11:06:32Z</time>
      </trkpt>
      <trkpt lat="42.8223240" lon="-8.5312760">
        <ele>160.0</ele>
        <time>2022-04-14T11:06:33Z</time>
      </trkpt>
      <trkpt lat="42.8223060" lon="-8.5312920">
        <ele>160.0</ele>
        <time>2022-04-14T11:06:34Z</time>
      </trkpt>
      <trkpt lat="42.8222880" lon="-8.5313080">
        <ele>160.1</ele>
        <time>2022-04-14T11:06:35Z</time>
      </trkpt>
      <trkpt lat="42.8222700" lon="-8.5313240">
        <ele>160.1</ele>
        <time>2022-04-14T11:06:36Z</time>
      </trkpt>
      <trkpt lat="42.8222020" lon="-8.5313870">
        <ele>160.5</ele>
        <time>2022-04-14T11:06:37Z</time>
      </trkpt>
      <trkpt lat="42.8221860" lon="-8.5314030">
        <ele>160.6</ele>
        <time>2022-04-14T11:06:38Z</time>
      </trkpt>
      <trkpt lat="42.8221700" lon="-8.5314190">
        <ele>160.7</ele>
        <time>2022-04-14T11:06:39Z</time>
      </trkpt>
      <trkpt lat="42.8221080" lon="-8.5314800">
        <ele>161.1</ele>
        <time>2022-04-14T11:06:40Z</time>
      </trkpt>
      <trkpt lat="42.8220930" lon="-8.5314940">
        <ele>161.2</ele>
        <time>2022-04-14T11:06:41Z</time>
      </trkpt>
      <trkpt lat="42.8220780" lon="-8.5315070">
        <ele>161.3</ele>
        <time>2022-04-14T11:06:42Z</time>
      </trkpt>
      <trkpt lat="42.8220150" lon="-8.5315620">
        <ele>161.9</ele>
        <time>2022-04-14T11:06:43Z</time>
      </trkpt>
      <trkpt lat="42.8219990" lon="-8.5315750">
        <ele>162.1</ele>
        <time>2022-04-14T11:06:44Z</time>
      </trkpt>
      <trkpt lat="42.8219830" lon="-8.5315890">
        <ele>162.2</ele>
        <time>2022-04-14T11:06:45Z</time>
      </trkpt>
      <trkpt lat="42.8219080" lon="-8.5316630">
        <ele>163.2</ele>
        <time>2022-04-14T11:06:46Z</time>
      </trkpt>
      <trkpt lat="42.8218810" lon="-8.5316970">
        <ele>163.6</ele>
        <time>2022-04-14T11:06:47Z</time>
      </trkpt>
      <trkpt lat="42.8218540" lon="-8.5317300">
        <ele>164.0</ele>
        <time>2022-04-14T11:06:48Z</time>
      </trkpt>
      <trkpt lat="42.8218380" lon="-8.5317450">
        <ele>164.3</ele>
        <time>2022-04-14T11:06:49Z</time>
      </trkpt>
      <trkpt lat="42.8218230" lon="-8.5317600">
        <ele>164.5</ele>
        <time>2022-04-14T11:06:50Z</time>
      </trkpt>
      <trkpt lat="42.8218070" lon="-8.5317750">
        <ele>164.7</ele>
        <time>2022-04-14T11:06:51Z</time>
      </trkpt>
      <trkpt lat="42.8217440" lon="-8.5318330">
        <ele>165.7</ele>
        <time>2022-04-14T11:06:52Z</time>
      </trkpt>
      <trkpt lat="42.8217270" lon="-8.5318460">
        <ele>166.0</ele>
        <time>2022-04-14T11:06:53Z</time>
      </trkpt>
      <trkpt lat="42.8217110" lon="-8.5318580">
        <ele>166.3</ele>
        <time>2022-04-14T11:06:54Z</time>
      </trkpt>
      <trkpt lat="42.8216340" lon="-8.5319270">
        <ele>167.5</ele>
        <time>2022-04-14T11:06:55Z</time>
      </trkpt>
      <trkpt lat="42.8216070" lon="-8.5319570">
        <ele>168.0</ele>
        <time>2022-04-14T11:06:56Z</time>
      </trkpt>
      <trkpt lat="42.8215800" lon="-8.5319870">
        <ele>168.5</ele>
        <time>2022-04-14T11:06:57Z</time>
      </trkpt>
      <trkpt lat="42.8215550" lon="-8.5320220">
        <ele>169.0</ele>
        <time>2022-04-14T11:06:58Z</time>
      </trkpt>
      <trkpt lat="42.8215300" lon="-8.5320570">
        <ele>169.5</ele>
        <time>2022-04-14T11:06:59Z</time>
      </trkpt>
      <trkpt lat="42.8215040" lon="-8.5320920">
        <ele>170.0</ele>
        <time>2022-04-14T11:07:00Z</time>
      </trkpt>
      <trkpt lat="42.8214910" lon="-8.5321090">
        <ele>170.3</ele>
        <time>2022-04-14T11:07:01Z</time>
      </trkpt>
      <trkpt lat="42.8214780" lon="-8.5321270">
        <ele>170.5</ele>
        <time>2022-04-14T11:07:02Z</time>
      </trkpt>
      <trkpt lat="42.8214640" lon="-8.5321440">
        <ele>170.8</ele>
        <time>2022-04-14T11:07:03Z</time>
      </trkpt>
      <trkpt lat="42.8214100" lon="-8.5322100">
        <ele>171.8</ele>
        <time>2022-04-14T11:07:04Z</time>
      </trkpt>
      <trkpt lat="42.8213950" lon="-8.5322240">
        <ele>172.0</ele>
        <time>2022-04-14T11:07:05Z</time>
      </trkpt>
      <trkpt lat="42.8213800" lon="-8.5322380">
        <ele>172.3</ele>
        <time>2022-04-14T11:07:06Z</time>
      </trkpt>
      <trkpt lat="42.8213210" lon="-8.5322940">
        <ele>173.2</ele>
        <time>2022-04-14T11:07:07Z</time>
      </trkpt>
      <trkpt lat="42.8213050" lon="-8.5323080">
        <ele>173.6</ele>
        <time>2022-04-14T11:07:08Z</time>
      </trkpt>
      <trkpt lat="42.8212900" lon="-8.5323210">
        <ele>173.8</ele>
        <time>2022-04-14T11:07:09Z</time>
      </trkpt>
      <trkpt lat="42.8212290" lon="-8.5323740">
        <ele>174.7</ele>
        <time>2022-04-14T11:07:10Z</time>
      </trkpt>
      <trkpt lat="42.8212140" lon="-8.5323870">
        <ele>174.9</ele>
        <time>2022-04-14T11:07:11Z</time>
      </trkpt>
      <trkpt lat="42.8212000" lon="-8.5324010">
        <ele>175.1</ele>
        <time>2022-04-14T11:07:12Z</time>
      </trkpt>
      <trkpt lat="42.8211400" lon="-8.5324540">
        <ele>175.8</ele>
        <time>2022-04-14T11:07:13Z</time>
      </trkpt>
      <trkpt lat="42.8211240" lon="-8.5324660">
        <ele>176.0</ele>
        <time>2022-04-14T11:07:14Z</time>
      </trkpt>
      <trkpt lat="42.8211070" lon="-8.5324790">
        <ele>176.1</ele>
        <time>2022-04-14T11:07:15Z</time>
      </trkpt>
      <trkpt lat="42.8210410" lon="-8.5325280">
        <ele>176.8</ele>
        <time>2022-04-14T11:07:16Z</time>
      </trkpt>
      <trkpt lat="42.8210230" lon="-8.5325400">
        <ele>176.9</ele>
        <time>2022-04-14T11:07:17Z</time>
      </trkpt>
      <trkpt lat="42.8210060" lon="-8.5325510">
        <ele>177.0</ele>
        <time>2022-04-14T11:07:18Z</time>
      </trkpt>
      <trkpt lat="42.8209350" lon="-8.5325990">
        <ele>177.5</ele>
        <time>2022-04-14T11:07:19Z</time>
      </trkpt>
      <trkpt lat="42.8209180" lon="-8.5326110">
        <ele>177.6</ele>
        <time>2022-04-14T11:07:20Z</time>
      </trkpt>
      <trkpt lat="42.8209000" lon="-8.5326230">
        <ele>177.8</ele>
        <time>2022-04-14T11:07:21Z</time>
      </trkpt>
      <trkpt lat="42.8208290" lon="-8.5326710">
        <ele>178.2</ele>
        <time>2022-04-14T11:07:22Z</time>
      </trkpt>
      <trkpt lat="42.8208120" lon="-8.5326810">
        <ele>178.3</ele>
        <time>2022-04-14T11:07:23Z</time>
      </trkpt>
      <trkpt lat="42.8207950" lon="-8.5326920">
        <ele>178.4</ele>
        <time>2022-04-14T11:07:24Z</time>
      </trkpt>
      <trkpt lat="42.8207240" lon="-8.5327340">
        <ele>178.8</ele>
        <time>2022-04-14T11:07:25Z</time>
      </trkpt>
      <trkpt lat="42.8207050" lon="-8.5327450">
        <ele>178.9</ele>
        <time>2022-04-14T11:07:26Z</time>
      </trkpt>
      <trkpt lat="42.8206860" lon="-8.5327550">
        <ele>179.0</ele>
        <time>2022-04-14T11:07:27Z</time>
      </trkpt>
      <trkpt lat="42.8206100" lon="-8.5327970">
        <ele>179.4</ele>
        <time>2022-04-14T11:07:28Z</time>
      </trkpt>
      <trkpt lat="42.8205920" lon="-8.5328060">
        <ele>179.5</ele>
        <time>2022-04-14T11:07:29Z</time>
      </trkpt>
      <trkpt lat="42.8205740" lon="-8.5328150">
        <ele>179.6</ele>
        <time>2022-04-14T11:07:30Z</time>
      </trkpt>
      <trkpt lat="42.8205020" lon="-8.5328520">
        <ele>180.1</ele>
        <time>2022-04-14T11:07:31Z</time>
      </trkpt>
      <trkpt lat="42.8204840" lon="-8.5328600">
        <ele>180.2</ele>
        <time>2022-04-14T11:07:32Z</time>
      </trkpt>
      <trkpt lat="42.8204650" lon="-8.5328680">
        <ele>180.3</ele>
        <time>2022-04-14T11:07:33Z</time>
      </trkpt>
      <trkpt lat="42.8203920" lon="-8.5329010">
        <ele>180.9</ele>
        <time>2022-04-14T11:07:34Z</time>
      </trkpt>
      <trkpt lat="42.8203750" lon="-8.5329090">
        <ele>181.0</ele>
        <time>2022-04-14T11:07:35Z</time>
      </trkpt>
      <trkpt lat="42.8203570" lon="-8.5329170">
        <ele>181.2</ele>
        <time>2022-04-14T11:07:36Z</time>
      </trkpt>
      <trkpt lat="42.8202860" lon="-8.5329500">
        <ele>181.7</ele>
        <time>2022-04-14T11:07:37Z</time>
      </trkpt>
      <trkpt lat="42.8202680" lon="-8.5329590">
        <ele>181.9</ele>
        <time>2022-04-14T11:07:38Z</time>
      </trkpt>
      <trkpt lat="42.8202500" lon="-8.5329680">
        <ele>182.1</ele>
        <time>2022-04-14T11:07:39Z</time>
      </trkpt>
      <trkpt lat="42.8201770" lon="-8.5330040">
        <ele>182.8</ele>
        <time>2022-04-14T11:07:40Z</time>
      </trkpt>
      <trkpt lat="42.8201580" lon="-8.5330120">
        <ele>182.9</ele>
        <time>2022-04-14T11:07:41Z</time>
      </trkpt>
      <trkpt lat="42.8201380" lon="-8.5330200">
        <ele>183.1</ele>
        <time>2022-04-14T11:07:42Z</time>
      </trkpt>
      <trkpt lat="42.8200390" lon="-8.5330550">
        <ele>184.1</ele>
        <time>2022-04-14T11:07:43Z</time>
      </trkpt>
      <trkpt lat="42.8199990" lon="-8.5330650">
        <ele>184.5</ele>
        <time>2022-04-14T11:07:44Z</time>
      </trkpt>
      <trkpt lat="42.8199590" lon="-8.5330750">
        <ele>184.8</ele>
        <time>2022-04-14T11:07:45Z</time>
      </trkpt>
      <trkpt lat="42.8199400" lon="-8.5330780">
        <ele>185.0</ele>
        <time>2022-04-14T11:07:46Z</time>
      </trkpt>
      <trkpt lat="42.8199220" lon="-8.5330810">
        <ele>185.2</ele>
        <time>2022-04-14T11:07:47Z</time>
      </trkpt>
      <trkpt lat="42.8199030" lon="-8.5330840">
        <ele>185.3</ele>
        <time>2022-04-14T11:07:48Z</time>
      </trkpt>
      <trkpt lat="42.8198270" lon="-8.5330950">
        <ele>186.0</ele>
        <time>2022-04-14T11:07:49Z</time>
      </trkpt>
      <trkpt lat="42.8198070" lon="-8.5330980">
        <ele>186.2</ele>
        <time>2022-04-14T11:07:50Z</time>
      </trkpt>
      <trkpt lat="42.8197880" lon="-8.5331010">
        <ele>186.4</ele>
        <time>2022-04-14T11:07:51Z</time>
      </trkpt>
      <trkpt lat="42.8197110" lon="-8.5331120">
        <ele>187.1</ele>
        <time>2022-04-14T11:07:52Z</time>
      </trkpt>
      <trkpt lat="42.8196930" lon="-8.5331140">
        <ele>187.2</ele>
        <time>2022-04-14T11:07:53Z</time>
      </trkpt>
      <trkpt lat="42.8196750" lon="-8.5331160">
        <ele>187.4</ele>
        <time>2022-04-14T11:07:54Z</time>
      </trkpt>
      <trkpt lat="42.8195820" lon="-8.5331340">
        <ele>188.3</ele>
        <time>2022-04-14T11:07:55Z</time>
      </trkpt>
      <trkpt lat="42.8195430" lon="-8.5331450">
        <ele>188.6</ele>
        <time>2022-04-14T11:07:56Z</time>
      </trkpt>
      <trkpt lat="42.8195040" lon="-8.5331550">
        <ele>189.0</ele>
        <time>2022-04-14T11:07:57Z</time>
      </trkpt>
      <trkpt lat="42.8194870" lon="-8.5331590">
        <ele>189.1</ele>
        <time>2022-04-14T11:07:58Z</time>
      </trkpt>
      <trkpt lat="42.8194690" lon="-8.5331620">
        <ele>189.3</ele>
        <time>2022-04-14T11:07:59Z</time>
      </trkpt>
      <trkpt lat="42.8194510" lon="-8.5331660">
        <ele>189.5</ele>
        <time>2022-04-14T11:08:00Z</time>
      </trkpt>
      <trkpt lat="42.8193770" lon="-8.5331820">
        <ele>190.0</ele>
        <time>2022-04-14T11:08:01Z</time>
      </trkpt>
      <trkpt lat="42.8193560" lon="-8.5331870">
        <ele>190.1</ele>
        <time>2022-04-14T11:08:02Z</time>
      </trkpt>
      <trkpt lat="42.8193340" lon="-8.5331920">
        <ele>190.3</ele>
        <time>2022-04-14T11:08:03Z</time>
      </trkpt>
      <trkpt lat="42.8192510" lon="-8.5332130">
        <ele>190.8</ele>
        <time>2022-04-14T11:08:04Z</time>
      </trkpt>
      <trkpt lat="42.8192310" lon="-8.5332190">
        <ele>190.9</ele>
        <time>2022-04-14T11:08:05Z</time>
      </trkpt>
      <trkpt lat="42.8192120" lon="-8.5332250">
        <ele>191.0</ele>
        <time>2022-04-14T11:08:06Z</time>
      </trkpt>
      <trkpt lat="42.8191330" lon="-8.5332490">
        <ele>191.4</ele>
        <time>2022-04-14T11:08:07Z</time>
      </trkpt>
      <trkpt lat="42.8191130" lon="-8.5332560">
        <ele>191.5</ele>
        <time>2022-04-14T11:08:08Z</time>
      </trkpt>
      <trkpt lat="42.8190930" lon="-8.5332620">
        <ele>191.6</ele>
        <time>2022-04-14T11:08:09Z</time>
      </trkpt>
      <trkpt lat="42.8190100" lon="-8.5332880">
        <ele>192.0</ele>
        <time>2022-04-14T11:08:10Z</time>
      </trkpt>
      <trkpt lat="42.8189890" lon="-8.5332950">
        <ele>192.1</ele>
        <time>2022-04-14T11:08:11Z</time>
      </trkpt>
      <trkpt lat="42.8189670" lon="-8.5333020">
        <ele>192.2</ele>
        <time>2022-04-14T11:08:12Z</time>
      </trkpt>
      <trkpt lat="42.8188560" lon="-8.5333340">
        <ele>192.5</ele>
        <time>2022-04-14T11:08:13Z</time>
      </trkpt>
      <trkpt lat="42.8188100" lon="-8.5333460">
        <ele>192.7</ele>
        <time>2022-04-14T11:08:14Z</time>
      </trkpt>
      <trkpt lat="42.8187820" lon="-8.5333460">
        <ele>192.7</ele>
        <time>2022-04-14T11:08:15Z</time>
      </trkpt>
      <trkpt lat="42.8187540" lon="-8.5333460">
        <ele>192.7</ele>
        <time>2022-04-14T11:08:16Z</time>
      </trkpt>
      <trkpt lat="42.8186690" lon="-8.5333370">
        <ele>192.7</ele>
        <time>2022-04-14T11:08:17Z</time>
      </trkpt>
      <trkpt lat="42.8186400" lon="-8.5333280">
        <ele>192.6</ele>
        <time>2022-04-14T11:08:18Z</time>
      </trkpt>
      <trkpt lat="42.8185490" lon="-8.5332940">
        <ele>192.3</ele>
        <time>2022-04-14T11:08:19Z</time>
      </trkpt>
      <trkpt lat="42.8185160" lon="-8.5332790">
        <ele>192.2</ele>
        <time>2022-04-14T11:08:20Z</time>
      </trkpt>
      <trkpt lat="42.8184130" lon="-8.5332330">
        <ele>191.9</ele>
        <time>2022-04-14T11:08:21Z</time>
      </trkpt>
      <trkpt lat="42.8183760" lon="-8.5332170">
        <ele>191.7</ele>
        <time>2022-04-14T11:08:22Z</time>
      </trkpt>
      <trkpt lat="42.8182650" lon="-8.5331670">
        <ele>191.2</ele>
        <time>2022-04-14T11:08:23Z</time>
      </trkpt>
      <trkpt lat="42.8182270" lon="-8.5331500">
        <ele>190.9</ele>
        <time>2022-04-14T11:08:24Z</time>
      </trkpt>
      <trkpt lat="42.8181100" lon="-8.5331020">
        <ele>189.6</ele>
        <time>2022-04-14T11:08:25Z</time>
      </trkpt>
      <trkpt lat="42.8180700" lon="-8.5330900">
        <ele>189.2</ele>
        <time>2022-04-14T11:08:26Z</time>
      </trkpt>
      <trkpt lat="42.8179580" lon="-8.5330630">
        <ele>188.0</ele>
        <time>2022-04-14T11:08:27Z</time>
      </trkpt>
      <trkpt lat="42.8179270" lon="-8.5330610">
        <ele>187.6</ele>
        <time>2022-04-14T11:08:28Z</time>
      </trkpt>
      <trkpt lat="42.8178510" lon="-8.5330740">
        <ele>186.8</ele>
        <time>2022-04-14T11:08:29Z</time>
      </trkpt>
      <trkpt lat="42.8178390" lon="-8.5330910">
        <ele>186.6</ele>
        <time>2022-04-14T11:08:30Z</time>
      </trkpt>
      <trkpt lat="42.8178270" lon="-8.5331090">
        <ele>186.4</ele>
        <time>2022-04-14T11:08:31Z</time>
      </trkpt>
      <trkpt lat="42.8178000" lon="-8.5332290">
        <ele>184.9</ele>
        <time>2022-04-14T11:08:32Z</time>
      </trkpt>
      <trkpt lat="42.8178090" lon="-8.5332970">
        <ele>185.1</ele>
        <time>2022-04-14T11:08:33Z</time>
      </trkpt>
      <trkpt lat="42.8178140" lon="-8.5333330">
        <ele>185.2</ele>
        <time>2022-04-14T11:08:34Z</time>
      </trkpt>
      <trkpt lat="42.8178190" lon="-8.5333690">
        <ele>185.3</ele>
        <time>2022-04-14T11:08:35Z</time>
      </trkpt>
      <trkpt lat="42.8178340" lon="-8.5335190">
        <ele>185.7</ele>
        <time>2022-04-14T11:08:36Z</time>
      </trkpt>
      <trkpt lat="42.8178400" lon="-8.5335960">
        <ele>186.0</ele>
        <time>2022-04-14T11:08:37Z</time>
      </trkpt>
      <trkpt lat="42.8178460" lon="-8.5336740">
        <ele>186.3</ele>
        <time>2022-04-14T11:08:38Z</time>
      </trkpt>
      <trkpt lat="42.8178590" lon="-8.5337960">
        <ele>186.7</ele>
        <time>2022-04-14T11:08:39Z</time>
      </trkpt>
      <trkpt lat="42.8178640" lon="-8.5338360">
        <ele>186.8</ele>
        <time>2022-04-14T11:08:40Z</time>
      </trkpt>
      <trkpt lat="42.8178750" lon="-8.5339170">
        <ele>187.1</ele>
        <time>2022-04-14T11:08:41Z</time>
      </trkpt>
      <trkpt lat="42.8178810" lon="-8.5339580">
        <ele>187.3</ele>
        <time>2022-04-14T11:08:42Z</time>
      </trkpt>
      <trkpt lat="42.8178870" lon="-8.5340000">
        <ele>187.4</ele>
        <time>2022-04-14T11:08:43Z</time>
      </trkpt>
      <trkpt lat="42.8179050" lon="-8.5341240">
        <ele>187.8</ele>
        <time>2022-04-14T11:08:44Z</time>
      </trkpt>
      <trkpt lat="42.8179120" lon="-8.5341640">
        <ele>188.0</ele>
        <time>2022-04-14T11:08:45Z</time>
      </trkpt>
      <trkpt lat="42.8179310" lon="-8.5342840">
        <ele>188.3</ele>
        <time>2022-04-14T11:08:46Z</time>
      </trkpt>
      <trkpt lat="42.8179360" lon="-8.5343230">
        <ele>188.4</ele>
        <time>2022-04-14T11:08:47Z</time>
      </trkpt>
      <trkpt lat="42.8179570" lon="-8.5344770">
        <ele>188.8</ele>
        <time>2022-04-14T11:08:48Z</time>
      </trkpt>
      <trkpt lat="42.8179680" lon="-8.5345510">
        <ele>189.0</ele>
        <time>2022-04-14T11:08:49Z</time>
      </trkpt>
      <trkpt lat="42.8179780" lon="-8.5346260">
        <ele>189.2</ele>
        <time>2022-04-14T11:08:50Z</time>
      </trkpt>
      <trkpt lat="42.8179970" lon="-8.5347390">
        <ele>189.6</ele>
        <time>2022-04-14T11:08:51Z</time>
      </trkpt>
      <trkpt lat="42.8180040" lon="-8.5347770">
        <ele>189.7</ele>
        <time>2022-04-14T11:08:52Z</time>
      </trkpt>
      <trkpt lat="42.8180250" lon="-8.5348930">
        <ele>190.1</ele>
        <time>2022-04-14T11:08:53Z</time>
      </trkpt>
      <trkpt lat="42.8180310" lon="-8.5349320">
        <ele>190.2</ele>
        <time>2022-04-14T11:08:54Z</time>
      </trkpt>
      <trkpt lat="42.8180500" lon="-8.5350500">
        <ele>190.6</ele>
        <time>2022-04-14T11:08:55Z</time>
      </trkpt>
      <trkpt lat="42.8180560" lon="-8.5350890">
        <ele>190.7</ele>
        <time>2022-04-14T11:08:56Z</time>
      </trkpt>
      <trkpt lat="42.8180740" lon="-8.5352050">
        <ele>191.1</ele>
        <time>2022-04-14T11:08:57Z</time>
      </trkpt>
      <trkpt lat="42.8180810" lon="-8.5352430">
        <ele>191.2</ele>
        <time>2022-04-14T11:08:58Z</time>
      </trkpt>
      <trkpt lat="42.8180940" lon="-8.5353180">
        <ele>191.4</ele>
        <time>2022-04-14T11:08:59Z</time>
      </trkpt>
      <trkpt lat="42.8181090" lon="-8.5353960">
        <ele>191.6</ele>
        <time>2022-04-14T11:09:00Z</time>
      </trkpt>
      <trkpt lat="42.8181240" lon="-8.5354740">
        <ele>191.8</ele>
        <time>2022-04-14T11:09:01Z</time>
      </trkpt>
      <trkpt lat="42.8181390" lon="-8.5355510">
        <ele>192.0</ele>
        <time>2022-04-14T11:09:02Z</time>
      </trkpt>
      <trkpt lat="42.8181620" lon="-8.5356670">
        <ele>192.2</ele>
        <time>2022-04-14T11:09:03Z</time>
      </trkpt>
      <trkpt lat="42.8181690" lon="-8.5357050">
        <ele>192.3</ele>
        <time>2022-04-14T11:09:04Z</time>
      </trkpt>
      <trkpt lat="42.8181900" lon="-8.5358200">
        <ele>192.5</ele>
        <time>2022-04-14T11:09:05Z</time>
      </trkpt>
      <trkpt lat="42.8181960" lon="-8.5358590">
        <ele>192.6</ele>
        <time>2022-04-14T11:09:06Z</time>
      </trkpt>
      <trkpt lat="42.8182080" lon="-8.5359360">
        <ele>192.6</ele>
        <time>2022-04-14T11:09:07Z</time>
      </trkpt>
      <trkpt lat="42.8182120" lon="-8.5359750">
        <ele>192.7</ele>
        <time>2022-04-14T11:09:08Z</time>
      </trkpt>
      <trkpt lat="42.8182150" lon="-8.5360130">
        <ele>192.7</ele>
        <time>2022-04-14T11:09:09Z</time>
      </trkpt>
      <trkpt lat="42.8182250" lon="-8.5361270">
        <ele>192.7</ele>
        <time>2022-04-14T11:09:10Z</time>
      </trkpt>
      <trkpt lat="42.8182270" lon="-8.5361630">
        <ele>192.7</ele>
        <time>2022-04-14T11:09:11Z</time>
      </trkpt>
      <trkpt lat="42.8182340" lon="-8.5362760">
        <ele>192.7</ele>
        <time>2022-04-14T11:09:12Z</time>
      </trkpt>
      <trkpt lat="42.8182360" lon="-8.5363150">
        <ele>192.7</ele>
        <time>2022-04-14T11:09:13Z</time>
      </trkpt>
      <trkpt lat="42.8182440" lon="-8.5364860">
        <ele>192.6</ele>
        <time>2022-04-14T11:09:14Z</time>
      </trkpt>
      <trkpt lat="42.8182470" lon="-8.5365780">
        <ele>192.6</ele>
        <time>2022-04-14T11:09:15Z</time>
      </trkpt>
      <trkpt lat="42.8182500" lon="-8.5366690">
        <ele>192.5</ele>
        <time>2022-04-14T11:09:16Z</time>
      </trkpt>
      <trkpt lat="42.8182570" lon="-8.5368130">
        <ele>192.4</ele>
        <time>2022-04-14T11:09:17Z</time>
      </trkpt>
      <trkpt lat="42.8182590" lon="-8.5368610">
        <ele>192.4</ele>
        <time>2022-04-14T11:09:18Z</time>
      </trkpt>
      <trkpt lat="42.8182690" lon="-8.5370050">
        <ele>192.3</ele>
        <time>2022-04-14T11:09:19Z</time>
      </trkpt>
      <trkpt lat="42.8182740" lon="-8.5370530">
        <ele>192.2</ele>
        <time>2022-04-14T11:09:20Z</time>
      </trkpt>
      <trkpt lat="42.8182840" lon="-8.5371480">
        <ele>192.2</ele>
        <time>2022-04-14T11:09:21Z</time>
      </trkpt>
      <trkpt lat="42.8183010" lon="-8.5372430">
        <ele>192.1</ele>
        <time>2022-04-14T11:09:22Z</time>
      </trkpt>
      <trkpt lat="42.8183180" lon="-8.5373380">
        <ele>192.1</ele>
        <time>2022-04-14T11:09:23Z</time>
      </trkpt>
      <trkpt lat="42.8183350" lon="-8.5374320">
        <ele>192.0</ele>
        <time>2022-04-14T11:09:24Z</time>
      </trkpt>
      <trkpt lat="42.8183660" lon="-8.5375740">
        <ele>191.9</ele>
        <time>2022-04-14T11:09:25Z</time>
      </trkpt>
      <trkpt lat="42.8183770" lon="-8.5376210">
        <ele>191.9</ele>
        <time>2022-04-14T11:09:26Z</time>
      </trkpt>
      <trkpt lat="42.8184120" lon="-8.5377630">
        <ele>191.8</ele>
        <time>2022-04-14T11:09:27Z</time>
      </trkpt>
      <trkpt lat="42.8184250" lon="-8.5378110">
        <ele>191.7</ele>
        <time>2022-04-14T11:09:28Z</time>
      </trkpt>
      <trkpt lat="42.8184500" lon="-8.5379070">
        <ele>191.6</ele>
        <time>2022-04-14T11:09:29Z</time>
      </trkpt>
      <trkpt lat="42.8184640" lon="-8.5379560">
        <ele>191.5</ele>
        <time>2022-04-14T11:09:30Z</time>
      </trkpt>
      <trkpt lat="42.8184770" lon="-8.5380040">
        <ele>191.5</ele>
        <time>2022-04-14T11:09:31Z</time>
      </trkpt>
      <trkpt lat="42.8185180" lon="-8.5381490">
        <ele>191.3</ele>
        <time>2022-04-14T11:09:32Z</time>
      </trkpt>
      <trkpt lat="42.8185320" lon="-8.5381980">
        <ele>191.2</ele>
        <time>2022-04-14T11:09:33Z</time>
      </trkpt>
      <trkpt lat="42.8185740" lon="-8.5383450">
        <ele>191.0</ele>
        <time>2022-04-14T11:09:34Z</time>
      </trkpt>
      <trkpt lat="42.8185890" lon="-8.5383940">
        <ele>191.0</ele>
        <time>2022-04-14T11:09:35Z</time>
      </trkpt>
      <trkpt lat="42.8186500" lon="-8.5385930">
        <ele>190.8</ele>
        <time>2022-04-14T11:09:36Z</time>
      </trkpt>
      <trkpt lat="42.8186810" lon="-8.5386930">
        <ele>190.6</ele>
        <time>2022-04-14T11:09:37Z</time>
      </trkpt>
      <trkpt lat="42.8187120" lon="-8.5387940">
        <ele>190.5</ele>
        <time>2022-04-14T11:09:38Z</time>
      </trkpt>
      <trkpt lat="42.8187590" lon="-8.5389490">
        <ele>190.4</ele>
        <time>2022-04-14T11:09:39Z</time>
      </trkpt>
      <trkpt lat="42.8187750" lon="-8.5390000">
        <ele>190.3</ele>
        <time>2022-04-14T11:09:40Z</time>
      </trkpt>
      <trkpt lat="42.8188220" lon="-8.5391510">
        <ele>190.3</ele>
        <time>2022-04-14T11:09:41Z</time>
      </trkpt>
      <trkpt lat="42.8188360" lon="-8.5392000">
        <ele>190.3</ele>
        <time>2022-04-14T11:09:42Z</time>
      </trkpt>
      <trkpt lat="42.8188650" lon="-8.5392980">
        <ele>190.3</ele>
        <time>2022-04-14T11:09:43Z</time>
      </trkpt>
      <trkpt lat="42.8188790" lon="-8.5393460">
        <ele>190.3</ele>
        <time>2022-04-14T11:09:44Z</time>
      </trkpt>
      <trkpt lat="42.8188920" lon="-8.5393940">
        <ele>190.3</ele>
        <time>2022-04-14T11:09:45Z</time>
      </trkpt>
      <trkpt lat="42.8189330" lon="-8.5395360">
        <ele>190.3</ele>
        <time>2022-04-14T11:09:46Z</time>
      </trkpt>
      <trkpt lat="42.8189460" lon="-8.5395820">
        <ele>190.4</ele>
        <time>2022-04-14T11:09:47Z</time>
      </trkpt>
      <trkpt lat="42.8189880" lon="-8.5397210">
        <ele>190.4</ele>
        <time>2022-04-14T11:09:48Z</time>
      </trkpt>
      <trkpt lat="42.8190030" lon="-8.5397660">
        <ele>190.4</ele>
        <time>2022-04-14T11:09:49Z</time>
      </trkpt>
      <trkpt lat="42.8190470" lon="-8.5399020">
        <ele>190.3</ele>
        <time>2022-04-14T11:09:50Z</time>
      </trkpt>
      <trkpt lat="42.8190620" lon="-8.5399470">
        <ele>190.2</ele>
        <time>2022-04-14T11:09:51Z</time>
      </trkpt>
      <trkpt lat="42.8191060" lon="-8.5400890">
        <ele>189.7</ele>
        <time>2022-04-14T11:09:52Z</time>
      </trkpt>
      <trkpt lat="42.8191200" lon="-8.5401400">
        <ele>189.5</ele>
        <time>2022-04-14T11:09:53Z</time>
      </trkpt>
      <trkpt lat="42.8191530" lon="-8.5403670">
        <ele>188.2</ele>
        <time>2022-04-14T11:09:54Z</time>
      </trkpt>
      <trkpt lat="42.8191580" lon="-8.5404910">
        <ele>187.4</ele>
        <time>2022-04-14T11:09:55Z</time>
      </trkpt>
      <trkpt lat="42.8191670" lon="-8.5407390">
        <ele>185.9</ele>
        <time>2022-04-14T11:09:56Z</time>
      </trkpt>
      <trkpt lat="42.8191500" lon="-8.5408710">
        <ele>185.1</ele>
        <time>2022-04-14T11:09:57Z</time>
      </trkpt>
      <trkpt lat="42.8191500" lon="-8.5408710">
        <ele>185.1</ele>
        <time>2022-04-14T11:09:58Z</time>
      </trkpt>
      <trkpt lat="42.8191280" lon="-8.5410020">
        <ele>184.3</ele>
        <time>2022-04-14T11:09:59Z</time>
      </trkpt>
      <trkpt lat="42.8190790" lon="-8.5412780">
        <ele>183.0</ele>
        <time>2022-04-14T11:10:00Z</time>
      </trkpt>
      <trkpt lat="42.8190790" lon="-8.5412780">
        <ele>183.0</ele>
        <time>2022-04-14T11:10:01Z</time>
      </trkpt>
      <trkpt lat="42.8190530" lon="-8.5414210">
        <ele>182.4</ele>
        <time>2022-04-14T11:10:02Z</time>
      </trkpt>
      <trkpt lat="42.8190260" lon="-8.5415530">
        <ele>182.0</ele>
        <time>2022-04-14T11:10:03Z</time>
      </trkpt>
      <trkpt lat="42.8190020" lon="-8.5416880">
        <ele>181.6</ele>
        <time>2022-04-14T11:10:04Z</time>
      </trkpt>
      <trkpt lat="42.8189790" lon="-8.5418230">
        <ele>181.5</ele>
        <time>2022-04-14T11:10:05Z</time>
      </trkpt>
      <trkpt lat="42.8189580" lon="-8.5419510">
        <ele>181.5</ele>
        <time>2022-04-14T11:10:06Z</time>
      </trkpt>
      <trkpt lat="42.8189390" lon="-8.5420760">
        <ele>181.8</ele>
        <time>2022-04-14T11:10:07Z</time>
      </trkpt>
      <trkpt lat="42.8189310" lon="-8.5421300">
        <ele>182.1</ele>
        <time>2022-04-14T11:10:08Z</time>
      </trkpt>
      <trkpt lat="42.8189220" lon="-8.5421840">
        <ele>182.3</ele>
        <time>2022-04-14T11:10:09Z</time>
      </trkpt>
      <trkpt lat="42.8188980" lon="-8.5423360">
        <ele>183.3</ele>
        <time>2022-04-14T11:10:10Z</time>
      </trkpt>
      <trkpt lat="42.8188900" lon="-8.5423820">
        <ele>183.6</ele>
        <time>2022-04-14T11:10:11Z</time>
      </trkpt>
      <trkpt lat="42.8188720" lon="-8.5425140">
        <ele>184.7</ele>
        <time>2022-04-14T11:10:12Z</time>
      </trkpt>
      <trkpt lat="42.8188690" lon="-8.5425560">
        <ele>185.0</ele>
        <time>2022-04-14T11:10:13Z</time>
      </trkpt>
      <trkpt lat="42.8188480" lon="-8.5427150">
        <ele>186.5</ele>
        <time>2022-04-14T11:10:14Z</time>
      </trkpt>
      <trkpt lat="42.8188330" lon="-8.5427890">
        <ele>187.3</ele>
        <time>2022-04-14T11:10:15Z</time>
      </trkpt>
      <trkpt lat="42.8188040" lon="-8.5429380">
        <ele>188.8</ele>
        <time>2022-04-14T11:10:16Z</time>
      </trkpt>
      <trkpt lat="42.8188040" lon="-8.5429380">
        <ele>188.8</ele>
        <time>2022-04-14T11:10:17Z</time>
      </trkpt>
      <trkpt lat="42.8187990" lon="-8.5429770">
        <ele>189.1</ele>
        <time>2022-04-14T11:10:18Z</time>
      </trkpt>
      <trkpt lat="42.8187930" lon="-8.5430150">
        <ele>189.5</ele>
        <time>2022-04-14T11:10:19Z</time>
      </trkpt>
      <trkpt lat="42.8187760" lon="-8.5431320">
        <ele>190.5</ele>
        <time>2022-04-14T11:10:20Z</time>
      </trkpt>
      <trkpt lat="42.8187700" lon="-8.5431710">
        <ele>190.7</ele>
        <time>2022-04-14T11:10:21Z</time>
      </trkpt>
      <trkpt lat="42.8187510" lon="-8.5432890">
        <ele>191.5</ele>
        <time>2022-04-14T11:10:22Z</time>
      </trkpt>
      <trkpt lat="42.8187440" lon="-8.5433280">
        <ele>191.8</ele>
        <time>2022-04-14T11:10:23Z</time>
      </trkpt>
      <trkpt lat="42.8187220" lon="-8.5434460">
        <ele>192.5</ele>
        <time>2022-04-14T11:10:24Z</time>
      </trkpt>
      <trkpt lat="42.8187150" lon="-8.5434880">
        <ele>192.7</ele>
        <time>2022-04-14T11:10:25Z</time>
      </trkpt>
      <trkpt lat="42.8186930" lon="-8.5436130">
        <ele>193.1</ele>
        <time>2022-04-14T11:10:26Z</time>
      </trkpt>
      <trkpt lat="42.8186860" lon="-8.5436560">
        <ele>193.2</ele>
        <time>2022-04-14T11:10:27Z</time>
      </trkpt>
      <trkpt lat="42.8186620" lon="-8.5437820">
        <ele>193.5</ele>
        <time>2022-04-14T11:10:28Z</time>
      </trkpt>
      <trkpt lat="42.8186550" lon="-8.5438220">
        <ele>193.6</ele>
        <time>2022-04-14T11:10:29Z</time>
      </trkpt>
      <trkpt lat="42.8186320" lon="-8.5439420">
        <ele>193.8</ele>
        <time>2022-04-14T11:10:30Z</time>
      </trkpt>
      <trkpt lat="42.8186250" lon="-8.5439810">
        <ele>193.9</ele>
        <time>2022-04-14T11:10:31Z</time>
      </trkpt>
      <trkpt lat="42.8186050" lon="-8.5440960">
        <ele>194.2</ele>
        <time>2022-04-14T11:10:32Z</time>
      </trkpt>
      <trkpt lat="42.8185990" lon="-8.5441330">
        <ele>194.3</ele>
        <time>2022-04-14T11:10:33Z</time>
      </trkpt>
      <trkpt lat="42.8185790" lon="-8.5442550">
        <ele>194.6</ele>
        <time>2022-04-14T11:10:34Z</time>
      </trkpt>
      <trkpt lat="42.8185700" lon="-8.5443020">
        <ele>194.7</ele>
        <time>2022-04-14T11:10:35Z</time>
      </trkpt>
      <trkpt lat="42.8185610" lon="-8.5443490">
        <ele>194.8</ele>
        <time>2022-04-14T11:10:36Z</time>
      </trkpt>
      <trkpt lat="42.8185500" lon="-8.5443560">
        <ele>194.8</ele>
        <time>2022-04-14T11:10:37Z</time>
      </trkpt>
      <trkpt lat="42.8185390" lon="-8.5443630">
        <ele>194.9</ele>
        <time>2022-04-14T11:10:38Z</time>
      </trkpt>
      <trkpt lat="42.8185290" lon="-8.5443710">
        <ele>195.1</ele>
        <time>2022-04-14T11:10:39Z</time>
      </trkpt>
      <trkpt lat="42.8185180" lon="-8.5443780">
        <ele>195.1</ele>
        <time>2022-04-14T11:10:40Z</time>
      </trkpt>
      <trkpt lat="42.8185070" lon="-8.5443850">
        <ele>195.1</ele>
        <time>2022-04-14T11:10:41Z</time>
      </trkpt>
      <trkpt lat="42.8184310" lon="-8.5444320">
        <ele>195.1</ele>
        <time>2022-04-14T11:10:42Z</time>
      </trkpt>
      <trkpt lat="42.8184100" lon="-8.5444440">
        <ele>195.1</ele>
        <time>2022-04-14T11:10:43Z</time>
      </trkpt>
      <trkpt lat="42.8183880" lon="-8.5444560">
        <ele>195.1</ele>
        <time>2022-04-14T11:10:44Z</time>
      </trkpt>
      <trkpt lat="42.8182950" lon="-8.5445030">
        <ele>195.2</ele>
        <time>2022-04-14T11:10:45Z</time>
      </trkpt>
      <trkpt lat="42.8182680" lon="-8.5445160">
        <ele>195.2</ele>
        <time>2022-04-14T11:10:46Z</time>
      </trkpt>
      <trkpt lat="42.8181800" lon="-8.5445490">
        <ele>195.2</ele>
        <time>2022-04-14T11:10:47Z</time>
      </trkpt>
      <trkpt lat="42.8181490" lon="-8.5445580">
        <ele>195.2</ele>
        <time>2022-04-14T11:10:48Z</time>
      </trkpt>
      <trkpt lat="42.8180510" lon="-8.5445850">
        <ele>195.2</ele>
        <time>2022-04-14T11:10:49Z</time>
      </trkpt>
      <trkpt lat="42.8180170" lon="-8.5445940">
        <ele>195.2</ele>
        <time>2022-04-14T11:10:50Z</time>
      </trkpt>
      <trkpt lat="42.8179140" lon="-8.5446180">
        <ele>195.2</ele>
        <time>2022-04-14T11:10:51Z</time>
      </trkpt>
      <trkpt lat="42.8178800" lon="-8.5446240">
        <ele>195.2</ele>
        <time>2022-04-14T11:10:52Z</time>
      </trkpt>
      <trkpt lat="42.8177590" lon="-8.5446990">
        <ele>195.2</ele>
        <time>2022-04-14T11:10:53Z</time>
      </trkpt>
      <trkpt lat="42.8177070" lon="-8.5447620">
        <ele>195.2</ele>
        <time>2022-04-14T11:10:54Z</time>
      </trkpt>
      <trkpt lat="42.8176540" lon="-8.5448250">
        <ele>194.8</ele>
        <time>2022-04-14T11:10:55Z</time>
      </trkpt>
      <trkpt lat="42.8176480" lon="-8.5449520">
        <ele>194.3</ele>
        <time>2022-04-14T11:10:56Z</time>
      </trkpt>
      <trkpt lat="42.8176440" lon="-8.5450150">
        <ele>194.0</ele>
        <time>2022-04-14T11:10:57Z</time>
      </trkpt>
      <trkpt lat="42.8176520" lon="-8.5451460">
        <ele>193.5</ele>
        <time>2022-04-14T11:10:58Z</time>
      </trkpt>
      <trkpt lat="42.8176520" lon="-8.5451460">
        <ele>193.5</ele>
        <time>2022-04-14T11:10:59Z</time>
      </trkpt>
      <trkpt lat="42.8176500" lon="-8.5453730">
        <ele>192.6</ele>
        <time>2022-04-14T11:11:00Z</time>
      </trkpt>
      <trkpt lat="42.8176500" lon="-8.5454320">
        <ele>192.4</ele>
        <time>2022-04-14T11:11:01Z</time>
      </trkpt>
      <trkpt lat="42.8176500" lon="-8.5454910">
        <ele>192.2</ele>
        <time>2022-04-14T11:11:02Z</time>
      </trkpt>
      <trkpt lat="42.8176480" lon="-8.5456710">
        <ele>191.5</ele>
        <time>2022-04-14T11:11:03Z</time>
      </trkpt>
      <trkpt lat="42.8176470" lon="-8.5457330">
        <ele>191.2</ele>
        <time>2022-04-14T11:11:04Z</time>
      </trkpt>
      <trkpt lat="42.8176380" lon="-8.5459500">
        <ele>190.3</ele>
        <time>2022-04-14T11:11:05Z</time>
      </trkpt>
      <trkpt lat="42.8176320" lon="-8.5460410">
        <ele>189.9</ele>
        <time>2022-04-14T11:11:06Z</time>
      </trkpt>
      <trkpt lat="42.8176200" lon="-8.5462240">
        <ele>189.3</ele>
        <time>2022-04-14T11:11:07Z</time>
      </trkpt>
      <trkpt lat="42.8176190" lon="-8.5463530">
        <ele>188.9</ele>
        <time>2022-04-14T11:11:08Z</time>
      </trkpt>
      <trkpt lat="42.8176210" lon="-8.5464840">
        <ele>188.5</ele>
        <time>2022-04-14T11:11:09Z</time>
      </trkpt>
      <trkpt lat="42.8176250" lon="-8.5466130">
        <ele>188.2</ele>
        <time>2022-04-14T11:11:10Z</time>
      </trkpt>
      <trkpt lat="42.8176330" lon="-8.5467500">
        <ele>187.9</ele>
        <time>2022-04-14T11:11:11Z</time>
      </trkpt>
      <trkpt lat="42.8176330" lon="-8.5468830">
        <ele>187.6</ele>
        <time>2022-04-14T11:11:12Z</time>
      </trkpt>
      <trkpt lat="42.8176350" lon="-8.5471530">
        <ele>187.1</ele>
        <time>2022-04-14T11:11:13Z</time>
      </trkpt>
      <trkpt lat="42.8176350" lon="-8.5471530">
        <ele>187.1</ele>
        <time>2022-04-14T11:11:14Z</time>
      </trkpt>
      <trkpt lat="42.8176310" lon="-8.5472830">
        <ele>187.0</ele>
        <time>2022-04-14T11:11:15Z</time>
      </trkpt>
      <trkpt lat="42.8176300" lon="-8.5474140">
        <ele>186.8</ele>
        <time>2022-04-14T11:11:16Z</time>
      </trkpt>
      <trkpt lat="42.8176240" lon="-8.5475430">
        <ele>186.5</ele>
        <time>2022-04-14T11:11:17Z</time>
      </trkpt>
      <trkpt lat="42.8176200" lon="-8.5476720">
        <ele>186.3</ele>
        <time>2022-04-14T11:11:18Z</time>
      </trkpt>
      <trkpt lat="42.8176200" lon="-8.5478050">
        <ele>186.1</ele>
        <time>2022-04-14T11:11:19Z</time>
      </trkpt>
      <trkpt lat="42.8176190" lon="-8.5479320">
        <ele>185.9</ele>
        <time>2022-04-14T11:11:20Z</time>
      </trkpt>
      <trkpt lat="42.8176150" lon="-8.5480590">
        <ele>185.8</ele>
        <time>2022-04-14T11:11:21Z</time>
      </trkpt>
      <trkpt lat="42.8176170" lon="-8.5481890">
        <ele>185.8</ele>
        <time>2022-04-14T11:11:22Z</time>
      </trkpt>
      <trkpt lat="42.8176180" lon="-8.5483150">
        <ele>185.7</ele>
        <time>2022-04-14T11:11:23Z</time>
      </trkpt>
      <trkpt lat="42.8176190" lon="-8.5483750">
        <ele>185.7</ele>
        <time>2022-04-14T11:11:24Z</time>
      </trkpt>
      <trkpt lat="42.8176190" lon="-8.5484340">
        <ele>185.7</ele>
        <time>2022-04-14T11:11:25Z</time>
      </trkpt>
      <trkpt lat="42.8176210" lon="-8.5486090">
        <ele>185.7</ele>
        <time>2022-04-14T11:11:26Z</time>
      </trkpt>
      <trkpt lat="42.8176210" lon="-8.5486650">
        <ele>185.7</ele>
        <time>2022-04-14T11:11:27Z</time>
      </trkpt>
      <trkpt lat="42.8176220" lon="-8.5488320">
        <ele>185.8</ele>
        <time>2022-04-14T11:11:28Z</time>
      </trkpt>
      <trkpt lat="42.8176220" lon="-8.5488880">
        <ele>185.7</ele>
        <time>2022-04-14T11:11:29Z</time>
      </trkpt>
      <trkpt lat="42.8176230" lon="-8.5491040">
        <ele>185.7</ele>
        <time>2022-04-14T11:11:30Z</time>
      </trkpt>
      <trkpt lat="42.8176220" lon="-8.5492080">
        <ele>185.7</ele>
        <time>2022-04-14T11:11:31Z</time>
      </trkpt>
      <trkpt lat="42.8176200" lon="-8.5494170">
        <ele>185.6</ele>
        <time>2022-04-14T11:11:32Z</time>
      </trkpt>
      <trkpt lat="42.8176200" lon="-8.5494170">
        <ele>185.6</ele>
        <time>2022-04-14T11:11:33Z</time>
      </trkpt>
      <trkpt lat="42.8176210" lon="-8.5494700">
        <ele>185.6</ele>
        <time>2022-04-14T11:11:34Z</time>
      </trkpt>
      <trkpt lat="42.8176220" lon="-8.5495230">
        <ele>185.6</ele>
        <time>2022-04-14T11:11:35Z</time>
      </trkpt>
      <trkpt lat="42.8176250" lon="-8.5496770">
        <ele>185.6</ele>
        <time>2022-04-14T11:11:36Z</time>
      </trkpt>
      <trkpt lat="42.8176260" lon="-8.5497260">
        <ele>185.6</ele>
        <time>2022-04-14T11:11:37Z</time>
      </trkpt>
      <trkpt lat="42.8176270" lon="-8.5498740">
        <ele>185.7</ele>
        <time>2022-04-14T11:11:38Z</time>
      </trkpt>
      <trkpt lat="42.8176270" lon="-8.5499240">
        <ele>185.7</ele>
        <time>2022-04-14T11:11:39Z</time>
      </trkpt>
      <trkpt lat="42.8176280" lon="-8.5500720">
        <ele>185.8</ele>
        <time>2022-04-14T11:11:40Z</time>
      </trkpt>
      <trkpt lat="42.8176290" lon="-8.5501190">
        <ele>185.9</ele>
        <time>2022-04-14T11:11:41Z</time>
      </trkpt>
      <trkpt lat="42.8176220" lon="-8.5502600">
        <ele>186.0</ele>
        <time>2022-04-14T11:11:42Z</time>
      </trkpt>
      <trkpt lat="42.8176150" lon="-8.5503060">
        <ele>186.1</ele>
        <time>2022-04-14T11:11:43Z</time>
      </trkpt>
      <trkpt lat="42.8175740" lon="-8.5504280">
        <ele>186.4</ele>
        <time>2022-04-14T11:11:44Z</time>
      </trkpt>
      <trkpt lat="42.8175480" lon="-8.5504580">
        <ele>186.4</ele>
        <time>2022-04-14T11:11:45Z</time>
      </trkpt>
      <trkpt lat="42.8174600" lon="-8.5505270">
        <ele>186.2</ele>
        <time>2022-04-14T11:11:46Z</time>
      </trkpt>
      <trkpt lat="42.8174240" lon="-8.5505360">
        <ele>186.1</ele>
        <time>2022-04-14T11:11:47Z</time>
      </trkpt>
      <trkpt lat="42.8173140" lon="-8.5505540">
        <ele>185.8</ele>
        <time>2022-04-14T11:11:48Z</time>
      </trkpt>
      <trkpt lat="42.8172750" lon="-8.5505550">
        <ele>185.8</ele>
        <time>2022-04-14T11:11:49Z</time>
      </trkpt>
      <trkpt lat="42.8171590" lon="-8.5505570">
        <ele>185.5</ele>
        <time>2022-04-14T11:11:50Z</time>
      </trkpt>
      <trkpt lat="42.8171200" lon="-8.5505560">
        <ele>185.5</ele>
        <time>2022-04-14T11:11:51Z</time>
      </trkpt>
      <trkpt lat="42.8169780" lon="-8.5505580">
        <ele>185.2</ele>
        <time>2022-04-14T11:11:52Z</time>
      </trkpt>
      <trkpt lat="42.8169130" lon="-8.5505620">
        <ele>185.1</ele>
        <time>2022-04-14T11:11:53Z</time>
      </trkpt>
      <trkpt lat="42.8167840" lon="-8.5505680">
        <ele>185.0</ele>
        <time>2022-04-14T11:11:54Z</time>
      </trkpt>
      <trkpt lat="42.8167420" lon="-8.5505690">
        <ele>184.9</ele>
        <time>2022-04-14T11:11:55Z</time>
      </trkpt>
      <trkpt lat="42.8167000" lon="-8.5505710">
        <ele>184.8</ele>
        <time>2022-04-14T11:11:56Z</time>
      </trkpt>
      <trkpt lat="42.8165730" lon="-8.5505730">
        <ele>184.6</ele>
        <time>2022-04-14T11:11:57Z</time>
      </trkpt>
      <trkpt lat="42.8165300" lon="-8.5505730">
        <ele>184.5</ele>
        <time>2022-04-14T11:11:58Z</time>
      </trkpt>
      <trkpt lat="42.8164000" lon="-8.5505780">
        <ele>184.3</ele>
        <time>2022-04-14T11:11:59Z</time>
      </trkpt>
      <trkpt lat="42.8163550" lon="-8.5505820">
        <ele>184.3</ele>
        <time>2022-04-14T11:12:00Z</time>
      </trkpt>
      <trkpt lat="42.8162320" lon="-8.5506220">
        <ele>184.1</ele>
        <time>2022-04-14T11:12:01Z</time>
      </trkpt>
      <trkpt lat="42.8161980" lon="-8.5506540">
        <ele>184.1</ele>
        <time>2022-04-14T11:12:02Z</time>
      </trkpt>
      <trkpt lat="42.8161240" lon="-8.5507730">
        <ele>184.1</ele>
        <time>2022-04-14T11:12:03Z</time>
      </trkpt>
      <trkpt lat="42.8161180" lon="-8.5508300">
        <ele>184.1</ele>
        <time>2022-04-14T11:12:04Z</time>
      </trkpt>
      <trkpt lat="42.8161040" lon="-8.5510030">
        <ele>184.2</ele>
        <time>2022-04-14T11:12:05Z</time>
      </trkpt>
      <trkpt lat="42.8161020" lon="-8.5510620">
        <ele>184.2</ele>
        <time>2022-04-14T11:12:06Z</time>
      </trkpt>
      <trkpt lat="42.8160950" lon="-8.5512420">
        <ele>184.3</ele>
        <time>2022-04-14T11:12:07Z</time>
      </trkpt>
      <trkpt lat="42.8160920" lon="-8.5513040">
        <ele>184.3</ele>
        <time>2022-04-14T11:12:08Z</time>
      </trkpt>
      <trkpt lat="42.8160860" lon="-8.5515180">
        <ele>184.3</ele>
        <time>2022-04-14T11:12:09Z</time>
      </trkpt>
      <trkpt lat="42.8160870" lon="-8.5516090">
        <ele>184.1</ele>
        <time>2022-04-14T11:12:10Z</time>
      </trkpt>
      <trkpt lat="42.8160880" lon="-8.5517910">
        <ele>183.7</ele>
        <time>2022-04-14T11:12:11Z</time>
      </trkpt>
      <trkpt lat="42.8160890" lon="-8.5519170">
        <ele>183.3</ele>
        <time>2022-04-14T11:12:12Z</time>
      </trkpt>
      <trkpt lat="42.8160920" lon="-8.5520430">
        <ele>182.8</ele>
        <time>2022-04-14T11:12:13Z</time>
      </trkpt>
      <trkpt lat="42.8160910" lon="-8.5521730">
        <ele>182.3</ele>
        <time>2022-04-14T11:12:14Z</time>
      </trkpt>
      <trkpt lat="42.8160900" lon="-8.5523030">
        <ele>181.8</ele>
        <time>2022-04-14T11:12:15Z</time>
      </trkpt>
      <trkpt lat="42.8160910" lon="-8.5524360">
        <ele>181.1</ele>
        <time>2022-04-14T11:12:16Z</time>
      </trkpt>
      <trkpt lat="42.8160880" lon="-8.5525720">
        <ele>180.4</ele>
        <time>2022-04-14T11:12:17Z</time>
      </trkpt>
      <trkpt lat="42.8160830" lon="-8.5527150">
        <ele>179.6</ele>
        <time>2022-04-14T11:12:18Z</time>
      </trkpt>
      <trkpt lat="42.8160820" lon="-8.5528580">
        <ele>178.8</ele>
        <time>2022-04-14T11:12:19Z</time>
      </trkpt>
      <trkpt lat="42.8160780" lon="-8.5530010">
        <ele>178.0</ele>
        <time>2022-04-14T11:12:20Z</time>
      </trkpt>
      <trkpt lat="42.8160740" lon="-8.5531530">
        <ele>177.1</ele>
        <time>2022-04-14T11:12:21Z</time>
      </trkpt>
      <trkpt lat="42.8160680" lon="-8.5533130">
        <ele>176.3</ele>
        <time>2022-04-14T11:12:22Z</time>
      </trkpt>
      <trkpt lat="42.8160600" lon="-8.5534760">
        <ele>175.5</ele>
        <time>2022-04-14T11:12:23Z</time>
      </trkpt>
      <trkpt lat="42.8160520" lon="-8.5536400">
        <ele>174.8</ele>
        <time>2022-04-14T11:12:24Z</time>
      </trkpt>
      <trkpt lat="42.8160370" lon="-8.5538000">
        <ele>174.1</ele>
        <time>2022-04-14T11:12:25Z</time>
      </trkpt>
      <trkpt lat="42.8160220" lon="-8.5539620">
        <ele>173.5</ele>
        <time>2022-04-14T11:12:26Z</time>
      </trkpt>
      <trkpt lat="42.8159930" lon="-8.5541240">
        <ele>172.9</ele>
        <time>2022-04-14T11:12:27Z</time>
      </trkpt>
      <trkpt lat="42.8159550" lon="-8.5542820">
        <ele>172.3</ele>
        <time>2022-04-14T11:12:28Z</time>
      </trkpt>
      <trkpt lat="42.8159140" lon="-8.5544380">
        <ele>171.7</ele>
        <time>2022-04-14T11:12:29Z</time>
      </trkpt>
      <trkpt lat="42.8158660" lon="-8.5545900">
        <ele>171.0</ele>
        <time>2022-04-14T11:12:30Z</time>
      </trkpt>
      <trkpt lat="42.8158130" lon="-8.5547370">
        <ele>170.4</ele>
        <time>2022-04-14T11:12:31Z</time>
      </trkpt>
      <trkpt lat="42.8157380" lon="-8.5548720">
        <ele>169.6</ele>
        <time>2022-04-14T11:12:32Z</time>
      </trkpt>
      <trkpt lat="42.8156500" lon="-8.5549890">
        <ele>168.9</ele>
        <time>2022-04-14T11:12:33Z</time>
      </trkpt>
      <trkpt lat="42.8155480" lon="-8.5550970">
        <ele>168.1</ele>
        <time>2022-04-14T11:12:34Z</time>
      </trkpt>
      <trkpt lat="42.8154430" lon="-8.5551930">
        <ele>167.2</ele>
        <time>2022-04-14T11:12:35Z</time>
      </trkpt>
      <trkpt lat="42.8153350" lon="-8.5552820">
        <ele>166.3</ele>
        <time>2022-04-14T11:12:36Z</time>
      </trkpt>
      <trkpt lat="42.8152250" lon="-8.5553740">
        <ele>165.5</ele>
        <time>2022-04-14T11:12:37Z</time>
      </trkpt>
      <trkpt lat="42.8151210" lon="-8.5554680">
        <ele>164.8</ele>
        <time>2022-04-14T11:12:38Z</time>
      </trkpt>
      <trkpt lat="42.8150230" lon="-8.5555990">
        <ele>164.2</ele>
        <time>2022-04-14T11:12:39Z</time>
      </trkpt>
      <trkpt lat="42.8149580" lon="-8.5557410">
        <ele>163.5</ele>
        <time>2022-04-14T11:12:40Z</time>
      </trkpt>
      <trkpt lat="42.8149100" lon="-8.5558950">
        <ele>163.0</ele>
        <time>2022-04-14T11:12:41Z</time>
      </trkpt>
      <trkpt lat="42.8148850" lon="-8.5560620">
        <ele>162.5</ele>
        <time>2022-04-14T11:12:42Z</time>
      </trkpt>
      <trkpt lat="42.8148730" lon="-8.5562410">
        <ele>162.2</ele>
        <time>2022-04-14T11:12:43Z</time>
      </trkpt>
      <trkpt lat="42.8148600" lon="-8.5564150">
        <ele>162.0</ele>
        <time>2022-04-14T11:12:44Z</time>
      </trkpt>
      <trkpt lat="42.8148570" lon="-8.5565830">
        <ele>162.1</ele>
        <time>2022-04-14T11:12:45Z</time>
      </trkpt>
      <trkpt lat="42.8148490" lon="-8.5567450">
        <ele>162.4</ele>
        <time>2022-04-14T11:12:46Z</time>
      </trkpt>
      <trkpt lat="42.8148490" lon="-8.5569100">
        <ele>162.8</ele>
        <time>2022-04-14T11:12:47Z</time>
      </trkpt>
      <trkpt lat="42.8148480" lon="-8.5572200">
        <ele>163.8</ele>
        <time>2022-04-14T11:12:48Z</time>
      </trkpt>
      <trkpt lat="42.8148480" lon="-8.5572200">
        <ele>163.8</ele>
        <time>2022-04-14T11:12:49Z</time>
      </trkpt>
      <trkpt lat="42.8148420" lon="-8.5573570">
        <ele>164.4</ele>
        <time>2022-04-14T11:12:50Z</time>
      </trkpt>
      <trkpt lat="42.8148350" lon="-8.5574840">
        <ele>165.2</ele>
        <time>2022-04-14T11:12:51Z</time>
      </trkpt>
      <trkpt lat="42.8148330" lon="-8.5575440">
        <ele>165.6</ele>
        <time>2022-04-14T11:12:52Z</time>
      </trkpt>
      <trkpt lat="42.8148310" lon="-8.5576030">
        <ele>166.0</ele>
        <time>2022-04-14T11:12:53Z</time>
      </trkpt>
      <trkpt lat="42.8148250" lon="-8.5577770">
        <ele>167.2</ele>
        <time>2022-04-14T11:12:54Z</time>
      </trkpt>
      <trkpt lat="42.8148240" lon="-8.5578320">
        <ele>167.5</ele>
        <time>2022-04-14T11:12:55Z</time>
      </trkpt>
      <trkpt lat="42.8148200" lon="-8.5579940">
        <ele>168.7</ele>
        <time>2022-04-14T11:12:56Z</time>
      </trkpt>
      <trkpt lat="42.8148180" lon="-8.5580450">
        <ele>169.0</ele>
        <time>2022-04-14T11:12:57Z</time>
      </trkpt>
      <trkpt lat="42.8148130" lon="-8.5581950">
        <ele>170.1</ele>
        <time>2022-04-14T11:12:58Z</time>
      </trkpt>
      <trkpt lat="42.8148120" lon="-8.5582440">
        <ele>170.5</ele>
        <time>2022-04-14T11:12:59Z</time>
      </trkpt>
      <trkpt lat="42.8148060" lon="-8.5583870">
        <ele>171.5</ele>
        <time>2022-04-14T11:13:00Z</time>
      </trkpt>
      <trkpt lat="42.8148040" lon="-8.5584310">
        <ele>171.8</ele>
        <time>2022-04-14T11:13:01Z</time>
      </trkpt>
      <trkpt lat="42.8147970" lon="-8.5585640">
        <ele>172.7</ele>
        <time>2022-04-14T11:13:02Z</time>
      </trkpt>
      <trkpt lat="42.8147940" lon="-8.5586070">
        <ele>173.1</ele>
        <time>2022-04-14T11:13:03Z</time>
      </trkpt>
      <trkpt lat="42.8147870" lon="-8.5587320">
        <ele>173.9</ele>
        <time>2022-04-14T11:13:04Z</time>
      </trkpt>
      <trkpt lat="42.8147860" lon="-8.5587720">
        <ele>174.2</ele>
        <time>2022-04-14T11:13:05Z</time>
      </trkpt>
      <trkpt lat="42.8147780" lon="-8.5588860">
        <ele>175.0</ele>
        <time>2022-04-14T11:13:06Z</time>
      </trkpt>
      <trkpt lat="42.8147740" lon="-8.5589210">
        <ele>175.2</ele>
        <time>2022-04-14T11:13:07Z</time>
      </trkpt>
      <trkpt lat="42.8147470" lon="-8.5590490">
        <ele>176.1</ele>
        <time>2022-04-14T11:13:08Z</time>
      </trkpt>
      <trkpt lat="42.8147280" lon="-8.5591070">
        <ele>176.5</ele>
        <time>2022-04-14T11:13:09Z</time>
      </trkpt>
      <trkpt lat="42.8146830" lon="-8.5591370">
        <ele>177.1</ele>
        <time>2022-04-14T11:13:10Z</time>
      </trkpt>
      <trkpt lat="42.8146380" lon="-8.5591670">
        <ele>177.1</ele>
        <time>2022-04-14T11:13:11Z</time>
      </trkpt>
      <trkpt lat="42.8146100" lon="-8.5591690">
        <ele>177.1</ele>
        <time>2022-04-14T11:13:12Z</time>
      </trkpt>
      <trkpt lat="42.8145820" lon="-8.5591710">
        <ele>177.1</ele>
        <time>2022-04-14T11:13:13Z</time>
      </trkpt>
      <trkpt lat="42.8144940" lon="-8.5591710">
        <ele>177.1</ele>
        <time>2022-04-14T11:13:14Z</time>
      </trkpt>
      <trkpt lat="42.8144630" lon="-8.5591670">
        <ele>177.1</ele>
        <time>2022-04-14T11:13:15Z</time>
      </trkpt>
      <trkpt lat="42.8143670" lon="-8.5591530">
        <ele>177.2</ele>
        <time>2022-04-14T11:13:16Z</time>
      </trkpt>
      <trkpt lat="42.8143330" lon="-8.5591470">
        <ele>177.2</ele>
        <time>2022-04-14T11:13:17Z</time>
      </trkpt>
      <trkpt lat="42.8142340" lon="-8.5591490">
        <ele>177.4</ele>
        <time>2022-04-14T11:13:18Z</time>
      </trkpt>
      <trkpt lat="42.8142010" lon="-8.5591630">
        <ele>177.5</ele>
        <time>2022-04-14T11:13:19Z</time>
      </trkpt>
      <trkpt lat="42.8141200" lon="-8.5592310">
        <ele>177.9</ele>
        <time>2022-04-14T11:13:20Z</time>
      </trkpt>
      <trkpt lat="42.8141050" lon="-8.5592710">
        <ele>178.0</ele>
        <time>2022-04-14T11:13:21Z</time>
      </trkpt>
      <trkpt lat="42.8140670" lon="-8.5593970">
        <ele>178.3</ele>
        <time>2022-04-14T11:13:22Z</time>
      </trkpt>
      <trkpt lat="42.8140610" lon="-8.5594430">
        <ele>178.4</ele>
        <time>2022-04-14T11:13:23Z</time>
      </trkpt>
      <trkpt lat="42.8140360" lon="-8.5596180">
        <ele>179.0</ele>
        <time>2022-04-14T11:13:24Z</time>
      </trkpt>
      <trkpt lat="42.8140230" lon="-8.5597010">
        <ele>179.2</ele>
        <time>2022-04-14T11:13:25Z</time>
      </trkpt>
      <trkpt lat="42.8139970" lon="-8.5598670">
        <ele>179.8</ele>
        <time>2022-04-14T11:13:26Z</time>
      </trkpt>
      <trkpt lat="42.8139970" lon="-8.5598670">
        <ele>179.8</ele>
        <time>2022-04-14T11:13:27Z</time>
      </trkpt>
      <trkpt lat="42.8139920" lon="-8.5599040">
        <ele>180.0</ele>
        <time>2022-04-14T11:13:28Z</time>
      </trkpt>
      <trkpt lat="42.8139870" lon="-8.5599420">
        <ele>180.1</ele>
        <time>2022-04-14T11:13:29Z</time>
      </trkpt>
      <trkpt lat="42.8139710" lon="-8.5600540">
        <ele>180.3</ele>
        <time>2022-04-14T11:13:30Z</time>
      </trkpt>
      <trkpt lat="42.8139660" lon="-8.5600910">
        <ele>180.3</ele>
        <time>2022-04-14T11:13:31Z</time>
      </trkpt>
      <trkpt lat="42.8139490" lon="-8.5602020">
        <ele>180.5</ele>
        <time>2022-04-14T11:13:32Z</time>
      </trkpt>
      <trkpt lat="42.8139420" lon="-8.5602400">
        <ele>180.5</ele>
        <time>2022-04-14T11:13:33Z</time>
      </trkpt>
      <trkpt lat="42.8139230" lon="-8.5603510">
        <ele>180.5</ele>
        <time>2022-04-14T11:13:34Z</time>
      </trkpt>
      <trkpt lat="42.8139180" lon="-8.5603880">
        <ele>180.5</ele>
        <time>2022-04-14T11:13:35Z</time>
      </trkpt>
      <trkpt lat="42.8138990" lon="-8.5605000">
        <ele>180.4</ele>
        <time>2022-04-14T11:13:36Z</time>
      </trkpt>
      <trkpt lat="42.8138920" lon="-8.5605390">
        <ele>180.3</ele>
        <time>2022-04-14T11:13:37Z</time>
      </trkpt>
      <trkpt lat="42.8138690" lon="-8.5606600">
        <ele>180.1</ele>
        <time>2022-04-14T11:13:38Z</time>
      </trkpt>
      <trkpt lat="42.8138610" lon="-8.5607030">
        <ele>180.0</ele>
        <time>2022-04-14T11:13:39Z</time>
      </trkpt>
      <trkpt lat="42.8138400" lon="-8.5608340">
        <ele>179.6</ele>
        <time>2022-04-14T11:13:40Z</time>
      </trkpt>
      <trkpt lat="42.8138340" lon="-8.5608800">
        <ele>179.4</ele>
        <time>2022-04-14T11:13:41Z</time>
      </trkpt>
      <trkpt lat="42.8138140" lon="-8.5610190">
        <ele>178.9</ele>
        <time>2022-04-14T11:13:42Z</time>
      </trkpt>
      <trkpt lat="42.8138070" lon="-8.5610660">
        <ele>178.7</ele>
        <time>2022-04-14T11:13:43Z</time>
      </trkpt>
      <trkpt lat="42.8137860" lon="-8.5612080">
        <ele>178.3</ele>
        <time>2022-04-14T11:13:44Z</time>
      </trkpt>
      <trkpt lat="42.8137780" lon="-8.5612580">
        <ele>178.2</ele>
        <time>2022-04-14T11:13:45Z</time>
      </trkpt>
      <trkpt lat="42.8137550" lon="-8.5614100">
        <ele>177.7</ele>
        <time>2022-04-14T11:13:46Z</time>
      </trkpt>
      <trkpt lat="42.8137470" lon="-8.5614630">
        <ele>177.5</ele>
        <time>2022-04-14T11:13:47Z</time>
      </trkpt>
      <trkpt lat="42.8137210" lon="-8.5616260">
        <ele>176.9</ele>
        <time>2022-04-14T11:13:48Z</time>
      </trkpt>
      <trkpt lat="42.8137120" lon="-8.5616820">
        <ele>176.7</ele>
        <time>2022-04-14T11:13:49Z</time>
      </trkpt>
      <trkpt lat="42.8136800" lon="-8.5618860">
        <ele>175.9</ele>
        <time>2022-04-14T11:13:50Z</time>
      </trkpt>
      <trkpt lat="42.8136660" lon="-8.5619780">
        <ele>175.5</ele>
        <time>2022-04-14T11:13:51Z</time>
      </trkpt>
      <trkpt lat="42.8136380" lon="-8.5621620">
        <ele>174.6</ele>
        <time>2022-04-14T11:13:52Z</time>
      </trkpt>
      <trkpt lat="42.8136140" lon="-8.5622970">
        <ele>174.0</ele>
        <time>2022-04-14T11:13:53Z</time>
      </trkpt>
      <trkpt lat="42.8135890" lon="-8.5624400">
        <ele>173.6</ele>
        <time>2022-04-14T11:13:54Z</time>
      </trkpt>
      <trkpt lat="42.8135690" lon="-8.5625850">
        <ele>173.3</ele>
        <time>2022-04-14T11:13:55Z</time>
      </trkpt>
      <trkpt lat="42.8135410" lon="-8.5627280">
        <ele>173.2</ele>
        <time>2022-04-14T11:13:56Z</time>
      </trkpt>
      <trkpt lat="42.8135130" lon="-8.5628580">
        <ele>173.2</ele>
        <time>2022-04-14T11:13:57Z</time>
      </trkpt>
      <trkpt lat="42.8134860" lon="-8.5629830">
        <ele>173.2</ele>
        <time>2022-04-14T11:13:58Z</time>
      </trkpt>
      <trkpt lat="42.8134430" lon="-8.5632400">
        <ele>173.6</ele>
        <time>2022-04-14T11:13:59Z</time>
      </trkpt>
      <trkpt lat="42.8134430" lon="-8.5632400">
        <ele>173.6</ele>
        <time>2022-04-14T11:14:00Z</time>
      </trkpt>
      <trkpt lat="42.8134280" lon="-8.5633630">
        <ele>173.9</ele>
        <time>2022-04-14T11:14:01Z</time>
      </trkpt>
      <trkpt lat="42.8134130" lon="-8.5634720">
        <ele>174.2</ele>
        <time>2022-04-14T11:14:02Z</time>
      </trkpt>
      <trkpt lat="42.8133980" lon="-8.5635810">
        <ele>174.6</ele>
        <time>2022-04-14T11:14:03Z</time>
      </trkpt>
      <trkpt lat="42.8133680" lon="-8.5637990">
        <ele>175.4</ele>
        <time>2022-04-14T11:14:04Z</time>
      </trkpt>
      <trkpt lat="42.8133680" lon="-8.5637990">
        <ele>175.4</ele>
        <time>2022-04-14T11:14:05Z</time>
      </trkpt>
      <trkpt lat="42.8133610" lon="-8.5638480">
        <ele>175.6</ele>
        <time>2022-04-14T11:14:06Z</time>
      </trkpt>
      <trkpt lat="42.8133530" lon="-8.5638980">
        <ele>175.8</ele>
        <time>2022-04-14T11:14:07Z</time>
      </trkpt>
      <trkpt lat="42.8133340" lon="-8.5640430">
        <ele>176.3</ele>
        <time>2022-04-14T11:14:08Z</time>
      </trkpt>
      <trkpt lat="42.8133280" lon="-8.5640900">
        <ele>176.5</ele>
        <time>2022-04-14T11:14:09Z</time>
      </trkpt>
      <trkpt lat="42.8133120" lon="-8.5642280">
        <ele>177.0</ele>
        <time>2022-04-14T11:14:10Z</time>
      </trkpt>
      <trkpt lat="42.8133070" lon="-8.5642720">
        <ele>177.2</ele>
        <time>2022-04-14T11:14:11Z</time>
      </trkpt>
      <trkpt lat="42.8132910" lon="-8.5644080">
        <ele>177.7</ele>
        <time>2022-04-14T11:14:12Z</time>
      </trkpt>
      <trkpt lat="42.8132850" lon="-8.5644550">
        <ele>177.9</ele>
        <time>2022-04-14T11:14:13Z</time>
      </trkpt>
      <trkpt lat="42.8132700" lon="-8.5645950">
        <ele>178.4</ele>
        <time>2022-04-14T11:14:14Z</time>
      </trkpt>
      <trkpt lat="42.8132660" lon="-8.5646410">
        <ele>178.6</ele>
        <time>2022-04-14T11:14:15Z</time>
      </trkpt>
      <trkpt lat="42.8132520" lon="-8.5647770">
        <ele>179.1</ele>
        <time>2022-04-14T11:14:16Z</time>
      </trkpt>
      <trkpt lat="42.8132470" lon="-8.5648210">
        <ele>179.2</ele>
        <time>2022-04-14T11:14:17Z</time>
      </trkpt>
      <trkpt lat="42.8132310" lon="-8.5649560">
        <ele>179.7</ele>
        <time>2022-04-14T11:14:18Z</time>
      </trkpt>
      <trkpt lat="42.8132250" lon="-8.5650030">
        <ele>179.9</ele>
        <time>2022-04-14T11:14:19Z</time>
      </trkpt>
      <trkpt lat="42.8132080" lon="-8.5651410">
        <ele>180.1</ele>
        <time>2022-04-14T11:14:20Z</time>
      </trkpt>
      <trkpt lat="42.8132040" lon="-8.5651850">
        <ele>180.1</ele>
        <time>2022-04-14T11:14:21Z</time>
      </trkpt>
      <trkpt lat="42.8131850" lon="-8.5653150">
        <ele>180.2</ele>
        <time>2022-04-14T11:14:22Z</time>
      </trkpt>
      <trkpt lat="42.8131750" lon="-8.5653560">
        <ele>180.2</ele>
        <time>2022-04-14T11:14:23Z</time>
      </trkpt>
      <trkpt lat="42.8131460" lon="-8.5654810">
        <ele>180.2</ele>
        <time>2022-04-14T11:14:24Z</time>
      </trkpt>
      <trkpt lat="42.8131370" lon="-8.5655240">
        <ele>180.1</ele>
        <time>2022-04-14T11:14:25Z</time>
      </trkpt>
      <trkpt lat="42.8131070" lon="-8.5656500">
        <ele>180.0</ele>
        <time>2022-04-14T11:14:26Z</time>
      </trkpt>
      <trkpt lat="42.8130930" lon="-8.5656920">
        <ele>179.9</ele>
        <time>2022-04-14T11:14:27Z</time>
      </trkpt>
      <trkpt lat="42.8130510" lon="-8.5658190">
        <ele>179.6</ele>
        <time>2022-04-14T11:14:28Z</time>
      </trkpt>
      <trkpt lat="42.8130340" lon="-8.5658640">
        <ele>179.5</ele>
        <time>2022-04-14T11:14:29Z</time>
      </trkpt>
      <trkpt lat="42.8129810" lon="-8.5659970">
        <ele>179.1</ele>
        <time>2022-04-14T11:14:30Z</time>
      </trkpt>
      <trkpt lat="42.8129600" lon="-8.5660410">
        <ele>178.9</ele>
        <time>2022-04-14T11:14:31Z</time>
      </trkpt>
      <trkpt lat="42.8128780" lon="-8.5661980">
        <ele>178.3</ele>
        <time>2022-04-14T11:14:32Z</time>
      </trkpt>
      <trkpt lat="42.8128380" lon="-8.5662660">
        <ele>178.0</ele>
        <time>2022-04-14T11:14:33Z</time>
      </trkpt>
      <trkpt lat="42.8127570" lon="-8.5664010">
        <ele>177.3</ele>
        <time>2022-04-14T11:14:34Z</time>
      </trkpt>
      <trkpt lat="42.8127100" lon="-8.5664720">
        <ele>177.0</ele>
        <time>2022-04-14T11:14:35Z</time>
      </trkpt>
      <trkpt lat="42.8126630" lon="-8.5665420">
        <ele>176.6</ele>
        <time>2022-04-14T11:14:36Z</time>
      </trkpt>
      <trkpt lat="42.8125700" lon="-8.5666830">
        <ele>175.9</ele>
        <time>2022-04-14T11:14:37Z</time>
      </trkpt>
      <trkpt lat="42.8125070" lon="-8.5667800">
        <ele>175.5</ele>
        <time>2022-04-14T11:14:38Z</time>
      </trkpt>
      <trkpt lat="42.8124370" lon="-8.5668850">
        <ele>175.0</ele>
        <time>2022-04-14T11:14:39Z</time>
      </trkpt>
      <trkpt lat="42.8123690" lon="-8.5669750">
        <ele>174.7</ele>
        <time>2022-04-14T11:14:40Z</time>
      </trkpt>
      <trkpt lat="42.8122980" lon="-8.5670720">
        <ele>174.4</ele>
        <time>2022-04-14T11:14:41Z</time>
      </trkpt>
      <trkpt lat="42.8121640" lon="-8.5672700">
        <ele>174.2</ele>
        <time>2022-04-14T11:14:42Z</time>
      </trkpt>
      <trkpt lat="42.8121640" lon="-8.5672700">
        <ele>174.2</ele>
        <time>2022-04-14T11:14:43Z</time>
      </trkpt>
      <trkpt lat="42.8120970" lon="-8.5673690">
        <ele>174.4</ele>
        <time>2022-04-14T11:14:44Z</time>
      </trkpt>
      <trkpt lat="42.8120360" lon="-8.5674690">
        <ele>174.8</ele>
        <time>2022-04-14T11:14:45Z</time>
      </trkpt>
      <trkpt lat="42.8119720" lon="-8.5675570">
        <ele>175.3</ele>
        <time>2022-04-14T11:14:46Z</time>
      </trkpt>
      <trkpt lat="42.8119430" lon="-8.5675990">
        <ele>175.5</ele>
        <time>2022-04-14T11:14:47Z</time>
      </trkpt>
      <trkpt lat="42.8119130" lon="-8.5676400">
        <ele>175.8</ele>
        <time>2022-04-14T11:14:48Z</time>
      </trkpt>
      <trkpt lat="42.8118270" lon="-8.5677600">
        <ele>176.7</ele>
        <time>2022-04-14T11:14:49Z</time>
      </trkpt>
      <trkpt lat="42.8118000" lon="-8.5677960">
        <ele>177.0</ele>
        <time>2022-04-14T11:14:50Z</time>
      </trkpt>
      <trkpt lat="42.8117210" lon="-8.5678980">
        <ele>177.9</ele>
        <time>2022-04-14T11:14:51Z</time>
      </trkpt>
      <trkpt lat="42.8116980" lon="-8.5679260">
        <ele>178.1</ele>
        <time>2022-04-14T11:14:52Z</time>
      </trkpt>
      <trkpt lat="42.8116320" lon="-8.5680170">
        <ele>178.9</ele>
        <time>2022-04-14T11:14:53Z</time>
      </trkpt>
      <trkpt lat="42.8116140" lon="-8.5680510">
        <ele>179.2</ele>
        <time>2022-04-14T11:14:54Z</time>
      </trkpt>
      <trkpt lat="42.8115530" lon="-8.5681610">
        <ele>180.0</ele>
        <time>2022-04-14T11:14:55Z</time>
      </trkpt>
      <trkpt lat="42.8115290" lon="-8.5682030">
        <ele>180.3</ele>
        <time>2022-04-14T11:14:56Z</time>
      </trkpt>
      <trkpt lat="42.8114380" lon="-8.5683440">
        <ele>181.4</ele>
        <time>2022-04-14T11:14:57Z</time>
      </trkpt>
      <trkpt lat="42.8113940" lon="-8.5684010">
        <ele>181.9</ele>
        <time>2022-04-14T11:14:58Z</time>
      </trkpt>
      <trkpt lat="42.8112890" lon="-8.5685430">
        <ele>182.9</ele>
        <time>2022-04-14T11:14:59Z</time>
      </trkpt>
      <trkpt lat="42.8112700" lon="-8.5685700">
        <ele>183.0</ele>
        <time>2022-04-14T11:15:00Z</time>
      </trkpt>
      <trkpt lat="42.8112310" lon="-8.5686250">
        <ele>183.4</ele>
        <time>2022-04-14T11:15:01Z</time>
      </trkpt>
      <trkpt lat="42.8112310" lon="-8.5686250">
        <ele>183.4</ele>
        <time>2022-04-14T11:15:02Z</time>
      </trkpt>
      <trkpt lat="42.8112140" lon="-8.5686550">
        <ele>183.5</ele>
        <time>2022-04-14T11:15:03Z</time>
      </trkpt>
      <trkpt lat="42.8111960" lon="-8.5686850">
        <ele>183.7</ele>
        <time>2022-04-14T11:15:04Z</time>
      </trkpt>
      <trkpt lat="42.8111470" lon="-8.5687780">
        <ele>184.1</ele>
        <time>2022-04-14T11:15:05Z</time>
      </trkpt>
      <trkpt lat="42.8111330" lon="-8.5688100">
        <ele>184.3</ele>
        <time>2022-04-14T11:15:06Z</time>
      </trkpt>
      <trkpt lat="42.8110870" lon="-8.5689100">
        <ele>184.7</ele>
        <time>2022-04-14T11:15:07Z</time>
      </trkpt>
      <trkpt lat="42.8110680" lon="-8.5689450">
        <ele>184.8</ele>
        <time>2022-04-14T11:15:08Z</time>
      </trkpt>
      <trkpt lat="42.8110130" lon="-8.5690480">
        <ele>185.1</ele>
        <time>2022-04-14T11:15:09Z</time>
      </trkpt>
      <trkpt lat="42.8109950" lon="-8.5690830">
        <ele>185.2</ele>
        <time>2022-04-14T11:15:10Z</time>
      </trkpt>
      <trkpt lat="42.8109380" lon="-8.5691790">
        <ele>185.5</ele>
        <time>2022-04-14T11:15:11Z</time>
      </trkpt>
      <trkpt lat="42.8109170" lon="-8.5692070">
        <ele>185.6</ele>
        <time>2022-04-14T11:15:12Z</time>
      </trkpt>
      <trkpt lat="42.8108540" lon="-8.5692970">
        <ele>185.8</ele>
        <time>2022-04-14T11:15:13Z</time>
      </trkpt>
      <trkpt lat="42.8108330" lon="-8.5693310">
        <ele>185.9</ele>
        <time>2022-04-14T11:15:14Z</time>
      </trkpt>
      <trkpt lat="42.8107750" lon="-8.5694290">
        <ele>186.2</ele>
        <time>2022-04-14T11:15:15Z</time>
      </trkpt>
      <trkpt lat="42.8107580" lon="-8.5694590">
        <ele>186.2</ele>
        <time>2022-04-14T11:15:16Z</time>
      </trkpt>
      <trkpt lat="42.8107030" lon="-8.5695500">
        <ele>186.4</ele>
        <time>2022-04-14T11:15:17Z</time>
      </trkpt>
      <trkpt lat="42.8106820" lon="-8.5695810">
        <ele>186.4</ele>
        <time>2022-04-14T11:15:18Z</time>
      </trkpt>
      <trkpt lat="42.8106210" lon="-8.5696710">
        <ele>186.5</ele>
        <time>2022-04-14T11:15:19Z</time>
      </trkpt>
      <trkpt lat="42.8106000" lon="-8.5697000">
        <ele>186.6</ele>
        <time>2022-04-14T11:15:20Z</time>
      </trkpt>
      <trkpt lat="42.8105380" lon="-8.5697910">
        <ele>186.6</ele>
        <time>2022-04-14T11:15:21Z</time>
      </trkpt>
      <trkpt lat="42.8105170" lon="-8.5698240">
        <ele>186.7</ele>
        <time>2022-04-14T11:15:22Z</time>
      </trkpt>
      <trkpt lat="42.8104520" lon="-8.5699250">
        <ele>186.8</ele>
        <time>2022-04-14T11:15:23Z</time>
      </trkpt>
      <trkpt lat="42.8104290" lon="-8.5699600">
        <ele>186.8</ele>
        <time>2022-04-14T11:15:24Z</time>
      </trkpt>
      <trkpt lat="42.8103610" lon="-8.5700630">
        <ele>186.8</ele>
        <time>2022-04-14T11:15:25Z</time>
      </trkpt>
      <trkpt lat="42.8103390" lon="-8.5700970">
        <ele>186.9</ele>
        <time>2022-04-14T11:15:26Z</time>
      </trkpt>
      <trkpt lat="42.8102700" lon="-8.5701990">
        <ele>186.9</ele>
        <time>2022-04-14T11:15:27Z</time>
      </trkpt>
      <trkpt lat="42.8102460" lon="-8.5702320">
        <ele>186.9</ele>
        <time>2022-04-14T11:15:28Z</time>
      </trkpt>
      <trkpt lat="42.8101780" lon="-8.5703330">
        <ele>187.0</ele>
        <time>2022-04-14T11:15:29Z</time>
      </trkpt>
      <trkpt lat="42.8101560" lon="-8.5703680">
        <ele>187.0</ele>
        <time>2022-04-14T11:15:30Z</time>
      </trkpt>
      <trkpt lat="42.8100880" lon="-8.5704650">
        <ele>187.1</ele>
        <time>2022-04-14T11:15:31Z</time>
      </trkpt>
      <trkpt lat="42.8100630" lon="-8.5704900">
        <ele>187.2</ele>
        <time>2022-04-14T11:15:32Z</time>
      </trkpt>
      <trkpt lat="42.8099930" lon="-8.5705730">
        <ele>187.4</ele>
        <time>2022-04-14T11:15:33Z</time>
      </trkpt>
      <trkpt lat="42.8099730" lon="-8.5706040">
        <ele>187.5</ele>
        <time>2022-04-14T11:15:34Z</time>
      </trkpt>
      <trkpt lat="42.8099110" lon="-8.5706980">
        <ele>187.7</ele>
        <time>2022-04-14T11:15:35Z</time>
      </trkpt>
      <trkpt lat="42.8098880" lon="-8.5707290">
        <ele>187.8</ele>
        <time>2022-04-14T11:15:36Z</time>
      </trkpt>
      <trkpt lat="42.8098100" lon="-8.5708550">
        <ele>188.1</ele>
        <time>2022-04-14T11:15:37Z</time>
      </trkpt>
      <trkpt lat="42.8097780" lon="-8.5709200">
        <ele>188.2</ele>
        <time>2022-04-14T11:15:38Z</time>
      </trkpt>
      <trkpt lat="42.8097120" lon="-8.5710480">
        <ele>188.3</ele>
        <time>2022-04-14T11:15:39Z</time>
      </trkpt>
      <trkpt lat="42.8097120" lon="-8.5710480">
        <ele>188.3</ele>
        <time>2022-04-14T11:15:40Z</time>
      </trkpt>
      <trkpt lat="42.8097000" lon="-8.5710860">
        <ele>188.4</ele>
        <time>2022-04-14T11:15:41Z</time>
      </trkpt>
      <trkpt lat="42.8096870" lon="-8.5711240">
        <ele>188.4</ele>
        <time>2022-04-14T11:15:42Z</time>
      </trkpt>
      <trkpt lat="42.8096490" lon="-8.5712390">
        <ele>188.4</ele>
        <time>2022-04-14T11:15:43Z</time>
      </trkpt>
      <trkpt lat="42.8096360" lon="-8.5712790">
        <ele>188.4</ele>
        <time>2022-04-14T11:15:44Z</time>
      </trkpt>
      <trkpt lat="42.8095970" lon="-8.5714000">
        <ele>188.4</ele>
        <time>2022-04-14T11:15:45Z</time>
      </trkpt>
      <trkpt lat="42.8095840" lon="-8.5714400">
        <ele>188.4</ele>
        <time>2022-04-14T11:15:46Z</time>
      </trkpt>
      <trkpt lat="42.8095470" lon="-8.5715640">
        <ele>188.3</ele>
        <time>2022-04-14T11:15:47Z</time>
      </trkpt>
      <trkpt lat="42.8095350" lon="-8.5716060">
        <ele>188.3</ele>
        <time>2022-04-14T11:15:48Z</time>
      </trkpt>
      <trkpt lat="42.8094940" lon="-8.5717550">
        <ele>188.2</ele>
        <time>2022-04-14T11:15:49Z</time>
      </trkpt>
      <trkpt lat="42.8094780" lon="-8.5718180">
        <ele>188.1</ele>
        <time>2022-04-14T11:15:50Z</time>
      </trkpt>
      <trkpt lat="42.8094620" lon="-8.5718820">
        <ele>188.1</ele>
        <time>2022-04-14T11:15:51Z</time>
      </trkpt>
      <trkpt lat="42.8094130" lon="-8.5720720">
        <ele>188.0</ele>
        <time>2022-04-14T11:15:52Z</time>
      </trkpt>
      <trkpt lat="42.8094030" lon="-8.5721290">
        <ele>188.0</ele>
        <time>2022-04-14T11:15:53Z</time>
      </trkpt>
      <trkpt lat="42.8093930" lon="-8.5721850">
        <ele>188.0</ele>
        <time>2022-04-14T11:15:54Z</time>
      </trkpt>
      <trkpt lat="42.8093620" lon="-8.5723400">
        <ele>188.0</ele>
        <time>2022-04-14T11:15:55Z</time>
      </trkpt>
      <trkpt lat="42.8093520" lon="-8.5723820">
        <ele>188.0</ele>
        <time>2022-04-14T11:15:56Z</time>
      </trkpt>
      <trkpt lat="42.8093180" lon="-8.5725050">
        <ele>187.9</ele>
        <time>2022-04-14T11:15:57Z</time>
      </trkpt>
      <trkpt lat="42.8093060" lon="-8.5725440">
        <ele>187.8</ele>
        <time>2022-04-14T11:15:58Z</time>
      </trkpt>
      <trkpt lat="42.8092740" lon="-8.5726690">
        <ele>187.7</ele>
        <time>2022-04-14T11:15:59Z</time>
      </trkpt>
      <trkpt lat="42.8092680" lon="-8.5727150">
        <ele>187.7</ele>
        <time>2022-04-14T11:16:00Z</time>
      </trkpt>
      <trkpt lat="42.8092290" lon="-8.5729020">
        <ele>187.6</ele>
        <time>2022-04-14T11:16:01Z</time>
      </trkpt>
      <trkpt lat="42.8092010" lon="-8.5729970">
        <ele>187.6</ele>
        <time>2022-04-14T11:16:02Z</time>
      </trkpt>
      <trkpt lat="42.8091740" lon="-8.5730920">
        <ele>187.6</ele>
        <time>2022-04-14T11:16:03Z</time>
      </trkpt>
      <trkpt lat="42.8091470" lon="-8.5731870">
        <ele>187.6</ele>
        <time>2022-04-14T11:16:04Z</time>
      </trkpt>
      <trkpt lat="42.8091190" lon="-8.5732820">
        <ele>187.6</ele>
        <time>2022-04-14T11:16:05Z</time>
      </trkpt>
      <trkpt lat="42.8090790" lon="-8.5734200">
        <ele>187.5</ele>
        <time>2022-04-14T11:16:06Z</time>
      </trkpt>
      <trkpt lat="42.8090620" lon="-8.5734570">
        <ele>187.5</ele>
        <time>2022-04-14T11:16:07Z</time>
      </trkpt>
      <trkpt lat="42.8090270" lon="-8.5735320">
        <ele>187.5</ele>
        <time>2022-04-14T11:16:08Z</time>
      </trkpt>
      <trkpt lat="42.8090020" lon="-8.5736210">
        <ele>187.5</ele>
        <time>2022-04-14T11:16:09Z</time>
      </trkpt>
      <trkpt lat="42.8089770" lon="-8.5737090">
        <ele>187.4</ele>
        <time>2022-04-14T11:16:10Z</time>
      </trkpt>
      <trkpt lat="42.8089530" lon="-8.5737980">
        <ele>187.4</ele>
        <time>2022-04-14T11:16:11Z</time>
      </trkpt>
      <trkpt lat="42.8089280" lon="-8.5738870">
        <ele>187.3</ele>
        <time>2022-04-14T11:16:12Z</time>
      </trkpt>
      <trkpt lat="42.8088970" lon="-8.5740350">
        <ele>187.2</ele>
        <time>2022-04-14T11:16:13Z</time>
      </trkpt>
      <trkpt lat="42.8088900" lon="-8.5740900">
        <ele>187.2</ele>
        <time>2022-04-14T11:16:14Z</time>
      </trkpt>
      <trkpt lat="42.8088760" lon="-8.5742000">
        <ele>187.1</ele>
        <time>2022-04-14T11:16:15Z</time>
      </trkpt>
      <trkpt lat="42.8088510" lon="-8.5743350">
        <ele>187.1</ele>
        <time>2022-04-14T11:16:16Z</time>
      </trkpt>
      <trkpt lat="42.8088250" lon="-8.5744700">
        <ele>187.0</ele>
        <time>2022-04-14T11:16:17Z</time>
      </trkpt>
      <trkpt lat="42.8087990" lon="-8.5746050">
        <ele>186.9</ele>
        <time>2022-04-14T11:16:18Z</time>
      </trkpt>
      <trkpt lat="42.8087730" lon="-8.5747060">
        <ele>186.9</ele>
        <time>2022-04-14T11:16:19Z</time>
      </trkpt>
      <trkpt lat="42.8087730" lon="-8.5747060">
        <ele>186.9</ele>
        <time>2022-04-14T11:16:20Z</time>
      </trkpt>
      <trkpt lat="42.8087600" lon="-8.5747550">
        <ele>186.9</ele>
        <time>2022-04-14T11:16:21Z</time>
      </trkpt>
      <trkpt lat="42.8087480" lon="-8.5748030">
        <ele>186.8</ele>
        <time>2022-04-14T11:16:22Z</time>
      </trkpt>
      <trkpt lat="42.8087130" lon="-8.5749420">
        <ele>186.7</ele>
        <time>2022-04-14T11:16:23Z</time>
      </trkpt>
      <trkpt lat="42.8087050" lon="-8.5749830">
        <ele>186.7</ele>
        <time>2022-04-14T11:16:24Z</time>
      </trkpt>
      <trkpt lat="42.8086760" lon="-8.5751110">
        <ele>186.5</ele>
        <time>2022-04-14T11:16:25Z</time>
      </trkpt>
      <trkpt lat="42.8086660" lon="-8.5751570">
        <ele>186.5</ele>
        <time>2022-04-14T11:16:26Z</time>
      </trkpt>
      <trkpt lat="42.8086340" lon="-8.5752940">
        <ele>186.4</ele>
        <time>2022-04-14T11:16:27Z</time>
      </trkpt>
      <trkpt lat="42.8086230" lon="-8.5753370">
        <ele>186.3</ele>
        <time>2022-04-14T11:16:28Z</time>
      </trkpt>
      <trkpt lat="42.8085850" lon="-8.5754680">
        <ele>186.2</ele>
        <time>2022-04-14T11:16:29Z</time>
      </trkpt>
      <trkpt lat="42.8085680" lon="-8.5755100">
        <ele>186.2</ele>
        <time>2022-04-14T11:16:30Z</time>
      </trkpt>
      <trkpt lat="42.8085230" lon="-8.5756420">
        <ele>186.2</ele>
        <time>2022-04-14T11:16:31Z</time>
      </trkpt>
      <trkpt lat="42.8085110" lon="-8.5756880">
        <ele>186.2</ele>
        <time>2022-04-14T11:16:32Z</time>
      </trkpt>
      <trkpt lat="42.8084790" lon="-8.5758250">
        <ele>186.2</ele>
        <time>2022-04-14T11:16:33Z</time>
      </trkpt>
      <trkpt lat="42.8084700" lon="-8.5758680">
        <ele>186.2</ele>
        <time>2022-04-14T11:16:34Z</time>
      </trkpt>
      <trkpt lat="42.8084420" lon="-8.5759990">
        <ele>186.3</ele>
        <time>2022-04-14T11:16:35Z</time>
      </trkpt>
      <trkpt lat="42.8084310" lon="-8.5760430">
        <ele>186.3</ele>
        <time>2022-04-14T11:16:36Z</time>
      </trkpt>
      <trkpt lat="42.8083960" lon="-8.5761690">
        <ele>186.4</ele>
        <time>2022-04-14T11:16:37Z</time>
      </trkpt>
      <trkpt lat="42.8083820" lon="-8.5762080">
        <ele>186.4</ele>
        <time>2022-04-14T11:16:38Z</time>
      </trkpt>
      <trkpt lat="42.8083270" lon="-8.5762990">
        <ele>186.6</ele>
        <time>2022-04-14T11:16:39Z</time>
      </trkpt>
      <trkpt lat="42.8083010" lon="-8.5763110">
        <ele>186.5</ele>
        <time>2022-04-14T11:16:40Z</time>
      </trkpt>
      <trkpt lat="42.8082180" lon="-8.5763210">
        <ele>186.0</ele>
        <time>2022-04-14T11:16:41Z</time>
      </trkpt>
      <trkpt lat="42.8081870" lon="-8.5763070">
        <ele>185.8</ele>
        <time>2022-04-14T11:16:42Z</time>
      </trkpt>
      <trkpt lat="42.8080910" lon="-8.5762640">
        <ele>185.3</ele>
        <time>2022-04-14T11:16:43Z</time>
      </trkpt>
      <trkpt lat="42.8080570" lon="-8.5762480">
        <ele>185.2</ele>
        <time>2022-04-14T11:16:44Z</time>
      </trkpt>
      <trkpt lat="42.8079510" lon="-8.5762000">
        <ele>184.8</ele>
        <time>2022-04-14T11:16:45Z</time>
      </trkpt>
      <trkpt lat="42.8079140" lon="-8.5761830">
        <ele>184.6</ele>
        <time>2022-04-14T11:16:46Z</time>
      </trkpt>
      <trkpt lat="42.8078000" lon="-8.5761310">
        <ele>184.2</ele>
        <time>2022-04-14T11:16:47Z</time>
      </trkpt>
      <trkpt lat="42.8077620" lon="-8.5761140">
        <ele>184.1</ele>
        <time>2022-04-14T11:16:48Z</time>
      </trkpt>
      <trkpt lat="42.8076480" lon="-8.5760570">
        <ele>183.7</ele>
        <time>2022-04-14T11:16:49Z</time>
      </trkpt>
      <trkpt lat="42.8076110" lon="-8.5760360">
        <ele>183.6</ele>
        <time>2022-04-14T11:16:50Z</time>
      </trkpt>
      <trkpt lat="42.8074960" lon="-8.5759750">
        <ele>183.2</ele>
        <time>2022-04-14T11:16:51Z</time>
      </trkpt>
      <trkpt lat="42.8074570" lon="-8.5759570">
        <ele>183.1</ele>
        <time>2022-04-14T11:16:52Z</time>
      </trkpt>
      <trkpt lat="42.8073030" lon="-8.5758840">
        <ele>182.7</ele>
        <time>2022-04-14T11:16:53Z</time>
      </trkpt>
      <trkpt lat="42.8072290" lon="-8.5758470">
        <ele>182.5</ele>
        <time>2022-04-14T11:16:54Z</time>
      </trkpt>
      <trkpt lat="42.8070800" lon="-8.5757730">
        <ele>182.2</ele>
        <time>2022-04-14T11:16:55Z</time>
      </trkpt>
      <trkpt lat="42.8070800" lon="-8.5757730">
        <ele>182.2</ele>
        <time>2022-04-14T11:16:56Z</time>
      </trkpt>
      <trkpt lat="42.8070420" lon="-8.5757540">
        <ele>182.1</ele>
        <time>2022-04-14T11:16:57Z</time>
      </trkpt>
      <trkpt lat="42.8070040" lon="-8.5757350">
        <ele>182.0</ele>
        <time>2022-04-14T11:16:58Z</time>
      </trkpt>
      <trkpt lat="42.8068890" lon="-8.5756790">
        <ele>181.9</ele>
        <time>2022-04-14T11:16:59Z</time>
      </trkpt>
      <trkpt lat="42.8068500" lon="-8.5756600">
        <ele>181.8</ele>
        <time>2022-04-14T11:17:00Z</time>
      </trkpt>
      <trkpt lat="42.8067340" lon="-8.5756040">
        <ele>181.7</ele>
        <time>2022-04-14T11:17:01Z</time>
      </trkpt>
      <trkpt lat="42.8066960" lon="-8.5755860">
        <ele>181.7</ele>
        <time>2022-04-14T11:17:02Z</time>
      </trkpt>
      <trkpt lat="42.8065800" lon="-8.5755370">
        <ele>181.5</ele>
        <time>2022-04-14T11:17:03Z</time>
      </trkpt>
      <trkpt lat="42.8065410" lon="-8.5755240">
        <ele>181.5</ele>
        <time>2022-04-14T11:17:04Z</time>
      </trkpt>
      <trkpt lat="42.8064290" lon="-8.5754880">
        <ele>181.3</ele>
        <time>2022-04-14T11:17:05Z</time>
      </trkpt>
      <trkpt lat="42.8063960" lon="-8.5754790">
        <ele>181.3</ele>
        <time>2022-04-14T11:17:06Z</time>
      </trkpt>
      <trkpt lat="42.8062700" lon="-8.5754760">
        <ele>181.0</ele>
        <time>2022-04-14T11:17:07Z</time>
      </trkpt>
      <trkpt lat="42.8062130" lon="-8.5754910">
        <ele>180.9</ele>
        <time>2022-04-14T11:17:08Z</time>
      </trkpt>
      <trkpt lat="42.8061550" lon="-8.5755070">
        <ele>180.8</ele>
        <time>2022-04-14T11:17:09Z</time>
      </trkpt>
      <trkpt lat="42.8060980" lon="-8.5755220">
        <ele>180.8</ele>
        <time>2022-04-14T11:17:10Z</time>
      </trkpt>
      <trkpt lat="42.8060670" lon="-8.5755660">
        <ele>180.6</ele>
        <time>2022-04-14T11:17:11Z</time>
      </trkpt>
      <trkpt lat="42.8060470" lon="-8.5756450">
        <ele>180.2</ele>
        <time>2022-04-14T11:17:12Z</time>
      </trkpt>
      <trkpt lat="42.8060270" lon="-8.5757240">
        <ele>179.8</ele>
        <time>2022-04-14T11:17:13Z</time>
      </trkpt>
      <trkpt lat="42.8059870" lon="-8.5758830">
        <ele>178.7</ele>
        <time>2022-04-14T11:17:14Z</time>
      </trkpt>
      <trkpt lat="42.8059870" lon="-8.5758830">
        <ele>178.7</ele>
        <time>2022-04-14T11:17:15Z</time>
      </trkpt>
      <trkpt lat="42.8059670" lon="-8.5759340">
        <ele>178.3</ele>
        <time>2022-04-14T11:17:16Z</time>
      </trkpt>
      <trkpt lat="42.8059470" lon="-8.5759850">
        <ele>178.0</ele>
        <time>2022-04-14T11:17:17Z</time>
      </trkpt>
      <trkpt lat="42.8058750" lon="-8.5761670">
        <ele>177.4</ele>
        <time>2022-04-14T11:17:18Z</time>
      </trkpt>
      <trkpt lat="42.8058420" lon="-8.5762470">
        <ele>177.3</ele>
        <time>2022-04-14T11:17:19Z</time>
      </trkpt>
      <trkpt lat="42.8057770" lon="-8.5764070">
        <ele>177.2</ele>
        <time>2022-04-14T11:17:20Z</time>
      </trkpt>
      <trkpt lat="42.8057480" lon="-8.5764440">
        <ele>177.2</ele>
        <time>2022-04-14T11:17:21Z</time>
      </trkpt>
      <trkpt lat="42.8057200" lon="-8.5764810">
        <ele>177.2</ele>
        <time>2022-04-14T11:17:22Z</time>
      </trkpt>
      <trkpt lat="42.8056400" lon="-8.5765950">
        <ele>177.5</ele>
        <time>2022-04-14T11:17:23Z</time>
      </trkpt>
      <trkpt lat="42.8056180" lon="-8.5766350">
        <ele>177.6</ele>
        <time>2022-04-14T11:17:24Z</time>
      </trkpt>
      <trkpt lat="42.8055570" lon="-8.5767560">
        <ele>177.6</ele>
        <time>2022-04-14T11:17:25Z</time>
      </trkpt>
      <trkpt lat="42.8055400" lon="-8.5767970">
        <ele>177.6</ele>
        <time>2022-04-14T11:17:26Z</time>
      </trkpt>
      <trkpt lat="42.8054910" lon="-8.5769190">
        <ele>177.7</ele>
        <time>2022-04-14T11:17:27Z</time>
      </trkpt>
      <trkpt lat="42.8054750" lon="-8.5769590">
        <ele>177.8</ele>
        <time>2022-04-14T11:17:28Z</time>
      </trkpt>
      <trkpt lat="42.8054320" lon="-8.5770730">
        <ele>178.1</ele>
        <time>2022-04-14T11:17:29Z</time>
      </trkpt>
      <trkpt lat="42.8054200" lon="-8.5771080">
        <ele>178.3</ele>
        <time>2022-04-14T11:17:30Z</time>
      </trkpt>
      <trkpt lat="42.8053810" lon="-8.5772360">
        <ele>178.9</ele>
        <time>2022-04-14T11:17:31Z</time>
      </trkpt>
      <trkpt lat="42.8053650" lon="-8.5772950">
        <ele>179.3</ele>
        <time>2022-04-14T11:17:32Z</time>
      </trkpt>
      <trkpt lat="42.8053520" lon="-8.5773190">
        <ele>179.5</ele>
        <time>2022-04-14T11:17:33Z</time>
      </trkpt>
      <trkpt lat="42.8053390" lon="-8.5773430">
        <ele>179.6</ele>
        <time>2022-04-14T11:17:34Z</time>
      </trkpt>
      <trkpt lat="42.8053270" lon="-8.5773670">
        <ele>179.8</ele>
        <time>2022-04-14T11:17:35Z</time>
      </trkpt>
      <trkpt lat="42.8052630" lon="-8.5774950">
        <ele>180.6</ele>
        <time>2022-04-14T11:17:36Z</time>
      </trkpt>
      <trkpt lat="42.8052380" lon="-8.5775510">
        <ele>180.9</ele>
        <time>2022-04-14T11:17:37Z</time>
      </trkpt>
      <trkpt lat="42.8052060" lon="-8.5776030">
        <ele>181.1</ele>
        <time>2022-04-14T11:17:38Z</time>
      </trkpt>
      <trkpt lat="42.8051750" lon="-8.5776550">
        <ele>181.4</ele>
        <time>2022-04-14T11:17:39Z</time>
      </trkpt>
      <trkpt lat="42.8051550" lon="-8.5776800">
        <ele>181.5</ele>
        <time>2022-04-14T11:17:40Z</time>
      </trkpt>
      <trkpt lat="42.8051360" lon="-8.5777050">
        <ele>181.6</ele>
        <time>2022-04-14T11:17:41Z</time>
      </trkpt>
      <trkpt lat="42.8050600" lon="-8.5777940">
        <ele>182.2</ele>
        <time>2022-04-14T11:17:42Z</time>
      </trkpt>
      <trkpt lat="42.8050220" lon="-8.5778330">
        <ele>182.4</ele>
        <time>2022-04-14T11:17:43Z</time>
      </trkpt>
      <trkpt lat="42.8049870" lon="-8.5778730">
        <ele>182.7</ele>
        <time>2022-04-14T11:17:44Z</time>
      </trkpt>
      <trkpt lat="42.8049510" lon="-8.5779130">
        <ele>183.0</ele>
        <time>2022-04-14T11:17:45Z</time>
      </trkpt>
      <trkpt lat="42.8049170" lon="-8.5779540">
        <ele>183.3</ele>
        <time>2022-04-14T11:17:46Z</time>
      </trkpt>
      <trkpt lat="42.8048830" lon="-8.5779950">
        <ele>183.7</ele>
        <time>2022-04-14T11:17:47Z</time>
      </trkpt>
      <trkpt lat="42.8048610" lon="-8.5780230">
        <ele>183.9</ele>
        <time>2022-04-14T11:17:48Z</time>
      </trkpt>
      <trkpt lat="42.8048380" lon="-8.5780510">
        <ele>184.2</ele>
        <time>2022-04-14T11:17:49Z</time>
      </trkpt>
      <trkpt lat="42.8047520" lon="-8.5781500">
        <ele>185.1</ele>
        <time>2022-04-14T11:17:50Z</time>
      </trkpt>
      <trkpt lat="42.8047110" lon="-8.5781930">
        <ele>185.6</ele>
        <time>2022-04-14T11:17:51Z</time>
      </trkpt>
      <trkpt lat="42.8046310" lon="-8.5782780">
        <ele>186.5</ele>
        <time>2022-04-14T11:17:52Z</time>
      </trkpt>
      <trkpt lat="42.8046310" lon="-8.5782780">
        <ele>186.5</ele>
        <time>2022-04-14T11:17:53Z</time>
      </trkpt>
      <trkpt lat="42.8046090" lon="-8.5782980">
        <ele>186.8</ele>
        <time>2022-04-14T11:17:54Z</time>
      </trkpt>
      <trkpt lat="42.8045870" lon="-8.5783180">
        <ele>187.0</ele>
        <time>2022-04-14T11:17:55Z</time>
      </trkpt>
      <trkpt lat="42.8045040" lon="-8.5783890">
        <ele>187.9</ele>
        <time>2022-04-14T11:17:56Z</time>
      </trkpt>
      <trkpt lat="42.8044650" lon="-8.5784210">
        <ele>188.3</ele>
        <time>2022-04-14T11:17:57Z</time>
      </trkpt>
      <trkpt lat="42.8044290" lon="-8.5784680">
        <ele>188.7</ele>
        <time>2022-04-14T11:17:58Z</time>
      </trkpt>
      <trkpt lat="42.8043930" lon="-8.5785160">
        <ele>189.1</ele>
        <time>2022-04-14T11:17:59Z</time>
      </trkpt>
      <trkpt lat="42.8043780" lon="-8.5785350">
        <ele>189.3</ele>
        <time>2022-04-14T11:18:00Z</time>
      </trkpt>
      <trkpt lat="42.8043620" lon="-8.5785540">
        <ele>189.5</ele>
        <time>2022-04-14T11:18:01Z</time>
      </trkpt>
      <trkpt lat="42.8043470" lon="-8.5785730">
        <ele>189.7</ele>
        <time>2022-04-14T11:18:02Z</time>
      </trkpt>
      <trkpt lat="42.8042740" lon="-8.5786870">
        <ele>190.8</ele>
        <time>2022-04-14T11:18:03Z</time>
      </trkpt>
      <trkpt lat="42.8042460" lon="-8.5787450">
        <ele>191.3</ele>
        <time>2022-04-14T11:18:04Z</time>
      </trkpt>
      <trkpt lat="42.8042180" lon="-8.5788030">
        <ele>191.8</ele>
        <time>2022-04-14T11:18:05Z</time>
      </trkpt>
      <trkpt lat="42.8041910" lon="-8.5788610">
        <ele>192.4</ele>
        <time>2022-04-14T11:18:06Z</time>
      </trkpt>
      <trkpt lat="42.8041650" lon="-8.5789260">
        <ele>193.0</ele>
        <time>2022-04-14T11:18:07Z</time>
      </trkpt>
      <trkpt lat="42.8041400" lon="-8.5789840">
        <ele>193.5</ele>
        <time>2022-04-14T11:18:08Z</time>
      </trkpt>
      <trkpt lat="42.8041160" lon="-8.5790420">
        <ele>194.0</ele>
        <time>2022-04-14T11:18:09Z</time>
      </trkpt>
      <trkpt lat="42.8041000" lon="-8.5790940">
        <ele>194.4</ele>
        <time>2022-04-14T11:18:10Z</time>
      </trkpt>
      <trkpt lat="42.8040840" lon="-8.5791450">
        <ele>194.9</ele>
        <time>2022-04-14T11:18:11Z</time>
      </trkpt>
      <trkpt lat="42.8040680" lon="-8.5791970">
        <ele>195.3</ele>
        <time>2022-04-14T11:18:12Z</time>
      </trkpt>
      <trkpt lat="42.8040630" lon="-8.5792250">
        <ele>195.5</ele>
        <time>2022-04-14T11:18:13Z</time>
      </trkpt>
      <trkpt lat="42.8040570" lon="-8.5792520">
        <ele>195.7</ele>
        <time>2022-04-14T11:18:14Z</time>
      </trkpt>
      <trkpt lat="42.8040520" lon="-8.5792800">
        <ele>195.9</ele>
        <time>2022-04-14T11:18:15Z</time>
      </trkpt>
      <trkpt lat="42.8040320" lon="-8.5793890">
        <ele>196.7</ele>
        <time>2022-04-14T11:18:16Z</time>
      </trkpt>
      <trkpt lat="42.8040280" lon="-8.5794150">
        <ele>196.9</ele>
        <time>2022-04-14T11:18:17Z</time>
      </trkpt>
      <trkpt lat="42.8040250" lon="-8.5794420">
        <ele>197.1</ele>
        <time>2022-04-14T11:18:18Z</time>
      </trkpt>
      <trkpt lat="42.8040060" lon="-8.5795480">
        <ele>197.8</ele>
        <time>2022-04-14T11:18:19Z</time>
      </trkpt>
      <trkpt lat="42.8039960" lon="-8.5795750">
        <ele>197.9</ele>
        <time>2022-04-14T11:18:20Z</time>
      </trkpt>
      <trkpt lat="42.8039870" lon="-8.5796010">
        <ele>198.1</ele>
        <time>2022-04-14T11:18:21Z</time>
      </trkpt>
      <trkpt lat="42.8039330" lon="-8.5797340">
        <ele>198.8</ele>
        <time>2022-04-14T11:18:22Z</time>
      </trkpt>
      <trkpt lat="42.8039070" lon="-8.5797880">
        <ele>199.0</ele>
        <time>2022-04-14T11:18:23Z</time>
      </trkpt>
      <trkpt lat="42.8038830" lon="-8.5798400">
        <ele>199.2</ele>
        <time>2022-04-14T11:18:24Z</time>
      </trkpt>
      <trkpt lat="42.8038600" lon="-8.5798920">
        <ele>199.5</ele>
        <time>2022-04-14T11:18:25Z</time>
      </trkpt>
      <trkpt lat="42.8038330" lon="-8.5799460">
        <ele>199.7</ele>
        <time>2022-04-14T11:18:26Z</time>
      </trkpt>
      <trkpt lat="42.8038070" lon="-8.5799990">
        <ele>199.9</ele>
        <time>2022-04-14T11:18:27Z</time>
      </trkpt>
      <trkpt lat="42.8037820" lon="-8.5800510">
        <ele>200.1</ele>
        <time>2022-04-14T11:18:28Z</time>
      </trkpt>
      <trkpt lat="42.8037580" lon="-8.5801030">
        <ele>200.3</ele>
        <time>2022-04-14T11:18:29Z</time>
      </trkpt>
      <trkpt lat="42.8037450" lon="-8.5801270">
        <ele>200.4</ele>
        <time>2022-04-14T11:18:30Z</time>
      </trkpt>
      <trkpt lat="42.8037330" lon="-8.5801510">
        <ele>200.5</ele>
        <time>2022-04-14T11:18:31Z</time>
      </trkpt>
      <trkpt lat="42.8037210" lon="-8.5801760">
        <ele>200.7</ele>
        <time>2022-04-14T11:18:32Z</time>
      </trkpt>
      <trkpt lat="42.8036690" lon="-8.5802710">
        <ele>201.1</ele>
        <time>2022-04-14T11:18:33Z</time>
      </trkpt>
      <trkpt lat="42.8036560" lon="-8.5802930">
        <ele>201.2</ele>
        <time>2022-04-14T11:18:34Z</time>
      </trkpt>
      <trkpt lat="42.8036420" lon="-8.5803160">
        <ele>201.3</ele>
        <time>2022-04-14T11:18:35Z</time>
      </trkpt>
      <trkpt lat="42.8035900" lon="-8.5804060">
        <ele>201.8</ele>
        <time>2022-04-14T11:18:36Z</time>
      </trkpt>
      <trkpt lat="42.8035800" lon="-8.5804280">
        <ele>201.9</ele>
        <time>2022-04-14T11:18:37Z</time>
      </trkpt>
      <trkpt lat="42.8035690" lon="-8.5804500">
        <ele>202.0</ele>
        <time>2022-04-14T11:18:38Z</time>
      </trkpt>
      <trkpt lat="42.8035130" lon="-8.5805680">
        <ele>202.6</ele>
        <time>2022-04-14T11:18:39Z</time>
      </trkpt>
      <trkpt lat="42.8034880" lon="-8.5806190">
        <ele>202.9</ele>
        <time>2022-04-14T11:18:40Z</time>
      </trkpt>
      <trkpt lat="42.8034770" lon="-8.5806440">
        <ele>203.0</ele>
        <time>2022-04-14T11:18:41Z</time>
      </trkpt>
      <trkpt lat="42.8034670" lon="-8.5806680">
        <ele>203.1</ele>
        <time>2022-04-14T11:18:42Z</time>
      </trkpt>
      <trkpt lat="42.8034560" lon="-8.5806930">
        <ele>203.3</ele>
        <time>2022-04-14T11:18:43Z</time>
      </trkpt>
      <trkpt lat="42.8034210" lon="-8.5807940">
        <ele>203.7</ele>
        <time>2022-04-14T11:18:44Z</time>
      </trkpt>
      <trkpt lat="42.8034170" lon="-8.5808220">
        <ele>203.8</ele>
        <time>2022-04-14T11:18:45Z</time>
      </trkpt>
      <trkpt lat="42.8034130" lon="-8.5808510">
        <ele>204.0</ele>
        <time>2022-04-14T11:18:46Z</time>
      </trkpt>
      <trkpt lat="42.8034020" lon="-8.5809650">
        <ele>204.5</ele>
        <time>2022-04-14T11:18:47Z</time>
      </trkpt>
      <trkpt lat="42.8034040" lon="-8.5809960">
        <ele>204.6</ele>
        <time>2022-04-14T11:18:48Z</time>
      </trkpt>
      <trkpt lat="42.8034060" lon="-8.5810260">
        <ele>204.7</ele>
        <time>2022-04-14T11:18:49Z</time>
      </trkpt>
      <trkpt lat="42.8034130" lon="-8.5811820">
        <ele>205.1</ele>
        <time>2022-04-14T11:18:50Z</time>
      </trkpt>
      <trkpt lat="42.8034160" lon="-8.5812470">
        <ele>205.2</ele>
        <time>2022-04-14T11:18:51Z</time>
      </trkpt>
      <trkpt lat="42.8034180" lon="-8.5812810">
        <ele>205.3</ele>
        <time>2022-04-14T11:18:52Z</time>
      </trkpt>
      <trkpt lat="42.8034190" lon="-8.5813150">
        <ele>205.4</ele>
        <time>2022-04-14T11:18:53Z</time>
      </trkpt>
      <trkpt lat="42.8034210" lon="-8.5814530">
        <ele>205.6</ele>
        <time>2022-04-14T11:18:54Z</time>
      </trkpt>
      <trkpt lat="42.8034190" lon="-8.5815230">
        <ele>205.8</ele>
        <time>2022-04-14T11:18:55Z</time>
      </trkpt>
      <trkpt lat="42.8034160" lon="-8.5815590">
        <ele>205.9</ele>
        <time>2022-04-14T11:18:56Z</time>
      </trkpt>
      <trkpt lat="42.8034130" lon="-8.5815940">
        <ele>205.9</ele>
        <time>2022-04-14T11:18:57Z</time>
      </trkpt>
      <trkpt lat="42.8034010" lon="-8.5817380">
        <ele>206.2</ele>
        <time>2022-04-14T11:18:58Z</time>
      </trkpt>
      <trkpt lat="42.8033960" lon="-8.5818100">
        <ele>206.4</ele>
        <time>2022-04-14T11:18:59Z</time>
      </trkpt>
      <trkpt lat="42.8033930" lon="-8.5818450">
        <ele>206.4</ele>
        <time>2022-04-14T11:19:00Z</time>
      </trkpt>
      <trkpt lat="42.8033910" lon="-8.5818800">
        <ele>206.5</ele>
        <time>2022-04-14T11:19:01Z</time>
      </trkpt>
      <trkpt lat="42.8033850" lon="-8.5819870">
        <ele>206.7</ele>
        <time>2022-04-14T11:19:02Z</time>
      </trkpt>
      <trkpt lat="42.8033840" lon="-8.5820240">
        <ele>206.8</ele>
        <time>2022-04-14T11:19:03Z</time>
      </trkpt>
      <trkpt lat="42.8033800" lon="-8.5821350">
        <ele>206.9</ele>
        <time>2022-04-14T11:19:04Z</time>
      </trkpt>
      <trkpt lat="42.8033780" lon="-8.5821720">
        <ele>207.0</ele>
        <time>2022-04-14T11:19:05Z</time>
      </trkpt>
      <trkpt lat="42.8033680" lon="-8.5823210">
        <ele>207.2</ele>
        <time>2022-04-14T11:19:06Z</time>
      </trkpt>
      <trkpt lat="42.8033610" lon="-8.5823960">
        <ele>207.4</ele>
        <time>2022-04-14T11:19:07Z</time>
      </trkpt>
      <trkpt lat="42.8033490" lon="-8.5825450">
        <ele>207.6</ele>
        <time>2022-04-14T11:19:08Z</time>
      </trkpt>
      <trkpt lat="42.8033490" lon="-8.5825450">
        <ele>207.6</ele>
        <time>2022-04-14T11:19:09Z</time>
      </trkpt>
      <trkpt lat="42.8033430" lon="-8.5826140">
        <ele>207.7</ele>
        <time>2022-04-14T11:19:10Z</time>
      </trkpt>
      <trkpt lat="42.8033370" lon="-8.5826830">
        <ele>207.9</ele>
        <time>2022-04-14T11:19:11Z</time>
      </trkpt>
      <trkpt lat="42.8033300" lon="-8.5827520">
        <ele>208.0</ele>
        <time>2022-04-14T11:19:12Z</time>
      </trkpt>
      <trkpt lat="42.8033240" lon="-8.5828210">
        <ele>208.1</ele>
        <time>2022-04-14T11:19:13Z</time>
      </trkpt>
      <trkpt lat="42.8033220" lon="-8.5828550">
        <ele>208.2</ele>
        <time>2022-04-14T11:19:14Z</time>
      </trkpt>
      <trkpt lat="42.8033200" lon="-8.5828890">
        <ele>208.3</ele>
        <time>2022-04-14T11:19:15Z</time>
      </trkpt>
      <trkpt lat="42.8033060" lon="-8.5830290">
        <ele>208.7</ele>
        <time>2022-04-14T11:19:16Z</time>
      </trkpt>
      <trkpt lat="42.8032960" lon="-8.5831000">
        <ele>208.9</ele>
        <time>2022-04-14T11:19:17Z</time>
      </trkpt>
      <trkpt lat="42.8032880" lon="-8.5831650">
        <ele>209.1</ele>
        <time>2022-04-14T11:19:18Z</time>
      </trkpt>
      <trkpt lat="42.8032800" lon="-8.5832290">
        <ele>209.3</ele>
        <time>2022-04-14T11:19:19Z</time>
      </trkpt>
      <trkpt lat="42.8032730" lon="-8.5832870">
        <ele>209.5</ele>
        <time>2022-04-14T11:19:20Z</time>
      </trkpt>
      <trkpt lat="42.8032670" lon="-8.5833450">
        <ele>209.7</ele>
        <time>2022-04-14T11:19:21Z</time>
      </trkpt>
      <trkpt lat="42.8032600" lon="-8.5834030">
        <ele>209.9</ele>
        <time>2022-04-14T11:19:22Z</time>
      </trkpt>
      <trkpt lat="42.8032530" lon="-8.5834600">
        <ele>210.2</ele>
        <time>2022-04-14T11:19:23Z</time>
      </trkpt>
      <trkpt lat="42.8032540" lon="-8.5835280">
        <ele>210.4</ele>
        <time>2022-04-14T11:19:24Z</time>
      </trkpt>
      <trkpt lat="42.8032540" lon="-8.5835280">
        <ele>210.4</ele>
        <time>2022-04-14T11:19:25Z</time>
      </trkpt>
      <trkpt lat="42.8032040" lon="-8.5836520">
        <ele>211.0</ele>
        <time>2022-04-14T11:19:26Z</time>
      </trkpt>
      <trkpt lat="42.8031860" lon="-8.5836610">
        <ele>211.1</ele>
        <time>2022-04-14T11:19:27Z</time>
      </trkpt>
      <trkpt lat="42.8031680" lon="-8.5836690">
        <ele>211.2</ele>
        <time>2022-04-14T11:19:28Z</time>
      </trkpt>
      <trkpt lat="42.8031510" lon="-8.5836770">
        <ele>211.3</ele>
        <time>2022-04-14T11:19:29Z</time>
      </trkpt>
      <trkpt lat="42.8030790" lon="-8.5836960">
        <ele>212.2</ele>
        <time>2022-04-14T11:19:30Z</time>
      </trkpt>
      <trkpt lat="42.8030600" lon="-8.5836900">
        <ele>212.3</ele>
        <time>2022-04-14T11:19:31Z</time>
      </trkpt>
      <trkpt lat="42.8030410" lon="-8.5836830">
        <ele>212.3</ele>
        <time>2022-04-14T11:19:32Z</time>
      </trkpt>
      <trkpt lat="42.8029670" lon="-8.5836480">
        <ele>212.4</ele>
        <time>2022-04-14T11:19:33Z</time>
      </trkpt>
      <trkpt lat="42.8029490" lon="-8.5836320">
        <ele>212.5</ele>
        <time>2022-04-14T11:19:34Z</time>
      </trkpt>
      <trkpt lat="42.8029310" lon="-8.5836150">
        <ele>212.5</ele>
        <time>2022-04-14T11:19:35Z</time>
      </trkpt>
      <trkpt lat="42.8028610" lon="-8.5835500">
        <ele>212.7</ele>
        <time>2022-04-14T11:19:36Z</time>
      </trkpt>
      <trkpt lat="42.8028430" lon="-8.5835340">
        <ele>212.8</ele>
        <time>2022-04-14T11:19:37Z</time>
      </trkpt>
      <trkpt lat="42.8028260" lon="-8.5835180">
        <ele>212.8</ele>
        <time>2022-04-14T11:19:38Z</time>
      </trkpt>
      <trkpt lat="42.8027560" lon="-8.5834560">
        <ele>213.1</ele>
        <time>2022-04-14T11:19:39Z</time>
      </trkpt>
      <trkpt lat="42.8027370" lon="-8.5834420">
        <ele>213.1</ele>
        <time>2022-04-14T11:19:40Z</time>
      </trkpt>
      <trkpt lat="42.8027180" lon="-8.5834280">
        <ele>213.2</ele>
        <time>2022-04-14T11:19:41Z</time>
      </trkpt>
      <trkpt lat="42.8026240" lon="-8.5833500">
        <ele>213.6</ele>
        <time>2022-04-14T11:19:42Z</time>
      </trkpt>
      <trkpt lat="42.8025860" lon="-8.5833140">
        <ele>213.8</ele>
        <time>2022-04-14T11:19:43Z</time>
      </trkpt>
      <trkpt lat="42.8025420" lon="-8.5832870">
        <ele>214.1</ele>
        <time>2022-04-14T11:19:44Z</time>
      </trkpt>
      <trkpt lat="42.8024990" lon="-8.5832600">
        <ele>214.3</ele>
        <time>2022-04-14T11:19:45Z</time>
      </trkpt>
      <trkpt lat="42.8024150" lon="-8.5831980">
        <ele>214.7</ele>
        <time>2022-04-14T11:19:46Z</time>
      </trkpt>
      <trkpt lat="42.8024150" lon="-8.5831980">
        <ele>214.7</ele>
        <time>2022-04-14T11:19:47Z</time>
      </trkpt>
      <trkpt lat="42.8023720" lon="-8.5831690">
        <ele>215.0</ele>
        <time>2022-04-14T11:19:48Z</time>
      </trkpt>
      <trkpt lat="42.8023300" lon="-8.5831390">
        <ele>215.2</ele>
        <time>2022-04-14T11:19:49Z</time>
      </trkpt>
      <trkpt lat="42.8022820" lon="-8.5831160">
        <ele>215.5</ele>
        <time>2022-04-14T11:19:50Z</time>
      </trkpt>
      <trkpt lat="42.8022340" lon="-8.5830930">
        <ele>215.7</ele>
        <time>2022-04-14T11:19:51Z</time>
      </trkpt>
      <trkpt lat="42.8021870" lon="-8.5830750">
        <ele>215.9</ele>
        <time>2022-04-14T11:19:52Z</time>
      </trkpt>
      <trkpt lat="42.8021400" lon="-8.5830560">
        <ele>216.2</ele>
        <time>2022-04-14T11:19:53Z</time>
      </trkpt>
      <trkpt lat="42.8020930" lon="-8.5830390">
        <ele>216.4</ele>
        <time>2022-04-14T11:19:54Z</time>
      </trkpt>
      <trkpt lat="42.8020460" lon="-8.5830220">
        <ele>216.7</ele>
        <time>2022-04-14T11:19:55Z</time>
      </trkpt>
      <trkpt lat="42.8020000" lon="-8.5830150">
        <ele>216.9</ele>
        <time>2022-04-14T11:19:56Z</time>
      </trkpt>
      <trkpt lat="42.8019550" lon="-8.5830080">
        <ele>217.1</ele>
        <time>2022-04-14T11:19:57Z</time>
      </trkpt>
      <trkpt lat="42.8019100" lon="-8.5830080">
        <ele>217.4</ele>
        <time>2022-04-14T11:19:58Z</time>
      </trkpt>
      <trkpt lat="42.8018650" lon="-8.5830080">
        <ele>217.6</ele>
        <time>2022-04-14T11:19:59Z</time>
      </trkpt>
      <trkpt lat="42.8018440" lon="-8.5830100">
        <ele>217.7</ele>
        <time>2022-04-14T11:20:00Z</time>
      </trkpt>
      <trkpt lat="42.8018230" lon="-8.5830110">
        <ele>217.8</ele>
        <time>2022-04-14T11:20:01Z</time>
      </trkpt>
      <trkpt lat="42.8018020" lon="-8.5830120">
        <ele>217.9</ele>
        <time>2022-04-14T11:20:02Z</time>
      </trkpt>
      <trkpt lat="42.8017180" lon="-8.5830150">
        <ele>218.3</ele>
        <time>2022-04-14T11:20:03Z</time>
      </trkpt>
      <trkpt lat="42.8016960" lon="-8.5830150">
        <ele>218.4</ele>
        <time>2022-04-14T11:20:04Z</time>
      </trkpt>
      <trkpt lat="42.8016750" lon="-8.5830150">
        <ele>218.5</ele>
        <time>2022-04-14T11:20:05Z</time>
      </trkpt>
      <trkpt lat="42.8015620" lon="-8.5830110">
        <ele>219.0</ele>
        <time>2022-04-14T11:20:06Z</time>
      </trkpt>
      <trkpt lat="42.8015140" lon="-8.5830060">
        <ele>219.2</ele>
        <time>2022-04-14T11:20:07Z</time>
      </trkpt>
      <trkpt lat="42.8014650" lon="-8.5830050">
        <ele>219.4</ele>
        <time>2022-04-14T11:20:08Z</time>
      </trkpt>
      <trkpt lat="42.8014170" lon="-8.5830040">
        <ele>219.6</ele>
        <time>2022-04-14T11:20:09Z</time>
      </trkpt>
      <trkpt lat="42.8013700" lon="-8.5830000">
        <ele>219.8</ele>
        <time>2022-04-14T11:20:10Z</time>
      </trkpt>
      <trkpt lat="42.8013230" lon="-8.5829950">
        <ele>219.9</ele>
        <time>2022-04-14T11:20:11Z</time>
      </trkpt>
      <trkpt lat="42.8012750" lon="-8.5829950">
        <ele>220.1</ele>
        <time>2022-04-14T11:20:12Z</time>
      </trkpt>
      <trkpt lat="42.8012270" lon="-8.5829950">
        <ele>220.3</ele>
        <time>2022-04-14T11:20:13Z</time>
      </trkpt>
      <trkpt lat="42.8012010" lon="-8.5829980">
        <ele>220.4</ele>
        <time>2022-04-14T11:20:14Z</time>
      </trkpt>
      <trkpt lat="42.8011740" lon="-8.5830010">
        <ele>220.5</ele>
        <time>2022-04-14T11:20:15Z</time>
      </trkpt>
      <trkpt lat="42.8010730" lon="-8.5830050">
        <ele>220.8</ele>
        <time>2022-04-14T11:20:16Z</time>
      </trkpt>
      <trkpt lat="42.8010250" lon="-8.5830030">
        <ele>221.0</ele>
        <time>2022-04-14T11:20:17Z</time>
      </trkpt>
      <trkpt lat="42.8009980" lon="-8.5830030">
        <ele>221.1</ele>
        <time>2022-04-14T11:20:18Z</time>
      </trkpt>
      <trkpt lat="42.8009720" lon="-8.5830020">
        <ele>221.2</ele>
        <time>2022-04-14T11:20:19Z</time>
      </trkpt>
      <trkpt lat="42.8008920" lon="-8.5830020">
        <ele>221.5</ele>
        <time>2022-04-14T11:20:20Z</time>
      </trkpt>
      <trkpt lat="42.8008650" lon="-8.5830020">
        <ele>221.6</ele>
        <time>2022-04-14T11:20:21Z</time>
      </trkpt>
      <trkpt lat="42.8007560" lon="-8.5830020">
        <ele>222.0</ele>
        <time>2022-04-14T11:20:22Z</time>
      </trkpt>
      <trkpt lat="42.8007010" lon="-8.5830020">
        <ele>222.2</ele>
        <time>2022-04-14T11:20:23Z</time>
      </trkpt>
      <trkpt lat="42.8005920" lon="-8.5830000">
        <ele>222.7</ele>
        <time>2022-04-14T11:20:24Z</time>
      </trkpt>
      <trkpt lat="42.8005920" lon="-8.5830000">
        <ele>222.7</ele>
        <time>2022-04-14T11:20:25Z</time>
      </trkpt>
      <trkpt lat="42.8005440" lon="-8.5830000">
        <ele>222.9</ele>
        <time>2022-04-14T11:20:26Z</time>
      </trkpt>
      <trkpt lat="42.8004970" lon="-8.5830000">
        <ele>223.1</ele>
        <time>2022-04-14T11:20:27Z</time>
      </trkpt>
      <trkpt lat="42.8004500" lon="-8.5829850">
        <ele>223.3</ele>
        <time>2022-04-14T11:20:28Z</time>
      </trkpt>
      <trkpt lat="42.8004040" lon="-8.5829690">
        <ele>223.5</ele>
        <time>2022-04-14T11:20:29Z</time>
      </trkpt>
      <trkpt lat="42.8003820" lon="-8.5829630">
        <ele>223.6</ele>
        <time>2022-04-14T11:20:30Z</time>
      </trkpt>
      <trkpt lat="42.8003590" lon="-8.5829560">
        <ele>223.7</ele>
        <time>2022-04-14T11:20:31Z</time>
      </trkpt>
      <trkpt lat="42.8003370" lon="-8.5829500">
        <ele>223.8</ele>
        <time>2022-04-14T11:20:32Z</time>
      </trkpt>
      <trkpt lat="42.8002170" lon="-8.5829370">
        <ele>224.2</ele>
        <time>2022-04-14T11:20:33Z</time>
      </trkpt>
      <trkpt lat="42.8001630" lon="-8.5829430">
        <ele>224.5</ele>
        <time>2022-04-14T11:20:34Z</time>
      </trkpt>
      <trkpt lat="42.8001100" lon="-8.5829490">
        <ele>224.7</ele>
        <time>2022-04-14T11:20:35Z</time>
      </trkpt>
      <trkpt lat="42.8000590" lon="-8.5829500">
        <ele>224.9</ele>
        <time>2022-04-14T11:20:36Z</time>
      </trkpt>
      <trkpt lat="42.8000120" lon="-8.5829410">
        <ele>225.4</ele>
        <time>2022-04-14T11:20:37Z</time>
      </trkpt>
      <trkpt lat="42.7999650" lon="-8.5829320">
        <ele>225.7</ele>
        <time>2022-04-14T11:20:38Z</time>
      </trkpt>
      <trkpt lat="42.7999450" lon="-8.5829270">
        <ele>225.9</ele>
        <time>2022-04-14T11:20:39Z</time>
      </trkpt>
      <trkpt lat="42.7999250" lon="-8.5829220">
        <ele>226.0</ele>
        <time>2022-04-14T11:20:40Z</time>
      </trkpt>
      <trkpt lat="42.7999050" lon="-8.5829180">
        <ele>226.2</ele>
        <time>2022-04-14T11:20:41Z</time>
      </trkpt>
      <trkpt lat="42.7998070" lon="-8.5828900">
        <ele>226.9</ele>
        <time>2022-04-14T11:20:42Z</time>
      </trkpt>
      <trkpt lat="42.7997700" lon="-8.5828780">
        <ele>227.1</ele>
        <time>2022-04-14T11:20:43Z</time>
      </trkpt>
      <trkpt lat="42.7997320" lon="-8.5828650">
        <ele>227.4</ele>
        <time>2022-04-14T11:20:44Z</time>
      </trkpt>
      <trkpt lat="42.7996850" lon="-8.5828560">
        <ele>227.6</ele>
        <time>2022-04-14T11:20:45Z</time>
      </trkpt>
      <trkpt lat="42.7996380" lon="-8.5828460">
        <ele>227.9</ele>
        <time>2022-04-14T11:20:46Z</time>
      </trkpt>
      <trkpt lat="42.7995890" lon="-8.5828410">
        <ele>228.1</ele>
        <time>2022-04-14T11:20:47Z</time>
      </trkpt>
      <trkpt lat="42.7995400" lon="-8.5828350">
        <ele>228.2</ele>
        <time>2022-04-14T11:20:48Z</time>
      </trkpt>
      <trkpt lat="42.7994850" lon="-8.5828380">
        <ele>228.4</ele>
        <time>2022-04-14T11:20:49Z</time>
      </trkpt>
      <trkpt lat="42.7994300" lon="-8.5828410">
        <ele>228.6</ele>
        <time>2022-04-14T11:20:50Z</time>
      </trkpt>
      <trkpt lat="42.7993750" lon="-8.5828440">
        <ele>228.8</ele>
        <time>2022-04-14T11:20:51Z</time>
      </trkpt>
      <trkpt lat="42.7993130" lon="-8.5828550">
        <ele>228.9</ele>
        <time>2022-04-14T11:20:52Z</time>
      </trkpt>
      <trkpt lat="42.7992860" lon="-8.5828580">
        <ele>229.0</ele>
        <time>2022-04-14T11:20:53Z</time>
      </trkpt>
      <trkpt lat="42.7992590" lon="-8.5828610">
        <ele>229.1</ele>
        <time>2022-04-14T11:20:54Z</time>
      </trkpt>
      <trkpt lat="42.7991520" lon="-8.5828720">
        <ele>229.3</ele>
        <time>2022-04-14T11:20:55Z</time>
      </trkpt>
      <trkpt lat="42.7991000" lon="-8.5828780">
        <ele>229.4</ele>
        <time>2022-04-14T11:20:56Z</time>
      </trkpt>
      <trkpt lat="42.7990740" lon="-8.5828770">
        <ele>229.5</ele>
        <time>2022-04-14T11:20:57Z</time>
      </trkpt>
      <trkpt lat="42.7990480" lon="-8.5828750">
        <ele>229.5</ele>
        <time>2022-04-14T11:20:58Z</time>
      </trkpt>
      <trkpt lat="42.7989470" lon="-8.5828820">
        <ele>229.9</ele>
        <time>2022-04-14T11:20:59Z</time>
      </trkpt>
      <trkpt lat="42.7988970" lon="-8.5828910">
        <ele>230.1</ele>
        <time>2022-04-14T11:21:00Z</time>
      </trkpt>
      <trkpt lat="42.7988530" lon="-8.5829060">
        <ele>230.2</ele>
        <time>2022-04-14T11:21:01Z</time>
      </trkpt>
      <trkpt lat="42.7988090" lon="-8.5829210">
        <ele>230.4</ele>
        <time>2022-04-14T11:21:02Z</time>
      </trkpt>
      <trkpt lat="42.7987820" lon="-8.5829310">
        <ele>230.5</ele>
        <time>2022-04-14T11:21:03Z</time>
      </trkpt>
      <trkpt lat="42.7987560" lon="-8.5829400">
        <ele>230.6</ele>
        <time>2022-04-14T11:21:04Z</time>
      </trkpt>
      <trkpt lat="42.7986760" lon="-8.5829690">
        <ele>231.0</ele>
        <time>2022-04-14T11:21:05Z</time>
      </trkpt>
      <trkpt lat="42.7986510" lon="-8.5829790">
        <ele>231.1</ele>
        <time>2022-04-14T11:21:06Z</time>
      </trkpt>
      <trkpt lat="42.7985700" lon="-8.5830040">
        <ele>231.5</ele>
        <time>2022-04-14T11:21:07Z</time>
      </trkpt>
      <trkpt lat="42.7985420" lon="-8.5830080">
        <ele>231.6</ele>
        <time>2022-04-14T11:21:08Z</time>
      </trkpt>
      <trkpt lat="42.7984370" lon="-8.5830410">
        <ele>232.3</ele>
        <time>2022-04-14T11:21:09Z</time>
      </trkpt>
      <trkpt lat="42.7983900" lon="-8.5830650">
        <ele>232.7</ele>
        <time>2022-04-14T11:21:10Z</time>
      </trkpt>
      <trkpt lat="42.7983720" lon="-8.5830700">
        <ele>232.8</ele>
        <time>2022-04-14T11:21:11Z</time>
      </trkpt>
      <trkpt lat="42.7983540" lon="-8.5830750">
        <ele>232.9</ele>
        <time>2022-04-14T11:21:12Z</time>
      </trkpt>
      <trkpt lat="42.7983360" lon="-8.5830800">
        <ele>233.1</ele>
        <time>2022-04-14T11:21:13Z</time>
      </trkpt>
      <trkpt lat="42.7982600" lon="-8.5831030">
        <ele>233.7</ele>
        <time>2022-04-14T11:21:14Z</time>
      </trkpt>
      <trkpt lat="42.7982380" lon="-8.5831120">
        <ele>233.9</ele>
        <time>2022-04-14T11:21:15Z</time>
      </trkpt>
      <trkpt lat="42.7982170" lon="-8.5831200">
        <ele>234.0</ele>
        <time>2022-04-14T11:21:16Z</time>
      </trkpt>
      <trkpt lat="42.7981100" lon="-8.5831670">
        <ele>234.8</ele>
        <time>2022-04-14T11:21:17Z</time>
      </trkpt>
      <trkpt lat="42.7980660" lon="-8.5831880">
        <ele>235.0</ele>
        <time>2022-04-14T11:21:18Z</time>
      </trkpt>
      <trkpt lat="42.7980390" lon="-8.5831930">
        <ele>235.2</ele>
        <time>2022-04-14T11:21:19Z</time>
      </trkpt>
      <trkpt lat="42.7980120" lon="-8.5831980">
        <ele>235.3</ele>
        <time>2022-04-14T11:21:20Z</time>
      </trkpt>
      <trkpt lat="42.7979040" lon="-8.5832120">
        <ele>235.6</ele>
        <time>2022-04-14T11:21:21Z</time>
      </trkpt>
      <trkpt lat="42.7978510" lon="-8.5832170">
        <ele>235.7</ele>
        <time>2022-04-14T11:21:22Z</time>
      </trkpt>
      <trkpt lat="42.7977980" lon="-8.5832210">
        <ele>235.8</ele>
        <time>2022-04-14T11:21:23Z</time>
      </trkpt>
      <trkpt lat="42.7977520" lon="-8.5832230">
        <ele>235.9</ele>
        <time>2022-04-14T11:21:24Z</time>
      </trkpt>
      <trkpt lat="42.7977340" lon="-8.5832300">
        <ele>236.0</ele>
        <time>2022-04-14T11:21:25Z</time>
      </trkpt>
      <trkpt lat="42.7977150" lon="-8.5832370">
        <ele>236.0</ele>
        <time>2022-04-14T11:21:26Z</time>
      </trkpt>
      <trkpt lat="42.7976970" lon="-8.5832440">
        <ele>236.1</ele>
        <time>2022-04-14T11:21:27Z</time>
      </trkpt>
      <trkpt lat="42.7976230" lon="-8.5832820">
        <ele>236.3</ele>
        <time>2022-04-14T11:21:28Z</time>
      </trkpt>
      <trkpt lat="42.7976050" lon="-8.5832990">
        <ele>236.4</ele>
        <time>2022-04-14T11:21:29Z</time>
      </trkpt>
      <trkpt lat="42.7975870" lon="-8.5833160">
        <ele>236.4</ele>
        <time>2022-04-14T11:21:30Z</time>
      </trkpt>
      <trkpt lat="42.7975310" lon="-8.5833870">
        <ele>236.8</ele>
        <time>2022-04-14T11:21:31Z</time>
      </trkpt>
      <trkpt lat="42.7975290" lon="-8.5834050">
        <ele>236.9</ele>
        <time>2022-04-14T11:21:32Z</time>
      </trkpt>
      <trkpt lat="42.7975260" lon="-8.5834240">
        <ele>237.0</ele>
        <time>2022-04-14T11:21:33Z</time>
      </trkpt>
      <trkpt lat="42.7975240" lon="-8.5834420">
        <ele>237.1</ele>
        <time>2022-04-14T11:21:34Z</time>
      </trkpt>
      <trkpt lat="42.7975150" lon="-8.5835160">
        <ele>237.4</ele>
        <time>2022-04-14T11:21:35Z</time>
      </trkpt>
      <trkpt lat="42.7975150" lon="-8.5835160">
        <ele>237.4</ele>
        <time>2022-04-14T11:21:36Z</time>
      </trkpt>
      <trkpt lat="42.7975150" lon="-8.5835160">
        <ele>237.4</ele>
        <time>2022-04-14T11:21:37Z</time>
      </trkpt>
      <trkpt lat="42.7975370" lon="-8.5835780">
        <ele>237.8</ele>
        <time>2022-04-14T11:21:38Z</time>
      </trkpt>
      <trkpt lat="42.7976760" lon="-8.5838510">
        <ele>238.9</ele>
        <time>2022-04-14T13:57:26Z</time>
      </trkpt>
      <trkpt lat="42.7976760" lon="-8.5838510">
        <ele>238.9</ele>
        <time>2022-04-14T13:57:27Z</time>
      </trkpt>
      <trkpt lat="42.7976760" lon="-8.5838510">
        <ele>238.9</ele>
        <time>2022-04-14T13:57:28Z</time>
      </trkpt>
      <trkpt lat="42.7976560" lon="-8.5838220">
        <ele>238.8</ele>
        <time>2022-04-14T13:57:29Z</time>
      </trkpt>
      <trkpt lat="42.7976560" lon="-8.5838220">
        <ele>238.8</ele>
        <time>2022-04-14T13:57:30Z</time>
      </trkpt>
      <trkpt lat="42.7976430" lon="-8.5837760">
        <ele>238.7</ele>
        <time>2022-04-14T13:57:31Z</time>
      </trkpt>
      <trkpt lat="42.7976310" lon="-8.5837530">
        <ele>238.6</ele>
        <time>2022-04-14T13:57:32Z</time>
      </trkpt>
      <trkpt lat="42.7976110" lon="-8.5837260">
        <ele>238.5</ele>
        <time>2022-04-14T13:57:33Z</time>
      </trkpt>
      <trkpt lat="42.7975910" lon="-8.5837110">
        <ele>238.5</ele>
        <time>2022-04-14T13:57:34Z</time>
      </trkpt>
      <trkpt lat="42.7975600" lon="-8.5836960">
        <ele>238.4</ele>
        <time>2022-04-14T13:57:35Z</time>
      </trkpt>
      <trkpt lat="42.7975300" lon="-8.5836820">
        <ele>238.3</ele>
        <time>2022-04-14T13:57:36Z</time>
      </trkpt>
      <trkpt lat="42.7975200" lon="-8.5836630">
        <ele>238.2</ele>
        <time>2022-04-14T13:57:37Z</time>
      </trkpt>
      <trkpt lat="42.7975110" lon="-8.5836430">
        <ele>238.1</ele>
        <time>2022-04-14T13:57:38Z</time>
      </trkpt>
      <trkpt lat="42.7975010" lon="-8.5836230">
        <ele>238.1</ele>
        <time>2022-04-14T13:57:39Z</time>
      </trkpt>
      <trkpt lat="42.7974910" lon="-8.5836030">
        <ele>238.0</ele>
        <time>2022-04-14T13:57:40Z</time>
      </trkpt>
      <trkpt lat="42.7974810" lon="-8.5835840">
        <ele>238.0</ele>
        <time>2022-04-14T13:57:41Z</time>
      </trkpt>
      <trkpt lat="42.7974710" lon="-8.5835640">
        <ele>237.9</ele>
        <time>2022-04-14T13:57:42Z</time>
      </trkpt>
      <trkpt lat="42.7974370" lon="-8.5833670">
        <ele>236.8</ele>
        <time>2022-04-14T13:57:43Z</time>
      </trkpt>
      <trkpt lat="42.7974610" lon="-8.5832890">
        <ele>236.7</ele>
        <time>2022-04-14T13:57:44Z</time>
      </trkpt>
      <trkpt lat="42.7974860" lon="-8.5832110">
        <ele>236.6</ele>
        <time>2022-04-14T13:57:45Z</time>
      </trkpt>
      <trkpt lat="42.7975280" lon="-8.5831490">
        <ele>236.4</ele>
        <time>2022-04-14T13:57:46Z</time>
      </trkpt>
      <trkpt lat="42.7975670" lon="-8.5831160">
        <ele>236.3</ele>
        <time>2022-04-14T13:57:47Z</time>
      </trkpt>
      <trkpt lat="42.7976060" lon="-8.5830830">
        <ele>236.2</ele>
        <time>2022-04-14T13:57:48Z</time>
      </trkpt>
      <trkpt lat="42.7976530" lon="-8.5830840">
        <ele>236.0</ele>
        <time>2022-04-14T13:57:49Z</time>
      </trkpt>
      <trkpt lat="42.7976990" lon="-8.5830850">
        <ele>235.9</ele>
        <time>2022-04-14T13:57:50Z</time>
      </trkpt>
      <trkpt lat="42.7977600" lon="-8.5830910">
        <ele>235.8</ele>
        <time>2022-04-14T13:57:51Z</time>
      </trkpt>
      <trkpt lat="42.7978220" lon="-8.5830970">
        <ele>235.7</ele>
        <time>2022-04-14T13:57:52Z</time>
      </trkpt>
      <trkpt lat="42.7978830" lon="-8.5831030">
        <ele>235.5</ele>
        <time>2022-04-14T13:57:53Z</time>
      </trkpt>
      <trkpt lat="42.7979500" lon="-8.5831030">
        <ele>235.3</ele>
        <time>2022-04-14T13:57:54Z</time>
      </trkpt>
      <trkpt lat="42.7979830" lon="-8.5831040">
        <ele>235.2</ele>
        <time>2022-04-14T13:57:55Z</time>
      </trkpt>
      <trkpt lat="42.7980170" lon="-8.5831040">
        <ele>235.1</ele>
        <time>2022-04-14T13:57:56Z</time>
      </trkpt>
      <trkpt lat="42.7981190" lon="-8.5830960">
        <ele>234.5</ele>
        <time>2022-04-14T13:57:57Z</time>
      </trkpt>
      <trkpt lat="42.7981550" lon="-8.5830870">
        <ele>234.2</ele>
        <time>2022-04-14T13:57:58Z</time>
      </trkpt>
      <trkpt lat="42.7983030" lon="-8.5830330">
        <ele>233.1</ele>
        <time>2022-04-14T13:57:59Z</time>
      </trkpt>
      <trkpt lat="42.7983800" lon="-8.5829970">
        <ele>232.5</ele>
        <time>2022-04-14T13:58:00Z</time>
      </trkpt>
      <trkpt lat="42.7984570" lon="-8.5829610">
        <ele>232.0</ele>
        <time>2022-04-14T13:58:01Z</time>
      </trkpt>
      <trkpt lat="42.7985410" lon="-8.5829210">
        <ele>231.5</ele>
        <time>2022-04-14T13:58:02Z</time>
      </trkpt>
      <trkpt lat="42.7985830" lon="-8.5829050">
        <ele>231.3</ele>
        <time>2022-04-14T13:58:03Z</time>
      </trkpt>
      <trkpt lat="42.7986240" lon="-8.5828890">
        <ele>231.1</ele>
        <time>2022-04-14T13:58:04Z</time>
      </trkpt>
      <trkpt lat="42.7987970" lon="-8.5828410">
        <ele>230.4</ele>
        <time>2022-04-14T13:58:05Z</time>
      </trkpt>
      <trkpt lat="42.7988860" lon="-8.5828250">
        <ele>230.0</ele>
        <time>2022-04-14T13:58:06Z</time>
      </trkpt>
      <trkpt lat="42.7989750" lon="-8.5828090">
        <ele>229.7</ele>
        <time>2022-04-14T13:58:07Z</time>
      </trkpt>
      <trkpt lat="42.7990680" lon="-8.5828030">
        <ele>229.4</ele>
        <time>2022-04-14T13:58:08Z</time>
      </trkpt>
      <trkpt lat="42.7991110" lon="-8.5828010">
        <ele>229.4</ele>
        <time>2022-04-14T13:58:09Z</time>
      </trkpt>
      <trkpt lat="42.7991540" lon="-8.5827980">
        <ele>229.3</ele>
        <time>2022-04-14T13:58:10Z</time>
      </trkpt>
      <trkpt lat="42.7992930" lon="-8.5827970">
        <ele>229.0</ele>
        <time>2022-04-14T13:58:11Z</time>
      </trkpt>
      <trkpt lat="42.7993470" lon="-8.5828000">
        <ele>228.8</ele>
        <time>2022-04-14T13:58:12Z</time>
      </trkpt>
      <trkpt lat="42.7994000" lon="-8.5828040">
        <ele>228.7</ele>
        <time>2022-04-14T13:58:13Z</time>
      </trkpt>
      <trkpt lat="42.7994520" lon="-8.5828130">
        <ele>228.5</ele>
        <time>2022-04-14T13:58:14Z</time>
      </trkpt>
      <trkpt lat="42.7995040" lon="-8.5828220">
        <ele>228.4</ele>
        <time>2022-04-14T13:58:15Z</time>
      </trkpt>
      <trkpt lat="42.7995560" lon="-8.5828310">
        <ele>228.2</ele>
        <time>2022-04-14T13:58:16Z</time>
      </trkpt>
      <trkpt lat="42.7997530" lon="-8.5828620">
        <ele>225.0</ele>
        <time>2022-04-14T13:58:17Z</time>
      </trkpt>
      <trkpt lat="42.7997940" lon="-8.5828670">
        <ele>225.0</ele>
        <time>2022-04-14T13:58:18Z</time>
      </trkpt>
      <trkpt lat="42.7998340" lon="-8.5828720">
        <ele>225.0</ele>
        <time>2022-04-14T13:58:19Z</time>
      </trkpt>
      <trkpt lat="42.7998330" lon="-8.5828450">
        <ele>225.0</ele>
        <time>2022-04-14T13:58:20Z</time>
      </trkpt>
      <trkpt lat="42.7998310" lon="-8.5828180">
        <ele>225.0</ele>
        <time>2022-04-14T13:58:21Z</time>
      </trkpt>
      <trkpt lat="42.7998300" lon="-8.5827910">
        <ele>225.0</ele>
        <time>2022-04-14T13:58:22Z</time>
      </trkpt>
      <trkpt lat="42.7998290" lon="-8.5827650">
        <ele>226.2</ele>
        <time>2022-04-14T13:58:23Z</time>
      </trkpt>
      <trkpt lat="42.7998280" lon="-8.5827380">
        <ele>226.3</ele>
        <time>2022-04-14T13:58:24Z</time>
      </trkpt>
      <trkpt lat="42.7998100" lon="-8.5827320">
        <ele>226.4</ele>
        <time>2022-04-14T13:58:25Z</time>
      </trkpt>
      <trkpt lat="42.7997930" lon="-8.5827250">
        <ele>226.4</ele>
        <time>2022-04-14T13:58:26Z</time>
      </trkpt>
      <trkpt lat="42.7997750" lon="-8.5827190">
        <ele>226.5</ele>
        <time>2022-04-14T13:58:27Z</time>
      </trkpt>
      <trkpt lat="42.7996980" lon="-8.5826870">
        <ele>226.5</ele>
        <time>2022-04-14T13:58:28Z</time>
      </trkpt>
      <trkpt lat="42.7996730" lon="-8.5826720">
        <ele>226.5</ele>
        <time>2022-04-14T13:58:29Z</time>
      </trkpt>
      <trkpt lat="42.7995680" lon="-8.5825850">
        <ele>226.4</ele>
        <time>2022-04-14T13:58:30Z</time>
      </trkpt>
      <trkpt lat="42.7995110" lon="-8.5825270">
        <ele>226.2</ele>
        <time>2022-04-14T13:58:31Z</time>
      </trkpt>
      <trkpt lat="42.7994540" lon="-8.5824690">
        <ele>226.0</ele>
        <time>2022-04-14T13:58:32Z</time>
      </trkpt>
      <trkpt lat="42.7993960" lon="-8.5824100">
        <ele>225.8</ele>
        <time>2022-04-14T13:58:33Z</time>
      </trkpt>
      <trkpt lat="42.7993660" lon="-8.5823820">
        <ele>225.7</ele>
        <time>2022-04-14T13:58:34Z</time>
      </trkpt>
      <trkpt lat="42.7993360" lon="-8.5823540">
        <ele>225.6</ele>
        <time>2022-04-14T13:58:35Z</time>
      </trkpt>
      <trkpt lat="42.7992440" lon="-8.5822670">
        <ele>225.2</ele>
        <time>2022-04-14T13:58:36Z</time>
      </trkpt>
      <trkpt lat="42.7992100" lon="-8.5822350">
        <ele>225.1</ele>
        <time>2022-04-14T13:58:37Z</time>
      </trkpt>
      <trkpt lat="42.7990750" lon="-8.5821120">
        <ele>224.6</ele>
        <time>2022-04-14T13:58:38Z</time>
      </trkpt>
      <trkpt lat="42.7990060" lon="-8.5820500">
        <ele>224.3</ele>
        <time>2022-04-14T13:58:39Z</time>
      </trkpt>
      <trkpt lat="42.7989370" lon="-8.5819890">
        <ele>224.0</ele>
        <time>2022-04-14T13:58:40Z</time>
      </trkpt>
      <trkpt lat="42.7988330" lon="-8.5818990">
        <ele>223.5</ele>
        <time>2022-04-14T13:58:41Z</time>
      </trkpt>
      <trkpt lat="42.7987980" lon="-8.5818700">
        <ele>223.3</ele>
        <time>2022-04-14T13:58:42Z</time>
      </trkpt>
      <trkpt lat="42.7987270" lon="-8.5818120">
        <ele>222.8</ele>
        <time>2022-04-14T13:58:43Z</time>
      </trkpt>
      <trkpt lat="42.7985680" lon="-8.5816740">
        <ele>221.6</ele>
        <time>2022-04-14T13:58:44Z</time>
      </trkpt>
      <trkpt lat="42.7985550" lon="-8.5816630">
        <ele>221.5</ele>
        <time>2022-04-14T13:58:45Z</time>
      </trkpt>
      <trkpt lat="42.7985420" lon="-8.5816510">
        <ele>221.4</ele>
        <time>2022-04-14T13:58:46Z</time>
      </trkpt>
      <trkpt lat="42.7984170" lon="-8.5815440">
        <ele>220.2</ele>
        <time>2022-04-14T13:58:47Z</time>
      </trkpt>
      <trkpt lat="42.7983310" lon="-8.5814710">
        <ele>219.3</ele>
        <time>2022-04-14T13:58:48Z</time>
      </trkpt>
      <trkpt lat="42.7982440" lon="-8.5813990">
        <ele>218.3</ele>
        <time>2022-04-14T13:58:49Z</time>
      </trkpt>
      <trkpt lat="42.7981580" lon="-8.5813260">
        <ele>217.3</ele>
        <time>2022-04-14T13:58:50Z</time>
      </trkpt>
      <trkpt lat="42.7980640" lon="-8.5812570">
        <ele>216.4</ele>
        <time>2022-04-14T13:58:51Z</time>
      </trkpt>
      <trkpt lat="42.7978690" lon="-8.5811040">
        <ele>215.3</ele>
        <time>2022-04-14T13:58:52Z</time>
      </trkpt>
      <trkpt lat="42.7977330" lon="-8.5809840">
        <ele>214.7</ele>
        <time>2022-04-14T13:58:53Z</time>
      </trkpt>
      <trkpt lat="42.7976900" lon="-8.5809470">
        <ele>214.5</ele>
        <time>2022-04-14T13:58:54Z</time>
      </trkpt>
      <trkpt lat="42.7976030" lon="-8.5808730">
        <ele>214.3</ele>
        <time>2022-04-14T13:58:55Z</time>
      </trkpt>
      <trkpt lat="42.7975240" lon="-8.5808040">
        <ele>214.0</ele>
        <time>2022-04-14T13:58:56Z</time>
      </trkpt>
      <trkpt lat="42.7974340" lon="-8.5807050">
        <ele>214.0</ele>
        <time>2022-04-14T13:58:57Z</time>
      </trkpt>
      <trkpt lat="42.7973570" lon="-8.5806140">
        <ele>214.1</ele>
        <time>2022-04-14T13:58:58Z</time>
      </trkpt>
      <trkpt lat="42.7973240" lon="-8.5805640">
        <ele>214.1</ele>
        <time>2022-04-14T13:58:59Z</time>
      </trkpt>
      <trkpt lat="42.7972900" lon="-8.5805140">
        <ele>214.1</ele>
        <time>2022-04-14T13:59:00Z</time>
      </trkpt>
      <trkpt lat="42.7971760" lon="-8.5803130">
        <ele>214.1</ele>
        <time>2022-04-14T13:59:01Z</time>
      </trkpt>
      <trkpt lat="42.7971280" lon="-8.5802070">
        <ele>214.0</ele>
        <time>2022-04-14T13:59:02Z</time>
      </trkpt>
      <trkpt lat="42.7970830" lon="-8.5800980">
        <ele>213.9</ele>
        <time>2022-04-14T13:59:03Z</time>
      </trkpt>
      <trkpt lat="42.7970480" lon="-8.5800210">
        <ele>213.8</ele>
        <time>2022-04-14T13:59:04Z</time>
      </trkpt>
      <trkpt lat="42.7970130" lon="-8.5799440">
        <ele>213.7</ele>
        <time>2022-04-14T13:59:05Z</time>
      </trkpt>
      <trkpt lat="42.7969180" lon="-8.5797400">
        <ele>213.3</ele>
        <time>2022-04-14T13:59:06Z</time>
      </trkpt>
      <trkpt lat="42.7968940" lon="-8.5796890">
        <ele>213.2</ele>
        <time>2022-04-14T13:59:07Z</time>
      </trkpt>
      <trkpt lat="42.7968210" lon="-8.5795360">
        <ele>213.0</ele>
        <time>2022-04-14T13:59:08Z</time>
      </trkpt>
      <trkpt lat="42.7967990" lon="-8.5794830">
        <ele>212.9</ele>
        <time>2022-04-14T13:59:09Z</time>
      </trkpt>
      <trkpt lat="42.7967760" lon="-8.5794310">
        <ele>212.8</ele>
        <time>2022-04-14T13:59:10Z</time>
      </trkpt>
      <trkpt lat="42.7967070" lon="-8.5792730">
        <ele>212.6</ele>
        <time>2022-04-14T13:59:11Z</time>
      </trkpt>
      <trkpt lat="42.7966540" lon="-8.5791660">
        <ele>212.4</ele>
        <time>2022-04-14T13:59:12Z</time>
      </trkpt>
      <trkpt lat="42.7966030" lon="-8.5790620">
        <ele>212.4</ele>
        <time>2022-04-14T13:59:13Z</time>
      </trkpt>
      <trkpt lat="42.7965530" lon="-8.5789560">
        <ele>212.3</ele>
        <time>2022-04-14T13:59:14Z</time>
      </trkpt>
      <trkpt lat="42.7965090" lon="-8.5788560">
        <ele>212.3</ele>
        <time>2022-04-14T13:59:15Z</time>
      </trkpt>
      <trkpt lat="42.7964640" lon="-8.5787560">
        <ele>212.1</ele>
        <time>2022-04-14T13:59:16Z</time>
      </trkpt>
      <trkpt lat="42.7964110" lon="-8.5786430">
        <ele>212.0</ele>
        <time>2022-04-14T13:59:17Z</time>
      </trkpt>
      <trkpt lat="42.7963590" lon="-8.5785420">
        <ele>211.8</ele>
        <time>2022-04-14T13:59:18Z</time>
      </trkpt>
      <trkpt lat="42.7962930" lon="-8.5784530">
        <ele>211.6</ele>
        <time>2022-04-14T13:59:19Z</time>
      </trkpt>
      <trkpt lat="42.7962270" lon="-8.5783650">
        <ele>211.5</ele>
        <time>2022-04-14T13:59:20Z</time>
      </trkpt>
      <trkpt lat="42.7961890" lon="-8.5783320">
        <ele>211.4</ele>
        <time>2022-04-14T13:59:21Z</time>
      </trkpt>
      <trkpt lat="42.7961500" lon="-8.5782990">
        <ele>211.4</ele>
        <time>2022-04-14T13:59:22Z</time>
      </trkpt>
      <trkpt lat="42.7960730" lon="-8.5782330">
        <ele>211.3</ele>
        <time>2022-04-14T13:59:23Z</time>
      </trkpt>
      <trkpt lat="42.7958670" lon="-8.5781560">
        <ele>211.2</ele>
        <time>2022-04-14T13:59:24Z</time>
      </trkpt>
      <trkpt lat="42.7958280" lon="-8.5781420">
        <ele>211.2</ele>
        <time>2022-04-14T13:59:25Z</time>
      </trkpt>
      <trkpt lat="42.7957240" lon="-8.5781050">
        <ele>211.2</ele>
        <time>2022-04-14T13:59:26Z</time>
      </trkpt>
      <trkpt lat="42.7956980" lon="-8.5780960">
        <ele>211.2</ele>
        <time>2022-04-14T13:59:27Z</time>
      </trkpt>
      <trkpt lat="42.7956720" lon="-8.5780870">
        <ele>211.2</ele>
        <time>2022-04-14T13:59:28Z</time>
      </trkpt>
      <trkpt lat="42.7955930" lon="-8.5780590">
        <ele>211.3</ele>
        <time>2022-04-14T13:59:29Z</time>
      </trkpt>
      <trkpt lat="42.7955260" lon="-8.5780370">
        <ele>211.3</ele>
        <time>2022-04-14T13:59:30Z</time>
      </trkpt>
      <trkpt lat="42.7954580" lon="-8.5780150">
        <ele>211.3</ele>
        <time>2022-04-14T13:59:31Z</time>
      </trkpt>
      <trkpt lat="42.7952790" lon="-8.5779620">
        <ele>211.3</ele>
        <time>2022-04-14T13:59:32Z</time>
      </trkpt>
      <trkpt lat="42.7952340" lon="-8.5779530">
        <ele>211.3</ele>
        <time>2022-04-14T13:59:33Z</time>
      </trkpt>
      <trkpt lat="42.7951450" lon="-8.5779340">
        <ele>211.3</ele>
        <time>2022-04-14T13:59:34Z</time>
      </trkpt>
      <trkpt lat="42.7949620" lon="-8.5778660">
        <ele>211.3</ele>
        <time>2022-04-14T13:59:35Z</time>
      </trkpt>
      <trkpt lat="42.7949250" lon="-8.5778560">
        <ele>211.3</ele>
        <time>2022-04-14T13:59:36Z</time>
      </trkpt>
      <trkpt lat="42.7948260" lon="-8.5778260">
        <ele>211.2</ele>
        <time>2022-04-14T13:59:37Z</time>
      </trkpt>
      <trkpt lat="42.7948020" lon="-8.5778150">
        <ele>211.2</ele>
        <time>2022-04-14T13:59:38Z</time>
      </trkpt>
      <trkpt lat="42.7947790" lon="-8.5778040">
        <ele>211.2</ele>
        <time>2022-04-14T13:59:39Z</time>
      </trkpt>
      <trkpt lat="42.7947080" lon="-8.5777700">
        <ele>211.1</ele>
        <time>2022-04-14T13:59:40Z</time>
      </trkpt>
      <trkpt lat="42.7945240" lon="-8.5777140">
        <ele>210.9</ele>
        <time>2022-04-14T13:59:41Z</time>
      </trkpt>
      <trkpt lat="42.7944870" lon="-8.5777040">
        <ele>210.8</ele>
        <time>2022-04-14T13:59:42Z</time>
      </trkpt>
      <trkpt lat="42.7943860" lon="-8.5776750">
        <ele>210.6</ele>
        <time>2022-04-14T13:59:43Z</time>
      </trkpt>
      <trkpt lat="42.7943600" lon="-8.5776650">
        <ele>210.5</ele>
        <time>2022-04-14T13:59:44Z</time>
      </trkpt>
      <trkpt lat="42.7943340" lon="-8.5776560">
        <ele>210.4</ele>
        <time>2022-04-14T13:59:45Z</time>
      </trkpt>
      <trkpt lat="42.7942570" lon="-8.5776270">
        <ele>210.2</ele>
        <time>2022-04-14T13:59:46Z</time>
      </trkpt>
      <trkpt lat="42.7941020" lon="-8.5776020">
        <ele>209.8</ele>
        <time>2022-04-14T13:59:47Z</time>
      </trkpt>
      <trkpt lat="42.7940490" lon="-8.5775950">
        <ele>209.6</ele>
        <time>2022-04-14T13:59:48Z</time>
      </trkpt>
      <trkpt lat="42.7939950" lon="-8.5775890">
        <ele>209.4</ele>
        <time>2022-04-14T13:59:49Z</time>
      </trkpt>
      <trkpt lat="42.7939410" lon="-8.5775830">
        <ele>209.3</ele>
        <time>2022-04-14T13:59:50Z</time>
      </trkpt>
      <trkpt lat="42.7938610" lon="-8.5775810">
        <ele>209.0</ele>
        <time>2022-04-14T13:59:51Z</time>
      </trkpt>
      <trkpt lat="42.7937800" lon="-8.5775790">
        <ele>208.7</ele>
        <time>2022-04-14T13:59:52Z</time>
      </trkpt>
      <trkpt lat="42.7936990" lon="-8.5775770">
        <ele>208.3</ele>
        <time>2022-04-14T13:59:53Z</time>
      </trkpt>
      <trkpt lat="42.7936190" lon="-8.5775750">
        <ele>208.0</ele>
        <time>2022-04-14T13:59:54Z</time>
      </trkpt>
      <trkpt lat="42.7935210" lon="-8.5775790">
        <ele>207.6</ele>
        <time>2022-04-14T13:59:55Z</time>
      </trkpt>
      <trkpt lat="42.7934280" lon="-8.5775890">
        <ele>207.1</ele>
        <time>2022-04-14T13:59:56Z</time>
      </trkpt>
      <trkpt lat="42.7933320" lon="-8.5775940">
        <ele>206.7</ele>
        <time>2022-04-14T13:59:57Z</time>
      </trkpt>
      <trkpt lat="42.7933320" lon="-8.5775940">
        <ele>206.7</ele>
        <time>2022-04-14T13:59:58Z</time>
      </trkpt>
      <trkpt lat="42.7930350" lon="-8.5776140">
        <ele>205.6</ele>
        <time>2022-04-14T13:59:59Z</time>
      </trkpt>
      <trkpt lat="42.7930350" lon="-8.5776140">
        <ele>205.6</ele>
        <time>2022-04-14T14:00:00Z</time>
      </trkpt>
      <trkpt lat="42.7929290" lon="-8.5776280">
        <ele>205.3</ele>
        <time>2022-04-14T14:00:01Z</time>
      </trkpt>
      <trkpt lat="42.7927710" lon="-8.5776190">
        <ele>205.0</ele>
        <time>2022-04-14T14:00:02Z</time>
      </trkpt>
      <trkpt lat="42.7927210" lon="-8.5776100">
        <ele>204.9</ele>
        <time>2022-04-14T14:00:03Z</time>
      </trkpt>
      <trkpt lat="42.7926200" lon="-8.5775930">
        <ele>204.8</ele>
        <time>2022-04-14T14:00:04Z</time>
      </trkpt>
      <trkpt lat="42.7925330" lon="-8.5775460">
        <ele>204.7</ele>
        <time>2022-04-14T14:00:05Z</time>
      </trkpt>
      <trkpt lat="42.7924510" lon="-8.5774880">
        <ele>204.5</ele>
        <time>2022-04-14T14:00:06Z</time>
      </trkpt>
      <trkpt lat="42.7923270" lon="-8.5774090">
        <ele>204.2</ele>
        <time>2022-04-14T14:00:07Z</time>
      </trkpt>
      <trkpt lat="42.7922860" lon="-8.5773830">
        <ele>204.0</ele>
        <time>2022-04-14T14:00:08Z</time>
      </trkpt>
      <trkpt lat="42.7922030" lon="-8.5773310">
        <ele>203.7</ele>
        <time>2022-04-14T14:00:09Z</time>
      </trkpt>
      <trkpt lat="42.7921180" lon="-8.5772850">
        <ele>203.4</ele>
        <time>2022-04-14T14:00:10Z</time>
      </trkpt>
      <trkpt lat="42.7920350" lon="-8.5772250">
        <ele>203.0</ele>
        <time>2022-04-14T14:00:11Z</time>
      </trkpt>
      <trkpt lat="42.7918850" lon="-8.5771200">
        <ele>202.4</ele>
        <time>2022-04-14T14:00:12Z</time>
      </trkpt>
      <trkpt lat="42.7918190" lon="-8.5770760">
        <ele>202.2</ele>
        <time>2022-04-14T14:00:13Z</time>
      </trkpt>
      <trkpt lat="42.7916850" lon="-8.5769890">
        <ele>201.7</ele>
        <time>2022-04-14T14:00:14Z</time>
      </trkpt>
      <trkpt lat="42.7915990" lon="-8.5769240">
        <ele>201.4</ele>
        <time>2022-04-14T14:00:15Z</time>
      </trkpt>
      <trkpt lat="42.7915570" lon="-8.5768880">
        <ele>201.3</ele>
        <time>2022-04-14T14:00:16Z</time>
      </trkpt>
      <trkpt lat="42.7915140" lon="-8.5768520">
        <ele>201.1</ele>
        <time>2022-04-14T14:00:17Z</time>
      </trkpt>
      <trkpt lat="42.7914020" lon="-8.5767280">
        <ele>200.8</ele>
        <time>2022-04-14T14:00:18Z</time>
      </trkpt>
      <trkpt lat="42.7912890" lon="-8.5766040">
        <ele>200.5</ele>
        <time>2022-04-14T14:00:19Z</time>
      </trkpt>
      <trkpt lat="42.7911800" lon="-8.5764780">
        <ele>200.1</ele>
        <time>2022-04-14T14:00:20Z</time>
      </trkpt>
      <trkpt lat="42.7911420" lon="-8.5764370">
        <ele>200.0</ele>
        <time>2022-04-14T14:00:21Z</time>
      </trkpt>
      <trkpt lat="42.7911090" lon="-8.5763870">
        <ele>199.9</ele>
        <time>2022-04-14T14:00:22Z</time>
      </trkpt>
      <trkpt lat="42.7910750" lon="-8.5763360">
        <ele>199.8</ele>
        <time>2022-04-14T14:00:23Z</time>
      </trkpt>
      <trkpt lat="42.7910080" lon="-8.5762350">
        <ele>199.6</ele>
        <time>2022-04-14T14:00:24Z</time>
      </trkpt>
      <trkpt lat="42.7909380" lon="-8.5761330">
        <ele>199.4</ele>
        <time>2022-04-14T14:00:25Z</time>
      </trkpt>
      <trkpt lat="42.7908760" lon="-8.5760420">
        <ele>199.3</ele>
        <time>2022-04-14T14:00:26Z</time>
      </trkpt>
      <trkpt lat="42.7908150" lon="-8.5759510">
        <ele>199.1</ele>
        <time>2022-04-14T14:00:27Z</time>
      </trkpt>
      <trkpt lat="42.7907530" lon="-8.5758600">
        <ele>199.0</ele>
        <time>2022-04-14T14:00:28Z</time>
      </trkpt>
      <trkpt lat="42.7906880" lon="-8.5757650">
        <ele>198.9</ele>
        <time>2022-04-14T14:00:29Z</time>
      </trkpt>
      <trkpt lat="42.7906380" lon="-8.5757030">
        <ele>198.9</ele>
        <time>2022-04-14T14:00:30Z</time>
      </trkpt>
      <trkpt lat="42.7905890" lon="-8.5756410">
        <ele>198.8</ele>
        <time>2022-04-14T14:00:31Z</time>
      </trkpt>
      <trkpt lat="42.7904890" lon="-8.5755160">
        <ele>198.8</ele>
        <time>2022-04-14T14:00:32Z</time>
      </trkpt>
      <trkpt lat="42.7904120" lon="-8.5754660">
        <ele>198.8</ele>
        <time>2022-04-14T14:00:33Z</time>
      </trkpt>
      <trkpt lat="42.7903350" lon="-8.5754150">
        <ele>198.9</ele>
        <time>2022-04-14T14:00:34Z</time>
      </trkpt>
      <trkpt lat="42.7902580" lon="-8.5753640">
        <ele>198.9</ele>
        <time>2022-04-14T14:00:35Z</time>
      </trkpt>
      <trkpt lat="42.7901810" lon="-8.5753210">
        <ele>199.0</ele>
        <time>2022-04-14T14:00:36Z</time>
      </trkpt>
      <trkpt lat="42.7900330" lon="-8.5752450">
        <ele>199.1</ele>
        <time>2022-04-14T14:00:37Z</time>
      </trkpt>
      <trkpt lat="42.7900330" lon="-8.5752450">
        <ele>199.1</ele>
        <time>2022-04-14T14:00:38Z</time>
      </trkpt>
      <trkpt lat="42.7899620" lon="-8.5752110">
        <ele>199.1</ele>
        <time>2022-04-14T14:00:39Z</time>
      </trkpt>
      <trkpt lat="42.7898920" lon="-8.5751770">
        <ele>199.2</ele>
        <time>2022-04-14T14:00:40Z</time>
      </trkpt>
      <trkpt lat="42.7898210" lon="-8.5751430">
        <ele>199.2</ele>
        <time>2022-04-14T14:00:41Z</time>
      </trkpt>
      <trkpt lat="42.7897510" lon="-8.5751090">
        <ele>199.3</ele>
        <time>2022-04-14T14:00:42Z</time>
      </trkpt>
      <trkpt lat="42.7895890" lon="-8.5750260">
        <ele>199.3</ele>
        <time>2022-04-14T14:00:43Z</time>
      </trkpt>
      <trkpt lat="42.7895580" lon="-8.5750080">
        <ele>199.2</ele>
        <time>2022-04-14T14:00:44Z</time>
      </trkpt>
      <trkpt lat="42.7894730" lon="-8.5749560">
        <ele>199.2</ele>
        <time>2022-04-14T14:00:45Z</time>
      </trkpt>
      <trkpt lat="42.7894510" lon="-8.5749420">
        <ele>199.2</ele>
        <time>2022-04-14T14:00:46Z</time>
      </trkpt>
      <trkpt lat="42.7894300" lon="-8.5749270">
        <ele>199.1</ele>
        <time>2022-04-14T14:00:47Z</time>
      </trkpt>
      <trkpt lat="42.7893650" lon="-8.5748840">
        <ele>199.1</ele>
        <time>2022-04-14T14:00:48Z</time>
      </trkpt>
      <trkpt lat="42.7892210" lon="-8.5747430">
        <ele>198.7</ele>
        <time>2022-04-14T14:00:49Z</time>
      </trkpt>
      <trkpt lat="42.7891950" lon="-8.5747100">
        <ele>198.6</ele>
        <time>2022-04-14T14:00:50Z</time>
      </trkpt>
      <trkpt lat="42.7891180" lon="-8.5745980">
        <ele>198.2</ele>
        <time>2022-04-14T14:00:51Z</time>
      </trkpt>
      <trkpt lat="42.7890950" lon="-8.5745540">
        <ele>198.0</ele>
        <time>2022-04-14T14:00:52Z</time>
      </trkpt>
      <trkpt lat="42.7890320" lon="-8.5744350">
        <ele>197.6</ele>
        <time>2022-04-14T14:00:53Z</time>
      </trkpt>
      <trkpt lat="42.7890160" lon="-8.5744030">
        <ele>197.5</ele>
        <time>2022-04-14T14:00:54Z</time>
      </trkpt>
      <trkpt lat="42.7890000" lon="-8.5743720">
        <ele>197.3</ele>
        <time>2022-04-14T14:00:55Z</time>
      </trkpt>
      <trkpt lat="42.7889520" lon="-8.5742780">
        <ele>196.9</ele>
        <time>2022-04-14T14:00:56Z</time>
      </trkpt>
      <trkpt lat="42.7889150" lon="-8.5742090">
        <ele>196.6</ele>
        <time>2022-04-14T14:00:57Z</time>
      </trkpt>
      <trkpt lat="42.7888780" lon="-8.5741400">
        <ele>196.2</ele>
        <time>2022-04-14T14:00:58Z</time>
      </trkpt>
      <trkpt lat="42.7888040" lon="-8.5740010">
        <ele>195.5</ele>
        <time>2022-04-14T14:00:59Z</time>
      </trkpt>
      <trkpt lat="42.7888040" lon="-8.5740010">
        <ele>195.5</ele>
        <time>2022-04-14T14:01:00Z</time>
      </trkpt>
      <trkpt lat="42.7886990" lon="-8.5737990">
        <ele>194.5</ele>
        <time>2022-04-14T14:01:01Z</time>
      </trkpt>
      <trkpt lat="42.7886430" lon="-8.5736990">
        <ele>193.9</ele>
        <time>2022-04-14T14:01:02Z</time>
      </trkpt>
      <trkpt lat="42.7885870" lon="-8.5736020">
        <ele>193.4</ele>
        <time>2022-04-14T14:01:03Z</time>
      </trkpt>
      <trkpt lat="42.7885330" lon="-8.5735060">
        <ele>192.9</ele>
        <time>2022-04-14T14:01:04Z</time>
      </trkpt>
      <trkpt lat="42.7884790" lon="-8.5734090">
        <ele>192.3</ele>
        <time>2022-04-14T14:01:05Z</time>
      </trkpt>
      <trkpt lat="42.7884240" lon="-8.5733130">
        <ele>191.7</ele>
        <time>2022-04-14T14:01:06Z</time>
      </trkpt>
      <trkpt lat="42.7883700" lon="-8.5732170">
        <ele>191.1</ele>
        <time>2022-04-14T14:01:07Z</time>
      </trkpt>
      <trkpt lat="42.7883140" lon="-8.5731210">
        <ele>190.5</ele>
        <time>2022-04-14T14:01:08Z</time>
      </trkpt>
      <trkpt lat="42.7882450" lon="-8.5730040">
        <ele>189.8</ele>
        <time>2022-04-14T14:01:09Z</time>
      </trkpt>
      <trkpt lat="42.7881770" lon="-8.5728870">
        <ele>189.0</ele>
        <time>2022-04-14T14:01:10Z</time>
      </trkpt>
      <trkpt lat="42.7881080" lon="-8.5727710">
        <ele>188.3</ele>
        <time>2022-04-14T14:01:11Z</time>
      </trkpt>
      <trkpt lat="42.7880160" lon="-8.5726140">
        <ele>187.3</ele>
        <time>2022-04-14T14:01:12Z</time>
      </trkpt>
      <trkpt lat="42.7879830" lon="-8.5725540">
        <ele>187.0</ele>
        <time>2022-04-14T14:01:13Z</time>
      </trkpt>
      <trkpt lat="42.7879490" lon="-8.5724950">
        <ele>186.6</ele>
        <time>2022-04-14T14:01:14Z</time>
      </trkpt>
      <trkpt lat="42.7878350" lon="-8.5722900">
        <ele>185.4</ele>
        <time>2022-04-14T14:01:15Z</time>
      </trkpt>
      <trkpt lat="42.7877870" lon="-8.5722040">
        <ele>184.9</ele>
        <time>2022-04-14T14:01:16Z</time>
      </trkpt>
      <trkpt lat="42.7876920" lon="-8.5720320">
        <ele>183.8</ele>
        <time>2022-04-14T14:01:17Z</time>
      </trkpt>
      <trkpt lat="42.7876250" lon="-8.5719120">
        <ele>183.1</ele>
        <time>2022-04-14T14:01:18Z</time>
      </trkpt>
      <trkpt lat="42.7875640" lon="-8.5717950">
        <ele>182.4</ele>
        <time>2022-04-14T14:01:19Z</time>
      </trkpt>
      <trkpt lat="42.7875160" lon="-8.5717040">
        <ele>181.8</ele>
        <time>2022-04-14T14:01:20Z</time>
      </trkpt>
      <trkpt lat="42.7874670" lon="-8.5716130">
        <ele>181.3</ele>
        <time>2022-04-14T14:01:21Z</time>
      </trkpt>
      <trkpt lat="42.7873710" lon="-8.5714300">
        <ele>180.3</ele>
        <time>2022-04-14T14:01:22Z</time>
      </trkpt>
      <trkpt lat="42.7873090" lon="-8.5713200">
        <ele>179.7</ele>
        <time>2022-04-14T14:01:23Z</time>
      </trkpt>
      <trkpt lat="42.7872750" lon="-8.5712630">
        <ele>179.4</ele>
        <time>2022-04-14T14:01:24Z</time>
      </trkpt>
      <trkpt lat="42.7872410" lon="-8.5712060">
        <ele>179.1</ele>
        <time>2022-04-14T14:01:25Z</time>
      </trkpt>
      <trkpt lat="42.7871720" lon="-8.5710930">
        <ele>178.5</ele>
        <time>2022-04-14T14:01:26Z</time>
      </trkpt>
      <trkpt lat="42.7871000" lon="-8.5709750">
        <ele>177.9</ele>
        <time>2022-04-14T14:01:27Z</time>
      </trkpt>
      <trkpt lat="42.7870350" lon="-8.5708600">
        <ele>177.3</ele>
        <time>2022-04-14T14:01:28Z</time>
      </trkpt>
      <trkpt lat="42.7869390" lon="-8.5706980">
        <ele>176.5</ele>
        <time>2022-04-14T14:01:29Z</time>
      </trkpt>
      <trkpt lat="42.7869070" lon="-8.5706460">
        <ele>176.3</ele>
        <time>2022-04-14T14:01:30Z</time>
      </trkpt>
      <trkpt lat="42.7868410" lon="-8.5705440">
        <ele>175.7</ele>
        <time>2022-04-14T14:01:31Z</time>
      </trkpt>
      <trkpt lat="42.7867430" lon="-8.5703750">
        <ele>174.7</ele>
        <time>2022-04-14T14:01:32Z</time>
      </trkpt>
      <trkpt lat="42.7867100" lon="-8.5703200">
        <ele>174.4</ele>
        <time>2022-04-14T14:01:33Z</time>
      </trkpt>
      <trkpt lat="42.7866140" lon="-8.5701500">
        <ele>173.3</ele>
        <time>2022-04-14T14:01:34Z</time>
      </trkpt>
      <trkpt lat="42.7865830" lon="-8.5700910">
        <ele>172.9</ele>
        <time>2022-04-14T14:01:35Z</time>
      </trkpt>
      <trkpt lat="42.7865210" lon="-8.5699720">
        <ele>172.1</ele>
        <time>2022-04-14T14:01:36Z</time>
      </trkpt>
      <trkpt lat="42.7864530" lon="-8.5698580">
        <ele>171.1</ele>
        <time>2022-04-14T14:01:37Z</time>
      </trkpt>
      <trkpt lat="42.7863510" lon="-8.5696750">
        <ele>169.7</ele>
        <time>2022-04-14T14:01:38Z</time>
      </trkpt>
      <trkpt lat="42.7863170" lon="-8.5696110">
        <ele>169.2</ele>
        <time>2022-04-14T14:01:39Z</time>
      </trkpt>
      <trkpt lat="42.7862490" lon="-8.5694850">
        <ele>168.3</ele>
        <time>2022-04-14T14:01:40Z</time>
      </trkpt>
      <trkpt lat="42.7861800" lon="-8.5693580">
        <ele>167.4</ele>
        <time>2022-04-14T14:01:41Z</time>
      </trkpt>
      <trkpt lat="42.7860440" lon="-8.5691100">
        <ele>165.8</ele>
        <time>2022-04-14T14:01:42Z</time>
      </trkpt>
      <trkpt lat="42.7859930" lon="-8.5690170">
        <ele>165.1</ele>
        <time>2022-04-14T14:01:43Z</time>
      </trkpt>
      <trkpt lat="42.7859420" lon="-8.5689230">
        <ele>164.5</ele>
        <time>2022-04-14T14:01:44Z</time>
      </trkpt>
      <trkpt lat="42.7858400" lon="-8.5687360">
        <ele>163.3</ele>
        <time>2022-04-14T14:01:45Z</time>
      </trkpt>
      <trkpt lat="42.7857640" lon="-8.5686060">
        <ele>162.5</ele>
        <time>2022-04-14T14:01:46Z</time>
      </trkpt>
      <trkpt lat="42.7857120" lon="-8.5685160">
        <ele>161.9</ele>
        <time>2022-04-14T14:01:47Z</time>
      </trkpt>
      <trkpt lat="42.7856600" lon="-8.5684250">
        <ele>161.3</ele>
        <time>2022-04-14T14:01:48Z</time>
      </trkpt>
      <trkpt lat="42.7855550" lon="-8.5682450">
        <ele>160.2</ele>
        <time>2022-04-14T14:01:49Z</time>
      </trkpt>
      <trkpt lat="42.7855550" lon="-8.5682450">
        <ele>160.2</ele>
        <time>2022-04-14T14:01:50Z</time>
      </trkpt>
      <trkpt lat="42.7854960" lon="-8.5681080">
        <ele>159.5</ele>
        <time>2022-04-14T14:01:51Z</time>
      </trkpt>
      <trkpt lat="42.7854360" lon="-8.5679720">
        <ele>158.8</ele>
        <time>2022-04-14T14:01:52Z</time>
      </trkpt>
      <trkpt lat="42.7853770" lon="-8.5678360">
        <ele>158.1</ele>
        <time>2022-04-14T14:01:53Z</time>
      </trkpt>
      <trkpt lat="42.7853180" lon="-8.5677000">
        <ele>157.4</ele>
        <time>2022-04-14T14:01:54Z</time>
      </trkpt>
      <trkpt lat="42.7852590" lon="-8.5675640">
        <ele>156.8</ele>
        <time>2022-04-14T14:01:55Z</time>
      </trkpt>
      <trkpt lat="42.7851930" lon="-8.5673340">
        <ele>156.0</ele>
        <time>2022-04-14T14:01:56Z</time>
      </trkpt>
      <trkpt lat="42.7851710" lon="-8.5672640">
        <ele>155.7</ele>
        <time>2022-04-14T14:01:57Z</time>
      </trkpt>
      <trkpt lat="42.7851270" lon="-8.5671250">
        <ele>155.2</ele>
        <time>2022-04-14T14:01:58Z</time>
      </trkpt>
      <trkpt lat="42.7850920" lon="-8.5670020">
        <ele>154.7</ele>
        <time>2022-04-14T14:01:59Z</time>
      </trkpt>
      <trkpt lat="42.7850440" lon="-8.5667810">
        <ele>153.8</ele>
        <time>2022-04-14T14:02:00Z</time>
      </trkpt>
      <trkpt lat="42.7850290" lon="-8.5667070">
        <ele>153.5</ele>
        <time>2022-04-14T14:02:01Z</time>
      </trkpt>
      <trkpt lat="42.7850000" lon="-8.5665600">
        <ele>152.7</ele>
        <time>2022-04-14T14:02:02Z</time>
      </trkpt>
      <trkpt lat="42.7849630" lon="-8.5664220">
        <ele>151.8</ele>
        <time>2022-04-14T14:02:03Z</time>
      </trkpt>
      <trkpt lat="42.7849300" lon="-8.5662840">
        <ele>151.0</ele>
        <time>2022-04-14T14:02:04Z</time>
      </trkpt>
      <trkpt lat="42.7848610" lon="-8.5660800">
        <ele>149.6</ele>
        <time>2022-04-14T14:02:05Z</time>
      </trkpt>
      <trkpt lat="42.7848300" lon="-8.5660160">
        <ele>149.1</ele>
        <time>2022-04-14T14:02:06Z</time>
      </trkpt>
      <trkpt lat="42.7847700" lon="-8.5658880">
        <ele>148.2</ele>
        <time>2022-04-14T14:02:07Z</time>
      </trkpt>
      <trkpt lat="42.7847020" lon="-8.5657680">
        <ele>147.3</ele>
        <time>2022-04-14T14:02:08Z</time>
      </trkpt>
      <trkpt lat="42.7845960" lon="-8.5655820">
        <ele>146.0</ele>
        <time>2022-04-14T14:02:09Z</time>
      </trkpt>
      <trkpt lat="42.7845610" lon="-8.5655180">
        <ele>145.6</ele>
        <time>2022-04-14T14:02:10Z</time>
      </trkpt>
      <trkpt lat="42.7844890" lon="-8.5653890">
        <ele>144.7</ele>
        <time>2022-04-14T14:02:11Z</time>
      </trkpt>
      <trkpt lat="42.7844180" lon="-8.5652600">
        <ele>143.8</ele>
        <time>2022-04-14T14:02:12Z</time>
      </trkpt>
      <trkpt lat="42.7843090" lon="-8.5650720">
        <ele>142.5</ele>
        <time>2022-04-14T14:02:13Z</time>
      </trkpt>
      <trkpt lat="42.7842720" lon="-8.5650100">
        <ele>142.1</ele>
        <time>2022-04-14T14:02:14Z</time>
      </trkpt>
      <trkpt lat="42.7841980" lon="-8.5648870">
        <ele>141.4</ele>
        <time>2022-04-14T14:02:15Z</time>
      </trkpt>
      <trkpt lat="42.7841200" lon="-8.5647650">
        <ele>140.8</ele>
        <time>2022-04-14T14:02:16Z</time>
      </trkpt>
      <trkpt lat="42.7840440" lon="-8.5646410">
        <ele>140.2</ele>
        <time>2022-04-14T14:02:17Z</time>
      </trkpt>
      <trkpt lat="42.7839500" lon="-8.5644800">
        <ele>139.4</ele>
        <time>2022-04-14T14:02:18Z</time>
      </trkpt>
      <trkpt lat="42.7839310" lon="-8.5644450">
        <ele>139.3</ele>
        <time>2022-04-14T14:02:19Z</time>
      </trkpt>
      <trkpt lat="42.7838130" lon="-8.5642450">
        <ele>138.4</ele>
        <time>2022-04-14T14:02:20Z</time>
      </trkpt>
      <trkpt lat="42.7837310" lon="-8.5641130">
        <ele>137.9</ele>
        <time>2022-04-14T14:02:21Z</time>
      </trkpt>
      <trkpt lat="42.7836490" lon="-8.5639820">
        <ele>137.3</ele>
        <time>2022-04-14T14:02:22Z</time>
      </trkpt>
      <trkpt lat="42.7835680" lon="-8.5638510">
        <ele>136.7</ele>
        <time>2022-04-14T14:02:23Z</time>
      </trkpt>
      <trkpt lat="42.7834860" lon="-8.5637200">
        <ele>136.0</ele>
        <time>2022-04-14T14:02:24Z</time>
      </trkpt>
      <trkpt lat="42.7833760" lon="-8.5635160">
        <ele>135.2</ele>
        <time>2022-04-14T14:02:25Z</time>
      </trkpt>
      <trkpt lat="42.7833400" lon="-8.5634550">
        <ele>135.0</ele>
        <time>2022-04-14T14:02:26Z</time>
      </trkpt>
      <trkpt lat="42.7833040" lon="-8.5633950">
        <ele>134.7</ele>
        <time>2022-04-14T14:02:27Z</time>
      </trkpt>
      <trkpt lat="42.7832320" lon="-8.5632750">
        <ele>134.3</ele>
        <time>2022-04-14T14:02:28Z</time>
      </trkpt>
      <trkpt lat="42.7831260" lon="-8.5630940">
        <ele>133.8</ele>
        <time>2022-04-14T14:02:29Z</time>
      </trkpt>
      <trkpt lat="42.7830920" lon="-8.5630340">
        <ele>133.7</ele>
        <time>2022-04-14T14:02:30Z</time>
      </trkpt>
      <trkpt lat="42.7830240" lon="-8.5629130">
        <ele>133.5</ele>
        <time>2022-04-14T14:02:31Z</time>
      </trkpt>
      <trkpt lat="42.7829560" lon="-8.5627920">
        <ele>133.4</ele>
        <time>2022-04-14T14:02:32Z</time>
      </trkpt>
      <trkpt lat="42.7828820" lon="-8.5626790">
        <ele>133.4</ele>
        <time>2022-04-14T14:02:33Z</time>
      </trkpt>
      <trkpt lat="42.7828100" lon="-8.5625700">
        <ele>133.4</ele>
        <time>2022-04-14T14:02:34Z</time>
      </trkpt>
      <trkpt lat="42.7826840" lon="-8.5624030">
        <ele>133.6</ele>
        <time>2022-04-14T14:02:35Z</time>
      </trkpt>
      <trkpt lat="42.7826290" lon="-8.5623370">
        <ele>133.7</ele>
        <time>2022-04-14T14:02:36Z</time>
      </trkpt>
      <trkpt lat="42.7825210" lon="-8.5622060">
        <ele>133.9</ele>
        <time>2022-04-14T14:02:37Z</time>
      </trkpt>
      <trkpt lat="42.7825210" lon="-8.5622060">
        <ele>133.9</ele>
        <time>2022-04-14T14:02:38Z</time>
      </trkpt>
      <trkpt lat="42.7823430" lon="-8.5621170">
        <ele>134.0</ele>
        <time>2022-04-14T14:02:39Z</time>
      </trkpt>
      <trkpt lat="42.7823180" lon="-8.5621130">
        <ele>134.0</ele>
        <time>2022-04-14T14:02:40Z</time>
      </trkpt>
      <trkpt lat="42.7822920" lon="-8.5621090">
        <ele>134.0</ele>
        <time>2022-04-14T14:02:41Z</time>
      </trkpt>
      <trkpt lat="42.7822160" lon="-8.5620980">
        <ele>134.0</ele>
        <time>2022-04-14T14:02:42Z</time>
      </trkpt>
      <trkpt lat="42.7821750" lon="-8.5620980">
        <ele>134.0</ele>
        <time>2022-04-14T14:02:43Z</time>
      </trkpt>
      <trkpt lat="42.7821340" lon="-8.5620980">
        <ele>134.0</ele>
        <time>2022-04-14T14:02:44Z</time>
      </trkpt>
      <trkpt lat="42.7820120" lon="-8.5620980">
        <ele>134.0</ele>
        <time>2022-04-14T14:02:45Z</time>
      </trkpt>
      <trkpt lat="42.7819710" lon="-8.5620980">
        <ele>134.0</ele>
        <time>2022-04-14T14:02:46Z</time>
      </trkpt>
      <trkpt lat="42.7818090" lon="-8.5620960">
        <ele>133.9</ele>
        <time>2022-04-14T14:02:47Z</time>
      </trkpt>
      <trkpt lat="42.7817300" lon="-8.5620940">
        <ele>133.8</ele>
        <time>2022-04-14T14:02:48Z</time>
      </trkpt>
      <trkpt lat="42.7816500" lon="-8.5620920">
        <ele>133.7</ele>
        <time>2022-04-14T14:02:49Z</time>
      </trkpt>
      <trkpt lat="42.7815670" lon="-8.5620900">
        <ele>133.6</ele>
        <time>2022-04-14T14:02:50Z</time>
      </trkpt>
      <trkpt lat="42.7813840" lon="-8.5620540">
        <ele>133.2</ele>
        <time>2022-04-14T14:02:51Z</time>
      </trkpt>
      <trkpt lat="42.7813610" lon="-8.5620520">
        <ele>133.2</ele>
        <time>2022-04-14T14:02:52Z</time>
      </trkpt>
      <trkpt lat="42.7812650" lon="-8.5620390">
        <ele>132.9</ele>
        <time>2022-04-14T14:02:53Z</time>
      </trkpt>
      <trkpt lat="42.7812140" lon="-8.5620310">
        <ele>132.8</ele>
        <time>2022-04-14T14:02:54Z</time>
      </trkpt>
      <trkpt lat="42.7811140" lon="-8.5620140">
        <ele>132.4</ele>
        <time>2022-04-14T14:02:55Z</time>
      </trkpt>
      <trkpt lat="42.7810230" lon="-8.5619800">
        <ele>132.0</ele>
        <time>2022-04-14T14:02:56Z</time>
      </trkpt>
      <trkpt lat="42.7809350" lon="-8.5619450">
        <ele>131.7</ele>
        <time>2022-04-14T14:02:57Z</time>
      </trkpt>
      <trkpt lat="42.7807940" lon="-8.5618930">
        <ele>131.0</ele>
        <time>2022-04-14T14:02:58Z</time>
      </trkpt>
      <trkpt lat="42.7807510" lon="-8.5618720">
        <ele>130.8</ele>
        <time>2022-04-14T14:02:59Z</time>
      </trkpt>
      <trkpt lat="42.7806640" lon="-8.5618310">
        <ele>130.4</ele>
        <time>2022-04-14T14:03:00Z</time>
      </trkpt>
      <trkpt lat="42.7805800" lon="-8.5617850">
        <ele>129.9</ele>
        <time>2022-04-14T14:03:01Z</time>
      </trkpt>
      <trkpt lat="42.7804890" lon="-8.5617470">
        <ele>129.5</ele>
        <time>2022-04-14T14:03:02Z</time>
      </trkpt>
      <trkpt lat="42.7803920" lon="-8.5616950">
        <ele>129.0</ele>
        <time>2022-04-14T14:03:03Z</time>
      </trkpt>
      <trkpt lat="42.7802960" lon="-8.5616430">
        <ele>128.5</ele>
        <time>2022-04-14T14:03:04Z</time>
      </trkpt>
      <trkpt lat="42.7802000" lon="-8.5615920">
        <ele>128.0</ele>
        <time>2022-04-14T14:03:05Z</time>
      </trkpt>
      <trkpt lat="42.7800730" lon="-8.5615300">
        <ele>127.4</ele>
        <time>2022-04-14T14:03:06Z</time>
      </trkpt>
      <trkpt lat="42.7800290" lon="-8.5615100">
        <ele>127.1</ele>
        <time>2022-04-14T14:03:07Z</time>
      </trkpt>
      <trkpt lat="42.7799840" lon="-8.5614900">
        <ele>126.9</ele>
        <time>2022-04-14T14:03:08Z</time>
      </trkpt>
      <trkpt lat="42.7798250" lon="-8.5614210">
        <ele>126.1</ele>
        <time>2022-04-14T14:03:09Z</time>
      </trkpt>
      <trkpt lat="42.7797540" lon="-8.5613930">
        <ele>125.8</ele>
        <time>2022-04-14T14:03:10Z</time>
      </trkpt>
      <trkpt lat="42.7796120" lon="-8.5613360">
        <ele>125.1</ele>
        <time>2022-04-14T14:03:11Z</time>
      </trkpt>
      <trkpt lat="42.7795210" lon="-8.5612920">
        <ele>124.6</ele>
        <time>2022-04-14T14:03:12Z</time>
      </trkpt>
      <trkpt lat="42.7794260" lon="-8.5612480">
        <ele>124.1</ele>
        <time>2022-04-14T14:03:13Z</time>
      </trkpt>
      <trkpt lat="42.7793520" lon="-8.5612190">
        <ele>123.8</ele>
        <time>2022-04-14T14:03:14Z</time>
      </trkpt>
      <trkpt lat="42.7792780" lon="-8.5611910">
        <ele>123.4</ele>
        <time>2022-04-14T14:03:15Z</time>
      </trkpt>
      <trkpt lat="42.7791310" lon="-8.5611340">
        <ele>122.6</ele>
        <time>2022-04-14T14:03:16Z</time>
      </trkpt>
      <trkpt lat="42.7790260" lon="-8.5610960">
        <ele>122.0</ele>
        <time>2022-04-14T14:03:17Z</time>
      </trkpt>
      <trkpt lat="42.7789240" lon="-8.5610590">
        <ele>121.3</ele>
        <time>2022-04-14T14:03:18Z</time>
      </trkpt>
      <trkpt lat="42.7789240" lon="-8.5610590">
        <ele>121.3</ele>
        <time>2022-04-14T14:03:19Z</time>
      </trkpt>
      <trkpt lat="42.7789240" lon="-8.5610590">
        <ele>121.3</ele>
        <time>2022-04-14T14:03:20Z</time>
      </trkpt>
      <trkpt lat="42.7789020" lon="-8.5608990">
        <ele>120.5</ele>
        <time>2022-04-14T14:03:21Z</time>
      </trkpt>
      <trkpt lat="42.7788790" lon="-8.5607390">
        <ele>119.3</ele>
        <time>2022-04-14T14:03:22Z</time>
      </trkpt>
      <trkpt lat="42.7788570" lon="-8.5605790">
        <ele>118.5</ele>
        <time>2022-04-14T14:03:23Z</time>
      </trkpt>
      <trkpt lat="42.7788350" lon="-8.5604190">
        <ele>117.6</ele>
        <time>2022-04-14T14:03:24Z</time>
      </trkpt>
      <trkpt lat="42.7788130" lon="-8.5602590">
        <ele>116.8</ele>
        <time>2022-04-14T14:03:25Z</time>
      </trkpt>
      <trkpt lat="42.7787900" lon="-8.5600990">
        <ele>116.0</ele>
        <time>2022-04-14T14:03:26Z</time>
      </trkpt>
      <trkpt lat="42.7788140" lon="-8.5599310">
        <ele>115.2</ele>
        <time>2022-04-14T14:03:27Z</time>
      </trkpt>
      <trkpt lat="42.7788170" lon="-8.5596540">
        <ele>113.9</ele>
        <time>2022-04-14T14:03:28Z</time>
      </trkpt>
      <trkpt lat="42.7788180" lon="-8.5595350">
        <ele>113.4</ele>
        <time>2022-04-14T14:03:29Z</time>
      </trkpt>
      <trkpt lat="42.7788210" lon="-8.5592950">
        <ele>112.2</ele>
        <time>2022-04-14T14:03:30Z</time>
      </trkpt>
      <trkpt lat="42.7787990" lon="-8.5591320">
        <ele>111.2</ele>
        <time>2022-04-14T14:03:31Z</time>
      </trkpt>
      <trkpt lat="42.7787740" lon="-8.5590580">
        <ele>110.8</ele>
        <time>2022-04-14T14:03:32Z</time>
      </trkpt>
      <trkpt lat="42.7787500" lon="-8.5589840">
        <ele>110.3</ele>
        <time>2022-04-14T14:03:33Z</time>
      </trkpt>
      <trkpt lat="42.7787010" lon="-8.5588360">
        <ele>109.3</ele>
        <time>2022-04-14T14:03:34Z</time>
      </trkpt>
      <trkpt lat="42.7786290" lon="-8.5587110">
        <ele>108.3</ele>
        <time>2022-04-14T14:03:35Z</time>
      </trkpt>
      <trkpt lat="42.7785420" lon="-8.5585970">
        <ele>107.3</ele>
        <time>2022-04-14T14:03:36Z</time>
      </trkpt>
      <trkpt lat="42.7783690" lon="-8.5584730">
        <ele>105.7</ele>
        <time>2022-04-14T14:03:37Z</time>
      </trkpt>
      <trkpt lat="42.7783070" lon="-8.5584380">
        <ele>105.1</ele>
        <time>2022-04-14T14:03:38Z</time>
      </trkpt>
      <trkpt lat="42.7781820" lon="-8.5583690">
        <ele>104.0</ele>
        <time>2022-04-14T14:03:39Z</time>
      </trkpt>
      <trkpt lat="42.7779480" lon="-8.5582610">
        <ele>101.9</ele>
        <time>2022-04-14T14:03:40Z</time>
      </trkpt>
      <trkpt lat="42.7778510" lon="-8.5582180">
        <ele>101.0</ele>
        <time>2022-04-14T14:03:41Z</time>
      </trkpt>
      <trkpt lat="42.7776570" lon="-8.5581330">
        <ele>99.5</ele>
        <time>2022-04-14T14:03:42Z</time>
      </trkpt>
      <trkpt lat="42.7775280" lon="-8.5580780">
        <ele>98.6</ele>
        <time>2022-04-14T14:03:43Z</time>
      </trkpt>
      <trkpt lat="42.7774650" lon="-8.5580510">
        <ele>98.2</ele>
        <time>2022-04-14T14:03:44Z</time>
      </trkpt>
      <trkpt lat="42.7774020" lon="-8.5580230">
        <ele>97.8</ele>
        <time>2022-04-14T14:03:45Z</time>
      </trkpt>
      <trkpt lat="42.7772760" lon="-8.5579690">
        <ele>97.1</ele>
        <time>2022-04-14T14:03:46Z</time>
      </trkpt>
      <trkpt lat="42.7771510" lon="-8.5579140">
        <ele>96.5</ele>
        <time>2022-04-14T14:03:47Z</time>
      </trkpt>
      <trkpt lat="42.7770270" lon="-8.5578650">
        <ele>95.9</ele>
        <time>2022-04-14T14:03:48Z</time>
      </trkpt>
      <trkpt lat="42.7769030" lon="-8.5578160">
        <ele>95.4</ele>
        <time>2022-04-14T14:03:49Z</time>
      </trkpt>
      <trkpt lat="42.7767790" lon="-8.5577670">
        <ele>95.0</ele>
        <time>2022-04-14T14:03:50Z</time>
      </trkpt>
      <trkpt lat="42.7766560" lon="-8.5577180">
        <ele>94.6</ele>
        <time>2022-04-14T14:03:51Z</time>
      </trkpt>
      <trkpt lat="42.7765320" lon="-8.5576680">
        <ele>94.2</ele>
        <time>2022-04-14T14:03:52Z</time>
      </trkpt>
      <trkpt lat="42.7764070" lon="-8.5576090">
        <ele>93.9</ele>
        <time>2022-04-14T14:03:53Z</time>
      </trkpt>
      <trkpt lat="42.7762960" lon="-8.5575540">
        <ele>93.7</ele>
        <time>2022-04-14T14:03:54Z</time>
      </trkpt>
      <trkpt lat="42.7761930" lon="-8.5575060">
        <ele>93.6</ele>
        <time>2022-04-14T14:03:55Z</time>
      </trkpt>
      <trkpt lat="42.7760510" lon="-8.5574330">
        <ele>93.4</ele>
        <time>2022-04-14T14:03:56Z</time>
      </trkpt>
      <trkpt lat="42.7760060" lon="-8.5574080">
        <ele>93.4</ele>
        <time>2022-04-14T14:03:57Z</time>
      </trkpt>
      <trkpt lat="42.7759170" lon="-8.5573570">
        <ele>93.2</ele>
        <time>2022-04-14T14:03:58Z</time>
      </trkpt>
      <trkpt lat="42.7758200" lon="-8.5573140">
        <ele>93.1</ele>
        <time>2022-04-14T14:03:59Z</time>
      </trkpt>
      <trkpt lat="42.7757270" lon="-8.5572750">
        <ele>93.1</ele>
        <time>2022-04-14T14:04:00Z</time>
      </trkpt>
      <trkpt lat="42.7756400" lon="-8.5572340">
        <ele>92.9</ele>
        <time>2022-04-14T14:04:01Z</time>
      </trkpt>
      <trkpt lat="42.7756400" lon="-8.5572340">
        <ele>92.9</ele>
        <time>2022-04-14T14:04:02Z</time>
      </trkpt>
      <trkpt lat="42.7754780" lon="-8.5571480">
        <ele>92.8</ele>
        <time>2022-04-14T14:04:03Z</time>
      </trkpt>
      <trkpt lat="42.7754400" lon="-8.5571260">
        <ele>92.7</ele>
        <time>2022-04-14T14:04:04Z</time>
      </trkpt>
      <trkpt lat="42.7754020" lon="-8.5571030">
        <ele>92.7</ele>
        <time>2022-04-14T14:04:05Z</time>
      </trkpt>
      <trkpt lat="42.7752670" lon="-8.5570020">
        <ele>92.6</ele>
        <time>2022-04-14T14:04:06Z</time>
      </trkpt>
      <trkpt lat="42.7752080" lon="-8.5569460">
        <ele>92.5</ele>
        <time>2022-04-14T14:04:07Z</time>
      </trkpt>
      <trkpt lat="42.7751480" lon="-8.5568890">
        <ele>92.4</ele>
        <time>2022-04-14T14:04:08Z</time>
      </trkpt>
      <trkpt lat="42.7751040" lon="-8.5568310">
        <ele>92.4</ele>
        <time>2022-04-14T14:04:09Z</time>
      </trkpt>
      <trkpt lat="42.7751130" lon="-8.5568380">
        <ele>92.4</ele>
        <time>2022-04-14T14:04:10Z</time>
      </trkpt>
      <trkpt lat="42.7751230" lon="-8.5568440">
        <ele>92.4</ele>
        <time>2022-04-14T14:04:11Z</time>
      </trkpt>
      <trkpt lat="42.7751320" lon="-8.5568510">
        <ele>92.4</ele>
        <time>2022-04-14T14:04:12Z</time>
      </trkpt>
      <trkpt lat="42.7751420" lon="-8.5568580">
        <ele>92.4</ele>
        <time>2022-04-14T14:04:13Z</time>
      </trkpt>
      <trkpt lat="42.7751510" lon="-8.5568650">
        <ele>92.4</ele>
        <time>2022-04-14T14:04:14Z</time>
      </trkpt>
      <trkpt lat="42.7751600" lon="-8.5568720">
        <ele>92.4</ele>
        <time>2022-04-14T14:04:15Z</time>
      </trkpt>
      <trkpt lat="42.7751700" lon="-8.5568790">
        <ele>92.3</ele>
        <time>2022-04-14T14:04:16Z</time>
      </trkpt>
      <trkpt lat="42.7751790" lon="-8.5568850">
        <ele>92.3</ele>
        <time>2022-04-14T14:04:17Z</time>
      </trkpt>
      <trkpt lat="42.7751880" lon="-8.5568920">
        <ele>92.3</ele>
        <time>2022-04-14T14:04:18Z</time>
      </trkpt>
      <trkpt lat="42.7751980" lon="-8.5568990">
        <ele>92.3</ele>
        <time>2022-04-14T14:04:19Z</time>
      </trkpt>
      <trkpt lat="42.7752070" lon="-8.5569060">
        <ele>92.3</ele>
        <time>2022-04-14T14:04:20Z</time>
      </trkpt>
      <trkpt lat="42.7752170" lon="-8.5569130">
        <ele>92.3</ele>
        <time>2022-04-14T14:04:21Z</time>
      </trkpt>
      <trkpt lat="42.7752260" lon="-8.5569190">
        <ele>92.3</ele>
        <time>2022-04-14T14:04:22Z</time>
      </trkpt>
      <trkpt lat="42.7752350" lon="-8.5569260">
        <ele>92.3</ele>
        <time>2022-04-14T14:04:23Z</time>
      </trkpt>
      <trkpt lat="42.7752450" lon="-8.5569330">
        <ele>92.3</ele>
        <time>2022-04-14T14:04:24Z</time>
      </trkpt>
      <trkpt lat="42.7752540" lon="-8.5569400">
        <ele>92.3</ele>
        <time>2022-04-14T14:04:25Z</time>
      </trkpt>
      <trkpt lat="42.7752640" lon="-8.5569470">
        <ele>92.3</ele>
        <time>2022-04-14T14:04:26Z</time>
      </trkpt>
      <trkpt lat="42.7752730" lon="-8.5569530">
        <ele>92.3</ele>
        <time>2022-04-14T14:04:27Z</time>
      </trkpt>
      <trkpt lat="42.7752820" lon="-8.5569600">
        <ele>92.2</ele>
        <time>2022-04-14T14:16:45Z</time>
      </trkpt>
      <trkpt lat="42.7752920" lon="-8.5569670">
        <ele>92.2</ele>
        <time>2022-04-14T14:16:46Z</time>
      </trkpt>
      <trkpt lat="42.7752390" lon="-8.5569090">
        <ele>92.2</ele>
        <time>2022-04-14T14:16:47Z</time>
      </trkpt>
      <trkpt lat="42.7752390" lon="-8.5569090">
        <ele>92.2</ele>
        <time>2022-04-14T14:16:48Z</time>
      </trkpt>
      <trkpt lat="42.7752040" lon="-8.5568520">
        <ele>92.1</ele>
        <time>2022-04-14T14:16:49Z</time>
      </trkpt>
      <trkpt lat="42.7751690" lon="-8.5567950">
        <ele>91.9</ele>
        <time>2022-04-14T14:16:50Z</time>
      </trkpt>
      <trkpt lat="42.7751340" lon="-8.5567380">
        <ele>91.7</ele>
        <time>2022-04-14T14:16:51Z</time>
      </trkpt>
      <trkpt lat="42.7751000" lon="-8.5566680">
        <ele>91.5</ele>
        <time>2022-04-14T14:16:52Z</time>
      </trkpt>
      <trkpt lat="42.7750200" lon="-8.5564670">
        <ele>90.9</ele>
        <time>2022-04-14T14:16:53Z</time>
      </trkpt>
      <trkpt lat="42.7750030" lon="-8.5564250">
        <ele>90.8</ele>
        <time>2022-04-14T14:16:54Z</time>
      </trkpt>
      <trkpt lat="42.7749500" lon="-8.5562940">
        <ele>90.4</ele>
        <time>2022-04-14T14:16:55Z</time>
      </trkpt>
      <trkpt lat="42.7749300" lon="-8.5562460">
        <ele>90.3</ele>
        <time>2022-04-14T14:16:56Z</time>
      </trkpt>
      <trkpt lat="42.7748780" lon="-8.5561190">
        <ele>89.9</ele>
        <time>2022-04-14T14:16:57Z</time>
      </trkpt>
      <trkpt lat="42.7748660" lon="-8.5560900">
        <ele>89.9</ele>
        <time>2022-04-14T14:16:58Z</time>
      </trkpt>
      <trkpt lat="42.7748540" lon="-8.5560600">
        <ele>89.8</ele>
        <time>2022-04-14T14:16:59Z</time>
      </trkpt>
      <trkpt lat="42.7748180" lon="-8.5559710">
        <ele>89.6</ele>
        <time>2022-04-14T14:17:00Z</time>
      </trkpt>
      <trkpt lat="42.7747330" lon="-8.5557260">
        <ele>89.0</ele>
        <time>2022-04-14T14:17:01Z</time>
      </trkpt>
      <trkpt lat="42.7747160" lon="-8.5556840">
        <ele>88.9</ele>
        <time>2022-04-14T14:17:02Z</time>
      </trkpt>
      <trkpt lat="42.7746700" lon="-8.5555660">
        <ele>88.7</ele>
        <time>2022-04-14T14:17:03Z</time>
      </trkpt>
      <trkpt lat="42.7746570" lon="-8.5555330">
        <ele>88.6</ele>
        <time>2022-04-14T14:17:04Z</time>
      </trkpt>
      <trkpt lat="42.7746440" lon="-8.5555010">
        <ele>88.6</ele>
        <time>2022-04-14T14:17:05Z</time>
      </trkpt>
      <trkpt lat="42.7746050" lon="-8.5554020">
        <ele>88.4</ele>
        <time>2022-04-14T14:17:06Z</time>
      </trkpt>
      <trkpt lat="42.7745210" lon="-8.5551730">
        <ele>87.9</ele>
        <time>2022-04-14T14:17:07Z</time>
      </trkpt>
      <trkpt lat="42.7745000" lon="-8.5551250">
        <ele>87.8</ele>
        <time>2022-04-14T14:17:08Z</time>
      </trkpt>
      <trkpt lat="42.7744580" lon="-8.5550300">
        <ele>87.7</ele>
        <time>2022-04-14T14:17:09Z</time>
      </trkpt>
      <trkpt lat="42.7744580" lon="-8.5550300">
        <ele>87.7</ele>
        <time>2022-04-14T14:17:10Z</time>
      </trkpt>
      <trkpt lat="42.7744190" lon="-8.5549260">
        <ele>87.5</ele>
        <time>2022-04-14T14:17:11Z</time>
      </trkpt>
      <trkpt lat="42.7743800" lon="-8.5548210">
        <ele>87.3</ele>
        <time>2022-04-14T14:17:12Z</time>
      </trkpt>
      <trkpt lat="42.7743410" lon="-8.5547170">
        <ele>87.1</ele>
        <time>2022-04-14T14:17:13Z</time>
      </trkpt>
      <trkpt lat="42.7743010" lon="-8.5546120">
        <ele>86.9</ele>
        <time>2022-04-14T14:17:14Z</time>
      </trkpt>
      <trkpt lat="42.7742200" lon="-8.5543920">
        <ele>86.6</ele>
        <time>2022-04-14T14:17:15Z</time>
      </trkpt>
      <trkpt lat="42.7742040" lon="-8.5543570">
        <ele>86.5</ele>
        <time>2022-04-14T14:17:16Z</time>
      </trkpt>
      <trkpt lat="42.7741600" lon="-8.5542570">
        <ele>86.3</ele>
        <time>2022-04-14T14:17:17Z</time>
      </trkpt>
      <trkpt lat="42.7741480" lon="-8.5542280">
        <ele>86.3</ele>
        <time>2022-04-14T14:17:18Z</time>
      </trkpt>
      <trkpt lat="42.7741370" lon="-8.5542000">
        <ele>86.2</ele>
        <time>2022-04-14T14:17:19Z</time>
      </trkpt>
      <trkpt lat="42.7741020" lon="-8.5541150">
        <ele>86.1</ele>
        <time>2022-04-14T14:17:20Z</time>
      </trkpt>
      <trkpt lat="42.7740350" lon="-8.5539720">
        <ele>85.8</ele>
        <time>2022-04-14T14:17:21Z</time>
      </trkpt>
      <trkpt lat="42.7740350" lon="-8.5539720">
        <ele>85.8</ele>
        <time>2022-04-14T14:17:22Z</time>
      </trkpt>
      <trkpt lat="42.7739890" lon="-8.5538890">
        <ele>85.6</ele>
        <time>2022-04-14T14:17:23Z</time>
      </trkpt>
      <trkpt lat="42.7739430" lon="-8.5538060">
        <ele>85.4</ele>
        <time>2022-04-14T14:17:24Z</time>
      </trkpt>
      <trkpt lat="42.7738970" lon="-8.5537230">
        <ele>85.2</ele>
        <time>2022-04-14T14:17:25Z</time>
      </trkpt>
      <trkpt lat="42.7738370" lon="-8.5536380">
        <ele>85.0</ele>
        <time>2022-04-14T14:17:26Z</time>
      </trkpt>
      <trkpt lat="42.7737720" lon="-8.5535790">
        <ele>84.8</ele>
        <time>2022-04-14T14:17:27Z</time>
      </trkpt>
      <trkpt lat="42.7737070" lon="-8.5535200">
        <ele>84.6</ele>
        <time>2022-04-14T14:17:28Z</time>
      </trkpt>
      <trkpt lat="42.7735440" lon="-8.5533670">
        <ele>84.1</ele>
        <time>2022-04-14T14:17:29Z</time>
      </trkpt>
      <trkpt lat="42.7735100" lon="-8.5533320">
        <ele>84.0</ele>
        <time>2022-04-14T14:17:30Z</time>
      </trkpt>
      <trkpt lat="42.7734770" lon="-8.5532980">
        <ele>83.9</ele>
        <time>2022-04-14T14:17:31Z</time>
      </trkpt>
      <trkpt lat="42.7733760" lon="-8.5531940">
        <ele>83.7</ele>
        <time>2022-04-14T14:17:32Z</time>
      </trkpt>
      <trkpt lat="42.7733760" lon="-8.5531940">
        <ele>83.7</ele>
        <time>2022-04-14T14:17:33Z</time>
      </trkpt>
      <trkpt lat="42.7733200" lon="-8.5531450">
        <ele>83.5</ele>
        <time>2022-04-14T14:17:34Z</time>
      </trkpt>
      <trkpt lat="42.7732640" lon="-8.5530950">
        <ele>83.4</ele>
        <time>2022-04-14T14:17:35Z</time>
      </trkpt>
      <trkpt lat="42.7730850" lon="-8.5529400">
        <ele>82.7</ele>
        <time>2022-04-14T14:17:36Z</time>
      </trkpt>
      <trkpt lat="42.7730190" lon="-8.5528840">
        <ele>82.5</ele>
        <time>2022-04-14T14:17:37Z</time>
      </trkpt>
      <trkpt lat="42.7730190" lon="-8.5528840">
        <ele>82.5</ele>
        <time>2022-04-14T14:17:38Z</time>
      </trkpt>
      <trkpt lat="42.7728810" lon="-8.5527970">
        <ele>81.7</ele>
        <time>2022-04-14T14:17:39Z</time>
      </trkpt>
      <trkpt lat="42.7728810" lon="-8.5527970">
        <ele>81.7</ele>
        <time>2022-04-14T14:17:40Z</time>
      </trkpt>
      <trkpt lat="42.7728120" lon="-8.5527750">
        <ele>81.3</ele>
        <time>2022-04-14T14:17:41Z</time>
      </trkpt>
      <trkpt lat="42.7727420" lon="-8.5527530">
        <ele>80.8</ele>
        <time>2022-04-14T14:17:42Z</time>
      </trkpt>
      <trkpt lat="42.7726720" lon="-8.5527320">
        <ele>80.2</ele>
        <time>2022-04-14T14:17:43Z</time>
      </trkpt>
      <trkpt lat="42.7725820" lon="-8.5527050">
        <ele>79.5</ele>
        <time>2022-04-14T14:17:44Z</time>
      </trkpt>
      <trkpt lat="42.7725360" lon="-8.5526900">
        <ele>79.1</ele>
        <time>2022-04-14T14:17:45Z</time>
      </trkpt>
      <trkpt lat="42.7723730" lon="-8.5526460">
        <ele>77.8</ele>
        <time>2022-04-14T14:17:46Z</time>
      </trkpt>
      <trkpt lat="42.7723020" lon="-8.5526300">
        <ele>77.2</ele>
        <time>2022-04-14T14:17:47Z</time>
      </trkpt>
      <trkpt lat="42.7720880" lon="-8.5525860">
        <ele>75.6</ele>
        <time>2022-04-14T14:17:48Z</time>
      </trkpt>
      <trkpt lat="42.7720170" lon="-8.5525730">
        <ele>75.0</ele>
        <time>2022-04-14T14:17:49Z</time>
      </trkpt>
      <trkpt lat="42.7718750" lon="-8.5525470">
        <ele>73.8</ele>
        <time>2022-04-14T14:17:50Z</time>
      </trkpt>
      <trkpt lat="42.7717830" lon="-8.5524970">
        <ele>73.0</ele>
        <time>2022-04-14T14:17:51Z</time>
      </trkpt>
      <trkpt lat="42.7716910" lon="-8.5524500">
        <ele>72.2</ele>
        <time>2022-04-14T14:17:52Z</time>
      </trkpt>
      <trkpt lat="42.7716200" lon="-8.5524030">
        <ele>71.5</ele>
        <time>2022-04-14T14:17:53Z</time>
      </trkpt>
      <trkpt lat="42.7715490" lon="-8.5523570">
        <ele>70.8</ele>
        <time>2022-04-14T14:17:54Z</time>
      </trkpt>
      <trkpt lat="42.7714060" lon="-8.5522630">
        <ele>69.5</ele>
        <time>2022-04-14T14:17:55Z</time>
      </trkpt>
      <trkpt lat="42.7713140" lon="-8.5521850">
        <ele>68.6</ele>
        <time>2022-04-14T14:17:56Z</time>
      </trkpt>
      <trkpt lat="42.7712230" lon="-8.5520990">
        <ele>67.7</ele>
        <time>2022-04-14T14:17:57Z</time>
      </trkpt>
      <trkpt lat="42.7711730" lon="-8.5520540">
        <ele>67.4</ele>
        <time>2022-04-14T14:17:58Z</time>
      </trkpt>
      <trkpt lat="42.7711230" lon="-8.5520100">
        <ele>67.1</ele>
        <time>2022-04-14T14:17:59Z</time>
      </trkpt>
      <trkpt lat="42.7710230" lon="-8.5519200">
        <ele>66.7</ele>
        <time>2022-04-14T14:18:00Z</time>
      </trkpt>
      <trkpt lat="42.7708830" lon="-8.5517790">
        <ele>65.8</ele>
        <time>2022-04-14T14:18:01Z</time>
      </trkpt>
      <trkpt lat="42.7708370" lon="-8.5517320">
        <ele>65.5</ele>
        <time>2022-04-14T14:18:02Z</time>
      </trkpt>
      <trkpt lat="42.7707460" lon="-8.5516360">
        <ele>64.9</ele>
        <time>2022-04-14T14:18:03Z</time>
      </trkpt>
      <trkpt lat="42.7706550" lon="-8.5515410">
        <ele>64.4</ele>
        <time>2022-04-14T14:18:04Z</time>
      </trkpt>
      <trkpt lat="42.7705680" lon="-8.5514470">
        <ele>63.8</ele>
        <time>2022-04-14T14:18:05Z</time>
      </trkpt>
      <trkpt lat="42.7704370" lon="-8.5513100">
        <ele>63.1</ele>
        <time>2022-04-14T14:18:06Z</time>
      </trkpt>
      <trkpt lat="42.7703940" lon="-8.5512670">
        <ele>62.8</ele>
        <time>2022-04-14T14:18:07Z</time>
      </trkpt>
      <trkpt lat="42.7703080" lon="-8.5511800">
        <ele>62.3</ele>
        <time>2022-04-14T14:18:08Z</time>
      </trkpt>
      <trkpt lat="42.7702210" lon="-8.5510910">
        <ele>61.8</ele>
        <time>2022-04-14T14:18:09Z</time>
      </trkpt>
      <trkpt lat="42.7701120" lon="-8.5510200">
        <ele>61.3</ele>
        <time>2022-04-14T14:18:10Z</time>
      </trkpt>
      <trkpt lat="42.7699610" lon="-8.5508790">
        <ele>60.5</ele>
        <time>2022-04-14T14:18:11Z</time>
      </trkpt>
      <trkpt lat="42.7698990" lon="-8.5508150">
        <ele>60.2</ele>
        <time>2022-04-14T14:18:12Z</time>
      </trkpt>
      <trkpt lat="42.7697740" lon="-8.5506850">
        <ele>59.5</ele>
        <time>2022-04-14T14:18:13Z</time>
      </trkpt>
      <trkpt lat="42.7696910" lon="-8.5505920">
        <ele>59.0</ele>
        <time>2022-04-14T14:18:14Z</time>
      </trkpt>
      <trkpt lat="42.7696910" lon="-8.5505920">
        <ele>59.0</ele>
        <time>2022-04-14T14:18:15Z</time>
      </trkpt>
      <trkpt lat="42.7695670" lon="-8.5504610">
        <ele>58.4</ele>
        <time>2022-04-14T14:18:16Z</time>
      </trkpt>
      <trkpt lat="42.7695210" lon="-8.5504140">
        <ele>58.1</ele>
        <time>2022-04-14T14:18:17Z</time>
      </trkpt>
      <trkpt lat="42.7694280" lon="-8.5503190">
        <ele>57.6</ele>
        <time>2022-04-14T14:18:18Z</time>
      </trkpt>
      <trkpt lat="42.7694280" lon="-8.5503190">
        <ele>57.6</ele>
        <time>2022-04-14T14:18:19Z</time>
      </trkpt>
      <trkpt lat="42.7693790" lon="-8.5502690">
        <ele>57.3</ele>
        <time>2022-04-14T14:18:20Z</time>
      </trkpt>
      <trkpt lat="42.7693300" lon="-8.5502190">
        <ele>57.0</ele>
        <time>2022-04-14T14:18:21Z</time>
      </trkpt>
      <trkpt lat="42.7692170" lon="-8.5501020">
        <ele>56.3</ele>
        <time>2022-04-14T14:18:22Z</time>
      </trkpt>
      <trkpt lat="42.7692010" lon="-8.5500840">
        <ele>56.2</ele>
        <time>2022-04-14T14:18:23Z</time>
      </trkpt>
      <trkpt lat="42.7691860" lon="-8.5500670">
        <ele>56.1</ele>
        <time>2022-04-14T14:18:24Z</time>
      </trkpt>
      <trkpt lat="42.7691390" lon="-8.5500150">
        <ele>55.8</ele>
        <time>2022-04-14T14:18:25Z</time>
      </trkpt>
      <trkpt lat="42.7690960" lon="-8.5499820">
        <ele>55.5</ele>
        <time>2022-04-14T14:18:26Z</time>
      </trkpt>
      <trkpt lat="42.7690540" lon="-8.5499490">
        <ele>55.3</ele>
        <time>2022-04-14T14:18:27Z</time>
      </trkpt>
      <trkpt lat="42.7690270" lon="-8.5499280">
        <ele>55.1</ele>
        <time>2022-04-14T14:18:28Z</time>
      </trkpt>
      <trkpt lat="42.7689990" lon="-8.5499070">
        <ele>55.1</ele>
        <time>2022-04-14T14:18:29Z</time>
      </trkpt>
      <trkpt lat="42.7689710" lon="-8.5498860">
        <ele>55.1</ele>
        <time>2022-04-14T14:18:30Z</time>
      </trkpt>
      <trkpt lat="42.7689680" lon="-8.5498830">
        <ele>55.1</ele>
        <time>2022-04-14T14:18:31Z</time>
      </trkpt>
      <trkpt lat="42.7689650" lon="-8.5498800">
        <ele>55.1</ele>
        <time>2022-04-14T14:18:32Z</time>
      </trkpt>
      <trkpt lat="42.7689620" lon="-8.5498770">
        <ele>55.1</ele>
        <time>2022-04-14T14:18:33Z</time>
      </trkpt>
      <trkpt lat="42.7689580" lon="-8.5498740">
        <ele>55.1</ele>
        <time>2022-04-14T14:18:34Z</time>
      </trkpt>
      <trkpt lat="42.7689550" lon="-8.5498700">
        <ele>55.1</ele>
        <time>2022-04-14T14:18:35Z</time>
      </trkpt>
      <trkpt lat="42.7689520" lon="-8.5498670">
        <ele>55.1</ele>
        <time>2022-04-14T14:18:36Z</time>
      </trkpt>
      <trkpt lat="42.7689480" lon="-8.5498640">
        <ele>55.1</ele>
        <time>2022-04-14T14:18:37Z</time>
      </trkpt>
      <trkpt lat="42.7689450" lon="-8.5498610">
        <ele>55.1</ele>
        <time>2022-04-14T14:18:38Z</time>
      </trkpt>
      <trkpt lat="42.7689420" lon="-8.5498580">
        <ele>55.1</ele>
        <time>2022-04-14T14:18:39Z</time>
      </trkpt>
      <trkpt lat="42.7689380" lon="-8.5498550">
        <ele>55.1</ele>
        <time>2022-04-14T14:18:40Z</time>
      </trkpt>
      <trkpt lat="42.7689350" lon="-8.5498520">
        <ele>55.1</ele>
        <time>2022-04-14T14:18:41Z</time>
      </trkpt>
      <trkpt lat="42.7689320" lon="-8.5498480">
        <ele>55.1</ele>
        <time>2022-04-14T14:18:42Z</time>
      </trkpt>
      <trkpt lat="42.7689280" lon="-8.5498450">
        <ele>55.1</ele>
        <time>2022-04-14T14:18:43Z</time>
      </trkpt>
      <trkpt lat="42.7689250" lon="-8.5498420">
        <ele>55.1</ele>
        <time>2022-04-14T14:18:44Z</time>
      </trkpt>
      <trkpt lat="42.7688340" lon="-8.5497720">
        <ele>55.4</ele>
        <time>2022-04-14T14:18:45Z</time>
      </trkpt>
      <trkpt lat="42.7687890" lon="-8.5497460">
        <ele>54.9</ele>
        <time>2022-04-14T14:18:46Z</time>
      </trkpt>
      <trkpt lat="42.7687440" lon="-8.5497210">
        <ele>54.5</ele>
        <time>2022-04-14T14:18:47Z</time>
      </trkpt>
      <trkpt lat="42.7686990" lon="-8.5496950">
        <ele>54.0</ele>
        <time>2022-04-14T14:18:48Z</time>
      </trkpt>
      <trkpt lat="42.7686410" lon="-8.5496670">
        <ele>53.4</ele>
        <time>2022-04-14T14:18:49Z</time>
      </trkpt>
      <trkpt lat="42.7686100" lon="-8.5496580">
        <ele>53.1</ele>
        <time>2022-04-14T14:18:50Z</time>
      </trkpt>
      <trkpt lat="42.7685780" lon="-8.5496480">
        <ele>52.8</ele>
        <time>2022-04-14T14:18:51Z</time>
      </trkpt>
      <trkpt lat="42.7684400" lon="-8.5496070">
        <ele>51.6</ele>
        <time>2022-04-14T14:18:52Z</time>
      </trkpt>
      <trkpt lat="42.7683650" lon="-8.5495850">
        <ele>50.9</ele>
        <time>2022-04-14T14:18:53Z</time>
      </trkpt>
      <trkpt lat="42.7682900" lon="-8.5495630">
        <ele>50.3</ele>
        <time>2022-04-14T14:18:54Z</time>
      </trkpt>
      <trkpt lat="42.7682090" lon="-8.5495380">
        <ele>49.6</ele>
        <time>2022-04-14T14:18:55Z</time>
      </trkpt>
      <trkpt lat="42.7681440" lon="-8.5495180">
        <ele>49.0</ele>
        <time>2022-04-14T14:18:56Z</time>
      </trkpt>
      <trkpt lat="42.7680790" lon="-8.5494970">
        <ele>48.5</ele>
        <time>2022-04-14T14:18:57Z</time>
      </trkpt>
      <trkpt lat="42.7679480" lon="-8.5494560">
        <ele>47.4</ele>
        <time>2022-04-14T14:18:58Z</time>
      </trkpt>
      <trkpt lat="42.7679480" lon="-8.5494560">
        <ele>47.4</ele>
        <time>2022-04-14T14:18:59Z</time>
      </trkpt>
      <trkpt lat="42.7677330" lon="-8.5493830">
        <ele>45.8</ele>
        <time>2022-04-14T14:19:00Z</time>
      </trkpt>
      <trkpt lat="42.7676910" lon="-8.5493690">
        <ele>45.5</ele>
        <time>2022-04-14T14:19:01Z</time>
      </trkpt>
      <trkpt lat="42.7676070" lon="-8.5493420">
        <ele>44.9</ele>
        <time>2022-04-14T14:19:02Z</time>
      </trkpt>
      <trkpt lat="42.7674260" lon="-8.5492860">
        <ele>43.5</ele>
        <time>2022-04-14T14:19:03Z</time>
      </trkpt>
      <trkpt lat="42.7673810" lon="-8.5492720">
        <ele>43.2</ele>
        <time>2022-04-14T14:19:04Z</time>
      </trkpt>
      <trkpt lat="42.7673360" lon="-8.5492580">
        <ele>43.0</ele>
        <time>2022-04-14T14:19:05Z</time>
      </trkpt>
      <trkpt lat="42.7672450" lon="-8.5492290">
        <ele>42.4</ele>
        <time>2022-04-14T14:19:06Z</time>
      </trkpt>
      <trkpt lat="42.7671580" lon="-8.5492000">
        <ele>41.9</ele>
        <time>2022-04-14T14:19:07Z</time>
      </trkpt>
      <trkpt lat="42.7670710" lon="-8.5491710">
        <ele>41.4</ele>
        <time>2022-04-14T14:19:08Z</time>
      </trkpt>
      <trkpt lat="42.7668960" lon="-8.5491130">
        <ele>40.7</ele>
        <time>2022-04-14T14:19:09Z</time>
      </trkpt>
      <trkpt lat="42.7668500" lon="-8.5490960">
        <ele>40.6</ele>
        <time>2022-04-14T14:19:10Z</time>
      </trkpt>
      <trkpt lat="42.7668050" lon="-8.5490790">
        <ele>40.4</ele>
        <time>2022-04-14T14:19:11Z</time>
      </trkpt>
      <trkpt lat="42.7667130" lon="-8.5490440">
        <ele>40.2</ele>
        <time>2022-04-14T14:19:12Z</time>
      </trkpt>
      <trkpt lat="42.7666260" lon="-8.5490000">
        <ele>39.8</ele>
        <time>2022-04-14T14:19:13Z</time>
      </trkpt>
      <trkpt lat="42.7665390" lon="-8.5489500">
        <ele>39.1</ele>
        <time>2022-04-14T14:19:14Z</time>
      </trkpt>
      <trkpt lat="42.7664110" lon="-8.5488670">
        <ele>37.9</ele>
        <time>2022-04-14T14:19:15Z</time>
      </trkpt>
      <trkpt lat="42.7663660" lon="-8.5488370">
        <ele>37.5</ele>
        <time>2022-04-14T14:19:16Z</time>
      </trkpt>
      <trkpt lat="42.7662130" lon="-8.5487320">
        <ele>36.4</ele>
        <time>2022-04-14T14:19:17Z</time>
      </trkpt>
      <trkpt lat="42.7661490" lon="-8.5486860">
        <ele>36.0</ele>
        <time>2022-04-14T14:19:18Z</time>
      </trkpt>
      <trkpt lat="42.7660220" lon="-8.5485940">
        <ele>35.4</ele>
        <time>2022-04-14T14:19:19Z</time>
      </trkpt>
      <trkpt lat="42.7659490" lon="-8.5485480">
        <ele>35.1</ele>
        <time>2022-04-14T14:19:20Z</time>
      </trkpt>
      <trkpt lat="42.7658760" lon="-8.5485030">
        <ele>34.8</ele>
        <time>2022-04-14T14:19:21Z</time>
      </trkpt>
      <trkpt lat="42.7657300" lon="-8.5484110">
        <ele>34.2</ele>
        <time>2022-04-14T14:19:22Z</time>
      </trkpt>
      <trkpt lat="42.7657300" lon="-8.5484110">
        <ele>34.2</ele>
        <time>2022-04-14T14:19:23Z</time>
      </trkpt>
      <trkpt lat="42.7655460" lon="-8.5483030">
        <ele>33.3</ele>
        <time>2022-04-14T14:19:24Z</time>
      </trkpt>
      <trkpt lat="42.7654820" lon="-8.5482620">
        <ele>33.0</ele>
        <time>2022-04-14T14:19:25Z</time>
      </trkpt>
      <trkpt lat="42.7654180" lon="-8.5482200">
        <ele>32.8</ele>
        <time>2022-04-14T14:19:26Z</time>
      </trkpt>
      <trkpt lat="42.7652910" lon="-8.5481370">
        <ele>32.6</ele>
        <time>2022-04-14T14:19:27Z</time>
      </trkpt>
      <trkpt lat="42.7652910" lon="-8.5481370">
        <ele>32.6</ele>
        <time>2022-04-14T14:19:28Z</time>
      </trkpt>
      <trkpt lat="42.7651100" lon="-8.5480110">
        <ele>32.4</ele>
        <time>2022-04-14T14:19:29Z</time>
      </trkpt>
      <trkpt lat="42.7650890" lon="-8.5479980">
        <ele>32.4</ele>
        <time>2022-04-14T14:19:30Z</time>
      </trkpt>
      <trkpt lat="42.7650280" lon="-8.5479580">
        <ele>32.4</ele>
        <time>2022-04-14T14:19:31Z</time>
      </trkpt>
      <trkpt lat="42.7650090" lon="-8.5479430">
        <ele>32.4</ele>
        <time>2022-04-14T14:19:32Z</time>
      </trkpt>
      <trkpt lat="42.7648920" lon="-8.5478650">
        <ele>32.4</ele>
        <time>2022-04-14T14:19:33Z</time>
      </trkpt>
      <trkpt lat="42.7648160" lon="-8.5478150">
        <ele>32.5</ele>
        <time>2022-04-14T14:19:34Z</time>
      </trkpt>
      <trkpt lat="42.7646390" lon="-8.5476980">
        <ele>32.7</ele>
        <time>2022-04-14T14:19:35Z</time>
      </trkpt>
      <trkpt lat="42.7646160" lon="-8.5476790">
        <ele>32.8</ele>
        <time>2022-04-14T14:19:36Z</time>
      </trkpt>
      <trkpt lat="42.7645930" lon="-8.5476610">
        <ele>32.8</ele>
        <time>2022-04-14T14:19:37Z</time>
      </trkpt>
      <trkpt lat="42.7645240" lon="-8.5476050">
        <ele>32.9</ele>
        <time>2022-04-14T14:19:38Z</time>
      </trkpt>
      <trkpt lat="42.7644550" lon="-8.5475560">
        <ele>33.0</ele>
        <time>2022-04-14T14:19:39Z</time>
      </trkpt>
      <trkpt lat="42.7643860" lon="-8.5475080">
        <ele>33.1</ele>
        <time>2022-04-14T14:19:40Z</time>
      </trkpt>
      <trkpt lat="42.7642140" lon="-8.5473890">
        <ele>33.2</ele>
        <time>2022-04-14T14:19:41Z</time>
      </trkpt>
      <trkpt lat="42.7641810" lon="-8.5473670">
        <ele>33.2</ele>
        <time>2022-04-14T14:19:42Z</time>
      </trkpt>
      <trkpt lat="42.7640910" lon="-8.5473100">
        <ele>33.2</ele>
        <time>2022-04-14T14:19:43Z</time>
      </trkpt>
      <trkpt lat="42.7640700" lon="-8.5472960">
        <ele>33.2</ele>
        <time>2022-04-14T14:19:44Z</time>
      </trkpt>
      <trkpt lat="42.7640480" lon="-8.5472820">
        <ele>33.2</ele>
        <time>2022-04-14T14:19:45Z</time>
      </trkpt>
      <trkpt lat="42.7639830" lon="-8.5472390">
        <ele>33.2</ele>
        <time>2022-04-14T14:19:46Z</time>
      </trkpt>
      <trkpt lat="42.7638330" lon="-8.5471490">
        <ele>33.2</ele>
        <time>2022-04-14T14:19:47Z</time>
      </trkpt>
      <trkpt lat="42.7638040" lon="-8.5471310">
        <ele>33.2</ele>
        <time>2022-04-14T14:19:48Z</time>
      </trkpt>
      <trkpt lat="42.7637310" lon="-8.5470840">
        <ele>33.2</ele>
        <time>2022-04-14T14:19:49Z</time>
      </trkpt>
      <trkpt lat="42.7637150" lon="-8.5470750">
        <ele>33.2</ele>
        <time>2022-04-14T14:19:50Z</time>
      </trkpt>
      <trkpt lat="42.7636980" lon="-8.5470660">
        <ele>33.2</ele>
        <time>2022-04-14T14:19:51Z</time>
      </trkpt>
      <trkpt lat="42.7636480" lon="-8.5470380">
        <ele>33.3</ele>
        <time>2022-04-14T14:19:52Z</time>
      </trkpt>
      <trkpt lat="42.7636200" lon="-8.5470240">
        <ele>33.3</ele>
        <time>2022-04-14T14:19:53Z</time>
      </trkpt>
      <trkpt lat="42.7635930" lon="-8.5470100">
        <ele>33.3</ele>
        <time>2022-04-14T14:19:54Z</time>
      </trkpt>
      <trkpt lat="42.7635650" lon="-8.5469950">
        <ele>33.3</ele>
        <time>2022-04-14T14:19:55Z</time>
      </trkpt>
      <trkpt lat="42.7635380" lon="-8.5469810">
        <ele>33.4</ele>
        <time>2022-04-14T14:19:56Z</time>
      </trkpt>
      <trkpt lat="42.7635320" lon="-8.5469790">
        <ele>33.4</ele>
        <time>2022-04-14T14:19:57Z</time>
      </trkpt>
      <trkpt lat="42.7635260" lon="-8.5469770">
        <ele>33.4</ele>
        <time>2022-04-14T14:19:58Z</time>
      </trkpt>
      <trkpt lat="42.7635200" lon="-8.5469750">
        <ele>33.4</ele>
        <time>2022-04-14T14:19:59Z</time>
      </trkpt>
      <trkpt lat="42.7635150" lon="-8.5469730">
        <ele>33.4</ele>
        <time>2022-04-14T14:20:00Z</time>
      </trkpt>
      <trkpt lat="42.7635090" lon="-8.5469710">
        <ele>33.4</ele>
        <time>2022-04-14T14:20:01Z</time>
      </trkpt>
      <trkpt lat="42.7635030" lon="-8.5469690">
        <ele>33.4</ele>
        <time>2022-04-14T14:20:02Z</time>
      </trkpt>
      <trkpt lat="42.7634970" lon="-8.5469670">
        <ele>33.4</ele>
        <time>2022-04-14T14:20:03Z</time>
      </trkpt>
      <trkpt lat="42.7634910" lon="-8.5469650">
        <ele>33.4</ele>
        <time>2022-04-14T14:20:04Z</time>
      </trkpt>
      <trkpt lat="42.7634850" lon="-8.5469630">
        <ele>33.4</ele>
        <time>2022-04-14T14:20:05Z</time>
      </trkpt>
      <trkpt lat="42.7634800" lon="-8.5469610">
        <ele>33.4</ele>
        <time>2022-04-14T14:20:06Z</time>
      </trkpt>
      <trkpt lat="42.7634740" lon="-8.5469590">
        <ele>33.4</ele>
        <time>2022-04-14T14:20:07Z</time>
      </trkpt>
      <trkpt lat="42.7634680" lon="-8.5469570">
        <ele>33.4</ele>
        <time>2022-04-14T14:20:08Z</time>
      </trkpt>
      <trkpt lat="42.7634620" lon="-8.5469550">
        <ele>33.4</ele>
        <time>2022-04-14T14:20:09Z</time>
      </trkpt>
      <trkpt lat="42.7634560" lon="-8.5469530">
        <ele>33.4</ele>
        <time>2022-04-14T14:20:10Z</time>
      </trkpt>
      <trkpt lat="42.7634500" lon="-8.5469510">
        <ele>33.4</ele>
        <time>2022-04-14T14:20:11Z</time>
      </trkpt>
      <trkpt lat="42.7634510" lon="-8.5469500">
        <ele>33.4</ele>
        <time>2022-04-14T14:20:12Z</time>
      </trkpt>
      <trkpt lat="42.7634510" lon="-8.5469500">
        <ele>33.4</ele>
        <time>2022-04-14T14:20:13Z</time>
      </trkpt>
      <trkpt lat="42.7634510" lon="-8.5469490">
        <ele>33.4</ele>
        <time>2022-04-14T14:20:14Z</time>
      </trkpt>
      <trkpt lat="42.7634510" lon="-8.5469480">
        <ele>33.4</ele>
        <time>2022-04-14T14:20:15Z</time>
      </trkpt>
      <trkpt lat="42.7634520" lon="-8.5469480">
        <ele>33.4</ele>
        <time>2022-04-14T14:20:16Z</time>
      </trkpt>
      <trkpt lat="42.7634520" lon="-8.5469470">
        <ele>33.4</ele>
        <time>2022-04-14T14:20:17Z</time>
      </trkpt>
      <trkpt lat="42.7634520" lon="-8.5469460">
        <ele>33.4</ele>
        <time>2022-04-14T14:20:18Z</time>
      </trkpt>
      <trkpt lat="42.7634520" lon="-8.5469460">
        <ele>33.4</ele>
        <time>2022-04-14T14:20:19Z</time>
      </trkpt>
      <trkpt lat="42.7634520" lon="-8.5469450">
        <ele>33.4</ele>
        <time>2022-04-14T14:20:20Z</time>
      </trkpt>
      <trkpt lat="42.7634530" lon="-8.5469440">
        <ele>33.4</ele>
        <time>2022-04-14T14:20:21Z</time>
      </trkpt>
      <trkpt lat="42.7634530" lon="-8.5469440">
        <ele>33.4</ele>
        <time>2022-04-14T14:20:22Z</time>
      </trkpt>
      <trkpt lat="42.7634530" lon="-8.5469430">
        <ele>33.4</ele>
        <time>2022-04-14T14:20:23Z</time>
      </trkpt>
      <trkpt lat="42.7634530" lon="-8.5469420">
        <ele>33.4</ele>
        <time>2022-04-14T14:20:24Z</time>
      </trkpt>
      <trkpt lat="42.7634530" lon="-8.5469420">
        <ele>33.4</ele>
        <time>2022-04-14T14:20:25Z</time>
      </trkpt>
      <trkpt lat="42.7634540" lon="-8.5469410">
        <ele>33.4</ele>
        <time>2022-04-14T14:20:26Z</time>
      </trkpt>
      <trkpt lat="42.7634540" lon="-8.5469400">
        <ele>33.4</ele>
        <time>2022-04-14T14:20:27Z</time>
      </trkpt>
      <trkpt lat="42.7634540" lon="-8.5469400">
        <ele>33.4</ele>
        <time>2022-04-14T14:20:28Z</time>
      </trkpt>
      <trkpt lat="42.7634540" lon="-8.5469390">
        <ele>33.4</ele>
        <time>2022-04-14T14:20:29Z</time>
      </trkpt>
      <trkpt lat="42.7634550" lon="-8.5469380">
        <ele>33.4</ele>
        <time>2022-04-14T14:20:30Z</time>
      </trkpt>
      <trkpt lat="42.7634550" lon="-8.5469380">
        <ele>33.4</ele>
        <time>2022-04-14T14:20:31Z</time>
      </trkpt>
      <trkpt lat="42.7634550" lon="-8.5469370">
        <ele>33.4</ele>
        <time>2022-04-14T14:20:32Z</time>
      </trkpt>
      <trkpt lat="42.7634550" lon="-8.5469360">
        <ele>33.4</ele>
        <time>2022-04-14T14:20:33Z</time>
      </trkpt>
      <trkpt lat="42.7634550" lon="-8.5469360">
        <ele>33.4</ele>
        <time>2022-04-14T14:20:34Z</time>
      </trkpt>
      <trkpt lat="42.7634560" lon="-8.5469350">
        <ele>33.4</ele>
        <time>2022-04-14T14:20:35Z</time>
      </trkpt>
      <trkpt lat="42.7634560" lon="-8.5469340">
        <ele>33.4</ele>
        <time>2022-04-14T14:20:36Z</time>
      </trkpt>
      <trkpt lat="42.7634560" lon="-8.5469340">
        <ele>33.4</ele>
        <time>2022-04-14T14:20:37Z</time>
      </trkpt>
      <trkpt lat="42.7634560" lon="-8.5469330">
        <ele>33.4</ele>
        <time>2022-04-14T14:20:38Z</time>
      </trkpt>
      <trkpt lat="42.7634560" lon="-8.5469320">
        <ele>33.4</ele>
        <time>2022-04-14T14:20:39Z</time>
      </trkpt>
      <trkpt lat="42.7634570" lon="-8.5469320">
        <ele>33.4</ele>
        <time>2022-04-14T14:20:40Z</time>
      </trkpt>
      <trkpt lat="42.7634570" lon="-8.5469310">
        <ele>33.4</ele>
        <time>2022-04-14T14:20:41Z</time>
      </trkpt>
      <trkpt lat="42.7634570" lon="-8.5469300">
        <ele>33.4</ele>
        <time>2022-04-14T14:20:42Z</time>
      </trkpt>
      <trkpt lat="42.7634570" lon="-8.5469300">
        <ele>33.4</ele>
        <time>2022-04-14T14:20:43Z</time>
      </trkpt>
      <trkpt lat="42.7634580" lon="-8.5469290">
        <ele>33.4</ele>
        <time>2022-04-14T14:20:44Z</time>
      </trkpt>
      <trkpt lat="42.7634580" lon="-8.5469280">
        <ele>33.4</ele>
        <time>2022-04-14T14:20:45Z</time>
      </trkpt>
      <trkpt lat="42.7634580" lon="-8.5469280">
        <ele>33.4</ele>
        <time>2022-04-14T14:20:46Z</time>
      </trkpt>
      <trkpt lat="42.7634580" lon="-8.5469270">
        <ele>33.4</ele>
        <time>2022-04-14T14:20:47Z</time>
      </trkpt>
      <trkpt lat="42.7634580" lon="-8.5469260">
        <ele>33.4</ele>
        <time>2022-04-14T14:20:48Z</time>
      </trkpt>
      <trkpt lat="42.7634590" lon="-8.5469260">
        <ele>33.4</ele>
        <time>2022-04-14T14:20:49Z</time>
      </trkpt>
      <trkpt lat="42.7634590" lon="-8.5469250">
        <ele>33.4</ele>
        <time>2022-04-14T14:20:50Z</time>
      </trkpt>
      <trkpt lat="42.7634590" lon="-8.5469240">
        <ele>33.4</ele>
        <time>2022-04-14T14:20:51Z</time>
      </trkpt>
      <trkpt lat="42.7634590" lon="-8.5469240">
        <ele>33.4</ele>
        <time>2022-04-14T14:20:52Z</time>
      </trkpt>
      <trkpt lat="42.7634590" lon="-8.5469230">
        <ele>33.4</ele>
        <time>2022-04-14T14:20:53Z</time>
      </trkpt>
      <trkpt lat="42.7634600" lon="-8.5469220">
        <ele>33.4</ele>
        <time>2022-04-14T14:20:54Z</time>
      </trkpt>
      <trkpt lat="42.7634600" lon="-8.5469220">
        <ele>33.4</ele>
        <time>2022-04-14T14:20:55Z</time>
      </trkpt>
      <trkpt lat="42.7634600" lon="-8.5469210">
        <ele>33.4</ele>
        <time>2022-04-14T14:20:56Z</time>
      </trkpt>
      <trkpt lat="42.7634600" lon="-8.5469200">
        <ele>33.5</ele>
        <time>2022-04-14T14:20:57Z</time>
      </trkpt>
      <trkpt lat="42.7634610" lon="-8.5469200">
        <ele>33.5</ele>
        <time>2022-04-14T14:20:58Z</time>
      </trkpt>
      <trkpt lat="42.7634610" lon="-8.5469190">
        <ele>33.5</ele>
        <time>2022-04-14T14:20:59Z</time>
      </trkpt>
      <trkpt lat="42.7634610" lon="-8.5469180">
        <ele>33.5</ele>
        <time>2022-04-14T14:21:00Z</time>
      </trkpt>
      <trkpt lat="42.7634610" lon="-8.5469180">
        <ele>33.5</ele>
        <time>2022-04-14T14:21:01Z</time>
      </trkpt>
      <trkpt lat="42.7634610" lon="-8.5469170">
        <ele>33.5</ele>
        <time>2022-04-14T14:21:02Z</time>
      </trkpt>
      <trkpt lat="42.7634620" lon="-8.5469160">
        <ele>33.5</ele>
        <time>2022-04-14T14:21:03Z</time>
      </trkpt>
      <trkpt lat="42.7634620" lon="-8.5469160">
        <ele>33.5</ele>
        <time>2022-04-14T14:21:04Z</time>
      </trkpt>
      <trkpt lat="42.7634620" lon="-8.5469150">
        <ele>33.5</ele>
        <time>2022-04-14T14:21:05Z</time>
      </trkpt>
      <trkpt lat="42.7634620" lon="-8.5469140">
        <ele>33.5</ele>
        <time>2022-04-14T14:21:06Z</time>
      </trkpt>
      <trkpt lat="42.7634620" lon="-8.5469140">
        <ele>33.5</ele>
        <time>2022-04-14T14:21:07Z</time>
      </trkpt>
      <trkpt lat="42.7634630" lon="-8.5469130">
        <ele>33.5</ele>
        <time>2022-04-14T14:21:08Z</time>
      </trkpt>
      <trkpt lat="42.7634630" lon="-8.5469120">
        <ele>33.5</ele>
        <time>2022-04-14T14:21:09Z</time>
      </trkpt>
      <trkpt lat="42.7634630" lon="-8.5469120">
        <ele>33.5</ele>
        <time>2022-04-14T14:21:10Z</time>
      </trkpt>
      <trkpt lat="42.7634630" lon="-8.5469110">
        <ele>33.5</ele>
        <time>2022-04-14T14:21:11Z</time>
      </trkpt>
      <trkpt lat="42.7634630" lon="-8.5469110">
        <ele>33.5</ele>
        <time>2022-04-14T14:21:12Z</time>
      </trkpt>
      <trkpt lat="42.7634640" lon="-8.5469100">
        <ele>33.5</ele>
        <time>2022-04-14T14:21:13Z</time>
      </trkpt>
      <trkpt lat="42.7634640" lon="-8.5469090">
        <ele>33.5</ele>
        <time>2022-04-14T14:21:14Z</time>
      </trkpt>
      <trkpt lat="42.7634640" lon="-8.5469090">
        <ele>33.5</ele>
        <time>2022-04-14T14:21:15Z</time>
      </trkpt>
      <trkpt lat="42.7634640" lon="-8.5469080">
        <ele>33.5</ele>
        <time>2022-04-14T14:21:16Z</time>
      </trkpt>
      <trkpt lat="42.7634650" lon="-8.5469070">
        <ele>33.5</ele>
        <time>2022-04-14T14:21:17Z</time>
      </trkpt>
      <trkpt lat="42.7634650" lon="-8.5469070">
        <ele>33.5</ele>
        <time>2022-04-14T14:21:18Z</time>
      </trkpt>
      <trkpt lat="42.7634650" lon="-8.5469060">
        <ele>33.5</ele>
        <time>2022-04-14T14:21:19Z</time>
      </trkpt>
      <trkpt lat="42.7634650" lon="-8.5469050">
        <ele>33.5</ele>
        <time>2022-04-14T14:21:20Z</time>
      </trkpt>
      <trkpt lat="42.7634650" lon="-8.5469050">
        <ele>33.5</ele>
        <time>2022-04-14T14:21:21Z</time>
      </trkpt>
      <trkpt lat="42.7634660" lon="-8.5469040">
        <ele>33.5</ele>
        <time>2022-04-14T14:21:22Z</time>
      </trkpt>
      <trkpt lat="42.7634660" lon="-8.5469030">
        <ele>33.5</ele>
        <time>2022-04-14T14:21:23Z</time>
      </trkpt>
      <trkpt lat="42.7634660" lon="-8.5469030">
        <ele>33.5</ele>
        <time>2022-04-14T14:21:24Z</time>
      </trkpt>
      <trkpt lat="42.7634660" lon="-8.5469020">
        <ele>33.5</ele>
        <time>2022-04-14T14:21:25Z</time>
      </trkpt>
      <trkpt lat="42.7634660" lon="-8.5469010">
        <ele>33.5</ele>
        <time>2022-04-14T14:21:26Z</time>
      </trkpt>
      <trkpt lat="42.7634670" lon="-8.5469010">
        <ele>33.5</ele>
        <time>2022-04-14T14:21:27Z</time>
      </trkpt>
      <trkpt lat="42.7634670" lon="-8.5469000">
        <ele>33.5</ele>
        <time>2022-04-14T14:21:28Z</time>
      </trkpt>
      <trkpt lat="42.7634670" lon="-8.5468990">
        <ele>33.5</ele>
        <time>2022-04-14T14:21:29Z</time>
      </trkpt>
      <trkpt lat="42.7634670" lon="-8.5468990">
        <ele>33.5</ele>
        <time>2022-04-14T14:21:30Z</time>
      </trkpt>
      <trkpt lat="42.7634680" lon="-8.5468980">
        <ele>33.5</ele>
        <time>2022-04-14T14:21:31Z</time>
      </trkpt>
      <trkpt lat="42.7634680" lon="-8.5468970">
        <ele>33.5</ele>
        <time>2022-04-14T14:21:32Z</time>
      </trkpt>
      <trkpt lat="42.7634680" lon="-8.5468970">
        <ele>33.5</ele>
        <time>2022-04-14T14:21:33Z</time>
      </trkpt>
      <trkpt lat="42.7634680" lon="-8.5468960">
        <ele>33.5</ele>
        <time>2022-04-14T14:21:34Z</time>
      </trkpt>
      <trkpt lat="42.7634680" lon="-8.5468950">
        <ele>33.5</ele>
        <time>2022-04-14T14:21:35Z</time>
      </trkpt>
      <trkpt lat="42.7634690" lon="-8.5468950">
        <ele>33.5</ele>
        <time>2022-04-14T14:21:36Z</time>
      </trkpt>
      <trkpt lat="42.7634690" lon="-8.5468940">
        <ele>33.5</ele>
        <time>2022-04-14T14:21:37Z</time>
      </trkpt>
      <trkpt lat="42.7634690" lon="-8.5468930">
        <ele>33.5</ele>
        <time>2022-04-14T14:21:38Z</time>
      </trkpt>
      <trkpt lat="42.7634690" lon="-8.5468930">
        <ele>33.5</ele>
        <time>2022-04-14T14:21:39Z</time>
      </trkpt>
      <trkpt lat="42.7634690" lon="-8.5468920">
        <ele>33.5</ele>
        <time>2022-04-14T14:21:40Z</time>
      </trkpt>
      <trkpt lat="42.7634700" lon="-8.5468910">
        <ele>33.5</ele>
        <time>2022-04-14T14:21:41Z</time>
      </trkpt>
      <trkpt lat="42.7634700" lon="-8.5468910">
        <ele>33.5</ele>
        <time>2022-04-14T14:21:42Z</time>
      </trkpt>
      <trkpt lat="42.7634700" lon="-8.5468900">
        <ele>33.5</ele>
        <time>2022-04-14T14:21:43Z</time>
      </trkpt>
      <trkpt lat="42.7634700" lon="-8.5468890">
        <ele>33.5</ele>
        <time>2022-04-14T14:21:44Z</time>
      </trkpt>
      <trkpt lat="42.7634710" lon="-8.5468890">
        <ele>33.5</ele>
        <time>2022-04-14T14:21:45Z</time>
      </trkpt>
      <trkpt lat="42.7634710" lon="-8.5468880">
        <ele>33.5</ele>
        <time>2022-04-14T14:21:46Z</time>
      </trkpt>
      <trkpt lat="42.7634710" lon="-8.5468870">
        <ele>33.5</ele>
        <time>2022-04-14T14:21:47Z</time>
      </trkpt>
      <trkpt lat="42.7634710" lon="-8.5468870">
        <ele>33.5</ele>
        <time>2022-04-14T14:21:48Z</time>
      </trkpt>
      <trkpt lat="42.7634710" lon="-8.5468860">
        <ele>33.5</ele>
        <time>2022-04-14T14:21:49Z</time>
      </trkpt>
      <trkpt lat="42.7634720" lon="-8.5468850">
        <ele>33.5</ele>
        <time>2022-04-14T14:21:50Z</time>
      </trkpt>
      <trkpt lat="42.7634720" lon="-8.5468850">
        <ele>33.5</ele>
        <time>2022-04-14T14:21:51Z</time>
      </trkpt>
      <trkpt lat="42.7634720" lon="-8.5468840">
        <ele>33.5</ele>
        <time>2022-04-14T14:21:52Z</time>
      </trkpt>
      <trkpt lat="42.7634720" lon="-8.5468830">
        <ele>33.5</ele>
        <time>2022-04-14T14:21:53Z</time>
      </trkpt>
      <trkpt lat="42.7634720" lon="-8.5468830">
        <ele>33.5</ele>
        <time>2022-04-14T14:21:54Z</time>
      </trkpt>
      <trkpt lat="42.7634730" lon="-8.5468820">
        <ele>33.5</ele>
        <time>2022-04-14T14:21:55Z</time>
      </trkpt>
      <trkpt lat="42.7634730" lon="-8.5468810">
        <ele>33.5</ele>
        <time>2022-04-14T14:21:56Z</time>
      </trkpt>
      <trkpt lat="42.7634730" lon="-8.5468810">
        <ele>33.5</ele>
        <time>2022-04-14T14:21:57Z</time>
      </trkpt>
      <trkpt lat="42.7634730" lon="-8.5468800">
        <ele>33.5</ele>
        <time>2022-04-14T14:21:58Z</time>
      </trkpt>
      <trkpt lat="42.7634740" lon="-8.5468790">
        <ele>33.5</ele>
        <time>2022-04-14T14:21:59Z</time>
      </trkpt>
      <trkpt lat="42.7634740" lon="-8.5468790">
        <ele>33.5</ele>
        <time>2022-04-14T14:22:00Z</time>
      </trkpt>
      <trkpt lat="42.7634740" lon="-8.5468780">
        <ele>33.5</ele>
        <time>2022-04-14T14:22:01Z</time>
      </trkpt>
      <trkpt lat="42.7634740" lon="-8.5468770">
        <ele>33.5</ele>
        <time>2022-04-14T14:22:02Z</time>
      </trkpt>
      <trkpt lat="42.7634740" lon="-8.5468770">
        <ele>33.5</ele>
        <time>2022-04-14T14:22:03Z</time>
      </trkpt>
      <trkpt lat="42.7634750" lon="-8.5468760">
        <ele>33.5</ele>
        <time>2022-04-14T14:22:04Z</time>
      </trkpt>
      <trkpt lat="42.7634750" lon="-8.5468750">
        <ele>33.5</ele>
        <time>2022-04-14T14:22:05Z</time>
      </trkpt>
      <trkpt lat="42.7634750" lon="-8.5468750">
        <ele>33.5</ele>
        <time>2022-04-14T14:22:06Z</time>
      </trkpt>
      <trkpt lat="42.7634750" lon="-8.5468740">
        <ele>33.5</ele>
        <time>2022-04-14T14:22:07Z</time>
      </trkpt>
      <trkpt lat="42.7634750" lon="-8.5468730">
        <ele>33.5</ele>
        <time>2022-04-14T14:22:08Z</time>
      </trkpt>
      <trkpt lat="42.7634760" lon="-8.5468730">
        <ele>33.5</ele>
        <time>2022-04-14T14:22:09Z</time>
      </trkpt>
      <trkpt lat="42.7634760" lon="-8.5468720">
        <ele>33.5</ele>
        <time>2022-04-14T14:22:10Z</time>
      </trkpt>
      <trkpt lat="42.7634760" lon="-8.5468710">
        <ele>33.5</ele>
        <time>2022-04-14T14:22:11Z</time>
      </trkpt>
      <trkpt lat="42.7634760" lon="-8.5468710">
        <ele>33.5</ele>
        <time>2022-04-14T14:22:12Z</time>
      </trkpt>
      <trkpt lat="42.7634760" lon="-8.5468700">
        <ele>33.5</ele>
        <time>2022-04-14T14:22:13Z</time>
      </trkpt>
      <trkpt lat="42.7634770" lon="-8.5468690">
        <ele>33.5</ele>
        <time>2022-04-14T14:22:14Z</time>
      </trkpt>
      <trkpt lat="42.7634770" lon="-8.5468690">
        <ele>33.5</ele>
        <time>2022-04-14T14:22:15Z</time>
      </trkpt>
      <trkpt lat="42.7634770" lon="-8.5468680">
        <ele>33.5</ele>
        <time>2022-04-14T14:22:16Z</time>
      </trkpt>
      <trkpt lat="42.7634770" lon="-8.5468670">
        <ele>33.5</ele>
        <time>2022-04-14T14:22:17Z</time>
      </trkpt>
      <trkpt lat="42.7634780" lon="-8.5468670">
        <ele>33.5</ele>
        <time>2022-04-14T14:22:18Z</time>
      </trkpt>
      <trkpt lat="42.7634780" lon="-8.5468660">
        <ele>33.5</ele>
        <time>2022-04-14T14:22:19Z</time>
      </trkpt>
      <trkpt lat="42.7634780" lon="-8.5468650">
        <ele>33.5</ele>
        <time>2022-04-14T14:22:20Z</time>
      </trkpt>
      <trkpt lat="42.7634780" lon="-8.5468650">
        <ele>33.5</ele>
        <time>2022-04-14T14:22:21Z</time>
      </trkpt>
      <trkpt lat="42.7634780" lon="-8.5468640">
        <ele>33.5</ele>
        <time>2022-04-14T14:22:22Z</time>
      </trkpt>
      <trkpt lat="42.7634790" lon="-8.5468630">
        <ele>33.5</ele>
        <time>2022-04-14T14:22:23Z</time>
      </trkpt>
      <trkpt lat="42.7634790" lon="-8.5468630">
        <ele>33.5</ele>
        <time>2022-04-14T14:22:24Z</time>
      </trkpt>
      <trkpt lat="42.7634790" lon="-8.5468620">
        <ele>33.5</ele>
        <time>2022-04-14T14:22:25Z</time>
      </trkpt>
      <trkpt lat="42.7634790" lon="-8.5468610">
        <ele>33.5</ele>
        <time>2022-04-14T14:22:26Z</time>
      </trkpt>
      <trkpt lat="42.7634790" lon="-8.5468610">
        <ele>33.5</ele>
        <time>2022-04-14T14:22:27Z</time>
      </trkpt>
      <trkpt lat="42.7634800" lon="-8.5468600">
        <ele>33.5</ele>
        <time>2022-04-14T14:22:28Z</time>
      </trkpt>
      <trkpt lat="42.7634800" lon="-8.5468590">
        <ele>33.5</ele>
        <time>2022-04-14T14:22:29Z</time>
      </trkpt>
      <trkpt lat="42.7634800" lon="-8.5468590">
        <ele>33.5</ele>
        <time>2022-04-14T14:22:30Z</time>
      </trkpt>
      <trkpt lat="42.7634800" lon="-8.5468580">
        <ele>33.5</ele>
        <time>2022-04-14T14:22:31Z</time>
      </trkpt>
      <trkpt lat="42.7634810" lon="-8.5468570">
        <ele>33.5</ele>
        <time>2022-04-14T14:22:32Z</time>
      </trkpt>
      <trkpt lat="42.7634810" lon="-8.5468570">
        <ele>33.5</ele>
        <time>2022-04-14T14:22:33Z</time>
      </trkpt>
      <trkpt lat="42.7634810" lon="-8.5468560">
        <ele>33.5</ele>
        <time>2022-04-14T14:22:34Z</time>
      </trkpt>
      <trkpt lat="42.7634810" lon="-8.5468550">
        <ele>33.5</ele>
        <time>2022-04-14T14:22:35Z</time>
      </trkpt>
      <trkpt lat="42.7634810" lon="-8.5468550">
        <ele>33.5</ele>
        <time>2022-04-14T14:22:36Z</time>
      </trkpt>
      <trkpt lat="42.7634820" lon="-8.5468540">
        <ele>33.5</ele>
        <time>2022-04-14T14:22:37Z</time>
      </trkpt>
      <trkpt lat="42.7634820" lon="-8.5468530">
        <ele>33.5</ele>
        <time>2022-04-14T14:22:38Z</time>
      </trkpt>
      <trkpt lat="42.7634820" lon="-8.5468530">
        <ele>33.5</ele>
        <time>2022-04-14T14:22:39Z</time>
      </trkpt>
      <trkpt lat="42.7634820" lon="-8.5468520">
        <ele>33.5</ele>
        <time>2022-04-14T14:22:40Z</time>
      </trkpt>
      <trkpt lat="42.7634820" lon="-8.5468510">
        <ele>33.5</ele>
        <time>2022-04-14T14:22:41Z</time>
      </trkpt>
      <trkpt lat="42.7634830" lon="-8.5468510">
        <ele>33.5</ele>
        <time>2022-04-14T14:22:42Z</time>
      </trkpt>
      <trkpt lat="42.7634830" lon="-8.5468500">
        <ele>33.5</ele>
        <time>2022-04-14T14:22:43Z</time>
      </trkpt>
      <trkpt lat="42.7634830" lon="-8.5468490">
        <ele>33.5</ele>
        <time>2022-04-14T14:22:44Z</time>
      </trkpt>
      <trkpt lat="42.7634830" lon="-8.5468490">
        <ele>33.5</ele>
        <time>2022-04-14T14:22:45Z</time>
      </trkpt>
      <trkpt lat="42.7634840" lon="-8.5468480">
        <ele>33.5</ele>
        <time>2022-04-14T14:22:46Z</time>
      </trkpt>
      <trkpt lat="42.7634840" lon="-8.5468470">
        <ele>33.5</ele>
        <time>2022-04-14T14:22:47Z</time>
      </trkpt>
      <trkpt lat="42.7634840" lon="-8.5468470">
        <ele>33.5</ele>
        <time>2022-04-14T14:22:48Z</time>
      </trkpt>
      <trkpt lat="42.7634840" lon="-8.5468460">
        <ele>33.5</ele>
        <time>2022-04-14T14:22:49Z</time>
      </trkpt>
      <trkpt lat="42.7634840" lon="-8.5468450">
        <ele>33.5</ele>
        <time>2022-04-14T14:22:50Z</time>
      </trkpt>
      <trkpt lat="42.7634850" lon="-8.5468450">
        <ele>33.5</ele>
        <time>2022-04-14T14:22:51Z</time>
      </trkpt>
      <trkpt lat="42.7634850" lon="-8.5468440">
        <ele>33.5</ele>
        <time>2022-04-14T14:22:52Z</time>
      </trkpt>
      <trkpt lat="42.7634850" lon="-8.5468430">
        <ele>33.5</ele>
        <time>2022-04-14T14:22:53Z</time>
      </trkpt>
      <trkpt lat="42.7634850" lon="-8.5468430">
        <ele>33.5</ele>
        <time>2022-04-14T14:22:54Z</time>
      </trkpt>
      <trkpt lat="42.7634850" lon="-8.5468420">
        <ele>33.5</ele>
        <time>2022-04-14T14:22:55Z</time>
      </trkpt>
      <trkpt lat="42.7634860" lon="-8.5468410">
        <ele>33.5</ele>
        <time>2022-04-14T14:22:56Z</time>
      </trkpt>
      <trkpt lat="42.7634860" lon="-8.5468410">
        <ele>33.5</ele>
        <time>2022-04-14T14:22:57Z</time>
      </trkpt>
      <trkpt lat="42.7634860" lon="-8.5468400">
        <ele>33.5</ele>
        <time>2022-04-14T14:22:58Z</time>
      </trkpt>
      <trkpt lat="42.7634860" lon="-8.5468390">
        <ele>33.5</ele>
        <time>2022-04-14T14:22:59Z</time>
      </trkpt>
      <trkpt lat="42.7634870" lon="-8.5468390">
        <ele>33.5</ele>
        <time>2022-04-14T14:23:00Z</time>
      </trkpt>
      <trkpt lat="42.7634870" lon="-8.5468380">
        <ele>33.5</ele>
        <time>2022-04-14T14:23:01Z</time>
      </trkpt>
      <trkpt lat="42.7634870" lon="-8.5468370">
        <ele>33.5</ele>
        <time>2022-04-14T14:23:02Z</time>
      </trkpt>
      <trkpt lat="42.7634870" lon="-8.5468370">
        <ele>33.5</ele>
        <time>2022-04-14T14:23:03Z</time>
      </trkpt>
      <trkpt lat="42.7634870" lon="-8.5468360">
        <ele>33.5</ele>
        <time>2022-04-14T14:23:04Z</time>
      </trkpt>
      <trkpt lat="42.7634880" lon="-8.5468350">
        <ele>33.5</ele>
        <time>2022-04-14T14:23:05Z</time>
      </trkpt>
      <trkpt lat="42.7634880" lon="-8.5468350">
        <ele>33.5</ele>
        <time>2022-04-14T14:23:06Z</time>
      </trkpt>
      <trkpt lat="42.7634880" lon="-8.5468340">
        <ele>33.5</ele>
        <time>2022-04-14T14:23:07Z</time>
      </trkpt>
      <trkpt lat="42.7634880" lon="-8.5468330">
        <ele>33.5</ele>
        <time>2022-04-14T14:23:08Z</time>
      </trkpt>
      <trkpt lat="42.7634880" lon="-8.5468380">
        <ele>33.5</ele>
        <time>2022-04-14T14:23:09Z</time>
      </trkpt>
      <trkpt lat="42.7634870" lon="-8.5468420">
        <ele>33.5</ele>
        <time>2022-04-14T14:23:10Z</time>
      </trkpt>
      <trkpt lat="42.7634870" lon="-8.5468460">
        <ele>33.5</ele>
        <time>2022-04-14T14:23:11Z</time>
      </trkpt>
      <trkpt lat="42.7634860" lon="-8.5468500">
        <ele>33.5</ele>
        <time>2022-04-14T14:23:12Z</time>
      </trkpt>
      <trkpt lat="42.7634860" lon="-8.5468540">
        <ele>33.6</ele>
        <time>2022-04-14T14:23:13Z</time>
      </trkpt>
      <trkpt lat="42.7634850" lon="-8.5468580">
        <ele>33.6</ele>
        <time>2022-04-14T14:23:14Z</time>
      </trkpt>
      <trkpt lat="42.7634850" lon="-8.5468630">
        <ele>33.6</ele>
        <time>2022-04-14T14:23:15Z</time>
      </trkpt>
      <trkpt lat="42.7634840" lon="-8.5468670">
        <ele>33.6</ele>
        <time>2022-04-14T14:23:16Z</time>
      </trkpt>
      <trkpt lat="42.7634840" lon="-8.5468710">
        <ele>33.6</ele>
        <time>2022-04-14T14:23:17Z</time>
      </trkpt>
      <trkpt lat="42.7634830" lon="-8.5468750">
        <ele>33.6</ele>
        <time>2022-04-14T14:23:18Z</time>
      </trkpt>
      <trkpt lat="42.7634830" lon="-8.5468790">
        <ele>33.6</ele>
        <time>2022-04-14T14:23:19Z</time>
      </trkpt>
      <trkpt lat="42.7634820" lon="-8.5468830">
        <ele>33.6</ele>
        <time>2022-04-14T14:23:20Z</time>
      </trkpt>
      <trkpt lat="42.7634820" lon="-8.5468880">
        <ele>33.6</ele>
        <time>2022-04-14T14:23:21Z</time>
      </trkpt>
      <trkpt lat="42.7634810" lon="-8.5468920">
        <ele>33.6</ele>
        <time>2022-04-14T14:23:22Z</time>
      </trkpt>
      <trkpt lat="42.7634810" lon="-8.5468960">
        <ele>33.6</ele>
        <time>2022-04-14T14:23:23Z</time>
      </trkpt>
      <trkpt lat="42.7634800" lon="-8.5469000">
        <ele>33.6</ele>
        <time>2022-04-14T14:23:24Z</time>
      </trkpt>
      <trkpt lat="42.7634800" lon="-8.5469040">
        <ele>33.6</ele>
        <time>2022-04-14T14:23:25Z</time>
      </trkpt>
      <trkpt lat="42.7634790" lon="-8.5469080">
        <ele>33.6</ele>
        <time>2022-04-14T14:23:26Z</time>
      </trkpt>
      <trkpt lat="42.7634790" lon="-8.5469130">
        <ele>33.6</ele>
        <time>2022-04-14T14:23:27Z</time>
      </trkpt>
      <trkpt lat="42.7634780" lon="-8.5469170">
        <ele>33.6</ele>
        <time>2022-04-14T14:23:28Z</time>
      </trkpt>
      <trkpt lat="42.7634780" lon="-8.5469210">
        <ele>33.6</ele>
        <time>2022-04-14T14:23:29Z</time>
      </trkpt>
      <trkpt lat="42.7634770" lon="-8.5469250">
        <ele>33.6</ele>
        <time>2022-04-14T14:23:30Z</time>
      </trkpt>
      <trkpt lat="42.7634770" lon="-8.5469290">
        <ele>33.6</ele>
        <time>2022-04-14T14:23:31Z</time>
      </trkpt>
      <trkpt lat="42.7634760" lon="-8.5469330">
        <ele>33.6</ele>
        <time>2022-04-14T14:23:32Z</time>
      </trkpt>
      <trkpt lat="42.7634760" lon="-8.5469380">
        <ele>33.6</ele>
        <time>2022-04-14T14:23:33Z</time>
      </trkpt>
      <trkpt lat="42.7634750" lon="-8.5469420">
        <ele>33.6</ele>
        <time>2022-04-14T14:23:34Z</time>
      </trkpt>
      <trkpt lat="42.7634750" lon="-8.5469460">
        <ele>33.6</ele>
        <time>2022-04-14T14:23:35Z</time>
      </trkpt>
      <trkpt lat="42.7634740" lon="-8.5469500">
        <ele>33.6</ele>
        <time>2022-04-14T14:23:36Z</time>
      </trkpt>
      <trkpt lat="42.7634740" lon="-8.5469540">
        <ele>33.6</ele>
        <time>2022-04-14T14:23:37Z</time>
      </trkpt>
      <trkpt lat="42.7634730" lon="-8.5469580">
        <ele>33.6</ele>
        <time>2022-04-14T14:23:38Z</time>
      </trkpt>
      <trkpt lat="42.7634600" lon="-8.5469720">
        <ele>33.7</ele>
        <time>2022-04-14T14:23:39Z</time>
      </trkpt>
      <trkpt lat="42.7634470" lon="-8.5469850">
        <ele>33.7</ele>
        <time>2022-04-14T14:23:40Z</time>
      </trkpt>
      <trkpt lat="42.7634340" lon="-8.5469980">
        <ele>33.7</ele>
        <time>2022-04-14T14:23:41Z</time>
      </trkpt>
      <trkpt lat="42.7634210" lon="-8.5470120">
        <ele>33.7</ele>
        <time>2022-04-14T14:23:42Z</time>
      </trkpt>
      <trkpt lat="42.7634080" lon="-8.5470250">
        <ele>33.7</ele>
        <time>2022-04-14T14:23:43Z</time>
      </trkpt>
      <trkpt lat="42.7633950" lon="-8.5470380">
        <ele>33.8</ele>
        <time>2022-04-14T14:23:44Z</time>
      </trkpt>
      <trkpt lat="42.7633990" lon="-8.5470400">
        <ele>33.8</ele>
        <time>2022-04-14T14:23:45Z</time>
      </trkpt>
      <trkpt lat="42.7634030" lon="-8.5470410">
        <ele>33.8</ele>
        <time>2022-04-14T14:23:46Z</time>
      </trkpt>
      <trkpt lat="42.7634070" lon="-8.5470430">
        <ele>33.8</ele>
        <time>2022-04-14T14:23:47Z</time>
      </trkpt>
      <trkpt lat="42.7634100" lon="-8.5470440">
        <ele>33.8</ele>
        <time>2022-04-14T14:23:48Z</time>
      </trkpt>
      <trkpt lat="42.7634140" lon="-8.5470460">
        <ele>33.8</ele>
        <time>2022-04-14T14:23:49Z</time>
      </trkpt>
      <trkpt lat="42.7634180" lon="-8.5470470">
        <ele>33.8</ele>
        <time>2022-04-14T14:23:50Z</time>
      </trkpt>
      <trkpt lat="42.7634220" lon="-8.5470490">
        <ele>33.8</ele>
        <time>2022-04-14T14:23:51Z</time>
      </trkpt>
      <trkpt lat="42.7634250" lon="-8.5470500">
        <ele>33.8</ele>
        <time>2022-04-14T14:23:52Z</time>
      </trkpt>
      <trkpt lat="42.7634290" lon="-8.5470520">
        <ele>33.8</ele>
        <time>2022-04-14T14:23:53Z</time>
      </trkpt>
      <trkpt lat="42.7634330" lon="-8.5470530">
        <ele>33.8</ele>
        <time>2022-04-14T14:23:54Z</time>
      </trkpt>
      <trkpt lat="42.7634370" lon="-8.5470550">
        <ele>33.8</ele>
        <time>2022-04-14T14:23:55Z</time>
      </trkpt>
      <trkpt lat="42.7634410" lon="-8.5470570">
        <ele>33.8</ele>
        <time>2022-04-14T14:23:56Z</time>
      </trkpt>
      <trkpt lat="42.7634440" lon="-8.5470580">
        <ele>33.8</ele>
        <time>2022-04-14T14:23:57Z</time>
      </trkpt>
      <trkpt lat="42.7634480" lon="-8.5470600">
        <ele>33.8</ele>
        <time>2022-04-14T14:23:58Z</time>
      </trkpt>
      <trkpt lat="42.7634520" lon="-8.5470610">
        <ele>33.8</ele>
        <time>2022-04-14T14:23:59Z</time>
      </trkpt>
      <trkpt lat="42.7634560" lon="-8.5470630">
        <ele>33.9</ele>
        <time>2022-04-14T14:24:00Z</time>
      </trkpt>
      <trkpt lat="42.7634600" lon="-8.5470640">
        <ele>33.9</ele>
        <time>2022-04-14T14:24:01Z</time>
      </trkpt>
      <trkpt lat="42.7634630" lon="-8.5470660">
        <ele>33.9</ele>
        <time>2022-04-14T14:24:02Z</time>
      </trkpt>
      <trkpt lat="42.7634670" lon="-8.5470670">
        <ele>33.9</ele>
        <time>2022-04-14T14:24:03Z</time>
      </trkpt>
      <trkpt lat="42.7634710" lon="-8.5470690">
        <ele>33.9</ele>
        <time>2022-04-14T14:24:04Z</time>
      </trkpt>
      <trkpt lat="42.7634750" lon="-8.5470700">
        <ele>33.9</ele>
        <time>2022-04-14T14:24:05Z</time>
      </trkpt>
      <trkpt lat="42.7634790" lon="-8.5470720">
        <ele>33.9</ele>
        <time>2022-04-14T14:24:06Z</time>
      </trkpt>
      <trkpt lat="42.7634820" lon="-8.5470730">
        <ele>33.9</ele>
        <time>2022-04-14T14:24:07Z</time>
      </trkpt>
      <trkpt lat="42.7634820" lon="-8.5470730">
        <ele>33.9</ele>
        <time>2022-04-14T14:24:08Z</time>
      </trkpt>
      <trkpt lat="42.7634820" lon="-8.5470730">
        <ele>33.9</ele>
        <time>2022-04-14T14:24:09Z</time>
      </trkpt>
      <trkpt lat="42.7634820" lon="-8.5470730">
        <ele>33.9</ele>
        <time>2022-04-14T14:24:10Z</time>
      </trkpt>
      <trkpt lat="42.7634820" lon="-8.5470730">
        <ele>33.9</ele>
        <time>2022-04-14T14:24:11Z</time>
      </trkpt>
      <trkpt lat="42.7634820" lon="-8.5470730">
        <ele>33.9</ele>
        <time>2022-04-14T14:24:12Z</time>
      </trkpt>
      <trkpt lat="42.7634820" lon="-8.5470730">
        <ele>33.9</ele>
        <time>2022-04-14T14:24:13Z</time>
      </trkpt>
      <trkpt lat="42.7634820" lon="-8.5470730">
        <ele>33.9</ele>
        <time>2022-04-14T14:24:14Z</time>
      </trkpt>
      <trkpt lat="42.7634820" lon="-8.5470730">
        <ele>33.9</ele>
        <time>2022-04-14T14:24:15Z</time>
      </trkpt>
      <trkpt lat="42.7634820" lon="-8.5470730">
        <ele>33.9</ele>
        <time>2022-04-14T14:24:16Z</time>
      </trkpt>
      <trkpt lat="42.7634820" lon="-8.5470730">
        <ele>33.9</ele>
        <time>2022-04-14T14:24:17Z</time>
      </trkpt>
      <trkpt lat="42.7634820" lon="-8.5470730">
        <ele>33.9</ele>
        <time>2022-04-14T14:24:18Z</time>
      </trkpt>
      <trkpt lat="42.7634820" lon="-8.5470730">
        <ele>33.9</ele>
        <time>2022-04-14T14:24:19Z</time>
      </trkpt>
      <trkpt lat="42.7634820" lon="-8.5470730">
        <ele>33.9</ele>
        <time>2022-04-14T14:24:20Z</time>
      </trkpt>
      <trkpt lat="42.7634820" lon="-8.5470730">
        <ele>33.9</ele>
        <time>2022-04-14T14:24:21Z</time>
      </trkpt>
      <trkpt lat="42.7634820" lon="-8.5470730">
        <ele>33.9</ele>
        <time>2022-04-14T14:24:22Z</time>
      </trkpt>
      <trkpt lat="42.7634820" lon="-8.5470730">
        <ele>33.9</ele>
        <time>2022-04-14T14:24:23Z</time>
      </trkpt>
      <trkpt lat="42.7634820" lon="-8.5470730">
        <ele>33.9</ele>
        <time>2022-04-14T14:24:24Z</time>
      </trkpt>
      <trkpt lat="42.7634290" lon="-8.5471580">
        <ele>34.0</ele>
        <time>2022-04-14T14:24:25Z</time>
      </trkpt>
      <trkpt lat="42.7401380" lon="-8.5522300">
        <ele>151.9</ele>
        <time>2022-04-14T15:31:22Z</time>
      </trkpt>
      <trkpt lat="42.7402710" lon="-8.5522520">
        <ele>149.9</ele>
        <time>2022-04-14T15:31:23Z</time>
      </trkpt>
      <trkpt lat="42.7404030" lon="-8.5522730">
        <ele>147.7</ele>
        <time>2022-04-14T15:31:24Z</time>
      </trkpt>
      <trkpt lat="42.7404410" lon="-8.5522810">
        <ele>147.7</ele>
        <time>2022-04-14T15:31:25Z</time>
      </trkpt>
      <trkpt lat="42.7404780" lon="-8.5522890">
        <ele>145.7</ele>
        <time>2022-04-14T15:31:26Z</time>
      </trkpt>
      <trkpt lat="42.7406180" lon="-8.5523060">
        <ele>143.8</ele>
        <time>2022-04-14T15:31:27Z</time>
      </trkpt>
      <trkpt lat="42.7406840" lon="-8.5523060">
        <ele>143.8</ele>
        <time>2022-04-14T15:31:28Z</time>
      </trkpt>
      <trkpt lat="42.7407490" lon="-8.5523070">
        <ele>142.3</ele>
        <time>2022-04-14T15:31:29Z</time>
      </trkpt>
      <trkpt lat="42.7408140" lon="-8.5522990">
        <ele>142.3</ele>
        <time>2022-04-14T15:31:30Z</time>
      </trkpt>
      <trkpt lat="42.7408480" lon="-8.5522990">
        <ele>140.7</ele>
        <time>2022-04-14T15:31:31Z</time>
      </trkpt>
      <trkpt lat="42.7408820" lon="-8.5522980">
        <ele>140.7</ele>
        <time>2022-04-14T15:31:32Z</time>
      </trkpt>
      <trkpt lat="42.7409830" lon="-8.5522960">
        <ele>139.6</ele>
        <time>2022-04-14T15:31:33Z</time>
      </trkpt>
      <trkpt lat="42.7410160" lon="-8.5522940">
        <ele>139.6</ele>
        <time>2022-04-14T15:31:34Z</time>
      </trkpt>
      <trkpt lat="42.7411420" lon="-8.5523040">
        <ele>138.3</ele>
        <time>2022-04-14T15:31:35Z</time>
      </trkpt>
      <trkpt lat="42.7412040" lon="-8.5523170">
        <ele>138.3</ele>
        <time>2022-04-14T15:31:36Z</time>
      </trkpt>
      <trkpt lat="42.7412650" lon="-8.5523300">
        <ele>137.1</ele>
        <time>2022-04-14T15:31:37Z</time>
      </trkpt>
      <trkpt lat="42.7413270" lon="-8.5523510">
        <ele>133.3</ele>
        <time>2022-04-14T15:31:38Z</time>
      </trkpt>
      <trkpt lat="42.7413660" lon="-8.5523710">
        <ele>131.6</ele>
        <time>2022-04-14T15:31:39Z</time>
      </trkpt>
      <trkpt lat="42.7414040" lon="-8.5523910">
        <ele>131.6</ele>
        <time>2022-04-14T15:31:40Z</time>
      </trkpt>
      <trkpt lat="42.7414420" lon="-8.5524100">
        <ele>131.6</ele>
        <time>2022-04-14T15:31:41Z</time>
      </trkpt>
      <trkpt lat="42.7414420" lon="-8.5524100">
        <ele>131.6</ele>
        <time>2022-04-14T15:31:42Z</time>
      </trkpt>
      <trkpt lat="42.7414420" lon="-8.5524100">
        <ele>131.6</ele>
        <time>2022-04-14T15:31:43Z</time>
      </trkpt>
      <trkpt lat="42.7414420" lon="-8.5524100">
        <ele>131.6</ele>
        <time>2022-04-14T15:31:44Z</time>
      </trkpt>
      <trkpt lat="42.7414420" lon="-8.5524100">
        <ele>131.6</ele>
        <time>2022-04-14T15:31:45Z</time>
      </trkpt>
      <trkpt lat="42.7414420" lon="-8.5524100">
        <ele>131.6</ele>
        <time>2022-04-14T15:31:46Z</time>
      </trkpt>
      <trkpt lat="42.7414420" lon="-8.5524100">
        <ele>131.6</ele>
        <time>2022-04-14T15:31:47Z</time>
      </trkpt>
      <trkpt lat="42.7414420" lon="-8.5524100">
        <ele>131.6</ele>
        <time>2022-04-14T15:31:48Z</time>
      </trkpt>
      <trkpt lat="42.7414420" lon="-8.5524100">
        <ele>131.6</ele>
        <time>2022-04-14T15:31:49Z</time>
      </trkpt>
      <trkpt lat="42.7414420" lon="-8.5524100">
        <ele>131.6</ele>
        <time>2022-04-14T15:31:50Z</time>
      </trkpt>
      <trkpt lat="42.7414420" lon="-8.5524100">
        <ele>131.6</ele>
        <time>2022-04-14T15:31:51Z</time>
      </trkpt>
      <trkpt lat="42.7414420" lon="-8.5524100">
        <ele>131.6</ele>
        <time>2022-04-14T15:31:52Z</time>
      </trkpt>
      <trkpt lat="42.7414420" lon="-8.5524100">
        <ele>131.6</ele>
        <time>2022-04-14T15:31:53Z</time>
      </trkpt>
      <trkpt lat="42.7414420" lon="-8.5524100">
        <ele>131.6</ele>
        <time>2022-04-14T15:31:54Z</time>
      </trkpt>
      <trkpt lat="42.7414420" lon="-8.5524100">
        <ele>131.6</ele>
        <time>2022-04-14T15:31:55Z</time>
      </trkpt>
      <trkpt lat="42.7414420" lon="-8.5524100">
        <ele>131.6</ele>
        <time>2022-04-14T15:31:56Z</time>
      </trkpt>
      <trkpt lat="42.7414420" lon="-8.5524100">
        <ele>131.6</ele>
        <time>2022-04-14T15:31:57Z</time>
      </trkpt>
      <trkpt lat="42.7414420" lon="-8.5524100">
        <ele>131.6</ele>
        <time>2022-04-14T15:31:58Z</time>
      </trkpt>
      <trkpt lat="42.7414420" lon="-8.5524100">
        <ele>131.6</ele>
        <time>2022-04-14T15:31:59Z</time>
      </trkpt>
      <trkpt lat="42.7414420" lon="-8.5524100">
        <ele>131.6</ele>
        <time>2022-04-14T15:32:00Z</time>
      </trkpt>
      <trkpt lat="42.7414420" lon="-8.5524100">
        <ele>131.6</ele>
        <time>2022-04-14T15:32:01Z</time>
      </trkpt>
      <trkpt lat="42.7495450" lon="-8.5524390">
        <ele>45.5</ele>
        <time>2022-04-14T15:32:02Z</time>
      </trkpt>
      <trkpt lat="42.7495450" lon="-8.5524390">
        <ele>45.5</ele>
        <time>2022-04-14T15:32:03Z</time>
      </trkpt>
      <trkpt lat="42.7495410" lon="-8.5523800">
        <ele>45.6</ele>
        <time>2022-04-14T15:32:04Z</time>
      </trkpt>
      <trkpt lat="42.7495370" lon="-8.5523210">
        <ele>45.7</ele>
        <time>2022-04-14T15:32:05Z</time>
      </trkpt>
      <trkpt lat="42.7495330" lon="-8.5522610">
        <ele>45.8</ele>
        <time>2022-04-14T15:32:06Z</time>
      </trkpt>
      <trkpt lat="42.7495280" lon="-8.5522020">
        <ele>46.0</ele>
        <time>2022-04-14T15:32:07Z</time>
      </trkpt>
      <trkpt lat="42.7495250" lon="-8.5521330">
        <ele>46.1</ele>
        <time>2022-04-14T15:32:08Z</time>
      </trkpt>
      <trkpt lat="42.7495250" lon="-8.5520640">
        <ele>46.2</ele>
        <time>2022-04-14T15:32:09Z</time>
      </trkpt>
      <trkpt lat="42.7495250" lon="-8.5519950">
        <ele>46.4</ele>
        <time>2022-04-14T15:32:10Z</time>
      </trkpt>
      <trkpt lat="42.7495280" lon="-8.5519350">
        <ele>46.5</ele>
        <time>2022-04-14T15:32:11Z</time>
      </trkpt>
      <trkpt lat="42.7495300" lon="-8.5518760">
        <ele>46.7</ele>
        <time>2022-04-14T15:32:12Z</time>
      </trkpt>
      <trkpt lat="42.7495360" lon="-8.5517560">
        <ele>47.0</ele>
        <time>2022-04-14T15:32:13Z</time>
      </trkpt>
      <trkpt lat="42.7495480" lon="-8.5516440">
        <ele>47.4</ele>
        <time>2022-04-14T15:32:14Z</time>
      </trkpt>
      <trkpt lat="42.7495510" lon="-8.5516080">
        <ele>47.5</ele>
        <time>2022-04-14T15:32:15Z</time>
      </trkpt>
      <trkpt lat="42.7495590" lon="-8.5515360">
        <ele>47.8</ele>
        <time>2022-04-14T15:32:16Z</time>
      </trkpt>
      <trkpt lat="42.7495650" lon="-8.5514660">
        <ele>48.1</ele>
        <time>2022-04-14T15:32:17Z</time>
      </trkpt>
      <trkpt lat="42.7495700" lon="-8.5513630">
        <ele>48.5</ele>
        <time>2022-04-14T15:32:18Z</time>
      </trkpt>
      <trkpt lat="42.7495720" lon="-8.5513270">
        <ele>48.7</ele>
        <time>2022-04-14T15:32:19Z</time>
      </trkpt>
      <trkpt lat="42.7495740" lon="-8.5512580">
        <ele>49.0</ele>
        <time>2022-04-14T15:32:20Z</time>
      </trkpt>
      <trkpt lat="42.7495760" lon="-8.5511900">
        <ele>49.4</ele>
        <time>2022-04-14T15:32:21Z</time>
      </trkpt>
      <trkpt lat="42.7495790" lon="-8.5511230">
        <ele>49.7</ele>
        <time>2022-04-14T15:32:22Z</time>
      </trkpt>
      <trkpt lat="42.7495940" lon="-8.5510260">
        <ele>50.2</ele>
        <time>2022-04-14T15:32:23Z</time>
      </trkpt>
      <trkpt lat="42.7496020" lon="-8.5509930">
        <ele>50.4</ele>
        <time>2022-04-14T15:32:24Z</time>
      </trkpt>
      <trkpt lat="42.7496240" lon="-8.5509310">
        <ele>50.7</ele>
        <time>2022-04-14T15:32:25Z</time>
      </trkpt>
      <trkpt lat="42.7496570" lon="-8.5508780">
        <ele>51.0</ele>
        <time>2022-04-14T15:32:26Z</time>
      </trkpt>
      <trkpt lat="42.7496980" lon="-8.5508350">
        <ele>51.3</ele>
        <time>2022-04-14T15:32:27Z</time>
      </trkpt>
      <trkpt lat="42.7497420" lon="-8.5508060">
        <ele>51.6</ele>
        <time>2022-04-14T15:32:28Z</time>
      </trkpt>
      <trkpt lat="42.7497830" lon="-8.5507900">
        <ele>51.8</ele>
        <time>2022-04-14T15:32:29Z</time>
      </trkpt>
      <trkpt lat="42.7498250" lon="-8.5507910">
        <ele>52.1</ele>
        <time>2022-04-14T15:32:30Z</time>
      </trkpt>
      <trkpt lat="42.7498360" lon="-8.5507920">
        <ele>52.1</ele>
        <time>2022-04-14T15:32:31Z</time>
      </trkpt>
      <trkpt lat="42.7498540" lon="-8.5507990">
        <ele>52.7</ele>
        <time>2022-04-14T15:32:32Z</time>
      </trkpt>
      <trkpt lat="42.7498540" lon="-8.5507990">
        <ele>52.7</ele>
        <time>2022-04-14T15:32:33Z</time>
      </trkpt>
      <trkpt lat="42.7498800" lon="-8.5508200">
        <ele>53.0</ele>
        <time>2022-04-14T15:32:34Z</time>
      </trkpt>
      <trkpt lat="42.7498800" lon="-8.5508200">
        <ele>53.0</ele>
        <time>2022-04-14T15:32:35Z</time>
      </trkpt>
      <trkpt lat="42.7499040" lon="-8.5508150">
        <ele>53.2</ele>
        <time>2022-04-14T15:32:36Z</time>
      </trkpt>
      <trkpt lat="42.7499040" lon="-8.5508150">
        <ele>53.2</ele>
        <time>2022-04-14T15:32:37Z</time>
      </trkpt>
      <trkpt lat="42.7498920" lon="-8.5507670">
        <ele>53.5</ele>
        <time>2022-04-14T15:32:38Z</time>
      </trkpt>
      <trkpt lat="42.7498610" lon="-8.5507170">
        <ele>53.9</ele>
        <time>2022-04-14T15:32:39Z</time>
      </trkpt>
      <trkpt lat="42.7498510" lon="-8.5506980">
        <ele>54.1</ele>
        <time>2022-04-14T15:32:40Z</time>
      </trkpt>
      <trkpt lat="42.7498360" lon="-8.5506560">
        <ele>54.4</ele>
        <time>2022-04-14T15:32:41Z</time>
      </trkpt>
      <trkpt lat="42.7498260" lon="-8.5506080">
        <ele>54.7</ele>
        <time>2022-04-14T15:32:42Z</time>
      </trkpt>
      <trkpt lat="42.7498200" lon="-8.5505610">
        <ele>55.0</ele>
        <time>2022-04-14T15:32:43Z</time>
      </trkpt>
      <trkpt lat="42.7498160" lon="-8.5505130">
        <ele>55.3</ele>
        <time>2022-04-14T15:32:44Z</time>
      </trkpt>
      <trkpt lat="42.7498150" lon="-8.5504630">
        <ele>55.6</ele>
        <time>2022-04-14T15:32:45Z</time>
      </trkpt>
      <trkpt lat="42.7498210" lon="-8.5504140">
        <ele>55.9</ele>
        <time>2022-04-14T15:32:46Z</time>
      </trkpt>
      <trkpt lat="42.7498390" lon="-8.5503670">
        <ele>56.2</ele>
        <time>2022-04-14T15:32:47Z</time>
      </trkpt>
      <trkpt lat="42.7498660" lon="-8.5503290">
        <ele>57.2</ele>
        <time>2022-04-14T15:32:48Z</time>
      </trkpt>
      <trkpt lat="42.7498990" lon="-8.5503050">
        <ele>57.4</ele>
        <time>2022-04-14T15:32:49Z</time>
      </trkpt>
      <trkpt lat="42.7499340" lon="-8.5502890">
        <ele>57.6</ele>
        <time>2022-04-14T15:32:50Z</time>
      </trkpt>
      <trkpt lat="42.7499690" lon="-8.5502800">
        <ele>57.9</ele>
        <time>2022-04-14T15:32:51Z</time>
      </trkpt>
      <trkpt lat="42.7500060" lon="-8.5502850">
        <ele>58.2</ele>
        <time>2022-04-14T15:32:52Z</time>
      </trkpt>
      <trkpt lat="42.7500620" lon="-8.5502920">
        <ele>58.6</ele>
        <time>2022-04-14T15:32:53Z</time>
      </trkpt>
      <trkpt lat="42.7500810" lon="-8.5502920">
        <ele>58.8</ele>
        <time>2022-04-14T15:32:54Z</time>
      </trkpt>
      <trkpt lat="42.7501180" lon="-8.5502930">
        <ele>59.0</ele>
        <time>2022-04-14T15:32:55Z</time>
      </trkpt>
      <trkpt lat="42.7501740" lon="-8.5502920">
        <ele>59.5</ele>
        <time>2022-04-14T15:32:56Z</time>
      </trkpt>
      <trkpt lat="42.7501920" lon="-8.5502910">
        <ele>59.6</ele>
        <time>2022-04-14T15:32:57Z</time>
      </trkpt>
      <trkpt lat="42.7502270" lon="-8.5502920">
        <ele>59.9</ele>
        <time>2022-04-14T15:32:58Z</time>
      </trkpt>
      <trkpt lat="42.7502610" lon="-8.5502930">
        <ele>60.1</ele>
        <time>2022-04-14T15:32:59Z</time>
      </trkpt>
      <trkpt lat="42.7502950" lon="-8.5502930">
        <ele>60.4</ele>
        <time>2022-04-14T15:33:00Z</time>
      </trkpt>
      <trkpt lat="42.7503290" lon="-8.5502920">
        <ele>60.7</ele>
        <time>2022-04-14T15:33:01Z</time>
      </trkpt>
      <trkpt lat="42.7503640" lon="-8.5502880">
        <ele>61.0</ele>
        <time>2022-04-14T15:33:02Z</time>
      </trkpt>
      <trkpt lat="42.7503990" lon="-8.5502860">
        <ele>61.3</ele>
        <time>2022-04-14T15:33:03Z</time>
      </trkpt>
      <trkpt lat="42.7504350" lon="-8.5502820">
        <ele>61.6</ele>
        <time>2022-04-14T15:33:04Z</time>
      </trkpt>
      <trkpt lat="42.7504730" lon="-8.5502810">
        <ele>61.9</ele>
        <time>2022-04-14T15:33:05Z</time>
      </trkpt>
      <trkpt lat="42.7505110" lon="-8.5502800">
        <ele>62.3</ele>
        <time>2022-04-14T15:33:06Z</time>
      </trkpt>
      <trkpt lat="42.7505690" lon="-8.5502720">
        <ele>62.8</ele>
        <time>2022-04-14T15:33:07Z</time>
      </trkpt>
      <trkpt lat="42.7505890" lon="-8.5502680">
        <ele>62.9</ele>
        <time>2022-04-14T15:33:08Z</time>
      </trkpt>
      <trkpt lat="42.7506270" lon="-8.5502540">
        <ele>63.2</ele>
        <time>2022-04-14T15:33:09Z</time>
      </trkpt>
      <trkpt lat="42.7506640" lon="-8.5502320">
        <ele>63.5</ele>
        <time>2022-04-14T15:33:10Z</time>
      </trkpt>
      <trkpt lat="42.7506970" lon="-8.5502010">
        <ele>63.8</ele>
        <time>2022-04-14T15:33:11Z</time>
      </trkpt>
      <trkpt lat="42.7507260" lon="-8.5501590">
        <ele>64.0</ele>
        <time>2022-04-14T15:33:12Z</time>
      </trkpt>
      <trkpt lat="42.7507480" lon="-8.5501050">
        <ele>63.8</ele>
        <time>2022-04-14T15:33:13Z</time>
      </trkpt>
      <trkpt lat="42.7507600" lon="-8.5500390">
        <ele>63.6</ele>
        <time>2022-04-14T15:33:14Z</time>
      </trkpt>
      <trkpt lat="42.7507690" lon="-8.5499260">
        <ele>63.2</ele>
        <time>2022-04-14T15:33:15Z</time>
      </trkpt>
      <trkpt lat="42.7507710" lon="-8.5498860">
        <ele>63.0</ele>
        <time>2022-04-14T15:33:16Z</time>
      </trkpt>
      <trkpt lat="42.7507770" lon="-8.5498040">
        <ele>62.7</ele>
        <time>2022-04-14T15:33:17Z</time>
      </trkpt>
      <trkpt lat="42.7507970" lon="-8.5496740">
        <ele>62.3</ele>
        <time>2022-04-14T15:33:18Z</time>
      </trkpt>
      <trkpt lat="42.7508060" lon="-8.5496300">
        <ele>62.2</ele>
        <time>2022-04-14T15:33:19Z</time>
      </trkpt>
      <trkpt lat="42.7508220" lon="-8.5495420">
        <ele>62.0</ele>
        <time>2022-04-14T15:33:20Z</time>
      </trkpt>
      <trkpt lat="42.7508430" lon="-8.5494560">
        <ele>61.7</ele>
        <time>2022-04-14T15:33:21Z</time>
      </trkpt>
      <trkpt lat="42.7508680" lon="-8.5493690">
        <ele>61.5</ele>
        <time>2022-04-14T15:33:22Z</time>
      </trkpt>
      <trkpt lat="42.7508990" lon="-8.5492820">
        <ele>61.2</ele>
        <time>2022-04-14T15:33:23Z</time>
      </trkpt>
      <trkpt lat="42.7509350" lon="-8.5491940">
        <ele>60.8</ele>
        <time>2022-04-14T15:33:24Z</time>
      </trkpt>
      <trkpt lat="42.7509990" lon="-8.5490740">
        <ele>60.4</ele>
        <time>2022-04-14T15:33:25Z</time>
      </trkpt>
      <trkpt lat="42.7510200" lon="-8.5490380">
        <ele>60.3</ele>
        <time>2022-04-14T15:33:26Z</time>
      </trkpt>
      <trkpt lat="42.7510640" lon="-8.5489640">
        <ele>59.9</ele>
        <time>2022-04-14T15:33:27Z</time>
      </trkpt>
      <trkpt lat="42.7511020" lon="-8.5489140">
        <ele>59.4</ele>
        <time>2022-04-14T15:33:28Z</time>
      </trkpt>
      <trkpt lat="42.7511320" lon="-8.5488830">
        <ele>58.4</ele>
        <time>2022-04-14T15:33:29Z</time>
      </trkpt>
      <trkpt lat="42.7511560" lon="-8.5488760">
        <ele>58.4</ele>
        <time>2022-04-14T15:33:30Z</time>
      </trkpt>
      <trkpt lat="42.7511820" lon="-8.5488780">
        <ele>58.4</ele>
        <time>2022-04-14T15:33:31Z</time>
      </trkpt>
      <trkpt lat="42.7512190" lon="-8.5488820">
        <ele>58.4</ele>
        <time>2022-04-14T15:33:32Z</time>
      </trkpt>
      <trkpt lat="42.7512670" lon="-8.5488980">
        <ele>58.4</ele>
        <time>2022-04-14T15:33:33Z</time>
      </trkpt>
      <trkpt lat="42.7513350" lon="-8.5489700">
        <ele>58.3</ele>
        <time>2022-04-14T15:33:34Z</time>
      </trkpt>
      <trkpt lat="42.7513560" lon="-8.5490000">
        <ele>58.3</ele>
        <time>2022-04-14T15:33:35Z</time>
      </trkpt>
      <trkpt lat="42.7513980" lon="-8.5490650">
        <ele>58.2</ele>
        <time>2022-04-14T15:33:36Z</time>
      </trkpt>
      <trkpt lat="42.7514410" lon="-8.5491350">
        <ele>58.1</ele>
        <time>2022-04-14T15:33:37Z</time>
      </trkpt>
      <trkpt lat="42.7514900" lon="-8.5492110">
        <ele>58.0</ele>
        <time>2022-04-14T15:33:38Z</time>
      </trkpt>
      <trkpt lat="42.7515420" lon="-8.5492900">
        <ele>57.8</ele>
        <time>2022-04-14T15:33:39Z</time>
      </trkpt>
      <trkpt lat="42.7515960" lon="-8.5493700">
        <ele>57.7</ele>
        <time>2022-04-14T15:33:40Z</time>
      </trkpt>
      <trkpt lat="42.7516510" lon="-8.5494520">
        <ele>57.5</ele>
        <time>2022-04-14T15:33:41Z</time>
      </trkpt>
      <trkpt lat="42.7517420" lon="-8.5495830">
        <ele>57.1</ele>
        <time>2022-04-14T15:33:42Z</time>
      </trkpt>
      <trkpt lat="42.7517730" lon="-8.5496270">
        <ele>57.0</ele>
        <time>2022-04-14T15:33:43Z</time>
      </trkpt>
      <trkpt lat="42.7518350" lon="-8.5497140">
        <ele>56.8</ele>
        <time>2022-04-14T15:33:44Z</time>
      </trkpt>
      <trkpt lat="42.7519010" lon="-8.5498010">
        <ele>56.5</ele>
        <time>2022-04-14T15:33:45Z</time>
      </trkpt>
      <trkpt lat="42.7519660" lon="-8.5498850">
        <ele>56.2</ele>
        <time>2022-04-14T15:33:46Z</time>
      </trkpt>
      <trkpt lat="42.7520740" lon="-8.5500080">
        <ele>55.8</ele>
        <time>2022-04-14T15:33:47Z</time>
      </trkpt>
      <trkpt lat="42.7521110" lon="-8.5500480">
        <ele>55.6</ele>
        <time>2022-04-14T15:33:48Z</time>
      </trkpt>
      <trkpt lat="42.7521860" lon="-8.5501280">
        <ele>55.3</ele>
        <time>2022-04-14T15:33:49Z</time>
      </trkpt>
      <trkpt lat="42.7522650" lon="-8.5502050">
        <ele>54.9</ele>
        <time>2022-04-14T15:33:50Z</time>
      </trkpt>
      <trkpt lat="42.7523450" lon="-8.5502790">
        <ele>54.6</ele>
        <time>2022-04-14T15:33:51Z</time>
      </trkpt>
      <trkpt lat="42.7524260" lon="-8.5503510">
        <ele>54.2</ele>
        <time>2022-04-14T15:33:52Z</time>
      </trkpt>
      <trkpt lat="42.7525520" lon="-8.5504530">
        <ele>53.7</ele>
        <time>2022-04-14T15:33:53Z</time>
      </trkpt>
      <trkpt lat="42.7525950" lon="-8.5504850">
        <ele>53.6</ele>
        <time>2022-04-14T15:33:54Z</time>
      </trkpt>
      <trkpt lat="42.7526800" lon="-8.5505500">
        <ele>53.4</ele>
        <time>2022-04-14T15:33:55Z</time>
      </trkpt>
      <trkpt lat="42.7527680" lon="-8.5506110">
        <ele>53.2</ele>
        <time>2022-04-14T15:33:56Z</time>
      </trkpt>
      <trkpt lat="42.7528570" lon="-8.5506700">
        <ele>52.9</ele>
        <time>2022-04-14T15:33:57Z</time>
      </trkpt>
      <trkpt lat="42.7529940" lon="-8.5507510">
        <ele>52.6</ele>
        <time>2022-04-14T15:33:58Z</time>
      </trkpt>
      <trkpt lat="42.7530400" lon="-8.5507760">
        <ele>52.5</ele>
        <time>2022-04-14T15:33:59Z</time>
      </trkpt>
      <trkpt lat="42.7531340" lon="-8.5508260">
        <ele>52.5</ele>
        <time>2022-04-14T15:34:00Z</time>
      </trkpt>
      <trkpt lat="42.7532310" lon="-8.5508680">
        <ele>52.2</ele>
        <time>2022-04-14T15:34:01Z</time>
      </trkpt>
      <trkpt lat="42.7533290" lon="-8.5509070">
        <ele>51.9</ele>
        <time>2022-04-14T15:34:02Z</time>
      </trkpt>
      <trkpt lat="42.7534770" lon="-8.5509590">
        <ele>51.6</ele>
        <time>2022-04-14T15:34:03Z</time>
      </trkpt>
      <trkpt lat="42.7535270" lon="-8.5509750">
        <ele>51.5</ele>
        <time>2022-04-14T15:34:04Z</time>
      </trkpt>
      <trkpt lat="42.7536280" lon="-8.5510060">
        <ele>51.3</ele>
        <time>2022-04-14T15:34:05Z</time>
      </trkpt>
      <trkpt lat="42.7537290" lon="-8.5510320">
        <ele>51.2</ele>
        <time>2022-04-14T15:34:06Z</time>
      </trkpt>
      <trkpt lat="42.7538760" lon="-8.5510610">
        <ele>51.0</ele>
        <time>2022-04-14T15:34:07Z</time>
      </trkpt>
      <trkpt lat="42.7539250" lon="-8.5510680">
        <ele>51.0</ele>
        <time>2022-04-14T15:34:08Z</time>
      </trkpt>
      <trkpt lat="42.7540240" lon="-8.5510820">
        <ele>50.9</ele>
        <time>2022-04-14T15:34:09Z</time>
      </trkpt>
      <trkpt lat="42.7541200" lon="-8.5510920">
        <ele>50.9</ele>
        <time>2022-04-14T15:34:10Z</time>
      </trkpt>
      <trkpt lat="42.7542160" lon="-8.5511040">
        <ele>50.8</ele>
        <time>2022-04-14T15:34:11Z</time>
      </trkpt>
      <trkpt lat="42.7543570" lon="-8.5511210">
        <ele>50.8</ele>
        <time>2022-04-14T15:34:12Z</time>
      </trkpt>
      <trkpt lat="42.7544040" lon="-8.5511250">
        <ele>50.8</ele>
        <time>2022-04-14T15:34:13Z</time>
      </trkpt>
      <trkpt lat="42.7544930" lon="-8.5511370">
        <ele>50.8</ele>
        <time>2022-04-14T15:34:14Z</time>
      </trkpt>
      <trkpt lat="42.7545840" lon="-8.5511460">
        <ele>50.8</ele>
        <time>2022-04-14T15:34:15Z</time>
      </trkpt>
      <trkpt lat="42.7546740" lon="-8.5511530">
        <ele>50.7</ele>
        <time>2022-04-14T15:34:16Z</time>
      </trkpt>
      <trkpt lat="42.7547630" lon="-8.5511620">
        <ele>50.6</ele>
        <time>2022-04-14T15:34:17Z</time>
      </trkpt>
      <trkpt lat="42.7548930" lon="-8.5511780">
        <ele>50.3</ele>
        <time>2022-04-14T15:34:18Z</time>
      </trkpt>
      <trkpt lat="42.7549370" lon="-8.5511840">
        <ele>50.1</ele>
        <time>2022-04-14T15:34:19Z</time>
      </trkpt>
      <trkpt lat="42.7550240" lon="-8.5511940">
        <ele>49.8</ele>
        <time>2022-04-14T15:34:20Z</time>
      </trkpt>
      <trkpt lat="42.7551130" lon="-8.5512030">
        <ele>49.3</ele>
        <time>2022-04-14T15:34:21Z</time>
      </trkpt>
      <trkpt lat="42.7552040" lon="-8.5512100">
        <ele>48.7</ele>
        <time>2022-04-14T15:34:22Z</time>
      </trkpt>
      <trkpt lat="42.7552990" lon="-8.5512190">
        <ele>48.1</ele>
        <time>2022-04-14T15:34:23Z</time>
      </trkpt>
      <trkpt lat="42.7554460" lon="-8.5512270">
        <ele>46.9</ele>
        <time>2022-04-14T15:34:24Z</time>
      </trkpt>
      <trkpt lat="42.7554950" lon="-8.5512280">
        <ele>46.5</ele>
        <time>2022-04-14T15:34:25Z</time>
      </trkpt>
      <trkpt lat="42.7555940" lon="-8.5512310">
        <ele>45.7</ele>
        <time>2022-04-14T15:34:26Z</time>
      </trkpt>
      <trkpt lat="42.7556940" lon="-8.5512290">
        <ele>44.8</ele>
        <time>2022-04-14T15:34:27Z</time>
      </trkpt>
      <trkpt lat="42.7557950" lon="-8.5512230">
        <ele>43.9</ele>
        <time>2022-04-14T15:34:28Z</time>
      </trkpt>
      <trkpt lat="42.7559470" lon="-8.5512060">
        <ele>42.5</ele>
        <time>2022-04-14T15:34:29Z</time>
      </trkpt>
      <trkpt lat="42.7559990" lon="-8.5511960">
        <ele>42.1</ele>
        <time>2022-04-14T15:34:30Z</time>
      </trkpt>
      <trkpt lat="42.7561540" lon="-8.5511650">
        <ele>40.7</ele>
        <time>2022-04-14T15:34:31Z</time>
      </trkpt>
      <trkpt lat="42.7562060" lon="-8.5511520">
        <ele>40.3</ele>
        <time>2022-04-14T15:34:32Z</time>
      </trkpt>
      <trkpt lat="42.7563110" lon="-8.5511270">
        <ele>39.4</ele>
        <time>2022-04-14T15:34:33Z</time>
      </trkpt>
      <trkpt lat="42.7564830" lon="-8.5510590">
        <ele>38.2</ele>
        <time>2022-04-14T15:34:34Z</time>
      </trkpt>
      <trkpt lat="42.7565440" lon="-8.5510340">
        <ele>37.9</ele>
        <time>2022-04-14T15:34:35Z</time>
      </trkpt>
      <trkpt lat="42.7566650" lon="-8.5509840">
        <ele>37.2</ele>
        <time>2022-04-14T15:34:36Z</time>
      </trkpt>
      <trkpt lat="42.7567860" lon="-8.5509350">
        <ele>36.7</ele>
        <time>2022-04-14T15:34:37Z</time>
      </trkpt>
      <trkpt lat="42.7568910" lon="-8.5508670">
        <ele>36.2</ele>
        <time>2022-04-14T15:34:38Z</time>
      </trkpt>
      <trkpt lat="42.7569960" lon="-8.5507990">
        <ele>35.7</ele>
        <time>2022-04-14T15:34:39Z</time>
      </trkpt>
      <trkpt lat="42.7571010" lon="-8.5507310">
        <ele>35.3</ele>
        <time>2022-04-14T15:34:40Z</time>
      </trkpt>
      <trkpt lat="42.7572060" lon="-8.5506630">
        <ele>34.9</ele>
        <time>2022-04-14T15:34:41Z</time>
      </trkpt>
      <trkpt lat="42.7573110" lon="-8.5505950">
        <ele>34.5</ele>
        <time>2022-04-14T15:34:42Z</time>
      </trkpt>
      <trkpt lat="42.7574160" lon="-8.5505270">
        <ele>34.2</ele>
        <time>2022-04-14T15:34:43Z</time>
      </trkpt>
      <trkpt lat="42.7575210" lon="-8.5504590">
        <ele>33.9</ele>
        <time>2022-04-14T15:34:44Z</time>
      </trkpt>
      <trkpt lat="42.7576230" lon="-8.5503740">
        <ele>33.7</ele>
        <time>2022-04-14T15:34:45Z</time>
      </trkpt>
      <trkpt lat="42.7577610" lon="-8.5502290">
        <ele>33.4</ele>
        <time>2022-04-14T15:34:46Z</time>
      </trkpt>
      <trkpt lat="42.7578060" lon="-8.5501790">
        <ele>33.3</ele>
        <time>2022-04-14T15:34:47Z</time>
      </trkpt>
      <trkpt lat="42.7578960" lon="-8.5500780">
        <ele>33.1</ele>
        <time>2022-04-14T15:34:48Z</time>
      </trkpt>
      <trkpt lat="42.7579830" lon="-8.5499820">
        <ele>33.0</ele>
        <time>2022-04-14T15:34:49Z</time>
      </trkpt>
      <trkpt lat="42.7581100" lon="-8.5498450">
        <ele>32.8</ele>
        <time>2022-04-14T15:34:50Z</time>
      </trkpt>
      <trkpt lat="42.7581500" lon="-8.5497960">
        <ele>32.8</ele>
        <time>2022-04-14T15:34:51Z</time>
      </trkpt>
      <trkpt lat="42.7582310" lon="-8.5496970">
        <ele>32.7</ele>
        <time>2022-04-14T15:34:52Z</time>
      </trkpt>
      <trkpt lat="42.7583760" lon="-8.5494830">
        <ele>32.4</ele>
        <time>2022-04-14T15:34:53Z</time>
      </trkpt>
      <trkpt lat="42.7583760" lon="-8.5494830">
        <ele>32.4</ele>
        <time>2022-04-14T15:34:54Z</time>
      </trkpt>
      <trkpt lat="42.7584790" lon="-8.5493250">
        <ele>32.3</ele>
        <time>2022-04-14T15:34:55Z</time>
      </trkpt>
      <trkpt lat="42.7585110" lon="-8.5492700">
        <ele>32.3</ele>
        <time>2022-04-14T15:34:56Z</time>
      </trkpt>
      <trkpt lat="42.7585760" lon="-8.5491620">
        <ele>32.3</ele>
        <time>2022-04-14T15:34:57Z</time>
      </trkpt>
      <trkpt lat="42.7586350" lon="-8.5490430">
        <ele>32.2</ele>
        <time>2022-04-14T15:34:58Z</time>
      </trkpt>
      <trkpt lat="42.7586940" lon="-8.5489240">
        <ele>32.1</ele>
        <time>2022-04-14T15:34:59Z</time>
      </trkpt>
      <trkpt lat="42.7587850" lon="-8.5487610">
        <ele>32.0</ele>
        <time>2022-04-14T15:35:00Z</time>
      </trkpt>
      <trkpt lat="42.7588150" lon="-8.5487040">
        <ele>32.0</ele>
        <time>2022-04-14T15:35:01Z</time>
      </trkpt>
      <trkpt lat="42.7588740" lon="-8.5485910">
        <ele>31.9</ele>
        <time>2022-04-14T15:35:02Z</time>
      </trkpt>
      <trkpt lat="42.7589370" lon="-8.5484790">
        <ele>31.9</ele>
        <time>2022-04-14T15:35:03Z</time>
      </trkpt>
      <trkpt lat="42.7589990" lon="-8.5483640">
        <ele>31.8</ele>
        <time>2022-04-14T15:35:04Z</time>
      </trkpt>
      <trkpt lat="42.7590910" lon="-8.5481940">
        <ele>31.7</ele>
        <time>2022-04-14T15:35:05Z</time>
      </trkpt>
      <trkpt lat="42.7591230" lon="-8.5481380">
        <ele>31.7</ele>
        <time>2022-04-14T15:35:06Z</time>
      </trkpt>
      <trkpt lat="42.7591860" lon="-8.5480250">
        <ele>31.7</ele>
        <time>2022-04-14T15:35:07Z</time>
      </trkpt>
      <trkpt lat="42.7592500" lon="-8.5479150">
        <ele>31.7</ele>
        <time>2022-04-14T15:35:08Z</time>
      </trkpt>
      <trkpt lat="42.7593570" lon="-8.5477620">
        <ele>31.6</ele>
        <time>2022-04-14T15:35:09Z</time>
      </trkpt>
      <trkpt lat="42.7593940" lon="-8.5477140">
        <ele>31.6</ele>
        <time>2022-04-14T15:35:10Z</time>
      </trkpt>
      <trkpt lat="42.7594710" lon="-8.5476260">
        <ele>31.6</ele>
        <time>2022-04-14T15:35:11Z</time>
      </trkpt>
      <trkpt lat="42.7595490" lon="-8.5475390">
        <ele>31.6</ele>
        <time>2022-04-14T15:35:12Z</time>
      </trkpt>
      <trkpt lat="42.7596310" lon="-8.5474660">
        <ele>31.6</ele>
        <time>2022-04-14T15:35:13Z</time>
      </trkpt>
      <trkpt lat="42.7597120" lon="-8.5473960">
        <ele>31.6</ele>
        <time>2022-04-14T15:35:14Z</time>
      </trkpt>
      <trkpt lat="42.7598430" lon="-8.5473090">
        <ele>31.6</ele>
        <time>2022-04-14T15:35:15Z</time>
      </trkpt>
      <trkpt lat="42.7598870" lon="-8.5472830">
        <ele>31.6</ele>
        <time>2022-04-14T15:35:16Z</time>
      </trkpt>
      <trkpt lat="42.7599770" lon="-8.5472300">
        <ele>31.7</ele>
        <time>2022-04-14T15:35:17Z</time>
      </trkpt>
      <trkpt lat="42.7600660" lon="-8.5471840">
        <ele>31.7</ele>
        <time>2022-04-14T15:35:18Z</time>
      </trkpt>
      <trkpt lat="42.7601590" lon="-8.5471480">
        <ele>31.7</ele>
        <time>2022-04-14T15:35:19Z</time>
      </trkpt>
      <trkpt lat="42.7602950" lon="-8.5471090">
        <ele>31.7</ele>
        <time>2022-04-14T15:35:20Z</time>
      </trkpt>
      <trkpt lat="42.7603420" lon="-8.5470980">
        <ele>31.8</ele>
        <time>2022-04-14T15:35:21Z</time>
      </trkpt>
      <trkpt lat="42.7604370" lon="-8.5470770">
        <ele>31.8</ele>
        <time>2022-04-14T15:35:22Z</time>
      </trkpt>
      <trkpt lat="42.7605360" lon="-8.5470550">
        <ele>32.0</ele>
        <time>2022-04-14T15:35:23Z</time>
      </trkpt>
      <trkpt lat="42.7606280" lon="-8.5470380">
        <ele>32.1</ele>
        <time>2022-04-14T15:35:24Z</time>
      </trkpt>
      <trkpt lat="42.7607430" lon="-8.5470220">
        <ele>32.4</ele>
        <time>2022-04-14T15:35:25Z</time>
      </trkpt>
      <trkpt lat="42.7607660" lon="-8.5470200">
        <ele>32.4</ele>
        <time>2022-04-14T15:35:26Z</time>
      </trkpt>
      <trkpt lat="42.7608970" lon="-8.5470010">
        <ele>32.7</ele>
        <time>2022-04-14T15:35:27Z</time>
      </trkpt>
      <trkpt lat="42.7609840" lon="-8.5469860">
        <ele>33.0</ele>
        <time>2022-04-14T15:35:28Z</time>
      </trkpt>
      <trkpt lat="42.7610700" lon="-8.5469710">
        <ele>33.3</ele>
        <time>2022-04-14T15:35:29Z</time>
      </trkpt>
      <trkpt lat="42.7611550" lon="-8.5469580">
        <ele>33.5</ele>
        <time>2022-04-14T15:35:30Z</time>
      </trkpt>
      <trkpt lat="42.7612390" lon="-8.5469430">
        <ele>33.8</ele>
        <time>2022-04-14T15:35:31Z</time>
      </trkpt>
      <trkpt lat="42.7613220" lon="-8.5469280">
        <ele>34.1</ele>
        <time>2022-04-14T15:35:32Z</time>
      </trkpt>
      <trkpt lat="42.7614060" lon="-8.5469130">
        <ele>34.4</ele>
        <time>2022-04-14T15:35:33Z</time>
      </trkpt>
      <trkpt lat="42.7614880" lon="-8.5468970">
        <ele>34.7</ele>
        <time>2022-04-14T15:35:34Z</time>
      </trkpt>
      <trkpt lat="42.7615270" lon="-8.5468910">
        <ele>34.8</ele>
        <time>2022-04-14T15:35:35Z</time>
      </trkpt>
      <trkpt lat="42.7615670" lon="-8.5468860">
        <ele>35.0</ele>
        <time>2022-04-14T15:35:36Z</time>
      </trkpt>
      <trkpt lat="42.7617230" lon="-8.5468640">
        <ele>35.7</ele>
        <time>2022-04-14T15:35:37Z</time>
      </trkpt>
      <trkpt lat="42.7618000" lon="-8.5468550">
        <ele>36.0</ele>
        <time>2022-04-14T15:35:38Z</time>
      </trkpt>
      <trkpt lat="42.7618770" lon="-8.5468450">
        <ele>36.3</ele>
        <time>2022-04-14T15:35:39Z</time>
      </trkpt>
      <trkpt lat="42.7619520" lon="-8.5468400">
        <ele>36.7</ele>
        <time>2022-04-14T15:35:40Z</time>
      </trkpt>
      <trkpt lat="42.7619890" lon="-8.5468390">
        <ele>36.8</ele>
        <time>2022-04-14T15:35:41Z</time>
      </trkpt>
      <trkpt lat="42.7620260" lon="-8.5468370">
        <ele>36.9</ele>
        <time>2022-04-14T15:35:42Z</time>
      </trkpt>
      <trkpt lat="42.7621850" lon="-8.5468150">
        <ele>37.3</ele>
        <time>2022-04-14T15:35:43Z</time>
      </trkpt>
      <trkpt lat="42.7622690" lon="-8.5467960">
        <ele>37.5</ele>
        <time>2022-04-14T15:35:44Z</time>
      </trkpt>
      <trkpt lat="42.7623530" lon="-8.5467760">
        <ele>37.6</ele>
        <time>2022-04-14T15:35:45Z</time>
      </trkpt>
      <trkpt lat="42.7624850" lon="-8.5467510">
        <ele>37.5</ele>
        <time>2022-04-14T15:35:46Z</time>
      </trkpt>
      <trkpt lat="42.7625080" lon="-8.5467490">
        <ele>37.5</ele>
        <time>2022-04-14T15:35:47Z</time>
      </trkpt>
      <trkpt lat="42.7625310" lon="-8.5467470">
        <ele>37.5</ele>
        <time>2022-04-14T15:35:48Z</time>
      </trkpt>
      <trkpt lat="42.7626010" lon="-8.5467410">
        <ele>37.3</ele>
        <time>2022-04-14T15:35:49Z</time>
      </trkpt>
      <trkpt lat="42.7626790" lon="-8.5467540">
        <ele>36.9</ele>
        <time>2022-04-14T15:35:50Z</time>
      </trkpt>
      <trkpt lat="42.7627580" lon="-8.5467680">
        <ele>36.5</ele>
        <time>2022-04-14T15:35:51Z</time>
      </trkpt>
      <trkpt lat="42.7628360" lon="-8.5467810">
        <ele>36.1</ele>
        <time>2022-04-14T15:35:52Z</time>
      </trkpt>
      <trkpt lat="42.7629220" lon="-8.5468040">
        <ele>35.7</ele>
        <time>2022-04-14T15:35:53Z</time>
      </trkpt>
      <trkpt lat="42.7630180" lon="-8.5468320">
        <ele>35.4</ele>
        <time>2022-04-14T15:35:54Z</time>
      </trkpt>
      <trkpt lat="42.7631160" lon="-8.5468570">
        <ele>35.1</ele>
        <time>2022-04-14T15:35:55Z</time>
      </trkpt>
      <trkpt lat="42.7632570" lon="-8.5469080">
        <ele>34.6</ele>
        <time>2022-04-14T15:35:56Z</time>
      </trkpt>
      <trkpt lat="42.7633070" lon="-8.5469210">
        <ele>34.5</ele>
        <time>2022-04-14T15:35:57Z</time>
      </trkpt>
      <trkpt lat="42.7634070" lon="-8.5469490">
        <ele>34.2</ele>
        <time>2022-04-14T15:35:58Z</time>
      </trkpt>
      <trkpt lat="42.7635040" lon="-8.5469810">
        <ele>33.9</ele>
        <time>2022-04-14T15:35:59Z</time>
      </trkpt>
      <trkpt lat="42.7636020" lon="-8.5470160">
        <ele>33.7</ele>
        <time>2022-04-14T15:36:00Z</time>
      </trkpt>
      <trkpt lat="42.7637480" lon="-8.5470670">
        <ele>33.4</ele>
        <time>2022-04-14T15:36:01Z</time>
      </trkpt>
      <trkpt lat="42.7637950" lon="-8.5470840">
        <ele>33.3</ele>
        <time>2022-04-14T15:36:02Z</time>
      </trkpt>
      <trkpt lat="42.7638890" lon="-8.5471190">
        <ele>33.2</ele>
        <time>2022-04-14T15:36:03Z</time>
      </trkpt>
      <trkpt lat="42.7639800" lon="-8.5471620">
        <ele>33.2</ele>
        <time>2022-04-14T15:36:04Z</time>
      </trkpt>
      <trkpt lat="42.7640650" lon="-8.5472130">
        <ele>33.2</ele>
        <time>2022-04-14T15:36:05Z</time>
      </trkpt>
      <trkpt lat="42.7641950" lon="-8.5472940">
        <ele>33.2</ele>
        <time>2022-04-14T15:36:06Z</time>
      </trkpt>
      <trkpt lat="42.7642370" lon="-8.5473210">
        <ele>33.2</ele>
        <time>2022-04-14T15:36:07Z</time>
      </trkpt>
      <trkpt lat="42.7643210" lon="-8.5473750">
        <ele>33.2</ele>
        <time>2022-04-14T15:36:08Z</time>
      </trkpt>
      <trkpt lat="42.7644030" lon="-8.5474280">
        <ele>33.3</ele>
        <time>2022-04-14T15:36:09Z</time>
      </trkpt>
      <trkpt lat="42.7644860" lon="-8.5474800">
        <ele>33.3</ele>
        <time>2022-04-14T15:36:10Z</time>
      </trkpt>
      <trkpt lat="42.7645890" lon="-8.5475460">
        <ele>33.4</ele>
        <time>2022-04-14T15:36:11Z</time>
      </trkpt>
      <trkpt lat="42.7646090" lon="-8.5475590">
        <ele>33.4</ele>
        <time>2022-04-14T15:36:12Z</time>
      </trkpt>
      <trkpt lat="42.7646890" lon="-8.5476110">
        <ele>33.6</ele>
        <time>2022-04-14T15:36:13Z</time>
      </trkpt>
      <trkpt lat="42.7647280" lon="-8.5476360">
        <ele>33.6</ele>
        <time>2022-04-14T15:36:14Z</time>
      </trkpt>
      <trkpt lat="42.7648470" lon="-8.5477110">
        <ele>33.7</ele>
        <time>2022-04-14T15:36:15Z</time>
      </trkpt>
      <trkpt lat="42.7648870" lon="-8.5477350">
        <ele>33.7</ele>
        <time>2022-04-14T15:36:16Z</time>
      </trkpt>
      <trkpt lat="42.7650430" lon="-8.5478330">
        <ele>33.8</ele>
        <time>2022-04-14T15:36:17Z</time>
      </trkpt>
      <trkpt lat="42.7651190" lon="-8.5478820">
        <ele>33.8</ele>
        <time>2022-04-14T15:36:18Z</time>
      </trkpt>
      <trkpt lat="42.7651960" lon="-8.5479310">
        <ele>33.9</ele>
        <time>2022-04-14T15:36:19Z</time>
      </trkpt>
      <trkpt lat="42.7652690" lon="-8.5479780">
        <ele>34.0</ele>
        <time>2022-04-14T15:36:20Z</time>
      </trkpt>
      <trkpt lat="42.7653040" lon="-8.5480010">
        <ele>34.0</ele>
        <time>2022-04-14T15:36:21Z</time>
      </trkpt>
      <trkpt lat="42.7653390" lon="-8.5480250">
        <ele>34.0</ele>
        <time>2022-04-14T15:36:22Z</time>
      </trkpt>
      <trkpt lat="42.7654780" lon="-8.5481170">
        <ele>34.1</ele>
        <time>2022-04-14T15:36:23Z</time>
      </trkpt>
      <trkpt lat="42.7655470" lon="-8.5481630">
        <ele>34.2</ele>
        <time>2022-04-14T15:36:24Z</time>
      </trkpt>
      <trkpt lat="42.7656170" lon="-8.5482090">
        <ele>34.2</ele>
        <time>2022-04-14T15:36:25Z</time>
      </trkpt>
      <trkpt lat="42.7656870" lon="-8.5482550">
        <ele>34.3</ele>
        <time>2022-04-14T15:36:26Z</time>
      </trkpt>
      <trkpt lat="42.7657210" lon="-8.5482770">
        <ele>34.3</ele>
        <time>2022-04-14T15:36:27Z</time>
      </trkpt>
      <trkpt lat="42.7657550" lon="-8.5483000">
        <ele>34.4</ele>
        <time>2022-04-14T15:36:28Z</time>
      </trkpt>
      <trkpt lat="42.7658830" lon="-8.5483860">
        <ele>34.7</ele>
        <time>2022-04-14T15:36:29Z</time>
      </trkpt>
      <trkpt lat="42.7659440" lon="-8.5484280">
        <ele>34.9</ele>
        <time>2022-04-14T15:36:30Z</time>
      </trkpt>
      <trkpt lat="42.7660040" lon="-8.5484700">
        <ele>35.2</ele>
        <time>2022-04-14T15:36:31Z</time>
      </trkpt>
      <trkpt lat="42.7660650" lon="-8.5485090">
        <ele>35.5</ele>
        <time>2022-04-14T15:36:32Z</time>
      </trkpt>
      <trkpt lat="42.7660940" lon="-8.5485270">
        <ele>35.6</ele>
        <time>2022-04-14T15:36:33Z</time>
      </trkpt>
      <trkpt lat="42.7661230" lon="-8.5485450">
        <ele>35.7</ele>
        <time>2022-04-14T15:36:34Z</time>
      </trkpt>
      <trkpt lat="42.7662070" lon="-8.5485980">
        <ele>36.2</ele>
        <time>2022-04-14T15:36:35Z</time>
      </trkpt>
      <trkpt lat="42.7662340" lon="-8.5486150">
        <ele>36.3</ele>
        <time>2022-04-14T15:36:36Z</time>
      </trkpt>
      <trkpt lat="42.7663380" lon="-8.5486800">
        <ele>36.9</ele>
        <time>2022-04-14T15:36:37Z</time>
      </trkpt>
      <trkpt lat="42.7663880" lon="-8.5487120">
        <ele>37.3</ele>
        <time>2022-04-14T15:36:38Z</time>
      </trkpt>
      <trkpt lat="42.7664380" lon="-8.5487440">
        <ele>37.6</ele>
        <time>2022-04-14T15:36:39Z</time>
      </trkpt>
      <trkpt lat="42.7664870" lon="-8.5487750">
        <ele>37.9</ele>
        <time>2022-04-14T15:36:40Z</time>
      </trkpt>
      <trkpt lat="42.7665110" lon="-8.5487890">
        <ele>38.0</ele>
        <time>2022-04-14T15:36:41Z</time>
      </trkpt>
      <trkpt lat="42.7665350" lon="-8.5488030">
        <ele>38.2</ele>
        <time>2022-04-14T15:36:42Z</time>
      </trkpt>
      <trkpt lat="42.7666140" lon="-8.5488470">
        <ele>38.7</ele>
        <time>2022-04-14T15:36:43Z</time>
      </trkpt>
      <trkpt lat="42.7666450" lon="-8.5488640">
        <ele>38.8</ele>
        <time>2022-04-14T15:36:44Z</time>
      </trkpt>
      <trkpt lat="42.7666770" lon="-8.5488810">
        <ele>39.0</ele>
        <time>2022-04-14T15:36:45Z</time>
      </trkpt>
      <trkpt lat="42.7667620" lon="-8.5489260">
        <ele>39.5</ele>
        <time>2022-04-14T15:36:46Z</time>
      </trkpt>
      <trkpt lat="42.7667930" lon="-8.5489410">
        <ele>39.7</ele>
        <time>2022-04-14T15:36:47Z</time>
      </trkpt>
      <trkpt lat="42.7668250" lon="-8.5489560">
        <ele>39.9</ele>
        <time>2022-04-14T15:36:48Z</time>
      </trkpt>
      <trkpt lat="42.7668560" lon="-8.5489710">
        <ele>40.1</ele>
        <time>2022-04-14T15:36:49Z</time>
      </trkpt>
      <trkpt lat="42.7668880" lon="-8.5489860">
        <ele>40.2</ele>
        <time>2022-04-14T15:36:50Z</time>
      </trkpt>
      <trkpt lat="42.7669140" lon="-8.5489970">
        <ele>40.4</ele>
        <time>2022-04-14T15:36:51Z</time>
      </trkpt>
      <trkpt lat="42.7669410" lon="-8.5490080">
        <ele>40.5</ele>
        <time>2022-04-14T15:36:52Z</time>
      </trkpt>
      <trkpt lat="42.7670130" lon="-8.5490370">
        <ele>40.9</ele>
        <time>2022-04-14T15:36:53Z</time>
      </trkpt>
      <trkpt lat="42.7670320" lon="-8.5490430">
        <ele>41.0</ele>
        <time>2022-04-14T15:36:54Z</time>
      </trkpt>
      <trkpt lat="42.7670510" lon="-8.5490490">
        <ele>41.1</ele>
        <time>2022-04-14T15:36:55Z</time>
      </trkpt>
      <trkpt lat="42.7671560" lon="-8.5490840">
        <ele>41.9</ele>
        <time>2022-04-14T15:36:56Z</time>
      </trkpt>
      <trkpt lat="42.7672040" lon="-8.5491010">
        <ele>42.2</ele>
        <time>2022-04-14T15:36:57Z</time>
      </trkpt>
      <trkpt lat="42.7672610" lon="-8.5491190">
        <ele>42.7</ele>
        <time>2022-04-14T15:36:58Z</time>
      </trkpt>
      <trkpt lat="42.7673180" lon="-8.5491370">
        <ele>43.1</ele>
        <time>2022-04-14T15:36:59Z</time>
      </trkpt>
      <trkpt lat="42.7673750" lon="-8.5491550">
        <ele>43.5</ele>
        <time>2022-04-14T15:37:00Z</time>
      </trkpt>
      <trkpt lat="42.7674300" lon="-8.5491740">
        <ele>43.9</ele>
        <time>2022-04-14T15:37:01Z</time>
      </trkpt>
      <trkpt lat="42.7674830" lon="-8.5491910">
        <ele>44.3</ele>
        <time>2022-04-14T15:37:02Z</time>
      </trkpt>
      <trkpt lat="42.7675370" lon="-8.5492070">
        <ele>44.7</ele>
        <time>2022-04-14T15:37:03Z</time>
      </trkpt>
      <trkpt lat="42.7675900" lon="-8.5492240">
        <ele>45.0</ele>
        <time>2022-04-14T15:37:04Z</time>
      </trkpt>
      <trkpt lat="42.7676400" lon="-8.5492400">
        <ele>45.4</ele>
        <time>2022-04-14T15:37:05Z</time>
      </trkpt>
      <trkpt lat="42.7676880" lon="-8.5492550">
        <ele>45.6</ele>
        <time>2022-04-14T15:37:06Z</time>
      </trkpt>
      <trkpt lat="42.7677360" lon="-8.5492700">
        <ele>45.8</ele>
        <time>2022-04-14T15:37:07Z</time>
      </trkpt>
      <trkpt lat="42.7677680" lon="-8.5492810">
        <ele>45.9</ele>
        <time>2022-04-14T15:37:08Z</time>
      </trkpt>
      <trkpt lat="42.7678000" lon="-8.5492910">
        <ele>46.1</ele>
        <time>2022-04-14T15:37:09Z</time>
      </trkpt>
      <trkpt lat="42.7678320" lon="-8.5493020">
        <ele>46.2</ele>
        <time>2022-04-14T15:37:10Z</time>
      </trkpt>
      <trkpt lat="42.7679270" lon="-8.5493340">
        <ele>46.6</ele>
        <time>2022-04-14T15:37:11Z</time>
      </trkpt>
      <trkpt lat="42.7679510" lon="-8.5493420">
        <ele>46.7</ele>
        <time>2022-04-14T15:37:12Z</time>
      </trkpt>
      <trkpt lat="42.7679760" lon="-8.5493490">
        <ele>46.8</ele>
        <time>2022-04-14T15:37:13Z</time>
      </trkpt>
      <trkpt lat="42.7680680" lon="-8.5493810">
        <ele>47.3</ele>
        <time>2022-04-14T15:37:14Z</time>
      </trkpt>
      <trkpt lat="42.7681120" lon="-8.5493970">
        <ele>47.5</ele>
        <time>2022-04-14T15:37:15Z</time>
      </trkpt>
      <trkpt lat="42.7681590" lon="-8.5494090">
        <ele>47.7</ele>
        <time>2022-04-14T15:37:16Z</time>
      </trkpt>
      <trkpt lat="42.7682070" lon="-8.5494200">
        <ele>48.0</ele>
        <time>2022-04-14T15:37:17Z</time>
      </trkpt>
      <trkpt lat="42.7682380" lon="-8.5494290">
        <ele>48.2</ele>
        <time>2022-04-14T15:37:18Z</time>
      </trkpt>
      <trkpt lat="42.7682700" lon="-8.5494380">
        <ele>48.4</ele>
        <time>2022-04-14T15:37:19Z</time>
      </trkpt>
      <trkpt lat="42.7683010" lon="-8.5494470">
        <ele>48.6</ele>
        <time>2022-04-14T15:37:20Z</time>
      </trkpt>
      <trkpt lat="42.7683920" lon="-8.5494750">
        <ele>49.2</ele>
        <time>2022-04-14T15:37:21Z</time>
      </trkpt>
      <trkpt lat="42.7684390" lon="-8.5494910">
        <ele>49.5</ele>
        <time>2022-04-14T15:37:22Z</time>
      </trkpt>
      <trkpt lat="42.7684850" lon="-8.5495060">
        <ele>49.8</ele>
        <time>2022-04-14T15:37:23Z</time>
      </trkpt>
      <trkpt lat="42.7685060" lon="-8.5495150">
        <ele>50.0</ele>
        <time>2022-04-14T15:37:24Z</time>
      </trkpt>
      <trkpt lat="42.7685270" lon="-8.5495240">
        <ele>50.1</ele>
        <time>2022-04-14T15:37:25Z</time>
      </trkpt>
      <trkpt lat="42.7685470" lon="-8.5495340">
        <ele>50.3</ele>
        <time>2022-04-14T15:37:26Z</time>
      </trkpt>
      <trkpt lat="42.7686330" lon="-8.5495670">
        <ele>50.9</ele>
        <time>2022-04-14T15:37:27Z</time>
      </trkpt>
      <trkpt lat="42.7686560" lon="-8.5495720">
        <ele>51.0</ele>
        <time>2022-04-14T15:37:28Z</time>
      </trkpt>
      <trkpt lat="42.7686780" lon="-8.5495780">
        <ele>51.2</ele>
        <time>2022-04-14T15:37:29Z</time>
      </trkpt>
      <trkpt lat="42.7687770" lon="-8.5496040">
        <ele>51.9</ele>
        <time>2022-04-14T15:37:30Z</time>
      </trkpt>
      <trkpt lat="42.7688060" lon="-8.5496140">
        <ele>52.1</ele>
        <time>2022-04-14T15:37:31Z</time>
      </trkpt>
      <trkpt lat="42.7688360" lon="-8.5496230">
        <ele>52.3</ele>
        <time>2022-04-14T15:37:32Z</time>
      </trkpt>
      <trkpt lat="42.7689340" lon="-8.5496470">
        <ele>53.0</ele>
        <time>2022-04-14T15:37:33Z</time>
      </trkpt>
      <trkpt lat="42.7689790" lon="-8.5496580">
        <ele>53.3</ele>
        <time>2022-04-14T15:37:34Z</time>
      </trkpt>
      <trkpt lat="42.7690250" lon="-8.5496680">
        <ele>53.6</ele>
        <time>2022-04-14T15:37:35Z</time>
      </trkpt>
      <trkpt lat="42.7690710" lon="-8.5496780">
        <ele>53.9</ele>
        <time>2022-04-14T15:37:36Z</time>
      </trkpt>
      <trkpt lat="42.7691180" lon="-8.5496880">
        <ele>54.2</ele>
        <time>2022-04-14T15:37:37Z</time>
      </trkpt>
      <trkpt lat="42.7691630" lon="-8.5496980">
        <ele>54.5</ele>
        <time>2022-04-14T15:37:38Z</time>
      </trkpt>
      <trkpt lat="42.7692070" lon="-8.5497080">
        <ele>54.8</ele>
        <time>2022-04-14T15:37:39Z</time>
      </trkpt>
      <trkpt lat="42.7692370" lon="-8.5497130">
        <ele>54.9</ele>
        <time>2022-04-14T15:37:40Z</time>
      </trkpt>
      <trkpt lat="42.7692680" lon="-8.5497170">
        <ele>55.2</ele>
        <time>2022-04-14T15:37:41Z</time>
      </trkpt>
      <trkpt lat="42.7692980" lon="-8.5497220">
        <ele>55.4</ele>
        <time>2022-04-14T15:37:42Z</time>
      </trkpt>
      <trkpt lat="42.7693870" lon="-8.5497380">
        <ele>56.0</ele>
        <time>2022-04-14T15:37:43Z</time>
      </trkpt>
      <trkpt lat="42.7694320" lon="-8.5497440">
        <ele>56.3</ele>
        <time>2022-04-14T15:37:44Z</time>
      </trkpt>
      <trkpt lat="42.7694780" lon="-8.5497500">
        <ele>56.6</ele>
        <time>2022-04-14T15:37:45Z</time>
      </trkpt>
      <trkpt lat="42.7695260" lon="-8.5497550">
        <ele>56.9</ele>
        <time>2022-04-14T15:37:46Z</time>
      </trkpt>
      <trkpt lat="42.7695750" lon="-8.5497600">
        <ele>57.2</ele>
        <time>2022-04-14T15:37:47Z</time>
      </trkpt>
      <trkpt lat="42.7695960" lon="-8.5497640">
        <ele>57.3</ele>
        <time>2022-04-14T15:37:48Z</time>
      </trkpt>
      <trkpt lat="42.7696180" lon="-8.5497670">
        <ele>57.4</ele>
        <time>2022-04-14T15:37:49Z</time>
      </trkpt>
      <trkpt lat="42.7696390" lon="-8.5497710">
        <ele>57.6</ele>
        <time>2022-04-14T15:37:50Z</time>
      </trkpt>
      <trkpt lat="42.7697480" lon="-8.5497900">
        <ele>58.1</ele>
        <time>2022-04-14T15:37:51Z</time>
      </trkpt>
      <trkpt lat="42.7697920" lon="-8.5497980">
        <ele>58.3</ele>
        <time>2022-04-14T15:37:52Z</time>
      </trkpt>
      <trkpt lat="42.7698370" lon="-8.5498050">
        <ele>58.5</ele>
        <time>2022-04-14T15:37:53Z</time>
      </trkpt>
      <trkpt lat="42.7698810" lon="-8.5498130">
        <ele>58.7</ele>
        <time>2022-04-14T15:37:54Z</time>
      </trkpt>
      <trkpt lat="42.7699290" lon="-8.5498220">
        <ele>58.9</ele>
        <time>2022-04-14T15:37:55Z</time>
      </trkpt>
      <trkpt lat="42.7699610" lon="-8.5498300">
        <ele>59.0</ele>
        <time>2022-04-14T15:37:56Z</time>
      </trkpt>
      <trkpt lat="42.7699920" lon="-8.5498370">
        <ele>59.1</ele>
        <time>2022-04-14T15:37:57Z</time>
      </trkpt>
      <trkpt lat="42.7700890" lon="-8.5498560">
        <ele>59.4</ele>
        <time>2022-04-14T15:37:58Z</time>
      </trkpt>
      <trkpt lat="42.7701230" lon="-8.5498610">
        <ele>59.5</ele>
        <time>2022-04-14T15:37:59Z</time>
      </trkpt>
      <trkpt lat="42.7702540" lon="-8.5498830">
        <ele>59.6</ele>
        <time>2022-04-14T15:38:00Z</time>
      </trkpt>
      <trkpt lat="42.7703170" lon="-8.5498970">
        <ele>59.7</ele>
        <time>2022-04-14T15:38:01Z</time>
      </trkpt>
      <trkpt lat="42.7703790" lon="-8.5499100">
        <ele>59.8</ele>
        <time>2022-04-14T15:38:02Z</time>
      </trkpt>
      <trkpt lat="42.7704420" lon="-8.5499220">
        <ele>59.8</ele>
        <time>2022-04-14T15:38:03Z</time>
      </trkpt>
      <trkpt lat="42.7704760" lon="-8.5499270">
        <ele>59.8</ele>
        <time>2022-04-14T15:38:04Z</time>
      </trkpt>
      <trkpt lat="42.7705090" lon="-8.5499320">
        <ele>59.9</ele>
        <time>2022-04-14T15:38:05Z</time>
      </trkpt>
      <trkpt lat="42.7706070" lon="-8.5499470">
        <ele>59.9</ele>
        <time>2022-04-14T15:38:06Z</time>
      </trkpt>
      <trkpt lat="42.7706390" lon="-8.5499520">
        <ele>59.9</ele>
        <time>2022-04-14T15:38:07Z</time>
      </trkpt>
      <trkpt lat="42.7707670" lon="-8.5499710">
        <ele>60.0</ele>
        <time>2022-04-14T15:38:08Z</time>
      </trkpt>
      <trkpt lat="42.7708310" lon="-8.5499810">
        <ele>60.0</ele>
        <time>2022-04-14T15:38:09Z</time>
      </trkpt>
      <trkpt lat="42.7708950" lon="-8.5499910">
        <ele>60.1</ele>
        <time>2022-04-14T15:38:10Z</time>
      </trkpt>
      <trkpt lat="42.7709590" lon="-8.5500010">
        <ele>60.1</ele>
        <time>2022-04-14T15:38:11Z</time>
      </trkpt>
      <trkpt lat="42.7709910" lon="-8.5500060">
        <ele>60.1</ele>
        <time>2022-04-14T15:38:12Z</time>
      </trkpt>
      <trkpt lat="42.7710230" lon="-8.5500110">
        <ele>60.2</ele>
        <time>2022-04-14T15:38:13Z</time>
      </trkpt>
      <trkpt lat="42.7711180" lon="-8.5500270">
        <ele>60.2</ele>
        <time>2022-04-14T15:38:14Z</time>
      </trkpt>
      <trkpt lat="42.7711480" lon="-8.5500330">
        <ele>60.3</ele>
        <time>2022-04-14T15:38:15Z</time>
      </trkpt>
      <trkpt lat="42.7712730" lon="-8.5500570">
        <ele>60.4</ele>
        <time>2022-04-14T15:38:16Z</time>
      </trkpt>
      <trkpt lat="42.7713370" lon="-8.5500690">
        <ele>60.5</ele>
        <time>2022-04-14T15:38:17Z</time>
      </trkpt>
      <trkpt lat="42.7714010" lon="-8.5500800">
        <ele>60.5</ele>
        <time>2022-04-14T15:38:18Z</time>
      </trkpt>
      <trkpt lat="42.7714990" lon="-8.5500960">
        <ele>60.6</ele>
        <time>2022-04-14T15:38:19Z</time>
      </trkpt>
      <trkpt lat="42.7715330" lon="-8.5501000">
        <ele>60.7</ele>
        <time>2022-04-14T15:38:20Z</time>
      </trkpt>
      <trkpt lat="42.7716010" lon="-8.5501090">
        <ele>60.8</ele>
        <time>2022-04-14T15:38:21Z</time>
      </trkpt>
      <trkpt lat="42.7716330" lon="-8.5501150">
        <ele>60.8</ele>
        <time>2022-04-14T15:38:22Z</time>
      </trkpt>
      <trkpt lat="42.7716640" lon="-8.5501200">
        <ele>60.9</ele>
        <time>2022-04-14T15:38:23Z</time>
      </trkpt>
      <trkpt lat="42.7717930" lon="-8.5501420">
        <ele>61.1</ele>
        <time>2022-04-14T15:38:24Z</time>
      </trkpt>
      <trkpt lat="42.7718590" lon="-8.5501540">
        <ele>61.2</ele>
        <time>2022-04-14T15:38:25Z</time>
      </trkpt>
      <trkpt lat="42.7719250" lon="-8.5501650">
        <ele>61.3</ele>
        <time>2022-04-14T15:38:26Z</time>
      </trkpt>
      <trkpt lat="42.7719930" lon="-8.5501740">
        <ele>61.4</ele>
        <time>2022-04-14T15:38:27Z</time>
      </trkpt>
      <trkpt lat="42.7720280" lon="-8.5501810">
        <ele>61.5</ele>
        <time>2022-04-14T15:38:28Z</time>
      </trkpt>
      <trkpt lat="42.7720630" lon="-8.5501880">
        <ele>61.6</ele>
        <time>2022-04-14T15:38:29Z</time>
      </trkpt>
      <trkpt lat="42.7722020" lon="-8.5502130">
        <ele>62.0</ele>
        <time>2022-04-14T15:38:30Z</time>
      </trkpt>
      <trkpt lat="42.7722710" lon="-8.5502240">
        <ele>62.2</ele>
        <time>2022-04-14T15:38:31Z</time>
      </trkpt>
      <trkpt lat="42.7723400" lon="-8.5502350">
        <ele>62.4</ele>
        <time>2022-04-14T15:38:32Z</time>
      </trkpt>
      <trkpt lat="42.7724080" lon="-8.5502440">
        <ele>62.6</ele>
        <time>2022-04-14T15:38:33Z</time>
      </trkpt>
      <trkpt lat="42.7724400" lon="-8.5502500">
        <ele>62.7</ele>
        <time>2022-04-14T15:38:34Z</time>
      </trkpt>
      <trkpt lat="42.7724720" lon="-8.5502560">
        <ele>62.8</ele>
        <time>2022-04-14T15:38:35Z</time>
      </trkpt>
      <trkpt lat="42.7725680" lon="-8.5502720">
        <ele>63.2</ele>
        <time>2022-04-14T15:38:36Z</time>
      </trkpt>
      <trkpt lat="42.7726000" lon="-8.5502780">
        <ele>63.4</ele>
        <time>2022-04-14T15:38:37Z</time>
      </trkpt>
      <trkpt lat="42.7727260" lon="-8.5502990">
        <ele>64.0</ele>
        <time>2022-04-14T15:38:38Z</time>
      </trkpt>
      <trkpt lat="42.7727880" lon="-8.5503100">
        <ele>64.3</ele>
        <time>2022-04-14T15:38:39Z</time>
      </trkpt>
      <trkpt lat="42.7728500" lon="-8.5503210">
        <ele>64.6</ele>
        <time>2022-04-14T15:38:40Z</time>
      </trkpt>
      <trkpt lat="42.7729100" lon="-8.5503330">
        <ele>65.0</ele>
        <time>2022-04-14T15:38:41Z</time>
      </trkpt>
      <trkpt lat="42.7729400" lon="-8.5503390">
        <ele>65.2</ele>
        <time>2022-04-14T15:38:42Z</time>
      </trkpt>
      <trkpt lat="42.7729700" lon="-8.5503450">
        <ele>65.4</ele>
        <time>2022-04-14T15:38:43Z</time>
      </trkpt>
      <trkpt lat="42.7730590" lon="-8.5503620">
        <ele>65.9</ele>
        <time>2022-04-14T15:38:44Z</time>
      </trkpt>
      <trkpt lat="42.7730880" lon="-8.5503690">
        <ele>66.1</ele>
        <time>2022-04-14T15:38:45Z</time>
      </trkpt>
      <trkpt lat="42.7732020" lon="-8.5503950">
        <ele>66.9</ele>
        <time>2022-04-14T15:38:46Z</time>
      </trkpt>
      <trkpt lat="42.7732580" lon="-8.5504080">
        <ele>67.3</ele>
        <time>2022-04-14T15:38:47Z</time>
      </trkpt>
      <trkpt lat="42.7733140" lon="-8.5504220">
        <ele>67.7</ele>
        <time>2022-04-14T15:38:48Z</time>
      </trkpt>
      <trkpt lat="42.7733690" lon="-8.5504340">
        <ele>68.0</ele>
        <time>2022-04-14T15:38:49Z</time>
      </trkpt>
      <trkpt lat="42.7733970" lon="-8.5504350">
        <ele>68.2</ele>
        <time>2022-04-14T15:38:50Z</time>
      </trkpt>
      <trkpt lat="42.7734240" lon="-8.5504360">
        <ele>68.4</ele>
        <time>2022-04-14T15:38:51Z</time>
      </trkpt>
      <trkpt lat="42.7735060" lon="-8.5504460">
        <ele>69.0</ele>
        <time>2022-04-14T15:38:52Z</time>
      </trkpt>
      <trkpt lat="42.7735330" lon="-8.5504540">
        <ele>69.2</ele>
        <time>2022-04-14T15:38:53Z</time>
      </trkpt>
      <trkpt lat="42.7736160" lon="-8.5504750">
        <ele>69.7</ele>
        <time>2022-04-14T15:38:54Z</time>
      </trkpt>
      <trkpt lat="42.7736430" lon="-8.5504810">
        <ele>69.8</ele>
        <time>2022-04-14T15:38:55Z</time>
      </trkpt>
      <trkpt lat="42.7737540" lon="-8.5505060">
        <ele>70.5</ele>
        <time>2022-04-14T15:38:56Z</time>
      </trkpt>
      <trkpt lat="42.7738110" lon="-8.5505190">
        <ele>70.7</ele>
        <time>2022-04-14T15:38:57Z</time>
      </trkpt>
      <trkpt lat="42.7738670" lon="-8.5505330">
        <ele>70.9</ele>
        <time>2022-04-14T15:38:58Z</time>
      </trkpt>
      <trkpt lat="42.7739230" lon="-8.5505530">
        <ele>71.2</ele>
        <time>2022-04-14T15:38:59Z</time>
      </trkpt>
      <trkpt lat="42.7739490" lon="-8.5505610">
        <ele>71.3</ele>
        <time>2022-04-14T15:39:00Z</time>
      </trkpt>
      <trkpt lat="42.7739760" lon="-8.5505690">
        <ele>71.4</ele>
        <time>2022-04-14T15:39:01Z</time>
      </trkpt>
      <trkpt lat="42.7740560" lon="-8.5505900">
        <ele>71.7</ele>
        <time>2022-04-14T15:39:02Z</time>
      </trkpt>
      <trkpt lat="42.7740840" lon="-8.5505950">
        <ele>71.8</ele>
        <time>2022-04-14T15:39:03Z</time>
      </trkpt>
      <trkpt lat="42.7741940" lon="-8.5506230">
        <ele>72.2</ele>
        <time>2022-04-14T15:39:04Z</time>
      </trkpt>
      <trkpt lat="42.7742480" lon="-8.5506400">
        <ele>72.4</ele>
        <time>2022-04-14T15:39:05Z</time>
      </trkpt>
      <trkpt lat="42.7743020" lon="-8.5506570">
        <ele>72.5</ele>
        <time>2022-04-14T15:39:06Z</time>
      </trkpt>
      <trkpt lat="42.7743550" lon="-8.5506740">
        <ele>72.7</ele>
        <time>2022-04-14T15:39:07Z</time>
      </trkpt>
      <trkpt lat="42.7743840" lon="-8.5506830">
        <ele>72.7</ele>
        <time>2022-04-14T15:39:08Z</time>
      </trkpt>
      <trkpt lat="42.7744140" lon="-8.5506920">
        <ele>72.8</ele>
        <time>2022-04-14T15:39:09Z</time>
      </trkpt>
      <trkpt lat="42.7745010" lon="-8.5507210">
        <ele>72.9</ele>
        <time>2022-04-14T15:39:10Z</time>
      </trkpt>
      <trkpt lat="42.7745300" lon="-8.5507320">
        <ele>73.0</ele>
        <time>2022-04-14T15:39:11Z</time>
      </trkpt>
      <trkpt lat="42.7746430" lon="-8.5507790">
        <ele>73.1</ele>
        <time>2022-04-14T15:39:12Z</time>
      </trkpt>
      <trkpt lat="42.7746980" lon="-8.5508050">
        <ele>73.1</ele>
        <time>2022-04-14T15:39:13Z</time>
      </trkpt>
      <trkpt lat="42.7747540" lon="-8.5508310">
        <ele>73.1</ele>
        <time>2022-04-14T15:39:14Z</time>
      </trkpt>
      <trkpt lat="42.7748130" lon="-8.5508540">
        <ele>73.1</ele>
        <time>2022-04-14T15:39:15Z</time>
      </trkpt>
      <trkpt lat="42.7748440" lon="-8.5508660">
        <ele>73.1</ele>
        <time>2022-04-14T15:39:16Z</time>
      </trkpt>
      <trkpt lat="42.7748750" lon="-8.5508790">
        <ele>73.1</ele>
        <time>2022-04-14T15:39:17Z</time>
      </trkpt>
      <trkpt lat="42.7749700" lon="-8.5509190">
        <ele>73.1</ele>
        <time>2022-04-14T15:39:18Z</time>
      </trkpt>
      <trkpt lat="42.7750020" lon="-8.5509330">
        <ele>73.1</ele>
        <time>2022-04-14T15:39:19Z</time>
      </trkpt>
      <trkpt lat="42.7751310" lon="-8.5509910">
        <ele>73.1</ele>
        <time>2022-04-14T15:39:20Z</time>
      </trkpt>
      <trkpt lat="42.7751970" lon="-8.5510220">
        <ele>73.1</ele>
        <time>2022-04-14T15:39:21Z</time>
      </trkpt>
      <trkpt lat="42.7752620" lon="-8.5510520">
        <ele>73.1</ele>
        <time>2022-04-14T15:39:22Z</time>
      </trkpt>
      <trkpt lat="42.7753380" lon="-8.5510790">
        <ele>73.1</ele>
        <time>2022-04-14T15:39:23Z</time>
      </trkpt>
      <trkpt lat="42.7753760" lon="-8.5510970">
        <ele>73.2</ele>
        <time>2022-04-14T15:39:24Z</time>
      </trkpt>
      <trkpt lat="42.7754130" lon="-8.5511150">
        <ele>73.2</ele>
        <time>2022-04-14T15:39:25Z</time>
      </trkpt>
      <trkpt lat="42.7755650" lon="-8.5511830">
        <ele>73.2</ele>
        <time>2022-04-14T15:39:26Z</time>
      </trkpt>
      <trkpt lat="42.7756400" lon="-8.5512160">
        <ele>73.3</ele>
        <time>2022-04-14T15:39:27Z</time>
      </trkpt>
      <trkpt lat="42.7757160" lon="-8.5512490">
        <ele>73.4</ele>
        <time>2022-04-14T15:39:28Z</time>
      </trkpt>
      <trkpt lat="42.7757960" lon="-8.5512790">
        <ele>73.4</ele>
        <time>2022-04-14T15:39:29Z</time>
      </trkpt>
      <trkpt lat="42.7758350" lon="-8.5512900">
        <ele>73.4</ele>
        <time>2022-04-14T15:39:30Z</time>
      </trkpt>
      <trkpt lat="42.7758740" lon="-8.5513010">
        <ele>73.4</ele>
        <time>2022-04-14T15:39:31Z</time>
      </trkpt>
      <trkpt lat="42.7760360" lon="-8.5513340">
        <ele>73.4</ele>
        <time>2022-04-14T15:39:32Z</time>
      </trkpt>
      <trkpt lat="42.7761190" lon="-8.5513440">
        <ele>73.4</ele>
        <time>2022-04-14T15:39:33Z</time>
      </trkpt>
      <trkpt lat="42.7762020" lon="-8.5513540">
        <ele>73.2</ele>
        <time>2022-04-14T15:39:34Z</time>
      </trkpt>
      <trkpt lat="42.7763170" lon="-8.5513460">
        <ele>72.9</ele>
        <time>2022-04-14T15:39:35Z</time>
      </trkpt>
      <trkpt lat="42.7763570" lon="-8.5513410">
        <ele>72.8</ele>
        <time>2022-04-14T15:39:36Z</time>
      </trkpt>
      <trkpt lat="42.7764360" lon="-8.5513310">
        <ele>72.4</ele>
        <time>2022-04-14T15:39:37Z</time>
      </trkpt>
      <trkpt lat="42.7764770" lon="-8.5513240">
        <ele>72.3</ele>
        <time>2022-04-14T15:39:38Z</time>
      </trkpt>
      <trkpt lat="42.7765180" lon="-8.5513180">
        <ele>72.0</ele>
        <time>2022-04-14T15:39:39Z</time>
      </trkpt>
      <trkpt lat="42.7766890" lon="-8.5512910">
        <ele>71.1</ele>
        <time>2022-04-14T15:39:40Z</time>
      </trkpt>
      <trkpt lat="42.7767790" lon="-8.5512770">
        <ele>70.5</ele>
        <time>2022-04-14T15:39:41Z</time>
      </trkpt>
      <trkpt lat="42.7768680" lon="-8.5512640">
        <ele>69.9</ele>
        <time>2022-04-14T15:39:42Z</time>
      </trkpt>
      <trkpt lat="42.7769560" lon="-8.5512510">
        <ele>69.2</ele>
        <time>2022-04-14T15:39:43Z</time>
      </trkpt>
      <trkpt lat="42.7770470" lon="-8.5512440">
        <ele>68.5</ele>
        <time>2022-04-14T15:39:44Z</time>
      </trkpt>
      <trkpt lat="42.7771380" lon="-8.5512370">
        <ele>67.7</ele>
        <time>2022-04-14T15:39:45Z</time>
      </trkpt>
      <trkpt lat="42.7772290" lon="-8.5512300">
        <ele>66.8</ele>
        <time>2022-04-14T15:39:46Z</time>
      </trkpt>
      <trkpt lat="42.7773260" lon="-8.5512320">
        <ele>65.9</ele>
        <time>2022-04-14T15:39:47Z</time>
      </trkpt>
      <trkpt lat="42.7774300" lon="-8.5512410">
        <ele>65.0</ele>
        <time>2022-04-14T15:39:48Z</time>
      </trkpt>
      <trkpt lat="42.7775320" lon="-8.5512660">
        <ele>64.2</ele>
        <time>2022-04-14T15:39:49Z</time>
      </trkpt>
      <trkpt lat="42.7776870" lon="-8.5513390">
        <ele>63.2</ele>
        <time>2022-04-14T15:39:50Z</time>
      </trkpt>
      <trkpt lat="42.7777380" lon="-8.5513700">
        <ele>62.9</ele>
        <time>2022-04-14T15:39:51Z</time>
      </trkpt>
      <trkpt lat="42.7778420" lon="-8.5514310">
        <ele>62.3</ele>
        <time>2022-04-14T15:39:52Z</time>
      </trkpt>
      <trkpt lat="42.7779450" lon="-8.5515100">
        <ele>61.8</ele>
        <time>2022-04-14T15:39:53Z</time>
      </trkpt>
      <trkpt lat="42.7780490" lon="-8.5515900">
        <ele>61.3</ele>
        <time>2022-04-14T15:39:54Z</time>
      </trkpt>
      <trkpt lat="42.7781530" lon="-8.5516700">
        <ele>60.9</ele>
        <time>2022-04-14T15:39:55Z</time>
      </trkpt>
      <trkpt lat="42.7782560" lon="-8.5517500">
        <ele>60.6</ele>
        <time>2022-04-14T15:39:56Z</time>
      </trkpt>
      <trkpt lat="42.7783570" lon="-8.5518420">
        <ele>60.3</ele>
        <time>2022-04-14T15:39:57Z</time>
      </trkpt>
      <trkpt lat="42.7784680" lon="-8.5519210">
        <ele>60.1</ele>
        <time>2022-04-14T15:39:58Z</time>
      </trkpt>
      <trkpt lat="42.7786220" lon="-8.5520050">
        <ele>59.8</ele>
        <time>2022-04-14T15:39:59Z</time>
      </trkpt>
      <trkpt lat="42.7786770" lon="-8.5520200">
        <ele>59.7</ele>
        <time>2022-04-14T15:40:00Z</time>
      </trkpt>
      <trkpt lat="42.7787870" lon="-8.5520500">
        <ele>59.6</ele>
        <time>2022-04-14T15:40:01Z</time>
      </trkpt>
      <trkpt lat="42.7788980" lon="-8.5520800">
        <ele>59.6</ele>
        <time>2022-04-14T15:40:02Z</time>
      </trkpt>
      <trkpt lat="42.7790430" lon="-8.5520770">
        <ele>59.7</ele>
        <time>2022-04-14T15:40:03Z</time>
      </trkpt>
      <trkpt lat="42.7790950" lon="-8.5520690">
        <ele>59.8</ele>
        <time>2022-04-14T15:40:04Z</time>
      </trkpt>
      <trkpt lat="42.7792000" lon="-8.5520540">
        <ele>60.0</ele>
        <time>2022-04-14T15:40:05Z</time>
      </trkpt>
      <trkpt lat="42.7793010" lon="-8.5520160">
        <ele>60.3</ele>
        <time>2022-04-14T15:40:06Z</time>
      </trkpt>
      <trkpt lat="42.7793950" lon="-8.5519730">
        <ele>60.7</ele>
        <time>2022-04-14T15:40:07Z</time>
      </trkpt>
      <trkpt lat="42.7795040" lon="-8.5519110">
        <ele>61.2</ele>
        <time>2022-04-14T15:40:08Z</time>
      </trkpt>
      <trkpt lat="42.7795250" lon="-8.5518980">
        <ele>61.3</ele>
        <time>2022-04-14T15:40:09Z</time>
      </trkpt>
      <trkpt lat="42.7796050" lon="-8.5518430">
        <ele>61.7</ele>
        <time>2022-04-14T15:40:10Z</time>
      </trkpt>
      <trkpt lat="42.7796440" lon="-8.5518150">
        <ele>61.9</ele>
        <time>2022-04-14T15:40:11Z</time>
      </trkpt>
      <trkpt lat="42.7797960" lon="-8.5517130">
        <ele>62.9</ele>
        <time>2022-04-14T15:40:12Z</time>
      </trkpt>
      <trkpt lat="42.7798700" lon="-8.5516670">
        <ele>63.3</ele>
        <time>2022-04-14T15:40:13Z</time>
      </trkpt>
      <trkpt lat="42.7799440" lon="-8.5516200">
        <ele>63.8</ele>
        <time>2022-04-14T15:40:14Z</time>
      </trkpt>
      <trkpt lat="42.7800500" lon="-8.5515680">
        <ele>64.4</ele>
        <time>2022-04-14T15:40:15Z</time>
      </trkpt>
      <trkpt lat="42.7800860" lon="-8.5515540">
        <ele>64.6</ele>
        <time>2022-04-14T15:40:16Z</time>
      </trkpt>
      <trkpt lat="42.7801590" lon="-8.5515270">
        <ele>65.0</ele>
        <time>2022-04-14T15:40:17Z</time>
      </trkpt>
      <trkpt lat="42.7801940" lon="-8.5515180">
        <ele>65.2</ele>
        <time>2022-04-14T15:40:18Z</time>
      </trkpt>
      <trkpt lat="42.7802300" lon="-8.5515100">
        <ele>65.4</ele>
        <time>2022-04-14T15:40:19Z</time>
      </trkpt>
      <trkpt lat="42.7803680" lon="-8.5514830">
        <ele>66.1</ele>
        <time>2022-04-14T15:40:20Z</time>
      </trkpt>
      <trkpt lat="42.7804350" lon="-8.5514730">
        <ele>66.5</ele>
        <time>2022-04-14T15:40:21Z</time>
      </trkpt>
      <trkpt lat="42.7805020" lon="-8.5514630">
        <ele>66.9</ele>
        <time>2022-04-14T15:40:22Z</time>
      </trkpt>
      <trkpt lat="42.7805670" lon="-8.5514560">
        <ele>67.3</ele>
        <time>2022-04-14T15:40:23Z</time>
      </trkpt>
      <trkpt lat="42.7805960" lon="-8.5514520">
        <ele>67.4</ele>
        <time>2022-04-14T15:40:24Z</time>
      </trkpt>
      <trkpt lat="42.7806260" lon="-8.5514480">
        <ele>67.6</ele>
        <time>2022-04-14T15:40:25Z</time>
      </trkpt>
      <trkpt lat="42.7807120" lon="-8.5514390">
        <ele>68.2</ele>
        <time>2022-04-14T15:40:26Z</time>
      </trkpt>
      <trkpt lat="42.7807390" lon="-8.5514380">
        <ele>68.4</ele>
        <time>2022-04-14T15:40:27Z</time>
      </trkpt>
      <trkpt lat="42.7808460" lon="-8.5514430">
        <ele>69.1</ele>
        <time>2022-04-14T15:40:28Z</time>
      </trkpt>
      <trkpt lat="42.7808990" lon="-8.5514500">
        <ele>69.5</ele>
        <time>2022-04-14T15:40:29Z</time>
      </trkpt>
      <trkpt lat="42.7809520" lon="-8.5514560">
        <ele>69.9</ele>
        <time>2022-04-14T15:40:30Z</time>
      </trkpt>
      <trkpt lat="42.7810050" lon="-8.5514630">
        <ele>70.2</ele>
        <time>2022-04-14T15:40:31Z</time>
      </trkpt>
      <trkpt lat="42.7810310" lon="-8.5514710">
        <ele>70.4</ele>
        <time>2022-04-14T15:40:32Z</time>
      </trkpt>
      <trkpt lat="42.7810570" lon="-8.5514780">
        <ele>70.6</ele>
        <time>2022-04-14T15:40:33Z</time>
      </trkpt>
      <trkpt lat="42.7811580" lon="-8.5515130">
        <ele>71.3</ele>
        <time>2022-04-14T15:40:34Z</time>
      </trkpt>
      <trkpt lat="42.7812080" lon="-8.5515320">
        <ele>71.7</ele>
        <time>2022-04-14T15:40:35Z</time>
      </trkpt>
      <trkpt lat="42.7812310" lon="-8.5515430">
        <ele>71.8</ele>
        <time>2022-04-14T15:40:36Z</time>
      </trkpt>
      <trkpt lat="42.7812550" lon="-8.5515540">
        <ele>72.0</ele>
        <time>2022-04-14T15:40:37Z</time>
      </trkpt>
      <trkpt lat="42.7813340" lon="-8.5515920">
        <ele>72.6</ele>
        <time>2022-04-14T15:40:38Z</time>
      </trkpt>
      <trkpt lat="42.7813650" lon="-8.5516080">
        <ele>72.8</ele>
        <time>2022-04-14T15:40:39Z</time>
      </trkpt>
      <trkpt lat="42.7813960" lon="-8.5516240">
        <ele>73.1</ele>
        <time>2022-04-14T15:40:40Z</time>
      </trkpt>
      <trkpt lat="42.7814820" lon="-8.5516780">
        <ele>73.7</ele>
        <time>2022-04-14T15:40:41Z</time>
      </trkpt>
      <trkpt lat="42.7815240" lon="-8.5517050">
        <ele>74.1</ele>
        <time>2022-04-14T15:40:42Z</time>
      </trkpt>
      <trkpt lat="42.7815670" lon="-8.5517330">
        <ele>74.4</ele>
        <time>2022-04-14T15:40:43Z</time>
      </trkpt>
      <trkpt lat="42.7816080" lon="-8.5517590">
        <ele>74.7</ele>
        <time>2022-04-14T15:40:44Z</time>
      </trkpt>
      <trkpt lat="42.7816490" lon="-8.5517860">
        <ele>75.0</ele>
        <time>2022-04-14T15:40:45Z</time>
      </trkpt>
      <trkpt lat="42.7816690" lon="-8.5517980">
        <ele>75.2</ele>
        <time>2022-04-14T15:40:46Z</time>
      </trkpt>
      <trkpt lat="42.7816880" lon="-8.5518110">
        <ele>75.3</ele>
        <time>2022-04-14T15:40:47Z</time>
      </trkpt>
      <trkpt lat="42.7817080" lon="-8.5518230">
        <ele>75.4</ele>
        <time>2022-04-14T15:40:48Z</time>
      </trkpt>
      <trkpt lat="42.7817970" lon="-8.5518730">
        <ele>76.2</ele>
        <time>2022-04-14T15:40:49Z</time>
      </trkpt>
      <trkpt lat="42.7818260" lon="-8.5518870">
        <ele>76.4</ele>
        <time>2022-04-14T15:40:50Z</time>
      </trkpt>
      <trkpt lat="42.7818560" lon="-8.5519000">
        <ele>76.6</ele>
        <time>2022-04-14T15:40:51Z</time>
      </trkpt>
      <trkpt lat="42.7819590" lon="-8.5519240">
        <ele>77.5</ele>
        <time>2022-04-14T15:40:52Z</time>
      </trkpt>
      <trkpt lat="42.7820050" lon="-8.5519360">
        <ele>77.9</ele>
        <time>2022-04-14T15:40:53Z</time>
      </trkpt>
      <trkpt lat="42.7820510" lon="-8.5519490">
        <ele>78.3</ele>
        <time>2022-04-14T15:40:54Z</time>
      </trkpt>
      <trkpt lat="42.7820950" lon="-8.5519620">
        <ele>78.7</ele>
        <time>2022-04-14T15:40:55Z</time>
      </trkpt>
      <trkpt lat="42.7821390" lon="-8.5519760">
        <ele>79.1</ele>
        <time>2022-04-14T15:40:56Z</time>
      </trkpt>
      <trkpt lat="42.7821830" lon="-8.5519890">
        <ele>79.5</ele>
        <time>2022-04-14T15:40:57Z</time>
      </trkpt>
      <trkpt lat="42.7822280" lon="-8.5520030">
        <ele>79.9</ele>
        <time>2022-04-14T15:40:58Z</time>
      </trkpt>
      <trkpt lat="42.7822760" lon="-8.5520160">
        <ele>80.4</ele>
        <time>2022-04-14T15:40:59Z</time>
      </trkpt>
      <trkpt lat="42.7823090" lon="-8.5520230">
        <ele>80.7</ele>
        <time>2022-04-14T15:41:00Z</time>
      </trkpt>
      <trkpt lat="42.7823410" lon="-8.5520300">
        <ele>81.0</ele>
        <time>2022-04-14T15:41:01Z</time>
      </trkpt>
      <trkpt lat="42.7823740" lon="-8.5520370">
        <ele>81.3</ele>
        <time>2022-04-14T15:41:02Z</time>
      </trkpt>
      <trkpt lat="42.7824070" lon="-8.5520430">
        <ele>81.6</ele>
        <time>2022-04-14T15:41:03Z</time>
      </trkpt>
      <trkpt lat="42.7824400" lon="-8.5520510">
        <ele>81.9</ele>
        <time>2022-04-14T15:41:04Z</time>
      </trkpt>
      <trkpt lat="42.7824730" lon="-8.5520590">
        <ele>82.2</ele>
        <time>2022-04-14T15:41:05Z</time>
      </trkpt>
      <trkpt lat="42.7825600" lon="-8.5520790">
        <ele>83.0</ele>
        <time>2022-04-14T15:41:06Z</time>
      </trkpt>
      <trkpt lat="42.7825820" lon="-8.5520840">
        <ele>83.2</ele>
        <time>2022-04-14T15:41:07Z</time>
      </trkpt>
      <trkpt lat="42.7826030" lon="-8.5520880">
        <ele>83.4</ele>
        <time>2022-04-14T15:41:08Z</time>
      </trkpt>
      <trkpt lat="42.7826890" lon="-8.5521050">
        <ele>84.3</ele>
        <time>2022-04-14T15:41:09Z</time>
      </trkpt>
      <trkpt lat="42.7827100" lon="-8.5521080">
        <ele>84.5</ele>
        <time>2022-04-14T15:41:10Z</time>
      </trkpt>
      <trkpt lat="42.7827320" lon="-8.5521100">
        <ele>84.7</ele>
        <time>2022-04-14T15:41:11Z</time>
      </trkpt>
      <trkpt lat="42.7828290" lon="-8.5521230">
        <ele>85.6</ele>
        <time>2022-04-14T15:41:12Z</time>
      </trkpt>
      <trkpt lat="42.7828610" lon="-8.5521270">
        <ele>86.0</ele>
        <time>2022-04-14T15:41:13Z</time>
      </trkpt>
      <trkpt lat="42.7828920" lon="-8.5521310">
        <ele>86.3</ele>
        <time>2022-04-14T15:41:14Z</time>
      </trkpt>
      <trkpt lat="42.7829240" lon="-8.5521350">
        <ele>86.6</ele>
        <time>2022-04-14T15:41:15Z</time>
      </trkpt>
      <trkpt lat="42.7829550" lon="-8.5521350">
        <ele>86.9</ele>
        <time>2022-04-14T15:41:16Z</time>
      </trkpt>
      <trkpt lat="42.7829860" lon="-8.5521360">
        <ele>87.2</ele>
        <time>2022-04-14T15:41:17Z</time>
      </trkpt>
      <trkpt lat="42.7830660" lon="-8.5521380">
        <ele>87.9</ele>
        <time>2022-04-14T15:41:18Z</time>
      </trkpt>
      <trkpt lat="42.7830860" lon="-8.5521390">
        <ele>88.1</ele>
        <time>2022-04-14T15:41:19Z</time>
      </trkpt>
      <trkpt lat="42.7831050" lon="-8.5521390">
        <ele>88.3</ele>
        <time>2022-04-14T15:41:20Z</time>
      </trkpt>
      <trkpt lat="42.7831820" lon="-8.5521400">
        <ele>89.1</ele>
        <time>2022-04-14T15:41:21Z</time>
      </trkpt>
      <trkpt lat="42.7832010" lon="-8.5521400">
        <ele>89.3</ele>
        <time>2022-04-14T15:41:22Z</time>
      </trkpt>
      <trkpt lat="42.7832200" lon="-8.5521400">
        <ele>89.5</ele>
        <time>2022-04-14T15:41:23Z</time>
      </trkpt>
      <trkpt lat="42.7833050" lon="-8.5521360">
        <ele>90.3</ele>
        <time>2022-04-14T15:41:24Z</time>
      </trkpt>
      <trkpt lat="42.7833340" lon="-8.5521330">
        <ele>90.5</ele>
        <time>2022-04-14T15:41:25Z</time>
      </trkpt>
      <trkpt lat="42.7833620" lon="-8.5521290">
        <ele>90.8</ele>
        <time>2022-04-14T15:41:26Z</time>
      </trkpt>
      <trkpt lat="42.7833900" lon="-8.5521260">
        <ele>91.1</ele>
        <time>2022-04-14T15:41:27Z</time>
      </trkpt>
      <trkpt lat="42.7834180" lon="-8.5521230">
        <ele>91.3</ele>
        <time>2022-04-14T15:41:28Z</time>
      </trkpt>
      <trkpt lat="42.7834480" lon="-8.5521180">
        <ele>91.6</ele>
        <time>2022-04-14T15:41:29Z</time>
      </trkpt>
      <trkpt lat="42.7834770" lon="-8.5521140">
        <ele>91.9</ele>
        <time>2022-04-14T15:41:30Z</time>
      </trkpt>
      <trkpt lat="42.7835560" lon="-8.5521000">
        <ele>92.8</ele>
        <time>2022-04-14T15:41:31Z</time>
      </trkpt>
      <trkpt lat="42.7835760" lon="-8.5520950">
        <ele>93.0</ele>
        <time>2022-04-14T15:41:32Z</time>
      </trkpt>
      <trkpt lat="42.7835960" lon="-8.5520900">
        <ele>93.2</ele>
        <time>2022-04-14T15:41:33Z</time>
      </trkpt>
      <trkpt lat="42.7836730" lon="-8.5520710">
        <ele>94.0</ele>
        <time>2022-04-14T15:41:34Z</time>
      </trkpt>
      <trkpt lat="42.7836910" lon="-8.5520670">
        <ele>94.2</ele>
        <time>2022-04-14T15:41:35Z</time>
      </trkpt>
      <trkpt lat="42.7837090" lon="-8.5520630">
        <ele>94.4</ele>
        <time>2022-04-14T15:41:36Z</time>
      </trkpt>
      <trkpt lat="42.7837900" lon="-8.5520440">
        <ele>95.3</ele>
        <time>2022-04-14T15:41:37Z</time>
      </trkpt>
      <trkpt lat="42.7838170" lon="-8.5520380">
        <ele>95.6</ele>
        <time>2022-04-14T15:41:38Z</time>
      </trkpt>
      <trkpt lat="42.7838430" lon="-8.5520320">
        <ele>95.8</ele>
        <time>2022-04-14T15:41:39Z</time>
      </trkpt>
      <trkpt lat="42.7838700" lon="-8.5520250">
        <ele>96.1</ele>
        <time>2022-04-14T15:41:40Z</time>
      </trkpt>
      <trkpt lat="42.7838970" lon="-8.5520190">
        <ele>96.4</ele>
        <time>2022-04-14T15:41:41Z</time>
      </trkpt>
      <trkpt lat="42.7839240" lon="-8.5520130">
        <ele>96.7</ele>
        <time>2022-04-14T15:41:42Z</time>
      </trkpt>
      <trkpt lat="42.7839950" lon="-8.5519990">
        <ele>97.5</ele>
        <time>2022-04-14T15:41:43Z</time>
      </trkpt>
      <trkpt lat="42.7840120" lon="-8.5519970">
        <ele>97.7</ele>
        <time>2022-04-14T15:41:44Z</time>
      </trkpt>
      <trkpt lat="42.7840300" lon="-8.5519940">
        <ele>97.9</ele>
        <time>2022-04-14T15:41:45Z</time>
      </trkpt>
      <trkpt lat="42.7841110" lon="-8.5519800">
        <ele>98.8</ele>
        <time>2022-04-14T15:41:46Z</time>
      </trkpt>
      <trkpt lat="42.7841400" lon="-8.5519720">
        <ele>99.1</ele>
        <time>2022-04-14T15:41:47Z</time>
      </trkpt>
      <trkpt lat="42.7841680" lon="-8.5519650">
        <ele>99.4</ele>
        <time>2022-04-14T15:41:48Z</time>
      </trkpt>
      <trkpt lat="42.7841960" lon="-8.5519570">
        <ele>99.7</ele>
        <time>2022-04-14T15:41:49Z</time>
      </trkpt>
      <trkpt lat="42.7842290" lon="-8.5519480">
        <ele>100.1</ele>
        <time>2022-04-14T15:41:50Z</time>
      </trkpt>
      <trkpt lat="42.7842610" lon="-8.5519390">
        <ele>100.4</ele>
        <time>2022-04-14T15:41:51Z</time>
      </trkpt>
      <trkpt lat="42.7842940" lon="-8.5519290">
        <ele>100.8</ele>
        <time>2022-04-14T15:41:52Z</time>
      </trkpt>
      <trkpt lat="42.7843210" lon="-8.5519190">
        <ele>101.1</ele>
        <time>2022-04-14T15:41:53Z</time>
      </trkpt>
      <trkpt lat="42.7843470" lon="-8.5519080">
        <ele>101.4</ele>
        <time>2022-04-14T15:41:54Z</time>
      </trkpt>
      <trkpt lat="42.7844170" lon="-8.5518810">
        <ele>102.2</ele>
        <time>2022-04-14T15:41:55Z</time>
      </trkpt>
      <trkpt lat="42.7844340" lon="-8.5518750">
        <ele>102.4</ele>
        <time>2022-04-14T15:41:56Z</time>
      </trkpt>
      <trkpt lat="42.7844520" lon="-8.5518690">
        <ele>102.6</ele>
        <time>2022-04-14T15:41:57Z</time>
      </trkpt>
      <trkpt lat="42.7845330" lon="-8.5518440">
        <ele>103.4</ele>
        <time>2022-04-14T15:41:58Z</time>
      </trkpt>
      <trkpt lat="42.7845630" lon="-8.5518380">
        <ele>103.8</ele>
        <time>2022-04-14T15:41:59Z</time>
      </trkpt>
      <trkpt lat="42.7845930" lon="-8.5518320">
        <ele>104.1</ele>
        <time>2022-04-14T15:42:00Z</time>
      </trkpt>
      <trkpt lat="42.7846230" lon="-8.5518240">
        <ele>104.4</ele>
        <time>2022-04-14T15:42:01Z</time>
      </trkpt>
      <trkpt lat="42.7846540" lon="-8.5518170">
        <ele>104.8</ele>
        <time>2022-04-14T15:42:02Z</time>
      </trkpt>
      <trkpt lat="42.7846850" lon="-8.5518090">
        <ele>105.1</ele>
        <time>2022-04-14T15:42:03Z</time>
      </trkpt>
      <trkpt lat="42.7847120" lon="-8.5518020">
        <ele>105.4</ele>
        <time>2022-04-14T15:42:04Z</time>
      </trkpt>
      <trkpt lat="42.7847400" lon="-8.5517950">
        <ele>105.7</ele>
        <time>2022-04-14T15:42:05Z</time>
      </trkpt>
      <trkpt lat="42.7847670" lon="-8.5517880">
        <ele>106.0</ele>
        <time>2022-04-14T15:42:06Z</time>
      </trkpt>
      <trkpt lat="42.7847950" lon="-8.5517810">
        <ele>106.3</ele>
        <time>2022-04-14T15:42:07Z</time>
      </trkpt>
      <trkpt lat="42.7848210" lon="-8.5517750">
        <ele>106.6</ele>
        <time>2022-04-14T15:42:08Z</time>
      </trkpt>
      <trkpt lat="42.7848480" lon="-8.5517690">
        <ele>106.9</ele>
        <time>2022-04-14T15:42:09Z</time>
      </trkpt>
      <trkpt lat="42.7849200" lon="-8.5517540">
        <ele>107.6</ele>
        <time>2022-04-14T15:42:10Z</time>
      </trkpt>
      <trkpt lat="42.7849380" lon="-8.5517500">
        <ele>107.8</ele>
        <time>2022-04-14T15:42:11Z</time>
      </trkpt>
      <trkpt lat="42.7849560" lon="-8.5517470">
        <ele>108.0</ele>
        <time>2022-04-14T15:42:12Z</time>
      </trkpt>
      <trkpt lat="42.7850280" lon="-8.5517330">
        <ele>108.7</ele>
        <time>2022-04-14T15:42:13Z</time>
      </trkpt>
      <trkpt lat="42.7850460" lon="-8.5517290">
        <ele>108.9</ele>
        <time>2022-04-14T15:42:14Z</time>
      </trkpt>
      <trkpt lat="42.7850640" lon="-8.5517250">
        <ele>109.0</ele>
        <time>2022-04-14T15:42:15Z</time>
      </trkpt>
      <trkpt lat="42.7851380" lon="-8.5517100">
        <ele>109.7</ele>
        <time>2022-04-14T15:42:16Z</time>
      </trkpt>
      <trkpt lat="42.7851570" lon="-8.5517070">
        <ele>109.8</ele>
        <time>2022-04-14T15:42:17Z</time>
      </trkpt>
      <trkpt lat="42.7851760" lon="-8.5517030">
        <ele>110.0</ele>
        <time>2022-04-14T15:42:18Z</time>
      </trkpt>
      <trkpt lat="42.7852620" lon="-8.5516880">
        <ele>110.8</ele>
        <time>2022-04-14T15:42:19Z</time>
      </trkpt>
      <trkpt lat="42.7852910" lon="-8.5516840">
        <ele>111.0</ele>
        <time>2022-04-14T15:42:20Z</time>
      </trkpt>
      <trkpt lat="42.7853200" lon="-8.5516810">
        <ele>111.3</ele>
        <time>2022-04-14T15:42:21Z</time>
      </trkpt>
      <trkpt lat="42.7853490" lon="-8.5516770">
        <ele>111.6</ele>
        <time>2022-04-14T15:42:22Z</time>
      </trkpt>
      <trkpt lat="42.7853750" lon="-8.5516730">
        <ele>111.8</ele>
        <time>2022-04-14T15:42:23Z</time>
      </trkpt>
      <trkpt lat="42.7854020" lon="-8.5516680">
        <ele>112.0</ele>
        <time>2022-04-14T15:42:24Z</time>
      </trkpt>
      <trkpt lat="42.7854870" lon="-8.5516680">
        <ele>112.8</ele>
        <time>2022-04-14T15:42:25Z</time>
      </trkpt>
      <trkpt lat="42.7855200" lon="-8.5516750">
        <ele>113.1</ele>
        <time>2022-04-14T15:42:26Z</time>
      </trkpt>
      <trkpt lat="42.7855530" lon="-8.5516830">
        <ele>113.4</ele>
        <time>2022-04-14T15:42:27Z</time>
      </trkpt>
      <trkpt lat="42.7855850" lon="-8.5516860">
        <ele>113.7</ele>
        <time>2022-04-14T15:42:28Z</time>
      </trkpt>
      <trkpt lat="42.7856170" lon="-8.5516890">
        <ele>114.0</ele>
        <time>2022-04-14T15:42:29Z</time>
      </trkpt>
      <trkpt lat="42.7856490" lon="-8.5516920">
        <ele>114.3</ele>
        <time>2022-04-14T15:42:30Z</time>
      </trkpt>
      <trkpt lat="42.7856820" lon="-8.5516930">
        <ele>114.5</ele>
        <time>2022-04-14T15:42:31Z</time>
      </trkpt>
      <trkpt lat="42.7857150" lon="-8.5516940">
        <ele>114.8</ele>
        <time>2022-04-14T15:42:32Z</time>
      </trkpt>
      <trkpt lat="42.7857480" lon="-8.5516950">
        <ele>115.1</ele>
        <time>2022-04-14T15:42:33Z</time>
      </trkpt>
      <trkpt lat="42.7857720" lon="-8.5517010">
        <ele>115.3</ele>
        <time>2022-04-14T15:42:34Z</time>
      </trkpt>
      <trkpt lat="42.7857960" lon="-8.5517070">
        <ele>115.5</ele>
        <time>2022-04-14T15:42:35Z</time>
      </trkpt>
      <trkpt lat="42.7858200" lon="-8.5517130">
        <ele>115.7</ele>
        <time>2022-04-14T15:42:36Z</time>
      </trkpt>
      <trkpt lat="42.7858450" lon="-8.5517190">
        <ele>115.9</ele>
        <time>2022-04-14T15:42:37Z</time>
      </trkpt>
      <trkpt lat="42.7858930" lon="-8.5517330">
        <ele>116.3</ele>
        <time>2022-04-14T15:42:38Z</time>
      </trkpt>
      <trkpt lat="42.7859410" lon="-8.5517470">
        <ele>116.6</ele>
        <time>2022-04-14T15:42:39Z</time>
      </trkpt>
      <trkpt lat="42.7859920" lon="-8.5517460">
        <ele>117.0</ele>
        <time>2022-04-14T15:42:40Z</time>
      </trkpt>
      <trkpt lat="42.7860440" lon="-8.5517450">
        <ele>117.4</ele>
        <time>2022-04-14T15:42:41Z</time>
      </trkpt>
      <trkpt lat="42.7860630" lon="-8.5517450">
        <ele>117.5</ele>
        <time>2022-04-14T15:42:42Z</time>
      </trkpt>
      <trkpt lat="42.7860830" lon="-8.5517450">
        <ele>117.7</ele>
        <time>2022-04-14T15:42:43Z</time>
      </trkpt>
      <trkpt lat="42.7861030" lon="-8.5517450">
        <ele>117.8</ele>
        <time>2022-04-14T15:42:44Z</time>
      </trkpt>
      <trkpt lat="42.7861940" lon="-8.5517460">
        <ele>118.4</ele>
        <time>2022-04-14T15:42:45Z</time>
      </trkpt>
      <trkpt lat="42.7862260" lon="-8.5517470">
        <ele>118.6</ele>
        <time>2022-04-14T15:42:46Z</time>
      </trkpt>
      <trkpt lat="42.7862580" lon="-8.5517490">
        <ele>118.8</ele>
        <time>2022-04-14T15:42:47Z</time>
      </trkpt>
      <trkpt lat="42.7862900" lon="-8.5517500">
        <ele>119.0</ele>
        <time>2022-04-14T15:42:48Z</time>
      </trkpt>
      <trkpt lat="42.7863220" lon="-8.5517510">
        <ele>119.2</ele>
        <time>2022-04-14T15:42:49Z</time>
      </trkpt>
      <trkpt lat="42.7863550" lon="-8.5517510">
        <ele>119.5</ele>
        <time>2022-04-14T15:42:50Z</time>
      </trkpt>
      <trkpt lat="42.7864420" lon="-8.5517540">
        <ele>120.1</ele>
        <time>2022-04-14T15:42:51Z</time>
      </trkpt>
      <trkpt lat="42.7864630" lon="-8.5517560">
        <ele>120.2</ele>
        <time>2022-04-14T15:42:52Z</time>
      </trkpt>
      <trkpt lat="42.7864850" lon="-8.5517570">
        <ele>120.3</ele>
        <time>2022-04-14T15:42:53Z</time>
      </trkpt>
      <trkpt lat="42.7865700" lon="-8.5517640">
        <ele>120.9</ele>
        <time>2022-04-14T15:42:54Z</time>
      </trkpt>
      <trkpt lat="42.7865910" lon="-8.5517670">
        <ele>121.0</ele>
        <time>2022-04-14T15:42:55Z</time>
      </trkpt>
      <trkpt lat="42.7866130" lon="-8.5517690">
        <ele>121.2</ele>
        <time>2022-04-14T15:42:56Z</time>
      </trkpt>
      <trkpt lat="42.7867100" lon="-8.5517790">
        <ele>121.8</ele>
        <time>2022-04-14T15:42:57Z</time>
      </trkpt>
      <trkpt lat="42.7867440" lon="-8.5517810">
        <ele>122.0</ele>
        <time>2022-04-14T15:42:58Z</time>
      </trkpt>
      <trkpt lat="42.7867780" lon="-8.5517840">
        <ele>122.2</ele>
        <time>2022-04-14T15:42:59Z</time>
      </trkpt>
      <trkpt lat="42.7868090" lon="-8.5517870">
        <ele>122.4</ele>
        <time>2022-04-14T15:43:00Z</time>
      </trkpt>
      <trkpt lat="42.7868410" lon="-8.5517890">
        <ele>122.6</ele>
        <time>2022-04-14T15:43:01Z</time>
      </trkpt>
      <trkpt lat="42.7869530" lon="-8.5517990">
        <ele>123.3</ele>
        <time>2022-04-14T15:43:02Z</time>
      </trkpt>
      <trkpt lat="42.7870010" lon="-8.5518030">
        <ele>123.5</ele>
        <time>2022-04-14T15:43:03Z</time>
      </trkpt>
      <trkpt lat="42.7870230" lon="-8.5518050">
        <ele>123.6</ele>
        <time>2022-04-14T15:43:04Z</time>
      </trkpt>
      <trkpt lat="42.7870450" lon="-8.5518070">
        <ele>123.6</ele>
        <time>2022-04-14T15:43:05Z</time>
      </trkpt>
      <trkpt lat="42.7870670" lon="-8.5518080">
        <ele>123.7</ele>
        <time>2022-04-14T15:43:06Z</time>
      </trkpt>
      <trkpt lat="42.7871800" lon="-8.5518150">
        <ele>124.1</ele>
        <time>2022-04-14T15:43:07Z</time>
      </trkpt>
      <trkpt lat="42.7872280" lon="-8.5518160">
        <ele>124.3</ele>
        <time>2022-04-14T15:43:08Z</time>
      </trkpt>
      <trkpt lat="42.7872600" lon="-8.5518170">
        <ele>124.4</ele>
        <time>2022-04-14T15:43:09Z</time>
      </trkpt>
      <trkpt lat="42.7872930" lon="-8.5518170">
        <ele>124.5</ele>
        <time>2022-04-14T15:43:10Z</time>
      </trkpt>
      <trkpt lat="42.7873250" lon="-8.5518180">
        <ele>124.6</ele>
        <time>2022-04-14T15:43:11Z</time>
      </trkpt>
      <trkpt lat="42.7873580" lon="-8.5518190">
        <ele>124.8</ele>
        <time>2022-04-14T15:43:12Z</time>
      </trkpt>
      <trkpt lat="42.7873890" lon="-8.5518140">
        <ele>124.9</ele>
        <time>2022-04-14T15:43:13Z</time>
      </trkpt>
      <trkpt lat="42.7874210" lon="-8.5518100">
        <ele>125.0</ele>
        <time>2022-04-14T15:43:14Z</time>
      </trkpt>
      <trkpt lat="42.7875250" lon="-8.5517750">
        <ele>125.5</ele>
        <time>2022-04-14T15:43:15Z</time>
      </trkpt>
      <trkpt lat="42.7875660" lon="-8.5517500">
        <ele>125.9</ele>
        <time>2022-04-14T15:43:16Z</time>
      </trkpt>
      <trkpt lat="42.7876080" lon="-8.5517140">
        <ele>126.1</ele>
        <time>2022-04-14T15:43:17Z</time>
      </trkpt>
      <trkpt lat="42.7876500" lon="-8.5516790">
        <ele>126.2</ele>
        <time>2022-04-14T15:43:18Z</time>
      </trkpt>
      <trkpt lat="42.7876800" lon="-8.5516610">
        <ele>126.4</ele>
        <time>2022-04-14T15:43:19Z</time>
      </trkpt>
      <trkpt lat="42.7877100" lon="-8.5516430">
        <ele>126.5</ele>
        <time>2022-04-14T15:43:20Z</time>
      </trkpt>
      <trkpt lat="42.7877390" lon="-8.5516260">
        <ele>126.6</ele>
        <time>2022-04-14T15:43:21Z</time>
      </trkpt>
      <trkpt lat="42.7878360" lon="-8.5516030">
        <ele>127.0</ele>
        <time>2022-04-14T15:43:22Z</time>
      </trkpt>
      <trkpt lat="42.7878810" lon="-8.5516120">
        <ele>127.2</ele>
        <time>2022-04-14T15:43:23Z</time>
      </trkpt>
      <trkpt lat="42.7879250" lon="-8.5516220">
        <ele>127.4</ele>
        <time>2022-04-14T15:43:24Z</time>
      </trkpt>
      <trkpt lat="42.7879700" lon="-8.5516440">
        <ele>127.6</ele>
        <time>2022-04-14T15:43:25Z</time>
      </trkpt>
      <trkpt lat="42.7880160" lon="-8.5516660">
        <ele>127.8</ele>
        <time>2022-04-14T15:43:26Z</time>
      </trkpt>
      <trkpt lat="42.7880340" lon="-8.5516810">
        <ele>127.9</ele>
        <time>2022-04-14T15:43:27Z</time>
      </trkpt>
      <trkpt lat="42.7880520" lon="-8.5516960">
        <ele>128.1</ele>
        <time>2022-04-14T15:43:28Z</time>
      </trkpt>
      <trkpt lat="42.7880700" lon="-8.5517110">
        <ele>128.3</ele>
        <time>2022-04-14T15:43:29Z</time>
      </trkpt>
      <trkpt lat="42.7881680" lon="-8.5517690">
        <ele>129.1</ele>
        <time>2022-04-14T15:43:30Z</time>
      </trkpt>
      <trkpt lat="42.7882120" lon="-8.5517830">
        <ele>129.4</ele>
        <time>2022-04-14T15:43:31Z</time>
      </trkpt>
      <trkpt lat="42.7882560" lon="-8.5517970">
        <ele>129.8</ele>
        <time>2022-04-14T15:43:32Z</time>
      </trkpt>
      <trkpt lat="42.7883000" lon="-8.5518100">
        <ele>130.2</ele>
        <time>2022-04-14T15:43:33Z</time>
      </trkpt>
      <trkpt lat="42.7883470" lon="-8.5518080">
        <ele>130.5</ele>
        <time>2022-04-14T15:43:34Z</time>
      </trkpt>
      <trkpt lat="42.7883920" lon="-8.5517980">
        <ele>130.9</ele>
        <time>2022-04-14T15:43:35Z</time>
      </trkpt>
      <trkpt lat="42.7884370" lon="-8.5517890">
        <ele>131.1</ele>
        <time>2022-04-14T15:43:36Z</time>
      </trkpt>
      <trkpt lat="42.7884620" lon="-8.5517800">
        <ele>131.2</ele>
        <time>2022-04-14T15:43:37Z</time>
      </trkpt>
      <trkpt lat="42.7884870" lon="-8.5517720">
        <ele>131.3</ele>
        <time>2022-04-14T15:43:38Z</time>
      </trkpt>
      <trkpt lat="42.7885880" lon="-8.5517350">
        <ele>131.6</ele>
        <time>2022-04-14T15:43:39Z</time>
      </trkpt>
      <trkpt lat="42.7886380" lon="-8.5517160">
        <ele>131.7</ele>
        <time>2022-04-14T15:43:40Z</time>
      </trkpt>
      <trkpt lat="42.7886690" lon="-8.5517060">
        <ele>131.8</ele>
        <time>2022-04-14T15:43:41Z</time>
      </trkpt>
      <trkpt lat="42.7886990" lon="-8.5516960">
        <ele>131.9</ele>
        <time>2022-04-14T15:43:42Z</time>
      </trkpt>
      <trkpt lat="42.7887300" lon="-8.5516860">
        <ele>132.0</ele>
        <time>2022-04-14T15:43:43Z</time>
      </trkpt>
      <trkpt lat="42.7887620" lon="-8.5516720">
        <ele>132.0</ele>
        <time>2022-04-14T15:43:44Z</time>
      </trkpt>
      <trkpt lat="42.7887940" lon="-8.5516570">
        <ele>132.1</ele>
        <time>2022-04-14T15:43:45Z</time>
      </trkpt>
      <trkpt lat="42.7889010" lon="-8.5516060">
        <ele>132.4</ele>
        <time>2022-04-14T15:43:46Z</time>
      </trkpt>
      <trkpt lat="42.7889430" lon="-8.5515830">
        <ele>132.5</ele>
        <time>2022-04-14T15:43:47Z</time>
      </trkpt>
      <trkpt lat="42.7889870" lon="-8.5515690">
        <ele>132.6</ele>
        <time>2022-04-14T15:43:48Z</time>
      </trkpt>
      <trkpt lat="42.7890300" lon="-8.5515550">
        <ele>132.7</ele>
        <time>2022-04-14T15:43:49Z</time>
      </trkpt>
      <trkpt lat="42.7890770" lon="-8.5515340">
        <ele>132.7</ele>
        <time>2022-04-14T15:43:50Z</time>
      </trkpt>
      <trkpt lat="42.7891250" lon="-8.5515140">
        <ele>132.8</ele>
        <time>2022-04-14T15:43:51Z</time>
      </trkpt>
      <trkpt lat="42.7891780" lon="-8.5514890">
        <ele>132.9</ele>
        <time>2022-04-14T15:43:52Z</time>
      </trkpt>
      <trkpt lat="42.7892310" lon="-8.5514650">
        <ele>133.0</ele>
        <time>2022-04-14T15:43:53Z</time>
      </trkpt>
      <trkpt lat="42.7892840" lon="-8.5514400">
        <ele>133.1</ele>
        <time>2022-04-14T15:43:54Z</time>
      </trkpt>
      <trkpt lat="42.7893430" lon="-8.5514130">
        <ele>133.2</ele>
        <time>2022-04-14T15:43:55Z</time>
      </trkpt>
      <trkpt lat="42.7893720" lon="-8.5513930">
        <ele>133.3</ele>
        <time>2022-04-14T15:43:56Z</time>
      </trkpt>
      <trkpt lat="42.7894020" lon="-8.5513730">
        <ele>133.4</ele>
        <time>2022-04-14T15:43:57Z</time>
      </trkpt>
      <trkpt lat="42.7894960" lon="-8.5513100">
        <ele>133.6</ele>
        <time>2022-04-14T15:43:58Z</time>
      </trkpt>
      <trkpt lat="42.7895310" lon="-8.5512860">
        <ele>133.7</ele>
        <time>2022-04-14T15:43:59Z</time>
      </trkpt>
      <trkpt lat="42.7896730" lon="-8.5512030">
        <ele>134.0</ele>
        <time>2022-04-14T15:44:00Z</time>
      </trkpt>
      <trkpt lat="42.7897440" lon="-8.5511680">
        <ele>134.2</ele>
        <time>2022-04-14T15:44:01Z</time>
      </trkpt>
      <trkpt lat="42.7898150" lon="-8.5511340">
        <ele>134.4</ele>
        <time>2022-04-14T15:44:02Z</time>
      </trkpt>
      <trkpt lat="42.7898830" lon="-8.5511010">
        <ele>134.7</ele>
        <time>2022-04-14T15:44:03Z</time>
      </trkpt>
      <trkpt lat="42.7899160" lon="-8.5510860">
        <ele>134.8</ele>
        <time>2022-04-14T15:44:04Z</time>
      </trkpt>
      <trkpt lat="42.7899480" lon="-8.5510700">
        <ele>134.9</ele>
        <time>2022-04-14T15:44:05Z</time>
      </trkpt>
      <trkpt lat="42.7900730" lon="-8.5510080">
        <ele>135.4</ele>
        <time>2022-04-14T15:44:06Z</time>
      </trkpt>
      <trkpt lat="42.7901320" lon="-8.5509770">
        <ele>135.6</ele>
        <time>2022-04-14T15:44:07Z</time>
      </trkpt>
      <trkpt lat="42.7901920" lon="-8.5509470">
        <ele>135.9</ele>
        <time>2022-04-14T15:44:08Z</time>
      </trkpt>
      <trkpt lat="42.7902500" lon="-8.5509180">
        <ele>136.1</ele>
        <time>2022-04-14T15:44:09Z</time>
      </trkpt>
      <trkpt lat="42.7902800" lon="-8.5509050">
        <ele>136.3</ele>
        <time>2022-04-14T15:44:10Z</time>
      </trkpt>
      <trkpt lat="42.7903090" lon="-8.5508910">
        <ele>136.4</ele>
        <time>2022-04-14T15:44:11Z</time>
      </trkpt>
      <trkpt lat="42.7903970" lon="-8.5508500">
        <ele>136.8</ele>
        <time>2022-04-14T15:44:12Z</time>
      </trkpt>
      <trkpt lat="42.7904250" lon="-8.5508350">
        <ele>136.9</ele>
        <time>2022-04-14T15:44:13Z</time>
      </trkpt>
      <trkpt lat="42.7905390" lon="-8.5507790">
        <ele>137.4</ele>
        <time>2022-04-14T15:44:14Z</time>
      </trkpt>
      <trkpt lat="42.7905960" lon="-8.5507520">
        <ele>137.6</ele>
        <time>2022-04-14T15:44:15Z</time>
      </trkpt>
      <trkpt lat="42.7906540" lon="-8.5507240">
        <ele>137.9</ele>
        <time>2022-04-14T15:44:16Z</time>
      </trkpt>
      <trkpt lat="42.7907110" lon="-8.5506910">
        <ele>138.1</ele>
        <time>2022-04-14T15:44:17Z</time>
      </trkpt>
      <trkpt lat="42.7907380" lon="-8.5506770">
        <ele>138.2</ele>
        <time>2022-04-14T15:44:18Z</time>
      </trkpt>
      <trkpt lat="42.7907660" lon="-8.5506630">
        <ele>138.4</ele>
        <time>2022-04-14T15:44:19Z</time>
      </trkpt>
      <trkpt lat="42.7908480" lon="-8.5506190">
        <ele>138.8</ele>
        <time>2022-04-14T15:44:20Z</time>
      </trkpt>
      <trkpt lat="42.7908760" lon="-8.5506040">
        <ele>138.9</ele>
        <time>2022-04-14T15:44:21Z</time>
      </trkpt>
      <trkpt lat="42.7909650" lon="-8.5505560">
        <ele>139.5</ele>
        <time>2022-04-14T15:44:22Z</time>
      </trkpt>
      <trkpt lat="42.7909990" lon="-8.5505380">
        <ele>139.6</ele>
        <time>2022-04-14T15:44:23Z</time>
      </trkpt>
      <trkpt lat="42.7910320" lon="-8.5505190">
        <ele>139.7</ele>
        <time>2022-04-14T15:44:24Z</time>
      </trkpt>
      <trkpt lat="42.7911360" lon="-8.5504510">
        <ele>139.9</ele>
        <time>2022-04-14T15:44:25Z</time>
      </trkpt>
      <trkpt lat="42.7911630" lon="-8.5504320">
        <ele>140.0</ele>
        <time>2022-04-14T15:44:26Z</time>
      </trkpt>
      <trkpt lat="42.7911890" lon="-8.5504130">
        <ele>140.0</ele>
        <time>2022-04-14T15:44:27Z</time>
      </trkpt>
      <trkpt lat="42.7912690" lon="-8.5503560">
        <ele>140.2</ele>
        <time>2022-04-14T15:44:28Z</time>
      </trkpt>
      <trkpt lat="42.7912960" lon="-8.5503360">
        <ele>140.3</ele>
        <time>2022-04-14T15:44:29Z</time>
      </trkpt>
      <trkpt lat="42.7913780" lon="-8.5502850">
        <ele>140.6</ele>
        <time>2022-04-14T15:44:30Z</time>
      </trkpt>
      <trkpt lat="42.7914070" lon="-8.5502720">
        <ele>140.7</ele>
        <time>2022-04-14T15:44:31Z</time>
      </trkpt>
      <trkpt lat="42.7915270" lon="-8.5502360">
        <ele>141.2</ele>
        <time>2022-04-14T15:44:32Z</time>
      </trkpt>
      <trkpt lat="42.7915900" lon="-8.5502250">
        <ele>141.6</ele>
        <time>2022-04-14T15:44:33Z</time>
      </trkpt>
      <trkpt lat="42.7916530" lon="-8.5502140">
        <ele>142.1</ele>
        <time>2022-04-14T15:44:34Z</time>
      </trkpt>
      <trkpt lat="42.7917150" lon="-8.5501990">
        <ele>142.5</ele>
        <time>2022-04-14T15:44:35Z</time>
      </trkpt>
      <trkpt lat="42.7917440" lon="-8.5501850">
        <ele>142.7</ele>
        <time>2022-04-14T15:44:36Z</time>
      </trkpt>
      <trkpt lat="42.7917730" lon="-8.5501710">
        <ele>142.8</ele>
        <time>2022-04-14T15:44:37Z</time>
      </trkpt>
      <trkpt lat="42.7918900" lon="-8.5501120">
        <ele>143.2</ele>
        <time>2022-04-14T15:44:38Z</time>
      </trkpt>
      <trkpt lat="42.7919500" lon="-8.5500830">
        <ele>143.5</ele>
        <time>2022-04-14T15:44:39Z</time>
      </trkpt>
      <trkpt lat="42.7920110" lon="-8.5500530">
        <ele>143.7</ele>
        <time>2022-04-14T15:44:40Z</time>
      </trkpt>
      <trkpt lat="42.7921040" lon="-8.5500070">
        <ele>144.0</ele>
        <time>2022-04-14T15:44:41Z</time>
      </trkpt>
      <trkpt lat="42.7921350" lon="-8.5499920">
        <ele>144.1</ele>
        <time>2022-04-14T15:44:42Z</time>
      </trkpt>
      <trkpt lat="42.7921980" lon="-8.5499610">
        <ele>144.3</ele>
        <time>2022-04-14T15:44:43Z</time>
      </trkpt>
      <trkpt lat="42.7922300" lon="-8.5499470">
        <ele>144.4</ele>
        <time>2022-04-14T15:44:44Z</time>
      </trkpt>
      <trkpt lat="42.7922620" lon="-8.5499320">
        <ele>144.5</ele>
        <time>2022-04-14T15:44:45Z</time>
      </trkpt>
      <trkpt lat="42.7923910" lon="-8.5498720">
        <ele>145.0</ele>
        <time>2022-04-14T15:44:46Z</time>
      </trkpt>
      <trkpt lat="42.7924560" lon="-8.5498410">
        <ele>145.2</ele>
        <time>2022-04-14T15:44:47Z</time>
      </trkpt>
      <trkpt lat="42.7925220" lon="-8.5498110">
        <ele>145.5</ele>
        <time>2022-04-14T15:44:48Z</time>
      </trkpt>
      <trkpt lat="42.7925880" lon="-8.5497800">
        <ele>145.5</ele>
        <time>2022-04-14T15:44:49Z</time>
      </trkpt>
      <trkpt lat="42.7926210" lon="-8.5497650">
        <ele>145.5</ele>
        <time>2022-04-14T15:44:50Z</time>
      </trkpt>
      <trkpt lat="42.7926550" lon="-8.5497500">
        <ele>145.5</ele>
        <time>2022-04-14T15:44:51Z</time>
      </trkpt>
      <trkpt lat="42.7927550" lon="-8.5497020">
        <ele>145.6</ele>
        <time>2022-04-14T15:44:52Z</time>
      </trkpt>
      <trkpt lat="42.7927890" lon="-8.5496850">
        <ele>145.6</ele>
        <time>2022-04-14T15:44:53Z</time>
      </trkpt>
      <trkpt lat="42.7929220" lon="-8.5496180">
        <ele>145.7</ele>
        <time>2022-04-14T15:44:54Z</time>
      </trkpt>
      <trkpt lat="42.7929890" lon="-8.5495850">
        <ele>145.9</ele>
        <time>2022-04-14T15:44:55Z</time>
      </trkpt>
      <trkpt lat="42.7930550" lon="-8.5495520">
        <ele>146.1</ele>
        <time>2022-04-14T15:44:56Z</time>
      </trkpt>
      <trkpt lat="42.7931220" lon="-8.5495180">
        <ele>146.4</ele>
        <time>2022-04-14T15:44:57Z</time>
      </trkpt>
      <trkpt lat="42.7931900" lon="-8.5494890">
        <ele>146.6</ele>
        <time>2022-04-14T15:44:58Z</time>
      </trkpt>
      <trkpt lat="42.7932570" lon="-8.5494590">
        <ele>146.9</ele>
        <time>2022-04-14T15:44:59Z</time>
      </trkpt>
      <trkpt lat="42.7933250" lon="-8.5494300">
        <ele>147.1</ele>
        <time>2022-04-14T15:45:00Z</time>
      </trkpt>
      <trkpt lat="42.7934240" lon="-8.5493850">
        <ele>147.6</ele>
        <time>2022-04-14T15:45:01Z</time>
      </trkpt>
      <trkpt lat="42.7934570" lon="-8.5493690">
        <ele>147.7</ele>
        <time>2022-04-14T15:45:02Z</time>
      </trkpt>
      <trkpt lat="42.7935250" lon="-8.5493370">
        <ele>148.1</ele>
        <time>2022-04-14T15:45:03Z</time>
      </trkpt>
      <trkpt lat="42.7935570" lon="-8.5493220">
        <ele>148.2</ele>
        <time>2022-04-14T15:45:04Z</time>
      </trkpt>
      <trkpt lat="42.7935890" lon="-8.5493070">
        <ele>148.4</ele>
        <time>2022-04-14T15:45:05Z</time>
      </trkpt>
      <trkpt lat="42.7936830" lon="-8.5492600">
        <ele>148.9</ele>
        <time>2022-04-14T15:45:06Z</time>
      </trkpt>
      <trkpt lat="42.7937140" lon="-8.5492410">
        <ele>149.0</ele>
        <time>2022-04-14T15:45:07Z</time>
      </trkpt>
      <trkpt lat="42.7938420" lon="-8.5491730">
        <ele>149.7</ele>
        <time>2022-04-14T15:45:08Z</time>
      </trkpt>
      <trkpt lat="42.7939070" lon="-8.5491410">
        <ele>150.0</ele>
        <time>2022-04-14T15:45:09Z</time>
      </trkpt>
      <trkpt lat="42.7939710" lon="-8.5491090">
        <ele>150.4</ele>
        <time>2022-04-14T15:45:10Z</time>
      </trkpt>
      <trkpt lat="42.7940370" lon="-8.5490750">
        <ele>150.7</ele>
        <time>2022-04-14T15:45:11Z</time>
      </trkpt>
      <trkpt lat="42.7940680" lon="-8.5490580">
        <ele>150.9</ele>
        <time>2022-04-14T15:45:12Z</time>
      </trkpt>
      <trkpt lat="42.7941000" lon="-8.5490410">
        <ele>151.1</ele>
        <time>2022-04-14T15:45:13Z</time>
      </trkpt>
      <trkpt lat="42.7941930" lon="-8.5489880">
        <ele>151.6</ele>
        <time>2022-04-14T15:45:14Z</time>
      </trkpt>
      <trkpt lat="42.7942240" lon="-8.5489690">
        <ele>151.7</ele>
        <time>2022-04-14T15:45:15Z</time>
      </trkpt>
      <trkpt lat="42.7943480" lon="-8.5488970">
        <ele>152.4</ele>
        <time>2022-04-14T15:45:16Z</time>
      </trkpt>
      <trkpt lat="42.7944100" lon="-8.5488620">
        <ele>152.6</ele>
        <time>2022-04-14T15:45:17Z</time>
      </trkpt>
      <trkpt lat="42.7944710" lon="-8.5488270">
        <ele>152.9</ele>
        <time>2022-04-14T15:45:18Z</time>
      </trkpt>
      <trkpt lat="42.7945340" lon="-8.5487930">
        <ele>153.2</ele>
        <time>2022-04-14T15:45:19Z</time>
      </trkpt>
      <trkpt lat="42.7945630" lon="-8.5487750">
        <ele>153.3</ele>
        <time>2022-04-14T15:45:20Z</time>
      </trkpt>
      <trkpt lat="42.7945920" lon="-8.5487570">
        <ele>153.4</ele>
        <time>2022-04-14T15:45:21Z</time>
      </trkpt>
      <trkpt lat="42.7947100" lon="-8.5486850">
        <ele>153.6</ele>
        <time>2022-04-14T15:45:22Z</time>
      </trkpt>
      <trkpt lat="42.7947710" lon="-8.5486480">
        <ele>153.7</ele>
        <time>2022-04-14T15:45:23Z</time>
      </trkpt>
      <trkpt lat="42.7948330" lon="-8.5486110">
        <ele>153.8</ele>
        <time>2022-04-14T15:45:24Z</time>
      </trkpt>
      <trkpt lat="42.7948950" lon="-8.5485730">
        <ele>153.9</ele>
        <time>2022-04-14T15:45:25Z</time>
      </trkpt>
      <trkpt lat="42.7949280" lon="-8.5485600">
        <ele>153.9</ele>
        <time>2022-04-14T15:45:26Z</time>
      </trkpt>
      <trkpt lat="42.7949600" lon="-8.5485480">
        <ele>153.9</ele>
        <time>2022-04-14T15:45:27Z</time>
      </trkpt>
      <trkpt lat="42.7950560" lon="-8.5485090">
        <ele>153.9</ele>
        <time>2022-04-14T15:45:28Z</time>
      </trkpt>
      <trkpt lat="42.7950870" lon="-8.5484960">
        <ele>153.8</ele>
        <time>2022-04-14T15:45:29Z</time>
      </trkpt>
      <trkpt lat="42.7952260" lon="-8.5484500">
        <ele>153.7</ele>
        <time>2022-04-14T15:45:30Z</time>
      </trkpt>
      <trkpt lat="42.7953030" lon="-8.5484300">
        <ele>153.5</ele>
        <time>2022-04-14T15:45:31Z</time>
      </trkpt>
      <trkpt lat="42.7953800" lon="-8.5484110">
        <ele>153.3</ele>
        <time>2022-04-14T15:45:32Z</time>
      </trkpt>
      <trkpt lat="42.7954600" lon="-8.5483980">
        <ele>153.1</ele>
        <time>2022-04-14T15:45:33Z</time>
      </trkpt>
      <trkpt lat="42.7955230" lon="-8.5483970">
        <ele>152.8</ele>
        <time>2022-04-14T15:45:34Z</time>
      </trkpt>
      <trkpt lat="42.7955860" lon="-8.5483950">
        <ele>152.5</ele>
        <time>2022-04-14T15:45:35Z</time>
      </trkpt>
      <trkpt lat="42.7957120" lon="-8.5483920">
        <ele>151.9</ele>
        <time>2022-04-14T15:45:36Z</time>
      </trkpt>
      <trkpt lat="42.7957120" lon="-8.5483920">
        <ele>151.9</ele>
        <time>2022-04-14T15:45:37Z</time>
      </trkpt>
      <trkpt lat="42.7959340" lon="-8.5484150">
        <ele>150.7</ele>
        <time>2022-04-14T15:45:38Z</time>
      </trkpt>
      <trkpt lat="42.7959780" lon="-8.5484180">
        <ele>150.5</ele>
        <time>2022-04-14T15:45:39Z</time>
      </trkpt>
      <trkpt lat="42.7960670" lon="-8.5484230">
        <ele>150.0</ele>
        <time>2022-04-14T15:45:40Z</time>
      </trkpt>
      <trkpt lat="42.7961680" lon="-8.5484270">
        <ele>149.5</ele>
        <time>2022-04-14T15:45:41Z</time>
      </trkpt>
      <trkpt lat="42.7963230" lon="-8.5484390">
        <ele>148.7</ele>
        <time>2022-04-14T15:45:42Z</time>
      </trkpt>
      <trkpt lat="42.7963740" lon="-8.5484430">
        <ele>148.5</ele>
        <time>2022-04-14T15:45:43Z</time>
      </trkpt>
      <trkpt lat="42.7964760" lon="-8.5484520">
        <ele>148.0</ele>
        <time>2022-04-14T15:45:44Z</time>
      </trkpt>
      <trkpt lat="42.7965750" lon="-8.5484650">
        <ele>147.5</ele>
        <time>2022-04-14T15:45:45Z</time>
      </trkpt>
      <trkpt lat="42.7966710" lon="-8.5484770">
        <ele>147.0</ele>
        <time>2022-04-14T15:45:46Z</time>
      </trkpt>
      <trkpt lat="42.7968120" lon="-8.5484910">
        <ele>146.4</ele>
        <time>2022-04-14T15:45:47Z</time>
      </trkpt>
      <trkpt lat="42.7968590" lon="-8.5484950">
        <ele>146.2</ele>
        <time>2022-04-14T15:45:48Z</time>
      </trkpt>
      <trkpt lat="42.7969530" lon="-8.5485020">
        <ele>145.8</ele>
        <time>2022-04-14T15:45:49Z</time>
      </trkpt>
      <trkpt lat="42.7970180" lon="-8.5485110">
        <ele>145.5</ele>
        <time>2022-04-14T15:45:50Z</time>
      </trkpt>
      <trkpt lat="42.7970820" lon="-8.5485200">
        <ele>145.2</ele>
        <time>2022-04-14T15:45:51Z</time>
      </trkpt>
      <trkpt lat="42.7972110" lon="-8.5485390">
        <ele>144.7</ele>
        <time>2022-04-14T15:45:52Z</time>
      </trkpt>
      <trkpt lat="42.7973280" lon="-8.5485530">
        <ele>144.4</ele>
        <time>2022-04-14T15:45:53Z</time>
      </trkpt>
      <trkpt lat="42.7973520" lon="-8.5485550">
        <ele>144.3</ele>
        <time>2022-04-14T15:45:54Z</time>
      </trkpt>
      <trkpt lat="42.7974730" lon="-8.5485590">
        <ele>143.9</ele>
        <time>2022-04-14T15:45:55Z</time>
      </trkpt>
      <trkpt lat="42.7975440" lon="-8.5485590">
        <ele>143.7</ele>
        <time>2022-04-14T15:45:56Z</time>
      </trkpt>
      <trkpt lat="42.7976870" lon="-8.5485600">
        <ele>143.7</ele>
        <time>2022-04-14T15:45:57Z</time>
      </trkpt>
      <trkpt lat="42.7978330" lon="-8.5485450">
        <ele>144.0</ele>
        <time>2022-04-14T15:45:58Z</time>
      </trkpt>
      <trkpt lat="42.7978840" lon="-8.5485400">
        <ele>144.1</ele>
        <time>2022-04-14T15:45:59Z</time>
      </trkpt>
      <trkpt lat="42.7979850" lon="-8.5485310">
        <ele>144.3</ele>
        <time>2022-04-14T15:46:00Z</time>
      </trkpt>
      <trkpt lat="42.7980830" lon="-8.5485470">
        <ele>143.9</ele>
        <time>2022-04-14T15:46:01Z</time>
      </trkpt>
      <trkpt lat="42.7981820" lon="-8.5485780">
        <ele>143.3</ele>
        <time>2022-04-14T15:46:02Z</time>
      </trkpt>
      <trkpt lat="42.7983270" lon="-8.5486270">
        <ele>141.6</ele>
        <time>2022-04-14T15:46:03Z</time>
      </trkpt>
      <trkpt lat="42.7983790" lon="-8.5486400">
        <ele>140.9</ele>
        <time>2022-04-14T15:46:04Z</time>
      </trkpt>
      <trkpt lat="42.7984810" lon="-8.5486670">
        <ele>139.7</ele>
        <time>2022-04-14T15:46:05Z</time>
      </trkpt>
      <trkpt lat="42.7985830" lon="-8.5486810">
        <ele>139.2</ele>
        <time>2022-04-14T15:46:06Z</time>
      </trkpt>
      <trkpt lat="42.7986920" lon="-8.5486910">
        <ele>138.9</ele>
        <time>2022-04-14T15:46:07Z</time>
      </trkpt>
      <trkpt lat="42.7988650" lon="-8.5487070">
        <ele>138.5</ele>
        <time>2022-04-14T15:46:08Z</time>
      </trkpt>
      <trkpt lat="42.7989220" lon="-8.5487120">
        <ele>138.3</ele>
        <time>2022-04-14T15:46:09Z</time>
      </trkpt>
      <trkpt lat="42.7990350" lon="-8.5487220">
        <ele>138.0</ele>
        <time>2022-04-14T15:46:10Z</time>
      </trkpt>
      <trkpt lat="42.7991500" lon="-8.5487310">
        <ele>137.7</ele>
        <time>2022-04-14T15:46:11Z</time>
      </trkpt>
      <trkpt lat="42.7993230" lon="-8.5487450">
        <ele>137.4</ele>
        <time>2022-04-14T15:46:12Z</time>
      </trkpt>
      <trkpt lat="42.7993810" lon="-8.5487500">
        <ele>137.3</ele>
        <time>2022-04-14T15:46:13Z</time>
      </trkpt>
      <trkpt lat="42.7995530" lon="-8.5487590">
        <ele>137.2</ele>
        <time>2022-04-14T15:46:14Z</time>
      </trkpt>
      <trkpt lat="42.7996090" lon="-8.5487580">
        <ele>137.2</ele>
        <time>2022-04-14T15:46:15Z</time>
      </trkpt>
      <trkpt lat="42.7997710" lon="-8.5487470">
        <ele>137.0</ele>
        <time>2022-04-14T15:46:16Z</time>
      </trkpt>
      <trkpt lat="42.7998210" lon="-8.5487390">
        <ele>136.9</ele>
        <time>2022-04-14T15:46:17Z</time>
      </trkpt>
      <trkpt lat="42.7999210" lon="-8.5487220">
        <ele>136.9</ele>
        <time>2022-04-14T15:46:18Z</time>
      </trkpt>
      <trkpt lat="42.8000200" lon="-8.5486880">
        <ele>136.9</ele>
        <time>2022-04-14T15:46:19Z</time>
      </trkpt>
      <trkpt lat="42.8001130" lon="-8.5486470">
        <ele>137.0</ele>
        <time>2022-04-14T15:46:20Z</time>
      </trkpt>
      <trkpt lat="42.8002030" lon="-8.5486100">
        <ele>137.1</ele>
        <time>2022-04-14T15:46:21Z</time>
      </trkpt>
      <trkpt lat="42.8002920" lon="-8.5485730">
        <ele>137.3</ele>
        <time>2022-04-14T15:46:22Z</time>
      </trkpt>
      <trkpt lat="42.8003820" lon="-8.5485360">
        <ele>137.6</ele>
        <time>2022-04-14T15:46:23Z</time>
      </trkpt>
      <trkpt lat="42.8004720" lon="-8.5484950">
        <ele>137.8</ele>
        <time>2022-04-14T15:46:24Z</time>
      </trkpt>
      <trkpt lat="42.8005110" lon="-8.5484770">
        <ele>138.0</ele>
        <time>2022-04-14T15:46:25Z</time>
      </trkpt>
      <trkpt lat="42.8005510" lon="-8.5484600">
        <ele>138.1</ele>
        <time>2022-04-14T15:46:26Z</time>
      </trkpt>
      <trkpt lat="42.8007090" lon="-8.5483850">
        <ele>139.0</ele>
        <time>2022-04-14T15:46:27Z</time>
      </trkpt>
      <trkpt lat="42.8007900" lon="-8.5483430">
        <ele>139.4</ele>
        <time>2022-04-14T15:46:28Z</time>
      </trkpt>
      <trkpt lat="42.8008700" lon="-8.5483020">
        <ele>139.9</ele>
        <time>2022-04-14T15:46:29Z</time>
      </trkpt>
      <trkpt lat="42.8009450" lon="-8.5482650">
        <ele>140.4</ele>
        <time>2022-04-14T15:46:30Z</time>
      </trkpt>
      <trkpt lat="42.8009830" lon="-8.5482460">
        <ele>140.7</ele>
        <time>2022-04-14T15:46:31Z</time>
      </trkpt>
      <trkpt lat="42.8010210" lon="-8.5482280">
        <ele>140.9</ele>
        <time>2022-04-14T15:46:32Z</time>
      </trkpt>
      <trkpt lat="42.8011690" lon="-8.5481540">
        <ele>141.9</ele>
        <time>2022-04-14T15:46:33Z</time>
      </trkpt>
      <trkpt lat="42.8012410" lon="-8.5481170">
        <ele>142.3</ele>
        <time>2022-04-14T15:46:34Z</time>
      </trkpt>
      <trkpt lat="42.8013130" lon="-8.5480790">
        <ele>142.8</ele>
        <time>2022-04-14T15:46:35Z</time>
      </trkpt>
      <trkpt lat="42.8013850" lon="-8.5480430">
        <ele>143.2</ele>
        <time>2022-04-14T15:46:36Z</time>
      </trkpt>
      <trkpt lat="42.8014200" lon="-8.5480260">
        <ele>143.4</ele>
        <time>2022-04-14T15:46:37Z</time>
      </trkpt>
      <trkpt lat="42.8014550" lon="-8.5480090">
        <ele>143.6</ele>
        <time>2022-04-14T15:46:38Z</time>
      </trkpt>
      <trkpt lat="42.8015900" lon="-8.5479420">
        <ele>144.3</ele>
        <time>2022-04-14T15:46:39Z</time>
      </trkpt>
      <trkpt lat="42.8016560" lon="-8.5479090">
        <ele>144.7</ele>
        <time>2022-04-14T15:46:40Z</time>
      </trkpt>
      <trkpt lat="42.8017220" lon="-8.5478760">
        <ele>145.0</ele>
        <time>2022-04-14T15:46:41Z</time>
      </trkpt>
      <trkpt lat="42.8017850" lon="-8.5478420">
        <ele>145.4</ele>
        <time>2022-04-14T15:46:42Z</time>
      </trkpt>
      <trkpt lat="42.8018150" lon="-8.5478270">
        <ele>145.5</ele>
        <time>2022-04-14T15:46:43Z</time>
      </trkpt>
      <trkpt lat="42.8018460" lon="-8.5478130">
        <ele>145.7</ele>
        <time>2022-04-14T15:46:44Z</time>
      </trkpt>
      <trkpt lat="42.8019350" lon="-8.5477720">
        <ele>146.2</ele>
        <time>2022-04-14T15:46:45Z</time>
      </trkpt>
      <trkpt lat="42.8019640" lon="-8.5477600">
        <ele>146.3</ele>
        <time>2022-04-14T15:46:46Z</time>
      </trkpt>
      <trkpt lat="42.8020800" lon="-8.5477090">
        <ele>146.9</ele>
        <time>2022-04-14T15:46:47Z</time>
      </trkpt>
      <trkpt lat="42.8021360" lon="-8.5476830">
        <ele>147.2</ele>
        <time>2022-04-14T15:46:48Z</time>
      </trkpt>
      <trkpt lat="42.8021930" lon="-8.5476570">
        <ele>147.5</ele>
        <time>2022-04-14T15:46:49Z</time>
      </trkpt>
      <trkpt lat="42.8022440" lon="-8.5476350">
        <ele>147.7</ele>
        <time>2022-04-14T15:46:50Z</time>
      </trkpt>
      <trkpt lat="42.8022730" lon="-8.5476190">
        <ele>147.8</ele>
        <time>2022-04-14T15:46:51Z</time>
      </trkpt>
      <trkpt lat="42.8023020" lon="-8.5476030">
        <ele>148.0</ele>
        <time>2022-04-14T15:46:52Z</time>
      </trkpt>
      <trkpt lat="42.8023310" lon="-8.5475880">
        <ele>148.1</ele>
        <time>2022-04-14T15:46:53Z</time>
      </trkpt>
      <trkpt lat="42.8024490" lon="-8.5475290">
        <ele>148.6</ele>
        <time>2022-04-14T15:46:54Z</time>
      </trkpt>
      <trkpt lat="42.8024790" lon="-8.5475170">
        <ele>148.8</ele>
        <time>2022-04-14T15:46:55Z</time>
      </trkpt>
      <trkpt lat="42.8026090" lon="-8.5474650">
        <ele>149.3</ele>
        <time>2022-04-14T15:46:56Z</time>
      </trkpt>
      <trkpt lat="42.8026760" lon="-8.5474370">
        <ele>149.6</ele>
        <time>2022-04-14T15:46:57Z</time>
      </trkpt>
      <trkpt lat="42.8027440" lon="-8.5474100">
        <ele>149.9</ele>
        <time>2022-04-14T15:46:58Z</time>
      </trkpt>
      <trkpt lat="42.8028090" lon="-8.5473800">
        <ele>150.2</ele>
        <time>2022-04-14T15:46:59Z</time>
      </trkpt>
      <trkpt lat="42.8028390" lon="-8.5473660">
        <ele>150.3</ele>
        <time>2022-04-14T15:47:00Z</time>
      </trkpt>
      <trkpt lat="42.8028690" lon="-8.5473530">
        <ele>150.5</ele>
        <time>2022-04-14T15:47:01Z</time>
      </trkpt>
      <trkpt lat="42.8029870" lon="-8.5472980">
        <ele>151.0</ele>
        <time>2022-04-14T15:47:02Z</time>
      </trkpt>
      <trkpt lat="42.8030440" lon="-8.5472710">
        <ele>151.3</ele>
        <time>2022-04-14T15:47:03Z</time>
      </trkpt>
      <trkpt lat="42.8031020" lon="-8.5472440">
        <ele>151.5</ele>
        <time>2022-04-14T15:47:04Z</time>
      </trkpt>
      <trkpt lat="42.8031600" lon="-8.5472170">
        <ele>151.8</ele>
        <time>2022-04-14T15:47:05Z</time>
      </trkpt>
      <trkpt lat="42.8031890" lon="-8.5472020">
        <ele>152.0</ele>
        <time>2022-04-14T15:47:06Z</time>
      </trkpt>
      <trkpt lat="42.8032190" lon="-8.5471880">
        <ele>152.1</ele>
        <time>2022-04-14T15:47:07Z</time>
      </trkpt>
      <trkpt lat="42.8033060" lon="-8.5471450">
        <ele>152.5</ele>
        <time>2022-04-14T15:47:08Z</time>
      </trkpt>
      <trkpt lat="42.8033350" lon="-8.5471310">
        <ele>152.6</ele>
        <time>2022-04-14T15:47:09Z</time>
      </trkpt>
      <trkpt lat="42.8034490" lon="-8.5470730">
        <ele>153.1</ele>
        <time>2022-04-14T15:47:10Z</time>
      </trkpt>
      <trkpt lat="42.8035060" lon="-8.5470450">
        <ele>153.3</ele>
        <time>2022-04-14T15:47:11Z</time>
      </trkpt>
      <trkpt lat="42.8035640" lon="-8.5470170">
        <ele>153.5</ele>
        <time>2022-04-14T15:47:12Z</time>
      </trkpt>
      <trkpt lat="42.8036200" lon="-8.5469880">
        <ele>153.8</ele>
        <time>2022-04-14T15:47:13Z</time>
      </trkpt>
      <trkpt lat="42.8036470" lon="-8.5469730">
        <ele>153.9</ele>
        <time>2022-04-14T15:47:14Z</time>
      </trkpt>
      <trkpt lat="42.8036740" lon="-8.5469590">
        <ele>154.0</ele>
        <time>2022-04-14T15:47:15Z</time>
      </trkpt>
      <trkpt lat="42.8037550" lon="-8.5469140">
        <ele>154.4</ele>
        <time>2022-04-14T15:47:16Z</time>
      </trkpt>
      <trkpt lat="42.8037800" lon="-8.5468980">
        <ele>154.5</ele>
        <time>2022-04-14T15:47:17Z</time>
      </trkpt>
      <trkpt lat="42.8038820" lon="-8.5468420">
        <ele>155.0</ele>
        <time>2022-04-14T15:47:18Z</time>
      </trkpt>
      <trkpt lat="42.8039330" lon="-8.5468170">
        <ele>155.3</ele>
        <time>2022-04-14T15:47:19Z</time>
      </trkpt>
      <trkpt lat="42.8039850" lon="-8.5467920">
        <ele>155.6</ele>
        <time>2022-04-14T15:47:20Z</time>
      </trkpt>
      <trkpt lat="42.8040370" lon="-8.5467670">
        <ele>155.8</ele>
        <time>2022-04-14T15:47:21Z</time>
      </trkpt>
      <trkpt lat="42.8040880" lon="-8.5467430">
        <ele>156.1</ele>
        <time>2022-04-14T15:47:22Z</time>
      </trkpt>
      <trkpt lat="42.8041460" lon="-8.5467140">
        <ele>156.4</ele>
        <time>2022-04-14T15:47:23Z</time>
      </trkpt>
      <trkpt lat="42.8041720" lon="-8.5466960">
        <ele>156.5</ele>
        <time>2022-04-14T15:47:24Z</time>
      </trkpt>
      <trkpt lat="42.8041980" lon="-8.5466790">
        <ele>156.7</ele>
        <time>2022-04-14T15:47:25Z</time>
      </trkpt>
      <trkpt lat="42.8042800" lon="-8.5466300">
        <ele>157.1</ele>
        <time>2022-04-14T15:47:26Z</time>
      </trkpt>
      <trkpt lat="42.8043090" lon="-8.5466160">
        <ele>157.3</ele>
        <time>2022-04-14T15:47:27Z</time>
      </trkpt>
      <trkpt lat="42.8044290" lon="-8.5465620">
        <ele>157.9</ele>
        <time>2022-04-14T15:47:28Z</time>
      </trkpt>
      <trkpt lat="42.8044910" lon="-8.5465350">
        <ele>158.2</ele>
        <time>2022-04-14T15:47:29Z</time>
      </trkpt>
      <trkpt lat="42.8045530" lon="-8.5465080">
        <ele>158.5</ele>
        <time>2022-04-14T15:47:30Z</time>
      </trkpt>
      <trkpt lat="42.8046120" lon="-8.5464850">
        <ele>158.8</ele>
        <time>2022-04-14T15:47:31Z</time>
      </trkpt>
      <trkpt lat="42.8046420" lon="-8.5464720">
        <ele>158.9</ele>
        <time>2022-04-14T15:47:32Z</time>
      </trkpt>
      <trkpt lat="42.8046720" lon="-8.5464600">
        <ele>159.0</ele>
        <time>2022-04-14T15:47:33Z</time>
      </trkpt>
      <trkpt lat="42.8047600" lon="-8.5464230">
        <ele>159.5</ele>
        <time>2022-04-14T15:47:34Z</time>
      </trkpt>
      <trkpt lat="42.8047880" lon="-8.5464120">
        <ele>159.6</ele>
        <time>2022-04-14T15:47:35Z</time>
      </trkpt>
      <trkpt lat="42.8048990" lon="-8.5463650">
        <ele>160.2</ele>
        <time>2022-04-14T15:47:36Z</time>
      </trkpt>
      <trkpt lat="42.8049540" lon="-8.5463410">
        <ele>160.5</ele>
        <time>2022-04-14T15:47:37Z</time>
      </trkpt>
      <trkpt lat="42.8050090" lon="-8.5463180">
        <ele>160.8</ele>
        <time>2022-04-14T15:47:38Z</time>
      </trkpt>
      <trkpt lat="42.8050640" lon="-8.5462910">
        <ele>161.1</ele>
        <time>2022-04-14T15:47:39Z</time>
      </trkpt>
      <trkpt lat="42.8050920" lon="-8.5462790">
        <ele>161.3</ele>
        <time>2022-04-14T15:47:40Z</time>
      </trkpt>
      <trkpt lat="42.8051200" lon="-8.5462660">
        <ele>161.4</ele>
        <time>2022-04-14T15:47:41Z</time>
      </trkpt>
      <trkpt lat="42.8052040" lon="-8.5462270">
        <ele>161.9</ele>
        <time>2022-04-14T15:47:42Z</time>
      </trkpt>
      <trkpt lat="42.8052320" lon="-8.5462130">
        <ele>162.1</ele>
        <time>2022-04-14T15:47:43Z</time>
      </trkpt>
      <trkpt lat="42.8053430" lon="-8.5461570">
        <ele>163.2</ele>
        <time>2022-04-14T15:47:44Z</time>
      </trkpt>
      <trkpt lat="42.8053990" lon="-8.5461280">
        <ele>164.3</ele>
        <time>2022-04-14T15:47:45Z</time>
      </trkpt>
      <trkpt lat="42.8054550" lon="-8.5460980">
        <ele>164.4</ele>
        <time>2022-04-14T15:47:46Z</time>
      </trkpt>
      <trkpt lat="42.8055130" lon="-8.5460660">
        <ele>164.6</ele>
        <time>2022-04-14T15:47:47Z</time>
      </trkpt>
      <trkpt lat="42.8055680" lon="-8.5460320">
        <ele>164.8</ele>
        <time>2022-04-14T15:47:48Z</time>
      </trkpt>
      <trkpt lat="42.8056230" lon="-8.5459980">
        <ele>165.0</ele>
        <time>2022-04-14T15:47:49Z</time>
      </trkpt>
      <trkpt lat="42.8056790" lon="-8.5459640">
        <ele>165.2</ele>
        <time>2022-04-14T15:47:50Z</time>
      </trkpt>
      <trkpt lat="42.8057330" lon="-8.5459280">
        <ele>165.4</ele>
        <time>2022-04-14T15:47:51Z</time>
      </trkpt>
      <trkpt lat="42.8057830" lon="-8.5458880">
        <ele>165.6</ele>
        <time>2022-04-14T15:47:52Z</time>
      </trkpt>
      <trkpt lat="42.8058340" lon="-8.5458480">
        <ele>165.8</ele>
        <time>2022-04-14T15:47:53Z</time>
      </trkpt>
      <trkpt lat="42.8058840" lon="-8.5458080">
        <ele>166.0</ele>
        <time>2022-04-14T15:47:54Z</time>
      </trkpt>
      <trkpt lat="42.8059350" lon="-8.5457630">
        <ele>166.2</ele>
        <time>2022-04-14T15:47:55Z</time>
      </trkpt>
      <trkpt lat="42.8059630" lon="-8.5457470">
        <ele>166.3</ele>
        <time>2022-04-14T15:47:56Z</time>
      </trkpt>
      <trkpt lat="42.8059900" lon="-8.5457310">
        <ele>166.5</ele>
        <time>2022-04-14T15:47:57Z</time>
      </trkpt>
      <trkpt lat="42.8060770" lon="-8.5456970">
        <ele>166.7</ele>
        <time>2022-04-14T15:47:58Z</time>
      </trkpt>
      <trkpt lat="42.8061080" lon="-8.5456940">
        <ele>166.8</ele>
        <time>2022-04-14T15:47:59Z</time>
      </trkpt>
      <trkpt lat="42.8061970" lon="-8.5456910">
        <ele>167.2</ele>
        <time>2022-04-14T15:48:00Z</time>
      </trkpt>
      <trkpt lat="42.8062250" lon="-8.5456930">
        <ele>167.4</ele>
        <time>2022-04-14T15:48:01Z</time>
      </trkpt>
      <trkpt lat="42.8063400" lon="-8.5456790">
        <ele>168.1</ele>
        <time>2022-04-14T15:48:02Z</time>
      </trkpt>
      <trkpt lat="42.8063990" lon="-8.5456600">
        <ele>168.5</ele>
        <time>2022-04-14T15:48:03Z</time>
      </trkpt>
      <trkpt lat="42.8064580" lon="-8.5456410">
        <ele>169.0</ele>
        <time>2022-04-14T15:48:04Z</time>
      </trkpt>
      <trkpt lat="42.8065140" lon="-8.5456230">
        <ele>169.3</ele>
        <time>2022-04-14T15:48:05Z</time>
      </trkpt>
      <trkpt lat="42.8065440" lon="-8.5456130">
        <ele>169.5</ele>
        <time>2022-04-14T15:48:06Z</time>
      </trkpt>
      <trkpt lat="42.8065730" lon="-8.5456040">
        <ele>169.7</ele>
        <time>2022-04-14T15:48:07Z</time>
      </trkpt>
      <trkpt lat="42.8066610" lon="-8.5455750">
        <ele>170.0</ele>
        <time>2022-04-14T15:48:08Z</time>
      </trkpt>
      <trkpt lat="42.8066900" lon="-8.5455650">
        <ele>170.2</ele>
        <time>2022-04-14T15:48:09Z</time>
      </trkpt>
      <trkpt lat="42.8068070" lon="-8.5455280">
        <ele>170.7</ele>
        <time>2022-04-14T15:48:10Z</time>
      </trkpt>
      <trkpt lat="42.8068650" lon="-8.5455100">
        <ele>170.9</ele>
        <time>2022-04-14T15:48:11Z</time>
      </trkpt>
      <trkpt lat="42.8069230" lon="-8.5454920">
        <ele>171.1</ele>
        <time>2022-04-14T15:48:12Z</time>
      </trkpt>
      <trkpt lat="42.8069830" lon="-8.5454730">
        <ele>171.4</ele>
        <time>2022-04-14T15:48:13Z</time>
      </trkpt>
      <trkpt lat="42.8070120" lon="-8.5454670">
        <ele>171.5</ele>
        <time>2022-04-14T15:48:14Z</time>
      </trkpt>
      <trkpt lat="42.8070400" lon="-8.5454610">
        <ele>171.6</ele>
        <time>2022-04-14T15:48:15Z</time>
      </trkpt>
      <trkpt lat="42.8071290" lon="-8.5454410">
        <ele>171.9</ele>
        <time>2022-04-14T15:48:16Z</time>
      </trkpt>
      <trkpt lat="42.8071600" lon="-8.5454330">
        <ele>172.0</ele>
        <time>2022-04-14T15:48:17Z</time>
      </trkpt>
      <trkpt lat="42.8072860" lon="-8.5454060">
        <ele>172.3</ele>
        <time>2022-04-14T15:48:18Z</time>
      </trkpt>
      <trkpt lat="42.8073480" lon="-8.5453960">
        <ele>172.5</ele>
        <time>2022-04-14T15:48:19Z</time>
      </trkpt>
      <trkpt lat="42.8074100" lon="-8.5453860">
        <ele>172.7</ele>
        <time>2022-04-14T15:48:20Z</time>
      </trkpt>
      <trkpt lat="42.8074710" lon="-8.5453800">
        <ele>172.8</ele>
        <time>2022-04-14T15:48:21Z</time>
      </trkpt>
      <trkpt lat="42.8075030" lon="-8.5453780">
        <ele>172.8</ele>
        <time>2022-04-14T15:48:22Z</time>
      </trkpt>
      <trkpt lat="42.8075350" lon="-8.5453750">
        <ele>172.9</ele>
        <time>2022-04-14T15:48:23Z</time>
      </trkpt>
      <trkpt lat="42.8076300" lon="-8.5453660">
        <ele>173.0</ele>
        <time>2022-04-14T15:48:24Z</time>
      </trkpt>
      <trkpt lat="42.8076620" lon="-8.5453620">
        <ele>173.1</ele>
        <time>2022-04-14T15:48:25Z</time>
      </trkpt>
      <trkpt lat="42.8077970" lon="-8.5453510">
        <ele>173.3</ele>
        <time>2022-04-14T15:48:26Z</time>
      </trkpt>
      <trkpt lat="42.8078670" lon="-8.5453470">
        <ele>173.5</ele>
        <time>2022-04-14T15:48:27Z</time>
      </trkpt>
      <trkpt lat="42.8079380" lon="-8.5453430">
        <ele>173.6</ele>
        <time>2022-04-14T15:48:28Z</time>
      </trkpt>
      <trkpt lat="42.8080180" lon="-8.5453370">
        <ele>173.8</ele>
        <time>2022-04-14T15:48:29Z</time>
      </trkpt>
      <trkpt lat="42.8080510" lon="-8.5453360">
        <ele>173.8</ele>
        <time>2022-04-14T15:48:30Z</time>
      </trkpt>
      <trkpt lat="42.8080830" lon="-8.5453360">
        <ele>173.9</ele>
        <time>2022-04-14T15:48:31Z</time>
      </trkpt>
      <trkpt lat="42.8082130" lon="-8.5453330">
        <ele>174.2</ele>
        <time>2022-04-14T15:48:32Z</time>
      </trkpt>
      <trkpt lat="42.8082780" lon="-8.5453310">
        <ele>174.3</ele>
        <time>2022-04-14T15:48:33Z</time>
      </trkpt>
      <trkpt lat="42.8083430" lon="-8.5453280">
        <ele>174.4</ele>
        <time>2022-04-14T15:48:34Z</time>
      </trkpt>
      <trkpt lat="42.8084110" lon="-8.5453260">
        <ele>174.6</ele>
        <time>2022-04-14T15:48:35Z</time>
      </trkpt>
      <trkpt lat="42.8084410" lon="-8.5453290">
        <ele>174.6</ele>
        <time>2022-04-14T15:48:36Z</time>
      </trkpt>
      <trkpt lat="42.8084700" lon="-8.5453320">
        <ele>174.7</ele>
        <time>2022-04-14T15:48:37Z</time>
      </trkpt>
      <trkpt lat="42.8085670" lon="-8.5453360">
        <ele>174.9</ele>
        <time>2022-04-14T15:48:38Z</time>
      </trkpt>
      <trkpt lat="42.8086050" lon="-8.5453330">
        <ele>174.9</ele>
        <time>2022-04-14T15:48:39Z</time>
      </trkpt>
      <trkpt lat="42.8087460" lon="-8.5453270">
        <ele>175.1</ele>
        <time>2022-04-14T15:48:40Z</time>
      </trkpt>
      <trkpt lat="42.8088100" lon="-8.5453260">
        <ele>175.2</ele>
        <time>2022-04-14T15:48:41Z</time>
      </trkpt>
      <trkpt lat="42.8088740" lon="-8.5453250">
        <ele>175.3</ele>
        <time>2022-04-14T15:48:42Z</time>
      </trkpt>
      <trkpt lat="42.8089400" lon="-8.5453250">
        <ele>175.4</ele>
        <time>2022-04-14T15:48:43Z</time>
      </trkpt>
      <trkpt lat="42.8089770" lon="-8.5453240">
        <ele>175.4</ele>
        <time>2022-04-14T15:48:44Z</time>
      </trkpt>
      <trkpt lat="42.8090130" lon="-8.5453220">
        <ele>175.5</ele>
        <time>2022-04-14T15:48:45Z</time>
      </trkpt>
      <trkpt lat="42.8091170" lon="-8.5453230">
        <ele>175.6</ele>
        <time>2022-04-14T15:48:46Z</time>
      </trkpt>
      <trkpt lat="42.8091480" lon="-8.5453280">
        <ele>175.7</ele>
        <time>2022-04-14T15:48:47Z</time>
      </trkpt>
      <trkpt lat="42.8092810" lon="-8.5453340">
        <ele>175.9</ele>
        <time>2022-04-14T15:48:48Z</time>
      </trkpt>
      <trkpt lat="42.8093510" lon="-8.5453300">
        <ele>175.9</ele>
        <time>2022-04-14T15:48:49Z</time>
      </trkpt>
      <trkpt lat="42.8094210" lon="-8.5453270">
        <ele>176.0</ele>
        <time>2022-04-14T15:48:50Z</time>
      </trkpt>
      <trkpt lat="42.8094980" lon="-8.5453170">
        <ele>176.1</ele>
        <time>2022-04-14T15:48:51Z</time>
      </trkpt>
      <trkpt lat="42.8095350" lon="-8.5453130">
        <ele>176.2</ele>
        <time>2022-04-14T15:48:52Z</time>
      </trkpt>
      <trkpt lat="42.8095710" lon="-8.5453090">
        <ele>176.3</ele>
        <time>2022-04-14T15:48:53Z</time>
      </trkpt>
      <trkpt lat="42.8097130" lon="-8.5452990">
        <ele>176.5</ele>
        <time>2022-04-14T15:48:54Z</time>
      </trkpt>
      <trkpt lat="42.8097830" lon="-8.5452960">
        <ele>176.6</ele>
        <time>2022-04-14T15:48:55Z</time>
      </trkpt>
      <trkpt lat="42.8098530" lon="-8.5452940">
        <ele>176.7</ele>
        <time>2022-04-14T15:48:56Z</time>
      </trkpt>
      <trkpt lat="42.8099200" lon="-8.5452930">
        <ele>176.7</ele>
        <time>2022-04-14T15:48:57Z</time>
      </trkpt>
      <trkpt lat="42.8099550" lon="-8.5452910">
        <ele>176.8</ele>
        <time>2022-04-14T15:48:58Z</time>
      </trkpt>
      <trkpt lat="42.8099890" lon="-8.5452890">
        <ele>176.8</ele>
        <time>2022-04-14T15:48:59Z</time>
      </trkpt>
      <trkpt lat="42.8100920" lon="-8.5452820">
        <ele>176.9</ele>
        <time>2022-04-14T15:49:00Z</time>
      </trkpt>
      <trkpt lat="42.8101280" lon="-8.5452800">
        <ele>177.0</ele>
        <time>2022-04-14T15:49:01Z</time>
      </trkpt>
      <trkpt lat="42.8102680" lon="-8.5452710">
        <ele>177.2</ele>
        <time>2022-04-14T15:49:02Z</time>
      </trkpt>
      <trkpt lat="42.8103390" lon="-8.5452650">
        <ele>177.2</ele>
        <time>2022-04-14T15:49:03Z</time>
      </trkpt>
      <trkpt lat="42.8104100" lon="-8.5452600">
        <ele>177.3</ele>
        <time>2022-04-14T15:49:04Z</time>
      </trkpt>
      <trkpt lat="42.8105240" lon="-8.5452530">
        <ele>177.4</ele>
        <time>2022-04-14T15:49:05Z</time>
      </trkpt>
      <trkpt lat="42.8105620" lon="-8.5452520">
        <ele>177.4</ele>
        <time>2022-04-14T15:49:06Z</time>
      </trkpt>
      <trkpt lat="42.8106380" lon="-8.5452490">
        <ele>177.5</ele>
        <time>2022-04-14T15:49:07Z</time>
      </trkpt>
      <trkpt lat="42.8107080" lon="-8.5452470">
        <ele>177.6</ele>
        <time>2022-04-14T15:49:08Z</time>
      </trkpt>
      <trkpt lat="42.8107790" lon="-8.5452460">
        <ele>177.6</ele>
        <time>2022-04-14T15:49:09Z</time>
      </trkpt>
      <trkpt lat="42.8108500" lon="-8.5452450">
        <ele>177.7</ele>
        <time>2022-04-14T15:49:10Z</time>
      </trkpt>
      <trkpt lat="42.8109240" lon="-8.5452410">
        <ele>177.7</ele>
        <time>2022-04-14T15:49:11Z</time>
      </trkpt>
      <trkpt lat="42.8109620" lon="-8.5452400">
        <ele>177.7</ele>
        <time>2022-04-14T15:49:12Z</time>
      </trkpt>
      <trkpt lat="42.8110010" lon="-8.5452390">
        <ele>177.8</ele>
        <time>2022-04-14T15:49:13Z</time>
      </trkpt>
      <trkpt lat="42.8111170" lon="-8.5452370">
        <ele>177.9</ele>
        <time>2022-04-14T15:49:14Z</time>
      </trkpt>
      <trkpt lat="42.8111550" lon="-8.5452370">
        <ele>177.9</ele>
        <time>2022-04-14T15:49:15Z</time>
      </trkpt>
      <trkpt lat="42.8113050" lon="-8.5452350">
        <ele>178.0</ele>
        <time>2022-04-14T15:49:16Z</time>
      </trkpt>
      <trkpt lat="42.8113790" lon="-8.5452340">
        <ele>178.1</ele>
        <time>2022-04-14T15:49:17Z</time>
      </trkpt>
      <trkpt lat="42.8114540" lon="-8.5452320">
        <ele>178.2</ele>
        <time>2022-04-14T15:49:18Z</time>
      </trkpt>
      <trkpt lat="42.8115290" lon="-8.5452320">
        <ele>178.3</ele>
        <time>2022-04-14T15:49:19Z</time>
      </trkpt>
      <trkpt lat="42.8115650" lon="-8.5452320">
        <ele>178.3</ele>
        <time>2022-04-14T15:49:20Z</time>
      </trkpt>
      <trkpt lat="42.8116020" lon="-8.5452320">
        <ele>178.4</ele>
        <time>2022-04-14T15:49:21Z</time>
      </trkpt>
      <trkpt lat="42.8117450" lon="-8.5452280">
        <ele>178.6</ele>
        <time>2022-04-14T15:49:22Z</time>
      </trkpt>
      <trkpt lat="42.8118150" lon="-8.5452250">
        <ele>178.7</ele>
        <time>2022-04-14T15:49:23Z</time>
      </trkpt>
      <trkpt lat="42.8118850" lon="-8.5452210">
        <ele>178.8</ele>
        <time>2022-04-14T15:49:24Z</time>
      </trkpt>
      <trkpt lat="42.8119580" lon="-8.5452160">
        <ele>178.9</ele>
        <time>2022-04-14T15:49:25Z</time>
      </trkpt>
      <trkpt lat="42.8119880" lon="-8.5452160">
        <ele>179.0</ele>
        <time>2022-04-14T15:49:26Z</time>
      </trkpt>
      <trkpt lat="42.8120190" lon="-8.5452170">
        <ele>179.1</ele>
        <time>2022-04-14T15:49:27Z</time>
      </trkpt>
      <trkpt lat="42.8121110" lon="-8.5452180">
        <ele>179.2</ele>
        <time>2022-04-14T15:49:28Z</time>
      </trkpt>
      <trkpt lat="42.8121420" lon="-8.5452180">
        <ele>179.3</ele>
        <time>2022-04-14T15:49:29Z</time>
      </trkpt>
      <trkpt lat="42.8122750" lon="-8.5452120">
        <ele>179.6</ele>
        <time>2022-04-14T15:49:30Z</time>
      </trkpt>
      <trkpt lat="42.8123460" lon="-8.5452080">
        <ele>179.7</ele>
        <time>2022-04-14T15:49:31Z</time>
      </trkpt>
      <trkpt lat="42.8124170" lon="-8.5452040">
        <ele>179.8</ele>
        <time>2022-04-14T15:49:32Z</time>
      </trkpt>
      <trkpt lat="42.8124920" lon="-8.5451990">
        <ele>179.9</ele>
        <time>2022-04-14T15:49:33Z</time>
      </trkpt>
      <trkpt lat="42.8125270" lon="-8.5451990">
        <ele>179.9</ele>
        <time>2022-04-14T15:49:34Z</time>
      </trkpt>
      <trkpt lat="42.8125630" lon="-8.5451990">
        <ele>180.0</ele>
        <time>2022-04-14T15:49:35Z</time>
      </trkpt>
      <trkpt lat="42.8127020" lon="-8.5451970">
        <ele>180.2</ele>
        <time>2022-04-14T15:49:36Z</time>
      </trkpt>
      <trkpt lat="42.8127700" lon="-8.5451950">
        <ele>180.5</ele>
        <time>2022-04-14T15:49:37Z</time>
      </trkpt>
      <trkpt lat="42.8128380" lon="-8.5451930">
        <ele>180.7</ele>
        <time>2022-04-14T15:49:38Z</time>
      </trkpt>
      <trkpt lat="42.8128960" lon="-8.5451940">
        <ele>180.9</ele>
        <time>2022-04-14T15:49:39Z</time>
      </trkpt>
      <trkpt lat="42.8129270" lon="-8.5451940">
        <ele>181.0</ele>
        <time>2022-04-14T15:49:40Z</time>
      </trkpt>
      <trkpt lat="42.8129590" lon="-8.5451950">
        <ele>181.1</ele>
        <time>2022-04-14T15:49:41Z</time>
      </trkpt>
      <trkpt lat="42.8130830" lon="-8.5451960">
        <ele>181.6</ele>
        <time>2022-04-14T15:49:42Z</time>
      </trkpt>
      <trkpt lat="42.8131450" lon="-8.5451960">
        <ele>181.9</ele>
        <time>2022-04-14T15:49:43Z</time>
      </trkpt>
      <trkpt lat="42.8132060" lon="-8.5451960">
        <ele>182.1</ele>
        <time>2022-04-14T15:49:44Z</time>
      </trkpt>
      <trkpt lat="42.8132960" lon="-8.5451980">
        <ele>182.5</ele>
        <time>2022-04-14T15:49:45Z</time>
      </trkpt>
      <trkpt lat="42.8133260" lon="-8.5451970">
        <ele>182.7</ele>
        <time>2022-04-14T15:49:46Z</time>
      </trkpt>
      <trkpt lat="42.8133870" lon="-8.5451960">
        <ele>182.9</ele>
        <time>2022-04-14T15:49:47Z</time>
      </trkpt>
      <trkpt lat="42.8134210" lon="-8.5451910">
        <ele>183.1</ele>
        <time>2022-04-14T15:49:48Z</time>
      </trkpt>
      <trkpt lat="42.8134560" lon="-8.5451850">
        <ele>183.2</ele>
        <time>2022-04-14T15:49:49Z</time>
      </trkpt>
      <trkpt lat="42.8135610" lon="-8.5451660">
        <ele>183.7</ele>
        <time>2022-04-14T15:49:50Z</time>
      </trkpt>
      <trkpt lat="42.8135970" lon="-8.5451560">
        <ele>183.8</ele>
        <time>2022-04-14T15:49:51Z</time>
      </trkpt>
      <trkpt lat="42.8137330" lon="-8.5451250">
        <ele>184.4</ele>
        <time>2022-04-14T15:49:52Z</time>
      </trkpt>
      <trkpt lat="42.8137990" lon="-8.5451120">
        <ele>184.6</ele>
        <time>2022-04-14T15:49:53Z</time>
      </trkpt>
      <trkpt lat="42.8138650" lon="-8.5450990">
        <ele>184.9</ele>
        <time>2022-04-14T15:49:54Z</time>
      </trkpt>
      <trkpt lat="42.8139320" lon="-8.5450850">
        <ele>185.1</ele>
        <time>2022-04-14T15:49:55Z</time>
      </trkpt>
      <trkpt lat="42.8139650" lon="-8.5450820">
        <ele>185.2</ele>
        <time>2022-04-14T15:49:56Z</time>
      </trkpt>
      <trkpt lat="42.8139980" lon="-8.5450790">
        <ele>185.5</ele>
        <time>2022-04-14T15:49:57Z</time>
      </trkpt>
      <trkpt lat="42.8140950" lon="-8.5450770">
        <ele>185.7</ele>
        <time>2022-04-14T15:49:58Z</time>
      </trkpt>
      <trkpt lat="42.8141260" lon="-8.5450830">
        <ele>185.8</ele>
        <time>2022-04-14T15:49:59Z</time>
      </trkpt>
      <trkpt lat="42.8142450" lon="-8.5451100">
        <ele>186.3</ele>
        <time>2022-04-14T15:50:00Z</time>
      </trkpt>
      <trkpt lat="42.8143040" lon="-8.5451260">
        <ele>186.8</ele>
        <time>2022-04-14T15:50:01Z</time>
      </trkpt>
      <trkpt lat="42.8143630" lon="-8.5451420">
        <ele>187.3</ele>
        <time>2022-04-14T15:50:02Z</time>
      </trkpt>
      <trkpt lat="42.8144180" lon="-8.5451560">
        <ele>187.8</ele>
        <time>2022-04-14T15:50:03Z</time>
      </trkpt>
      <trkpt lat="42.8144480" lon="-8.5451560">
        <ele>188.0</ele>
        <time>2022-04-14T15:50:04Z</time>
      </trkpt>
      <trkpt lat="42.8144790" lon="-8.5451560">
        <ele>188.3</ele>
        <time>2022-04-14T15:50:05Z</time>
      </trkpt>
      <trkpt lat="42.8145700" lon="-8.5451550">
        <ele>189.1</ele>
        <time>2022-04-14T15:50:06Z</time>
      </trkpt>
      <trkpt lat="42.8146000" lon="-8.5451540">
        <ele>189.4</ele>
        <time>2022-04-14T15:50:07Z</time>
      </trkpt>
      <trkpt lat="42.8147160" lon="-8.5451480">
        <ele>190.4</ele>
        <time>2022-04-14T15:50:08Z</time>
      </trkpt>
      <trkpt lat="42.8147720" lon="-8.5451430">
        <ele>190.9</ele>
        <time>2022-04-14T15:50:09Z</time>
      </trkpt>
      <trkpt lat="42.8148280" lon="-8.5451390">
        <ele>191.3</ele>
        <time>2022-04-14T15:50:10Z</time>
      </trkpt>
      <trkpt lat="42.8148860" lon="-8.5451360">
        <ele>191.8</ele>
        <time>2022-04-14T15:50:11Z</time>
      </trkpt>
      <trkpt lat="42.8149160" lon="-8.5451350">
        <ele>192.0</ele>
        <time>2022-04-14T15:50:12Z</time>
      </trkpt>
      <trkpt lat="42.8149470" lon="-8.5451330">
        <ele>192.1</ele>
        <time>2022-04-14T15:50:13Z</time>
      </trkpt>
      <trkpt lat="42.8150390" lon="-8.5451270">
        <ele>192.5</ele>
        <time>2022-04-14T15:50:14Z</time>
      </trkpt>
      <trkpt lat="42.8150700" lon="-8.5451240">
        <ele>192.6</ele>
        <time>2022-04-14T15:50:15Z</time>
      </trkpt>
      <trkpt lat="42.8151890" lon="-8.5451130">
        <ele>193.0</ele>
        <time>2022-04-14T15:50:16Z</time>
      </trkpt>
      <trkpt lat="42.8152450" lon="-8.5451080">
        <ele>193.2</ele>
        <time>2022-04-14T15:50:17Z</time>
      </trkpt>
      <trkpt lat="42.8153020" lon="-8.5451030">
        <ele>193.3</ele>
        <time>2022-04-14T15:50:18Z</time>
      </trkpt>
      <trkpt lat="42.8153620" lon="-8.5450960">
        <ele>193.5</ele>
        <time>2022-04-14T15:50:19Z</time>
      </trkpt>
      <trkpt lat="42.8154260" lon="-8.5450880">
        <ele>193.6</ele>
        <time>2022-04-14T15:50:20Z</time>
      </trkpt>
      <trkpt lat="42.8154890" lon="-8.5450800">
        <ele>193.8</ele>
        <time>2022-04-14T15:50:21Z</time>
      </trkpt>
      <trkpt lat="42.8155530" lon="-8.5450720">
        <ele>193.9</ele>
        <time>2022-04-14T15:50:22Z</time>
      </trkpt>
      <trkpt lat="42.8156150" lon="-8.5450660">
        <ele>194.0</ele>
        <time>2022-04-14T15:50:23Z</time>
      </trkpt>
      <trkpt lat="42.8156760" lon="-8.5450570">
        <ele>194.1</ele>
        <time>2022-04-14T15:50:24Z</time>
      </trkpt>
      <trkpt lat="42.8157380" lon="-8.5450480">
        <ele>194.2</ele>
        <time>2022-04-14T15:50:25Z</time>
      </trkpt>
      <trkpt lat="42.8157990" lon="-8.5450390">
        <ele>194.3</ele>
        <time>2022-04-14T15:50:26Z</time>
      </trkpt>
      <trkpt lat="42.8158620" lon="-8.5450290">
        <ele>194.4</ele>
        <time>2022-04-14T15:50:27Z</time>
      </trkpt>
      <trkpt lat="42.8158950" lon="-8.5450230">
        <ele>194.5</ele>
        <time>2022-04-14T15:50:28Z</time>
      </trkpt>
      <trkpt lat="42.8159280" lon="-8.5450170">
        <ele>194.5</ele>
        <time>2022-04-14T15:50:29Z</time>
      </trkpt>
      <trkpt lat="42.8160260" lon="-8.5449990">
        <ele>194.7</ele>
        <time>2022-04-14T15:50:30Z</time>
      </trkpt>
      <trkpt lat="42.8160570" lon="-8.5449940">
        <ele>194.7</ele>
        <time>2022-04-14T15:50:31Z</time>
      </trkpt>
      <trkpt lat="42.8161860" lon="-8.5449740">
        <ele>194.8</ele>
        <time>2022-04-14T15:50:32Z</time>
      </trkpt>
      <trkpt lat="42.8162510" lon="-8.5449630">
        <ele>194.9</ele>
        <time>2022-04-14T15:50:33Z</time>
      </trkpt>
      <trkpt lat="42.8163160" lon="-8.5449520">
        <ele>195.0</ele>
        <time>2022-04-14T15:50:34Z</time>
      </trkpt>
      <trkpt lat="42.8163860" lon="-8.5449370">
        <ele>195.0</ele>
        <time>2022-04-14T15:50:35Z</time>
      </trkpt>
      <trkpt lat="42.8164600" lon="-8.5449160">
        <ele>195.0</ele>
        <time>2022-04-14T15:50:36Z</time>
      </trkpt>
      <trkpt lat="42.8165340" lon="-8.5448950">
        <ele>195.0</ele>
        <time>2022-04-14T15:50:37Z</time>
      </trkpt>
      <trkpt lat="42.8166090" lon="-8.5448740">
        <ele>195.0</ele>
        <time>2022-04-14T15:50:38Z</time>
      </trkpt>
      <trkpt lat="42.8166860" lon="-8.5448610">
        <ele>195.0</ele>
        <time>2022-04-14T15:50:39Z</time>
      </trkpt>
      <trkpt lat="42.8167630" lon="-8.5448480">
        <ele>195.0</ele>
        <time>2022-04-14T15:50:40Z</time>
      </trkpt>
      <trkpt lat="42.8168410" lon="-8.5448350">
        <ele>195.0</ele>
        <time>2022-04-14T15:50:41Z</time>
      </trkpt>
      <trkpt lat="42.8169160" lon="-8.5448190">
        <ele>195.0</ele>
        <time>2022-04-14T15:50:42Z</time>
      </trkpt>
      <trkpt lat="42.8169540" lon="-8.5448110">
        <ele>195.0</ele>
        <time>2022-04-14T15:50:43Z</time>
      </trkpt>
      <trkpt lat="42.8169920" lon="-8.5448020">
        <ele>195.0</ele>
        <time>2022-04-14T15:50:44Z</time>
      </trkpt>
      <trkpt lat="42.8171440" lon="-8.5447660">
        <ele>195.1</ele>
        <time>2022-04-14T15:50:45Z</time>
      </trkpt>
      <trkpt lat="42.8172190" lon="-8.5447470">
        <ele>195.1</ele>
        <time>2022-04-14T15:50:46Z</time>
      </trkpt>
      <trkpt lat="42.8172940" lon="-8.5447280">
        <ele>195.1</ele>
        <time>2022-04-14T15:50:47Z</time>
      </trkpt>
      <trkpt lat="42.8173640" lon="-8.5447110">
        <ele>195.1</ele>
        <time>2022-04-14T15:50:48Z</time>
      </trkpt>
      <trkpt lat="42.8174020" lon="-8.5447040">
        <ele>195.1</ele>
        <time>2022-04-14T15:50:49Z</time>
      </trkpt>
      <trkpt lat="42.8174400" lon="-8.5446960">
        <ele>195.1</ele>
        <time>2022-04-14T15:50:50Z</time>
      </trkpt>
      <trkpt lat="42.8175540" lon="-8.5446730">
        <ele>195.1</ele>
        <time>2022-04-14T15:50:51Z</time>
      </trkpt>
      <trkpt lat="42.8175910" lon="-8.5446650">
        <ele>195.2</ele>
        <time>2022-04-14T15:50:52Z</time>
      </trkpt>
      <trkpt lat="42.8177370" lon="-8.5446350">
        <ele>195.2</ele>
        <time>2022-04-14T15:50:53Z</time>
      </trkpt>
      <trkpt lat="42.8178090" lon="-8.5446200">
        <ele>195.2</ele>
        <time>2022-04-14T15:50:54Z</time>
      </trkpt>
      <trkpt lat="42.8178810" lon="-8.5446050">
        <ele>195.2</ele>
        <time>2022-04-14T15:50:55Z</time>
      </trkpt>
      <trkpt lat="42.8179530" lon="-8.5445870">
        <ele>195.2</ele>
        <time>2022-04-14T15:50:56Z</time>
      </trkpt>
      <trkpt lat="42.8179890" lon="-8.5445760">
        <ele>195.2</ele>
        <time>2022-04-14T15:50:57Z</time>
      </trkpt>
      <trkpt lat="42.8180260" lon="-8.5445640">
        <ele>195.2</ele>
        <time>2022-04-14T15:50:58Z</time>
      </trkpt>
      <trkpt lat="42.8181700" lon="-8.5445200">
        <ele>195.2</ele>
        <time>2022-04-14T15:50:59Z</time>
      </trkpt>
      <trkpt lat="42.8182400" lon="-8.5445000">
        <ele>195.2</ele>
        <time>2022-04-14T15:51:00Z</time>
      </trkpt>
      <trkpt lat="42.8183110" lon="-8.5444800">
        <ele>195.1</ele>
        <time>2022-04-14T15:51:01Z</time>
      </trkpt>
      <trkpt lat="42.8183820" lon="-8.5444630">
        <ele>195.1</ele>
        <time>2022-04-14T15:51:02Z</time>
      </trkpt>
      <trkpt lat="42.8184190" lon="-8.5444600">
        <ele>195.1</ele>
        <time>2022-04-14T15:51:03Z</time>
      </trkpt>
      <trkpt lat="42.8184560" lon="-8.5444560">
        <ele>195.1</ele>
        <time>2022-04-14T15:51:04Z</time>
      </trkpt>
      <trkpt lat="42.8185680" lon="-8.5444490">
        <ele>195.1</ele>
        <time>2022-04-14T15:51:05Z</time>
      </trkpt>
      <trkpt lat="42.8186060" lon="-8.5444500">
        <ele>195.1</ele>
        <time>2022-04-14T15:51:06Z</time>
      </trkpt>
      <trkpt lat="42.8187610" lon="-8.5444670">
        <ele>195.1</ele>
        <time>2022-04-14T15:51:07Z</time>
      </trkpt>
      <trkpt lat="42.8188380" lon="-8.5444830">
        <ele>195.1</ele>
        <time>2022-04-14T15:51:08Z</time>
      </trkpt>
      <trkpt lat="42.8189150" lon="-8.5444990">
        <ele>195.1</ele>
        <time>2022-04-14T15:51:09Z</time>
      </trkpt>
      <trkpt lat="42.8189960" lon="-8.5445180">
        <ele>195.0</ele>
        <time>2022-04-14T15:51:10Z</time>
      </trkpt>
      <trkpt lat="42.8190360" lon="-8.5445290">
        <ele>195.0</ele>
        <time>2022-04-14T15:51:11Z</time>
      </trkpt>
      <trkpt lat="42.8190760" lon="-8.5445390">
        <ele>195.0</ele>
        <time>2022-04-14T15:51:12Z</time>
      </trkpt>
      <trkpt lat="42.8192380" lon="-8.5445820">
        <ele>194.9</ele>
        <time>2022-04-14T15:51:13Z</time>
      </trkpt>
      <trkpt lat="42.8193200" lon="-8.5446040">
        <ele>195.0</ele>
        <time>2022-04-14T15:51:14Z</time>
      </trkpt>
      <trkpt lat="42.8194020" lon="-8.5446250">
        <ele>195.0</ele>
        <time>2022-04-14T15:51:15Z</time>
      </trkpt>
      <trkpt lat="42.8194830" lon="-8.5446460">
        <ele>195.1</ele>
        <time>2022-04-14T15:51:16Z</time>
      </trkpt>
      <trkpt lat="42.8195530" lon="-8.5446750">
        <ele>195.2</ele>
        <time>2022-04-14T15:51:17Z</time>
      </trkpt>
      <trkpt lat="42.8196230" lon="-8.5447050">
        <ele>195.3</ele>
        <time>2022-04-14T15:51:18Z</time>
      </trkpt>
      <trkpt lat="42.8196930" lon="-8.5447340">
        <ele>195.5</ele>
        <time>2022-04-14T15:51:19Z</time>
      </trkpt>
      <trkpt lat="42.8198040" lon="-8.5447650">
        <ele>195.7</ele>
        <time>2022-04-14T15:51:20Z</time>
      </trkpt>
      <trkpt lat="42.8198390" lon="-8.5447730">
        <ele>195.8</ele>
        <time>2022-04-14T15:51:21Z</time>
      </trkpt>
      <trkpt lat="42.8199090" lon="-8.5447880">
        <ele>196.0</ele>
        <time>2022-04-14T15:51:22Z</time>
      </trkpt>
      <trkpt lat="42.8199450" lon="-8.5447930">
        <ele>196.0</ele>
        <time>2022-04-14T15:51:23Z</time>
      </trkpt>
      <trkpt lat="42.8199810" lon="-8.5447970">
        <ele>196.1</ele>
        <time>2022-04-14T15:51:24Z</time>
      </trkpt>
      <trkpt lat="42.8201210" lon="-8.5448100">
        <ele>196.5</ele>
        <time>2022-04-14T15:51:25Z</time>
      </trkpt>
      <trkpt lat="42.8201880" lon="-8.5448140">
        <ele>196.8</ele>
        <time>2022-04-14T15:51:26Z</time>
      </trkpt>
      <trkpt lat="42.8202550" lon="-8.5448180">
        <ele>197.0</ele>
        <time>2022-04-14T15:51:27Z</time>
      </trkpt>
      <trkpt lat="42.8203230" lon="-8.5448170">
        <ele>197.2</ele>
        <time>2022-04-14T15:51:28Z</time>
      </trkpt>
      <trkpt lat="42.8203560" lon="-8.5448170">
        <ele>197.3</ele>
        <time>2022-04-14T15:51:29Z</time>
      </trkpt>
      <trkpt lat="42.8203880" lon="-8.5448160">
        <ele>197.4</ele>
        <time>2022-04-14T15:51:30Z</time>
      </trkpt>
      <trkpt lat="42.8204800" lon="-8.5448100">
        <ele>197.7</ele>
        <time>2022-04-14T15:51:31Z</time>
      </trkpt>
      <trkpt lat="42.8205080" lon="-8.5448060">
        <ele>197.7</ele>
        <time>2022-04-14T15:51:32Z</time>
      </trkpt>
      <trkpt lat="42.8206270" lon="-8.5447770">
        <ele>198.1</ele>
        <time>2022-04-14T15:51:33Z</time>
      </trkpt>
      <trkpt lat="42.8206900" lon="-8.5447570">
        <ele>198.3</ele>
        <time>2022-04-14T15:51:34Z</time>
      </trkpt>
      <trkpt lat="42.8207520" lon="-8.5447360">
        <ele>198.5</ele>
        <time>2022-04-14T15:51:35Z</time>
      </trkpt>
      <trkpt lat="42.8208130" lon="-8.5447160">
        <ele>198.8</ele>
        <time>2022-04-14T15:51:36Z</time>
      </trkpt>
      <trkpt lat="42.8208430" lon="-8.5447100">
        <ele>199.0</ele>
        <time>2022-04-14T15:51:37Z</time>
      </trkpt>
      <trkpt lat="42.8208720" lon="-8.5447040">
        <ele>199.1</ele>
        <time>2022-04-14T15:51:38Z</time>
      </trkpt>
      <trkpt lat="42.8209610" lon="-8.5446890">
        <ele>199.6</ele>
        <time>2022-04-14T15:51:39Z</time>
      </trkpt>
      <trkpt lat="42.8209900" lon="-8.5446860">
        <ele>199.8</ele>
        <time>2022-04-14T15:51:40Z</time>
      </trkpt>
      <trkpt lat="42.8211110" lon="-8.5446660">
        <ele>200.6</ele>
        <time>2022-04-14T15:51:41Z</time>
      </trkpt>
      <trkpt lat="42.8211740" lon="-8.5446520">
        <ele>201.1</ele>
        <time>2022-04-14T15:51:42Z</time>
      </trkpt>
      <trkpt lat="42.8212360" lon="-8.5446370">
        <ele>201.5</ele>
        <time>2022-04-14T15:51:43Z</time>
      </trkpt>
      <trkpt lat="42.8213000" lon="-8.5446210">
        <ele>201.7</ele>
        <time>2022-04-14T15:51:44Z</time>
      </trkpt>
      <trkpt lat="42.8213290" lon="-8.5446150">
        <ele>201.8</ele>
        <time>2022-04-14T15:51:45Z</time>
      </trkpt>
      <trkpt lat="42.8213590" lon="-8.5446080">
        <ele>201.9</ele>
        <time>2022-04-14T15:51:46Z</time>
      </trkpt>
      <trkpt lat="42.8214450" lon="-8.5445900">
        <ele>202.2</ele>
        <time>2022-04-14T15:51:47Z</time>
      </trkpt>
      <trkpt lat="42.8214730" lon="-8.5445840">
        <ele>202.3</ele>
        <time>2022-04-14T15:51:48Z</time>
      </trkpt>
      <trkpt lat="42.8215570" lon="-8.5445660">
        <ele>202.6</ele>
        <time>2022-04-14T15:51:49Z</time>
      </trkpt>
      <trkpt lat="42.8215850" lon="-8.5445600">
        <ele>202.7</ele>
        <time>2022-04-14T15:51:50Z</time>
      </trkpt>
      <trkpt lat="42.8216930" lon="-8.5445280">
        <ele>203.2</ele>
        <time>2022-04-14T15:51:51Z</time>
      </trkpt>
      <trkpt lat="42.8217450" lon="-8.5445090">
        <ele>203.4</ele>
        <time>2022-04-14T15:51:52Z</time>
      </trkpt>
      <trkpt lat="42.8217960" lon="-8.5444900">
        <ele>203.7</ele>
        <time>2022-04-14T15:51:53Z</time>
      </trkpt>
      <trkpt lat="42.8218470" lon="-8.5444750">
        <ele>203.9</ele>
        <time>2022-04-14T15:51:54Z</time>
      </trkpt>
      <trkpt lat="42.8219060" lon="-8.5444480">
        <ele>204.1</ele>
        <time>2022-04-14T15:51:55Z</time>
      </trkpt>
      <trkpt lat="42.8219660" lon="-8.5444210">
        <ele>204.3</ele>
        <time>2022-04-14T15:51:56Z</time>
      </trkpt>
      <trkpt lat="42.8220250" lon="-8.5443940">
        <ele>204.6</ele>
        <time>2022-04-14T15:51:57Z</time>
      </trkpt>
      <trkpt lat="42.8220810" lon="-8.5443690">
        <ele>204.8</ele>
        <time>2022-04-14T15:51:58Z</time>
      </trkpt>
      <trkpt lat="42.8221400" lon="-8.5443420">
        <ele>205.0</ele>
        <time>2022-04-14T15:51:59Z</time>
      </trkpt>
      <trkpt lat="42.8221990" lon="-8.5443150">
        <ele>205.1</ele>
        <time>2022-04-14T15:52:00Z</time>
      </trkpt>
      <trkpt lat="42.8222570" lon="-8.5442870">
        <ele>205.3</ele>
        <time>2022-04-14T15:52:01Z</time>
      </trkpt>
      <trkpt lat="42.8223150" lon="-8.5442600">
        <ele>205.4</ele>
        <time>2022-04-14T15:52:02Z</time>
      </trkpt>
      <trkpt lat="42.8223460" lon="-8.5442460">
        <ele>205.5</ele>
        <time>2022-04-14T15:52:03Z</time>
      </trkpt>
      <trkpt lat="42.8223770" lon="-8.5442310">
        <ele>205.6</ele>
        <time>2022-04-14T15:52:04Z</time>
      </trkpt>
      <trkpt lat="42.8224670" lon="-8.5441880">
        <ele>205.9</ele>
        <time>2022-04-14T15:52:05Z</time>
      </trkpt>
      <trkpt lat="42.8224940" lon="-8.5441740">
        <ele>206.0</ele>
        <time>2022-04-14T15:52:06Z</time>
      </trkpt>
      <trkpt lat="42.8226070" lon="-8.5441210">
        <ele>206.3</ele>
        <time>2022-04-14T15:52:07Z</time>
      </trkpt>
      <trkpt lat="42.8226650" lon="-8.5440950">
        <ele>206.5</ele>
        <time>2022-04-14T15:52:08Z</time>
      </trkpt>
      <trkpt lat="42.8227230" lon="-8.5440690">
        <ele>206.7</ele>
        <time>2022-04-14T15:52:09Z</time>
      </trkpt>
      <trkpt lat="42.8227790" lon="-8.5440440">
        <ele>207.0</ele>
        <time>2022-04-14T15:52:10Z</time>
      </trkpt>
      <trkpt lat="42.8228090" lon="-8.5440300">
        <ele>207.1</ele>
        <time>2022-04-14T15:52:11Z</time>
      </trkpt>
      <trkpt lat="42.8228390" lon="-8.5440150">
        <ele>207.2</ele>
        <time>2022-04-14T15:52:12Z</time>
      </trkpt>
      <trkpt lat="42.8229570" lon="-8.5439630">
        <ele>207.6</ele>
        <time>2022-04-14T15:52:13Z</time>
      </trkpt>
      <trkpt lat="42.8230160" lon="-8.5439390">
        <ele>207.9</ele>
        <time>2022-04-14T15:52:14Z</time>
      </trkpt>
      <trkpt lat="42.8230740" lon="-8.5439150">
        <ele>208.2</ele>
        <time>2022-04-14T15:52:15Z</time>
      </trkpt>
      <trkpt lat="42.8231330" lon="-8.5438910">
        <ele>208.5</ele>
        <time>2022-04-14T15:52:16Z</time>
      </trkpt>
      <trkpt lat="42.8231910" lon="-8.5438660">
        <ele>208.8</ele>
        <time>2022-04-14T15:52:17Z</time>
      </trkpt>
      <trkpt lat="42.8232180" lon="-8.5438520">
        <ele>209.0</ele>
        <time>2022-04-14T15:52:18Z</time>
      </trkpt>
      <trkpt lat="42.8232450" lon="-8.5438380">
        <ele>209.2</ele>
        <time>2022-04-14T15:52:19Z</time>
      </trkpt>
      <trkpt lat="42.8233530" lon="-8.5437860">
        <ele>209.8</ele>
        <time>2022-04-14T15:52:20Z</time>
      </trkpt>
      <trkpt lat="42.8234070" lon="-8.5437630">
        <ele>210.2</ele>
        <time>2022-04-14T15:52:21Z</time>
      </trkpt>
      <trkpt lat="42.8234610" lon="-8.5437400">
        <ele>210.5</ele>
        <time>2022-04-14T15:52:22Z</time>
      </trkpt>
      <trkpt lat="42.8235150" lon="-8.5437170">
        <ele>210.9</ele>
        <time>2022-04-14T15:52:23Z</time>
      </trkpt>
      <trkpt lat="42.8235600" lon="-8.5437070">
        <ele>211.1</ele>
        <time>2022-04-14T15:52:24Z</time>
      </trkpt>
      <trkpt lat="42.8235600" lon="-8.5437070">
        <ele>211.1</ele>
        <time>2022-04-14T15:52:25Z</time>
      </trkpt>
      <trkpt lat="42.8236570" lon="-8.5436780">
        <ele>211.7</ele>
        <time>2022-04-14T15:52:26Z</time>
      </trkpt>
      <trkpt lat="42.8237580" lon="-8.5436390">
        <ele>212.4</ele>
        <time>2022-04-14T15:52:27Z</time>
      </trkpt>
      <trkpt lat="42.8237580" lon="-8.5436390">
        <ele>212.4</ele>
        <time>2022-04-14T15:52:28Z</time>
      </trkpt>
      <trkpt lat="42.8237870" lon="-8.5436230">
        <ele>212.6</ele>
        <time>2022-04-14T15:52:29Z</time>
      </trkpt>
      <trkpt lat="42.8238160" lon="-8.5436080">
        <ele>212.8</ele>
        <time>2022-04-14T15:52:30Z</time>
      </trkpt>
      <trkpt lat="42.8239290" lon="-8.5435490">
        <ele>213.6</ele>
        <time>2022-04-14T15:52:31Z</time>
      </trkpt>
      <trkpt lat="42.8239830" lon="-8.5435210">
        <ele>214.0</ele>
        <time>2022-04-14T15:52:32Z</time>
      </trkpt>
      <trkpt lat="42.8241090" lon="-8.5434560">
        <ele>215.0</ele>
        <time>2022-04-14T15:52:33Z</time>
      </trkpt>
      <trkpt lat="42.8241260" lon="-8.5434490">
        <ele>215.1</ele>
        <time>2022-04-14T15:52:34Z</time>
      </trkpt>
      <trkpt lat="42.8241430" lon="-8.5434420">
        <ele>215.2</ele>
        <time>2022-04-14T15:52:35Z</time>
      </trkpt>
      <trkpt lat="42.8241950" lon="-8.5434200">
        <ele>215.4</ele>
        <time>2022-04-14T15:52:36Z</time>
      </trkpt>
      <trkpt lat="42.8242290" lon="-8.5433800">
        <ele>215.3</ele>
        <time>2022-04-14T15:52:37Z</time>
      </trkpt>
      <trkpt lat="42.8242640" lon="-8.5433410">
        <ele>215.3</ele>
        <time>2022-04-14T15:52:38Z</time>
      </trkpt>
      <trkpt lat="42.8242710" lon="-8.5433010">
        <ele>215.0</ele>
        <time>2022-04-14T15:52:39Z</time>
      </trkpt>
      <trkpt lat="42.8242770" lon="-8.5432600">
        <ele>214.7</ele>
        <time>2022-04-14T15:52:40Z</time>
      </trkpt>
      <trkpt lat="42.8242920" lon="-8.5430570">
        <ele>213.9</ele>
        <time>2022-04-14T15:52:41Z</time>
      </trkpt>
      <trkpt lat="42.8242930" lon="-8.5429350">
        <ele>213.7</ele>
        <time>2022-04-14T15:52:42Z</time>
      </trkpt>
      <trkpt lat="42.8242940" lon="-8.5428140">
        <ele>213.5</ele>
        <time>2022-04-14T15:52:43Z</time>
      </trkpt>
      <trkpt lat="42.8243020" lon="-8.5426890">
        <ele>213.5</ele>
        <time>2022-04-14T15:52:44Z</time>
      </trkpt>
      <trkpt lat="42.8242990" lon="-8.5425540">
        <ele>213.6</ele>
        <time>2022-04-14T15:52:45Z</time>
      </trkpt>
      <trkpt lat="42.8242910" lon="-8.5424200">
        <ele>213.9</ele>
        <time>2022-04-14T15:52:46Z</time>
      </trkpt>
      <trkpt lat="42.8242710" lon="-8.5423070">
        <ele>214.2</ele>
        <time>2022-04-14T15:52:47Z</time>
      </trkpt>
      <trkpt lat="42.8242510" lon="-8.5421940">
        <ele>214.6</ele>
        <time>2022-04-14T15:52:48Z</time>
      </trkpt>
      <trkpt lat="42.8242310" lon="-8.5420820">
        <ele>214.9</ele>
        <time>2022-04-14T15:52:49Z</time>
      </trkpt>
      <trkpt lat="42.8242040" lon="-8.5419750">
        <ele>215.2</ele>
        <time>2022-04-14T15:52:50Z</time>
      </trkpt>
      <trkpt lat="42.8241880" lon="-8.5419220">
        <ele>215.3</ele>
        <time>2022-04-14T15:52:51Z</time>
      </trkpt>
      <trkpt lat="42.8241710" lon="-8.5418690">
        <ele>215.3</ele>
        <time>2022-04-14T15:52:52Z</time>
      </trkpt>
      <trkpt lat="42.8241140" lon="-8.5416700">
        <ele>215.3</ele>
        <time>2022-04-14T15:52:53Z</time>
      </trkpt>
      <trkpt lat="42.8240890" lon="-8.5415770">
        <ele>215.2</ele>
        <time>2022-04-14T15:52:54Z</time>
      </trkpt>
      <trkpt lat="42.8240640" lon="-8.5414840">
        <ele>215.1</ele>
        <time>2022-04-14T15:52:55Z</time>
      </trkpt>
      <trkpt lat="42.8240290" lon="-8.5413740">
        <ele>214.9</ele>
        <time>2022-04-14T15:52:56Z</time>
      </trkpt>
      <trkpt lat="42.8240110" lon="-8.5413210">
        <ele>214.8</ele>
        <time>2022-04-14T15:52:57Z</time>
      </trkpt>
      <trkpt lat="42.8239470" lon="-8.5411240">
        <ele>214.5</ele>
        <time>2022-04-14T15:52:58Z</time>
      </trkpt>
      <trkpt lat="42.8239190" lon="-8.5410310">
        <ele>214.5</ele>
        <time>2022-04-14T15:52:59Z</time>
      </trkpt>
      <trkpt lat="42.8238910" lon="-8.5409380">
        <ele>214.3</ele>
        <time>2022-04-14T15:53:00Z</time>
      </trkpt>
      <trkpt lat="42.8238460" lon="-8.5407930">
        <ele>214.2</ele>
        <time>2022-04-14T15:53:01Z</time>
      </trkpt>
      <trkpt lat="42.8238190" lon="-8.5407060">
        <ele>214.1</ele>
        <time>2022-04-14T15:53:02Z</time>
      </trkpt>
      <trkpt lat="42.8237640" lon="-8.5405320">
        <ele>213.9</ele>
        <time>2022-04-14T15:53:03Z</time>
      </trkpt>
      <trkpt lat="42.8237130" lon="-8.5403470">
        <ele>213.7</ele>
        <time>2022-04-14T15:53:04Z</time>
      </trkpt>
      <trkpt lat="42.8236960" lon="-8.5402840">
        <ele>213.6</ele>
        <time>2022-04-14T15:53:05Z</time>
      </trkpt>
      <trkpt lat="42.8236600" lon="-8.5401580">
        <ele>213.5</ele>
        <time>2022-04-14T15:53:06Z</time>
      </trkpt>
      <trkpt lat="42.8236340" lon="-8.5400690">
        <ele>213.4</ele>
        <time>2022-04-14T15:53:07Z</time>
      </trkpt>
      <trkpt lat="42.8236080" lon="-8.5399800">
        <ele>213.3</ele>
        <time>2022-04-14T15:53:08Z</time>
      </trkpt>
      <trkpt lat="42.8235400" lon="-8.5397440">
        <ele>213.1</ele>
        <time>2022-04-14T15:53:09Z</time>
      </trkpt>
      <trkpt lat="42.8235230" lon="-8.5396860">
        <ele>213.0</ele>
        <time>2022-04-14T15:53:10Z</time>
      </trkpt>
      <trkpt lat="42.8234900" lon="-8.5395700">
        <ele>212.9</ele>
        <time>2022-04-14T15:53:11Z</time>
      </trkpt>
      <trkpt lat="42.8234370" lon="-8.5393870">
        <ele>212.6</ele>
        <time>2022-04-14T15:53:12Z</time>
      </trkpt>
      <trkpt lat="42.8234180" lon="-8.5393210">
        <ele>212.5</ele>
        <time>2022-04-14T15:53:13Z</time>
      </trkpt>
      <trkpt lat="42.8233630" lon="-8.5391280">
        <ele>212.2</ele>
        <time>2022-04-14T15:53:14Z</time>
      </trkpt>
      <trkpt lat="42.8233450" lon="-8.5390650">
        <ele>212.1</ele>
        <time>2022-04-14T15:53:15Z</time>
      </trkpt>
      <trkpt lat="42.8233090" lon="-8.5389390">
        <ele>211.9</ele>
        <time>2022-04-14T15:53:16Z</time>
      </trkpt>
      <trkpt lat="42.8232740" lon="-8.5388090">
        <ele>211.7</ele>
        <time>2022-04-14T15:53:17Z</time>
      </trkpt>
      <trkpt lat="42.8232360" lon="-8.5386780">
        <ele>211.4</ele>
        <time>2022-04-14T15:53:18Z</time>
      </trkpt>
      <trkpt lat="42.8231760" lon="-8.5384810">
        <ele>211.0</ele>
        <time>2022-04-14T15:53:19Z</time>
      </trkpt>
      <trkpt lat="42.8231560" lon="-8.5384150">
        <ele>210.9</ele>
        <time>2022-04-14T15:53:20Z</time>
      </trkpt>
      <trkpt lat="42.8231170" lon="-8.5382830">
        <ele>210.6</ele>
        <time>2022-04-14T15:53:21Z</time>
      </trkpt>
      <trkpt lat="42.8230850" lon="-8.5381830">
        <ele>210.4</ele>
        <time>2022-04-14T15:53:22Z</time>
      </trkpt>
      <trkpt lat="42.8230520" lon="-8.5380820">
        <ele>210.1</ele>
        <time>2022-04-14T15:53:23Z</time>
      </trkpt>
      <trkpt lat="42.8229640" lon="-8.5378160">
        <ele>209.5</ele>
        <time>2022-04-14T15:53:24Z</time>
      </trkpt>
      <trkpt lat="42.8229410" lon="-8.5377510">
        <ele>209.4</ele>
        <time>2022-04-14T15:53:25Z</time>
      </trkpt>
      <trkpt lat="42.8228940" lon="-8.5376210">
        <ele>209.1</ele>
        <time>2022-04-14T15:53:26Z</time>
      </trkpt>
      <trkpt lat="42.8228470" lon="-8.5374880">
        <ele>208.8</ele>
        <time>2022-04-14T15:53:27Z</time>
      </trkpt>
      <trkpt lat="42.8228030" lon="-8.5373560">
        <ele>208.4</ele>
        <time>2022-04-14T15:53:28Z</time>
      </trkpt>
      <trkpt lat="42.8227280" lon="-8.5371640">
        <ele>207.9</ele>
        <time>2022-04-14T15:53:29Z</time>
      </trkpt>
      <trkpt lat="42.8227020" lon="-8.5371020">
        <ele>207.7</ele>
        <time>2022-04-14T15:53:30Z</time>
      </trkpt>
      <trkpt lat="42.8226310" lon="-8.5369480">
        <ele>207.3</ele>
        <time>2022-04-14T15:53:31Z</time>
      </trkpt>
      <trkpt lat="42.8226130" lon="-8.5369190">
        <ele>207.2</ele>
        <time>2022-04-14T15:53:32Z</time>
      </trkpt>
      <trkpt lat="42.8225380" lon="-8.5367180">
        <ele>206.3</ele>
        <time>2022-04-14T15:53:33Z</time>
      </trkpt>
      <trkpt lat="42.8224970" lon="-8.5365760">
        <ele>205.5</ele>
        <time>2022-04-14T15:53:34Z</time>
      </trkpt>
      <trkpt lat="42.8224570" lon="-8.5364340">
        <ele>204.5</ele>
        <time>2022-04-14T15:53:35Z</time>
      </trkpt>
      <trkpt lat="42.8224330" lon="-8.5362640">
        <ele>203.1</ele>
        <time>2022-04-14T15:53:36Z</time>
      </trkpt>
      <trkpt lat="42.8224370" lon="-8.5361000">
        <ele>201.6</ele>
        <time>2022-04-14T15:53:37Z</time>
      </trkpt>
      <trkpt lat="42.8224620" lon="-8.5358180">
        <ele>198.8</ele>
        <time>2022-04-14T15:53:38Z</time>
      </trkpt>
      <trkpt lat="42.8224730" lon="-8.5357200">
        <ele>197.8</ele>
        <time>2022-04-14T15:53:39Z</time>
      </trkpt>
      <trkpt lat="42.8224950" lon="-8.5355240">
        <ele>195.8</ele>
        <time>2022-04-14T15:53:40Z</time>
      </trkpt>
      <trkpt lat="42.8225170" lon="-8.5353090">
        <ele>193.7</ele>
        <time>2022-04-14T15:53:41Z</time>
      </trkpt>
      <trkpt lat="42.8225210" lon="-8.5352700">
        <ele>193.4</ele>
        <time>2022-04-14T15:53:42Z</time>
      </trkpt>
      <trkpt lat="42.8225340" lon="-8.5351430">
        <ele>192.3</ele>
        <time>2022-04-14T15:53:43Z</time>
      </trkpt>
      <trkpt lat="42.8225380" lon="-8.5350930">
        <ele>191.9</ele>
        <time>2022-04-14T15:53:44Z</time>
      </trkpt>
      <trkpt lat="42.8225510" lon="-8.5349560">
        <ele>191.0</ele>
        <time>2022-04-14T15:53:45Z</time>
      </trkpt>
      <trkpt lat="42.8225560" lon="-8.5349190">
        <ele>190.7</ele>
        <time>2022-04-14T15:53:46Z</time>
      </trkpt>
      <trkpt lat="42.8225710" lon="-8.5348000">
        <ele>190.2</ele>
        <time>2022-04-14T15:53:47Z</time>
      </trkpt>
      <trkpt lat="42.8225770" lon="-8.5347560">
        <ele>190.0</ele>
        <time>2022-04-14T15:53:48Z</time>
      </trkpt>
      <trkpt lat="42.8225830" lon="-8.5347120">
        <ele>189.9</ele>
        <time>2022-04-14T15:53:49Z</time>
      </trkpt>
      <trkpt lat="42.8225790" lon="-8.5346470">
        <ele>189.7</ele>
        <time>2022-04-14T15:53:50Z</time>
      </trkpt>
      <trkpt lat="42.8225760" lon="-8.5345820">
        <ele>189.5</ele>
        <time>2022-04-14T15:53:51Z</time>
      </trkpt>
      <trkpt lat="42.8225540" lon="-8.5343900">
        <ele>188.3</ele>
        <time>2022-04-14T15:53:52Z</time>
      </trkpt>
      <trkpt lat="42.8225400" lon="-8.5343270">
        <ele>187.8</ele>
        <time>2022-04-14T15:53:53Z</time>
      </trkpt>
      <trkpt lat="42.8225310" lon="-8.5342800">
        <ele>187.5</ele>
        <time>2022-04-14T15:53:54Z</time>
      </trkpt>
      <trkpt lat="42.8225220" lon="-8.5342330">
        <ele>187.2</ele>
        <time>2022-04-14T15:53:55Z</time>
      </trkpt>
      <trkpt lat="42.8224800" lon="-8.5340260">
        <ele>185.5</ele>
        <time>2022-04-14T15:53:56Z</time>
      </trkpt>
      <trkpt lat="42.8224550" lon="-8.5339130">
        <ele>184.4</ele>
        <time>2022-04-14T15:53:57Z</time>
      </trkpt>
      <trkpt lat="42.8224310" lon="-8.5338000">
        <ele>183.3</ele>
        <time>2022-04-14T15:53:58Z</time>
      </trkpt>
      <trkpt lat="42.8224000" lon="-8.5336820">
        <ele>182.2</ele>
        <time>2022-04-14T15:53:59Z</time>
      </trkpt>
      <trkpt lat="42.8223790" lon="-8.5335460">
        <ele>180.9</ele>
        <time>2022-04-14T15:54:00Z</time>
      </trkpt>
      <trkpt lat="42.8223380" lon="-8.5333250">
        <ele>178.9</ele>
        <time>2022-04-14T15:54:01Z</time>
      </trkpt>
      <trkpt lat="42.8223250" lon="-8.5332460">
        <ele>178.2</ele>
        <time>2022-04-14T15:54:02Z</time>
      </trkpt>
      <trkpt lat="42.8223000" lon="-8.5330880">
        <ele>177.0</ele>
        <time>2022-04-14T15:54:03Z</time>
      </trkpt>
      <trkpt lat="42.8222840" lon="-8.5329150">
        <ele>176.0</ele>
        <time>2022-04-14T15:54:04Z</time>
      </trkpt>
      <trkpt lat="42.8223030" lon="-8.5326490">
        <ele>174.3</ele>
        <time>2022-04-14T15:54:05Z</time>
      </trkpt>
      <trkpt lat="42.8223230" lon="-8.5325620">
        <ele>173.7</ele>
        <time>2022-04-14T15:54:06Z</time>
      </trkpt>
      <trkpt lat="42.8223640" lon="-8.5323900">
        <ele>172.7</ele>
        <time>2022-04-14T15:54:07Z</time>
      </trkpt>
      <trkpt lat="42.8224480" lon="-8.5322360">
        <ele>171.6</ele>
        <time>2022-04-14T15:54:08Z</time>
      </trkpt>
      <trkpt lat="42.8225760" lon="-8.5320530">
        <ele>170.5</ele>
        <time>2022-04-14T15:54:09Z</time>
      </trkpt>
      <trkpt lat="42.8226110" lon="-8.5319980">
        <ele>170.3</ele>
        <time>2022-04-14T15:54:10Z</time>
      </trkpt>
      <trkpt lat="42.8226810" lon="-8.5318880">
        <ele>170.0</ele>
        <time>2022-04-14T15:54:11Z</time>
      </trkpt>
      <trkpt lat="42.8226810" lon="-8.5318880">
        <ele>170.0</ele>
        <time>2022-04-14T15:54:12Z</time>
      </trkpt>
      <trkpt lat="42.8226810" lon="-8.5318880">
        <ele>170.0</ele>
        <time>2022-04-14T15:54:13Z</time>
      </trkpt>
      <trkpt lat="42.8226810" lon="-8.5318880">
        <ele>170.0</ele>
        <time>2022-04-14T15:54:14Z</time>
      </trkpt>
      <trkpt lat="42.8226810" lon="-8.5318880">
        <ele>170.0</ele>
        <time>2022-04-14T15:54:15Z</time>
      </trkpt>
      <trkpt lat="42.8226810" lon="-8.5318880">
        <ele>170.0</ele>
        <time>2022-04-14T15:54:16Z</time>
      </trkpt>
      <trkpt lat="42.8226810" lon="-8.5318880">
        <ele>170.0</ele>
        <time>2022-04-14T15:54:17Z</time>
      </trkpt>
      <trkpt lat="42.8226810" lon="-8.5318880">
        <ele>170.0</ele>
        <time>2022-04-14T15:54:18Z</time>
      </trkpt>
      <trkpt lat="42.8226810" lon="-8.5318880">
        <ele>170.0</ele>
        <time>2022-04-14T15:54:19Z</time>
      </trkpt>
      <trkpt lat="42.8227380" lon="-8.5305290">
        <ele>159.6</ele>
        <time>2022-04-14T15:54:20Z</time>
      </trkpt>
      <trkpt lat="42.8227120" lon="-8.5303200">
        <ele>158.0</ele>
        <time>2022-04-14T15:54:21Z</time>
      </trkpt>
      <trkpt lat="42.8226850" lon="-8.5300150">
        <ele>155.7</ele>
        <time>2022-04-14T15:54:22Z</time>
      </trkpt>
      <trkpt lat="42.8226830" lon="-8.5299190">
        <ele>155.1</ele>
        <time>2022-04-14T15:54:23Z</time>
      </trkpt>
      <trkpt lat="42.8226800" lon="-8.5297260">
        <ele>153.7</ele>
        <time>2022-04-14T15:54:24Z</time>
      </trkpt>
      <trkpt lat="42.8226800" lon="-8.5294210">
        <ele>151.9</ele>
        <time>2022-04-14T15:54:25Z</time>
      </trkpt>
      <trkpt lat="42.8226830" lon="-8.5293220">
        <ele>151.3</ele>
        <time>2022-04-14T15:54:26Z</time>
      </trkpt>
      <trkpt lat="42.8226880" lon="-8.5291240">
        <ele>150.2</ele>
        <time>2022-04-14T15:54:27Z</time>
      </trkpt>
      <trkpt lat="42.8226820" lon="-8.5288330">
        <ele>148.8</ele>
        <time>2022-04-14T15:54:28Z</time>
      </trkpt>
      <trkpt lat="42.8226800" lon="-8.5287350">
        <ele>148.4</ele>
        <time>2022-04-14T15:54:29Z</time>
      </trkpt>
      <trkpt lat="42.8226780" lon="-8.5284530">
        <ele>147.4</ele>
        <time>2022-04-14T15:54:30Z</time>
      </trkpt>
      <trkpt lat="42.8226780" lon="-8.5283650">
        <ele>147.1</ele>
        <time>2022-04-14T15:54:31Z</time>
      </trkpt>
      <trkpt lat="42.8226790" lon="-8.5281900">
        <ele>146.6</ele>
        <time>2022-04-14T15:54:32Z</time>
      </trkpt>
      <trkpt lat="42.8226770" lon="-8.5279330">
        <ele>146.0</ele>
        <time>2022-04-14T15:54:33Z</time>
      </trkpt>
      <trkpt lat="42.8226780" lon="-8.5278450">
        <ele>145.7</ele>
        <time>2022-04-14T15:54:34Z</time>
      </trkpt>
      <trkpt lat="42.8226800" lon="-8.5276690">
        <ele>145.4</ele>
        <time>2022-04-14T15:54:35Z</time>
      </trkpt>
      <trkpt lat="42.8227130" lon="-8.5273920">
        <ele>145.0</ele>
        <time>2022-04-14T15:54:36Z</time>
      </trkpt>
      <trkpt lat="42.8227260" lon="-8.5272970">
        <ele>144.9</ele>
        <time>2022-04-14T15:54:37Z</time>
      </trkpt>
      <trkpt lat="42.8227520" lon="-8.5271070">
        <ele>144.8</ele>
        <time>2022-04-14T15:54:38Z</time>
      </trkpt>
      <trkpt lat="42.8227850" lon="-8.5269470">
        <ele>144.7</ele>
        <time>2022-04-14T15:54:39Z</time>
      </trkpt>
      <trkpt lat="42.8227850" lon="-8.5268030">
        <ele>144.7</ele>
        <time>2022-04-14T15:54:40Z</time>
      </trkpt>
      <trkpt lat="42.8227850" lon="-8.5266600">
        <ele>144.7</ele>
        <time>2022-04-14T15:54:41Z</time>
      </trkpt>
      <trkpt lat="42.8227840" lon="-8.5265170">
        <ele>144.7</ele>
        <time>2022-04-14T15:54:42Z</time>
      </trkpt>
      <trkpt lat="42.8227840" lon="-8.5263730">
        <ele>144.6</ele>
        <time>2022-04-14T15:54:43Z</time>
      </trkpt>
      <trkpt lat="42.8227840" lon="-8.5262300">
        <ele>144.6</ele>
        <time>2022-04-14T15:54:44Z</time>
      </trkpt>
      <trkpt lat="42.8227190" lon="-8.5260890">
        <ele>144.5</ele>
        <time>2022-04-14T15:54:45Z</time>
      </trkpt>
      <trkpt lat="42.8226980" lon="-8.5260460">
        <ele>144.5</ele>
        <time>2022-04-14T15:54:46Z</time>
      </trkpt>
      <trkpt lat="42.8226500" lon="-8.5259180">
        <ele>144.5</ele>
        <time>2022-04-14T15:54:47Z</time>
      </trkpt>
      <trkpt lat="42.8226430" lon="-8.5258740">
        <ele>144.5</ele>
        <time>2022-04-14T15:54:48Z</time>
      </trkpt>
      <trkpt lat="42.8226290" lon="-8.5257860">
        <ele>144.4</ele>
        <time>2022-04-14T15:54:49Z</time>
      </trkpt>
      <trkpt lat="42.8226390" lon="-8.5257460">
        <ele>144.4</ele>
        <time>2022-04-14T15:54:50Z</time>
      </trkpt>
      <trkpt lat="42.8226480" lon="-8.5257060">
        <ele>144.4</ele>
        <time>2022-04-14T15:54:51Z</time>
      </trkpt>
      <trkpt lat="42.8227050" lon="-8.5255320">
        <ele>144.2</ele>
        <time>2022-04-14T15:54:52Z</time>
      </trkpt>
      <trkpt lat="42.8227420" lon="-8.5254370">
        <ele>144.1</ele>
        <time>2022-04-14T15:54:53Z</time>
      </trkpt>
      <trkpt lat="42.8227790" lon="-8.5253430">
        <ele>144.1</ele>
        <time>2022-04-14T15:54:54Z</time>
      </trkpt>
      <trkpt lat="42.8228180" lon="-8.5252470">
        <ele>144.0</ele>
        <time>2022-04-14T15:54:55Z</time>
      </trkpt>
      <trkpt lat="42.8228320" lon="-8.5251940">
        <ele>144.0</ele>
        <time>2022-04-14T15:54:56Z</time>
      </trkpt>
      <trkpt lat="42.8228460" lon="-8.5251410">
        <ele>144.0</ele>
        <time>2022-04-14T15:54:57Z</time>
      </trkpt>
      <trkpt lat="42.8228750" lon="-8.5249130">
        <ele>143.9</ele>
        <time>2022-04-14T15:54:58Z</time>
      </trkpt>
      <trkpt lat="42.8228770" lon="-8.5247910">
        <ele>143.8</ele>
        <time>2022-04-14T15:54:59Z</time>
      </trkpt>
      <trkpt lat="42.8228790" lon="-8.5246690">
        <ele>143.5</ele>
        <time>2022-04-14T15:55:00Z</time>
      </trkpt>
      <trkpt lat="42.8228820" lon="-8.5245410">
        <ele>142.8</ele>
        <time>2022-04-14T15:55:01Z</time>
      </trkpt>
      <trkpt lat="42.8228950" lon="-8.5244100">
        <ele>142.0</ele>
        <time>2022-04-14T15:55:02Z</time>
      </trkpt>
      <trkpt lat="42.8229120" lon="-8.5242750">
        <ele>141.1</ele>
        <time>2022-04-14T15:55:03Z</time>
      </trkpt>
      <trkpt lat="42.8229370" lon="-8.5240510">
        <ele>139.8</ele>
        <time>2022-04-14T15:55:04Z</time>
      </trkpt>
      <trkpt lat="42.8229460" lon="-8.5239750">
        <ele>139.4</ele>
        <time>2022-04-14T15:55:05Z</time>
      </trkpt>
      <trkpt lat="42.8229800" lon="-8.5237580">
        <ele>138.2</ele>
        <time>2022-04-14T15:55:06Z</time>
      </trkpt>
      <trkpt lat="42.8229950" lon="-8.5236900">
        <ele>137.8</ele>
        <time>2022-04-14T15:55:07Z</time>
      </trkpt>
      <trkpt lat="42.8230640" lon="-8.5235210">
        <ele>136.6</ele>
        <time>2022-04-14T15:55:08Z</time>
      </trkpt>
      <trkpt lat="42.8231040" lon="-8.5234860">
        <ele>136.2</ele>
        <time>2022-04-14T15:55:09Z</time>
      </trkpt>
      <trkpt lat="42.8231830" lon="-8.5234160">
        <ele>135.0</ele>
        <time>2022-04-14T15:55:10Z</time>
      </trkpt>
      <trkpt lat="42.8232920" lon="-8.5233970">
        <ele>133.6</ele>
        <time>2022-04-14T15:55:11Z</time>
      </trkpt>
      <trkpt lat="42.8234100" lon="-8.5233870">
        <ele>132.3</ele>
        <time>2022-04-14T15:55:12Z</time>
      </trkpt>
      <trkpt lat="42.8235900" lon="-8.5233710">
        <ele>130.4</ele>
        <time>2022-04-14T15:55:13Z</time>
      </trkpt>
      <trkpt lat="42.8236500" lon="-8.5233680">
        <ele>129.8</ele>
        <time>2022-04-14T15:55:14Z</time>
      </trkpt>
      <trkpt lat="42.8237690" lon="-8.5233640">
        <ele>128.7</ele>
        <time>2022-04-14T15:55:15Z</time>
      </trkpt>
      <trkpt lat="42.8238930" lon="-8.5233570">
        <ele>127.6</ele>
        <time>2022-04-14T15:55:16Z</time>
      </trkpt>
      <trkpt lat="42.8240660" lon="-8.5233480">
        <ele>126.2</ele>
        <time>2022-04-14T15:55:17Z</time>
      </trkpt>
      <trkpt lat="42.8241230" lon="-8.5233450">
        <ele>125.7</ele>
        <time>2022-04-14T15:55:18Z</time>
      </trkpt>
      <trkpt lat="42.8242370" lon="-8.5233400">
        <ele>124.7</ele>
        <time>2022-04-14T15:55:19Z</time>
      </trkpt>
      <trkpt lat="42.8243610" lon="-8.5233460">
        <ele>123.6</ele>
        <time>2022-04-14T15:55:20Z</time>
      </trkpt>
      <trkpt lat="42.8244820" lon="-8.5233910">
        <ele>122.3</ele>
        <time>2022-04-14T15:55:21Z</time>
      </trkpt>
      <trkpt lat="42.8246030" lon="-8.5234360">
        <ele>121.0</ele>
        <time>2022-04-14T15:55:22Z</time>
      </trkpt>
      <trkpt lat="42.8247230" lon="-8.5234800">
        <ele>119.8</ele>
        <time>2022-04-14T15:55:23Z</time>
      </trkpt>
      <trkpt lat="42.8248440" lon="-8.5235250">
        <ele>118.7</ele>
        <time>2022-04-14T15:55:24Z</time>
      </trkpt>
      <trkpt lat="42.8250050" lon="-8.5236350">
        <ele>117.7</ele>
        <time>2022-04-14T15:55:25Z</time>
      </trkpt>
      <trkpt lat="42.8250550" lon="-8.5236710">
        <ele>117.5</ele>
        <time>2022-04-14T15:55:26Z</time>
      </trkpt>
      <trkpt lat="42.8251570" lon="-8.5237440">
        <ele>117.1</ele>
        <time>2022-04-14T15:55:27Z</time>
      </trkpt>
      <trkpt lat="42.8252530" lon="-8.5237820">
        <ele>117.0</ele>
        <time>2022-04-14T15:55:28Z</time>
      </trkpt>
      <trkpt lat="42.8253600" lon="-8.5238120">
        <ele>116.8</ele>
        <time>2022-04-14T15:55:29Z</time>
      </trkpt>
      <trkpt lat="42.8254840" lon="-8.5237910">
        <ele>116.6</ele>
        <time>2022-04-14T15:55:30Z</time>
      </trkpt>
      <trkpt lat="42.8255060" lon="-8.5237880">
        <ele>116.5</ele>
        <time>2022-04-14T15:55:31Z</time>
      </trkpt>
      <trkpt lat="42.8256220" lon="-8.5237520">
        <ele>116.0</ele>
        <time>2022-04-14T15:55:32Z</time>
      </trkpt>
      <trkpt lat="42.8256930" lon="-8.5237230">
        <ele>115.6</ele>
        <time>2022-04-14T15:55:33Z</time>
      </trkpt>
      <trkpt lat="42.8258350" lon="-8.5236640">
        <ele>114.6</ele>
        <time>2022-04-14T15:55:34Z</time>
      </trkpt>
      <trkpt lat="42.8259950" lon="-8.5235970">
        <ele>113.1</ele>
        <time>2022-04-14T15:55:35Z</time>
      </trkpt>
      <trkpt lat="42.8260490" lon="-8.5235810">
        <ele>112.5</ele>
        <time>2022-04-14T15:55:36Z</time>
      </trkpt>
      <trkpt lat="42.8261590" lon="-8.5235470">
        <ele>111.3</ele>
        <time>2022-04-14T15:55:37Z</time>
      </trkpt>
      <trkpt lat="42.8262650" lon="-8.5235610">
        <ele>110.2</ele>
        <time>2022-04-14T15:55:38Z</time>
      </trkpt>
      <trkpt lat="42.8264240" lon="-8.5236430">
        <ele>108.7</ele>
        <time>2022-04-14T15:55:39Z</time>
      </trkpt>
      <trkpt lat="42.8264780" lon="-8.5236740">
        <ele>108.3</ele>
        <time>2022-04-14T15:55:40Z</time>
      </trkpt>
      <trkpt lat="42.8265880" lon="-8.5237370">
        <ele>107.6</ele>
        <time>2022-04-14T15:55:41Z</time>
      </trkpt>
      <trkpt lat="42.8266850" lon="-8.5238110">
        <ele>107.1</ele>
        <time>2022-04-14T15:55:42Z</time>
      </trkpt>
      <trkpt lat="42.8267760" lon="-8.5238910">
        <ele>107.6</ele>
        <time>2022-04-14T15:55:43Z</time>
      </trkpt>
      <trkpt lat="42.8268800" lon="-8.5239990">
        <ele>107.4</ele>
        <time>2022-04-14T15:55:44Z</time>
      </trkpt>
      <trkpt lat="42.8269000" lon="-8.5240190">
        <ele>107.4</ele>
        <time>2022-04-14T15:55:45Z</time>
      </trkpt>
      <trkpt lat="42.8269700" lon="-8.5240930">
        <ele>107.4</ele>
        <time>2022-04-14T15:55:46Z</time>
      </trkpt>
      <trkpt lat="42.8269980" lon="-8.5241270">
        <ele>107.4</ele>
        <time>2022-04-14T15:55:47Z</time>
      </trkpt>
      <trkpt lat="42.8270820" lon="-8.5242200">
        <ele>107.5</ele>
        <time>2022-04-14T15:55:48Z</time>
      </trkpt>
      <trkpt lat="42.8271080" lon="-8.5242470">
        <ele>107.5</ele>
        <time>2022-04-14T15:55:49Z</time>
      </trkpt>
      <trkpt lat="42.8272410" lon="-8.5243340">
        <ele>107.8</ele>
        <time>2022-04-14T15:55:50Z</time>
      </trkpt>
      <trkpt lat="42.8273200" lon="-8.5243670">
        <ele>108.0</ele>
        <time>2022-04-14T15:55:51Z</time>
      </trkpt>
      <trkpt lat="42.8273990" lon="-8.5243990">
        <ele>108.2</ele>
        <time>2022-04-14T15:55:52Z</time>
      </trkpt>
      <trkpt lat="42.8274610" lon="-8.5244130">
        <ele>108.3</ele>
        <time>2022-04-14T15:55:53Z</time>
      </trkpt>
      <trkpt lat="42.8274980" lon="-8.5243980">
        <ele>108.6</ele>
        <time>2022-04-14T15:55:54Z</time>
      </trkpt>
      <trkpt lat="42.8275340" lon="-8.5243830">
        <ele>108.8</ele>
        <time>2022-04-14T15:55:55Z</time>
      </trkpt>
      <trkpt lat="42.8276610" lon="-8.5243040">
        <ele>109.8</ele>
        <time>2022-04-14T15:55:56Z</time>
      </trkpt>
      <trkpt lat="42.8277150" lon="-8.5242540">
        <ele>110.3</ele>
        <time>2022-04-14T15:55:57Z</time>
      </trkpt>
      <trkpt lat="42.8277680" lon="-8.5242040">
        <ele>110.9</ele>
        <time>2022-04-14T15:55:58Z</time>
      </trkpt>
      <trkpt lat="42.8278090" lon="-8.5241440">
        <ele>111.4</ele>
        <time>2022-04-14T15:55:59Z</time>
      </trkpt>
      <trkpt lat="42.8278190" lon="-8.5241100">
        <ele>111.7</ele>
        <time>2022-04-14T15:56:00Z</time>
      </trkpt>
      <trkpt lat="42.8278290" lon="-8.5240750">
        <ele>112.0</ele>
        <time>2022-04-14T15:56:01Z</time>
      </trkpt>
      <trkpt lat="42.8278420" lon="-8.5239650">
        <ele>112.7</ele>
        <time>2022-04-14T15:56:02Z</time>
      </trkpt>
      <trkpt lat="42.8278350" lon="-8.5239230">
        <ele>113.0</ele>
        <time>2022-04-14T15:56:03Z</time>
      </trkpt>
      <trkpt lat="42.8278280" lon="-8.5238820">
        <ele>113.3</ele>
        <time>2022-04-14T15:56:04Z</time>
      </trkpt>
      <trkpt lat="42.8278100" lon="-8.5238330">
        <ele>113.7</ele>
        <time>2022-04-14T15:56:05Z</time>
      </trkpt>
      <trkpt lat="42.8277910" lon="-8.5237830">
        <ele>114.1</ele>
        <time>2022-04-14T15:56:06Z</time>
      </trkpt>
      <trkpt lat="42.8277730" lon="-8.5237340">
        <ele>114.5</ele>
        <time>2022-04-14T15:56:07Z</time>
      </trkpt>
      <trkpt lat="42.8277550" lon="-8.5236940">
        <ele>114.9</ele>
        <time>2022-04-14T15:56:08Z</time>
      </trkpt>
      <trkpt lat="42.8277370" lon="-8.5236540">
        <ele>115.2</ele>
        <time>2022-04-14T15:56:09Z</time>
      </trkpt>
      <trkpt lat="42.8276840" lon="-8.5235140">
        <ele>116.4</ele>
        <time>2022-04-14T15:56:10Z</time>
      </trkpt>
      <trkpt lat="42.8276660" lon="-8.5234540">
        <ele>116.9</ele>
        <time>2022-04-14T15:56:11Z</time>
      </trkpt>
      <trkpt lat="42.8276520" lon="-8.5234320">
        <ele>117.1</ele>
        <time>2022-04-14T15:56:12Z</time>
      </trkpt>
      <trkpt lat="42.8276380" lon="-8.5234100">
        <ele>117.3</ele>
        <time>2022-04-14T15:56:13Z</time>
      </trkpt>
      <trkpt lat="42.8276240" lon="-8.5233880">
        <ele>117.5</ele>
        <time>2022-04-14T15:56:14Z</time>
      </trkpt>
      <trkpt lat="42.8275530" lon="-8.5232660">
        <ele>118.6</ele>
        <time>2022-04-14T15:56:15Z</time>
      </trkpt>
      <trkpt lat="42.8275230" lon="-8.5232100">
        <ele>119.0</ele>
        <time>2022-04-14T15:56:16Z</time>
      </trkpt>
      <trkpt lat="42.8275010" lon="-8.5231810">
        <ele>119.3</ele>
        <time>2022-04-14T15:56:17Z</time>
      </trkpt>
      <trkpt lat="42.8274790" lon="-8.5231520">
        <ele>119.6</ele>
        <time>2022-04-14T15:56:18Z</time>
      </trkpt>
      <trkpt lat="42.8274570" lon="-8.5231230">
        <ele>120.0</ele>
        <time>2022-04-14T15:56:19Z</time>
      </trkpt>
      <trkpt lat="42.8274350" lon="-8.5230940">
        <ele>120.3</ele>
        <time>2022-04-14T15:56:20Z</time>
      </trkpt>
      <trkpt lat="42.8274120" lon="-8.5230500">
        <ele>120.7</ele>
        <time>2022-04-14T15:56:21Z</time>
      </trkpt>
      <trkpt lat="42.8273900" lon="-8.5230050">
        <ele>121.1</ele>
        <time>2022-04-14T15:56:22Z</time>
      </trkpt>
      <trkpt lat="42.8273670" lon="-8.5229610">
        <ele>121.6</ele>
        <time>2022-04-14T15:56:23Z</time>
      </trkpt>
      <trkpt lat="42.8273690" lon="-8.5229240">
        <ele>121.8</ele>
        <time>2022-04-14T15:56:24Z</time>
      </trkpt>
      <trkpt lat="42.8273720" lon="-8.5228880">
        <ele>122.1</ele>
        <time>2022-04-14T15:56:25Z</time>
      </trkpt>
      <trkpt lat="42.8273990" lon="-8.5228080">
        <ele>123.8</ele>
        <time>2022-04-14T15:56:26Z</time>
      </trkpt>
      <trkpt lat="42.8274210" lon="-8.5228020">
        <ele>124.0</ele>
        <time>2022-04-14T15:56:27Z</time>
      </trkpt>
      <trkpt lat="42.8274440" lon="-8.5227960">
        <ele>124.1</ele>
        <time>2022-04-14T15:56:28Z</time>
      </trkpt>
      <trkpt lat="42.8275450" lon="-8.5227770">
        <ele>124.3</ele>
        <time>2022-04-14T15:56:29Z</time>
      </trkpt>
      <trkpt lat="42.8275770" lon="-8.5227750">
        <ele>124.4</ele>
        <time>2022-04-14T15:56:30Z</time>
      </trkpt>
      <trkpt lat="42.8276100" lon="-8.5227740">
        <ele>124.4</ele>
        <time>2022-04-14T15:56:31Z</time>
      </trkpt>
      <trkpt lat="42.8277260" lon="-8.5227770">
        <ele>124.5</ele>
        <time>2022-04-14T15:56:32Z</time>
      </trkpt>
      <trkpt lat="42.8277570" lon="-8.5227790">
        <ele>124.5</ele>
        <time>2022-04-14T15:56:33Z</time>
      </trkpt>
      <trkpt lat="42.8277880" lon="-8.5227810">
        <ele>124.5</ele>
        <time>2022-04-14T15:56:34Z</time>
      </trkpt>
      <trkpt lat="42.8278840" lon="-8.5227850">
        <ele>124.6</ele>
        <time>2022-04-14T15:56:35Z</time>
      </trkpt>
      <trkpt lat="42.8279180" lon="-8.5227860">
        <ele>124.6</ele>
        <time>2022-04-14T15:56:36Z</time>
      </trkpt>
      <trkpt lat="42.8280550" lon="-8.5227920">
        <ele>124.7</ele>
        <time>2022-04-14T15:56:37Z</time>
      </trkpt>
      <trkpt lat="42.8281220" lon="-8.5227980">
        <ele>124.6</ele>
        <time>2022-04-14T15:56:38Z</time>
      </trkpt>
      <trkpt lat="42.8281900" lon="-8.5228040">
        <ele>124.6</ele>
        <time>2022-04-14T15:56:39Z</time>
      </trkpt>
      <trkpt lat="42.8282560" lon="-8.5228130">
        <ele>124.6</ele>
        <time>2022-04-14T15:56:40Z</time>
      </trkpt>
      <trkpt lat="42.8282920" lon="-8.5228170">
        <ele>124.6</ele>
        <time>2022-04-14T15:56:41Z</time>
      </trkpt>
      <trkpt lat="42.8283280" lon="-8.5228210">
        <ele>124.5</ele>
        <time>2022-04-14T15:56:42Z</time>
      </trkpt>
      <trkpt lat="42.8284360" lon="-8.5228310">
        <ele>124.4</ele>
        <time>2022-04-14T15:56:43Z</time>
      </trkpt>
      <trkpt lat="42.8284720" lon="-8.5228330">
        <ele>124.3</ele>
        <time>2022-04-14T15:56:44Z</time>
      </trkpt>
      <trkpt lat="42.8286250" lon="-8.5228460">
        <ele>124.1</ele>
        <time>2022-04-14T15:56:45Z</time>
      </trkpt>
      <trkpt lat="42.8287060" lon="-8.5228540">
        <ele>124.0</ele>
        <time>2022-04-14T15:56:46Z</time>
      </trkpt>
      <trkpt lat="42.8287880" lon="-8.5228620">
        <ele>123.9</ele>
        <time>2022-04-14T15:56:47Z</time>
      </trkpt>
      <trkpt lat="42.8288700" lon="-8.5228680">
        <ele>123.8</ele>
        <time>2022-04-14T15:56:48Z</time>
      </trkpt>
      <trkpt lat="42.8289360" lon="-8.5228770">
        <ele>123.7</ele>
        <time>2022-04-14T15:56:49Z</time>
      </trkpt>
      <trkpt lat="42.8290020" lon="-8.5228850">
        <ele>123.6</ele>
        <time>2022-04-14T15:56:50Z</time>
      </trkpt>
      <trkpt lat="42.8291340" lon="-8.5229020">
        <ele>123.6</ele>
        <time>2022-04-14T15:56:51Z</time>
      </trkpt>
      <trkpt lat="42.8291340" lon="-8.5229020">
        <ele>123.6</ele>
        <time>2022-04-14T15:56:52Z</time>
      </trkpt>
      <trkpt lat="42.8293090" lon="-8.5229250">
        <ele>123.6</ele>
        <time>2022-04-14T15:56:53Z</time>
      </trkpt>
      <trkpt lat="42.8293530" lon="-8.5229310">
        <ele>123.6</ele>
        <time>2022-04-14T15:56:54Z</time>
      </trkpt>
      <trkpt lat="42.8293960" lon="-8.5229370">
        <ele>123.6</ele>
        <time>2022-04-14T15:56:55Z</time>
      </trkpt>
      <trkpt lat="42.8295640" lon="-8.5229630">
        <ele>123.6</ele>
        <time>2022-04-14T15:56:56Z</time>
      </trkpt>
      <trkpt lat="42.8296450" lon="-8.5229770">
        <ele>123.6</ele>
        <time>2022-04-14T15:56:57Z</time>
      </trkpt>
      <trkpt lat="42.8297250" lon="-8.5229920">
        <ele>123.6</ele>
        <time>2022-04-14T15:56:58Z</time>
      </trkpt>
      <trkpt lat="42.8298050" lon="-8.5230080">
        <ele>123.7</ele>
        <time>2022-04-14T15:56:59Z</time>
      </trkpt>
      <trkpt lat="42.8298430" lon="-8.5230160">
        <ele>123.8</ele>
        <time>2022-04-14T15:57:00Z</time>
      </trkpt>
      <trkpt lat="42.8298810" lon="-8.5230250">
        <ele>123.8</ele>
        <time>2022-04-14T15:57:01Z</time>
      </trkpt>
      <trkpt lat="42.8300320" lon="-8.5230610">
        <ele>124.1</ele>
        <time>2022-04-14T15:57:02Z</time>
      </trkpt>
      <trkpt lat="42.8301060" lon="-8.5230800">
        <ele>124.3</ele>
        <time>2022-04-14T15:57:03Z</time>
      </trkpt>
      <trkpt lat="42.8301800" lon="-8.5230990">
        <ele>124.4</ele>
        <time>2022-04-14T15:57:04Z</time>
      </trkpt>
      <trkpt lat="42.8302540" lon="-8.5231180">
        <ele>124.4</ele>
        <time>2022-04-14T15:57:05Z</time>
      </trkpt>
      <trkpt lat="42.8302910" lon="-8.5231270">
        <ele>124.4</ele>
        <time>2022-04-14T15:57:06Z</time>
      </trkpt>
      <trkpt lat="42.8303280" lon="-8.5231360">
        <ele>124.4</ele>
        <time>2022-04-14T15:57:07Z</time>
      </trkpt>
      <trkpt lat="42.8304860" lon="-8.5231730">
        <ele>124.3</ele>
        <time>2022-04-14T15:57:08Z</time>
      </trkpt>
      <trkpt lat="42.8305690" lon="-8.5231930">
        <ele>124.2</ele>
        <time>2022-04-14T15:57:09Z</time>
      </trkpt>
      <trkpt lat="42.8306520" lon="-8.5232130">
        <ele>124.0</ele>
        <time>2022-04-14T15:57:10Z</time>
      </trkpt>
      <trkpt lat="42.8307370" lon="-8.5232330">
        <ele>123.9</ele>
        <time>2022-04-14T15:57:11Z</time>
      </trkpt>
      <trkpt lat="42.8308280" lon="-8.5232560">
        <ele>123.6</ele>
        <time>2022-04-14T15:57:12Z</time>
      </trkpt>
      <trkpt lat="42.8308950" lon="-8.5232750">
        <ele>123.4</ele>
        <time>2022-04-14T15:57:13Z</time>
      </trkpt>
      <trkpt lat="42.8309620" lon="-8.5232940">
        <ele>123.2</ele>
        <time>2022-04-14T15:57:14Z</time>
      </trkpt>
      <trkpt lat="42.8310960" lon="-8.5233310">
        <ele>122.9</ele>
        <time>2022-04-14T15:57:15Z</time>
      </trkpt>
      <trkpt lat="42.8310960" lon="-8.5233310">
        <ele>122.9</ele>
        <time>2022-04-14T15:57:16Z</time>
      </trkpt>
      <trkpt lat="42.8312760" lon="-8.5233770">
        <ele>122.5</ele>
        <time>2022-04-14T15:57:17Z</time>
      </trkpt>
      <trkpt lat="42.8313500" lon="-8.5233960">
        <ele>122.5</ele>
        <time>2022-04-14T15:57:18Z</time>
      </trkpt>
      <trkpt lat="42.8314250" lon="-8.5234160">
        <ele>122.5</ele>
        <time>2022-04-14T15:57:19Z</time>
      </trkpt>
      <trkpt lat="42.8315000" lon="-8.5234350">
        <ele>122.5</ele>
        <time>2022-04-14T15:57:20Z</time>
      </trkpt>
      <trkpt lat="42.8315480" lon="-8.5234440">
        <ele>122.6</ele>
        <time>2022-04-14T15:57:21Z</time>
      </trkpt>
      <trkpt lat="42.8317140" lon="-8.5234880">
        <ele>122.7</ele>
        <time>2022-04-14T15:57:22Z</time>
      </trkpt>
      <trkpt lat="42.8318110" lon="-8.5235010">
        <ele>122.8</ele>
        <time>2022-04-14T15:57:23Z</time>
      </trkpt>
      <trkpt lat="42.8319050" lon="-8.5235130">
        <ele>123.0</ele>
        <time>2022-04-14T15:57:24Z</time>
      </trkpt>
      <trkpt lat="42.8320500" lon="-8.5235350">
        <ele>123.1</ele>
        <time>2022-04-14T15:57:25Z</time>
      </trkpt>
      <trkpt lat="42.8320960" lon="-8.5235430">
        <ele>123.2</ele>
        <time>2022-04-14T15:57:26Z</time>
      </trkpt>
      <trkpt lat="42.8321870" lon="-8.5235580">
        <ele>123.3</ele>
        <time>2022-04-14T15:57:27Z</time>
      </trkpt>
      <trkpt lat="42.8322320" lon="-8.5235610">
        <ele>123.4</ele>
        <time>2022-04-14T15:57:28Z</time>
      </trkpt>
      <trkpt lat="42.8322770" lon="-8.5235640">
        <ele>123.4</ele>
        <time>2022-04-14T15:57:29Z</time>
      </trkpt>
      <trkpt lat="42.8324660" lon="-8.5235570">
        <ele>123.5</ele>
        <time>2022-04-14T15:57:30Z</time>
      </trkpt>
      <trkpt lat="42.8325660" lon="-8.5235430">
        <ele>123.5</ele>
        <time>2022-04-14T15:57:31Z</time>
      </trkpt>
      <trkpt lat="42.8326660" lon="-8.5235290">
        <ele>123.3</ele>
        <time>2022-04-14T15:57:32Z</time>
      </trkpt>
      <trkpt lat="42.8327980" lon="-8.5234930">
        <ele>122.9</ele>
        <time>2022-04-14T15:57:33Z</time>
      </trkpt>
      <trkpt lat="42.8327980" lon="-8.5234930">
        <ele>122.9</ele>
        <time>2022-04-14T15:57:34Z</time>
      </trkpt>
      <trkpt lat="42.8328920" lon="-8.5234570">
        <ele>122.6</ele>
        <time>2022-04-14T15:57:35Z</time>
      </trkpt>
      <trkpt lat="42.8330310" lon="-8.5234020">
        <ele>122.1</ele>
        <time>2022-04-14T15:57:36Z</time>
      </trkpt>
      <trkpt lat="42.8330770" lon="-8.5233830">
        <ele>121.9</ele>
        <time>2022-04-14T15:57:37Z</time>
      </trkpt>
      <trkpt lat="42.8332190" lon="-8.5233180">
        <ele>121.2</ele>
        <time>2022-04-14T15:57:38Z</time>
      </trkpt>
      <trkpt lat="42.8332660" lon="-8.5232900">
        <ele>121.0</ele>
        <time>2022-04-14T15:57:39Z</time>
      </trkpt>
      <trkpt lat="42.8333620" lon="-8.5232350">
        <ele>120.5</ele>
        <time>2022-04-14T15:57:40Z</time>
      </trkpt>
      <trkpt lat="42.8334490" lon="-8.5231790">
        <ele>120.1</ele>
        <time>2022-04-14T15:57:41Z</time>
      </trkpt>
      <trkpt lat="42.8335990" lon="-8.5230830">
        <ele>119.5</ele>
        <time>2022-04-14T15:57:42Z</time>
      </trkpt>
      <trkpt lat="42.8336510" lon="-8.5230570">
        <ele>119.3</ele>
        <time>2022-04-14T15:57:43Z</time>
      </trkpt>
      <trkpt lat="42.8337550" lon="-8.5230030">
        <ele>118.9</ele>
        <time>2022-04-14T15:57:44Z</time>
      </trkpt>
      <trkpt lat="42.8338570" lon="-8.5229550">
        <ele>118.5</ele>
        <time>2022-04-14T15:57:45Z</time>
      </trkpt>
      <trkpt lat="42.8340240" lon="-8.5229020">
        <ele>117.9</ele>
        <time>2022-04-14T15:57:46Z</time>
      </trkpt>
      <trkpt lat="42.8340800" lon="-8.5228870">
        <ele>117.7</ele>
        <time>2022-04-14T15:57:47Z</time>
      </trkpt>
      <trkpt lat="42.8341930" lon="-8.5228560">
        <ele>117.3</ele>
        <time>2022-04-14T15:57:48Z</time>
      </trkpt>
      <trkpt lat="42.8343030" lon="-8.5228460">
        <ele>116.9</ele>
        <time>2022-04-14T15:57:49Z</time>
      </trkpt>
      <trkpt lat="42.8344820" lon="-8.5228410">
        <ele>116.2</ele>
        <time>2022-04-14T15:57:50Z</time>
      </trkpt>
      <trkpt lat="42.8345390" lon="-8.5228390">
        <ele>116.1</ele>
        <time>2022-04-14T15:57:51Z</time>
      </trkpt>
      <trkpt lat="42.8346550" lon="-8.5228350">
        <ele>115.9</ele>
        <time>2022-04-14T15:57:52Z</time>
      </trkpt>
      <trkpt lat="42.8347710" lon="-8.5228320">
        <ele>115.7</ele>
        <time>2022-04-14T15:57:53Z</time>
      </trkpt>
      <trkpt lat="42.8348870" lon="-8.5228390">
        <ele>115.7</ele>
        <time>2022-04-14T15:57:54Z</time>
      </trkpt>
      <trkpt lat="42.8350630" lon="-8.5228400">
        <ele>115.8</ele>
        <time>2022-04-14T15:57:55Z</time>
      </trkpt>
      <trkpt lat="42.8351200" lon="-8.5228410">
        <ele>115.8</ele>
        <time>2022-04-14T15:57:56Z</time>
      </trkpt>
      <trkpt lat="42.8352880" lon="-8.5228410">
        <ele>116.0</ele>
        <time>2022-04-14T15:57:57Z</time>
      </trkpt>
      <trkpt lat="42.8353410" lon="-8.5228380">
        <ele>116.0</ele>
        <time>2022-04-14T15:57:58Z</time>
      </trkpt>
      <trkpt lat="42.8354480" lon="-8.5228310">
        <ele>116.3</ele>
        <time>2022-04-14T15:57:59Z</time>
      </trkpt>
      <trkpt lat="42.8354480" lon="-8.5228310">
        <ele>116.3</ele>
        <time>2022-04-14T15:58:00Z</time>
      </trkpt>
      <trkpt lat="42.8355280" lon="-8.5228290">
        <ele>116.5</ele>
        <time>2022-04-14T15:58:01Z</time>
      </trkpt>
      <trkpt lat="42.8356080" lon="-8.5228270">
        <ele>116.8</ele>
        <time>2022-04-14T15:58:02Z</time>
      </trkpt>
      <trkpt lat="42.8356880" lon="-8.5228260">
        <ele>117.0</ele>
        <time>2022-04-14T15:58:03Z</time>
      </trkpt>
      <trkpt lat="42.8359280" lon="-8.5228200">
        <ele>117.7</ele>
        <time>2022-04-14T15:58:04Z</time>
      </trkpt>
      <trkpt lat="42.8359280" lon="-8.5228200">
        <ele>117.7</ele>
        <time>2022-04-14T15:58:05Z</time>
      </trkpt>
      <trkpt lat="42.8360990" lon="-8.5228270">
        <ele>118.0</ele>
        <time>2022-04-14T15:58:06Z</time>
      </trkpt>
      <trkpt lat="42.8361410" lon="-8.5228290">
        <ele>118.1</ele>
        <time>2022-04-14T15:58:07Z</time>
      </trkpt>
      <trkpt lat="42.8361820" lon="-8.5228300">
        <ele>118.1</ele>
        <time>2022-04-14T15:58:08Z</time>
      </trkpt>
      <trkpt lat="42.8363470" lon="-8.5228390">
        <ele>118.2</ele>
        <time>2022-04-14T15:58:09Z</time>
      </trkpt>
      <trkpt lat="42.8364290" lon="-8.5228440">
        <ele>118.2</ele>
        <time>2022-04-14T15:58:10Z</time>
      </trkpt>
      <trkpt lat="42.8365100" lon="-8.5228490">
        <ele>118.1</ele>
        <time>2022-04-14T15:58:11Z</time>
      </trkpt>
      <trkpt lat="42.8365930" lon="-8.5228480">
        <ele>118.1</ele>
        <time>2022-04-14T15:58:12Z</time>
      </trkpt>
      <trkpt lat="42.8366350" lon="-8.5228480">
        <ele>118.1</ele>
        <time>2022-04-14T15:58:13Z</time>
      </trkpt>
      <trkpt lat="42.8366760" lon="-8.5228490">
        <ele>118.0</ele>
        <time>2022-04-14T15:58:14Z</time>
      </trkpt>
      <trkpt lat="42.8368410" lon="-8.5228490">
        <ele>118.0</ele>
        <time>2022-04-14T15:58:15Z</time>
      </trkpt>
      <trkpt lat="42.8369230" lon="-8.5228480">
        <ele>118.0</ele>
        <time>2022-04-14T15:58:16Z</time>
      </trkpt>
      <trkpt lat="42.8370050" lon="-8.5228470">
        <ele>118.1</ele>
        <time>2022-04-14T15:58:17Z</time>
      </trkpt>
      <trkpt lat="42.8370870" lon="-8.5228410">
        <ele>118.3</ele>
        <time>2022-04-14T15:58:18Z</time>
      </trkpt>
      <trkpt lat="42.8371270" lon="-8.5228380">
        <ele>118.3</ele>
        <time>2022-04-14T15:58:19Z</time>
      </trkpt>
      <trkpt lat="42.8371670" lon="-8.5228360">
        <ele>118.4</ele>
        <time>2022-04-14T15:58:20Z</time>
      </trkpt>
      <trkpt lat="42.8373250" lon="-8.5228140">
        <ele>118.8</ele>
        <time>2022-04-14T15:58:21Z</time>
      </trkpt>
      <trkpt lat="42.8374040" lon="-8.5227980">
        <ele>119.1</ele>
        <time>2022-04-14T15:58:22Z</time>
      </trkpt>
      <trkpt lat="42.8374830" lon="-8.5227830">
        <ele>119.4</ele>
        <time>2022-04-14T15:58:23Z</time>
      </trkpt>
      <trkpt lat="42.8375570" lon="-8.5227690">
        <ele>119.8</ele>
        <time>2022-04-14T15:58:24Z</time>
      </trkpt>
      <trkpt lat="42.8375920" lon="-8.5227610">
        <ele>120.0</ele>
        <time>2022-04-14T15:58:25Z</time>
      </trkpt>
      <trkpt lat="42.8376260" lon="-8.5227520">
        <ele>120.2</ele>
        <time>2022-04-14T15:58:26Z</time>
      </trkpt>
      <trkpt lat="42.8377240" lon="-8.5227220">
        <ele>120.8</ele>
        <time>2022-04-14T15:58:27Z</time>
      </trkpt>
      <trkpt lat="42.8377530" lon="-8.5227100">
        <ele>121.0</ele>
        <time>2022-04-14T15:58:28Z</time>
      </trkpt>
      <trkpt lat="42.8378700" lon="-8.5226610">
        <ele>121.8</ele>
        <time>2022-04-14T15:58:29Z</time>
      </trkpt>
      <trkpt lat="42.8379300" lon="-8.5226370">
        <ele>122.3</ele>
        <time>2022-04-14T15:58:30Z</time>
      </trkpt>
      <trkpt lat="42.8379900" lon="-8.5226130">
        <ele>122.7</ele>
        <time>2022-04-14T15:58:31Z</time>
      </trkpt>
      <trkpt lat="42.8380540" lon="-8.5225910">
        <ele>123.2</ele>
        <time>2022-04-14T15:58:32Z</time>
      </trkpt>
      <trkpt lat="42.8380850" lon="-8.5225770">
        <ele>123.4</ele>
        <time>2022-04-14T15:58:33Z</time>
      </trkpt>
      <trkpt lat="42.8381160" lon="-8.5225640">
        <ele>123.6</ele>
        <time>2022-04-14T15:58:34Z</time>
      </trkpt>
      <trkpt lat="42.8382050" lon="-8.5225230">
        <ele>124.2</ele>
        <time>2022-04-14T15:58:35Z</time>
      </trkpt>
      <trkpt lat="42.8382320" lon="-8.5225090">
        <ele>124.4</ele>
        <time>2022-04-14T15:58:36Z</time>
      </trkpt>
      <trkpt lat="42.8383410" lon="-8.5224460">
        <ele>125.3</ele>
        <time>2022-04-14T15:58:37Z</time>
      </trkpt>
      <trkpt lat="42.8383970" lon="-8.5224120">
        <ele>125.7</ele>
        <time>2022-04-14T15:58:38Z</time>
      </trkpt>
      <trkpt lat="42.8384520" lon="-8.5223790">
        <ele>126.2</ele>
        <time>2022-04-14T15:58:39Z</time>
      </trkpt>
      <trkpt lat="42.8385100" lon="-8.5223400">
        <ele>126.7</ele>
        <time>2022-04-14T15:58:40Z</time>
      </trkpt>
      <trkpt lat="42.8385360" lon="-8.5223240">
        <ele>126.9</ele>
        <time>2022-04-14T15:58:41Z</time>
      </trkpt>
      <trkpt lat="42.8385620" lon="-8.5223080">
        <ele>127.1</ele>
        <time>2022-04-14T15:58:42Z</time>
      </trkpt>
      <trkpt lat="42.8386400" lon="-8.5222580">
        <ele>127.8</ele>
        <time>2022-04-14T15:58:43Z</time>
      </trkpt>
      <trkpt lat="42.8386670" lon="-8.5222420">
        <ele>128.0</ele>
        <time>2022-04-14T15:58:44Z</time>
      </trkpt>
      <trkpt lat="42.8387670" lon="-8.5221840">
        <ele>128.8</ele>
        <time>2022-04-14T15:58:45Z</time>
      </trkpt>
      <trkpt lat="42.8388150" lon="-8.5221580">
        <ele>129.2</ele>
        <time>2022-04-14T15:58:46Z</time>
      </trkpt>
      <trkpt lat="42.8388620" lon="-8.5221320">
        <ele>129.5</ele>
        <time>2022-04-14T15:58:47Z</time>
      </trkpt>
      <trkpt lat="42.8389090" lon="-8.5221070">
        <ele>129.8</ele>
        <time>2022-04-14T15:58:48Z</time>
      </trkpt>
      <trkpt lat="42.8389350" lon="-8.5220940">
        <ele>130.0</ele>
        <time>2022-04-14T15:58:49Z</time>
      </trkpt>
      <trkpt lat="42.8389600" lon="-8.5220800">
        <ele>130.2</ele>
        <time>2022-04-14T15:58:50Z</time>
      </trkpt>
      <trkpt lat="42.8390580" lon="-8.5220280">
        <ele>130.8</ele>
        <time>2022-04-14T15:58:51Z</time>
      </trkpt>
      <trkpt lat="42.8391040" lon="-8.5220030">
        <ele>131.1</ele>
        <time>2022-04-14T15:58:52Z</time>
      </trkpt>
      <trkpt lat="42.8391360" lon="-8.5219910">
        <ele>131.3</ele>
        <time>2022-04-14T15:58:53Z</time>
      </trkpt>
      <trkpt lat="42.8391670" lon="-8.5219790">
        <ele>131.5</ele>
        <time>2022-04-14T15:58:54Z</time>
      </trkpt>
      <trkpt lat="42.8391980" lon="-8.5219670">
        <ele>131.7</ele>
        <time>2022-04-14T15:58:55Z</time>
      </trkpt>
      <trkpt lat="42.8392840" lon="-8.5219290">
        <ele>132.2</ele>
        <time>2022-04-14T15:58:56Z</time>
      </trkpt>
      <trkpt lat="42.8392840" lon="-8.5219290">
        <ele>132.2</ele>
        <time>2022-04-14T15:58:57Z</time>
      </trkpt>
      <trkpt lat="42.8393180" lon="-8.5219170">
        <ele>132.4</ele>
        <time>2022-04-14T15:58:58Z</time>
      </trkpt>
      <trkpt lat="42.8393510" lon="-8.5219060">
        <ele>132.6</ele>
        <time>2022-04-14T15:58:59Z</time>
      </trkpt>
      <trkpt lat="42.8394680" lon="-8.5218650">
        <ele>133.2</ele>
        <time>2022-04-14T15:59:00Z</time>
      </trkpt>
      <trkpt lat="42.8395170" lon="-8.5218480">
        <ele>133.4</ele>
        <time>2022-04-14T15:59:01Z</time>
      </trkpt>
      <trkpt lat="42.8395660" lon="-8.5218320">
        <ele>133.7</ele>
        <time>2022-04-14T15:59:02Z</time>
      </trkpt>
      <trkpt lat="42.8396140" lon="-8.5218160">
        <ele>133.9</ele>
        <time>2022-04-14T15:59:03Z</time>
      </trkpt>
      <trkpt lat="42.8396590" lon="-8.5218010">
        <ele>134.1</ele>
        <time>2022-04-14T15:59:04Z</time>
      </trkpt>
      <trkpt lat="42.8397040" lon="-8.5217870">
        <ele>134.3</ele>
        <time>2022-04-14T15:59:05Z</time>
      </trkpt>
      <trkpt lat="42.8397360" lon="-8.5217790">
        <ele>134.5</ele>
        <time>2022-04-14T15:59:06Z</time>
      </trkpt>
      <trkpt lat="42.8397680" lon="-8.5217710">
        <ele>134.6</ele>
        <time>2022-04-14T15:59:07Z</time>
      </trkpt>
      <trkpt lat="42.8397990" lon="-8.5217630">
        <ele>134.8</ele>
        <time>2022-04-14T15:59:08Z</time>
      </trkpt>
      <trkpt lat="42.8399110" lon="-8.5217230">
        <ele>135.3</ele>
        <time>2022-04-14T15:59:09Z</time>
      </trkpt>
      <trkpt lat="42.8399370" lon="-8.5217140">
        <ele>135.4</ele>
        <time>2022-04-14T15:59:10Z</time>
      </trkpt>
      <trkpt lat="42.8399630" lon="-8.5217050">
        <ele>135.5</ele>
        <time>2022-04-14T15:59:11Z</time>
      </trkpt>
      <trkpt lat="42.8400480" lon="-8.5216710">
        <ele>135.9</ele>
        <time>2022-04-14T15:59:12Z</time>
      </trkpt>
      <trkpt lat="42.8400800" lon="-8.5216550">
        <ele>136.1</ele>
        <time>2022-04-14T15:59:13Z</time>
      </trkpt>
      <trkpt lat="42.8401120" lon="-8.5216400">
        <ele>136.2</ele>
        <time>2022-04-14T15:59:14Z</time>
      </trkpt>
      <trkpt lat="42.8402160" lon="-8.5215880">
        <ele>136.8</ele>
        <time>2022-04-14T15:59:15Z</time>
      </trkpt>
      <trkpt lat="42.8402430" lon="-8.5215660">
        <ele>136.9</ele>
        <time>2022-04-14T15:59:16Z</time>
      </trkpt>
      <trkpt lat="42.8402700" lon="-8.5215440">
        <ele>137.0</ele>
        <time>2022-04-14T15:59:17Z</time>
      </trkpt>
      <trkpt lat="42.8402960" lon="-8.5215230">
        <ele>137.2</ele>
        <time>2022-04-14T15:59:18Z</time>
      </trkpt>
      <trkpt lat="42.8403780" lon="-8.5214530">
        <ele>137.6</ele>
        <time>2022-04-14T15:59:19Z</time>
      </trkpt>
      <trkpt lat="42.8404000" lon="-8.5214290">
        <ele>137.8</ele>
        <time>2022-04-14T15:59:20Z</time>
      </trkpt>
      <trkpt lat="42.8404220" lon="-8.5214060">
        <ele>137.9</ele>
        <time>2022-04-14T15:59:21Z</time>
      </trkpt>
      <trkpt lat="42.8404850" lon="-8.5213330">
        <ele>138.1</ele>
        <time>2022-04-14T15:59:22Z</time>
      </trkpt>
      <trkpt lat="42.8405050" lon="-8.5213080">
        <ele>138.2</ele>
        <time>2022-04-14T15:59:23Z</time>
      </trkpt>
      <trkpt lat="42.8405650" lon="-8.5212310">
        <ele>138.4</ele>
        <time>2022-04-14T15:59:24Z</time>
      </trkpt>
      <trkpt lat="42.8405840" lon="-8.5212050">
        <ele>138.5</ele>
        <time>2022-04-14T15:59:25Z</time>
      </trkpt>
      <trkpt lat="42.8406680" lon="-8.5211050">
        <ele>138.7</ele>
        <time>2022-04-14T15:59:26Z</time>
      </trkpt>
      <trkpt lat="42.8407130" lon="-8.5210570">
        <ele>138.7</ele>
        <time>2022-04-14T15:59:27Z</time>
      </trkpt>
      <trkpt lat="42.8407580" lon="-8.5210100">
        <ele>138.8</ele>
        <time>2022-04-14T15:59:28Z</time>
      </trkpt>
      <trkpt lat="42.8408060" lon="-8.5209660">
        <ele>138.8</ele>
        <time>2022-04-14T15:59:29Z</time>
      </trkpt>
      <trkpt lat="42.8408340" lon="-8.5209450">
        <ele>138.8</ele>
        <time>2022-04-14T15:59:30Z</time>
      </trkpt>
      <trkpt lat="42.8408610" lon="-8.5209240">
        <ele>138.8</ele>
        <time>2022-04-14T15:59:31Z</time>
      </trkpt>
      <trkpt lat="42.8409470" lon="-8.5208620">
        <ele>138.8</ele>
        <time>2022-04-14T15:59:32Z</time>
      </trkpt>
      <trkpt lat="42.8409770" lon="-8.5208420">
        <ele>138.7</ele>
        <time>2022-04-14T15:59:33Z</time>
      </trkpt>
      <trkpt lat="42.8410990" lon="-8.5207620">
        <ele>138.6</ele>
        <time>2022-04-14T15:59:34Z</time>
      </trkpt>
      <trkpt lat="42.8411610" lon="-8.5207210">
        <ele>138.6</ele>
        <time>2022-04-14T15:59:35Z</time>
      </trkpt>
      <trkpt lat="42.8412220" lon="-8.5206810">
        <ele>138.5</ele>
        <time>2022-04-14T15:59:36Z</time>
      </trkpt>
      <trkpt lat="42.8412890" lon="-8.5206370">
        <ele>138.4</ele>
        <time>2022-04-14T15:59:37Z</time>
      </trkpt>
      <trkpt lat="42.8413230" lon="-8.5206160">
        <ele>138.3</ele>
        <time>2022-04-14T15:59:38Z</time>
      </trkpt>
      <trkpt lat="42.8413570" lon="-8.5205950">
        <ele>138.2</ele>
        <time>2022-04-14T15:59:39Z</time>
      </trkpt>
      <trkpt lat="42.8414960" lon="-8.5205110">
        <ele>137.9</ele>
        <time>2022-04-14T15:59:40Z</time>
      </trkpt>
      <trkpt lat="42.8415670" lon="-8.5204690">
        <ele>137.7</ele>
        <time>2022-04-14T15:59:41Z</time>
      </trkpt>
      <trkpt lat="42.8416370" lon="-8.5204270">
        <ele>137.5</ele>
        <time>2022-04-14T15:59:42Z</time>
      </trkpt>
      <trkpt lat="42.8417090" lon="-8.5203840">
        <ele>137.4</ele>
        <time>2022-04-14T15:59:43Z</time>
      </trkpt>
      <trkpt lat="42.8417460" lon="-8.5203630">
        <ele>137.3</ele>
        <time>2022-04-14T15:59:44Z</time>
      </trkpt>
      <trkpt lat="42.8417830" lon="-8.5203420">
        <ele>137.2</ele>
        <time>2022-04-14T15:59:45Z</time>
      </trkpt>
      <trkpt lat="42.8419300" lon="-8.5202580">
        <ele>136.9</ele>
        <time>2022-04-14T15:59:46Z</time>
      </trkpt>
      <trkpt lat="42.8420040" lon="-8.5202170">
        <ele>136.7</ele>
        <time>2022-04-14T15:59:47Z</time>
      </trkpt>
      <trkpt lat="42.8420780" lon="-8.5201750">
        <ele>136.5</ele>
        <time>2022-04-14T15:59:48Z</time>
      </trkpt>
      <trkpt lat="42.8421520" lon="-8.5201340">
        <ele>136.3</ele>
        <time>2022-04-14T15:59:49Z</time>
      </trkpt>
      <trkpt lat="42.8422320" lon="-8.5200890">
        <ele>136.1</ele>
        <time>2022-04-14T15:59:50Z</time>
      </trkpt>
      <trkpt lat="42.8423120" lon="-8.5200440">
        <ele>135.9</ele>
        <time>2022-04-14T15:59:51Z</time>
      </trkpt>
      <trkpt lat="42.8423910" lon="-8.5199990">
        <ele>135.8</ele>
        <time>2022-04-14T15:59:52Z</time>
      </trkpt>
      <trkpt lat="42.8425050" lon="-8.5199330">
        <ele>135.6</ele>
        <time>2022-04-14T15:59:53Z</time>
      </trkpt>
      <trkpt lat="42.8425410" lon="-8.5199110">
        <ele>135.6</ele>
        <time>2022-04-14T15:59:54Z</time>
      </trkpt>
      <trkpt lat="42.8426140" lon="-8.5198670">
        <ele>135.5</ele>
        <time>2022-04-14T15:59:55Z</time>
      </trkpt>
      <trkpt lat="42.8426300" lon="-8.5198530">
        <ele>135.5</ele>
        <time>2022-04-14T15:59:56Z</time>
      </trkpt>
      <trkpt lat="42.8426450" lon="-8.5198390">
        <ele>135.5</ele>
        <time>2022-04-14T15:59:57Z</time>
      </trkpt>
      <trkpt lat="42.8426610" lon="-8.5198260">
        <ele>135.5</ele>
        <time>2022-04-14T15:59:58Z</time>
      </trkpt>
      <trkpt lat="42.8427110" lon="-8.5197840">
        <ele>135.4</ele>
        <time>2022-04-14T15:59:59Z</time>
      </trkpt>
      <trkpt lat="42.8427150" lon="-8.5197830">
        <ele>135.4</ele>
        <time>2022-04-14T16:00:00Z</time>
      </trkpt>
      <trkpt lat="42.8427190" lon="-8.5197830">
        <ele>135.4</ele>
        <time>2022-04-14T16:00:01Z</time>
      </trkpt>
      <trkpt lat="42.8427230" lon="-8.5197820">
        <ele>135.4</ele>
        <time>2022-04-14T16:00:02Z</time>
      </trkpt>
      <trkpt lat="42.8427270" lon="-8.5197810">
        <ele>135.4</ele>
        <time>2022-04-14T16:00:03Z</time>
      </trkpt>
      <trkpt lat="42.8427310" lon="-8.5197800">
        <ele>135.4</ele>
        <time>2022-04-14T16:00:04Z</time>
      </trkpt>
      <trkpt lat="42.8427340" lon="-8.5197800">
        <ele>135.4</ele>
        <time>2022-04-14T16:00:05Z</time>
      </trkpt>
      <trkpt lat="42.8427380" lon="-8.5197790">
        <ele>135.4</ele>
        <time>2022-04-14T16:00:06Z</time>
      </trkpt>
      <trkpt lat="42.8427420" lon="-8.5197780">
        <ele>135.4</ele>
        <time>2022-04-14T16:00:07Z</time>
      </trkpt>
      <trkpt lat="42.8427460" lon="-8.5197780">
        <ele>135.4</ele>
        <time>2022-04-14T16:00:08Z</time>
      </trkpt>
      <trkpt lat="42.8427500" lon="-8.5197770">
        <ele>135.5</ele>
        <time>2022-04-14T16:00:09Z</time>
      </trkpt>
      <trkpt lat="42.8427540" lon="-8.5197760">
        <ele>135.5</ele>
        <time>2022-04-14T16:00:10Z</time>
      </trkpt>
      <trkpt lat="42.8427580" lon="-8.5197750">
        <ele>135.5</ele>
        <time>2022-04-14T16:00:11Z</time>
      </trkpt>
      <trkpt lat="42.8427610" lon="-8.5197750">
        <ele>135.5</ele>
        <time>2022-04-14T16:00:12Z</time>
      </trkpt>
      <trkpt lat="42.8428370" lon="-8.5197940">
        <ele>135.9</ele>
        <time>2022-04-14T16:00:13Z</time>
      </trkpt>
      <trkpt lat="42.8428590" lon="-8.5198230">
        <ele>135.6</ele>
        <time>2022-04-14T16:00:14Z</time>
      </trkpt>
      <trkpt lat="42.8428810" lon="-8.5198530">
        <ele>135.5</ele>
        <time>2022-04-14T16:00:15Z</time>
      </trkpt>
      <trkpt lat="42.8429470" lon="-8.5200090">
        <ele>135.0</ele>
        <time>2022-04-14T16:00:16Z</time>
      </trkpt>
      <trkpt lat="42.8429640" lon="-8.5200530">
        <ele>134.9</ele>
        <time>2022-04-14T16:00:17Z</time>
      </trkpt>
      <trkpt lat="42.8429820" lon="-8.5200970">
        <ele>134.7</ele>
        <time>2022-04-14T16:00:18Z</time>
      </trkpt>
      <trkpt lat="42.8430350" lon="-8.5202340">
        <ele>134.3</ele>
        <time>2022-04-14T16:00:19Z</time>
      </trkpt>
      <trkpt lat="42.8430550" lon="-8.5202830">
        <ele>134.2</ele>
        <time>2022-04-14T16:00:20Z</time>
      </trkpt>
      <trkpt lat="42.8431280" lon="-8.5204950">
        <ele>133.5</ele>
        <time>2022-04-14T16:00:21Z</time>
      </trkpt>
      <trkpt lat="42.8431630" lon="-8.5206080">
        <ele>133.0</ele>
        <time>2022-04-14T16:00:22Z</time>
      </trkpt>
      <trkpt lat="42.8431980" lon="-8.5207210">
        <ele>132.4</ele>
        <time>2022-04-14T16:00:23Z</time>
      </trkpt>
      <trkpt lat="42.8432320" lon="-8.5208430">
        <ele>131.9</ele>
        <time>2022-04-14T16:00:24Z</time>
      </trkpt>
      <trkpt lat="42.8432660" lon="-8.5209700">
        <ele>131.3</ele>
        <time>2022-04-14T16:00:25Z</time>
      </trkpt>
      <trkpt lat="42.8433260" lon="-8.5211670">
        <ele>130.3</ele>
        <time>2022-04-14T16:00:26Z</time>
      </trkpt>
      <trkpt lat="42.8433460" lon="-8.5212340">
        <ele>130.0</ele>
        <time>2022-04-14T16:00:27Z</time>
      </trkpt>
      <trkpt lat="42.8433870" lon="-8.5213680">
        <ele>129.4</ele>
        <time>2022-04-14T16:00:28Z</time>
      </trkpt>
      <trkpt lat="42.8434520" lon="-8.5215740">
        <ele>128.5</ele>
        <time>2022-04-14T16:00:29Z</time>
      </trkpt>
      <trkpt lat="42.8434730" lon="-8.5216430">
        <ele>128.3</ele>
        <time>2022-04-14T16:00:30Z</time>
      </trkpt>
      <trkpt lat="42.8435350" lon="-8.5218470">
        <ele>127.5</ele>
        <time>2022-04-14T16:00:31Z</time>
      </trkpt>
      <trkpt lat="42.8435540" lon="-8.5219140">
        <ele>127.3</ele>
        <time>2022-04-14T16:00:32Z</time>
      </trkpt>
      <trkpt lat="42.8435920" lon="-8.5220470">
        <ele>126.9</ele>
        <time>2022-04-14T16:00:33Z</time>
      </trkpt>
      <trkpt lat="42.8436340" lon="-8.5221780">
        <ele>126.5</ele>
        <time>2022-04-14T16:00:34Z</time>
      </trkpt>
      <trkpt lat="42.8436830" lon="-8.5223020">
        <ele>126.2</ele>
        <time>2022-04-14T16:00:35Z</time>
      </trkpt>
      <trkpt lat="42.8437530" lon="-8.5224820">
        <ele>125.7</ele>
        <time>2022-04-14T16:00:36Z</time>
      </trkpt>
      <trkpt lat="42.8437710" lon="-8.5225470">
        <ele>125.6</ele>
        <time>2022-04-14T16:00:37Z</time>
      </trkpt>
      <trkpt lat="42.8438070" lon="-8.5226770">
        <ele>125.4</ele>
        <time>2022-04-14T16:00:38Z</time>
      </trkpt>
      <trkpt lat="42.8438360" lon="-8.5228000">
        <ele>125.2</ele>
        <time>2022-04-14T16:00:39Z</time>
      </trkpt>
      <trkpt lat="42.8438800" lon="-8.5229130">
        <ele>125.2</ele>
        <time>2022-04-14T16:00:40Z</time>
      </trkpt>
      <trkpt lat="42.8439240" lon="-8.5230210">
        <ele>125.3</ele>
        <time>2022-04-14T16:00:41Z</time>
      </trkpt>
      <trkpt lat="42.8439240" lon="-8.5230210">
        <ele>125.3</ele>
        <time>2022-04-14T16:00:42Z</time>
      </trkpt>
      <trkpt lat="42.8440430" lon="-8.5231900">
        <ele>125.5</ele>
        <time>2022-04-14T16:00:43Z</time>
      </trkpt>
      <trkpt lat="42.8441010" lon="-8.5232320">
        <ele>125.7</ele>
        <time>2022-04-14T16:00:44Z</time>
      </trkpt>
      <trkpt lat="42.8441590" lon="-8.5232750">
        <ele>125.8</ele>
        <time>2022-04-14T16:00:45Z</time>
      </trkpt>
      <trkpt lat="42.8443230" lon="-8.5233590">
        <ele>126.0</ele>
        <time>2022-04-14T16:00:46Z</time>
      </trkpt>
      <trkpt lat="42.8443720" lon="-8.5233570">
        <ele>126.0</ele>
        <time>2022-04-14T16:00:47Z</time>
      </trkpt>
      <trkpt lat="42.8445160" lon="-8.5233310">
        <ele>125.9</ele>
        <time>2022-04-14T16:00:48Z</time>
      </trkpt>
      <trkpt lat="42.8445640" lon="-8.5233090">
        <ele>125.9</ele>
        <time>2022-04-14T16:00:49Z</time>
      </trkpt>
      <trkpt lat="42.8446590" lon="-8.5232650">
        <ele>125.8</ele>
        <time>2022-04-14T16:00:50Z</time>
      </trkpt>
      <trkpt lat="42.8447480" lon="-8.5232180">
        <ele>125.8</ele>
        <time>2022-04-14T16:00:51Z</time>
      </trkpt>
      <trkpt lat="42.8448370" lon="-8.5231710">
        <ele>125.8</ele>
        <time>2022-04-14T16:00:52Z</time>
      </trkpt>
      <trkpt lat="42.8449260" lon="-8.5231250">
        <ele>125.8</ele>
        <time>2022-04-14T16:00:53Z</time>
      </trkpt>
      <trkpt lat="42.8450170" lon="-8.5230780">
        <ele>125.9</ele>
        <time>2022-04-14T16:00:54Z</time>
      </trkpt>
      <trkpt lat="42.8451040" lon="-8.5230250">
        <ele>126.0</ele>
        <time>2022-04-14T16:00:55Z</time>
      </trkpt>
      <trkpt lat="42.8451850" lon="-8.5229560">
        <ele>126.1</ele>
        <time>2022-04-14T16:00:56Z</time>
      </trkpt>
      <trkpt lat="42.8452460" lon="-8.5228640">
        <ele>126.2</ele>
        <time>2022-04-14T16:00:57Z</time>
      </trkpt>
      <trkpt lat="42.8453080" lon="-8.5227730">
        <ele>126.3</ele>
        <time>2022-04-14T16:00:58Z</time>
      </trkpt>
      <trkpt lat="42.8453690" lon="-8.5226810">
        <ele>126.5</ele>
        <time>2022-04-14T16:00:59Z</time>
      </trkpt>
      <trkpt lat="42.8454240" lon="-8.5225840">
        <ele>126.7</ele>
        <time>2022-04-14T16:01:00Z</time>
      </trkpt>
      <trkpt lat="42.8454720" lon="-8.5224830">
        <ele>126.9</ele>
        <time>2022-04-14T16:01:01Z</time>
      </trkpt>
      <trkpt lat="42.8455200" lon="-8.5223820">
        <ele>127.1</ele>
        <time>2022-04-14T16:01:02Z</time>
      </trkpt>
      <trkpt lat="42.8455680" lon="-8.5222810">
        <ele>127.4</ele>
        <time>2022-04-14T16:01:03Z</time>
      </trkpt>
      <trkpt lat="42.8456170" lon="-8.5221810">
        <ele>127.6</ele>
        <time>2022-04-14T16:01:04Z</time>
      </trkpt>
      <trkpt lat="42.8456390" lon="-8.5221340">
        <ele>127.7</ele>
        <time>2022-04-14T16:01:05Z</time>
      </trkpt>
      <trkpt lat="42.8456610" lon="-8.5220880">
        <ele>127.8</ele>
        <time>2022-04-14T16:01:06Z</time>
      </trkpt>
      <trkpt lat="42.8457490" lon="-8.5219040">
        <ele>128.2</ele>
        <time>2022-04-14T16:01:07Z</time>
      </trkpt>
      <trkpt lat="42.8457930" lon="-8.5218140">
        <ele>128.4</ele>
        <time>2022-04-14T16:01:08Z</time>
      </trkpt>
      <trkpt lat="42.8458370" lon="-8.5217230">
        <ele>128.6</ele>
        <time>2022-04-14T16:01:09Z</time>
      </trkpt>
      <trkpt lat="42.8458780" lon="-8.5216350">
        <ele>128.8</ele>
        <time>2022-04-14T16:01:10Z</time>
      </trkpt>
      <trkpt lat="42.8459010" lon="-8.5215880">
        <ele>128.9</ele>
        <time>2022-04-14T16:01:11Z</time>
      </trkpt>
      <trkpt lat="42.8459240" lon="-8.5215420">
        <ele>128.9</ele>
        <time>2022-04-14T16:01:12Z</time>
      </trkpt>
      <trkpt lat="42.8459900" lon="-8.5214040">
        <ele>129.2</ele>
        <time>2022-04-14T16:01:13Z</time>
      </trkpt>
      <trkpt lat="42.8460110" lon="-8.5213600">
        <ele>129.3</ele>
        <time>2022-04-14T16:01:14Z</time>
      </trkpt>
      <trkpt lat="42.8460920" lon="-8.5211880">
        <ele>129.6</ele>
        <time>2022-04-14T16:01:15Z</time>
      </trkpt>
      <trkpt lat="42.8461310" lon="-8.5211060">
        <ele>129.8</ele>
        <time>2022-04-14T16:01:16Z</time>
      </trkpt>
      <trkpt lat="42.8461710" lon="-8.5210230">
        <ele>130.0</ele>
        <time>2022-04-14T16:01:17Z</time>
      </trkpt>
      <trkpt lat="42.8462050" lon="-8.5209460">
        <ele>130.1</ele>
        <time>2022-04-14T16:01:18Z</time>
      </trkpt>
      <trkpt lat="42.8462250" lon="-8.5209110">
        <ele>130.2</ele>
        <time>2022-04-14T16:01:19Z</time>
      </trkpt>
      <trkpt lat="42.8462460" lon="-8.5208750">
        <ele>130.1</ele>
        <time>2022-04-14T16:01:20Z</time>
      </trkpt>
      <trkpt lat="42.8463200" lon="-8.5207230">
        <ele>130.2</ele>
        <time>2022-04-14T16:01:21Z</time>
      </trkpt>
      <trkpt lat="42.8463530" lon="-8.5206420">
        <ele>130.4</ele>
        <time>2022-04-14T16:01:22Z</time>
      </trkpt>
      <trkpt lat="42.8463850" lon="-8.5205600">
        <ele>130.7</ele>
        <time>2022-04-14T16:01:23Z</time>
      </trkpt>
      <trkpt lat="42.8464120" lon="-8.5204710">
        <ele>131.1</ele>
        <time>2022-04-14T16:01:24Z</time>
      </trkpt>
      <trkpt lat="42.8464350" lon="-8.5203870">
        <ele>131.5</ele>
        <time>2022-04-14T16:01:25Z</time>
      </trkpt>
      <trkpt lat="42.8464580" lon="-8.5203040">
        <ele>131.9</ele>
        <time>2022-04-14T16:01:26Z</time>
      </trkpt>
      <trkpt lat="42.8464810" lon="-8.5202200">
        <ele>132.3</ele>
        <time>2022-04-14T16:01:27Z</time>
      </trkpt>
      <trkpt lat="42.8465020" lon="-8.5201400">
        <ele>132.7</ele>
        <time>2022-04-14T16:01:28Z</time>
      </trkpt>
      <trkpt lat="42.8465220" lon="-8.5200700">
        <ele>133.2</ele>
        <time>2022-04-14T16:01:29Z</time>
      </trkpt>
      <trkpt lat="42.8465410" lon="-8.5199990">
        <ele>133.6</ele>
        <time>2022-04-14T16:01:30Z</time>
      </trkpt>
      <trkpt lat="42.8465600" lon="-8.5199280">
        <ele>133.7</ele>
        <time>2022-04-14T16:01:31Z</time>
      </trkpt>
      <trkpt lat="42.8465780" lon="-8.5198620">
        <ele>134.1</ele>
        <time>2022-04-14T16:01:32Z</time>
      </trkpt>
      <trkpt lat="42.8465960" lon="-8.5198040">
        <ele>134.5</ele>
        <time>2022-04-14T16:01:33Z</time>
      </trkpt>
      <trkpt lat="42.8466150" lon="-8.5197450">
        <ele>134.8</ele>
        <time>2022-04-14T16:01:34Z</time>
      </trkpt>
      <trkpt lat="42.8466360" lon="-8.5196880">
        <ele>135.2</ele>
        <time>2022-04-14T16:01:35Z</time>
      </trkpt>
      <trkpt lat="42.8466560" lon="-8.5196310">
        <ele>135.5</ele>
        <time>2022-04-14T16:01:36Z</time>
      </trkpt>
      <trkpt lat="42.8466730" lon="-8.5195730">
        <ele>135.9</ele>
        <time>2022-04-14T16:01:37Z</time>
      </trkpt>
      <trkpt lat="42.8466910" lon="-8.5195150">
        <ele>136.2</ele>
        <time>2022-04-14T16:01:38Z</time>
      </trkpt>
      <trkpt lat="42.8467260" lon="-8.5193930">
        <ele>136.9</ele>
        <time>2022-04-14T16:01:39Z</time>
      </trkpt>
      <trkpt lat="42.8467260" lon="-8.5193930">
        <ele>136.9</ele>
        <time>2022-04-14T16:01:40Z</time>
      </trkpt>
      <trkpt lat="42.8467260" lon="-8.5193930">
        <ele>136.9</ele>
        <time>2022-04-14T16:01:41Z</time>
      </trkpt>
      <trkpt lat="42.8467580" lon="-8.5192600">
        <ele>137.5</ele>
        <time>2022-04-14T16:01:42Z</time>
      </trkpt>
      <trkpt lat="42.8467710" lon="-8.5191990">
        <ele>137.8</ele>
        <time>2022-04-14T16:01:43Z</time>
      </trkpt>
      <trkpt lat="42.8467840" lon="-8.5191380">
        <ele>138.1</ele>
        <time>2022-04-14T16:01:44Z</time>
      </trkpt>
      <trkpt lat="42.8467980" lon="-8.5190770">
        <ele>138.4</ele>
        <time>2022-04-14T16:01:45Z</time>
      </trkpt>
      <trkpt lat="42.8468130" lon="-8.5190160">
        <ele>138.6</ele>
        <time>2022-04-14T16:01:46Z</time>
      </trkpt>
      <trkpt lat="42.8468290" lon="-8.5189580">
        <ele>138.9</ele>
        <time>2022-04-14T16:01:47Z</time>
      </trkpt>
      <trkpt lat="42.8468440" lon="-8.5189000">
        <ele>139.2</ele>
        <time>2022-04-14T16:01:48Z</time>
      </trkpt>
      <trkpt lat="42.8468560" lon="-8.5188610">
        <ele>139.4</ele>
        <time>2022-04-14T16:01:49Z</time>
      </trkpt>
      <trkpt lat="42.8468690" lon="-8.5188220">
        <ele>139.5</ele>
        <time>2022-04-14T16:01:50Z</time>
      </trkpt>
      <trkpt lat="42.8468810" lon="-8.5187820">
        <ele>139.7</ele>
        <time>2022-04-14T16:01:51Z</time>
      </trkpt>
      <trkpt lat="42.8469130" lon="-8.5186620">
        <ele>140.3</ele>
        <time>2022-04-14T16:01:52Z</time>
      </trkpt>
      <trkpt lat="42.8469300" lon="-8.5186040">
        <ele>140.6</ele>
        <time>2022-04-14T16:01:53Z</time>
      </trkpt>
      <trkpt lat="42.8469470" lon="-8.5185460">
        <ele>140.9</ele>
        <time>2022-04-14T16:01:54Z</time>
      </trkpt>
      <trkpt lat="42.8469660" lon="-8.5184880">
        <ele>141.2</ele>
        <time>2022-04-14T16:01:55Z</time>
      </trkpt>
      <trkpt lat="42.8469850" lon="-8.5184300">
        <ele>141.5</ele>
        <time>2022-04-14T16:01:56Z</time>
      </trkpt>
      <trkpt lat="42.8470010" lon="-8.5183720">
        <ele>141.8</ele>
        <time>2022-04-14T16:01:57Z</time>
      </trkpt>
      <trkpt lat="42.8470170" lon="-8.5183140">
        <ele>142.1</ele>
        <time>2022-04-14T16:01:58Z</time>
      </trkpt>
      <trkpt lat="42.8470340" lon="-8.5182570">
        <ele>142.4</ele>
        <time>2022-04-14T16:01:59Z</time>
      </trkpt>
      <trkpt lat="42.8470510" lon="-8.5182000">
        <ele>142.7</ele>
        <time>2022-04-14T16:02:00Z</time>
      </trkpt>
      <trkpt lat="42.8470670" lon="-8.5181430">
        <ele>143.0</ele>
        <time>2022-04-14T16:02:01Z</time>
      </trkpt>
      <trkpt lat="42.8470840" lon="-8.5180860">
        <ele>143.3</ele>
        <time>2022-04-14T16:02:02Z</time>
      </trkpt>
      <trkpt lat="42.8471020" lon="-8.5180300">
        <ele>143.5</ele>
        <time>2022-04-14T16:02:03Z</time>
      </trkpt>
      <trkpt lat="42.8471200" lon="-8.5179720">
        <ele>143.8</ele>
        <time>2022-04-14T16:02:04Z</time>
      </trkpt>
      <trkpt lat="42.8471380" lon="-8.5179150">
        <ele>144.0</ele>
        <time>2022-04-14T16:02:05Z</time>
      </trkpt>
      <trkpt lat="42.8471540" lon="-8.5178560">
        <ele>144.2</ele>
        <time>2022-04-14T16:02:06Z</time>
      </trkpt>
      <trkpt lat="42.8471700" lon="-8.5177970">
        <ele>144.4</ele>
        <time>2022-04-14T16:02:07Z</time>
      </trkpt>
      <trkpt lat="42.8471870" lon="-8.5177370">
        <ele>144.5</ele>
        <time>2022-04-14T16:02:08Z</time>
      </trkpt>
      <trkpt lat="42.8472050" lon="-8.5176760">
        <ele>144.5</ele>
        <time>2022-04-14T16:02:09Z</time>
      </trkpt>
      <trkpt lat="42.8472170" lon="-8.5176450">
        <ele>144.5</ele>
        <time>2022-04-14T16:02:10Z</time>
      </trkpt>
      <trkpt lat="42.8472290" lon="-8.5176140">
        <ele>144.5</ele>
        <time>2022-04-14T16:02:11Z</time>
      </trkpt>
      <trkpt lat="42.8472790" lon="-8.5174690">
        <ele>144.3</ele>
        <time>2022-04-14T16:02:12Z</time>
      </trkpt>
      <trkpt lat="42.8473060" lon="-8.5173860">
        <ele>144.1</ele>
        <time>2022-04-14T16:02:13Z</time>
      </trkpt>
      <trkpt lat="42.8473330" lon="-8.5173030">
        <ele>143.9</ele>
        <time>2022-04-14T16:02:14Z</time>
      </trkpt>
      <trkpt lat="42.8473630" lon="-8.5172110">
        <ele>143.6</ele>
        <time>2022-04-14T16:02:15Z</time>
      </trkpt>
      <trkpt lat="42.8473780" lon="-8.5171590">
        <ele>143.4</ele>
        <time>2022-04-14T16:02:16Z</time>
      </trkpt>
      <trkpt lat="42.8473920" lon="-8.5171080">
        <ele>143.2</ele>
        <time>2022-04-14T16:02:17Z</time>
      </trkpt>
      <trkpt lat="42.8474540" lon="-8.5168920">
        <ele>142.5</ele>
        <time>2022-04-14T16:02:18Z</time>
      </trkpt>
      <trkpt lat="42.8474870" lon="-8.5167790">
        <ele>142.1</ele>
        <time>2022-04-14T16:02:19Z</time>
      </trkpt>
      <trkpt lat="42.8475190" lon="-8.5166660">
        <ele>141.8</ele>
        <time>2022-04-14T16:02:20Z</time>
      </trkpt>
      <trkpt lat="42.8475530" lon="-8.5165510">
        <ele>141.5</ele>
        <time>2022-04-14T16:02:21Z</time>
      </trkpt>
      <trkpt lat="42.8475840" lon="-8.5164350">
        <ele>141.3</ele>
        <time>2022-04-14T16:02:22Z</time>
      </trkpt>
      <trkpt lat="42.8476330" lon="-8.5162570">
        <ele>141.1</ele>
        <time>2022-04-14T16:02:23Z</time>
      </trkpt>
      <trkpt lat="42.8476490" lon="-8.5161980">
        <ele>141.1</ele>
        <time>2022-04-14T16:02:24Z</time>
      </trkpt>
      <trkpt lat="42.8476780" lon="-8.5160770">
        <ele>141.1</ele>
        <time>2022-04-14T16:02:25Z</time>
      </trkpt>
      <trkpt lat="42.8476930" lon="-8.5160210">
        <ele>141.1</ele>
        <time>2022-04-14T16:02:26Z</time>
      </trkpt>
      <trkpt lat="42.8477080" lon="-8.5159650">
        <ele>141.1</ele>
        <time>2022-04-14T16:02:27Z</time>
      </trkpt>
      <trkpt lat="42.8477640" lon="-8.5157570">
        <ele>141.1</ele>
        <time>2022-04-14T16:02:28Z</time>
      </trkpt>
      <trkpt lat="42.8477900" lon="-8.5156620">
        <ele>141.1</ele>
        <time>2022-04-14T16:02:29Z</time>
      </trkpt>
      <trkpt lat="42.8478160" lon="-8.5155670">
        <ele>141.1</ele>
        <time>2022-04-14T16:02:30Z</time>
      </trkpt>
      <trkpt lat="42.8478320" lon="-8.5155090">
        <ele>141.2</ele>
        <time>2022-04-14T16:02:31Z</time>
      </trkpt>
      <trkpt lat="42.8478970" lon="-8.5152820">
        <ele>141.3</ele>
        <time>2022-04-14T16:02:32Z</time>
      </trkpt>
      <trkpt lat="42.8479110" lon="-8.5152280">
        <ele>141.3</ele>
        <time>2022-04-14T16:02:33Z</time>
      </trkpt>
      <trkpt lat="42.8479260" lon="-8.5151740">
        <ele>141.4</ele>
        <time>2022-04-14T16:02:34Z</time>
      </trkpt>
      <trkpt lat="42.8479850" lon="-8.5149560">
        <ele>141.6</ele>
        <time>2022-04-14T16:02:35Z</time>
      </trkpt>
      <trkpt lat="42.8480150" lon="-8.5148450">
        <ele>141.8</ele>
        <time>2022-04-14T16:02:36Z</time>
      </trkpt>
      <trkpt lat="42.8480460" lon="-8.5147350">
        <ele>141.9</ele>
        <time>2022-04-14T16:02:37Z</time>
      </trkpt>
      <trkpt lat="42.8480740" lon="-8.5146240">
        <ele>142.0</ele>
        <time>2022-04-14T16:02:38Z</time>
      </trkpt>
      <trkpt lat="42.8480890" lon="-8.5145690">
        <ele>142.1</ele>
        <time>2022-04-14T16:02:39Z</time>
      </trkpt>
      <trkpt lat="42.8481040" lon="-8.5145150">
        <ele>142.2</ele>
        <time>2022-04-14T16:02:40Z</time>
      </trkpt>
      <trkpt lat="42.8481620" lon="-8.5142990">
        <ele>142.5</ele>
        <time>2022-04-14T16:02:41Z</time>
      </trkpt>
      <trkpt lat="42.8481900" lon="-8.5141930">
        <ele>142.6</ele>
        <time>2022-04-14T16:02:42Z</time>
      </trkpt>
      <trkpt lat="42.8482190" lon="-8.5140860">
        <ele>142.9</ele>
        <time>2022-04-14T16:02:43Z</time>
      </trkpt>
      <trkpt lat="42.8482470" lon="-8.5139860">
        <ele>143.2</ele>
        <time>2022-04-14T16:02:44Z</time>
      </trkpt>
      <trkpt lat="42.8482600" lon="-8.5139390">
        <ele>143.3</ele>
        <time>2022-04-14T16:02:45Z</time>
      </trkpt>
      <trkpt lat="42.8482720" lon="-8.5138930">
        <ele>143.4</ele>
        <time>2022-04-14T16:02:46Z</time>
      </trkpt>
      <trkpt lat="42.8483230" lon="-8.5137080">
        <ele>144.0</ele>
        <time>2022-04-14T16:02:47Z</time>
      </trkpt>
      <trkpt lat="42.8483480" lon="-8.5136160">
        <ele>144.3</ele>
        <time>2022-04-14T16:02:48Z</time>
      </trkpt>
      <trkpt lat="42.8483730" lon="-8.5135250">
        <ele>144.7</ele>
        <time>2022-04-14T16:02:49Z</time>
      </trkpt>
      <trkpt lat="42.8484000" lon="-8.5134340">
        <ele>145.0</ele>
        <time>2022-04-14T16:02:50Z</time>
      </trkpt>
      <trkpt lat="42.8484110" lon="-8.5133920">
        <ele>145.1</ele>
        <time>2022-04-14T16:02:51Z</time>
      </trkpt>
      <trkpt lat="42.8484210" lon="-8.5133490">
        <ele>145.3</ele>
        <time>2022-04-14T16:02:52Z</time>
      </trkpt>
      <trkpt lat="42.8484520" lon="-8.5132220">
        <ele>145.7</ele>
        <time>2022-04-14T16:02:53Z</time>
      </trkpt>
      <trkpt lat="42.8484610" lon="-8.5131800">
        <ele>145.8</ele>
        <time>2022-04-14T16:02:54Z</time>
      </trkpt>
      <trkpt lat="42.8484980" lon="-8.5130120">
        <ele>146.4</ele>
        <time>2022-04-14T16:02:55Z</time>
      </trkpt>
      <trkpt lat="42.8485170" lon="-8.5129290">
        <ele>146.7</ele>
        <time>2022-04-14T16:02:56Z</time>
      </trkpt>
      <trkpt lat="42.8485360" lon="-8.5128450">
        <ele>147.0</ele>
        <time>2022-04-14T16:02:57Z</time>
      </trkpt>
      <trkpt lat="42.8485540" lon="-8.5127650">
        <ele>147.2</ele>
        <time>2022-04-14T16:02:58Z</time>
      </trkpt>
      <trkpt lat="42.8485630" lon="-8.5127290">
        <ele>147.4</ele>
        <time>2022-04-14T16:02:59Z</time>
      </trkpt>
      <trkpt lat="42.8485720" lon="-8.5126930">
        <ele>147.5</ele>
        <time>2022-04-14T16:03:00Z</time>
      </trkpt>
      <trkpt lat="42.8485990" lon="-8.5125810">
        <ele>147.9</ele>
        <time>2022-04-14T16:03:01Z</time>
      </trkpt>
      <trkpt lat="42.8486080" lon="-8.5125420">
        <ele>148.0</ele>
        <time>2022-04-14T16:03:02Z</time>
      </trkpt>
      <trkpt lat="42.8486400" lon="-8.5123890">
        <ele>148.6</ele>
        <time>2022-04-14T16:03:03Z</time>
      </trkpt>
      <trkpt lat="42.8486560" lon="-8.5123150">
        <ele>148.8</ele>
        <time>2022-04-14T16:03:04Z</time>
      </trkpt>
      <trkpt lat="42.8486710" lon="-8.5122400">
        <ele>149.1</ele>
        <time>2022-04-14T16:03:05Z</time>
      </trkpt>
      <trkpt lat="42.8486880" lon="-8.5121650">
        <ele>149.4</ele>
        <time>2022-04-14T16:03:06Z</time>
      </trkpt>
      <trkpt lat="42.8487030" lon="-8.5121000">
        <ele>149.6</ele>
        <time>2022-04-14T16:03:07Z</time>
      </trkpt>
      <trkpt lat="42.8487170" lon="-8.5120340">
        <ele>149.8</ele>
        <time>2022-04-14T16:03:08Z</time>
      </trkpt>
      <trkpt lat="42.8487360" lon="-8.5119730">
        <ele>150.0</ele>
        <time>2022-04-14T16:03:09Z</time>
      </trkpt>
      <trkpt lat="42.8487550" lon="-8.5119120">
        <ele>150.2</ele>
        <time>2022-04-14T16:03:10Z</time>
      </trkpt>
      <trkpt lat="42.8487960" lon="-8.5118990">
        <ele>150.4</ele>
        <time>2022-04-14T16:03:11Z</time>
      </trkpt>
      <trkpt lat="42.8488370" lon="-8.5118860">
        <ele>150.7</ele>
        <time>2022-04-14T16:03:12Z</time>
      </trkpt>
      <trkpt lat="42.8488780" lon="-8.5118730">
        <ele>150.6</ele>
        <time>2022-04-14T16:03:13Z</time>
      </trkpt>
      <trkpt lat="42.8489190" lon="-8.5118600">
        <ele>150.5</ele>
        <time>2022-04-14T16:03:14Z</time>
      </trkpt>
      <trkpt lat="42.8489690" lon="-8.5118880">
        <ele>150.4</ele>
        <time>2022-04-14T16:03:15Z</time>
      </trkpt>
      <trkpt lat="42.8489930" lon="-8.5119040">
        <ele>150.4</ele>
        <time>2022-04-14T16:03:16Z</time>
      </trkpt>
      <trkpt lat="42.8490170" lon="-8.5119200">
        <ele>150.3</ele>
        <time>2022-04-14T16:03:17Z</time>
      </trkpt>
      <trkpt lat="42.8490890" lon="-8.5119670">
        <ele>150.2</ele>
        <time>2022-04-14T16:03:18Z</time>
      </trkpt>
      <trkpt lat="42.8491140" lon="-8.5119840">
        <ele>150.2</ele>
        <time>2022-04-14T16:03:19Z</time>
      </trkpt>
      <trkpt lat="42.8491880" lon="-8.5120290">
        <ele>150.1</ele>
        <time>2022-04-14T16:03:20Z</time>
      </trkpt>
      <trkpt lat="42.8492120" lon="-8.5120420">
        <ele>150.1</ele>
        <time>2022-04-14T16:03:21Z</time>
      </trkpt>
      <trkpt lat="42.8492880" lon="-8.5120830">
        <ele>150.1</ele>
        <time>2022-04-14T16:03:22Z</time>
      </trkpt>
      <trkpt lat="42.8493170" lon="-8.5120990">
        <ele>150.1</ele>
        <time>2022-04-14T16:03:23Z</time>
      </trkpt>
      <trkpt lat="42.8493460" lon="-8.5121140">
        <ele>150.1</ele>
        <time>2022-04-14T16:03:24Z</time>
      </trkpt>
      <trkpt lat="42.8493940" lon="-8.5121240">
        <ele>150.2</ele>
        <time>2022-04-14T16:03:25Z</time>
      </trkpt>
      <trkpt lat="42.8494410" lon="-8.5121340">
        <ele>150.3</ele>
        <time>2022-04-14T16:03:26Z</time>
      </trkpt>
      <trkpt lat="42.8494500" lon="-8.5121340">
        <ele>150.3</ele>
        <time>2022-04-14T16:03:27Z</time>
      </trkpt>
      <trkpt lat="42.8494590" lon="-8.5121340">
        <ele>150.3</ele>
        <time>2022-04-14T16:03:28Z</time>
      </trkpt>
      <trkpt lat="42.8494680" lon="-8.5121340">
        <ele>150.3</ele>
        <time>2022-04-14T16:03:29Z</time>
      </trkpt>
      <trkpt lat="42.8494770" lon="-8.5121340">
        <ele>150.3</ele>
        <time>2022-04-14T16:03:30Z</time>
      </trkpt>
      <trkpt lat="42.8494860" lon="-8.5121340">
        <ele>150.4</ele>
        <time>2022-04-14T16:03:31Z</time>
      </trkpt>
      <trkpt lat="42.8494950" lon="-8.5121340">
        <ele>150.4</ele>
        <time>2022-04-14T16:03:32Z</time>
      </trkpt>
      <trkpt lat="42.8495030" lon="-8.5121340">
        <ele>150.4</ele>
        <time>2022-04-14T16:03:33Z</time>
      </trkpt>
      <trkpt lat="42.8495120" lon="-8.5121330">
        <ele>150.4</ele>
        <time>2022-04-14T16:03:34Z</time>
      </trkpt>
      <trkpt lat="42.8495210" lon="-8.5121330">
        <ele>150.5</ele>
        <time>2022-04-14T16:03:35Z</time>
      </trkpt>
      <trkpt lat="42.8495300" lon="-8.5121330">
        <ele>150.5</ele>
        <time>2022-04-14T16:03:36Z</time>
      </trkpt>
      <trkpt lat="42.8495390" lon="-8.5121330">
        <ele>150.5</ele>
        <time>2022-04-14T16:03:37Z</time>
      </trkpt>
      <trkpt lat="42.8495500" lon="-8.5121340">
        <ele>150.6</ele>
        <time>2022-04-14T16:03:38Z</time>
      </trkpt>
      <trkpt lat="42.8495620" lon="-8.5121360">
        <ele>150.6</ele>
        <time>2022-04-14T16:03:39Z</time>
      </trkpt>
      <trkpt lat="42.8495730" lon="-8.5121370">
        <ele>150.7</ele>
        <time>2022-04-14T16:03:40Z</time>
      </trkpt>
      <trkpt lat="42.8495840" lon="-8.5121380">
        <ele>150.7</ele>
        <time>2022-04-14T16:03:41Z</time>
      </trkpt>
      <trkpt lat="42.8495950" lon="-8.5121390">
        <ele>150.8</ele>
        <time>2022-04-14T16:03:42Z</time>
      </trkpt>
      <trkpt lat="42.8496070" lon="-8.5121410">
        <ele>150.8</ele>
        <time>2022-04-14T16:03:43Z</time>
      </trkpt>
      <trkpt lat="42.8496180" lon="-8.5121420">
        <ele>150.9</ele>
        <time>2022-04-14T16:03:44Z</time>
      </trkpt>
      <trkpt lat="42.8496290" lon="-8.5121430">
        <ele>151.0</ele>
        <time>2022-04-14T16:03:45Z</time>
      </trkpt>
      <trkpt lat="42.8496440" lon="-8.5121480">
        <ele>151.1</ele>
        <time>2022-04-14T16:03:46Z</time>
      </trkpt>
      <trkpt lat="42.8496600" lon="-8.5121530">
        <ele>151.2</ele>
        <time>2022-04-14T16:03:47Z</time>
      </trkpt>
      <trkpt lat="42.8496750" lon="-8.5121580">
        <ele>151.3</ele>
        <time>2022-04-14T16:03:48Z</time>
      </trkpt>
      <trkpt lat="42.8496900" lon="-8.5121630">
        <ele>151.4</ele>
        <time>2022-04-14T16:03:49Z</time>
      </trkpt>
      <trkpt lat="42.8497060" lon="-8.5121670">
        <ele>151.6</ele>
        <time>2022-04-14T16:03:50Z</time>
      </trkpt>
      <trkpt lat="42.8497210" lon="-8.5121720">
        <ele>152.0</ele>
        <time>2022-04-14T16:03:51Z</time>
      </trkpt>
      <trkpt lat="42.8497330" lon="-8.5121730">
        <ele>152.3</ele>
        <time>2022-04-14T16:03:52Z</time>
      </trkpt>
      <trkpt lat="42.8497450" lon="-8.5121740">
        <ele>152.5</ele>
        <time>2022-04-14T16:03:53Z</time>
      </trkpt>
      <trkpt lat="42.8497570" lon="-8.5121750">
        <ele>152.8</ele>
        <time>2022-04-14T16:03:54Z</time>
      </trkpt>
      <trkpt lat="42.8497700" lon="-8.5121760">
        <ele>153.1</ele>
        <time>2022-04-14T16:03:55Z</time>
      </trkpt>
      <trkpt lat="42.8497820" lon="-8.5121770">
        <ele>153.4</ele>
        <time>2022-04-14T16:03:56Z</time>
      </trkpt>
      <trkpt lat="42.8497940" lon="-8.5121770">
        <ele>153.7</ele>
        <time>2022-04-14T16:03:57Z</time>
      </trkpt>
      <trkpt lat="42.8498060" lon="-8.5121780">
        <ele>154.0</ele>
        <time>2022-04-14T16:03:58Z</time>
      </trkpt>
      <trkpt lat="42.8498180" lon="-8.5121790">
        <ele>154.3</ele>
        <time>2022-04-14T16:03:59Z</time>
      </trkpt>
      <trkpt lat="42.8498290" lon="-8.5121810">
        <ele>154.6</ele>
        <time>2022-04-14T16:04:00Z</time>
      </trkpt>
      <trkpt lat="42.8498390" lon="-8.5121830">
        <ele>154.8</ele>
        <time>2022-04-14T16:04:01Z</time>
      </trkpt>
      <trkpt lat="42.8498490" lon="-8.5121850">
        <ele>155.1</ele>
        <time>2022-04-14T16:04:02Z</time>
      </trkpt>
      <trkpt lat="42.8498600" lon="-8.5121860">
        <ele>155.3</ele>
        <time>2022-04-14T16:04:03Z</time>
      </trkpt>
      <trkpt lat="42.8498700" lon="-8.5121880">
        <ele>155.6</ele>
        <time>2022-04-14T16:04:04Z</time>
      </trkpt>
      <trkpt lat="42.8499310" lon="-8.5122130">
        <ele>156.5</ele>
        <time>2022-04-14T16:04:05Z</time>
      </trkpt>
      <trkpt lat="42.8499400" lon="-8.5122300">
        <ele>156.5</ele>
        <time>2022-04-14T16:04:06Z</time>
      </trkpt>
      <trkpt lat="42.8499490" lon="-8.5122460">
        <ele>156.6</ele>
        <time>2022-04-14T16:04:07Z</time>
      </trkpt>
      <trkpt lat="42.8499580" lon="-8.5122630">
        <ele>156.6</ele>
        <time>2022-04-14T16:04:08Z</time>
      </trkpt>
      <trkpt lat="42.8500050" lon="-8.5123480">
        <ele>156.7</ele>
        <time>2022-04-14T16:04:09Z</time>
      </trkpt>
      <trkpt lat="42.8500170" lon="-8.5123680">
        <ele>156.8</ele>
        <time>2022-04-14T16:04:10Z</time>
      </trkpt>
      <trkpt lat="42.8500290" lon="-8.5123880">
        <ele>156.8</ele>
        <time>2022-04-14T16:04:11Z</time>
      </trkpt>
      <trkpt lat="42.8500750" lon="-8.5124700">
        <ele>156.9</ele>
        <time>2022-04-14T16:04:12Z</time>
      </trkpt>
      <trkpt lat="42.8500870" lon="-8.5124930">
        <ele>157.0</ele>
        <time>2022-04-14T16:04:13Z</time>
      </trkpt>
      <trkpt lat="42.8500980" lon="-8.5125160">
        <ele>157.0</ele>
        <time>2022-04-14T16:04:14Z</time>
      </trkpt>
      <trkpt lat="42.8501560" lon="-8.5126150">
        <ele>157.1</ele>
        <time>2022-04-14T16:04:15Z</time>
      </trkpt>
      <trkpt lat="42.8501790" lon="-8.5126440">
        <ele>157.2</ele>
        <time>2022-04-14T16:04:16Z</time>
      </trkpt>
      <trkpt lat="42.8502020" lon="-8.5126740">
        <ele>157.3</ele>
        <time>2022-04-14T16:04:17Z</time>
      </trkpt>
      <trkpt lat="42.8502650" lon="-8.5127780">
        <ele>157.6</ele>
        <time>2022-04-14T16:04:18Z</time>
      </trkpt>
      <trkpt lat="42.8502910" lon="-8.5128300">
        <ele>157.7</ele>
        <time>2022-04-14T16:04:19Z</time>
      </trkpt>
      <trkpt lat="42.8503170" lon="-8.5128820">
        <ele>157.8</ele>
        <time>2022-04-14T16:04:20Z</time>
      </trkpt>
      <trkpt lat="42.8503410" lon="-8.5129390">
        <ele>157.9</ele>
        <time>2022-04-14T16:04:21Z</time>
      </trkpt>
      <trkpt lat="42.8503660" lon="-8.5129960">
        <ele>158.0</ele>
        <time>2022-04-14T16:04:22Z</time>
      </trkpt>
      <trkpt lat="42.8503940" lon="-8.5130530">
        <ele>158.1</ele>
        <time>2022-04-14T16:04:23Z</time>
      </trkpt>
      <trkpt lat="42.8504230" lon="-8.5131110">
        <ele>158.2</ele>
        <time>2022-04-14T16:04:24Z</time>
      </trkpt>
      <trkpt lat="42.8504420" lon="-8.5131480">
        <ele>158.3</ele>
        <time>2022-04-14T16:04:25Z</time>
      </trkpt>
      <trkpt lat="42.8504610" lon="-8.5131850">
        <ele>158.3</ele>
        <time>2022-04-14T16:04:26Z</time>
      </trkpt>
      <trkpt lat="42.8504810" lon="-8.5132220">
        <ele>158.4</ele>
        <time>2022-04-14T16:04:27Z</time>
      </trkpt>
      <trkpt lat="42.8505330" lon="-8.5133440">
        <ele>158.6</ele>
        <time>2022-04-14T16:04:28Z</time>
      </trkpt>
      <trkpt lat="42.8505520" lon="-8.5134050">
        <ele>158.7</ele>
        <time>2022-04-14T16:04:29Z</time>
      </trkpt>
      <trkpt lat="42.8505720" lon="-8.5134660">
        <ele>158.8</ele>
        <time>2022-04-14T16:04:30Z</time>
      </trkpt>
      <trkpt lat="42.8505890" lon="-8.5134720">
        <ele>158.9</ele>
        <time>2022-04-14T16:04:31Z</time>
      </trkpt>
      <trkpt lat="42.8506070" lon="-8.5134780">
        <ele>158.9</ele>
        <time>2022-04-14T16:04:32Z</time>
      </trkpt>
      <trkpt lat="42.8506240" lon="-8.5134850">
        <ele>159.0</ele>
        <time>2022-04-14T16:04:33Z</time>
      </trkpt>
      <trkpt lat="42.8506980" lon="-8.5134810">
        <ele>159.7</ele>
        <time>2022-04-14T16:04:34Z</time>
      </trkpt>
      <trkpt lat="42.8507200" lon="-8.5134600">
        <ele>159.7</ele>
        <time>2022-04-14T16:04:35Z</time>
      </trkpt>
      <trkpt lat="42.8507910" lon="-8.5133870">
        <ele>160.0</ele>
        <time>2022-04-14T16:04:36Z</time>
      </trkpt>
      <trkpt lat="42.8508180" lon="-8.5133570">
        <ele>160.1</ele>
        <time>2022-04-14T16:04:37Z</time>
      </trkpt>
      <trkpt lat="42.8508460" lon="-8.5133270">
        <ele>160.2</ele>
        <time>2022-04-14T16:04:38Z</time>
      </trkpt>
      <trkpt lat="42.8509330" lon="-8.5132390">
        <ele>160.6</ele>
        <time>2022-04-14T16:04:39Z</time>
      </trkpt>
      <trkpt lat="42.8509560" lon="-8.5132170">
        <ele>160.7</ele>
        <time>2022-04-14T16:04:40Z</time>
      </trkpt>
      <trkpt lat="42.8509790" lon="-8.5131950">
        <ele>160.8</ele>
        <time>2022-04-14T16:04:41Z</time>
      </trkpt>
      <trkpt lat="42.8510450" lon="-8.5131290">
        <ele>161.1</ele>
        <time>2022-04-14T16:04:42Z</time>
      </trkpt>
      <trkpt lat="42.8510660" lon="-8.5131060">
        <ele>161.2</ele>
        <time>2022-04-14T16:04:43Z</time>
      </trkpt>
      <trkpt lat="42.8511510" lon="-8.5130150">
        <ele>161.7</ele>
        <time>2022-04-14T16:04:44Z</time>
      </trkpt>
      <trkpt lat="42.8511950" lon="-8.5129700">
        <ele>161.9</ele>
        <time>2022-04-14T16:04:45Z</time>
      </trkpt>
      <trkpt lat="42.8512390" lon="-8.5129240">
        <ele>162.1</ele>
        <time>2022-04-14T16:04:46Z</time>
      </trkpt>
      <trkpt lat="42.8512860" lon="-8.5128790">
        <ele>162.3</ele>
        <time>2022-04-14T16:04:47Z</time>
      </trkpt>
      <trkpt lat="42.8513080" lon="-8.5128560">
        <ele>162.4</ele>
        <time>2022-04-14T16:04:48Z</time>
      </trkpt>
      <trkpt lat="42.8513310" lon="-8.5128330">
        <ele>162.5</ele>
        <time>2022-04-14T16:04:49Z</time>
      </trkpt>
      <trkpt lat="42.8513980" lon="-8.5127630">
        <ele>162.9</ele>
        <time>2022-04-14T16:04:50Z</time>
      </trkpt>
      <trkpt lat="42.8514200" lon="-8.5127380">
        <ele>163.0</ele>
        <time>2022-04-14T16:04:51Z</time>
      </trkpt>
      <trkpt lat="42.8514880" lon="-8.5126650">
        <ele>163.4</ele>
        <time>2022-04-14T16:04:52Z</time>
      </trkpt>
      <trkpt lat="42.8515110" lon="-8.5126410">
        <ele>163.5</ele>
        <time>2022-04-14T16:04:53Z</time>
      </trkpt>
      <trkpt lat="42.8515980" lon="-8.5125490">
        <ele>163.9</ele>
        <time>2022-04-14T16:04:54Z</time>
      </trkpt>
      <trkpt lat="42.8516400" lon="-8.5125050">
        <ele>164.1</ele>
        <time>2022-04-14T16:04:55Z</time>
      </trkpt>
      <trkpt lat="42.8516820" lon="-8.5124600">
        <ele>164.3</ele>
        <time>2022-04-14T16:04:56Z</time>
      </trkpt>
      <trkpt lat="42.8517250" lon="-8.5124170">
        <ele>164.4</ele>
        <time>2022-04-14T16:04:57Z</time>
      </trkpt>
      <trkpt lat="42.8517470" lon="-8.5123960">
        <ele>164.5</ele>
        <time>2022-04-14T16:04:58Z</time>
      </trkpt>
      <trkpt lat="42.8517690" lon="-8.5123750">
        <ele>164.6</ele>
        <time>2022-04-14T16:04:59Z</time>
      </trkpt>
      <trkpt lat="42.8518340" lon="-8.5123100">
        <ele>164.8</ele>
        <time>2022-04-14T16:05:00Z</time>
      </trkpt>
      <trkpt lat="42.8518560" lon="-8.5122870">
        <ele>164.9</ele>
        <time>2022-04-14T16:05:01Z</time>
      </trkpt>
      <trkpt lat="42.8519410" lon="-8.5121880">
        <ele>165.2</ele>
        <time>2022-04-14T16:05:02Z</time>
      </trkpt>
      <trkpt lat="42.8519840" lon="-8.5121330">
        <ele>165.3</ele>
        <time>2022-04-14T16:05:03Z</time>
      </trkpt>
      <trkpt lat="42.8520260" lon="-8.5120780">
        <ele>165.5</ele>
        <time>2022-04-14T16:05:04Z</time>
      </trkpt>
      <trkpt lat="42.8520670" lon="-8.5120200">
        <ele>165.5</ele>
        <time>2022-04-14T16:05:05Z</time>
      </trkpt>
      <trkpt lat="42.8520870" lon="-8.5119900">
        <ele>165.4</ele>
        <time>2022-04-14T16:05:06Z</time>
      </trkpt>
      <trkpt lat="42.8521060" lon="-8.5119610">
        <ele>165.3</ele>
        <time>2022-04-14T16:05:07Z</time>
      </trkpt>
      <trkpt lat="42.8521650" lon="-8.5118700">
        <ele>165.0</ele>
        <time>2022-04-14T16:05:08Z</time>
      </trkpt>
      <trkpt lat="42.8521850" lon="-8.5118390">
        <ele>164.9</ele>
        <time>2022-04-14T16:05:09Z</time>
      </trkpt>
      <trkpt lat="42.8522630" lon="-8.5117080">
        <ele>164.7</ele>
        <time>2022-04-14T16:05:10Z</time>
      </trkpt>
      <trkpt lat="42.8523000" lon="-8.5116400">
        <ele>164.8</ele>
        <time>2022-04-14T16:05:11Z</time>
      </trkpt>
      <trkpt lat="42.8523370" lon="-8.5115710">
        <ele>164.8</ele>
        <time>2022-04-14T16:05:12Z</time>
      </trkpt>
      <trkpt lat="42.8523720" lon="-8.5114980">
        <ele>164.8</ele>
        <time>2022-04-14T16:05:13Z</time>
      </trkpt>
      <trkpt lat="42.8523910" lon="-8.5114630">
        <ele>164.8</ele>
        <time>2022-04-14T16:05:14Z</time>
      </trkpt>
      <trkpt lat="42.8524090" lon="-8.5114270">
        <ele>164.8</ele>
        <time>2022-04-14T16:05:15Z</time>
      </trkpt>
      <trkpt lat="42.8524640" lon="-8.5113220">
        <ele>164.8</ele>
        <time>2022-04-14T16:05:16Z</time>
      </trkpt>
      <trkpt lat="42.8524810" lon="-8.5112880">
        <ele>164.8</ele>
        <time>2022-04-14T16:05:17Z</time>
      </trkpt>
      <trkpt lat="42.8525530" lon="-8.5111510">
        <ele>164.9</ele>
        <time>2022-04-14T16:05:18Z</time>
      </trkpt>
      <trkpt lat="42.8525910" lon="-8.5110820">
        <ele>164.9</ele>
        <time>2022-04-14T16:05:19Z</time>
      </trkpt>
      <trkpt lat="42.8526280" lon="-8.5110120">
        <ele>164.9</ele>
        <time>2022-04-14T16:05:20Z</time>
      </trkpt>
      <trkpt lat="42.8526620" lon="-8.5109420">
        <ele>164.9</ele>
        <time>2022-04-14T16:05:21Z</time>
      </trkpt>
      <trkpt lat="42.8526770" lon="-8.5109170">
        <ele>164.8</ele>
        <time>2022-04-14T16:05:22Z</time>
      </trkpt>
      <trkpt lat="42.8526910" lon="-8.5108920">
        <ele>164.8</ele>
        <time>2022-04-14T16:05:23Z</time>
      </trkpt>
      <trkpt lat="42.8527050" lon="-8.5108670">
        <ele>164.8</ele>
        <time>2022-04-14T16:05:24Z</time>
      </trkpt>
      <trkpt lat="42.8527190" lon="-8.5108420">
        <ele>164.8</ele>
        <time>2022-04-14T16:05:25Z</time>
      </trkpt>
      <trkpt lat="42.8527310" lon="-8.5108230">
        <ele>164.8</ele>
        <time>2022-04-14T16:05:26Z</time>
      </trkpt>
      <trkpt lat="42.8527440" lon="-8.5108040">
        <ele>164.8</ele>
        <time>2022-04-14T16:05:27Z</time>
      </trkpt>
      <trkpt lat="42.8527560" lon="-8.5107850">
        <ele>164.7</ele>
        <time>2022-04-14T16:05:28Z</time>
      </trkpt>
      <trkpt lat="42.8528070" lon="-8.5106990">
        <ele>164.6</ele>
        <time>2022-04-14T16:05:29Z</time>
      </trkpt>
      <trkpt lat="42.8528220" lon="-8.5106690">
        <ele>164.6</ele>
        <time>2022-04-14T16:05:30Z</time>
      </trkpt>
      <trkpt lat="42.8528940" lon="-8.5105450">
        <ele>164.7</ele>
        <time>2022-04-14T16:05:31Z</time>
      </trkpt>
      <trkpt lat="42.8529360" lon="-8.5104800">
        <ele>164.7</ele>
        <time>2022-04-14T16:05:32Z</time>
      </trkpt>
      <trkpt lat="42.8529780" lon="-8.5104140">
        <ele>164.8</ele>
        <time>2022-04-14T16:05:33Z</time>
      </trkpt>
      <trkpt lat="42.8530200" lon="-8.5103470">
        <ele>164.8</ele>
        <time>2022-04-14T16:05:34Z</time>
      </trkpt>
      <trkpt lat="42.8530400" lon="-8.5103110">
        <ele>164.9</ele>
        <time>2022-04-14T16:05:35Z</time>
      </trkpt>
      <trkpt lat="42.8530590" lon="-8.5102750">
        <ele>164.9</ele>
        <time>2022-04-14T16:05:36Z</time>
      </trkpt>
      <trkpt lat="42.8531180" lon="-8.5101660">
        <ele>165.2</ele>
        <time>2022-04-14T16:05:37Z</time>
      </trkpt>
      <trkpt lat="42.8531390" lon="-8.5101290">
        <ele>165.2</ele>
        <time>2022-04-14T16:05:38Z</time>
      </trkpt>
      <trkpt lat="42.8532220" lon="-8.5099830">
        <ele>165.6</ele>
        <time>2022-04-14T16:05:39Z</time>
      </trkpt>
      <trkpt lat="42.8532640" lon="-8.5099110">
        <ele>165.8</ele>
        <time>2022-04-14T16:05:40Z</time>
      </trkpt>
      <trkpt lat="42.8533060" lon="-8.5098390">
        <ele>166.0</ele>
        <time>2022-04-14T16:05:41Z</time>
      </trkpt>
      <trkpt lat="42.8533460" lon="-8.5097650">
        <ele>166.2</ele>
        <time>2022-04-14T16:05:42Z</time>
      </trkpt>
      <trkpt lat="42.8533650" lon="-8.5097280">
        <ele>166.4</ele>
        <time>2022-04-14T16:05:43Z</time>
      </trkpt>
      <trkpt lat="42.8533830" lon="-8.5096910">
        <ele>166.5</ele>
        <time>2022-04-14T16:05:44Z</time>
      </trkpt>
      <trkpt lat="42.8534570" lon="-8.5095480">
        <ele>167.0</ele>
        <time>2022-04-14T16:05:45Z</time>
      </trkpt>
      <trkpt lat="42.8534930" lon="-8.5094770">
        <ele>167.3</ele>
        <time>2022-04-14T16:05:46Z</time>
      </trkpt>
      <trkpt lat="42.8535300" lon="-8.5094070">
        <ele>167.5</ele>
        <time>2022-04-14T16:05:47Z</time>
      </trkpt>
      <trkpt lat="42.8535700" lon="-8.5093400">
        <ele>167.7</ele>
        <time>2022-04-14T16:05:48Z</time>
      </trkpt>
      <trkpt lat="42.8535900" lon="-8.5093070">
        <ele>167.8</ele>
        <time>2022-04-14T16:05:49Z</time>
      </trkpt>
      <trkpt lat="42.8536100" lon="-8.5092730">
        <ele>167.9</ele>
        <time>2022-04-14T16:05:50Z</time>
      </trkpt>
      <trkpt lat="42.8536880" lon="-8.5091380">
        <ele>168.4</ele>
        <time>2022-04-14T16:05:51Z</time>
      </trkpt>
      <trkpt lat="42.8537270" lon="-8.5090700">
        <ele>168.7</ele>
        <time>2022-04-14T16:05:52Z</time>
      </trkpt>
      <trkpt lat="42.8537650" lon="-8.5090010">
        <ele>169.0</ele>
        <time>2022-04-14T16:05:53Z</time>
      </trkpt>
      <trkpt lat="42.8538190" lon="-8.5089050">
        <ele>169.5</ele>
        <time>2022-04-14T16:05:54Z</time>
      </trkpt>
      <trkpt lat="42.8538380" lon="-8.5088770">
        <ele>169.7</ele>
        <time>2022-04-14T16:05:55Z</time>
      </trkpt>
      <trkpt lat="42.8538750" lon="-8.5088200">
        <ele>170.1</ele>
        <time>2022-04-14T16:05:56Z</time>
      </trkpt>
      <trkpt lat="42.8539000" lon="-8.5088010">
        <ele>170.2</ele>
        <time>2022-04-14T16:05:57Z</time>
      </trkpt>
      <trkpt lat="42.8539250" lon="-8.5087820">
        <ele>170.4</ele>
        <time>2022-04-14T16:05:58Z</time>
      </trkpt>
      <trkpt lat="42.8540240" lon="-8.5087220">
        <ele>171.1</ele>
        <time>2022-04-14T16:05:59Z</time>
      </trkpt>
      <trkpt lat="42.8540740" lon="-8.5087010">
        <ele>171.4</ele>
        <time>2022-04-14T16:06:00Z</time>
      </trkpt>
      <trkpt lat="42.8540990" lon="-8.5086920">
        <ele>171.6</ele>
        <time>2022-04-14T16:06:01Z</time>
      </trkpt>
      <trkpt lat="42.8541240" lon="-8.5086830">
        <ele>171.9</ele>
        <time>2022-04-14T16:06:02Z</time>
      </trkpt>
      <trkpt lat="42.8542010" lon="-8.5086520">
        <ele>172.5</ele>
        <time>2022-04-14T16:06:03Z</time>
      </trkpt>
      <trkpt lat="42.8542300" lon="-8.5086380">
        <ele>172.8</ele>
        <time>2022-04-14T16:06:04Z</time>
      </trkpt>
      <trkpt lat="42.8542580" lon="-8.5086250">
        <ele>173.0</ele>
        <time>2022-04-14T16:06:05Z</time>
      </trkpt>
      <trkpt lat="42.8542860" lon="-8.5086110">
        <ele>173.3</ele>
        <time>2022-04-14T16:06:06Z</time>
      </trkpt>
      <trkpt lat="42.8543120" lon="-8.5086020">
        <ele>173.5</ele>
        <time>2022-04-14T16:06:07Z</time>
      </trkpt>
      <trkpt lat="42.8543380" lon="-8.5085930">
        <ele>173.7</ele>
        <time>2022-04-14T16:06:08Z</time>
      </trkpt>
      <trkpt lat="42.8544330" lon="-8.5085560">
        <ele>174.5</ele>
        <time>2022-04-14T16:06:09Z</time>
      </trkpt>
      <trkpt lat="42.8544760" lon="-8.5085360">
        <ele>174.9</ele>
        <time>2022-04-14T16:06:10Z</time>
      </trkpt>
      <trkpt lat="42.8544970" lon="-8.5085280">
        <ele>175.1</ele>
        <time>2022-04-14T16:06:11Z</time>
      </trkpt>
      <trkpt lat="42.8545180" lon="-8.5085210">
        <ele>175.3</ele>
        <time>2022-04-14T16:06:12Z</time>
      </trkpt>
      <trkpt lat="42.8545390" lon="-8.5085130">
        <ele>175.4</ele>
        <time>2022-04-14T16:06:13Z</time>
      </trkpt>
      <trkpt lat="42.8546290" lon="-8.5084790">
        <ele>176.2</ele>
        <time>2022-04-14T16:06:14Z</time>
      </trkpt>
      <trkpt lat="42.8546570" lon="-8.5084690">
        <ele>176.5</ele>
        <time>2022-04-14T16:06:15Z</time>
      </trkpt>
      <trkpt lat="42.8546850" lon="-8.5084580">
        <ele>176.7</ele>
        <time>2022-04-14T16:06:16Z</time>
      </trkpt>
      <trkpt lat="42.8547130" lon="-8.5084480">
        <ele>177.0</ele>
        <time>2022-04-14T16:06:17Z</time>
      </trkpt>
      <trkpt lat="42.8547410" lon="-8.5084360">
        <ele>177.2</ele>
        <time>2022-04-14T16:06:18Z</time>
      </trkpt>
      <trkpt lat="42.8547690" lon="-8.5084230">
        <ele>177.5</ele>
        <time>2022-04-14T16:06:19Z</time>
      </trkpt>
      <trkpt lat="42.8548430" lon="-8.5083900">
        <ele>178.1</ele>
        <time>2022-04-14T16:06:20Z</time>
      </trkpt>
      <trkpt lat="42.8548600" lon="-8.5083820">
        <ele>178.3</ele>
        <time>2022-04-14T16:06:21Z</time>
      </trkpt>
      <trkpt lat="42.8548780" lon="-8.5083730">
        <ele>178.4</ele>
        <time>2022-04-14T16:06:22Z</time>
      </trkpt>
      <trkpt lat="42.8549490" lon="-8.5083400">
        <ele>179.0</ele>
        <time>2022-04-14T16:06:23Z</time>
      </trkpt>
      <trkpt lat="42.8549670" lon="-8.5083330">
        <ele>179.2</ele>
        <time>2022-04-14T16:06:24Z</time>
      </trkpt>
      <trkpt lat="42.8549850" lon="-8.5083250">
        <ele>179.3</ele>
        <time>2022-04-14T16:06:25Z</time>
      </trkpt>
      <trkpt lat="42.8550600" lon="-8.5082950">
        <ele>180.0</ele>
        <time>2022-04-14T16:06:26Z</time>
      </trkpt>
      <trkpt lat="42.8550810" lon="-8.5082860">
        <ele>180.2</ele>
        <time>2022-04-14T16:06:27Z</time>
      </trkpt>
      <trkpt lat="42.8551010" lon="-8.5082780">
        <ele>180.3</ele>
        <time>2022-04-14T16:06:28Z</time>
      </trkpt>
      <trkpt lat="42.8551930" lon="-8.5082430">
        <ele>181.1</ele>
        <time>2022-04-14T16:06:29Z</time>
      </trkpt>
      <trkpt lat="42.8552230" lon="-8.5082340">
        <ele>181.4</ele>
        <time>2022-04-14T16:06:30Z</time>
      </trkpt>
      <trkpt lat="42.8552540" lon="-8.5082240">
        <ele>181.6</ele>
        <time>2022-04-14T16:06:31Z</time>
      </trkpt>
      <trkpt lat="42.8552840" lon="-8.5082150">
        <ele>181.9</ele>
        <time>2022-04-14T16:06:32Z</time>
      </trkpt>
      <trkpt lat="42.8553100" lon="-8.5082060">
        <ele>182.1</ele>
        <time>2022-04-14T16:06:33Z</time>
      </trkpt>
      <trkpt lat="42.8553360" lon="-8.5081970">
        <ele>182.4</ele>
        <time>2022-04-14T16:06:34Z</time>
      </trkpt>
      <trkpt lat="42.8554070" lon="-8.5081710">
        <ele>183.0</ele>
        <time>2022-04-14T16:06:35Z</time>
      </trkpt>
      <trkpt lat="42.8554260" lon="-8.5081620">
        <ele>183.2</ele>
        <time>2022-04-14T16:06:36Z</time>
      </trkpt>
      <trkpt lat="42.8554440" lon="-8.5081530">
        <ele>183.4</ele>
        <time>2022-04-14T16:06:37Z</time>
      </trkpt>
      <trkpt lat="42.8555180" lon="-8.5081190">
        <ele>184.1</ele>
        <time>2022-04-14T16:06:38Z</time>
      </trkpt>
      <trkpt lat="42.8555360" lon="-8.5081110">
        <ele>184.2</ele>
        <time>2022-04-14T16:06:39Z</time>
      </trkpt>
      <trkpt lat="42.8555540" lon="-8.5081020">
        <ele>184.4</ele>
        <time>2022-04-14T16:06:40Z</time>
      </trkpt>
      <trkpt lat="42.8556350" lon="-8.5080650">
        <ele>185.2</ele>
        <time>2022-04-14T16:06:41Z</time>
      </trkpt>
      <trkpt lat="42.8556610" lon="-8.5080520">
        <ele>185.4</ele>
        <time>2022-04-14T16:06:42Z</time>
      </trkpt>
      <trkpt lat="42.8556870" lon="-8.5080400">
        <ele>185.7</ele>
        <time>2022-04-14T16:06:43Z</time>
      </trkpt>
      <trkpt lat="42.8557130" lon="-8.5080270">
        <ele>185.9</ele>
        <time>2022-04-14T16:06:44Z</time>
      </trkpt>
      <trkpt lat="42.8557420" lon="-8.5080170">
        <ele>186.2</ele>
        <time>2022-04-14T16:06:45Z</time>
      </trkpt>
      <trkpt lat="42.8557710" lon="-8.5080060">
        <ele>186.5</ele>
        <time>2022-04-14T16:06:46Z</time>
      </trkpt>
      <trkpt lat="42.8558550" lon="-8.5079740">
        <ele>187.3</ele>
        <time>2022-04-14T16:06:47Z</time>
      </trkpt>
      <trkpt lat="42.8558820" lon="-8.5079630">
        <ele>187.5</ele>
        <time>2022-04-14T16:06:48Z</time>
      </trkpt>
      <trkpt lat="42.8559080" lon="-8.5079510">
        <ele>187.8</ele>
        <time>2022-04-14T16:06:49Z</time>
      </trkpt>
      <trkpt lat="42.8559350" lon="-8.5079400">
        <ele>188.0</ele>
        <time>2022-04-14T16:06:50Z</time>
      </trkpt>
      <trkpt lat="42.8559620" lon="-8.5079300">
        <ele>188.3</ele>
        <time>2022-04-14T16:06:51Z</time>
      </trkpt>
      <trkpt lat="42.8559900" lon="-8.5079200">
        <ele>188.6</ele>
        <time>2022-04-14T16:06:52Z</time>
      </trkpt>
      <trkpt lat="42.8560710" lon="-8.5078900">
        <ele>189.3</ele>
        <time>2022-04-14T16:06:53Z</time>
      </trkpt>
      <trkpt lat="42.8560980" lon="-8.5078800">
        <ele>189.6</ele>
        <time>2022-04-14T16:06:54Z</time>
      </trkpt>
      <trkpt lat="42.8561240" lon="-8.5078690">
        <ele>189.8</ele>
        <time>2022-04-14T16:06:55Z</time>
      </trkpt>
      <trkpt lat="42.8561510" lon="-8.5078590">
        <ele>190.1</ele>
        <time>2022-04-14T16:06:56Z</time>
      </trkpt>
      <trkpt lat="42.8562020" lon="-8.5078440">
        <ele>190.7</ele>
        <time>2022-04-14T16:06:57Z</time>
      </trkpt>
      <trkpt lat="42.8562530" lon="-8.5078290">
        <ele>191.2</ele>
        <time>2022-04-14T16:06:58Z</time>
      </trkpt>
      <trkpt lat="42.8562690" lon="-8.5078230">
        <ele>191.4</ele>
        <time>2022-04-14T16:06:59Z</time>
      </trkpt>
      <trkpt lat="42.8562860" lon="-8.5078180">
        <ele>191.6</ele>
        <time>2022-04-14T16:07:00Z</time>
      </trkpt>
      <trkpt lat="42.8563020" lon="-8.5078130">
        <ele>191.8</ele>
        <time>2022-04-14T16:07:01Z</time>
      </trkpt>
      <trkpt lat="42.8563850" lon="-8.5077960">
        <ele>192.8</ele>
        <time>2022-04-14T16:07:02Z</time>
      </trkpt>
      <trkpt lat="42.8564190" lon="-8.5077960">
        <ele>193.2</ele>
        <time>2022-04-14T16:07:03Z</time>
      </trkpt>
      <trkpt lat="42.8564530" lon="-8.5077950">
        <ele>193.7</ele>
        <time>2022-04-14T16:07:04Z</time>
      </trkpt>
      <trkpt lat="42.8564830" lon="-8.5077990">
        <ele>194.1</ele>
        <time>2022-04-14T16:07:05Z</time>
      </trkpt>
      <trkpt lat="42.8565130" lon="-8.5078030">
        <ele>194.5</ele>
        <time>2022-04-14T16:07:06Z</time>
      </trkpt>
      <trkpt lat="42.8565440" lon="-8.5078070">
        <ele>194.9</ele>
        <time>2022-04-14T16:07:07Z</time>
      </trkpt>
      <trkpt lat="42.8565640" lon="-8.5078170">
        <ele>195.2</ele>
        <time>2022-04-14T16:07:08Z</time>
      </trkpt>
      <trkpt lat="42.8565850" lon="-8.5078260">
        <ele>195.5</ele>
        <time>2022-04-14T16:07:09Z</time>
      </trkpt>
      <trkpt lat="42.8566060" lon="-8.5078360">
        <ele>195.8</ele>
        <time>2022-04-14T16:07:10Z</time>
      </trkpt>
      <trkpt lat="42.8566270" lon="-8.5078450">
        <ele>196.1</ele>
        <time>2022-04-14T16:07:11Z</time>
      </trkpt>
      <trkpt lat="42.8566480" lon="-8.5078540">
        <ele>196.4</ele>
        <time>2022-04-14T16:07:12Z</time>
      </trkpt>
      <trkpt lat="42.8566640" lon="-8.5078640">
        <ele>196.7</ele>
        <time>2022-04-14T16:07:13Z</time>
      </trkpt>
      <trkpt lat="42.8566810" lon="-8.5078730">
        <ele>196.9</ele>
        <time>2022-04-14T16:07:14Z</time>
      </trkpt>
      <trkpt lat="42.8566980" lon="-8.5078820">
        <ele>197.2</ele>
        <time>2022-04-14T16:07:15Z</time>
      </trkpt>
      <trkpt lat="42.8567610" lon="-8.5079160">
        <ele>198.2</ele>
        <time>2022-04-14T16:07:16Z</time>
      </trkpt>
      <trkpt lat="42.8567740" lon="-8.5079220">
        <ele>198.4</ele>
        <time>2022-04-14T16:07:17Z</time>
      </trkpt>
      <trkpt lat="42.8567870" lon="-8.5079280">
        <ele>198.6</ele>
        <time>2022-04-14T16:07:18Z</time>
      </trkpt>
      <trkpt lat="42.8568000" lon="-8.5079340">
        <ele>198.8</ele>
        <time>2022-04-14T16:07:19Z</time>
      </trkpt>
      <trkpt lat="42.8568730" lon="-8.5079690">
        <ele>200.2</ele>
        <time>2022-04-14T16:07:20Z</time>
      </trkpt>
      <trkpt lat="42.8568960" lon="-8.5079810">
        <ele>200.6</ele>
        <time>2022-04-14T16:07:21Z</time>
      </trkpt>
      <trkpt lat="42.8569180" lon="-8.5079930">
        <ele>201.0</ele>
        <time>2022-04-14T16:07:22Z</time>
      </trkpt>
      <trkpt lat="42.8569410" lon="-8.5080050">
        <ele>201.5</ele>
        <time>2022-04-14T16:07:23Z</time>
      </trkpt>
      <trkpt lat="42.8569580" lon="-8.5080140">
        <ele>201.8</ele>
        <time>2022-04-14T16:07:24Z</time>
      </trkpt>
      <trkpt lat="42.8569750" lon="-8.5080230">
        <ele>202.1</ele>
        <time>2022-04-14T16:07:25Z</time>
      </trkpt>
      <trkpt lat="42.8569920" lon="-8.5080310">
        <ele>202.4</ele>
        <time>2022-04-14T16:07:26Z</time>
      </trkpt>
      <trkpt lat="42.8570090" lon="-8.5080400">
        <ele>202.8</ele>
        <time>2022-04-14T16:07:27Z</time>
      </trkpt>
      <trkpt lat="42.8570260" lon="-8.5080480">
        <ele>203.1</ele>
        <time>2022-04-14T16:07:28Z</time>
      </trkpt>
      <trkpt lat="42.8570480" lon="-8.5080620">
        <ele>203.5</ele>
        <time>2022-04-14T16:07:29Z</time>
      </trkpt>
      <trkpt lat="42.8570700" lon="-8.5080750">
        <ele>203.9</ele>
        <time>2022-04-14T16:07:30Z</time>
      </trkpt>
      <trkpt lat="42.8570920" lon="-8.5080890">
        <ele>204.4</ele>
        <time>2022-04-14T16:07:31Z</time>
      </trkpt>
      <trkpt lat="42.8571140" lon="-8.5081020">
        <ele>204.8</ele>
        <time>2022-04-14T16:07:32Z</time>
      </trkpt>
      <trkpt lat="42.8571440" lon="-8.5081120">
        <ele>205.3</ele>
        <time>2022-04-14T16:07:33Z</time>
      </trkpt>
      <trkpt lat="42.8571740" lon="-8.5081210">
        <ele>205.8</ele>
        <time>2022-04-14T16:07:34Z</time>
      </trkpt>
      <trkpt lat="42.8572040" lon="-8.5081300">
        <ele>206.4</ele>
        <time>2022-04-14T16:07:35Z</time>
      </trkpt>
      <trkpt lat="42.8572230" lon="-8.5081480">
        <ele>206.7</ele>
        <time>2022-04-14T16:07:36Z</time>
      </trkpt>
      <trkpt lat="42.8572420" lon="-8.5081660">
        <ele>207.1</ele>
        <time>2022-04-14T16:07:37Z</time>
      </trkpt>
      <trkpt lat="42.8572610" lon="-8.5081840">
        <ele>207.4</ele>
        <time>2022-04-14T16:07:38Z</time>
      </trkpt>
      <trkpt lat="42.8572800" lon="-8.5082010">
        <ele>207.8</ele>
        <time>2022-04-14T16:07:39Z</time>
      </trkpt>
      <trkpt lat="42.8572990" lon="-8.5082190">
        <ele>208.2</ele>
        <time>2022-04-14T16:07:40Z</time>
      </trkpt>
      <trkpt lat="42.8573180" lon="-8.5082370">
        <ele>208.6</ele>
        <time>2022-04-14T16:07:41Z</time>
      </trkpt>
      <trkpt lat="42.8573370" lon="-8.5082550">
        <ele>208.9</ele>
        <time>2022-04-14T16:07:42Z</time>
      </trkpt>
      <trkpt lat="42.8573560" lon="-8.5082720">
        <ele>209.3</ele>
        <time>2022-04-14T16:07:43Z</time>
      </trkpt>
      <trkpt lat="42.8573650" lon="-8.5082800">
        <ele>209.5</ele>
        <time>2022-04-14T16:07:44Z</time>
      </trkpt>
      <trkpt lat="42.8573750" lon="-8.5082870">
        <ele>209.7</ele>
        <time>2022-04-14T16:07:45Z</time>
      </trkpt>
      <trkpt lat="42.8573840" lon="-8.5082940">
        <ele>209.9</ele>
        <time>2022-04-14T16:07:46Z</time>
      </trkpt>
      <trkpt lat="42.8573940" lon="-8.5083010">
        <ele>210.0</ele>
        <time>2022-04-14T16:07:47Z</time>
      </trkpt>
      <trkpt lat="42.8574040" lon="-8.5083080">
        <ele>210.2</ele>
        <time>2022-04-14T16:07:48Z</time>
      </trkpt>
      <trkpt lat="42.8574750" lon="-8.5083380">
        <ele>211.4</ele>
        <time>2022-04-14T16:07:49Z</time>
      </trkpt>
      <trkpt lat="42.8574980" lon="-8.5083330">
        <ele>212.3</ele>
        <time>2022-04-14T16:07:50Z</time>
      </trkpt>
      <trkpt lat="42.8575220" lon="-8.5083270">
        <ele>212.5</ele>
        <time>2022-04-14T16:07:51Z</time>
      </trkpt>
      <trkpt lat="42.8575450" lon="-8.5083220">
        <ele>212.7</ele>
        <time>2022-04-14T16:07:52Z</time>
      </trkpt>
      <trkpt lat="42.8575690" lon="-8.5083160">
        <ele>212.8</ele>
        <time>2022-04-14T16:07:53Z</time>
      </trkpt>
      <trkpt lat="42.8576170" lon="-8.5082980">
        <ele>213.2</ele>
        <time>2022-04-14T16:07:54Z</time>
      </trkpt>
      <trkpt lat="42.8576660" lon="-8.5082800">
        <ele>213.6</ele>
        <time>2022-04-14T16:07:55Z</time>
      </trkpt>
      <trkpt lat="42.8576960" lon="-8.5082670">
        <ele>213.8</ele>
        <time>2022-04-14T16:07:56Z</time>
      </trkpt>
      <trkpt lat="42.8577260" lon="-8.5082530">
        <ele>214.1</ele>
        <time>2022-04-14T16:07:57Z</time>
      </trkpt>
      <trkpt lat="42.8577560" lon="-8.5082390">
        <ele>214.3</ele>
        <time>2022-04-14T16:07:58Z</time>
      </trkpt>
      <trkpt lat="42.8577700" lon="-8.5082340">
        <ele>214.5</ele>
        <time>2022-04-14T16:07:59Z</time>
      </trkpt>
      <trkpt lat="42.8577840" lon="-8.5082290">
        <ele>214.6</ele>
        <time>2022-04-14T16:08:00Z</time>
      </trkpt>
      <trkpt lat="42.8577990" lon="-8.5082240">
        <ele>214.7</ele>
        <time>2022-04-14T16:08:01Z</time>
      </trkpt>
      <trkpt lat="42.8578130" lon="-8.5082190">
        <ele>214.9</ele>
        <time>2022-04-14T16:08:02Z</time>
      </trkpt>
      <trkpt lat="42.8578850" lon="-8.5081950">
        <ele>215.6</ele>
        <time>2022-04-14T16:08:03Z</time>
      </trkpt>
      <trkpt lat="42.8578990" lon="-8.5081920">
        <ele>215.7</ele>
        <time>2022-04-14T16:08:04Z</time>
      </trkpt>
      <trkpt lat="42.8579130" lon="-8.5081890">
        <ele>215.9</ele>
        <time>2022-04-14T16:08:05Z</time>
      </trkpt>
      <trkpt lat="42.8579270" lon="-8.5081860">
        <ele>216.0</ele>
        <time>2022-04-14T16:08:06Z</time>
      </trkpt>
      <trkpt lat="42.8580040" lon="-8.5081710">
        <ele>217.1</ele>
        <time>2022-04-14T16:08:07Z</time>
      </trkpt>
      <trkpt lat="42.8580250" lon="-8.5081700">
        <ele>217.4</ele>
        <time>2022-04-14T16:08:08Z</time>
      </trkpt>
      <trkpt lat="42.8580460" lon="-8.5081680">
        <ele>217.7</ele>
        <time>2022-04-14T16:08:09Z</time>
      </trkpt>
      <trkpt lat="42.8580670" lon="-8.5081670">
        <ele>218.0</ele>
        <time>2022-04-14T16:08:10Z</time>
      </trkpt>
      <trkpt lat="42.8580880" lon="-8.5081650">
        <ele>218.3</ele>
        <time>2022-04-14T16:08:11Z</time>
      </trkpt>
      <trkpt lat="42.8581060" lon="-8.5081680">
        <ele>218.6</ele>
        <time>2022-04-14T16:08:12Z</time>
      </trkpt>
      <trkpt lat="42.8581240" lon="-8.5081720">
        <ele>218.8</ele>
        <time>2022-04-14T16:08:13Z</time>
      </trkpt>
      <trkpt lat="42.8581430" lon="-8.5081750">
        <ele>219.1</ele>
        <time>2022-04-14T16:08:14Z</time>
      </trkpt>
      <trkpt lat="42.8582190" lon="-8.5082000">
        <ele>220.3</ele>
        <time>2022-04-14T16:08:15Z</time>
      </trkpt>
      <trkpt lat="42.8582400" lon="-8.5082140">
        <ele>220.7</ele>
        <time>2022-04-14T16:08:16Z</time>
      </trkpt>
      <trkpt lat="42.8582620" lon="-8.5082290">
        <ele>221.0</ele>
        <time>2022-04-14T16:08:17Z</time>
      </trkpt>
      <trkpt lat="42.8582830" lon="-8.5082430">
        <ele>221.4</ele>
        <time>2022-04-14T16:08:18Z</time>
      </trkpt>
      <trkpt lat="42.8582940" lon="-8.5082510">
        <ele>221.6</ele>
        <time>2022-04-14T16:08:19Z</time>
      </trkpt>
      <trkpt lat="42.8583060" lon="-8.5082590">
        <ele>221.8</ele>
        <time>2022-04-14T16:08:20Z</time>
      </trkpt>
      <trkpt lat="42.8583170" lon="-8.5082660">
        <ele>222.0</ele>
        <time>2022-04-14T16:08:21Z</time>
      </trkpt>
      <trkpt lat="42.8583280" lon="-8.5082740">
        <ele>222.1</ele>
        <time>2022-04-14T16:08:22Z</time>
      </trkpt>
      <trkpt lat="42.8583900" lon="-8.5083240">
        <ele>223.2</ele>
        <time>2022-04-14T16:08:23Z</time>
      </trkpt>
      <trkpt lat="42.8584060" lon="-8.5083430">
        <ele>223.5</ele>
        <time>2022-04-14T16:08:24Z</time>
      </trkpt>
      <trkpt lat="42.8584220" lon="-8.5083610">
        <ele>223.8</ele>
        <time>2022-04-14T16:08:25Z</time>
      </trkpt>
      <trkpt lat="42.8584380" lon="-8.5083800">
        <ele>224.1</ele>
        <time>2022-04-14T16:08:26Z</time>
      </trkpt>
      <trkpt lat="42.8584540" lon="-8.5083990">
        <ele>224.4</ele>
        <time>2022-04-14T16:08:27Z</time>
      </trkpt>
      <trkpt lat="42.8584710" lon="-8.5084100">
        <ele>224.6</ele>
        <time>2022-04-14T16:08:28Z</time>
      </trkpt>
      <trkpt lat="42.8584880" lon="-8.5084220">
        <ele>224.8</ele>
        <time>2022-04-14T16:08:29Z</time>
      </trkpt>
      <trkpt lat="42.8585050" lon="-8.5084330">
        <ele>225.1</ele>
        <time>2022-04-14T16:08:30Z</time>
      </trkpt>
      <trkpt lat="42.8585230" lon="-8.5084450">
        <ele>225.3</ele>
        <time>2022-04-14T16:08:31Z</time>
      </trkpt>
      <trkpt lat="42.8585400" lon="-8.5084560">
        <ele>225.6</ele>
        <time>2022-04-14T16:08:32Z</time>
      </trkpt>
      <trkpt lat="42.8585590" lon="-8.5084790">
        <ele>225.9</ele>
        <time>2022-04-14T16:08:33Z</time>
      </trkpt>
      <trkpt lat="42.8585780" lon="-8.5085030">
        <ele>226.3</ele>
        <time>2022-04-14T16:08:34Z</time>
      </trkpt>
      <trkpt lat="42.8585970" lon="-8.5085260">
        <ele>226.6</ele>
        <time>2022-04-14T16:08:35Z</time>
      </trkpt>
      <trkpt lat="42.8586160" lon="-8.5085490">
        <ele>227.0</ele>
        <time>2022-04-14T16:08:36Z</time>
      </trkpt>
      <trkpt lat="42.8586460" lon="-8.5085640">
        <ele>227.4</ele>
        <time>2022-04-14T16:08:37Z</time>
      </trkpt>
      <trkpt lat="42.8586760" lon="-8.5085790">
        <ele>227.8</ele>
        <time>2022-04-14T16:08:38Z</time>
      </trkpt>
      <trkpt lat="42.8587060" lon="-8.5085940">
        <ele>228.3</ele>
        <time>2022-04-14T16:08:39Z</time>
      </trkpt>
      <trkpt lat="42.8587510" lon="-8.5085900">
        <ele>228.9</ele>
        <time>2022-04-14T16:08:40Z</time>
      </trkpt>
      <trkpt lat="42.8587960" lon="-8.5085860">
        <ele>228.6</ele>
        <time>2022-04-14T16:08:41Z</time>
      </trkpt>
      <trkpt lat="42.8588500" lon="-8.5085670">
        <ele>228.1</ele>
        <time>2022-04-14T16:08:42Z</time>
      </trkpt>
      <trkpt lat="42.8589040" lon="-8.5085470">
        <ele>227.7</ele>
        <time>2022-04-14T16:08:43Z</time>
      </trkpt>
      <trkpt lat="42.8589580" lon="-8.5085280">
        <ele>227.2</ele>
        <time>2022-04-14T16:08:44Z</time>
      </trkpt>
      <trkpt lat="42.8590530" lon="-8.5084930">
        <ele>226.5</ele>
        <time>2022-04-14T16:08:45Z</time>
      </trkpt>
      <trkpt lat="42.8590880" lon="-8.5084790">
        <ele>226.2</ele>
        <time>2022-04-14T16:08:46Z</time>
      </trkpt>
      <trkpt lat="42.8591590" lon="-8.5084510">
        <ele>225.6</ele>
        <time>2022-04-14T16:08:47Z</time>
      </trkpt>
      <trkpt lat="42.8592200" lon="-8.5084180">
        <ele>225.1</ele>
        <time>2022-04-14T16:08:48Z</time>
      </trkpt>
      <trkpt lat="42.8592810" lon="-8.5083850">
        <ele>224.5</ele>
        <time>2022-04-14T16:08:49Z</time>
      </trkpt>
      <trkpt lat="42.8594030" lon="-8.5083190">
        <ele>223.4</ele>
        <time>2022-04-14T16:08:50Z</time>
      </trkpt>
      <trkpt lat="42.8595320" lon="-8.5082400">
        <ele>222.3</ele>
        <time>2022-04-14T16:08:51Z</time>
      </trkpt>
      <trkpt lat="42.8595760" lon="-8.5082130">
        <ele>221.9</ele>
        <time>2022-04-14T16:08:52Z</time>
      </trkpt>
      <trkpt lat="42.8596640" lon="-8.5081570">
        <ele>221.1</ele>
        <time>2022-04-14T16:08:53Z</time>
      </trkpt>
      <trkpt lat="42.8597520" lon="-8.5081020">
        <ele>220.4</ele>
        <time>2022-04-14T16:08:54Z</time>
      </trkpt>
      <trkpt lat="42.8599960" lon="-8.5079990">
        <ele>218.5</ele>
        <time>2022-04-14T16:08:55Z</time>
      </trkpt>
      <trkpt lat="42.8600350" lon="-8.5079890">
        <ele>218.3</ele>
        <time>2022-04-14T16:08:56Z</time>
      </trkpt>
      <trkpt lat="42.8600750" lon="-8.5079780">
        <ele>218.0</ele>
        <time>2022-04-14T16:08:57Z</time>
      </trkpt>
      <trkpt lat="42.8601930" lon="-8.5079460">
        <ele>217.5</ele>
        <time>2022-04-14T16:08:58Z</time>
      </trkpt>
      <trkpt lat="42.8603050" lon="-8.5079130">
        <ele>217.0</ele>
        <time>2022-04-14T16:08:59Z</time>
      </trkpt>
      <trkpt lat="42.8604680" lon="-8.5078210">
        <ele>215.6</ele>
        <time>2022-04-14T16:09:00Z</time>
      </trkpt>
      <trkpt lat="42.8605160" lon="-8.5077740">
        <ele>215.2</ele>
        <time>2022-04-14T16:09:01Z</time>
      </trkpt>
      <trkpt lat="42.8606360" lon="-8.5076550">
        <ele>214.2</ele>
        <time>2022-04-14T16:09:02Z</time>
      </trkpt>
      <trkpt lat="42.8606590" lon="-8.5076290">
        <ele>214.0</ele>
        <time>2022-04-14T16:09:03Z</time>
      </trkpt>
      <trkpt lat="42.8607550" lon="-8.5074330">
        <ele>212.9</ele>
        <time>2022-04-14T16:09:04Z</time>
      </trkpt>
      <trkpt lat="42.8608050" lon="-8.5072900">
        <ele>212.3</ele>
        <time>2022-04-14T16:09:05Z</time>
      </trkpt>
      <trkpt lat="42.8608560" lon="-8.5071470">
        <ele>211.7</ele>
        <time>2022-04-14T16:09:06Z</time>
      </trkpt>
      <trkpt lat="42.8609070" lon="-8.5070040">
        <ele>211.2</ele>
        <time>2022-04-14T16:09:07Z</time>
      </trkpt>
      <trkpt lat="42.8609460" lon="-8.5067570">
        <ele>210.3</ele>
        <time>2022-04-14T16:09:08Z</time>
      </trkpt>
      <trkpt lat="42.8609570" lon="-8.5066690">
        <ele>209.9</ele>
        <time>2022-04-14T16:09:09Z</time>
      </trkpt>
      <trkpt lat="42.8609790" lon="-8.5064930">
        <ele>209.2</ele>
        <time>2022-04-14T16:09:10Z</time>
      </trkpt>
      <trkpt lat="42.8610020" lon="-8.5063350">
        <ele>208.6</ele>
        <time>2022-04-14T16:09:11Z</time>
      </trkpt>
      <trkpt lat="42.8610350" lon="-8.5060990">
        <ele>207.7</ele>
        <time>2022-04-14T16:09:12Z</time>
      </trkpt>
      <trkpt lat="42.8610470" lon="-8.5060220">
        <ele>207.4</ele>
        <time>2022-04-14T16:09:13Z</time>
      </trkpt>
      <trkpt lat="42.8610710" lon="-8.5058680">
        <ele>206.8</ele>
        <time>2022-04-14T16:09:14Z</time>
      </trkpt>
      <trkpt lat="42.8610910" lon="-8.5057230">
        <ele>206.3</ele>
        <time>2022-04-14T16:09:15Z</time>
      </trkpt>
      <trkpt lat="42.8611080" lon="-8.5055870">
        <ele>206.1</ele>
        <time>2022-04-14T16:09:16Z</time>
      </trkpt>
      <trkpt lat="42.8611490" lon="-8.5054890">
        <ele>206.1</ele>
        <time>2022-04-14T16:09:17Z</time>
      </trkpt>
      <trkpt lat="42.8611900" lon="-8.5053920">
        <ele>206.1</ele>
        <time>2022-04-14T16:09:18Z</time>
      </trkpt>
      <trkpt lat="42.8612310" lon="-8.5052940">
        <ele>206.3</ele>
        <time>2022-04-14T16:09:19Z</time>
      </trkpt>
      <trkpt lat="42.8612920" lon="-8.5052250">
        <ele>206.5</ele>
        <time>2022-04-14T16:09:20Z</time>
      </trkpt>
      <trkpt lat="42.8613280" lon="-8.5052060">
        <ele>206.7</ele>
        <time>2022-04-14T16:09:21Z</time>
      </trkpt>
      <trkpt lat="42.8613650" lon="-8.5051880">
        <ele>206.8</ele>
        <time>2022-04-14T16:09:22Z</time>
      </trkpt>
      <trkpt lat="42.8615070" lon="-8.5051220">
        <ele>207.4</ele>
        <time>2022-04-14T16:09:23Z</time>
      </trkpt>
      <trkpt lat="42.8615750" lon="-8.5050920">
        <ele>207.6</ele>
        <time>2022-04-14T16:09:24Z</time>
      </trkpt>
      <trkpt lat="42.8616440" lon="-8.5050620">
        <ele>207.9</ele>
        <time>2022-04-14T16:09:25Z</time>
      </trkpt>
      <trkpt lat="42.8617180" lon="-8.5050330">
        <ele>208.3</ele>
        <time>2022-04-14T16:09:26Z</time>
      </trkpt>
      <trkpt lat="42.8617510" lon="-8.5050170">
        <ele>208.4</ele>
        <time>2022-04-14T16:09:27Z</time>
      </trkpt>
      <trkpt lat="42.8617840" lon="-8.5050010">
        <ele>208.6</ele>
        <time>2022-04-14T16:09:28Z</time>
      </trkpt>
      <trkpt lat="42.8619130" lon="-8.5049360">
        <ele>209.3</ele>
        <time>2022-04-14T16:09:29Z</time>
      </trkpt>
      <trkpt lat="42.8619760" lon="-8.5049030">
        <ele>209.7</ele>
        <time>2022-04-14T16:09:30Z</time>
      </trkpt>
      <trkpt lat="42.8620380" lon="-8.5048710">
        <ele>210.1</ele>
        <time>2022-04-14T16:09:31Z</time>
      </trkpt>
      <trkpt lat="42.8620990" lon="-8.5048340">
        <ele>210.5</ele>
        <time>2022-04-14T16:09:32Z</time>
      </trkpt>
      <trkpt lat="42.8621280" lon="-8.5048180">
        <ele>210.7</ele>
        <time>2022-04-14T16:09:33Z</time>
      </trkpt>
      <trkpt lat="42.8621580" lon="-8.5048030">
        <ele>210.9</ele>
        <time>2022-04-14T16:09:34Z</time>
      </trkpt>
      <trkpt lat="42.8622470" lon="-8.5047590">
        <ele>211.5</ele>
        <time>2022-04-14T16:09:35Z</time>
      </trkpt>
      <trkpt lat="42.8622770" lon="-8.5047460">
        <ele>211.7</ele>
        <time>2022-04-14T16:09:36Z</time>
      </trkpt>
      <trkpt lat="42.8623930" lon="-8.5046920">
        <ele>212.5</ele>
        <time>2022-04-14T16:09:37Z</time>
      </trkpt>
      <trkpt lat="42.8624490" lon="-8.5046630">
        <ele>212.9</ele>
        <time>2022-04-14T16:09:38Z</time>
      </trkpt>
      <trkpt lat="42.8625060" lon="-8.5046350">
        <ele>213.3</ele>
        <time>2022-04-14T16:09:39Z</time>
      </trkpt>
      <trkpt lat="42.8625880" lon="-8.5045930">
        <ele>213.9</ele>
        <time>2022-04-14T16:09:40Z</time>
      </trkpt>
      <trkpt lat="42.8626160" lon="-8.5045790">
        <ele>214.1</ele>
        <time>2022-04-14T16:09:41Z</time>
      </trkpt>
      <trkpt lat="42.8626720" lon="-8.5045510">
        <ele>214.4</ele>
        <time>2022-04-14T16:09:42Z</time>
      </trkpt>
      <trkpt lat="42.8626990" lon="-8.5045360">
        <ele>214.6</ele>
        <time>2022-04-14T16:09:43Z</time>
      </trkpt>
      <trkpt lat="42.8627260" lon="-8.5045220">
        <ele>214.8</ele>
        <time>2022-04-14T16:09:44Z</time>
      </trkpt>
      <trkpt lat="42.8628290" lon="-8.5044700">
        <ele>215.5</ele>
        <time>2022-04-14T16:09:45Z</time>
      </trkpt>
      <trkpt lat="42.8628780" lon="-8.5044480">
        <ele>215.8</ele>
        <time>2022-04-14T16:09:46Z</time>
      </trkpt>
      <trkpt lat="42.8629280" lon="-8.5044270">
        <ele>216.1</ele>
        <time>2022-04-14T16:09:47Z</time>
      </trkpt>
      <trkpt lat="42.8629790" lon="-8.5044060">
        <ele>216.3</ele>
        <time>2022-04-14T16:09:48Z</time>
      </trkpt>
      <trkpt lat="42.8630300" lon="-8.5043850">
        <ele>216.6</ele>
        <time>2022-04-14T16:09:49Z</time>
      </trkpt>
      <trkpt lat="42.8630800" lon="-8.5043620">
        <ele>216.9</ele>
        <time>2022-04-14T16:09:50Z</time>
      </trkpt>
      <trkpt lat="42.8631050" lon="-8.5043480">
        <ele>217.0</ele>
        <time>2022-04-14T16:09:51Z</time>
      </trkpt>
      <trkpt lat="42.8631300" lon="-8.5043350">
        <ele>217.1</ele>
        <time>2022-04-14T16:09:52Z</time>
      </trkpt>
      <trkpt lat="42.8632290" lon="-8.5042840">
        <ele>217.4</ele>
        <time>2022-04-14T16:09:53Z</time>
      </trkpt>
      <trkpt lat="42.8632790" lon="-8.5042590">
        <ele>217.6</ele>
        <time>2022-04-14T16:09:54Z</time>
      </trkpt>
      <trkpt lat="42.8633310" lon="-8.5042350">
        <ele>217.7</ele>
        <time>2022-04-14T16:09:55Z</time>
      </trkpt>
      <trkpt lat="42.8633840" lon="-8.5042110">
        <ele>217.9</ele>
        <time>2022-04-14T16:09:56Z</time>
      </trkpt>
      <trkpt lat="42.8634360" lon="-8.5041880">
        <ele>218.0</ele>
        <time>2022-04-14T16:09:57Z</time>
      </trkpt>
      <trkpt lat="42.8634900" lon="-8.5041620">
        <ele>218.2</ele>
        <time>2022-04-14T16:09:58Z</time>
      </trkpt>
      <trkpt lat="42.8635430" lon="-8.5041370">
        <ele>218.4</ele>
        <time>2022-04-14T16:09:59Z</time>
      </trkpt>
      <trkpt lat="42.8635960" lon="-8.5041120">
        <ele>218.5</ele>
        <time>2022-04-14T16:10:00Z</time>
      </trkpt>
      <trkpt lat="42.8636490" lon="-8.5040870">
        <ele>218.7</ele>
        <time>2022-04-14T16:10:01Z</time>
      </trkpt>
      <trkpt lat="42.8636990" lon="-8.5040610">
        <ele>218.9</ele>
        <time>2022-04-14T16:10:02Z</time>
      </trkpt>
      <trkpt lat="42.8637240" lon="-8.5040490">
        <ele>219.0</ele>
        <time>2022-04-14T16:10:03Z</time>
      </trkpt>
      <trkpt lat="42.8637490" lon="-8.5040360">
        <ele>219.0</ele>
        <time>2022-04-14T16:10:04Z</time>
      </trkpt>
      <trkpt lat="42.8638490" lon="-8.5039860">
        <ele>219.3</ele>
        <time>2022-04-14T16:10:05Z</time>
      </trkpt>
      <trkpt lat="42.8638990" lon="-8.5039610">
        <ele>219.4</ele>
        <time>2022-04-14T16:10:06Z</time>
      </trkpt>
      <trkpt lat="42.8639490" lon="-8.5039350">
        <ele>219.5</ele>
        <time>2022-04-14T16:10:07Z</time>
      </trkpt>
      <trkpt lat="42.8639970" lon="-8.5039080">
        <ele>219.7</ele>
        <time>2022-04-14T16:10:08Z</time>
      </trkpt>
      <trkpt lat="42.8640430" lon="-8.5038830">
        <ele>219.8</ele>
        <time>2022-04-14T16:10:09Z</time>
      </trkpt>
      <trkpt lat="42.8640900" lon="-8.5038570">
        <ele>219.9</ele>
        <time>2022-04-14T16:10:10Z</time>
      </trkpt>
      <trkpt lat="42.8641150" lon="-8.5038450">
        <ele>219.9</ele>
        <time>2022-04-14T16:10:11Z</time>
      </trkpt>
      <trkpt lat="42.8641410" lon="-8.5038330">
        <ele>220.0</ele>
        <time>2022-04-14T16:10:12Z</time>
      </trkpt>
      <trkpt lat="42.8642490" lon="-8.5037790">
        <ele>220.2</ele>
        <time>2022-04-14T16:10:13Z</time>
      </trkpt>
      <trkpt lat="42.8643060" lon="-8.5037490">
        <ele>220.3</ele>
        <time>2022-04-14T16:10:14Z</time>
      </trkpt>
      <trkpt lat="42.8643630" lon="-8.5037200">
        <ele>220.3</ele>
        <time>2022-04-14T16:10:15Z</time>
      </trkpt>
      <trkpt lat="42.8644220" lon="-8.5036890">
        <ele>220.4</ele>
        <time>2022-04-14T16:10:16Z</time>
      </trkpt>
      <trkpt lat="42.8644840" lon="-8.5036620">
        <ele>220.4</ele>
        <time>2022-04-14T16:10:17Z</time>
      </trkpt>
      <trkpt lat="42.8645460" lon="-8.5036340">
        <ele>220.4</ele>
        <time>2022-04-14T16:10:18Z</time>
      </trkpt>
      <trkpt lat="42.8646070" lon="-8.5036060">
        <ele>220.4</ele>
        <time>2022-04-14T16:10:19Z</time>
      </trkpt>
      <trkpt lat="42.8646710" lon="-8.5035780">
        <ele>220.4</ele>
        <time>2022-04-14T16:10:20Z</time>
      </trkpt>
      <trkpt lat="42.8647400" lon="-8.5035470">
        <ele>220.4</ele>
        <time>2022-04-14T16:10:21Z</time>
      </trkpt>
      <trkpt lat="42.8648090" lon="-8.5035160">
        <ele>220.4</ele>
        <time>2022-04-14T16:10:22Z</time>
      </trkpt>
      <trkpt lat="42.8648770" lon="-8.5034840">
        <ele>220.3</ele>
        <time>2022-04-14T16:10:23Z</time>
      </trkpt>
      <trkpt lat="42.8649560" lon="-8.5034500">
        <ele>220.3</ele>
        <time>2022-04-14T16:10:24Z</time>
      </trkpt>
      <trkpt lat="42.8649910" lon="-8.5034340">
        <ele>220.3</ele>
        <time>2022-04-14T16:10:25Z</time>
      </trkpt>
      <trkpt lat="42.8650260" lon="-8.5034180">
        <ele>220.3</ele>
        <time>2022-04-14T16:10:26Z</time>
      </trkpt>
      <trkpt lat="42.8651320" lon="-8.5033680">
        <ele>220.4</ele>
        <time>2022-04-14T16:10:27Z</time>
      </trkpt>
      <trkpt lat="42.8651670" lon="-8.5033490">
        <ele>220.4</ele>
        <time>2022-04-14T16:10:28Z</time>
      </trkpt>
      <trkpt lat="42.8653160" lon="-8.5032770">
        <ele>220.7</ele>
        <time>2022-04-14T16:10:29Z</time>
      </trkpt>
      <trkpt lat="42.8653920" lon="-8.5032410">
        <ele>221.0</ele>
        <time>2022-04-14T16:10:30Z</time>
      </trkpt>
      <trkpt lat="42.8654690" lon="-8.5032050">
        <ele>221.3</ele>
        <time>2022-04-14T16:10:31Z</time>
      </trkpt>
      <trkpt lat="42.8655470" lon="-8.5031680">
        <ele>221.8</ele>
        <time>2022-04-14T16:10:32Z</time>
      </trkpt>
      <trkpt lat="42.8655780" lon="-8.5031530">
        <ele>222.0</ele>
        <time>2022-04-14T16:10:33Z</time>
      </trkpt>
      <trkpt lat="42.8656100" lon="-8.5031380">
        <ele>222.2</ele>
        <time>2022-04-14T16:10:34Z</time>
      </trkpt>
      <trkpt lat="42.8657330" lon="-8.5030790">
        <ele>223.0</ele>
        <time>2022-04-14T16:10:35Z</time>
      </trkpt>
      <trkpt lat="42.8657940" lon="-8.5030500">
        <ele>223.4</ele>
        <time>2022-04-14T16:10:36Z</time>
      </trkpt>
      <trkpt lat="42.8658540" lon="-8.5030200">
        <ele>223.8</ele>
        <time>2022-04-14T16:10:37Z</time>
      </trkpt>
      <trkpt lat="42.8659140" lon="-8.5029910">
        <ele>224.3</ele>
        <time>2022-04-14T16:10:38Z</time>
      </trkpt>
      <trkpt lat="42.8659410" lon="-8.5029810">
        <ele>224.5</ele>
        <time>2022-04-14T16:10:39Z</time>
      </trkpt>
      <trkpt lat="42.8659670" lon="-8.5029700">
        <ele>224.6</ele>
        <time>2022-04-14T16:10:40Z</time>
      </trkpt>
      <trkpt lat="42.8660480" lon="-8.5029340">
        <ele>225.2</ele>
        <time>2022-04-14T16:10:41Z</time>
      </trkpt>
      <trkpt lat="42.8660760" lon="-8.5029190">
        <ele>225.5</ele>
        <time>2022-04-14T16:10:42Z</time>
      </trkpt>
      <trkpt lat="42.8661860" lon="-8.5028650">
        <ele>226.3</ele>
        <time>2022-04-14T16:10:43Z</time>
      </trkpt>
      <trkpt lat="42.8662420" lon="-8.5028400">
        <ele>226.7</ele>
        <time>2022-04-14T16:10:44Z</time>
      </trkpt>
      <trkpt lat="42.8662970" lon="-8.5028150">
        <ele>227.1</ele>
        <time>2022-04-14T16:10:45Z</time>
      </trkpt>
      <trkpt lat="42.8663560" lon="-8.5027890">
        <ele>227.5</ele>
        <time>2022-04-14T16:10:46Z</time>
      </trkpt>
      <trkpt lat="42.8663830" lon="-8.5027760">
        <ele>227.8</ele>
        <time>2022-04-14T16:10:47Z</time>
      </trkpt>
      <trkpt lat="42.8664100" lon="-8.5027620">
        <ele>228.0</ele>
        <time>2022-04-14T16:10:48Z</time>
      </trkpt>
      <trkpt lat="42.8664910" lon="-8.5027200">
        <ele>228.6</ele>
        <time>2022-04-14T16:10:49Z</time>
      </trkpt>
      <trkpt lat="42.8665170" lon="-8.5027060">
        <ele>228.8</ele>
        <time>2022-04-14T16:10:50Z</time>
      </trkpt>
      <trkpt lat="42.8666190" lon="-8.5026540">
        <ele>229.7</ele>
        <time>2022-04-14T16:10:51Z</time>
      </trkpt>
      <trkpt lat="42.8666670" lon="-8.5026300">
        <ele>230.2</ele>
        <time>2022-04-14T16:10:52Z</time>
      </trkpt>
      <trkpt lat="42.8667160" lon="-8.5026060">
        <ele>230.6</ele>
        <time>2022-04-14T16:10:53Z</time>
      </trkpt>
      <trkpt lat="42.8667620" lon="-8.5025840">
        <ele>231.1</ele>
        <time>2022-04-14T16:10:54Z</time>
      </trkpt>
      <trkpt lat="42.8667820" lon="-8.5025750">
        <ele>231.2</ele>
        <time>2022-04-14T16:10:55Z</time>
      </trkpt>
      <trkpt lat="42.8668030" lon="-8.5025650">
        <ele>231.4</ele>
        <time>2022-04-14T16:10:56Z</time>
      </trkpt>
      <trkpt lat="42.8668230" lon="-8.5025560">
        <ele>231.6</ele>
        <time>2022-04-14T16:10:57Z</time>
      </trkpt>
      <trkpt lat="42.8669040" lon="-8.5025170">
        <ele>232.4</ele>
        <time>2022-04-14T16:10:58Z</time>
      </trkpt>
      <trkpt lat="42.8669230" lon="-8.5025070">
        <ele>232.6</ele>
        <time>2022-04-14T16:10:59Z</time>
      </trkpt>
      <trkpt lat="42.8669420" lon="-8.5024960">
        <ele>232.8</ele>
        <time>2022-04-14T16:11:00Z</time>
      </trkpt>
      <trkpt lat="42.8670210" lon="-8.5024560">
        <ele>233.6</ele>
        <time>2022-04-14T16:11:01Z</time>
      </trkpt>
      <trkpt lat="42.8670410" lon="-8.5024470">
        <ele>233.8</ele>
        <time>2022-04-14T16:11:02Z</time>
      </trkpt>
      <trkpt lat="42.8670620" lon="-8.5024380">
        <ele>234.0</ele>
        <time>2022-04-14T16:11:03Z</time>
      </trkpt>
      <trkpt lat="42.8671560" lon="-8.5023970">
        <ele>234.9</ele>
        <time>2022-04-14T16:11:04Z</time>
      </trkpt>
      <trkpt lat="42.8671880" lon="-8.5023830">
        <ele>235.2</ele>
        <time>2022-04-14T16:11:05Z</time>
      </trkpt>
      <trkpt lat="42.8672190" lon="-8.5023690">
        <ele>235.4</ele>
        <time>2022-04-14T16:11:06Z</time>
      </trkpt>
      <trkpt lat="42.8672510" lon="-8.5023550">
        <ele>235.7</ele>
        <time>2022-04-14T16:11:07Z</time>
      </trkpt>
      <trkpt lat="42.8672810" lon="-8.5023400">
        <ele>236.0</ele>
        <time>2022-04-14T16:11:08Z</time>
      </trkpt>
      <trkpt lat="42.8673110" lon="-8.5023260">
        <ele>236.2</ele>
        <time>2022-04-14T16:11:09Z</time>
      </trkpt>
      <trkpt lat="42.8673920" lon="-8.5022870">
        <ele>236.9</ele>
        <time>2022-04-14T16:11:10Z</time>
      </trkpt>
      <trkpt lat="42.8674120" lon="-8.5022780">
        <ele>237.1</ele>
        <time>2022-04-14T16:11:11Z</time>
      </trkpt>
      <trkpt lat="42.8674320" lon="-8.5022690">
        <ele>237.2</ele>
        <time>2022-04-14T16:11:12Z</time>
      </trkpt>
      <trkpt lat="42.8675350" lon="-8.5022190">
        <ele>238.0</ele>
        <time>2022-04-14T16:11:13Z</time>
      </trkpt>
      <trkpt lat="42.8675780" lon="-8.5021960">
        <ele>238.4</ele>
        <time>2022-04-14T16:11:14Z</time>
      </trkpt>
      <trkpt lat="42.8676070" lon="-8.5021810">
        <ele>238.6</ele>
        <time>2022-04-14T16:11:15Z</time>
      </trkpt>
      <trkpt lat="42.8676360" lon="-8.5021660">
        <ele>238.8</ele>
        <time>2022-04-14T16:11:16Z</time>
      </trkpt>
      <trkpt lat="42.8676650" lon="-8.5021510">
        <ele>239.0</ele>
        <time>2022-04-14T16:11:17Z</time>
      </trkpt>
      <trkpt lat="42.8676940" lon="-8.5021360">
        <ele>239.3</ele>
        <time>2022-04-14T16:11:18Z</time>
      </trkpt>
      <trkpt lat="42.8677230" lon="-8.5021200">
        <ele>239.5</ele>
        <time>2022-04-14T16:11:19Z</time>
      </trkpt>
      <trkpt lat="42.8678020" lon="-8.5020800">
        <ele>240.1</ele>
        <time>2022-04-14T16:11:20Z</time>
      </trkpt>
      <trkpt lat="42.8678230" lon="-8.5020700">
        <ele>240.2</ele>
        <time>2022-04-14T16:11:21Z</time>
      </trkpt>
      <trkpt lat="42.8678440" lon="-8.5020610">
        <ele>240.4</ele>
        <time>2022-04-14T16:11:22Z</time>
      </trkpt>
      <trkpt lat="42.8679280" lon="-8.5020240">
        <ele>240.9</ele>
        <time>2022-04-14T16:11:23Z</time>
      </trkpt>
      <trkpt lat="42.8679490" lon="-8.5020150">
        <ele>241.1</ele>
        <time>2022-04-14T16:11:24Z</time>
      </trkpt>
      <trkpt lat="42.8679700" lon="-8.5020060">
        <ele>241.2</ele>
        <time>2022-04-14T16:11:25Z</time>
      </trkpt>
      <trkpt lat="42.8680620" lon="-8.5019670">
        <ele>241.8</ele>
        <time>2022-04-14T16:11:26Z</time>
      </trkpt>
      <trkpt lat="42.8680920" lon="-8.5019550">
        <ele>241.9</ele>
        <time>2022-04-14T16:11:27Z</time>
      </trkpt>
      <trkpt lat="42.8681210" lon="-8.5019440">
        <ele>242.1</ele>
        <time>2022-04-14T16:11:28Z</time>
      </trkpt>
      <trkpt lat="42.8681510" lon="-8.5019320">
        <ele>242.3</ele>
        <time>2022-04-14T16:11:29Z</time>
      </trkpt>
      <trkpt lat="42.8681810" lon="-8.5019190">
        <ele>242.5</ele>
        <time>2022-04-14T16:11:30Z</time>
      </trkpt>
      <trkpt lat="42.8682110" lon="-8.5019060">
        <ele>242.6</ele>
        <time>2022-04-14T16:11:31Z</time>
      </trkpt>
      <trkpt lat="42.8682940" lon="-8.5018680">
        <ele>243.1</ele>
        <time>2022-04-14T16:11:32Z</time>
      </trkpt>
      <trkpt lat="42.8683170" lon="-8.5018560">
        <ele>243.2</ele>
        <time>2022-04-14T16:11:33Z</time>
      </trkpt>
      <trkpt lat="42.8683400" lon="-8.5018440">
        <ele>243.3</ele>
        <time>2022-04-14T16:11:34Z</time>
      </trkpt>
      <trkpt lat="42.8683640" lon="-8.5018320">
        <ele>243.4</ele>
        <time>2022-04-14T16:11:35Z</time>
      </trkpt>
      <trkpt lat="42.8684600" lon="-8.5017810">
        <ele>243.8</ele>
        <time>2022-04-14T16:11:36Z</time>
      </trkpt>
      <trkpt lat="42.8685120" lon="-8.5017580">
        <ele>243.9</ele>
        <time>2022-04-14T16:11:37Z</time>
      </trkpt>
      <trkpt lat="42.8685650" lon="-8.5017350">
        <ele>244.0</ele>
        <time>2022-04-14T16:11:38Z</time>
      </trkpt>
      <trkpt lat="42.8686180" lon="-8.5017120">
        <ele>244.0</ele>
        <time>2022-04-14T16:11:39Z</time>
      </trkpt>
      <trkpt lat="42.8686720" lon="-8.5016870">
        <ele>244.0</ele>
        <time>2022-04-14T16:11:40Z</time>
      </trkpt>
      <trkpt lat="42.8687120" lon="-8.5016650">
        <ele>243.9</ele>
        <time>2022-04-14T16:11:41Z</time>
      </trkpt>
      <trkpt lat="42.8687520" lon="-8.5016430">
        <ele>243.8</ele>
        <time>2022-04-14T16:11:42Z</time>
      </trkpt>
      <trkpt lat="42.8687920" lon="-8.5016210">
        <ele>243.7</ele>
        <time>2022-04-14T16:11:43Z</time>
      </trkpt>
      <trkpt lat="42.8688330" lon="-8.5015990">
        <ele>243.5</ele>
        <time>2022-04-14T16:11:44Z</time>
      </trkpt>
      <trkpt lat="42.8689940" lon="-8.5015100">
        <ele>242.8</ele>
        <time>2022-04-14T16:11:45Z</time>
      </trkpt>
      <trkpt lat="42.8691280" lon="-8.5014530">
        <ele>242.1</ele>
        <time>2022-04-14T16:11:46Z</time>
      </trkpt>
      <trkpt lat="42.8691530" lon="-8.5014430">
        <ele>242.0</ele>
        <time>2022-04-14T16:11:47Z</time>
      </trkpt>
      <trkpt lat="42.8692450" lon="-8.5014030">
        <ele>241.7</ele>
        <time>2022-04-14T16:11:48Z</time>
      </trkpt>
      <trkpt lat="42.8692860" lon="-8.5013850">
        <ele>241.5</ele>
        <time>2022-04-14T16:11:49Z</time>
      </trkpt>
      <trkpt lat="42.8694440" lon="-8.5013110">
        <ele>241.0</ele>
        <time>2022-04-14T16:11:50Z</time>
      </trkpt>
      <trkpt lat="42.8695200" lon="-8.5012720">
        <ele>240.7</ele>
        <time>2022-04-14T16:11:51Z</time>
      </trkpt>
      <trkpt lat="42.8695960" lon="-8.5012340">
        <ele>240.5</ele>
        <time>2022-04-14T16:11:52Z</time>
      </trkpt>
      <trkpt lat="42.8697130" lon="-8.5011830">
        <ele>240.1</ele>
        <time>2022-04-14T16:11:53Z</time>
      </trkpt>
      <trkpt lat="42.8697520" lon="-8.5011660">
        <ele>240.0</ele>
        <time>2022-04-14T16:11:54Z</time>
      </trkpt>
      <trkpt lat="42.8698310" lon="-8.5011330">
        <ele>239.8</ele>
        <time>2022-04-14T16:11:55Z</time>
      </trkpt>
      <trkpt lat="42.8699020" lon="-8.5010970">
        <ele>239.6</ele>
        <time>2022-04-14T16:11:56Z</time>
      </trkpt>
      <trkpt lat="42.8699740" lon="-8.5010610">
        <ele>239.4</ele>
        <time>2022-04-14T16:11:57Z</time>
      </trkpt>
      <trkpt lat="42.8700450" lon="-8.5010250">
        <ele>239.2</ele>
        <time>2022-04-14T16:11:58Z</time>
      </trkpt>
      <trkpt lat="42.8701180" lon="-8.5009930">
        <ele>239.0</ele>
        <time>2022-04-14T16:11:59Z</time>
      </trkpt>
      <trkpt lat="42.8701870" lon="-8.5009610">
        <ele>238.8</ele>
        <time>2022-04-14T16:12:00Z</time>
      </trkpt>
      <trkpt lat="42.8702560" lon="-8.5009290">
        <ele>238.6</ele>
        <time>2022-04-14T16:12:01Z</time>
      </trkpt>
      <trkpt lat="42.8703950" lon="-8.5008640">
        <ele>238.4</ele>
        <time>2022-04-14T16:12:02Z</time>
      </trkpt>
      <trkpt lat="42.8704810" lon="-8.5008180">
        <ele>238.4</ele>
        <time>2022-04-14T16:12:03Z</time>
      </trkpt>
      <trkpt lat="42.8705670" lon="-8.5007710">
        <ele>238.3</ele>
        <time>2022-04-14T16:12:04Z</time>
      </trkpt>
      <trkpt lat="42.8706540" lon="-8.5007250">
        <ele>238.2</ele>
        <time>2022-04-14T16:12:05Z</time>
      </trkpt>
      <trkpt lat="42.8707430" lon="-8.5006730">
        <ele>238.1</ele>
        <time>2022-04-14T16:12:06Z</time>
      </trkpt>
      <trkpt lat="42.8708380" lon="-8.5006350">
        <ele>238.1</ele>
        <time>2022-04-14T16:12:07Z</time>
      </trkpt>
      <trkpt lat="42.8709250" lon="-8.5005960">
        <ele>238.1</ele>
        <time>2022-04-14T16:12:08Z</time>
      </trkpt>
      <trkpt lat="42.8709250" lon="-8.5005960">
        <ele>238.1</ele>
        <time>2022-04-14T16:12:09Z</time>
      </trkpt>
      <trkpt lat="42.8710590" lon="-8.5005300">
        <ele>238.1</ele>
        <time>2022-04-14T16:12:10Z</time>
      </trkpt>
      <trkpt lat="42.8711320" lon="-8.5005010">
        <ele>238.3</ele>
        <time>2022-04-14T16:12:11Z</time>
      </trkpt>
      <trkpt lat="42.8712050" lon="-8.5004710">
        <ele>238.5</ele>
        <time>2022-04-14T16:12:12Z</time>
      </trkpt>
      <trkpt lat="42.8712780" lon="-8.5004410">
        <ele>238.7</ele>
        <time>2022-04-14T16:12:13Z</time>
      </trkpt>
      <trkpt lat="42.8714010" lon="-8.5003810">
        <ele>239.0</ele>
        <time>2022-04-14T16:12:14Z</time>
      </trkpt>
      <trkpt lat="42.8714800" lon="-8.5003420">
        <ele>239.2</ele>
        <time>2022-04-14T16:12:15Z</time>
      </trkpt>
      <trkpt lat="42.8715590" lon="-8.5003030">
        <ele>239.3</ele>
        <time>2022-04-14T16:12:16Z</time>
      </trkpt>
      <trkpt lat="42.8716370" lon="-8.5002640">
        <ele>239.5</ele>
        <time>2022-04-14T16:12:17Z</time>
      </trkpt>
      <trkpt lat="42.8716730" lon="-8.5002470">
        <ele>239.6</ele>
        <time>2022-04-14T16:12:18Z</time>
      </trkpt>
      <trkpt lat="42.8717090" lon="-8.5002290">
        <ele>239.7</ele>
        <time>2022-04-14T16:12:19Z</time>
      </trkpt>
      <trkpt lat="42.8718540" lon="-8.5001620">
        <ele>240.1</ele>
        <time>2022-04-14T16:12:20Z</time>
      </trkpt>
      <trkpt lat="42.8719250" lon="-8.5001290">
        <ele>240.4</ele>
        <time>2022-04-14T16:12:21Z</time>
      </trkpt>
      <trkpt lat="42.8719970" lon="-8.5000960">
        <ele>240.6</ele>
        <time>2022-04-14T16:12:22Z</time>
      </trkpt>
      <trkpt lat="42.8720660" lon="-8.5000650">
        <ele>240.9</ele>
        <time>2022-04-14T16:12:23Z</time>
      </trkpt>
      <trkpt lat="42.8720990" lon="-8.5000480">
        <ele>241.1</ele>
        <time>2022-04-14T16:12:24Z</time>
      </trkpt>
      <trkpt lat="42.8721330" lon="-8.5000300">
        <ele>241.3</ele>
        <time>2022-04-14T16:12:25Z</time>
      </trkpt>
      <trkpt lat="42.8722630" lon="-8.4999670">
        <ele>242.0</ele>
        <time>2022-04-14T16:12:26Z</time>
      </trkpt>
      <trkpt lat="42.8723250" lon="-8.4999390">
        <ele>242.5</ele>
        <time>2022-04-14T16:12:27Z</time>
      </trkpt>
      <trkpt lat="42.8723880" lon="-8.4999100">
        <ele>242.9</ele>
        <time>2022-04-14T16:12:28Z</time>
      </trkpt>
      <trkpt lat="42.8724460" lon="-8.4998840">
        <ele>243.4</ele>
        <time>2022-04-14T16:12:29Z</time>
      </trkpt>
      <trkpt lat="42.8724980" lon="-8.4998630">
        <ele>243.8</ele>
        <time>2022-04-14T16:12:30Z</time>
      </trkpt>
      <trkpt lat="42.8725510" lon="-8.4998410">
        <ele>244.2</ele>
        <time>2022-04-14T16:12:31Z</time>
      </trkpt>
      <trkpt lat="42.8726030" lon="-8.4998190">
        <ele>244.7</ele>
        <time>2022-04-14T16:12:32Z</time>
      </trkpt>
      <trkpt lat="42.8726540" lon="-8.4997990">
        <ele>245.1</ele>
        <time>2022-04-14T16:12:33Z</time>
      </trkpt>
      <trkpt lat="42.8726990" lon="-8.4997750">
        <ele>245.5</ele>
        <time>2022-04-14T16:12:34Z</time>
      </trkpt>
      <trkpt lat="42.8727450" lon="-8.4997510">
        <ele>245.9</ele>
        <time>2022-04-14T16:12:35Z</time>
      </trkpt>
      <trkpt lat="42.8728410" lon="-8.4997030">
        <ele>246.8</ele>
        <time>2022-04-14T16:12:36Z</time>
      </trkpt>
      <trkpt lat="42.8728410" lon="-8.4997030">
        <ele>246.8</ele>
        <time>2022-04-14T16:12:37Z</time>
      </trkpt>
      <trkpt lat="42.8728410" lon="-8.4997030">
        <ele>246.8</ele>
        <time>2022-04-14T16:12:38Z</time>
      </trkpt>
      <trkpt lat="42.8729340" lon="-8.4996540">
        <ele>247.6</ele>
        <time>2022-04-14T16:12:39Z</time>
      </trkpt>
      <trkpt lat="42.8729810" lon="-8.4996320">
        <ele>247.9</ele>
        <time>2022-04-14T16:12:40Z</time>
      </trkpt>
      <trkpt lat="42.8730280" lon="-8.4996090">
        <ele>248.3</ele>
        <time>2022-04-14T16:12:41Z</time>
      </trkpt>
      <trkpt lat="42.8730730" lon="-8.4995870">
        <ele>248.7</ele>
        <time>2022-04-14T16:12:42Z</time>
      </trkpt>
      <trkpt lat="42.8731190" lon="-8.4995640">
        <ele>249.1</ele>
        <time>2022-04-14T16:12:43Z</time>
      </trkpt>
      <trkpt lat="42.8731640" lon="-8.4995430">
        <ele>249.5</ele>
        <time>2022-04-14T16:12:44Z</time>
      </trkpt>
      <trkpt lat="42.8732090" lon="-8.4995210">
        <ele>249.9</ele>
        <time>2022-04-14T16:12:45Z</time>
      </trkpt>
      <trkpt lat="42.8732370" lon="-8.4995040">
        <ele>250.2</ele>
        <time>2022-04-14T16:12:46Z</time>
      </trkpt>
      <trkpt lat="42.8732660" lon="-8.4994870">
        <ele>250.5</ele>
        <time>2022-04-14T16:12:47Z</time>
      </trkpt>
      <trkpt lat="42.8732950" lon="-8.4994700">
        <ele>250.8</ele>
        <time>2022-04-14T16:12:48Z</time>
      </trkpt>
      <trkpt lat="42.8733240" lon="-8.4994530">
        <ele>251.1</ele>
        <time>2022-04-14T16:12:49Z</time>
      </trkpt>
      <trkpt lat="42.8733500" lon="-8.4994440">
        <ele>251.3</ele>
        <time>2022-04-14T16:12:50Z</time>
      </trkpt>
      <trkpt lat="42.8733770" lon="-8.4994340">
        <ele>251.6</ele>
        <time>2022-04-14T16:12:51Z</time>
      </trkpt>
      <trkpt lat="42.8734470" lon="-8.4994060">
        <ele>252.3</ele>
        <time>2022-04-14T16:12:52Z</time>
      </trkpt>
      <trkpt lat="42.8734640" lon="-8.4993970">
        <ele>252.5</ele>
        <time>2022-04-14T16:12:53Z</time>
      </trkpt>
      <trkpt lat="42.8734820" lon="-8.4993890">
        <ele>252.7</ele>
        <time>2022-04-14T16:12:54Z</time>
      </trkpt>
      <trkpt lat="42.8735500" lon="-8.4993550">
        <ele>253.4</ele>
        <time>2022-04-14T16:12:55Z</time>
      </trkpt>
      <trkpt lat="42.8735670" lon="-8.4993460">
        <ele>253.6</ele>
        <time>2022-04-14T16:12:56Z</time>
      </trkpt>
      <trkpt lat="42.8735840" lon="-8.4993370">
        <ele>253.8</ele>
        <time>2022-04-14T16:12:57Z</time>
      </trkpt>
      <trkpt lat="42.8736570" lon="-8.4992970">
        <ele>254.6</ele>
        <time>2022-04-14T16:12:58Z</time>
      </trkpt>
      <trkpt lat="42.8736800" lon="-8.4992830">
        <ele>254.9</ele>
        <time>2022-04-14T16:12:59Z</time>
      </trkpt>
      <trkpt lat="42.8737030" lon="-8.4992690">
        <ele>255.2</ele>
        <time>2022-04-14T16:13:00Z</time>
      </trkpt>
      <trkpt lat="42.8737260" lon="-8.4992550">
        <ele>255.4</ele>
        <time>2022-04-14T16:13:01Z</time>
      </trkpt>
      <trkpt lat="42.8737740" lon="-8.4992320">
        <ele>256.0</ele>
        <time>2022-04-14T16:13:02Z</time>
      </trkpt>
      <trkpt lat="42.8738210" lon="-8.4992090">
        <ele>256.5</ele>
        <time>2022-04-14T16:13:03Z</time>
      </trkpt>
      <trkpt lat="42.8738380" lon="-8.4992030">
        <ele>256.7</ele>
        <time>2022-04-14T16:13:04Z</time>
      </trkpt>
      <trkpt lat="42.8738550" lon="-8.4991970">
        <ele>256.9</ele>
        <time>2022-04-14T16:13:05Z</time>
      </trkpt>
      <trkpt lat="42.8738710" lon="-8.4991900">
        <ele>257.1</ele>
        <time>2022-04-14T16:13:06Z</time>
      </trkpt>
      <trkpt lat="42.8739470" lon="-8.4991570">
        <ele>258.0</ele>
        <time>2022-04-14T16:13:07Z</time>
      </trkpt>
      <trkpt lat="42.8739720" lon="-8.4991430">
        <ele>258.3</ele>
        <time>2022-04-14T16:13:08Z</time>
      </trkpt>
      <trkpt lat="42.8739980" lon="-8.4991290">
        <ele>258.6</ele>
        <time>2022-04-14T16:13:09Z</time>
      </trkpt>
      <trkpt lat="42.8740230" lon="-8.4991150">
        <ele>258.9</ele>
        <time>2022-04-14T16:13:10Z</time>
      </trkpt>
      <trkpt lat="42.8740500" lon="-8.4991060">
        <ele>259.3</ele>
        <time>2022-04-14T16:13:11Z</time>
      </trkpt>
      <trkpt lat="42.8740760" lon="-8.4990970">
        <ele>259.6</ele>
        <time>2022-04-14T16:13:12Z</time>
      </trkpt>
      <trkpt lat="42.8741530" lon="-8.4990680">
        <ele>260.5</ele>
        <time>2022-04-14T16:13:13Z</time>
      </trkpt>
      <trkpt lat="42.8741770" lon="-8.4990580">
        <ele>260.8</ele>
        <time>2022-04-14T16:13:14Z</time>
      </trkpt>
      <trkpt lat="42.8742010" lon="-8.4990480">
        <ele>261.1</ele>
        <time>2022-04-14T16:13:15Z</time>
      </trkpt>
      <trkpt lat="42.8742250" lon="-8.4990380">
        <ele>261.4</ele>
        <time>2022-04-14T16:13:16Z</time>
      </trkpt>
      <trkpt lat="42.8742760" lon="-8.4990230">
        <ele>262.1</ele>
        <time>2022-04-14T16:13:17Z</time>
      </trkpt>
      <trkpt lat="42.8743260" lon="-8.4990080">
        <ele>262.7</ele>
        <time>2022-04-14T16:13:18Z</time>
      </trkpt>
      <trkpt lat="42.8743590" lon="-8.4989950">
        <ele>263.1</ele>
        <time>2022-04-14T16:13:19Z</time>
      </trkpt>
      <trkpt lat="42.8743910" lon="-8.4989820">
        <ele>263.5</ele>
        <time>2022-04-14T16:13:20Z</time>
      </trkpt>
      <trkpt lat="42.8744240" lon="-8.4989690">
        <ele>263.9</ele>
        <time>2022-04-14T16:13:21Z</time>
      </trkpt>
      <trkpt lat="42.8744550" lon="-8.4989560">
        <ele>264.3</ele>
        <time>2022-04-14T16:13:22Z</time>
      </trkpt>
      <trkpt lat="42.8744860" lon="-8.4989430">
        <ele>264.8</ele>
        <time>2022-04-14T16:13:23Z</time>
      </trkpt>
      <trkpt lat="42.8745160" lon="-8.4989300">
        <ele>265.1</ele>
        <time>2022-04-14T16:13:24Z</time>
      </trkpt>
      <trkpt lat="42.8745450" lon="-8.4989190">
        <ele>265.5</ele>
        <time>2022-04-14T16:13:25Z</time>
      </trkpt>
      <trkpt lat="42.8745740" lon="-8.4989070">
        <ele>265.9</ele>
        <time>2022-04-14T16:13:26Z</time>
      </trkpt>
      <trkpt lat="42.8746020" lon="-8.4988950">
        <ele>266.3</ele>
        <time>2022-04-14T16:13:27Z</time>
      </trkpt>
      <trkpt lat="42.8746230" lon="-8.4988840">
        <ele>266.6</ele>
        <time>2022-04-14T16:13:28Z</time>
      </trkpt>
      <trkpt lat="42.8746430" lon="-8.4988720">
        <ele>266.9</ele>
        <time>2022-04-14T16:13:29Z</time>
      </trkpt>
      <trkpt lat="42.8746640" lon="-8.4988600">
        <ele>267.2</ele>
        <time>2022-04-14T16:13:30Z</time>
      </trkpt>
      <trkpt lat="42.8746840" lon="-8.4988480">
        <ele>267.5</ele>
        <time>2022-04-14T16:13:31Z</time>
      </trkpt>
      <trkpt lat="42.8747040" lon="-8.4988360">
        <ele>267.8</ele>
        <time>2022-04-14T16:13:32Z</time>
      </trkpt>
      <trkpt lat="42.8747220" lon="-8.4988270">
        <ele>268.1</ele>
        <time>2022-04-14T16:13:33Z</time>
      </trkpt>
      <trkpt lat="42.8747400" lon="-8.4988170">
        <ele>268.4</ele>
        <time>2022-04-14T16:13:34Z</time>
      </trkpt>
      <trkpt lat="42.8747580" lon="-8.4988070">
        <ele>268.7</ele>
        <time>2022-04-14T16:13:35Z</time>
      </trkpt>
      <trkpt lat="42.8748250" lon="-8.4987710">
        <ele>269.7</ele>
        <time>2022-04-14T16:13:36Z</time>
      </trkpt>
      <trkpt lat="42.8748390" lon="-8.4987640">
        <ele>269.9</ele>
        <time>2022-04-14T16:13:37Z</time>
      </trkpt>
      <trkpt lat="42.8748520" lon="-8.4987570">
        <ele>270.1</ele>
        <time>2022-04-14T16:13:38Z</time>
      </trkpt>
      <trkpt lat="42.8748660" lon="-8.4987490">
        <ele>270.3</ele>
        <time>2022-04-14T16:13:39Z</time>
      </trkpt>
      <trkpt lat="42.8749330" lon="-8.4987140">
        <ele>271.3</ele>
        <time>2022-04-14T16:13:40Z</time>
      </trkpt>
      <trkpt lat="42.8749470" lon="-8.4987070">
        <ele>271.5</ele>
        <time>2022-04-14T16:13:41Z</time>
      </trkpt>
      <trkpt lat="42.8749600" lon="-8.4987000">
        <ele>271.7</ele>
        <time>2022-04-14T16:13:42Z</time>
      </trkpt>
      <trkpt lat="42.8749740" lon="-8.4986930">
        <ele>271.9</ele>
        <time>2022-04-14T16:13:43Z</time>
      </trkpt>
      <trkpt lat="42.8750490" lon="-8.4986550">
        <ele>273.0</ele>
        <time>2022-04-14T16:13:44Z</time>
      </trkpt>
      <trkpt lat="42.8750700" lon="-8.4986450">
        <ele>273.3</ele>
        <time>2022-04-14T16:13:45Z</time>
      </trkpt>
      <trkpt lat="42.8750910" lon="-8.4986350">
        <ele>273.6</ele>
        <time>2022-04-14T16:13:46Z</time>
      </trkpt>
      <trkpt lat="42.8751120" lon="-8.4986250">
        <ele>273.9</ele>
        <time>2022-04-14T16:13:47Z</time>
      </trkpt>
      <trkpt lat="42.8751330" lon="-8.4986140">
        <ele>274.2</ele>
        <time>2022-04-14T16:13:48Z</time>
      </trkpt>
      <trkpt lat="42.8751590" lon="-8.4985980">
        <ele>274.5</ele>
        <time>2022-04-14T16:13:49Z</time>
      </trkpt>
      <trkpt lat="42.8751850" lon="-8.4985820">
        <ele>274.8</ele>
        <time>2022-04-14T16:13:50Z</time>
      </trkpt>
      <trkpt lat="42.8752110" lon="-8.4985660">
        <ele>275.2</ele>
        <time>2022-04-14T16:13:51Z</time>
      </trkpt>
      <trkpt lat="42.8752360" lon="-8.4985490">
        <ele>275.5</ele>
        <time>2022-04-14T16:13:52Z</time>
      </trkpt>
      <trkpt lat="42.8752780" lon="-8.4985260">
        <ele>276.0</ele>
        <time>2022-04-14T16:13:53Z</time>
      </trkpt>
      <trkpt lat="42.8753200" lon="-8.4985030">
        <ele>276.5</ele>
        <time>2022-04-14T16:13:54Z</time>
      </trkpt>
      <trkpt lat="42.8753340" lon="-8.4984960">
        <ele>276.6</ele>
        <time>2022-04-14T16:13:55Z</time>
      </trkpt>
      <trkpt lat="42.8753480" lon="-8.4984880">
        <ele>276.8</ele>
        <time>2022-04-14T16:13:56Z</time>
      </trkpt>
      <trkpt lat="42.8753620" lon="-8.4984800">
        <ele>277.0</ele>
        <time>2022-04-14T16:13:57Z</time>
      </trkpt>
      <trkpt lat="42.8753760" lon="-8.4984720">
        <ele>277.1</ele>
        <time>2022-04-14T16:13:58Z</time>
      </trkpt>
      <trkpt lat="42.8754580" lon="-8.4984230">
        <ele>278.1</ele>
        <time>2022-04-14T16:13:59Z</time>
      </trkpt>
      <trkpt lat="42.8754860" lon="-8.4984060">
        <ele>278.4</ele>
        <time>2022-04-14T16:14:00Z</time>
      </trkpt>
      <trkpt lat="42.8755130" lon="-8.4983890">
        <ele>278.7</ele>
        <time>2022-04-14T16:14:01Z</time>
      </trkpt>
      <trkpt lat="42.8755340" lon="-8.4983780">
        <ele>278.9</ele>
        <time>2022-04-14T16:14:02Z</time>
      </trkpt>
      <trkpt lat="42.8755550" lon="-8.4983670">
        <ele>279.1</ele>
        <time>2022-04-14T16:14:03Z</time>
      </trkpt>
      <trkpt lat="42.8755750" lon="-8.4983550">
        <ele>279.3</ele>
        <time>2022-04-14T16:14:04Z</time>
      </trkpt>
      <trkpt lat="42.8755960" lon="-8.4983440">
        <ele>279.5</ele>
        <time>2022-04-14T16:14:05Z</time>
      </trkpt>
      <trkpt lat="42.8756160" lon="-8.4983320">
        <ele>279.7</ele>
        <time>2022-04-14T16:14:06Z</time>
      </trkpt>
      <trkpt lat="42.8756590" lon="-8.4983110">
        <ele>280.2</ele>
        <time>2022-04-14T16:14:07Z</time>
      </trkpt>
      <trkpt lat="42.8757010" lon="-8.4982900">
        <ele>280.6</ele>
        <time>2022-04-14T16:14:08Z</time>
      </trkpt>
      <trkpt lat="42.8757240" lon="-8.4982770">
        <ele>280.8</ele>
        <time>2022-04-14T16:14:09Z</time>
      </trkpt>
      <trkpt lat="42.8757460" lon="-8.4982630">
        <ele>281.0</ele>
        <time>2022-04-14T16:14:10Z</time>
      </trkpt>
      <trkpt lat="42.8757690" lon="-8.4982490">
        <ele>281.2</ele>
        <time>2022-04-14T16:14:11Z</time>
      </trkpt>
      <trkpt lat="42.8757910" lon="-8.4982350">
        <ele>281.5</ele>
        <time>2022-04-14T16:14:12Z</time>
      </trkpt>
      <trkpt lat="42.8758050" lon="-8.4982290">
        <ele>281.6</ele>
        <time>2022-04-14T16:14:13Z</time>
      </trkpt>
      <trkpt lat="42.8758180" lon="-8.4982220">
        <ele>281.7</ele>
        <time>2022-04-14T16:14:14Z</time>
      </trkpt>
      <trkpt lat="42.8758310" lon="-8.4982160">
        <ele>281.8</ele>
        <time>2022-04-14T16:14:15Z</time>
      </trkpt>
      <trkpt lat="42.8758440" lon="-8.4982090">
        <ele>282.0</ele>
        <time>2022-04-14T16:14:16Z</time>
      </trkpt>
      <trkpt lat="42.8759120" lon="-8.4981750">
        <ele>282.6</ele>
        <time>2022-04-14T16:14:17Z</time>
      </trkpt>
      <trkpt lat="42.8759260" lon="-8.4981680">
        <ele>282.7</ele>
        <time>2022-04-14T16:14:18Z</time>
      </trkpt>
      <trkpt lat="42.8759410" lon="-8.4981600">
        <ele>282.8</ele>
        <time>2022-04-14T16:14:19Z</time>
      </trkpt>
      <trkpt lat="42.8759550" lon="-8.4981530">
        <ele>283.0</ele>
        <time>2022-04-14T16:14:20Z</time>
      </trkpt>
      <trkpt lat="42.8760370" lon="-8.4981110">
        <ele>283.7</ele>
        <time>2022-04-14T16:14:21Z</time>
      </trkpt>
      <trkpt lat="42.8760620" lon="-8.4980980">
        <ele>283.9</ele>
        <time>2022-04-14T16:14:22Z</time>
      </trkpt>
      <trkpt lat="42.8760870" lon="-8.4980850">
        <ele>284.1</ele>
        <time>2022-04-14T16:14:23Z</time>
      </trkpt>
      <trkpt lat="42.8761120" lon="-8.4980720">
        <ele>284.3</ele>
        <time>2022-04-14T16:14:24Z</time>
      </trkpt>
      <trkpt lat="42.8761570" lon="-8.4980540">
        <ele>284.7</ele>
        <time>2022-04-14T16:14:25Z</time>
      </trkpt>
      <trkpt lat="42.8762020" lon="-8.4980360">
        <ele>285.1</ele>
        <time>2022-04-14T16:14:26Z</time>
      </trkpt>
      <trkpt lat="42.8762360" lon="-8.4980310">
        <ele>285.3</ele>
        <time>2022-04-14T16:14:27Z</time>
      </trkpt>
      <trkpt lat="42.8762700" lon="-8.4980260">
        <ele>285.6</ele>
        <time>2022-04-14T16:14:28Z</time>
      </trkpt>
      <trkpt lat="42.8763040" lon="-8.4980200">
        <ele>285.9</ele>
        <time>2022-04-14T16:14:29Z</time>
      </trkpt>
      <trkpt lat="42.8763250" lon="-8.4980250">
        <ele>286.0</ele>
        <time>2022-04-14T16:14:30Z</time>
      </trkpt>
      <trkpt lat="42.8763450" lon="-8.4980300">
        <ele>286.2</ele>
        <time>2022-04-14T16:14:31Z</time>
      </trkpt>
      <trkpt lat="42.8763650" lon="-8.4980350">
        <ele>286.3</ele>
        <time>2022-04-14T16:14:32Z</time>
      </trkpt>
      <trkpt lat="42.8764420" lon="-8.4980610">
        <ele>286.9</ele>
        <time>2022-04-14T16:14:33Z</time>
      </trkpt>
      <trkpt lat="42.8764580" lon="-8.4980710">
        <ele>287.0</ele>
        <time>2022-04-14T16:14:34Z</time>
      </trkpt>
      <trkpt lat="42.8764740" lon="-8.4980820">
        <ele>287.2</ele>
        <time>2022-04-14T16:14:35Z</time>
      </trkpt>
      <trkpt lat="42.8765450" lon="-8.4981360">
        <ele>287.8</ele>
        <time>2022-04-14T16:14:36Z</time>
      </trkpt>
      <trkpt lat="42.8765680" lon="-8.4981580">
        <ele>288.0</ele>
        <time>2022-04-14T16:14:37Z</time>
      </trkpt>
      <trkpt lat="42.8765920" lon="-8.4981800">
        <ele>288.3</ele>
        <time>2022-04-14T16:14:38Z</time>
      </trkpt>
      <trkpt lat="42.8766150" lon="-8.4982020">
        <ele>288.5</ele>
        <time>2022-04-14T16:14:39Z</time>
      </trkpt>
      <trkpt lat="42.8766320" lon="-8.4982280">
        <ele>288.7</ele>
        <time>2022-04-14T16:14:40Z</time>
      </trkpt>
      <trkpt lat="42.8766490" lon="-8.4982540">
        <ele>289.0</ele>
        <time>2022-04-14T16:14:41Z</time>
      </trkpt>
      <trkpt lat="42.8767010" lon="-8.4983310">
        <ele>289.6</ele>
        <time>2022-04-14T16:14:42Z</time>
      </trkpt>
      <trkpt lat="42.8767190" lon="-8.4983550">
        <ele>289.9</ele>
        <time>2022-04-14T16:14:43Z</time>
      </trkpt>
      <trkpt lat="42.8767370" lon="-8.4983790">
        <ele>290.1</ele>
        <time>2022-04-14T16:14:44Z</time>
      </trkpt>
      <trkpt lat="42.8767540" lon="-8.4984030">
        <ele>290.3</ele>
        <time>2022-04-14T16:14:45Z</time>
      </trkpt>
      <trkpt lat="42.8767780" lon="-8.4984250">
        <ele>290.6</ele>
        <time>2022-04-14T16:14:46Z</time>
      </trkpt>
      <trkpt lat="42.8768010" lon="-8.4984460">
        <ele>290.8</ele>
        <time>2022-04-14T16:14:47Z</time>
      </trkpt>
      <trkpt lat="42.8768670" lon="-8.4985110">
        <ele>291.6</ele>
        <time>2022-04-14T16:14:48Z</time>
      </trkpt>
      <trkpt lat="42.8768860" lon="-8.4985330">
        <ele>291.8</ele>
        <time>2022-04-14T16:14:49Z</time>
      </trkpt>
      <trkpt lat="42.8769050" lon="-8.4985550">
        <ele>292.1</ele>
        <time>2022-04-14T16:14:50Z</time>
      </trkpt>
      <trkpt lat="42.8769240" lon="-8.4985770">
        <ele>292.3</ele>
        <time>2022-04-14T16:14:51Z</time>
      </trkpt>
      <trkpt lat="42.8769560" lon="-8.4986240">
        <ele>292.7</ele>
        <time>2022-04-14T16:14:52Z</time>
      </trkpt>
      <trkpt lat="42.8769870" lon="-8.4986710">
        <ele>293.2</ele>
        <time>2022-04-14T16:14:53Z</time>
      </trkpt>
      <trkpt lat="42.8770120" lon="-8.4987030">
        <ele>293.5</ele>
        <time>2022-04-14T16:14:54Z</time>
      </trkpt>
      <trkpt lat="42.8770360" lon="-8.4987340">
        <ele>293.7</ele>
        <time>2022-04-14T16:14:55Z</time>
      </trkpt>
      <trkpt lat="42.8770600" lon="-8.4987650">
        <ele>294.0</ele>
        <time>2022-04-14T16:14:56Z</time>
      </trkpt>
      <trkpt lat="42.8770740" lon="-8.4987810">
        <ele>294.2</ele>
        <time>2022-04-14T16:14:57Z</time>
      </trkpt>
      <trkpt lat="42.8770870" lon="-8.4987970">
        <ele>294.3</ele>
        <time>2022-04-14T16:14:58Z</time>
      </trkpt>
      <trkpt lat="42.8771010" lon="-8.4988120">
        <ele>294.4</ele>
        <time>2022-04-14T16:14:59Z</time>
      </trkpt>
      <trkpt lat="42.8771570" lon="-8.4988760">
        <ele>294.9</ele>
        <time>2022-04-14T16:15:00Z</time>
      </trkpt>
      <trkpt lat="42.8771740" lon="-8.4988920">
        <ele>295.1</ele>
        <time>2022-04-14T16:15:01Z</time>
      </trkpt>
      <trkpt lat="42.8771900" lon="-8.4989080">
        <ele>295.2</ele>
        <time>2022-04-14T16:15:02Z</time>
      </trkpt>
      <trkpt lat="42.8772630" lon="-8.4989810">
        <ele>295.6</ele>
        <time>2022-04-14T16:15:03Z</time>
      </trkpt>
      <trkpt lat="42.8772880" lon="-8.4990040">
        <ele>295.7</ele>
        <time>2022-04-14T16:15:04Z</time>
      </trkpt>
      <trkpt lat="42.8773130" lon="-8.4990270">
        <ele>295.9</ele>
        <time>2022-04-14T16:15:05Z</time>
      </trkpt>
      <trkpt lat="42.8773420" lon="-8.4990520">
        <ele>296.0</ele>
        <time>2022-04-14T16:15:06Z</time>
      </trkpt>
      <trkpt lat="42.8773700" lon="-8.4990770">
        <ele>296.1</ele>
        <time>2022-04-14T16:15:07Z</time>
      </trkpt>
      <trkpt lat="42.8774660" lon="-8.4991640">
        <ele>296.4</ele>
        <time>2022-04-14T16:15:08Z</time>
      </trkpt>
      <trkpt lat="42.8775050" lon="-8.4992000">
        <ele>296.5</ele>
        <time>2022-04-14T16:15:09Z</time>
      </trkpt>
      <trkpt lat="42.8775270" lon="-8.4992210">
        <ele>296.5</ele>
        <time>2022-04-14T16:15:10Z</time>
      </trkpt>
      <trkpt lat="42.8775490" lon="-8.4992420">
        <ele>296.6</ele>
        <time>2022-04-14T16:15:11Z</time>
      </trkpt>
      <trkpt lat="42.8776140" lon="-8.4993060">
        <ele>296.7</ele>
        <time>2022-04-14T16:15:12Z</time>
      </trkpt>
      <trkpt lat="42.8776350" lon="-8.4993280">
        <ele>296.7</ele>
        <time>2022-04-14T16:15:13Z</time>
      </trkpt>
      <trkpt lat="42.8777220" lon="-8.4994220">
        <ele>296.9</ele>
        <time>2022-04-14T16:15:14Z</time>
      </trkpt>
      <trkpt lat="42.8777680" lon="-8.4994700">
        <ele>296.9</ele>
        <time>2022-04-14T16:15:15Z</time>
      </trkpt>
      <trkpt lat="42.8778150" lon="-8.4995180">
        <ele>297.0</ele>
        <time>2022-04-14T16:15:16Z</time>
      </trkpt>
      <trkpt lat="42.8778660" lon="-8.4995690">
        <ele>297.0</ele>
        <time>2022-04-14T16:15:17Z</time>
      </trkpt>
      <trkpt lat="42.8778910" lon="-8.4995970">
        <ele>297.0</ele>
        <time>2022-04-14T16:15:18Z</time>
      </trkpt>
      <trkpt lat="42.8779170" lon="-8.4996250">
        <ele>297.0</ele>
        <time>2022-04-14T16:15:19Z</time>
      </trkpt>
      <trkpt lat="42.8779940" lon="-8.4997070">
        <ele>297.1</ele>
        <time>2022-04-14T16:15:20Z</time>
      </trkpt>
      <trkpt lat="42.8780210" lon="-8.4997330">
        <ele>297.1</ele>
        <time>2022-04-14T16:15:21Z</time>
      </trkpt>
      <trkpt lat="42.8781240" lon="-8.4998410">
        <ele>297.1</ele>
        <time>2022-04-14T16:15:22Z</time>
      </trkpt>
      <trkpt lat="42.8781740" lon="-8.4998950">
        <ele>297.1</ele>
        <time>2022-04-14T16:15:23Z</time>
      </trkpt>
      <trkpt lat="42.8782240" lon="-8.4999490">
        <ele>297.1</ele>
        <time>2022-04-14T16:15:24Z</time>
      </trkpt>
      <trkpt lat="42.8782720" lon="-8.4999990">
        <ele>297.1</ele>
        <time>2022-04-14T16:15:25Z</time>
      </trkpt>
      <trkpt lat="42.8783030" lon="-8.5000280">
        <ele>297.1</ele>
        <time>2022-04-14T16:15:26Z</time>
      </trkpt>
      <trkpt lat="42.8783340" lon="-8.5000560">
        <ele>297.0</ele>
        <time>2022-04-14T16:15:27Z</time>
      </trkpt>
      <trkpt lat="42.8784530" lon="-8.5001680">
        <ele>297.0</ele>
        <time>2022-04-14T16:15:28Z</time>
      </trkpt>
      <trkpt lat="42.8785100" lon="-8.5002230">
        <ele>296.9</ele>
        <time>2022-04-14T16:15:29Z</time>
      </trkpt>
      <trkpt lat="42.8785670" lon="-8.5002780">
        <ele>296.9</ele>
        <time>2022-04-14T16:15:30Z</time>
      </trkpt>
      <trkpt lat="42.8786260" lon="-8.5003320">
        <ele>296.9</ele>
        <time>2022-04-14T16:15:31Z</time>
      </trkpt>
      <trkpt lat="42.8786570" lon="-8.5003610">
        <ele>296.9</ele>
        <time>2022-04-14T16:15:32Z</time>
      </trkpt>
      <trkpt lat="42.8786890" lon="-8.5003900">
        <ele>296.9</ele>
        <time>2022-04-14T16:15:33Z</time>
      </trkpt>
      <trkpt lat="42.8787810" lon="-8.5004760">
        <ele>296.8</ele>
        <time>2022-04-14T16:15:34Z</time>
      </trkpt>
      <trkpt lat="42.8788110" lon="-8.5005040">
        <ele>296.8</ele>
        <time>2022-04-14T16:15:35Z</time>
      </trkpt>
      <trkpt lat="42.8789310" lon="-8.5006190">
        <ele>296.7</ele>
        <time>2022-04-14T16:15:36Z</time>
      </trkpt>
      <trkpt lat="42.8789910" lon="-8.5006790">
        <ele>296.6</ele>
        <time>2022-04-14T16:15:37Z</time>
      </trkpt>
      <trkpt lat="42.8790510" lon="-8.5007390">
        <ele>296.5</ele>
        <time>2022-04-14T16:15:38Z</time>
      </trkpt>
      <trkpt lat="42.8791080" lon="-8.5008030">
        <ele>296.4</ele>
        <time>2022-04-14T16:15:39Z</time>
      </trkpt>
      <trkpt lat="42.8791640" lon="-8.5008700">
        <ele>296.3</ele>
        <time>2022-04-14T16:15:40Z</time>
      </trkpt>
      <trkpt lat="42.8792190" lon="-8.5009370">
        <ele>296.2</ele>
        <time>2022-04-14T16:15:41Z</time>
      </trkpt>
      <trkpt lat="42.8792750" lon="-8.5010030">
        <ele>296.1</ele>
        <time>2022-04-14T16:15:42Z</time>
      </trkpt>
      <trkpt lat="42.8793690" lon="-8.5010960">
        <ele>295.9</ele>
        <time>2022-04-14T16:15:43Z</time>
      </trkpt>
      <trkpt lat="42.8794000" lon="-8.5011270">
        <ele>295.9</ele>
        <time>2022-04-14T16:15:44Z</time>
      </trkpt>
      <trkpt lat="42.8794630" lon="-8.5011880">
        <ele>295.8</ele>
        <time>2022-04-14T16:15:45Z</time>
      </trkpt>
      <trkpt lat="42.8794980" lon="-8.5012210">
        <ele>295.7</ele>
        <time>2022-04-14T16:15:46Z</time>
      </trkpt>
      <trkpt lat="42.8795330" lon="-8.5012540">
        <ele>295.6</ele>
        <time>2022-04-14T16:15:47Z</time>
      </trkpt>
      <trkpt lat="42.8796680" lon="-8.5013860">
        <ele>295.4</ele>
        <time>2022-04-14T16:15:48Z</time>
      </trkpt>
      <trkpt lat="42.8797350" lon="-8.5014520">
        <ele>295.3</ele>
        <time>2022-04-14T16:15:49Z</time>
      </trkpt>
      <trkpt lat="42.8798010" lon="-8.5015170">
        <ele>295.1</ele>
        <time>2022-04-14T16:15:50Z</time>
      </trkpt>
      <trkpt lat="42.8798690" lon="-8.5015830">
        <ele>295.0</ele>
        <time>2022-04-14T16:15:51Z</time>
      </trkpt>
      <trkpt lat="42.8799240" lon="-8.5016300">
        <ele>295.0</ele>
        <time>2022-04-14T16:15:52Z</time>
      </trkpt>
      <trkpt lat="42.8799790" lon="-8.5016760">
        <ele>294.9</ele>
        <time>2022-04-14T16:15:53Z</time>
      </trkpt>
      <trkpt lat="42.8800880" lon="-8.5017680">
        <ele>294.7</ele>
        <time>2022-04-14T16:15:54Z</time>
      </trkpt>
      <trkpt lat="42.8801650" lon="-8.5018230">
        <ele>294.6</ele>
        <time>2022-04-14T16:15:55Z</time>
      </trkpt>
      <trkpt lat="42.8802420" lon="-8.5018770">
        <ele>294.4</ele>
        <time>2022-04-14T16:15:56Z</time>
      </trkpt>
      <trkpt lat="42.8803200" lon="-8.5019310">
        <ele>294.4</ele>
        <time>2022-04-14T16:15:57Z</time>
      </trkpt>
      <trkpt lat="42.8803970" lon="-8.5019890">
        <ele>294.3</ele>
        <time>2022-04-14T16:15:58Z</time>
      </trkpt>
      <trkpt lat="42.8804580" lon="-8.5020720">
        <ele>294.3</ele>
        <time>2022-04-14T16:15:59Z</time>
      </trkpt>
      <trkpt lat="42.8805180" lon="-8.5021540">
        <ele>294.1</ele>
        <time>2022-04-14T16:16:00Z</time>
      </trkpt>
      <trkpt lat="42.8805790" lon="-8.5022360">
        <ele>293.9</ele>
        <time>2022-04-14T16:16:01Z</time>
      </trkpt>
      <trkpt lat="42.8806680" lon="-8.5023490">
        <ele>293.7</ele>
        <time>2022-04-14T16:16:02Z</time>
      </trkpt>
      <trkpt lat="42.8807010" lon="-8.5023840">
        <ele>293.6</ele>
        <time>2022-04-14T16:16:03Z</time>
      </trkpt>
      <trkpt lat="42.8807670" lon="-8.5024530">
        <ele>293.5</ele>
        <time>2022-04-14T16:16:04Z</time>
      </trkpt>
      <trkpt lat="42.8808030" lon="-8.5024890">
        <ele>293.4</ele>
        <time>2022-04-14T16:16:05Z</time>
      </trkpt>
      <trkpt lat="42.8808400" lon="-8.5025260">
        <ele>293.3</ele>
        <time>2022-04-14T16:16:06Z</time>
      </trkpt>
      <trkpt lat="42.8809850" lon="-8.5026700">
        <ele>292.9</ele>
        <time>2022-04-14T16:16:07Z</time>
      </trkpt>
      <trkpt lat="42.8810570" lon="-8.5027420">
        <ele>292.7</ele>
        <time>2022-04-14T16:16:08Z</time>
      </trkpt>
      <trkpt lat="42.8811300" lon="-8.5028140">
        <ele>292.4</ele>
        <time>2022-04-14T16:16:09Z</time>
      </trkpt>
      <trkpt lat="42.8812040" lon="-8.5028860">
        <ele>292.1</ele>
        <time>2022-04-14T16:16:10Z</time>
      </trkpt>
      <trkpt lat="42.8812750" lon="-8.5029630">
        <ele>291.7</ele>
        <time>2022-04-14T16:16:11Z</time>
      </trkpt>
      <trkpt lat="42.8813460" lon="-8.5030400">
        <ele>291.2</ele>
        <time>2022-04-14T16:16:12Z</time>
      </trkpt>
      <trkpt lat="42.8814170" lon="-8.5031170">
        <ele>290.6</ele>
        <time>2022-04-14T16:16:13Z</time>
      </trkpt>
      <trkpt lat="42.8814970" lon="-8.5031970">
        <ele>290.0</ele>
        <time>2022-04-14T16:16:14Z</time>
      </trkpt>
      <trkpt lat="42.8815940" lon="-8.5032810">
        <ele>289.2</ele>
        <time>2022-04-14T16:16:15Z</time>
      </trkpt>
      <trkpt lat="42.8816780" lon="-8.5033630">
        <ele>288.6</ele>
        <time>2022-04-14T16:16:16Z</time>
      </trkpt>
      <trkpt lat="42.8818160" lon="-8.5034990">
        <ele>288.4</ele>
        <time>2022-04-14T16:16:17Z</time>
      </trkpt>
      <trkpt lat="42.8818640" lon="-8.5035420">
        <ele>288.4</ele>
        <time>2022-04-14T16:16:18Z</time>
      </trkpt>
      <trkpt lat="42.8820050" lon="-8.5036690">
        <ele>288.2</ele>
        <time>2022-04-14T16:16:19Z</time>
      </trkpt>
      <trkpt lat="42.8820510" lon="-8.5037120">
        <ele>288.2</ele>
        <time>2022-04-14T16:16:20Z</time>
      </trkpt>
      <trkpt lat="42.8821810" lon="-8.5038350">
        <ele>288.3</ele>
        <time>2022-04-14T16:16:21Z</time>
      </trkpt>
      <trkpt lat="42.8822200" lon="-8.5038740">
        <ele>288.3</ele>
        <time>2022-04-14T16:16:22Z</time>
      </trkpt>
      <trkpt lat="42.8822980" lon="-8.5039520">
        <ele>288.4</ele>
        <time>2022-04-14T16:16:23Z</time>
      </trkpt>
      <trkpt lat="42.8823750" lon="-8.5040280">
        <ele>288.5</ele>
        <time>2022-04-14T16:16:24Z</time>
      </trkpt>
      <trkpt lat="42.8824470" lon="-8.5041040">
        <ele>288.7</ele>
        <time>2022-04-14T16:16:25Z</time>
      </trkpt>
      <trkpt lat="42.8825010" lon="-8.5041690">
        <ele>288.9</ele>
        <time>2022-04-14T16:16:26Z</time>
      </trkpt>
      <trkpt lat="42.8825550" lon="-8.5042340">
        <ele>289.1</ele>
        <time>2022-04-14T16:16:27Z</time>
      </trkpt>
      <trkpt lat="42.8826090" lon="-8.5042990">
        <ele>289.4</ele>
        <time>2022-04-14T16:16:28Z</time>
      </trkpt>
      <trkpt lat="42.8826760" lon="-8.5043750">
        <ele>289.7</ele>
        <time>2022-04-14T16:16:29Z</time>
      </trkpt>
      <trkpt lat="42.8827090" lon="-8.5044130">
        <ele>289.8</ele>
        <time>2022-04-14T16:16:30Z</time>
      </trkpt>
      <trkpt lat="42.8828060" lon="-8.5045240">
        <ele>290.2</ele>
        <time>2022-04-14T16:16:31Z</time>
      </trkpt>
      <trkpt lat="42.8828380" lon="-8.5045620">
        <ele>290.4</ele>
        <time>2022-04-14T16:16:32Z</time>
      </trkpt>
      <trkpt lat="42.8829610" lon="-8.5047080">
        <ele>291.1</ele>
        <time>2022-04-14T16:16:33Z</time>
      </trkpt>
      <trkpt lat="42.8830210" lon="-8.5047810">
        <ele>291.5</ele>
        <time>2022-04-14T16:16:34Z</time>
      </trkpt>
      <trkpt lat="42.8830810" lon="-8.5048530">
        <ele>291.9</ele>
        <time>2022-04-14T16:16:35Z</time>
      </trkpt>
      <trkpt lat="42.8831350" lon="-8.5049250">
        <ele>292.3</ele>
        <time>2022-04-14T16:16:36Z</time>
      </trkpt>
      <trkpt lat="42.8831880" lon="-8.5049930">
        <ele>292.6</ele>
        <time>2022-04-14T16:16:37Z</time>
      </trkpt>
      <trkpt lat="42.8832410" lon="-8.5050600">
        <ele>293.0</ele>
        <time>2022-04-14T16:16:38Z</time>
      </trkpt>
      <trkpt lat="42.8832950" lon="-8.5051280">
        <ele>293.5</ele>
        <time>2022-04-14T16:16:39Z</time>
      </trkpt>
      <trkpt lat="42.8833730" lon="-8.5052200">
        <ele>294.0</ele>
        <time>2022-04-14T16:16:40Z</time>
      </trkpt>
      <trkpt lat="42.8834000" lon="-8.5052470">
        <ele>294.2</ele>
        <time>2022-04-14T16:16:41Z</time>
      </trkpt>
      <trkpt lat="42.8834530" lon="-8.5053000">
        <ele>294.4</ele>
        <time>2022-04-14T16:16:42Z</time>
      </trkpt>
      <trkpt lat="42.8834790" lon="-8.5053320">
        <ele>294.6</ele>
        <time>2022-04-14T16:16:43Z</time>
      </trkpt>
      <trkpt lat="42.8835060" lon="-8.5053630">
        <ele>294.7</ele>
        <time>2022-04-14T16:16:44Z</time>
      </trkpt>
      <trkpt lat="42.8836140" lon="-8.5054860">
        <ele>295.2</ele>
        <time>2022-04-14T16:16:45Z</time>
      </trkpt>
      <trkpt lat="42.8836680" lon="-8.5055460">
        <ele>295.3</ele>
        <time>2022-04-14T16:16:46Z</time>
      </trkpt>
      <trkpt lat="42.8837220" lon="-8.5056060">
        <ele>295.5</ele>
        <time>2022-04-14T16:16:47Z</time>
      </trkpt>
      <trkpt lat="42.8837760" lon="-8.5056660">
        <ele>295.6</ele>
        <time>2022-04-14T16:16:48Z</time>
      </trkpt>
      <trkpt lat="42.8837990" lon="-8.5056960">
        <ele>295.7</ele>
        <time>2022-04-14T16:16:49Z</time>
      </trkpt>
      <trkpt lat="42.8838220" lon="-8.5057270">
        <ele>295.7</ele>
        <time>2022-04-14T16:16:50Z</time>
      </trkpt>
      <trkpt lat="42.8839020" lon="-8.5058150">
        <ele>295.8</ele>
        <time>2022-04-14T16:16:51Z</time>
      </trkpt>
      <trkpt lat="42.8839360" lon="-8.5058420">
        <ele>295.8</ele>
        <time>2022-04-14T16:16:52Z</time>
      </trkpt>
      <trkpt lat="42.8840550" lon="-8.5059650">
        <ele>295.6</ele>
        <time>2022-04-14T16:16:53Z</time>
      </trkpt>
      <trkpt lat="42.8841070" lon="-8.5060340">
        <ele>295.5</ele>
        <time>2022-04-14T16:16:54Z</time>
      </trkpt>
      <trkpt lat="42.8841580" lon="-8.5061020">
        <ele>295.4</ele>
        <time>2022-04-14T16:16:55Z</time>
      </trkpt>
      <trkpt lat="42.8842100" lon="-8.5061700">
        <ele>295.3</ele>
        <time>2022-04-14T16:16:56Z</time>
      </trkpt>
      <trkpt lat="42.8842940" lon="-8.5062740">
        <ele>295.2</ele>
        <time>2022-04-14T16:16:57Z</time>
      </trkpt>
      <trkpt lat="42.8843260" lon="-8.5063030">
        <ele>295.2</ele>
        <time>2022-04-14T16:16:58Z</time>
      </trkpt>
      <trkpt lat="42.8843890" lon="-8.5063610">
        <ele>295.1</ele>
        <time>2022-04-14T16:16:59Z</time>
      </trkpt>
      <trkpt lat="42.8844680" lon="-8.5063560">
        <ele>295.0</ele>
        <time>2022-04-14T16:17:00Z</time>
      </trkpt>
      <trkpt lat="42.8845470" lon="-8.5063510">
        <ele>295.0</ele>
        <time>2022-04-14T16:17:01Z</time>
      </trkpt>
      <trkpt lat="42.8846260" lon="-8.5063450">
        <ele>295.0</ele>
        <time>2022-04-14T16:17:02Z</time>
      </trkpt>
      <trkpt lat="42.8847110" lon="-8.5063120">
        <ele>295.0</ele>
        <time>2022-04-14T16:17:03Z</time>
      </trkpt>
      <trkpt lat="42.8847730" lon="-8.5062840">
        <ele>295.0</ele>
        <time>2022-04-14T16:17:04Z</time>
      </trkpt>
      <trkpt lat="42.8848350" lon="-8.5062550">
        <ele>295.1</ele>
        <time>2022-04-14T16:17:05Z</time>
      </trkpt>
      <trkpt lat="42.8849580" lon="-8.5061970">
        <ele>295.3</ele>
        <time>2022-04-14T16:17:06Z</time>
      </trkpt>
      <trkpt lat="42.8849580" lon="-8.5061970">
        <ele>295.3</ele>
        <time>2022-04-14T16:17:07Z</time>
      </trkpt>
      <trkpt lat="42.8851050" lon="-8.5061210">
        <ele>295.4</ele>
        <time>2022-04-14T16:17:08Z</time>
      </trkpt>
      <trkpt lat="42.8851410" lon="-8.5061020">
        <ele>295.3</ele>
        <time>2022-04-14T16:17:09Z</time>
      </trkpt>
      <trkpt lat="42.8851760" lon="-8.5060820">
        <ele>295.3</ele>
        <time>2022-04-14T16:17:10Z</time>
      </trkpt>
      <trkpt lat="42.8853240" lon="-8.5060130">
        <ele>295.0</ele>
        <time>2022-04-14T16:17:11Z</time>
      </trkpt>
      <trkpt lat="42.8854010" lon="-8.5059840">
        <ele>294.8</ele>
        <time>2022-04-14T16:17:12Z</time>
      </trkpt>
      <trkpt lat="42.8854780" lon="-8.5059540">
        <ele>294.4</ele>
        <time>2022-04-14T16:17:13Z</time>
      </trkpt>
      <trkpt lat="42.8855580" lon="-8.5059260">
        <ele>294.1</ele>
        <time>2022-04-14T16:17:14Z</time>
      </trkpt>
      <trkpt lat="42.8856490" lon="-8.5058980">
        <ele>293.6</ele>
        <time>2022-04-14T16:17:15Z</time>
      </trkpt>
      <trkpt lat="42.8857930" lon="-8.5058440">
        <ele>292.9</ele>
        <time>2022-04-14T16:17:16Z</time>
      </trkpt>
      <trkpt lat="42.8858440" lon="-8.5058210">
        <ele>292.7</ele>
        <time>2022-04-14T16:17:17Z</time>
      </trkpt>
      <trkpt lat="42.8859460" lon="-8.5057750">
        <ele>292.2</ele>
        <time>2022-04-14T16:17:18Z</time>
      </trkpt>
      <trkpt lat="42.8859460" lon="-8.5057750">
        <ele>292.2</ele>
        <time>2022-04-14T16:17:19Z</time>
      </trkpt>
      <trkpt lat="42.8860150" lon="-8.5057120">
        <ele>292.0</ele>
        <time>2022-04-14T16:17:20Z</time>
      </trkpt>
      <trkpt lat="42.8860840" lon="-8.5056500">
        <ele>291.9</ele>
        <time>2022-04-14T16:17:21Z</time>
      </trkpt>
      <trkpt lat="42.8861530" lon="-8.5055870">
        <ele>291.8</ele>
        <time>2022-04-14T16:17:22Z</time>
      </trkpt>
      <trkpt lat="42.8863750" lon="-8.5053740">
        <ele>292.6</ele>
        <time>2022-04-14T16:17:23Z</time>
      </trkpt>
      <trkpt lat="42.8863900" lon="-8.5053500">
        <ele>292.7</ele>
        <time>2022-04-14T16:17:24Z</time>
      </trkpt>
      <trkpt lat="42.8864510" lon="-8.5052610">
        <ele>293.0</ele>
        <time>2022-04-14T16:17:25Z</time>
      </trkpt>
      <trkpt lat="42.8864830" lon="-8.5052200">
        <ele>293.1</ele>
        <time>2022-04-14T16:17:26Z</time>
      </trkpt>
      <trkpt lat="42.8866160" lon="-8.5050740">
        <ele>293.2</ele>
        <time>2022-04-14T16:17:27Z</time>
      </trkpt>
      <trkpt lat="42.8866850" lon="-8.5050100">
        <ele>293.2</ele>
        <time>2022-04-14T16:17:28Z</time>
      </trkpt>
      <trkpt lat="42.8867550" lon="-8.5049460">
        <ele>293.2</ele>
        <time>2022-04-14T16:17:29Z</time>
      </trkpt>
      <trkpt lat="42.8868200" lon="-8.5048990">
        <ele>293.3</ele>
        <time>2022-04-14T16:17:30Z</time>
      </trkpt>
      <trkpt lat="42.8868200" lon="-8.5048990">
        <ele>293.3</ele>
        <time>2022-04-14T16:17:31Z</time>
      </trkpt>
      <trkpt lat="42.8868520" lon="-8.5048850">
        <ele>293.4</ele>
        <time>2022-04-14T16:17:32Z</time>
      </trkpt>
      <trkpt lat="42.8868840" lon="-8.5048710">
        <ele>293.4</ele>
        <time>2022-04-14T16:17:33Z</time>
      </trkpt>
      <trkpt lat="42.8869560" lon="-8.5048580">
        <ele>293.5</ele>
        <time>2022-04-14T16:17:34Z</time>
      </trkpt>
      <trkpt lat="42.8869650" lon="-8.5048720">
        <ele>293.5</ele>
        <time>2022-04-14T16:17:35Z</time>
      </trkpt>
      <trkpt lat="42.8869740" lon="-8.5048870">
        <ele>293.3</ele>
        <time>2022-04-14T16:17:36Z</time>
      </trkpt>
      <trkpt lat="42.8869830" lon="-8.5049020">
        <ele>293.1</ele>
        <time>2022-04-14T16:17:37Z</time>
      </trkpt>
      <trkpt lat="42.8869920" lon="-8.5049160">
        <ele>292.9</ele>
        <time>2022-04-14T16:17:38Z</time>
      </trkpt>
      <trkpt lat="42.8870010" lon="-8.5049310">
        <ele>292.7</ele>
        <time>2022-04-14T16:17:39Z</time>
      </trkpt>
      <trkpt lat="42.8870100" lon="-8.5049450">
        <ele>292.5</ele>
        <time>2022-04-14T16:17:40Z</time>
      </trkpt>
      <trkpt lat="42.8869830" lon="-8.5050160">
        <ele>291.6</ele>
        <time>2022-04-14T16:17:41Z</time>
      </trkpt>
      <trkpt lat="42.8869550" lon="-8.5050860">
        <ele>291.4</ele>
        <time>2022-04-14T16:17:42Z</time>
      </trkpt>
      <trkpt lat="42.8869270" lon="-8.5051570">
        <ele>291.1</ele>
        <time>2022-04-14T16:17:43Z</time>
      </trkpt>
      <trkpt lat="42.8868980" lon="-8.5052380">
        <ele>290.7</ele>
        <time>2022-04-14T16:17:44Z</time>
      </trkpt>
      <trkpt lat="42.8868830" lon="-8.5052880">
        <ele>290.5</ele>
        <time>2022-04-14T16:17:45Z</time>
      </trkpt>
      <trkpt lat="42.8868670" lon="-8.5053370">
        <ele>290.3</ele>
        <time>2022-04-14T16:17:46Z</time>
      </trkpt>
      <trkpt lat="42.8868230" lon="-8.5055220">
        <ele>289.5</ele>
        <time>2022-04-14T16:17:47Z</time>
      </trkpt>
      <trkpt lat="42.8868110" lon="-8.5056080">
        <ele>289.1</ele>
        <time>2022-04-14T16:17:48Z</time>
      </trkpt>
      <trkpt lat="42.8867800" lon="-8.5058440">
        <ele>288.1</ele>
        <time>2022-04-14T16:17:49Z</time>
      </trkpt>
      <trkpt lat="42.8867720" lon="-8.5059070">
        <ele>287.9</ele>
        <time>2022-04-14T16:17:50Z</time>
      </trkpt>
      <trkpt lat="42.8867560" lon="-8.5060320">
        <ele>287.3</ele>
        <time>2022-04-14T16:17:51Z</time>
      </trkpt>
      <trkpt lat="42.8867380" lon="-8.5061580">
        <ele>286.6</ele>
        <time>2022-04-14T16:17:52Z</time>
      </trkpt>
      <trkpt lat="42.8867310" lon="-8.5062880">
        <ele>285.9</ele>
        <time>2022-04-14T16:17:53Z</time>
      </trkpt>
      <trkpt lat="42.8867110" lon="-8.5065010">
        <ele>285.0</ele>
        <time>2022-04-14T16:17:54Z</time>
      </trkpt>
      <trkpt lat="42.8867040" lon="-8.5065750">
        <ele>284.7</ele>
        <time>2022-04-14T16:17:55Z</time>
      </trkpt>
      <trkpt lat="42.8866910" lon="-8.5067220">
        <ele>284.1</ele>
        <time>2022-04-14T16:17:56Z</time>
      </trkpt>
      <trkpt lat="42.8866790" lon="-8.5068700">
        <ele>283.5</ele>
        <time>2022-04-14T16:17:57Z</time>
      </trkpt>
      <trkpt lat="42.8866680" lon="-8.5070300">
        <ele>282.3</ele>
        <time>2022-04-14T16:17:58Z</time>
      </trkpt>
      <trkpt lat="42.8866550" lon="-8.5072720">
        <ele>280.5</ele>
        <time>2022-04-14T16:17:59Z</time>
      </trkpt>
      <trkpt lat="42.8866500" lon="-8.5073540">
        <ele>279.9</ele>
        <time>2022-04-14T16:18:00Z</time>
      </trkpt>
      <trkpt lat="42.8866420" lon="-8.5075180">
        <ele>278.8</ele>
        <time>2022-04-14T16:18:01Z</time>
      </trkpt>
      <trkpt lat="42.8866340" lon="-8.5076900">
        <ele>277.7</ele>
        <time>2022-04-14T16:18:02Z</time>
      </trkpt>
      <trkpt lat="42.8866220" lon="-8.5079410">
        <ele>276.8</ele>
        <time>2022-04-14T16:18:03Z</time>
      </trkpt>
      <trkpt lat="42.8866240" lon="-8.5080220">
        <ele>276.6</ele>
        <time>2022-04-14T16:18:04Z</time>
      </trkpt>
      <trkpt lat="42.8866290" lon="-8.5081830">
        <ele>276.3</ele>
        <time>2022-04-14T16:18:05Z</time>
      </trkpt>
      <trkpt lat="42.8866340" lon="-8.5083270">
        <ele>276.0</ele>
        <time>2022-04-14T16:18:06Z</time>
      </trkpt>
      <trkpt lat="42.8866290" lon="-8.5084640">
        <ele>275.9</ele>
        <time>2022-04-14T16:18:07Z</time>
      </trkpt>
      <trkpt lat="42.8866290" lon="-8.5084640">
        <ele>275.9</ele>
        <time>2022-04-14T16:18:08Z</time>
      </trkpt>
      <trkpt lat="42.8866390" lon="-8.5086490">
        <ele>275.8</ele>
        <time>2022-04-14T16:18:09Z</time>
      </trkpt>
      <trkpt lat="42.8866580" lon="-8.5086750">
        <ele>274.9</ele>
        <time>2022-04-14T16:18:10Z</time>
      </trkpt>
      <trkpt lat="42.8866760" lon="-8.5087010">
        <ele>274.7</ele>
        <time>2022-04-14T16:18:11Z</time>
      </trkpt>
      <trkpt lat="42.8867740" lon="-8.5087440">
        <ele>274.0</ele>
        <time>2022-04-14T16:18:12Z</time>
      </trkpt>
      <trkpt lat="42.8868350" lon="-8.5087360">
        <ele>273.6</ele>
        <time>2022-04-14T16:18:13Z</time>
      </trkpt>
      <trkpt lat="42.8868960" lon="-8.5087280">
        <ele>273.2</ele>
        <time>2022-04-14T16:18:14Z</time>
      </trkpt>
      <trkpt lat="42.8870190" lon="-8.5087190">
        <ele>272.7</ele>
        <time>2022-04-14T16:18:15Z</time>
      </trkpt>
      <trkpt lat="42.8870620" lon="-8.5087130">
        <ele>272.7</ele>
        <time>2022-04-14T16:18:16Z</time>
      </trkpt>
      <trkpt lat="42.8871480" lon="-8.5087000">
        <ele>272.6</ele>
        <time>2022-04-14T16:18:17Z</time>
      </trkpt>
      <trkpt lat="42.8871910" lon="-8.5086890">
        <ele>272.5</ele>
        <time>2022-04-14T16:18:18Z</time>
      </trkpt>
      <trkpt lat="42.8872340" lon="-8.5086790">
        <ele>272.5</ele>
        <time>2022-04-14T16:18:19Z</time>
      </trkpt>
      <trkpt lat="42.8874000" lon="-8.5086340">
        <ele>272.6</ele>
        <time>2022-04-14T16:18:20Z</time>
      </trkpt>
      <trkpt lat="42.8874810" lon="-8.5086110">
        <ele>272.8</ele>
        <time>2022-04-14T16:18:21Z</time>
      </trkpt>
      <trkpt lat="42.8875620" lon="-8.5085880">
        <ele>273.0</ele>
        <time>2022-04-14T16:18:22Z</time>
      </trkpt>
      <trkpt lat="42.8876380" lon="-8.5085600">
        <ele>273.3</ele>
        <time>2022-04-14T16:18:23Z</time>
      </trkpt>
      <trkpt lat="42.8877000" lon="-8.5085290">
        <ele>273.5</ele>
        <time>2022-04-14T16:18:24Z</time>
      </trkpt>
      <trkpt lat="42.8877630" lon="-8.5084980">
        <ele>273.7</ele>
        <time>2022-04-14T16:18:25Z</time>
      </trkpt>
      <trkpt lat="42.8878260" lon="-8.5084670">
        <ele>273.9</ele>
        <time>2022-04-14T16:18:26Z</time>
      </trkpt>
      <trkpt lat="42.8878890" lon="-8.5084370">
        <ele>274.1</ele>
        <time>2022-04-14T16:18:27Z</time>
      </trkpt>
      <trkpt lat="42.8879520" lon="-8.5084060">
        <ele>274.3</ele>
        <time>2022-04-14T16:18:28Z</time>
      </trkpt>
      <trkpt lat="42.8880000" lon="-8.5083870">
        <ele>274.4</ele>
        <time>2022-04-14T16:18:29Z</time>
      </trkpt>
      <trkpt lat="42.8880370" lon="-8.5084170">
        <ele>274.5</ele>
        <time>2022-04-14T16:18:30Z</time>
      </trkpt>
      <trkpt lat="42.8880750" lon="-8.5084470">
        <ele>274.5</ele>
        <time>2022-04-14T16:18:31Z</time>
      </trkpt>
      <trkpt lat="42.8881130" lon="-8.5084780">
        <ele>274.6</ele>
        <time>2022-04-14T16:18:32Z</time>
      </trkpt>
      <trkpt lat="42.8881510" lon="-8.5085080">
        <ele>274.7</ele>
        <time>2022-04-14T16:18:33Z</time>
      </trkpt>
      <trkpt lat="42.8881830" lon="-8.5085560">
        <ele>274.7</ele>
        <time>2022-04-14T16:18:34Z</time>
      </trkpt>
      <trkpt lat="42.8881880" lon="-8.5085790">
        <ele>274.8</ele>
        <time>2022-04-14T16:18:35Z</time>
      </trkpt>
      <trkpt lat="42.8881930" lon="-8.5086030">
        <ele>274.8</ele>
        <time>2022-04-14T16:18:36Z</time>
      </trkpt>
      <trkpt lat="42.8881990" lon="-8.5086260">
        <ele>274.8</ele>
        <time>2022-04-14T16:18:37Z</time>
      </trkpt>
      <trkpt lat="42.8882300" lon="-8.5087070">
        <ele>274.9</ele>
        <time>2022-04-14T16:18:38Z</time>
      </trkpt>
      <trkpt lat="42.8882460" lon="-8.5087190">
        <ele>274.9</ele>
        <time>2022-04-14T16:18:39Z</time>
      </trkpt>
      <trkpt lat="42.8882620" lon="-8.5087310">
        <ele>275.1</ele>
        <time>2022-04-14T16:18:40Z</time>
      </trkpt>
      <trkpt lat="42.8882780" lon="-8.5087430">
        <ele>275.2</ele>
        <time>2022-04-14T16:18:41Z</time>
      </trkpt>
      <trkpt lat="42.8882930" lon="-8.5087550">
        <ele>275.2</ele>
        <time>2022-04-14T16:18:42Z</time>
      </trkpt>
      <trkpt lat="42.8883370" lon="-8.5087220">
        <ele>275.2</ele>
        <time>2022-04-14T16:18:43Z</time>
      </trkpt>
      <trkpt lat="42.8883800" lon="-8.5086890">
        <ele>275.3</ele>
        <time>2022-04-14T16:18:44Z</time>
      </trkpt>
      <trkpt lat="42.8884230" lon="-8.5086650">
        <ele>275.3</ele>
        <time>2022-04-14T16:18:45Z</time>
      </trkpt>
      <trkpt lat="42.8884650" lon="-8.5086410">
        <ele>275.4</ele>
        <time>2022-04-14T16:18:46Z</time>
      </trkpt>
      <trkpt lat="42.8885100" lon="-8.5086250">
        <ele>275.4</ele>
        <time>2022-04-14T16:18:47Z</time>
      </trkpt>
      <trkpt lat="42.8885560" lon="-8.5086080">
        <ele>275.5</ele>
        <time>2022-04-14T16:18:48Z</time>
      </trkpt>
      <trkpt lat="42.8886030" lon="-8.5085860">
        <ele>275.5</ele>
        <time>2022-04-14T16:18:49Z</time>
      </trkpt>
      <trkpt lat="42.8886510" lon="-8.5085630">
        <ele>275.6</ele>
        <time>2022-04-14T16:18:50Z</time>
      </trkpt>
      <trkpt lat="42.8886840" lon="-8.5084940">
        <ele>275.6</ele>
        <time>2022-04-14T16:18:51Z</time>
      </trkpt>
      <trkpt lat="42.8887160" lon="-8.5084250">
        <ele>275.6</ele>
        <time>2022-04-14T16:18:52Z</time>
      </trkpt>
      <trkpt lat="42.8887480" lon="-8.5083560">
        <ele>275.5</ele>
        <time>2022-04-14T16:18:53Z</time>
      </trkpt>
      <trkpt lat="42.8887740" lon="-8.5082750">
        <ele>275.4</ele>
        <time>2022-04-14T16:18:54Z</time>
      </trkpt>
      <trkpt lat="42.8887860" lon="-8.5082270">
        <ele>275.4</ele>
        <time>2022-04-14T16:18:55Z</time>
      </trkpt>
      <trkpt lat="42.8887980" lon="-8.5081800">
        <ele>275.3</ele>
        <time>2022-04-14T16:18:56Z</time>
      </trkpt>
      <trkpt lat="42.8888380" lon="-8.5080310">
        <ele>275.1</ele>
        <time>2022-04-14T16:18:57Z</time>
      </trkpt>
      <trkpt lat="42.8888520" lon="-8.5079780">
        <ele>275.0</ele>
        <time>2022-04-14T16:18:58Z</time>
      </trkpt>
      <trkpt lat="42.8889210" lon="-8.5077670">
        <ele>274.7</ele>
        <time>2022-04-14T16:18:59Z</time>
      </trkpt>
      <trkpt lat="42.8889600" lon="-8.5076630">
        <ele>274.5</ele>
        <time>2022-04-14T16:19:00Z</time>
      </trkpt>
      <trkpt lat="42.8889990" lon="-8.5075600">
        <ele>274.4</ele>
        <time>2022-04-14T16:19:01Z</time>
      </trkpt>
      <trkpt lat="42.8890500" lon="-8.5074550">
        <ele>274.2</ele>
        <time>2022-04-14T16:19:02Z</time>
      </trkpt>
      <trkpt lat="42.8890940" lon="-8.5074080">
        <ele>274.2</ele>
        <time>2022-04-14T16:19:03Z</time>
      </trkpt>
      <trkpt lat="42.8891390" lon="-8.5073610">
        <ele>274.2</ele>
        <time>2022-04-14T16:19:04Z</time>
      </trkpt>
      <trkpt lat="42.8891840" lon="-8.5073150">
        <ele>274.2</ele>
        <time>2022-04-14T16:19:05Z</time>
      </trkpt>
      <trkpt lat="42.8892400" lon="-8.5072910">
        <ele>274.2</ele>
        <time>2022-04-14T16:19:06Z</time>
      </trkpt>
      <trkpt lat="42.8892970" lon="-8.5072660">
        <ele>274.1</ele>
        <time>2022-04-14T16:19:07Z</time>
      </trkpt>
      <trkpt lat="42.8893540" lon="-8.5072420">
        <ele>274.1</ele>
        <time>2022-04-14T16:19:08Z</time>
      </trkpt>
      <trkpt lat="42.8894110" lon="-8.5072180">
        <ele>274.1</ele>
        <time>2022-04-14T16:19:09Z</time>
      </trkpt>
      <trkpt lat="42.8896840" lon="-8.5071280">
        <ele>274.1</ele>
        <time>2022-04-14T16:19:10Z</time>
      </trkpt>
      <trkpt lat="42.8897310" lon="-8.5071360">
        <ele>274.1</ele>
        <time>2022-04-14T16:19:11Z</time>
      </trkpt>
      <trkpt lat="42.8897310" lon="-8.5071360">
        <ele>274.1</ele>
        <time>2022-04-14T16:19:12Z</time>
      </trkpt>
      <trkpt lat="42.8898850" lon="-8.5072060">
        <ele>274.3</ele>
        <time>2022-04-14T16:19:13Z</time>
      </trkpt>
      <trkpt lat="42.8899620" lon="-8.5072730">
        <ele>274.4</ele>
        <time>2022-04-14T16:19:14Z</time>
      </trkpt>
      <trkpt lat="42.8900220" lon="-8.5073510">
        <ele>274.6</ele>
        <time>2022-04-14T16:19:15Z</time>
      </trkpt>
      <trkpt lat="42.8900830" lon="-8.5074290">
        <ele>274.7</ele>
        <time>2022-04-14T16:19:16Z</time>
      </trkpt>
      <trkpt lat="42.8901440" lon="-8.5075080">
        <ele>274.8</ele>
        <time>2022-04-14T16:19:17Z</time>
      </trkpt>
      <trkpt lat="42.8901940" lon="-8.5075940">
        <ele>274.9</ele>
        <time>2022-04-14T16:19:18Z</time>
      </trkpt>
      <trkpt lat="42.8902190" lon="-8.5076360">
        <ele>275.0</ele>
        <time>2022-04-14T16:19:19Z</time>
      </trkpt>
      <trkpt lat="42.8902450" lon="-8.5076790">
        <ele>275.0</ele>
        <time>2022-04-14T16:19:20Z</time>
      </trkpt>
      <trkpt lat="42.8903230" lon="-8.5078040">
        <ele>275.3</ele>
        <time>2022-04-14T16:19:21Z</time>
      </trkpt>
      <trkpt lat="42.8903500" lon="-8.5078440">
        <ele>275.3</ele>
        <time>2022-04-14T16:19:22Z</time>
      </trkpt>
      <trkpt lat="42.8904730" lon="-8.5079600">
        <ele>275.7</ele>
        <time>2022-04-14T16:19:23Z</time>
      </trkpt>
      <trkpt lat="42.8905430" lon="-8.5079940">
        <ele>275.9</ele>
        <time>2022-04-14T16:19:24Z</time>
      </trkpt>
      <trkpt lat="42.8906130" lon="-8.5080290">
        <ele>276.0</ele>
        <time>2022-04-14T16:19:25Z</time>
      </trkpt>
      <trkpt lat="42.8906900" lon="-8.5080300">
        <ele>276.1</ele>
        <time>2022-04-14T16:19:26Z</time>
      </trkpt>
      <trkpt lat="42.8907490" lon="-8.5079950">
        <ele>276.2</ele>
        <time>2022-04-14T16:19:27Z</time>
      </trkpt>
      <trkpt lat="42.8908080" lon="-8.5079600">
        <ele>276.3</ele>
        <time>2022-04-14T16:19:28Z</time>
      </trkpt>
      <trkpt lat="42.8909260" lon="-8.5078900">
        <ele>276.5</ele>
        <time>2022-04-14T16:19:29Z</time>
      </trkpt>
      <trkpt lat="42.8909260" lon="-8.5078900">
        <ele>276.5</ele>
        <time>2022-04-14T16:19:30Z</time>
      </trkpt>
      <trkpt lat="42.8910850" lon="-8.5077830">
        <ele>276.7</ele>
        <time>2022-04-14T16:19:31Z</time>
      </trkpt>
      <trkpt lat="42.8911240" lon="-8.5077560">
        <ele>276.7</ele>
        <time>2022-04-14T16:19:32Z</time>
      </trkpt>
      <trkpt lat="42.8911640" lon="-8.5077300">
        <ele>276.7</ele>
        <time>2022-04-14T16:19:33Z</time>
      </trkpt>
      <trkpt lat="42.8913160" lon="-8.5076200">
        <ele>276.8</ele>
        <time>2022-04-14T16:19:34Z</time>
      </trkpt>
      <trkpt lat="42.8913890" lon="-8.5075640">
        <ele>276.8</ele>
        <time>2022-04-14T16:19:35Z</time>
      </trkpt>
      <trkpt lat="42.8914630" lon="-8.5075070">
        <ele>276.8</ele>
        <time>2022-04-14T16:19:36Z</time>
      </trkpt>
      <trkpt lat="42.8915360" lon="-8.5074520">
        <ele>276.8</ele>
        <time>2022-04-14T16:19:37Z</time>
      </trkpt>
      <trkpt lat="42.8915730" lon="-8.5074230">
        <ele>276.8</ele>
        <time>2022-04-14T16:19:38Z</time>
      </trkpt>
      <trkpt lat="42.8916100" lon="-8.5073950">
        <ele>276.8</ele>
        <time>2022-04-14T16:19:39Z</time>
      </trkpt>
      <trkpt lat="42.8917590" lon="-8.5072770">
        <ele>276.7</ele>
        <time>2022-04-14T16:19:40Z</time>
      </trkpt>
      <trkpt lat="42.8918340" lon="-8.5072150">
        <ele>276.5</ele>
        <time>2022-04-14T16:19:41Z</time>
      </trkpt>
      <trkpt lat="42.8919100" lon="-8.5071540">
        <ele>276.4</ele>
        <time>2022-04-14T16:19:42Z</time>
      </trkpt>
      <trkpt lat="42.8919820" lon="-8.5070850">
        <ele>276.3</ele>
        <time>2022-04-14T16:19:43Z</time>
      </trkpt>
      <trkpt lat="42.8920140" lon="-8.5070520">
        <ele>276.3</ele>
        <time>2022-04-14T16:19:44Z</time>
      </trkpt>
      <trkpt lat="42.8920470" lon="-8.5070190">
        <ele>276.2</ele>
        <time>2022-04-14T16:19:45Z</time>
      </trkpt>
      <trkpt lat="42.8921680" lon="-8.5069380">
        <ele>276.2</ele>
        <time>2022-04-14T16:19:46Z</time>
      </trkpt>
      <trkpt lat="42.8922250" lon="-8.5069230">
        <ele>276.2</ele>
        <time>2022-04-14T16:19:47Z</time>
      </trkpt>
      <trkpt lat="42.8922810" lon="-8.5069080">
        <ele>276.2</ele>
        <time>2022-04-14T16:19:48Z</time>
      </trkpt>
      <trkpt lat="42.8923260" lon="-8.5069240">
        <ele>276.3</ele>
        <time>2022-04-14T16:19:49Z</time>
      </trkpt>
      <trkpt lat="42.8923390" lon="-8.5069680">
        <ele>276.3</ele>
        <time>2022-04-14T16:19:50Z</time>
      </trkpt>
      <trkpt lat="42.8923520" lon="-8.5070120">
        <ele>276.3</ele>
        <time>2022-04-14T16:19:51Z</time>
      </trkpt>
      <trkpt lat="42.8923650" lon="-8.5070570">
        <ele>276.4</ele>
        <time>2022-04-14T16:19:52Z</time>
      </trkpt>
      <trkpt lat="42.8923790" lon="-8.5071010">
        <ele>276.4</ele>
        <time>2022-04-14T16:19:53Z</time>
      </trkpt>
      <trkpt lat="42.8924320" lon="-8.5072780">
        <ele>276.7</ele>
        <time>2022-04-14T16:19:54Z</time>
      </trkpt>
      <trkpt lat="42.8924110" lon="-8.5074930">
        <ele>277.0</ele>
        <time>2022-04-14T16:19:55Z</time>
      </trkpt>
      <trkpt lat="42.8924120" lon="-8.5075470">
        <ele>277.2</ele>
        <time>2022-04-14T16:19:56Z</time>
      </trkpt>
      <trkpt lat="42.8924150" lon="-8.5076570">
        <ele>277.7</ele>
        <time>2022-04-14T16:19:57Z</time>
      </trkpt>
      <trkpt lat="42.8924230" lon="-8.5077010">
        <ele>277.9</ele>
        <time>2022-04-14T16:19:58Z</time>
      </trkpt>
      <trkpt lat="42.8924320" lon="-8.5077440">
        <ele>278.1</ele>
        <time>2022-04-14T16:19:59Z</time>
      </trkpt>
      <trkpt lat="42.8924520" lon="-8.5078720">
        <ele>278.8</ele>
        <time>2022-04-14T16:20:00Z</time>
      </trkpt>
      <trkpt lat="42.8924550" lon="-8.5079120">
        <ele>279.1</ele>
        <time>2022-04-14T16:20:01Z</time>
      </trkpt>
      <trkpt lat="42.8924750" lon="-8.5080650">
        <ele>280.1</ele>
        <time>2022-04-14T16:20:02Z</time>
      </trkpt>
      <trkpt lat="42.8924900" lon="-8.5081370">
        <ele>280.6</ele>
        <time>2022-04-14T16:20:03Z</time>
      </trkpt>
      <trkpt lat="42.8925040" lon="-8.5082100">
        <ele>281.1</ele>
        <time>2022-04-14T16:20:04Z</time>
      </trkpt>
      <trkpt lat="42.8925060" lon="-8.5082790">
        <ele>281.6</ele>
        <time>2022-04-14T16:20:05Z</time>
      </trkpt>
      <trkpt lat="42.8925170" lon="-8.5083230">
        <ele>281.9</ele>
        <time>2022-04-14T16:20:06Z</time>
      </trkpt>
      <trkpt lat="42.8925280" lon="-8.5083670">
        <ele>282.3</ele>
        <time>2022-04-14T16:20:07Z</time>
      </trkpt>
      <trkpt lat="42.8925390" lon="-8.5084110">
        <ele>282.4</ele>
        <time>2022-04-14T16:20:08Z</time>
      </trkpt>
      <trkpt lat="42.8925570" lon="-8.5084390">
        <ele>282.5</ele>
        <time>2022-04-14T16:20:09Z</time>
      </trkpt>
      <trkpt lat="42.8925750" lon="-8.5084670">
        <ele>282.6</ele>
        <time>2022-04-14T16:20:10Z</time>
      </trkpt>
      <trkpt lat="42.8926720" lon="-8.5085280">
        <ele>283.9</ele>
        <time>2022-04-14T16:20:11Z</time>
      </trkpt>
      <trkpt lat="42.8927340" lon="-8.5085330">
        <ele>284.4</ele>
        <time>2022-04-14T16:20:12Z</time>
      </trkpt>
      <trkpt lat="42.8927960" lon="-8.5085390">
        <ele>285.0</ele>
        <time>2022-04-14T16:20:13Z</time>
      </trkpt>
      <trkpt lat="42.8928510" lon="-8.5085450">
        <ele>285.6</ele>
        <time>2022-04-14T16:20:14Z</time>
      </trkpt>
      <trkpt lat="42.8929050" lon="-8.5085430">
        <ele>286.1</ele>
        <time>2022-04-14T16:20:15Z</time>
      </trkpt>
      <trkpt lat="42.8929580" lon="-8.5085400">
        <ele>286.7</ele>
        <time>2022-04-14T16:20:16Z</time>
      </trkpt>
      <trkpt lat="42.8929850" lon="-8.5085430">
        <ele>286.9</ele>
        <time>2022-04-14T16:20:17Z</time>
      </trkpt>
      <trkpt lat="42.8930110" lon="-8.5085460">
        <ele>287.2</ele>
        <time>2022-04-14T16:20:18Z</time>
      </trkpt>
      <trkpt lat="42.8931110" lon="-8.5085620">
        <ele>287.6</ele>
        <time>2022-04-14T16:20:19Z</time>
      </trkpt>
      <trkpt lat="42.8931590" lon="-8.5085720">
        <ele>287.8</ele>
        <time>2022-04-14T16:20:20Z</time>
      </trkpt>
      <trkpt lat="42.8931930" lon="-8.5085710">
        <ele>287.9</ele>
        <time>2022-04-14T16:20:21Z</time>
      </trkpt>
      <trkpt lat="42.8932270" lon="-8.5085710">
        <ele>288.1</ele>
        <time>2022-04-14T16:20:22Z</time>
      </trkpt>
      <trkpt lat="42.8932600" lon="-8.5085700">
        <ele>288.2</ele>
        <time>2022-04-14T16:20:23Z</time>
      </trkpt>
      <trkpt lat="42.8933620" lon="-8.5085830">
        <ele>288.5</ele>
        <time>2022-04-14T16:20:24Z</time>
      </trkpt>
      <trkpt lat="42.8934170" lon="-8.5085880">
        <ele>288.6</ele>
        <time>2022-04-14T16:20:25Z</time>
      </trkpt>
      <trkpt lat="42.8934710" lon="-8.5085930">
        <ele>288.7</ele>
        <time>2022-04-14T16:20:26Z</time>
      </trkpt>
      <trkpt lat="42.8935250" lon="-8.5085980">
        <ele>288.8</ele>
        <time>2022-04-14T16:20:27Z</time>
      </trkpt>
      <trkpt lat="42.8935810" lon="-8.5086060">
        <ele>288.9</ele>
        <time>2022-04-14T16:20:28Z</time>
      </trkpt>
      <trkpt lat="42.8936400" lon="-8.5086170">
        <ele>288.9</ele>
        <time>2022-04-14T16:20:29Z</time>
      </trkpt>
      <trkpt lat="42.8936990" lon="-8.5086280">
        <ele>289.0</ele>
        <time>2022-04-14T16:20:30Z</time>
      </trkpt>
      <trkpt lat="42.8937570" lon="-8.5086390">
        <ele>289.1</ele>
        <time>2022-04-14T16:20:31Z</time>
      </trkpt>
      <trkpt lat="42.8938160" lon="-8.5086550">
        <ele>289.1</ele>
        <time>2022-04-14T16:20:32Z</time>
      </trkpt>
      <trkpt lat="42.8938470" lon="-8.5086690">
        <ele>289.2</ele>
        <time>2022-04-14T16:20:33Z</time>
      </trkpt>
      <trkpt lat="42.8938770" lon="-8.5086830">
        <ele>289.2</ele>
        <time>2022-04-14T16:20:34Z</time>
      </trkpt>
      <trkpt lat="42.8939620" lon="-8.5087230">
        <ele>289.4</ele>
        <time>2022-04-14T16:20:35Z</time>
      </trkpt>
      <trkpt lat="42.8939870" lon="-8.5087360">
        <ele>289.5</ele>
        <time>2022-04-14T16:20:36Z</time>
      </trkpt>
      <trkpt lat="42.8940840" lon="-8.5087920">
        <ele>289.8</ele>
        <time>2022-04-14T16:20:37Z</time>
      </trkpt>
      <trkpt lat="42.8941310" lon="-8.5088220">
        <ele>289.9</ele>
        <time>2022-04-14T16:20:38Z</time>
      </trkpt>
      <trkpt lat="42.8941590" lon="-8.5088410">
        <ele>290.0</ele>
        <time>2022-04-14T16:20:39Z</time>
      </trkpt>
      <trkpt lat="42.8941870" lon="-8.5088610">
        <ele>290.1</ele>
        <time>2022-04-14T16:20:40Z</time>
      </trkpt>
      <trkpt lat="42.8942140" lon="-8.5088800">
        <ele>290.2</ele>
        <time>2022-04-14T16:20:41Z</time>
      </trkpt>
      <trkpt lat="42.8943560" lon="-8.5089280">
        <ele>290.4</ele>
        <time>2022-04-14T16:20:42Z</time>
      </trkpt>
      <trkpt lat="42.8943840" lon="-8.5089390">
        <ele>290.5</ele>
        <time>2022-04-14T16:20:43Z</time>
      </trkpt>
      <trkpt lat="42.8944120" lon="-8.5089510">
        <ele>290.5</ele>
        <time>2022-04-14T16:20:44Z</time>
      </trkpt>
      <trkpt lat="42.8944940" lon="-8.5089850">
        <ele>290.6</ele>
        <time>2022-04-14T16:20:45Z</time>
      </trkpt>
      <trkpt lat="42.8945200" lon="-8.5089980">
        <ele>290.6</ele>
        <time>2022-04-14T16:20:46Z</time>
      </trkpt>
      <trkpt lat="42.8946020" lon="-8.5090080">
        <ele>290.6</ele>
        <time>2022-04-14T16:20:47Z</time>
      </trkpt>
      <trkpt lat="42.8946310" lon="-8.5089950">
        <ele>290.2</ele>
        <time>2022-04-14T16:20:48Z</time>
      </trkpt>
      <trkpt lat="42.8946590" lon="-8.5089810">
        <ele>290.0</ele>
        <time>2022-04-14T16:20:49Z</time>
      </trkpt>
      <trkpt lat="42.8946910" lon="-8.5088510">
        <ele>289.3</ele>
        <time>2022-04-14T16:20:50Z</time>
      </trkpt>
      <trkpt lat="42.8946950" lon="-8.5088040">
        <ele>289.0</ele>
        <time>2022-04-14T16:20:51Z</time>
      </trkpt>
      <trkpt lat="42.8946990" lon="-8.5087570">
        <ele>288.8</ele>
        <time>2022-04-14T16:20:52Z</time>
      </trkpt>
      <trkpt lat="42.8947210" lon="-8.5085790">
        <ele>287.8</ele>
        <time>2022-04-14T16:20:53Z</time>
      </trkpt>
      <trkpt lat="42.8947340" lon="-8.5084950">
        <ele>287.3</ele>
        <time>2022-04-14T16:20:54Z</time>
      </trkpt>
      <trkpt lat="42.8947810" lon="-8.5082670">
        <ele>285.9</ele>
        <time>2022-04-14T16:20:55Z</time>
      </trkpt>
      <trkpt lat="42.8948020" lon="-8.5082060">
        <ele>285.5</ele>
        <time>2022-04-14T16:20:56Z</time>
      </trkpt>
      <trkpt lat="42.8948440" lon="-8.5080850">
        <ele>284.7</ele>
        <time>2022-04-14T16:20:57Z</time>
      </trkpt>
      <trkpt lat="42.8948910" lon="-8.5079630">
        <ele>284.0</ele>
        <time>2022-04-14T16:20:58Z</time>
      </trkpt>
      <trkpt lat="42.8949500" lon="-8.5078510">
        <ele>283.3</ele>
        <time>2022-04-14T16:20:59Z</time>
      </trkpt>
      <trkpt lat="42.8950500" lon="-8.5076840">
        <ele>282.9</ele>
        <time>2022-04-14T16:21:00Z</time>
      </trkpt>
      <trkpt lat="42.8950870" lon="-8.5076310">
        <ele>282.8</ele>
        <time>2022-04-14T16:21:01Z</time>
      </trkpt>
      <trkpt lat="42.8951610" lon="-8.5075270">
        <ele>282.5</ele>
        <time>2022-04-14T16:21:02Z</time>
      </trkpt>
      <trkpt lat="42.8952420" lon="-8.5074350">
        <ele>282.3</ele>
        <time>2022-04-14T16:21:03Z</time>
      </trkpt>
      <trkpt lat="42.8953240" lon="-8.5073440">
        <ele>282.2</ele>
        <time>2022-04-14T16:21:04Z</time>
      </trkpt>
      <trkpt lat="42.8954060" lon="-8.5072530">
        <ele>282.2</ele>
        <time>2022-04-14T16:21:05Z</time>
      </trkpt>
      <trkpt lat="42.8954870" lon="-8.5071610">
        <ele>282.2</ele>
        <time>2022-04-14T16:21:06Z</time>
      </trkpt>
      <trkpt lat="42.8955690" lon="-8.5070700">
        <ele>282.4</ele>
        <time>2022-04-14T16:21:07Z</time>
      </trkpt>
      <trkpt lat="42.8956510" lon="-8.5069850">
        <ele>282.6</ele>
        <time>2022-04-14T16:21:08Z</time>
      </trkpt>
      <trkpt lat="42.8957240" lon="-8.5069030">
        <ele>282.7</ele>
        <time>2022-04-14T16:21:09Z</time>
      </trkpt>
      <trkpt lat="42.8957930" lon="-8.5068220">
        <ele>282.9</ele>
        <time>2022-04-14T16:21:10Z</time>
      </trkpt>
      <trkpt lat="42.8957930" lon="-8.5068220">
        <ele>282.9</ele>
        <time>2022-04-14T16:21:11Z</time>
      </trkpt>
      <trkpt lat="42.8959310" lon="-8.5066800">
        <ele>283.2</ele>
        <time>2022-04-14T16:21:12Z</time>
      </trkpt>
      <trkpt lat="42.8959650" lon="-8.5066500">
        <ele>283.3</ele>
        <time>2022-04-14T16:21:13Z</time>
      </trkpt>
      <trkpt lat="42.8959980" lon="-8.5066190">
        <ele>283.4</ele>
        <time>2022-04-14T16:21:14Z</time>
      </trkpt>
      <trkpt lat="42.8961300" lon="-8.5064980">
        <ele>283.7</ele>
        <time>2022-04-14T16:21:15Z</time>
      </trkpt>
      <trkpt lat="42.8961930" lon="-8.5064370">
        <ele>283.8</ele>
        <time>2022-04-14T16:21:16Z</time>
      </trkpt>
      <trkpt lat="42.8962570" lon="-8.5063750">
        <ele>283.9</ele>
        <time>2022-04-14T16:21:17Z</time>
      </trkpt>
      <trkpt lat="42.8963220" lon="-8.5063190">
        <ele>284.0</ele>
        <time>2022-04-14T16:21:18Z</time>
      </trkpt>
      <trkpt lat="42.8963560" lon="-8.5062910">
        <ele>284.1</ele>
        <time>2022-04-14T16:21:19Z</time>
      </trkpt>
      <trkpt lat="42.8963900" lon="-8.5062630">
        <ele>284.2</ele>
        <time>2022-04-14T16:21:20Z</time>
      </trkpt>
      <trkpt lat="42.8965260" lon="-8.5061540">
        <ele>284.4</ele>
        <time>2022-04-14T16:21:21Z</time>
      </trkpt>
      <trkpt lat="42.8965930" lon="-8.5060990">
        <ele>284.5</ele>
        <time>2022-04-14T16:21:22Z</time>
      </trkpt>
      <trkpt lat="42.8966610" lon="-8.5060450">
        <ele>284.6</ele>
        <time>2022-04-14T16:21:23Z</time>
      </trkpt>
      <trkpt lat="42.8967280" lon="-8.5059880">
        <ele>284.7</ele>
        <time>2022-04-14T16:21:24Z</time>
      </trkpt>
      <trkpt lat="42.8967610" lon="-8.5059600">
        <ele>284.8</ele>
        <time>2022-04-14T16:21:25Z</time>
      </trkpt>
      <trkpt lat="42.8967950" lon="-8.5059320">
        <ele>284.8</ele>
        <time>2022-04-14T16:21:26Z</time>
      </trkpt>
      <trkpt lat="42.8968960" lon="-8.5058520">
        <ele>285.0</ele>
        <time>2022-04-14T16:21:27Z</time>
      </trkpt>
      <trkpt lat="42.8969300" lon="-8.5058280">
        <ele>285.0</ele>
        <time>2022-04-14T16:21:28Z</time>
      </trkpt>
      <trkpt lat="42.8970630" lon="-8.5057320">
        <ele>285.2</ele>
        <time>2022-04-14T16:21:29Z</time>
      </trkpt>
      <trkpt lat="42.8971290" lon="-8.5056860">
        <ele>285.3</ele>
        <time>2022-04-14T16:21:30Z</time>
      </trkpt>
      <trkpt lat="42.8971940" lon="-8.5056390">
        <ele>285.4</ele>
        <time>2022-04-14T16:21:31Z</time>
      </trkpt>
      <trkpt lat="42.8972590" lon="-8.5055940">
        <ele>285.5</ele>
        <time>2022-04-14T16:21:32Z</time>
      </trkpt>
      <trkpt lat="42.8972910" lon="-8.5055690">
        <ele>285.5</ele>
        <time>2022-04-14T16:21:33Z</time>
      </trkpt>
      <trkpt lat="42.8973220" lon="-8.5055450">
        <ele>285.6</ele>
        <time>2022-04-14T16:21:34Z</time>
      </trkpt>
      <trkpt lat="42.8974490" lon="-8.5054500">
        <ele>285.8</ele>
        <time>2022-04-14T16:21:35Z</time>
      </trkpt>
      <trkpt lat="42.8975120" lon="-8.5054040">
        <ele>285.9</ele>
        <time>2022-04-14T16:21:36Z</time>
      </trkpt>
      <trkpt lat="42.8975750" lon="-8.5053570">
        <ele>286.0</ele>
        <time>2022-04-14T16:21:37Z</time>
      </trkpt>
      <trkpt lat="42.8976370" lon="-8.5053120">
        <ele>286.2</ele>
        <time>2022-04-14T16:21:38Z</time>
      </trkpt>
      <trkpt lat="42.8976680" lon="-8.5052890">
        <ele>286.2</ele>
        <time>2022-04-14T16:21:39Z</time>
      </trkpt>
      <trkpt lat="42.8976990" lon="-8.5052670">
        <ele>286.3</ele>
        <time>2022-04-14T16:21:40Z</time>
      </trkpt>
      <trkpt lat="42.8978230" lon="-8.5051830">
        <ele>286.5</ele>
        <time>2022-04-14T16:21:41Z</time>
      </trkpt>
      <trkpt lat="42.8978840" lon="-8.5051450">
        <ele>286.6</ele>
        <time>2022-04-14T16:21:42Z</time>
      </trkpt>
      <trkpt lat="42.8979440" lon="-8.5051060">
        <ele>286.8</ele>
        <time>2022-04-14T16:21:43Z</time>
      </trkpt>
      <trkpt lat="42.8980380" lon="-8.5050460">
        <ele>286.9</ele>
        <time>2022-04-14T16:21:44Z</time>
      </trkpt>
      <trkpt lat="42.8980710" lon="-8.5050270">
        <ele>287.0</ele>
        <time>2022-04-14T16:21:45Z</time>
      </trkpt>
      <trkpt lat="42.8981360" lon="-8.5049880">
        <ele>287.1</ele>
        <time>2022-04-14T16:21:46Z</time>
      </trkpt>
      <trkpt lat="42.8981690" lon="-8.5049690">
        <ele>287.2</ele>
        <time>2022-04-14T16:21:47Z</time>
      </trkpt>
      <trkpt lat="42.8982020" lon="-8.5049510">
        <ele>287.2</ele>
        <time>2022-04-14T16:21:48Z</time>
      </trkpt>
      <trkpt lat="42.8983330" lon="-8.5048750">
        <ele>287.4</ele>
        <time>2022-04-14T16:21:49Z</time>
      </trkpt>
      <trkpt lat="42.8983980" lon="-8.5048360">
        <ele>287.5</ele>
        <time>2022-04-14T16:21:50Z</time>
      </trkpt>
      <trkpt lat="42.8984620" lon="-8.5047970">
        <ele>287.6</ele>
        <time>2022-04-14T16:21:51Z</time>
      </trkpt>
      <trkpt lat="42.8985280" lon="-8.5047630">
        <ele>287.7</ele>
        <time>2022-04-14T16:21:52Z</time>
      </trkpt>
      <trkpt lat="42.8985630" lon="-8.5047420">
        <ele>287.8</ele>
        <time>2022-04-14T16:21:53Z</time>
      </trkpt>
      <trkpt lat="42.8985980" lon="-8.5047210">
        <ele>287.8</ele>
        <time>2022-04-14T16:21:54Z</time>
      </trkpt>
      <trkpt lat="42.8986980" lon="-8.5046630">
        <ele>288.0</ele>
        <time>2022-04-14T16:21:55Z</time>
      </trkpt>
      <trkpt lat="42.8987290" lon="-8.5046460">
        <ele>288.1</ele>
        <time>2022-04-14T16:21:56Z</time>
      </trkpt>
      <trkpt lat="42.8988560" lon="-8.5045750">
        <ele>288.3</ele>
        <time>2022-04-14T16:21:57Z</time>
      </trkpt>
      <trkpt lat="42.8989220" lon="-8.5045360">
        <ele>288.4</ele>
        <time>2022-04-14T16:21:58Z</time>
      </trkpt>
      <trkpt lat="42.8989880" lon="-8.5044980">
        <ele>288.5</ele>
        <time>2022-04-14T16:21:59Z</time>
      </trkpt>
      <trkpt lat="42.8990540" lon="-8.5044560">
        <ele>288.6</ele>
        <time>2022-04-14T16:22:00Z</time>
      </trkpt>
      <trkpt lat="42.8990880" lon="-8.5044370">
        <ele>288.6</ele>
        <time>2022-04-14T16:22:01Z</time>
      </trkpt>
      <trkpt lat="42.8991220" lon="-8.5044180">
        <ele>288.7</ele>
        <time>2022-04-14T16:22:02Z</time>
      </trkpt>
      <trkpt lat="42.8992590" lon="-8.5043430">
        <ele>288.9</ele>
        <time>2022-04-14T16:22:03Z</time>
      </trkpt>
      <trkpt lat="42.8993280" lon="-8.5043050">
        <ele>289.0</ele>
        <time>2022-04-14T16:22:04Z</time>
      </trkpt>
      <trkpt lat="42.8993960" lon="-8.5042670">
        <ele>289.1</ele>
        <time>2022-04-14T16:22:05Z</time>
      </trkpt>
      <trkpt lat="42.8994660" lon="-8.5042290">
        <ele>289.3</ele>
        <time>2022-04-14T16:22:06Z</time>
      </trkpt>
      <trkpt lat="42.8995010" lon="-8.5042130">
        <ele>289.3</ele>
        <time>2022-04-14T16:22:07Z</time>
      </trkpt>
      <trkpt lat="42.8995350" lon="-8.5041970">
        <ele>289.4</ele>
        <time>2022-04-14T16:22:08Z</time>
      </trkpt>
      <trkpt lat="42.8996390" lon="-8.5041550">
        <ele>289.6</ele>
        <time>2022-04-14T16:22:09Z</time>
      </trkpt>
      <trkpt lat="42.8996740" lon="-8.5041450">
        <ele>289.7</ele>
        <time>2022-04-14T16:22:10Z</time>
      </trkpt>
      <trkpt lat="42.8998120" lon="-8.5040990">
        <ele>290.0</ele>
        <time>2022-04-14T16:22:11Z</time>
      </trkpt>
      <trkpt lat="42.8998810" lon="-8.5040740">
        <ele>290.1</ele>
        <time>2022-04-14T16:22:12Z</time>
      </trkpt>
      <trkpt lat="42.8999490" lon="-8.5040490">
        <ele>290.3</ele>
        <time>2022-04-14T16:22:13Z</time>
      </trkpt>
      <trkpt lat="42.9000170" lon="-8.5040240">
        <ele>290.4</ele>
        <time>2022-04-14T16:22:14Z</time>
      </trkpt>
      <trkpt lat="42.9001020" lon="-8.5040050">
        <ele>290.6</ele>
        <time>2022-04-14T16:22:15Z</time>
      </trkpt>
      <trkpt lat="42.9001360" lon="-8.5039960">
        <ele>290.7</ele>
        <time>2022-04-14T16:22:16Z</time>
      </trkpt>
      <trkpt lat="42.9002760" lon="-8.5039590">
        <ele>291.3</ele>
        <time>2022-04-14T16:22:17Z</time>
      </trkpt>
      <trkpt lat="42.9003500" lon="-8.5039400">
        <ele>291.6</ele>
        <time>2022-04-14T16:22:18Z</time>
      </trkpt>
      <trkpt lat="42.9004230" lon="-8.5039200">
        <ele>292.0</ele>
        <time>2022-04-14T16:22:19Z</time>
      </trkpt>
      <trkpt lat="42.9005200" lon="-8.5038880">
        <ele>292.6</ele>
        <time>2022-04-14T16:22:20Z</time>
      </trkpt>
      <trkpt lat="42.9005560" lon="-8.5038740">
        <ele>292.8</ele>
        <time>2022-04-14T16:22:21Z</time>
      </trkpt>
      <trkpt lat="42.9006270" lon="-8.5038470">
        <ele>293.3</ele>
        <time>2022-04-14T16:22:22Z</time>
      </trkpt>
      <trkpt lat="42.9006810" lon="-8.5038230">
        <ele>293.6</ele>
        <time>2022-04-14T16:22:23Z</time>
      </trkpt>
      <trkpt lat="42.9007350" lon="-8.5038000">
        <ele>294.0</ele>
        <time>2022-04-14T16:22:24Z</time>
      </trkpt>
      <trkpt lat="42.9007880" lon="-8.5037760">
        <ele>294.3</ele>
        <time>2022-04-14T16:22:25Z</time>
      </trkpt>
      <trkpt lat="42.9008400" lon="-8.5037570">
        <ele>294.6</ele>
        <time>2022-04-14T16:22:26Z</time>
      </trkpt>
      <trkpt lat="42.9008660" lon="-8.5037450">
        <ele>294.7</ele>
        <time>2022-04-14T16:22:27Z</time>
      </trkpt>
      <trkpt lat="42.9008910" lon="-8.5037340">
        <ele>294.7</ele>
        <time>2022-04-14T16:22:28Z</time>
      </trkpt>
      <trkpt lat="42.9009680" lon="-8.5036970">
        <ele>294.8</ele>
        <time>2022-04-14T16:22:29Z</time>
      </trkpt>
      <trkpt lat="42.9009940" lon="-8.5036840">
        <ele>294.9</ele>
        <time>2022-04-14T16:22:30Z</time>
      </trkpt>
      <trkpt lat="42.9010690" lon="-8.5036440">
        <ele>295.2</ele>
        <time>2022-04-14T16:22:31Z</time>
      </trkpt>
      <trkpt lat="42.9010940" lon="-8.5036300">
        <ele>295.4</ele>
        <time>2022-04-14T16:22:32Z</time>
      </trkpt>
      <trkpt lat="42.9011710" lon="-8.5035810">
        <ele>295.9</ele>
        <time>2022-04-14T16:22:33Z</time>
      </trkpt>
      <trkpt lat="42.9011990" lon="-8.5035610">
        <ele>296.1</ele>
        <time>2022-04-14T16:22:34Z</time>
      </trkpt>
      <trkpt lat="42.9012270" lon="-8.5035410">
        <ele>296.3</ele>
        <time>2022-04-14T16:22:35Z</time>
      </trkpt>
      <trkpt lat="42.9013180" lon="-8.5034740">
        <ele>297.0</ele>
        <time>2022-04-14T16:22:36Z</time>
      </trkpt>
      <trkpt lat="42.9013410" lon="-8.5034590">
        <ele>297.1</ele>
        <time>2022-04-14T16:22:37Z</time>
      </trkpt>
      <trkpt lat="42.9013650" lon="-8.5034440">
        <ele>297.3</ele>
        <time>2022-04-14T16:22:38Z</time>
      </trkpt>
      <trkpt lat="42.9014540" lon="-8.5033730">
        <ele>298.0</ele>
        <time>2022-04-14T16:22:39Z</time>
      </trkpt>
      <trkpt lat="42.9014960" lon="-8.5033320">
        <ele>298.3</ele>
        <time>2022-04-14T16:22:40Z</time>
      </trkpt>
      <trkpt lat="42.9015180" lon="-8.5033110">
        <ele>298.5</ele>
        <time>2022-04-14T16:22:41Z</time>
      </trkpt>
      <trkpt lat="42.9015400" lon="-8.5032900">
        <ele>298.6</ele>
        <time>2022-04-14T16:22:42Z</time>
      </trkpt>
      <trkpt lat="42.9016280" lon="-8.5032100">
        <ele>299.4</ele>
        <time>2022-04-14T16:22:43Z</time>
      </trkpt>
      <trkpt lat="42.9016730" lon="-8.5031730">
        <ele>299.7</ele>
        <time>2022-04-14T16:22:44Z</time>
      </trkpt>
      <trkpt lat="42.9017170" lon="-8.5031350">
        <ele>300.1</ele>
        <time>2022-04-14T16:22:45Z</time>
      </trkpt>
      <trkpt lat="42.9017620" lon="-8.5030980">
        <ele>300.4</ele>
        <time>2022-04-14T16:22:46Z</time>
      </trkpt>
      <trkpt lat="42.9017840" lon="-8.5030780">
        <ele>300.6</ele>
        <time>2022-04-14T16:22:47Z</time>
      </trkpt>
      <trkpt lat="42.9018060" lon="-8.5030590">
        <ele>300.8</ele>
        <time>2022-04-14T16:22:48Z</time>
      </trkpt>
      <trkpt lat="42.9018920" lon="-8.5029840">
        <ele>301.5</ele>
        <time>2022-04-14T16:22:49Z</time>
      </trkpt>
      <trkpt lat="42.9019340" lon="-8.5029490">
        <ele>301.8</ele>
        <time>2022-04-14T16:22:50Z</time>
      </trkpt>
      <trkpt lat="42.9019730" lon="-8.5029090">
        <ele>302.2</ele>
        <time>2022-04-14T16:22:51Z</time>
      </trkpt>
      <trkpt lat="42.9020110" lon="-8.5028690">
        <ele>302.5</ele>
        <time>2022-04-14T16:22:52Z</time>
      </trkpt>
      <trkpt lat="42.9020390" lon="-8.5028400">
        <ele>302.8</ele>
        <time>2022-04-14T16:22:53Z</time>
      </trkpt>
      <trkpt lat="42.9020670" lon="-8.5028120">
        <ele>303.0</ele>
        <time>2022-04-14T16:22:54Z</time>
      </trkpt>
      <trkpt lat="42.9020940" lon="-8.5027840">
        <ele>303.2</ele>
        <time>2022-04-14T16:22:55Z</time>
      </trkpt>
      <trkpt lat="42.9021720" lon="-8.5027030">
        <ele>303.9</ele>
        <time>2022-04-14T16:22:56Z</time>
      </trkpt>
      <trkpt lat="42.9022130" lon="-8.5026620">
        <ele>304.3</ele>
        <time>2022-04-14T16:22:57Z</time>
      </trkpt>
      <trkpt lat="42.9022540" lon="-8.5026210">
        <ele>304.6</ele>
        <time>2022-04-14T16:22:58Z</time>
      </trkpt>
      <trkpt lat="42.9022940" lon="-8.5025800">
        <ele>305.0</ele>
        <time>2022-04-14T16:22:59Z</time>
      </trkpt>
      <trkpt lat="42.9023350" lon="-8.5025400">
        <ele>305.3</ele>
        <time>2022-04-14T16:23:00Z</time>
      </trkpt>
      <trkpt lat="42.9023740" lon="-8.5025030">
        <ele>305.6</ele>
        <time>2022-04-14T16:23:01Z</time>
      </trkpt>
      <trkpt lat="42.9024130" lon="-8.5024670">
        <ele>305.8</ele>
        <time>2022-04-14T16:23:02Z</time>
      </trkpt>
      <trkpt lat="42.9024390" lon="-8.5024380">
        <ele>306.0</ele>
        <time>2022-04-14T16:23:03Z</time>
      </trkpt>
      <trkpt lat="42.9024650" lon="-8.5024090">
        <ele>306.2</ele>
        <time>2022-04-14T16:23:04Z</time>
      </trkpt>
      <trkpt lat="42.9024900" lon="-8.5023810">
        <ele>306.4</ele>
        <time>2022-04-14T16:23:05Z</time>
      </trkpt>
      <trkpt lat="42.9025590" lon="-8.5022930">
        <ele>306.8</ele>
        <time>2022-04-14T16:23:06Z</time>
      </trkpt>
      <trkpt lat="42.9025930" lon="-8.5022400">
        <ele>307.0</ele>
        <time>2022-04-14T16:23:07Z</time>
      </trkpt>
      <trkpt lat="42.9026270" lon="-8.5021880">
        <ele>307.1</ele>
        <time>2022-04-14T16:23:08Z</time>
      </trkpt>
      <trkpt lat="42.9026450" lon="-8.5021290">
        <ele>307.2</ele>
        <time>2022-04-14T16:23:09Z</time>
      </trkpt>
      <trkpt lat="42.9026630" lon="-8.5020710">
        <ele>307.2</ele>
        <time>2022-04-14T16:23:10Z</time>
      </trkpt>
      <trkpt lat="42.9026660" lon="-8.5020330">
        <ele>307.2</ele>
        <time>2022-04-14T16:23:11Z</time>
      </trkpt>
      <trkpt lat="42.9026680" lon="-8.5019950">
        <ele>307.3</ele>
        <time>2022-04-14T16:23:12Z</time>
      </trkpt>
      <trkpt lat="42.9027020" lon="-8.5018430">
        <ele>307.3</ele>
        <time>2022-04-14T16:23:13Z</time>
      </trkpt>
      <trkpt lat="42.9027310" lon="-8.5017660">
        <ele>307.3</ele>
        <time>2022-04-14T16:23:14Z</time>
      </trkpt>
      <trkpt lat="42.9027590" lon="-8.5016890">
        <ele>307.3</ele>
        <time>2022-04-14T16:23:15Z</time>
      </trkpt>
      <trkpt lat="42.9028070" lon="-8.5016280">
        <ele>307.3</ele>
        <time>2022-04-14T16:23:16Z</time>
      </trkpt>
      <trkpt lat="42.9028370" lon="-8.5016050">
        <ele>307.3</ele>
        <time>2022-04-14T16:23:17Z</time>
      </trkpt>
      <trkpt lat="42.9028660" lon="-8.5015810">
        <ele>307.3</ele>
        <time>2022-04-14T16:23:18Z</time>
      </trkpt>
      <trkpt lat="42.9029800" lon="-8.5014800">
        <ele>307.5</ele>
        <time>2022-04-14T16:23:19Z</time>
      </trkpt>
      <trkpt lat="42.9030350" lon="-8.5014250">
        <ele>307.6</ele>
        <time>2022-04-14T16:23:20Z</time>
      </trkpt>
      <trkpt lat="42.9030900" lon="-8.5013700">
        <ele>307.7</ele>
        <time>2022-04-14T16:23:21Z</time>
      </trkpt>
      <trkpt lat="42.9031380" lon="-8.5013040">
        <ele>307.7</ele>
        <time>2022-04-14T16:23:22Z</time>
      </trkpt>
      <trkpt lat="42.9031600" lon="-8.5012720">
        <ele>307.7</ele>
        <time>2022-04-14T16:23:23Z</time>
      </trkpt>
      <trkpt lat="42.9031820" lon="-8.5012390">
        <ele>307.8</ele>
        <time>2022-04-14T16:23:24Z</time>
      </trkpt>
      <trkpt lat="42.9032480" lon="-8.5011420">
        <ele>307.9</ele>
        <time>2022-04-14T16:23:25Z</time>
      </trkpt>
      <trkpt lat="42.9032700" lon="-8.5011090">
        <ele>308.0</ele>
        <time>2022-04-14T16:23:26Z</time>
      </trkpt>
      <trkpt lat="42.9033600" lon="-8.5009800">
        <ele>308.4</ele>
        <time>2022-04-14T16:23:27Z</time>
      </trkpt>
      <trkpt lat="42.9034050" lon="-8.5009170">
        <ele>308.6</ele>
        <time>2022-04-14T16:23:28Z</time>
      </trkpt>
      <trkpt lat="42.9034500" lon="-8.5008540">
        <ele>308.9</ele>
        <time>2022-04-14T16:23:29Z</time>
      </trkpt>
      <trkpt lat="42.9034930" lon="-8.5007930">
        <ele>309.1</ele>
        <time>2022-04-14T16:23:30Z</time>
      </trkpt>
      <trkpt lat="42.9035140" lon="-8.5007620">
        <ele>309.3</ele>
        <time>2022-04-14T16:23:31Z</time>
      </trkpt>
      <trkpt lat="42.9035350" lon="-8.5007320">
        <ele>309.4</ele>
        <time>2022-04-14T16:23:32Z</time>
      </trkpt>
      <trkpt lat="42.9036010" lon="-8.5006400">
        <ele>309.8</ele>
        <time>2022-04-14T16:23:33Z</time>
      </trkpt>
      <trkpt lat="42.9036240" lon="-8.5006090">
        <ele>310.0</ele>
        <time>2022-04-14T16:23:34Z</time>
      </trkpt>
      <trkpt lat="42.9037160" lon="-8.5004860">
        <ele>310.6</ele>
        <time>2022-04-14T16:23:35Z</time>
      </trkpt>
      <trkpt lat="42.9037600" lon="-8.5004260">
        <ele>310.9</ele>
        <time>2022-04-14T16:23:36Z</time>
      </trkpt>
      <trkpt lat="42.9038040" lon="-8.5003650">
        <ele>311.2</ele>
        <time>2022-04-14T16:23:37Z</time>
      </trkpt>
      <trkpt lat="42.9038460" lon="-8.5003070">
        <ele>311.5</ele>
        <time>2022-04-14T16:23:38Z</time>
      </trkpt>
      <trkpt lat="42.9038670" lon="-8.5002790">
        <ele>311.7</ele>
        <time>2022-04-14T16:23:39Z</time>
      </trkpt>
      <trkpt lat="42.9038870" lon="-8.5002510">
        <ele>311.8</ele>
        <time>2022-04-14T16:23:40Z</time>
      </trkpt>
      <trkpt lat="42.9039480" lon="-8.5001650">
        <ele>312.3</ele>
        <time>2022-04-14T16:23:41Z</time>
      </trkpt>
      <trkpt lat="42.9039680" lon="-8.5001340">
        <ele>312.4</ele>
        <time>2022-04-14T16:23:42Z</time>
      </trkpt>
      <trkpt lat="42.9040490" lon="-8.5000140">
        <ele>312.9</ele>
        <time>2022-04-14T16:23:43Z</time>
      </trkpt>
      <trkpt lat="42.9040880" lon="-8.4999550">
        <ele>313.1</ele>
        <time>2022-04-14T16:23:44Z</time>
      </trkpt>
      <trkpt lat="42.9041280" lon="-8.4998960">
        <ele>313.4</ele>
        <time>2022-04-14T16:23:45Z</time>
      </trkpt>
      <trkpt lat="42.9041700" lon="-8.4998370">
        <ele>313.6</ele>
        <time>2022-04-14T16:23:46Z</time>
      </trkpt>
      <trkpt lat="42.9041890" lon="-8.4998090">
        <ele>313.6</ele>
        <time>2022-04-14T16:23:47Z</time>
      </trkpt>
      <trkpt lat="42.9042080" lon="-8.4997820">
        <ele>313.7</ele>
        <time>2022-04-14T16:23:48Z</time>
      </trkpt>
      <trkpt lat="42.9042670" lon="-8.4996980">
        <ele>314.0</ele>
        <time>2022-04-14T16:23:49Z</time>
      </trkpt>
      <trkpt lat="42.9042870" lon="-8.4996690">
        <ele>314.1</ele>
        <time>2022-04-14T16:23:50Z</time>
      </trkpt>
      <trkpt lat="42.9043490" lon="-8.4995820">
        <ele>314.4</ele>
        <time>2022-04-14T16:23:51Z</time>
      </trkpt>
      <trkpt lat="42.9043700" lon="-8.4995530">
        <ele>314.5</ele>
        <time>2022-04-14T16:23:52Z</time>
      </trkpt>
      <trkpt lat="42.9044530" lon="-8.4994360">
        <ele>314.8</ele>
        <time>2022-04-14T16:23:53Z</time>
      </trkpt>
      <trkpt lat="42.9044940" lon="-8.4993760">
        <ele>315.0</ele>
        <time>2022-04-14T16:23:54Z</time>
      </trkpt>
      <trkpt lat="42.9045350" lon="-8.4993160">
        <ele>315.1</ele>
        <time>2022-04-14T16:23:55Z</time>
      </trkpt>
      <trkpt lat="42.9045750" lon="-8.4992560">
        <ele>315.3</ele>
        <time>2022-04-14T16:23:56Z</time>
      </trkpt>
      <trkpt lat="42.9045980" lon="-8.4992250">
        <ele>315.3</ele>
        <time>2022-04-14T16:23:57Z</time>
      </trkpt>
      <trkpt lat="42.9046210" lon="-8.4991940">
        <ele>315.4</ele>
        <time>2022-04-14T16:23:58Z</time>
      </trkpt>
      <trkpt lat="42.9046900" lon="-8.4991020">
        <ele>315.6</ele>
        <time>2022-04-14T16:23:59Z</time>
      </trkpt>
      <trkpt lat="42.9047120" lon="-8.4990710">
        <ele>315.6</ele>
        <time>2022-04-14T16:24:00Z</time>
      </trkpt>
      <trkpt lat="42.9048020" lon="-8.4989450">
        <ele>315.8</ele>
        <time>2022-04-14T16:24:01Z</time>
      </trkpt>
      <trkpt lat="42.9048470" lon="-8.4988810">
        <ele>315.8</ele>
        <time>2022-04-14T16:24:02Z</time>
      </trkpt>
      <trkpt lat="42.9048920" lon="-8.4988170">
        <ele>315.9</ele>
        <time>2022-04-14T16:24:03Z</time>
      </trkpt>
      <trkpt lat="42.9049370" lon="-8.4987560">
        <ele>316.0</ele>
        <time>2022-04-14T16:24:04Z</time>
      </trkpt>
      <trkpt lat="42.9049600" lon="-8.4987230">
        <ele>316.0</ele>
        <time>2022-04-14T16:24:05Z</time>
      </trkpt>
      <trkpt lat="42.9049830" lon="-8.4986900">
        <ele>316.1</ele>
        <time>2022-04-14T16:24:06Z</time>
      </trkpt>
      <trkpt lat="42.9050760" lon="-8.4985540">
        <ele>316.2</ele>
        <time>2022-04-14T16:24:07Z</time>
      </trkpt>
      <trkpt lat="42.9051240" lon="-8.4984830">
        <ele>316.3</ele>
        <time>2022-04-14T16:24:08Z</time>
      </trkpt>
      <trkpt lat="42.9051710" lon="-8.4984130">
        <ele>316.4</ele>
        <time>2022-04-14T16:24:09Z</time>
      </trkpt>
      <trkpt lat="42.9052160" lon="-8.4983400">
        <ele>316.4</ele>
        <time>2022-04-14T16:24:10Z</time>
      </trkpt>
      <trkpt lat="42.9052330" lon="-8.4982990">
        <ele>316.5</ele>
        <time>2022-04-14T16:24:11Z</time>
      </trkpt>
      <trkpt lat="42.9052500" lon="-8.4982580">
        <ele>316.5</ele>
        <time>2022-04-14T16:24:12Z</time>
      </trkpt>
      <trkpt lat="42.9053190" lon="-8.4980910">
        <ele>316.6</ele>
        <time>2022-04-14T16:24:13Z</time>
      </trkpt>
      <trkpt lat="42.9053540" lon="-8.4980070">
        <ele>316.6</ele>
        <time>2022-04-14T16:24:14Z</time>
      </trkpt>
      <trkpt lat="42.9053890" lon="-8.4979220">
        <ele>316.5</ele>
        <time>2022-04-14T16:24:15Z</time>
      </trkpt>
      <trkpt lat="42.9054680" lon="-8.4978170">
        <ele>316.4</ele>
        <time>2022-04-14T16:24:16Z</time>
      </trkpt>
      <trkpt lat="42.9054990" lon="-8.4977900">
        <ele>316.4</ele>
        <time>2022-04-14T16:24:17Z</time>
      </trkpt>
      <trkpt lat="42.9055610" lon="-8.4977350">
        <ele>316.4</ele>
        <time>2022-04-14T16:24:18Z</time>
      </trkpt>
      <trkpt lat="42.9055940" lon="-8.4977040">
        <ele>316.4</ele>
        <time>2022-04-14T16:24:19Z</time>
      </trkpt>
      <trkpt lat="42.9056260" lon="-8.4976730">
        <ele>316.4</ele>
        <time>2022-04-14T16:24:20Z</time>
      </trkpt>
      <trkpt lat="42.9057480" lon="-8.4975350">
        <ele>316.4</ele>
        <time>2022-04-14T16:24:21Z</time>
      </trkpt>
      <trkpt lat="42.9058060" lon="-8.4974590">
        <ele>316.4</ele>
        <time>2022-04-14T16:24:22Z</time>
      </trkpt>
      <trkpt lat="42.9058630" lon="-8.4973820">
        <ele>316.5</ele>
        <time>2022-04-14T16:24:23Z</time>
      </trkpt>
      <trkpt lat="42.9059190" lon="-8.4973010">
        <ele>316.5</ele>
        <time>2022-04-14T16:24:24Z</time>
      </trkpt>
      <trkpt lat="42.9059480" lon="-8.4972590">
        <ele>316.6</ele>
        <time>2022-04-14T16:24:25Z</time>
      </trkpt>
      <trkpt lat="42.9059760" lon="-8.4972170">
        <ele>316.6</ele>
        <time>2022-04-14T16:24:26Z</time>
      </trkpt>
      <trkpt lat="42.9060880" lon="-8.4970530">
        <ele>316.9</ele>
        <time>2022-04-14T16:24:27Z</time>
      </trkpt>
      <trkpt lat="42.9061430" lon="-8.4969720">
        <ele>317.0</ele>
        <time>2022-04-14T16:24:28Z</time>
      </trkpt>
      <trkpt lat="42.9061980" lon="-8.4968910">
        <ele>317.2</ele>
        <time>2022-04-14T16:24:29Z</time>
      </trkpt>
      <trkpt lat="42.9062520" lon="-8.4968110">
        <ele>317.4</ele>
        <time>2022-04-14T16:24:30Z</time>
      </trkpt>
      <trkpt lat="42.9062810" lon="-8.4967710">
        <ele>317.5</ele>
        <time>2022-04-14T16:24:31Z</time>
      </trkpt>
      <trkpt lat="42.9063090" lon="-8.4967310">
        <ele>317.6</ele>
        <time>2022-04-14T16:24:32Z</time>
      </trkpt>
      <trkpt lat="42.9064200" lon="-8.4965820">
        <ele>318.0</ele>
        <time>2022-04-14T16:24:33Z</time>
      </trkpt>
      <trkpt lat="42.9064750" lon="-8.4965110">
        <ele>318.1</ele>
        <time>2022-04-14T16:24:34Z</time>
      </trkpt>
      <trkpt lat="42.9065300" lon="-8.4964410">
        <ele>318.3</ele>
        <time>2022-04-14T16:24:35Z</time>
      </trkpt>
      <trkpt lat="42.9065810" lon="-8.4963700">
        <ele>318.5</ele>
        <time>2022-04-14T16:24:36Z</time>
      </trkpt>
      <trkpt lat="42.9066100" lon="-8.4963340">
        <ele>318.6</ele>
        <time>2022-04-14T16:24:37Z</time>
      </trkpt>
      <trkpt lat="42.9066390" lon="-8.4962990">
        <ele>318.7</ele>
        <time>2022-04-14T16:24:38Z</time>
      </trkpt>
      <trkpt lat="42.9067240" lon="-8.4961920">
        <ele>318.9</ele>
        <time>2022-04-14T16:24:39Z</time>
      </trkpt>
      <trkpt lat="42.9067510" lon="-8.4961570">
        <ele>319.0</ele>
        <time>2022-04-14T16:24:40Z</time>
      </trkpt>
      <trkpt lat="42.9068570" lon="-8.4960100">
        <ele>319.2</ele>
        <time>2022-04-14T16:24:41Z</time>
      </trkpt>
      <trkpt lat="42.9069070" lon="-8.4959340">
        <ele>319.4</ele>
        <time>2022-04-14T16:24:42Z</time>
      </trkpt>
      <trkpt lat="42.9069570" lon="-8.4958580">
        <ele>319.5</ele>
        <time>2022-04-14T16:24:43Z</time>
      </trkpt>
      <trkpt lat="42.9070080" lon="-8.4957860">
        <ele>319.6</ele>
        <time>2022-04-14T16:24:44Z</time>
      </trkpt>
      <trkpt lat="42.9070340" lon="-8.4957510">
        <ele>319.6</ele>
        <time>2022-04-14T16:24:45Z</time>
      </trkpt>
      <trkpt lat="42.9070600" lon="-8.4957150">
        <ele>319.7</ele>
        <time>2022-04-14T16:24:46Z</time>
      </trkpt>
      <trkpt lat="42.9071600" lon="-8.4955720">
        <ele>319.8</ele>
        <time>2022-04-14T16:24:47Z</time>
      </trkpt>
      <trkpt lat="42.9072070" lon="-8.4955000">
        <ele>319.9</ele>
        <time>2022-04-14T16:24:48Z</time>
      </trkpt>
      <trkpt lat="42.9072550" lon="-8.4954280">
        <ele>319.9</ele>
        <time>2022-04-14T16:24:49Z</time>
      </trkpt>
      <trkpt lat="42.9073010" lon="-8.4953540">
        <ele>320.0</ele>
        <time>2022-04-14T16:24:50Z</time>
      </trkpt>
      <trkpt lat="42.9073410" lon="-8.4952850">
        <ele>320.0</ele>
        <time>2022-04-14T16:24:51Z</time>
      </trkpt>
      <trkpt lat="42.9073810" lon="-8.4952170">
        <ele>320.1</ele>
        <time>2022-04-14T16:24:52Z</time>
      </trkpt>
      <trkpt lat="42.9074210" lon="-8.4951480">
        <ele>320.1</ele>
        <time>2022-04-14T16:24:53Z</time>
      </trkpt>
      <trkpt lat="42.9074530" lon="-8.4950690">
        <ele>320.2</ele>
        <time>2022-04-14T16:24:54Z</time>
      </trkpt>
      <trkpt lat="42.9074940" lon="-8.4949910">
        <ele>320.3</ele>
        <time>2022-04-14T16:24:55Z</time>
      </trkpt>
      <trkpt lat="42.9075350" lon="-8.4949140">
        <ele>320.3</ele>
        <time>2022-04-14T16:24:56Z</time>
      </trkpt>
      <trkpt lat="42.9075750" lon="-8.4948360">
        <ele>320.3</ele>
        <time>2022-04-14T16:24:57Z</time>
      </trkpt>
      <trkpt lat="42.9076320" lon="-8.4947730">
        <ele>320.2</ele>
        <time>2022-04-14T16:24:58Z</time>
      </trkpt>
      <trkpt lat="42.9076940" lon="-8.4947170">
        <ele>320.2</ele>
        <time>2022-04-14T16:24:59Z</time>
      </trkpt>
      <trkpt lat="42.9077560" lon="-8.4946620">
        <ele>320.1</ele>
        <time>2022-04-14T16:25:00Z</time>
      </trkpt>
      <trkpt lat="42.9078170" lon="-8.4946070">
        <ele>320.0</ele>
        <time>2022-04-14T16:25:01Z</time>
      </trkpt>
      <trkpt lat="42.9079000" lon="-8.4944970">
        <ele>319.9</ele>
        <time>2022-04-14T16:25:02Z</time>
      </trkpt>
      <trkpt lat="42.9079250" lon="-8.4944530">
        <ele>319.8</ele>
        <time>2022-04-14T16:25:03Z</time>
      </trkpt>
      <trkpt lat="42.9079760" lon="-8.4943660">
        <ele>319.5</ele>
        <time>2022-04-14T16:25:04Z</time>
      </trkpt>
      <trkpt lat="42.9080010" lon="-8.4943260">
        <ele>319.4</ele>
        <time>2022-04-14T16:25:05Z</time>
      </trkpt>
      <trkpt lat="42.9080260" lon="-8.4942870">
        <ele>319.3</ele>
        <time>2022-04-14T16:25:06Z</time>
      </trkpt>
      <trkpt lat="42.9081350" lon="-8.4941230">
        <ele>318.7</ele>
        <time>2022-04-14T16:25:07Z</time>
      </trkpt>
      <trkpt lat="42.9081940" lon="-8.4940380">
        <ele>318.4</ele>
        <time>2022-04-14T16:25:08Z</time>
      </trkpt>
      <trkpt lat="42.9082530" lon="-8.4939520">
        <ele>318.1</ele>
        <time>2022-04-14T16:25:09Z</time>
      </trkpt>
      <trkpt lat="42.9083150" lon="-8.4938680">
        <ele>317.7</ele>
        <time>2022-04-14T16:25:10Z</time>
      </trkpt>
      <trkpt lat="42.9084110" lon="-8.4937310">
        <ele>317.1</ele>
        <time>2022-04-14T16:25:11Z</time>
      </trkpt>
      <trkpt lat="42.9084440" lon="-8.4936850">
        <ele>316.9</ele>
        <time>2022-04-14T16:25:12Z</time>
      </trkpt>
      <trkpt lat="42.9085090" lon="-8.4935920">
        <ele>316.5</ele>
        <time>2022-04-14T16:25:13Z</time>
      </trkpt>
      <trkpt lat="42.9085690" lon="-8.4935060">
        <ele>316.2</ele>
        <time>2022-04-14T16:25:14Z</time>
      </trkpt>
      <trkpt lat="42.9086290" lon="-8.4934210">
        <ele>315.9</ele>
        <time>2022-04-14T16:25:15Z</time>
      </trkpt>
      <trkpt lat="42.9086890" lon="-8.4933350">
        <ele>315.5</ele>
        <time>2022-04-14T16:25:16Z</time>
      </trkpt>
      <trkpt lat="42.9087510" lon="-8.4932480">
        <ele>315.2</ele>
        <time>2022-04-14T16:25:17Z</time>
      </trkpt>
      <trkpt lat="42.9088130" lon="-8.4931580">
        <ele>314.9</ele>
        <time>2022-04-14T16:25:18Z</time>
      </trkpt>
      <trkpt lat="42.9088910" lon="-8.4930420">
        <ele>314.5</ele>
        <time>2022-04-14T16:25:19Z</time>
      </trkpt>
      <trkpt lat="42.9089070" lon="-8.4930190">
        <ele>314.4</ele>
        <time>2022-04-14T16:25:20Z</time>
      </trkpt>
      <trkpt lat="42.9089990" lon="-8.4928870">
        <ele>314.0</ele>
        <time>2022-04-14T16:25:21Z</time>
      </trkpt>
      <trkpt lat="42.9090600" lon="-8.4928020">
        <ele>313.8</ele>
        <time>2022-04-14T16:25:22Z</time>
      </trkpt>
      <trkpt lat="42.9091820" lon="-8.4926310">
        <ele>313.6</ele>
        <time>2022-04-14T16:25:23Z</time>
      </trkpt>
      <trkpt lat="42.9091820" lon="-8.4926310">
        <ele>313.6</ele>
        <time>2022-04-14T16:25:24Z</time>
      </trkpt>
      <trkpt lat="42.9092380" lon="-8.4925500">
        <ele>313.6</ele>
        <time>2022-04-14T16:25:25Z</time>
      </trkpt>
      <trkpt lat="42.9092930" lon="-8.4924690">
        <ele>313.5</ele>
        <time>2022-04-14T16:25:26Z</time>
      </trkpt>
      <trkpt lat="42.9093490" lon="-8.4923880">
        <ele>313.5</ele>
        <time>2022-04-14T16:25:27Z</time>
      </trkpt>
      <trkpt lat="42.9094030" lon="-8.4923060">
        <ele>313.5</ele>
        <time>2022-04-14T16:25:28Z</time>
      </trkpt>
      <trkpt lat="42.9094420" lon="-8.4922090">
        <ele>313.4</ele>
        <time>2022-04-14T16:25:29Z</time>
      </trkpt>
      <trkpt lat="42.9094800" lon="-8.4921130">
        <ele>313.4</ele>
        <time>2022-04-14T16:25:30Z</time>
      </trkpt>
      <trkpt lat="42.9095190" lon="-8.4920170">
        <ele>313.4</ele>
        <time>2022-04-14T16:25:31Z</time>
      </trkpt>
      <trkpt lat="42.9095720" lon="-8.4918740">
        <ele>313.4</ele>
        <time>2022-04-14T16:25:32Z</time>
      </trkpt>
      <trkpt lat="42.9095960" lon="-8.4918330">
        <ele>313.3</ele>
        <time>2022-04-14T16:25:33Z</time>
      </trkpt>
      <trkpt lat="42.9096420" lon="-8.4917510">
        <ele>313.3</ele>
        <time>2022-04-14T16:25:34Z</time>
      </trkpt>
      <trkpt lat="42.9096770" lon="-8.4917440">
        <ele>313.3</ele>
        <time>2022-04-14T16:25:35Z</time>
      </trkpt>
      <trkpt lat="42.9097120" lon="-8.4917380">
        <ele>313.3</ele>
        <time>2022-04-14T16:25:36Z</time>
      </trkpt>
      <trkpt lat="42.9098330" lon="-8.4917900">
        <ele>313.3</ele>
        <time>2022-04-14T16:25:37Z</time>
      </trkpt>
      <trkpt lat="42.9098850" lon="-8.4918560">
        <ele>313.4</ele>
        <time>2022-04-14T16:25:38Z</time>
      </trkpt>
      <trkpt lat="42.9099360" lon="-8.4919210">
        <ele>313.4</ele>
        <time>2022-04-14T16:25:39Z</time>
      </trkpt>
      <trkpt lat="42.9099700" lon="-8.4920060">
        <ele>313.4</ele>
        <time>2022-04-14T16:25:40Z</time>
      </trkpt>
      <trkpt lat="42.9099870" lon="-8.4920500">
        <ele>313.3</ele>
        <time>2022-04-14T16:25:41Z</time>
      </trkpt>
      <trkpt lat="42.9100030" lon="-8.4920950">
        <ele>313.3</ele>
        <time>2022-04-14T16:25:42Z</time>
      </trkpt>
      <trkpt lat="42.9100890" lon="-8.4922600">
        <ele>313.2</ele>
        <time>2022-04-14T16:25:43Z</time>
      </trkpt>
      <trkpt lat="42.9101420" lon="-8.4923350">
        <ele>313.1</ele>
        <time>2022-04-14T16:25:44Z</time>
      </trkpt>
      <trkpt lat="42.9101950" lon="-8.4924110">
        <ele>313.0</ele>
        <time>2022-04-14T16:25:45Z</time>
      </trkpt>
      <trkpt lat="42.9102570" lon="-8.4924810">
        <ele>312.9</ele>
        <time>2022-04-14T16:25:46Z</time>
      </trkpt>
      <trkpt lat="42.9102890" lon="-8.4925180">
        <ele>312.9</ele>
        <time>2022-04-14T16:25:47Z</time>
      </trkpt>
      <trkpt lat="42.9103200" lon="-8.4925560">
        <ele>312.8</ele>
        <time>2022-04-14T16:25:48Z</time>
      </trkpt>
      <trkpt lat="42.9104140" lon="-8.4926700">
        <ele>312.7</ele>
        <time>2022-04-14T16:25:49Z</time>
      </trkpt>
      <trkpt lat="42.9104450" lon="-8.4927080">
        <ele>312.7</ele>
        <time>2022-04-14T16:25:50Z</time>
      </trkpt>
      <trkpt lat="42.9105780" lon="-8.4928600">
        <ele>312.6</ele>
        <time>2022-04-14T16:25:51Z</time>
      </trkpt>
      <trkpt lat="42.9106480" lon="-8.4929360">
        <ele>312.6</ele>
        <time>2022-04-14T16:25:52Z</time>
      </trkpt>
      <trkpt lat="42.9107170" lon="-8.4930120">
        <ele>312.5</ele>
        <time>2022-04-14T16:25:53Z</time>
      </trkpt>
      <trkpt lat="42.9107950" lon="-8.4930890">
        <ele>312.5</ele>
        <time>2022-04-14T16:25:54Z</time>
      </trkpt>
      <trkpt lat="42.9108690" lon="-8.4931660">
        <ele>312.4</ele>
        <time>2022-04-14T16:25:55Z</time>
      </trkpt>
      <trkpt lat="42.9109390" lon="-8.4932440">
        <ele>312.4</ele>
        <time>2022-04-14T16:25:56Z</time>
      </trkpt>
      <trkpt lat="42.9109390" lon="-8.4932440">
        <ele>312.4</ele>
        <time>2022-04-14T16:25:57Z</time>
      </trkpt>
      <trkpt lat="42.9110690" lon="-8.4933970">
        <ele>312.5</ele>
        <time>2022-04-14T16:25:58Z</time>
      </trkpt>
      <trkpt lat="42.9111030" lon="-8.4934340">
        <ele>312.5</ele>
        <time>2022-04-14T16:25:59Z</time>
      </trkpt>
      <trkpt lat="42.9111370" lon="-8.4934720">
        <ele>312.5</ele>
        <time>2022-04-14T16:26:00Z</time>
      </trkpt>
      <trkpt lat="42.9112700" lon="-8.4936200">
        <ele>312.6</ele>
        <time>2022-04-14T16:26:01Z</time>
      </trkpt>
      <trkpt lat="42.9113330" lon="-8.4936940">
        <ele>312.6</ele>
        <time>2022-04-14T16:26:02Z</time>
      </trkpt>
      <trkpt lat="42.9113970" lon="-8.4937670">
        <ele>312.6</ele>
        <time>2022-04-14T16:26:03Z</time>
      </trkpt>
      <trkpt lat="42.9114570" lon="-8.4938390">
        <ele>312.6</ele>
        <time>2022-04-14T16:26:04Z</time>
      </trkpt>
      <trkpt lat="42.9114900" lon="-8.4938750">
        <ele>312.6</ele>
        <time>2022-04-14T16:26:05Z</time>
      </trkpt>
      <trkpt lat="42.9115220" lon="-8.4939110">
        <ele>312.6</ele>
        <time>2022-04-14T16:26:06Z</time>
      </trkpt>
      <trkpt lat="42.9116560" lon="-8.4940520">
        <ele>312.7</ele>
        <time>2022-04-14T16:26:07Z</time>
      </trkpt>
      <trkpt lat="42.9117250" lon="-8.4941200">
        <ele>312.6</ele>
        <time>2022-04-14T16:26:08Z</time>
      </trkpt>
      <trkpt lat="42.9117940" lon="-8.4941890">
        <ele>312.6</ele>
        <time>2022-04-14T16:26:09Z</time>
      </trkpt>
      <trkpt lat="42.9118680" lon="-8.4942570">
        <ele>312.6</ele>
        <time>2022-04-14T16:26:10Z</time>
      </trkpt>
      <trkpt lat="42.9119000" lon="-8.4942950">
        <ele>312.6</ele>
        <time>2022-04-14T16:26:11Z</time>
      </trkpt>
      <trkpt lat="42.9119310" lon="-8.4943320">
        <ele>312.5</ele>
        <time>2022-04-14T16:26:12Z</time>
      </trkpt>
      <trkpt lat="42.9120590" lon="-8.4944830">
        <ele>312.4</ele>
        <time>2022-04-14T16:26:13Z</time>
      </trkpt>
      <trkpt lat="42.9121250" lon="-8.4945590">
        <ele>312.4</ele>
        <time>2022-04-14T16:26:14Z</time>
      </trkpt>
      <trkpt lat="42.9121900" lon="-8.4946350">
        <ele>312.3</ele>
        <time>2022-04-14T16:26:15Z</time>
      </trkpt>
      <trkpt lat="42.9122550" lon="-8.4947110">
        <ele>312.2</ele>
        <time>2022-04-14T16:26:16Z</time>
      </trkpt>
      <trkpt lat="42.9122870" lon="-8.4947490">
        <ele>312.2</ele>
        <time>2022-04-14T16:26:17Z</time>
      </trkpt>
      <trkpt lat="42.9123190" lon="-8.4947870">
        <ele>312.1</ele>
        <time>2022-04-14T16:26:18Z</time>
      </trkpt>
      <trkpt lat="42.9124480" lon="-8.4949380">
        <ele>311.9</ele>
        <time>2022-04-14T16:26:19Z</time>
      </trkpt>
      <trkpt lat="42.9125140" lon="-8.4950130">
        <ele>311.7</ele>
        <time>2022-04-14T16:26:20Z</time>
      </trkpt>
      <trkpt lat="42.9125800" lon="-8.4950880">
        <ele>311.6</ele>
        <time>2022-04-14T16:26:21Z</time>
      </trkpt>
      <trkpt lat="42.9126500" lon="-8.4951620">
        <ele>311.5</ele>
        <time>2022-04-14T16:26:22Z</time>
      </trkpt>
      <trkpt lat="42.9126930" lon="-8.4951760">
        <ele>311.4</ele>
        <time>2022-04-14T16:26:23Z</time>
      </trkpt>
      <trkpt lat="42.9127360" lon="-8.4951890">
        <ele>311.3</ele>
        <time>2022-04-14T16:26:24Z</time>
      </trkpt>
      <trkpt lat="42.9128930" lon="-8.4951540">
        <ele>310.8</ele>
        <time>2022-04-14T16:26:25Z</time>
      </trkpt>
      <trkpt lat="42.9129650" lon="-8.4950930">
        <ele>310.6</ele>
        <time>2022-04-14T16:26:26Z</time>
      </trkpt>
      <trkpt lat="42.9130370" lon="-8.4950310">
        <ele>310.4</ele>
        <time>2022-04-14T16:26:27Z</time>
      </trkpt>
      <trkpt lat="42.9130950" lon="-8.4949390">
        <ele>310.2</ele>
        <time>2022-04-14T16:26:28Z</time>
      </trkpt>
      <trkpt lat="42.9131540" lon="-8.4948310">
        <ele>310.0</ele>
        <time>2022-04-14T16:26:29Z</time>
      </trkpt>
      <trkpt lat="42.9132140" lon="-8.4947310">
        <ele>309.8</ele>
        <time>2022-04-14T16:26:30Z</time>
      </trkpt>
      <trkpt lat="42.9132740" lon="-8.4946300">
        <ele>309.6</ele>
        <time>2022-04-14T16:26:31Z</time>
      </trkpt>
      <trkpt lat="42.9133330" lon="-8.4945300">
        <ele>309.3</ele>
        <time>2022-04-14T16:26:32Z</time>
      </trkpt>
      <trkpt lat="42.9133950" lon="-8.4944290">
        <ele>309.1</ele>
        <time>2022-04-14T16:26:33Z</time>
      </trkpt>
      <trkpt lat="42.9134680" lon="-8.4943430">
        <ele>308.9</ele>
        <time>2022-04-14T16:26:34Z</time>
      </trkpt>
      <trkpt lat="42.9135540" lon="-8.4943290">
        <ele>308.7</ele>
        <time>2022-04-14T16:26:35Z</time>
      </trkpt>
      <trkpt lat="42.9136390" lon="-8.4943140">
        <ele>308.6</ele>
        <time>2022-04-14T16:26:36Z</time>
      </trkpt>
      <trkpt lat="42.9137250" lon="-8.4943000">
        <ele>308.5</ele>
        <time>2022-04-14T16:26:37Z</time>
      </trkpt>
      <trkpt lat="42.9138140" lon="-8.4943270">
        <ele>308.3</ele>
        <time>2022-04-14T16:26:38Z</time>
      </trkpt>
      <trkpt lat="42.9138900" lon="-8.4943990">
        <ele>308.1</ele>
        <time>2022-04-14T16:26:39Z</time>
      </trkpt>
      <trkpt lat="42.9139580" lon="-8.4944850">
        <ele>307.9</ele>
        <time>2022-04-14T16:26:40Z</time>
      </trkpt>
      <trkpt lat="42.9140650" lon="-8.4946170">
        <ele>307.5</ele>
        <time>2022-04-14T16:26:41Z</time>
      </trkpt>
      <trkpt lat="42.9141020" lon="-8.4946590">
        <ele>307.4</ele>
        <time>2022-04-14T16:26:42Z</time>
      </trkpt>
      <trkpt lat="42.9141760" lon="-8.4947430">
        <ele>307.3</ele>
        <time>2022-04-14T16:26:43Z</time>
      </trkpt>
      <trkpt lat="42.9142610" lon="-8.4947940">
        <ele>307.1</ele>
        <time>2022-04-14T16:26:44Z</time>
      </trkpt>
      <trkpt lat="42.9143530" lon="-8.4947980">
        <ele>307.1</ele>
        <time>2022-04-14T16:26:45Z</time>
      </trkpt>
      <trkpt lat="42.9144890" lon="-8.4947450">
        <ele>306.0</ele>
        <time>2022-04-14T16:26:46Z</time>
      </trkpt>
      <trkpt lat="42.9145320" lon="-8.4947190">
        <ele>305.7</ele>
        <time>2022-04-14T16:26:47Z</time>
      </trkpt>
      <trkpt lat="42.9145950" lon="-8.4946090">
        <ele>305.1</ele>
        <time>2022-04-14T16:26:48Z</time>
      </trkpt>
      <trkpt lat="42.9146580" lon="-8.4944980">
        <ele>304.4</ele>
        <time>2022-04-14T16:26:49Z</time>
      </trkpt>
      <trkpt lat="42.9147210" lon="-8.4943830">
        <ele>303.7</ele>
        <time>2022-04-14T16:26:50Z</time>
      </trkpt>
      <trkpt lat="42.9147880" lon="-8.4942720">
        <ele>303.1</ele>
        <time>2022-04-14T16:26:51Z</time>
      </trkpt>
      <trkpt lat="42.9149060" lon="-8.4941060">
        <ele>302.2</ele>
        <time>2022-04-14T16:26:52Z</time>
      </trkpt>
      <trkpt lat="42.9149490" lon="-8.4940500">
        <ele>302.0</ele>
        <time>2022-04-14T16:26:53Z</time>
      </trkpt>
      <trkpt lat="42.9150350" lon="-8.4939370">
        <ele>301.7</ele>
        <time>2022-04-14T16:26:54Z</time>
      </trkpt>
      <trkpt lat="42.9151300" lon="-8.4938500">
        <ele>301.4</ele>
        <time>2022-04-14T16:26:55Z</time>
      </trkpt>
      <trkpt lat="42.9152230" lon="-8.4937610">
        <ele>301.1</ele>
        <time>2022-04-14T16:26:56Z</time>
      </trkpt>
      <trkpt lat="42.9152230" lon="-8.4937610">
        <ele>301.1</ele>
        <time>2022-04-14T16:26:57Z</time>
      </trkpt>
      <trkpt lat="42.9153230" lon="-8.4936240">
        <ele>300.9</ele>
        <time>2022-04-14T16:26:58Z</time>
      </trkpt>
      <trkpt lat="42.9154220" lon="-8.4934870">
        <ele>300.7</ele>
        <time>2022-04-14T16:26:59Z</time>
      </trkpt>
      <trkpt lat="42.9155220" lon="-8.4933500">
        <ele>300.6</ele>
        <time>2022-04-14T16:27:00Z</time>
      </trkpt>
      <trkpt lat="42.9156210" lon="-8.4932130">
        <ele>300.6</ele>
        <time>2022-04-14T16:27:01Z</time>
      </trkpt>
      <trkpt lat="42.9156850" lon="-8.4930690">
        <ele>300.7</ele>
        <time>2022-04-14T16:27:02Z</time>
      </trkpt>
      <trkpt lat="42.9157490" lon="-8.4929510">
        <ele>300.8</ele>
        <time>2022-04-14T16:27:03Z</time>
      </trkpt>
      <trkpt lat="42.9158100" lon="-8.4928350">
        <ele>301.0</ele>
        <time>2022-04-14T16:27:04Z</time>
      </trkpt>
      <trkpt lat="42.9158990" lon="-8.4926860">
        <ele>301.3</ele>
        <time>2022-04-14T16:27:05Z</time>
      </trkpt>
      <trkpt lat="42.9159300" lon="-8.4926370">
        <ele>301.3</ele>
        <time>2022-04-14T16:27:06Z</time>
      </trkpt>
      <trkpt lat="42.9159910" lon="-8.4925400">
        <ele>301.5</ele>
        <time>2022-04-14T16:27:07Z</time>
      </trkpt>
      <trkpt lat="42.9160510" lon="-8.4924390">
        <ele>301.6</ele>
        <time>2022-04-14T16:27:08Z</time>
      </trkpt>
      <trkpt lat="42.9161090" lon="-8.4923380">
        <ele>301.8</ele>
        <time>2022-04-14T16:27:09Z</time>
      </trkpt>
      <trkpt lat="42.9161660" lon="-8.4922370">
        <ele>302.0</ele>
        <time>2022-04-14T16:27:10Z</time>
      </trkpt>
      <trkpt lat="42.9161660" lon="-8.4922370">
        <ele>302.0</ele>
        <time>2022-04-14T16:27:11Z</time>
      </trkpt>
      <trkpt lat="42.9162780" lon="-8.4920470">
        <ele>302.2</ele>
        <time>2022-04-14T16:27:12Z</time>
      </trkpt>
      <trkpt lat="42.9163350" lon="-8.4919510">
        <ele>302.3</ele>
        <time>2022-04-14T16:27:13Z</time>
      </trkpt>
      <trkpt lat="42.9163950" lon="-8.4918560">
        <ele>302.4</ele>
        <time>2022-04-14T16:27:14Z</time>
      </trkpt>
      <trkpt lat="42.9164530" lon="-8.4917640">
        <ele>302.5</ele>
        <time>2022-04-14T16:27:15Z</time>
      </trkpt>
      <trkpt lat="42.9165110" lon="-8.4916720">
        <ele>302.6</ele>
        <time>2022-04-14T16:27:16Z</time>
      </trkpt>
      <trkpt lat="42.9165700" lon="-8.4915800">
        <ele>302.6</ele>
        <time>2022-04-14T16:27:17Z</time>
      </trkpt>
      <trkpt lat="42.9166290" lon="-8.4914870">
        <ele>302.5</ele>
        <time>2022-04-14T16:27:18Z</time>
      </trkpt>
      <trkpt lat="42.9166890" lon="-8.4913950">
        <ele>302.3</ele>
        <time>2022-04-14T16:27:19Z</time>
      </trkpt>
      <trkpt lat="42.9167490" lon="-8.4913000">
        <ele>302.2</ele>
        <time>2022-04-14T16:27:20Z</time>
      </trkpt>
      <trkpt lat="42.9168380" lon="-8.4911530">
        <ele>301.7</ele>
        <time>2022-04-14T16:27:21Z</time>
      </trkpt>
      <trkpt lat="42.9168690" lon="-8.4911040">
        <ele>301.6</ele>
        <time>2022-04-14T16:27:22Z</time>
      </trkpt>
      <trkpt lat="42.9169300" lon="-8.4910060">
        <ele>301.2</ele>
        <time>2022-04-14T16:27:23Z</time>
      </trkpt>
      <trkpt lat="42.9170220" lon="-8.4908570">
        <ele>300.6</ele>
        <time>2022-04-14T16:27:24Z</time>
      </trkpt>
      <trkpt lat="42.9170530" lon="-8.4908070">
        <ele>300.4</ele>
        <time>2022-04-14T16:27:25Z</time>
      </trkpt>
      <trkpt lat="42.9171460" lon="-8.4906550">
        <ele>299.7</ele>
        <time>2022-04-14T16:27:26Z</time>
      </trkpt>
      <trkpt lat="42.9171770" lon="-8.4906040">
        <ele>299.5</ele>
        <time>2022-04-14T16:27:27Z</time>
      </trkpt>
      <trkpt lat="42.9172400" lon="-8.4905030">
        <ele>299.0</ele>
        <time>2022-04-14T16:27:28Z</time>
      </trkpt>
      <trkpt lat="42.9173030" lon="-8.4904020">
        <ele>298.4</ele>
        <time>2022-04-14T16:27:29Z</time>
      </trkpt>
      <trkpt lat="42.9173660" lon="-8.4903010">
        <ele>297.9</ele>
        <time>2022-04-14T16:27:30Z</time>
      </trkpt>
      <trkpt lat="42.9174290" lon="-8.4901980">
        <ele>297.4</ele>
        <time>2022-04-14T16:27:31Z</time>
      </trkpt>
      <trkpt lat="42.9175240" lon="-8.4900400">
        <ele>296.7</ele>
        <time>2022-04-14T16:27:32Z</time>
      </trkpt>
      <trkpt lat="42.9175570" lon="-8.4899870">
        <ele>296.5</ele>
        <time>2022-04-14T16:27:33Z</time>
      </trkpt>
      <trkpt lat="42.9176210" lon="-8.4898800">
        <ele>296.1</ele>
        <time>2022-04-14T16:27:34Z</time>
      </trkpt>
      <trkpt lat="42.9176860" lon="-8.4897730">
        <ele>295.9</ele>
        <time>2022-04-14T16:27:35Z</time>
      </trkpt>
      <trkpt lat="42.9177860" lon="-8.4896210">
        <ele>295.6</ele>
        <time>2022-04-14T16:27:36Z</time>
      </trkpt>
      <trkpt lat="42.9178210" lon="-8.4895720">
        <ele>295.6</ele>
        <time>2022-04-14T16:27:37Z</time>
      </trkpt>
      <trkpt lat="42.9178890" lon="-8.4894730">
        <ele>294.9</ele>
        <time>2022-04-14T16:27:38Z</time>
      </trkpt>
      <trkpt lat="42.9179550" lon="-8.4893730">
        <ele>294.1</ele>
        <time>2022-04-14T16:27:39Z</time>
      </trkpt>
      <trkpt lat="42.9180230" lon="-8.4892690">
        <ele>293.3</ele>
        <time>2022-04-14T16:27:40Z</time>
      </trkpt>
      <trkpt lat="42.9181270" lon="-8.4891100">
        <ele>292.3</ele>
        <time>2022-04-14T16:27:41Z</time>
      </trkpt>
      <trkpt lat="42.9181630" lon="-8.4890570">
        <ele>292.0</ele>
        <time>2022-04-14T16:27:42Z</time>
      </trkpt>
      <trkpt lat="42.9182690" lon="-8.4888960">
        <ele>291.2</ele>
        <time>2022-04-14T16:27:43Z</time>
      </trkpt>
      <trkpt lat="42.9183050" lon="-8.4888420">
        <ele>290.9</ele>
        <time>2022-04-14T16:27:44Z</time>
      </trkpt>
      <trkpt lat="42.9183760" lon="-8.4887340">
        <ele>290.4</ele>
        <time>2022-04-14T16:27:45Z</time>
      </trkpt>
      <trkpt lat="42.9184840" lon="-8.4885710">
        <ele>289.6</ele>
        <time>2022-04-14T16:27:46Z</time>
      </trkpt>
      <trkpt lat="42.9185200" lon="-8.4885170">
        <ele>289.3</ele>
        <time>2022-04-14T16:27:47Z</time>
      </trkpt>
      <trkpt lat="42.9185920" lon="-8.4884080">
        <ele>288.9</ele>
        <time>2022-04-14T16:27:48Z</time>
      </trkpt>
      <trkpt lat="42.9186630" lon="-8.4882990">
        <ele>288.5</ele>
        <time>2022-04-14T16:27:49Z</time>
      </trkpt>
      <trkpt lat="42.9187380" lon="-8.4881980">
        <ele>288.3</ele>
        <time>2022-04-14T16:27:50Z</time>
      </trkpt>
      <trkpt lat="42.9188690" lon="-8.4880870">
        <ele>288.0</ele>
        <time>2022-04-14T16:27:51Z</time>
      </trkpt>
      <trkpt lat="42.9189160" lon="-8.4880630">
        <ele>287.9</ele>
        <time>2022-04-14T16:27:52Z</time>
      </trkpt>
      <trkpt lat="42.9190120" lon="-8.4880130">
        <ele>287.8</ele>
        <time>2022-04-14T16:27:53Z</time>
      </trkpt>
      <trkpt lat="42.9191110" lon="-8.4879920">
        <ele>287.9</ele>
        <time>2022-04-14T16:27:54Z</time>
      </trkpt>
      <trkpt lat="42.9192090" lon="-8.4879770">
        <ele>288.1</ele>
        <time>2022-04-14T16:27:55Z</time>
      </trkpt>
      <trkpt lat="42.9193280" lon="-8.4879640">
        <ele>288.6</ele>
        <time>2022-04-14T16:27:56Z</time>
      </trkpt>
      <trkpt lat="42.9193520" lon="-8.4879630">
        <ele>288.7</ele>
        <time>2022-04-14T16:27:57Z</time>
      </trkpt>
      <trkpt lat="42.9194360" lon="-8.4879630">
        <ele>289.1</ele>
        <time>2022-04-14T16:27:58Z</time>
      </trkpt>
      <trkpt lat="42.9194750" lon="-8.4879650">
        <ele>289.3</ele>
        <time>2022-04-14T16:27:59Z</time>
      </trkpt>
      <trkpt lat="42.9195770" lon="-8.4879870">
        <ele>289.8</ele>
        <time>2022-04-14T16:28:00Z</time>
      </trkpt>
      <trkpt lat="42.9196020" lon="-8.4880050">
        <ele>289.9</ele>
        <time>2022-04-14T16:28:01Z</time>
      </trkpt>
      <trkpt lat="42.9196940" lon="-8.4880870">
        <ele>290.3</ele>
        <time>2022-04-14T16:28:02Z</time>
      </trkpt>
      <trkpt lat="42.9197370" lon="-8.4881340">
        <ele>290.5</ele>
        <time>2022-04-14T16:28:03Z</time>
      </trkpt>
      <trkpt lat="42.9197790" lon="-8.4881820">
        <ele>290.8</ele>
        <time>2022-04-14T16:28:04Z</time>
      </trkpt>
      <trkpt lat="42.9198190" lon="-8.4882330">
        <ele>291.1</ele>
        <time>2022-04-14T16:28:05Z</time>
      </trkpt>
      <trkpt lat="42.9198390" lon="-8.4882560">
        <ele>291.3</ele>
        <time>2022-04-14T16:28:06Z</time>
      </trkpt>
      <trkpt lat="42.9198600" lon="-8.4882790">
        <ele>291.4</ele>
        <time>2022-04-14T16:28:07Z</time>
      </trkpt>
      <trkpt lat="42.9199210" lon="-8.4883470">
        <ele>292.0</ele>
        <time>2022-04-14T16:28:08Z</time>
      </trkpt>
      <trkpt lat="42.9199430" lon="-8.4883690">
        <ele>292.2</ele>
        <time>2022-04-14T16:28:09Z</time>
      </trkpt>
      <trkpt lat="42.9200280" lon="-8.4884530">
        <ele>292.9</ele>
        <time>2022-04-14T16:28:10Z</time>
      </trkpt>
      <trkpt lat="42.9200700" lon="-8.4884920">
        <ele>293.3</ele>
        <time>2022-04-14T16:28:11Z</time>
      </trkpt>
      <trkpt lat="42.9201120" lon="-8.4885290">
        <ele>293.6</ele>
        <time>2022-04-14T16:28:12Z</time>
      </trkpt>
      <trkpt lat="42.9201540" lon="-8.4885660">
        <ele>294.0</ele>
        <time>2022-04-14T16:28:13Z</time>
      </trkpt>
      <trkpt lat="42.9201960" lon="-8.4886040">
        <ele>294.4</ele>
        <time>2022-04-14T16:28:14Z</time>
      </trkpt>
      <trkpt lat="42.9202340" lon="-8.4886410">
        <ele>294.7</ele>
        <time>2022-04-14T16:28:15Z</time>
      </trkpt>
      <trkpt lat="42.9202810" lon="-8.4886710">
        <ele>295.2</ele>
        <time>2022-04-14T16:28:16Z</time>
      </trkpt>
      <trkpt lat="42.9203270" lon="-8.4887000">
        <ele>295.6</ele>
        <time>2022-04-14T16:28:17Z</time>
      </trkpt>
      <trkpt lat="42.9203690" lon="-8.4887350">
        <ele>296.0</ele>
        <time>2022-04-14T16:28:18Z</time>
      </trkpt>
      <trkpt lat="42.9204100" lon="-8.4887700">
        <ele>296.4</ele>
        <time>2022-04-14T16:28:19Z</time>
      </trkpt>
      <trkpt lat="42.9204380" lon="-8.4887920">
        <ele>296.7</ele>
        <time>2022-04-14T16:28:20Z</time>
      </trkpt>
      <trkpt lat="42.9204660" lon="-8.4888130">
        <ele>297.0</ele>
        <time>2022-04-14T16:28:21Z</time>
      </trkpt>
      <trkpt lat="42.9204940" lon="-8.4888350">
        <ele>297.3</ele>
        <time>2022-04-14T16:28:22Z</time>
      </trkpt>
      <trkpt lat="42.9205760" lon="-8.4888960">
        <ele>298.1</ele>
        <time>2022-04-14T16:28:23Z</time>
      </trkpt>
      <trkpt lat="42.9205760" lon="-8.4888960">
        <ele>298.1</ele>
        <time>2022-04-14T16:28:24Z</time>
      </trkpt>
      <trkpt lat="42.9206070" lon="-8.4889050">
        <ele>298.4</ele>
        <time>2022-04-14T16:28:25Z</time>
      </trkpt>
      <trkpt lat="42.9206370" lon="-8.4889130">
        <ele>298.4</ele>
        <time>2022-04-14T16:28:26Z</time>
      </trkpt>
      <trkpt lat="42.9207230" lon="-8.4889220">
        <ele>298.4</ele>
        <time>2022-04-14T16:28:27Z</time>
      </trkpt>
      <trkpt lat="42.9207480" lon="-8.4889130">
        <ele>298.5</ele>
        <time>2022-04-14T16:28:28Z</time>
      </trkpt>
      <trkpt lat="42.9208220" lon="-8.4888780">
        <ele>298.7</ele>
        <time>2022-04-14T16:28:29Z</time>
      </trkpt>
      <trkpt lat="42.9208460" lon="-8.4888610">
        <ele>298.7</ele>
        <time>2022-04-14T16:28:30Z</time>
      </trkpt>
      <trkpt lat="42.9209400" lon="-8.4887630">
        <ele>298.8</ele>
        <time>2022-04-14T16:28:31Z</time>
      </trkpt>
      <trkpt lat="42.9209850" lon="-8.4887010">
        <ele>298.7</ele>
        <time>2022-04-14T16:28:32Z</time>
      </trkpt>
      <trkpt lat="42.9210300" lon="-8.4886390">
        <ele>298.5</ele>
        <time>2022-04-14T16:28:33Z</time>
      </trkpt>
      <trkpt lat="42.9210750" lon="-8.4885670">
        <ele>298.2</ele>
        <time>2022-04-14T16:28:34Z</time>
      </trkpt>
      <trkpt lat="42.9211000" lon="-8.4885310">
        <ele>298.1</ele>
        <time>2022-04-14T16:28:35Z</time>
      </trkpt>
      <trkpt lat="42.9211250" lon="-8.4884940">
        <ele>298.0</ele>
        <time>2022-04-14T16:28:36Z</time>
      </trkpt>
      <trkpt lat="42.9212020" lon="-8.4883800">
        <ele>297.6</ele>
        <time>2022-04-14T16:28:37Z</time>
      </trkpt>
      <trkpt lat="42.9212290" lon="-8.4883390">
        <ele>297.4</ele>
        <time>2022-04-14T16:28:38Z</time>
      </trkpt>
      <trkpt lat="42.9213470" lon="-8.4881750">
        <ele>296.9</ele>
        <time>2022-04-14T16:28:39Z</time>
      </trkpt>
      <trkpt lat="42.9214110" lon="-8.4880930">
        <ele>296.7</ele>
        <time>2022-04-14T16:28:40Z</time>
      </trkpt>
      <trkpt lat="42.9214750" lon="-8.4880120">
        <ele>296.7</ele>
        <time>2022-04-14T16:28:41Z</time>
      </trkpt>
      <trkpt lat="42.9215430" lon="-8.4879280">
        <ele>296.4</ele>
        <time>2022-04-14T16:28:42Z</time>
      </trkpt>
      <trkpt lat="42.9216010" lon="-8.4878770">
        <ele>296.3</ele>
        <time>2022-04-14T16:28:43Z</time>
      </trkpt>
      <trkpt lat="42.9216600" lon="-8.4878250">
        <ele>296.1</ele>
        <time>2022-04-14T16:28:44Z</time>
      </trkpt>
      <trkpt lat="42.9218190" lon="-8.4876930">
        <ele>295.8</ele>
        <time>2022-04-14T16:28:45Z</time>
      </trkpt>
      <trkpt lat="42.9218620" lon="-8.4876650">
        <ele>295.7</ele>
        <time>2022-04-14T16:28:46Z</time>
      </trkpt>
      <trkpt lat="42.9219480" lon="-8.4876070">
        <ele>295.6</ele>
        <time>2022-04-14T16:28:47Z</time>
      </trkpt>
      <trkpt lat="42.9220380" lon="-8.4875530">
        <ele>295.5</ele>
        <time>2022-04-14T16:28:48Z</time>
      </trkpt>
      <trkpt lat="42.9221270" lon="-8.4875140">
        <ele>295.4</ele>
        <time>2022-04-14T16:28:49Z</time>
      </trkpt>
      <trkpt lat="42.9222670" lon="-8.4874670">
        <ele>295.3</ele>
        <time>2022-04-14T16:28:50Z</time>
      </trkpt>
      <trkpt lat="42.9223140" lon="-8.4874530">
        <ele>295.3</ele>
        <time>2022-04-14T16:28:51Z</time>
      </trkpt>
      <trkpt lat="42.9224070" lon="-8.4874230">
        <ele>295.2</ele>
        <time>2022-04-14T16:28:52Z</time>
      </trkpt>
      <trkpt lat="42.9225010" lon="-8.4873960">
        <ele>295.1</ele>
        <time>2022-04-14T16:28:53Z</time>
      </trkpt>
      <trkpt lat="42.9225940" lon="-8.4873760">
        <ele>295.0</ele>
        <time>2022-04-14T16:28:54Z</time>
      </trkpt>
      <trkpt lat="42.9227390" lon="-8.4873510">
        <ele>294.7</ele>
        <time>2022-04-14T16:28:55Z</time>
      </trkpt>
      <trkpt lat="42.9227870" lon="-8.4873440">
        <ele>294.6</ele>
        <time>2022-04-14T16:28:56Z</time>
      </trkpt>
      <trkpt lat="42.9228840" lon="-8.4873280">
        <ele>294.5</ele>
        <time>2022-04-14T16:28:57Z</time>
      </trkpt>
      <trkpt lat="42.9229840" lon="-8.4873180">
        <ele>294.2</ele>
        <time>2022-04-14T16:28:58Z</time>
      </trkpt>
      <trkpt lat="42.9231340" lon="-8.4873070">
        <ele>293.8</ele>
        <time>2022-04-14T16:28:59Z</time>
      </trkpt>
      <trkpt lat="42.9231840" lon="-8.4873040">
        <ele>293.7</ele>
        <time>2022-04-14T16:29:00Z</time>
      </trkpt>
      <trkpt lat="42.9232830" lon="-8.4872860">
        <ele>293.4</ele>
        <time>2022-04-14T16:29:01Z</time>
      </trkpt>
      <trkpt lat="42.9233820" lon="-8.4872680">
        <ele>293.0</ele>
        <time>2022-04-14T16:29:02Z</time>
      </trkpt>
      <trkpt lat="42.9234900" lon="-8.4872370">
        <ele>292.6</ele>
        <time>2022-04-14T16:29:03Z</time>
      </trkpt>
      <trkpt lat="42.9235890" lon="-8.4872130">
        <ele>292.1</ele>
        <time>2022-04-14T16:29:04Z</time>
      </trkpt>
      <trkpt lat="42.9237410" lon="-8.4871550">
        <ele>291.3</ele>
        <time>2022-04-14T16:29:05Z</time>
      </trkpt>
      <trkpt lat="42.9237930" lon="-8.4871300">
        <ele>291.0</ele>
        <time>2022-04-14T16:29:06Z</time>
      </trkpt>
      <trkpt lat="42.9238960" lon="-8.4870800">
        <ele>290.4</ele>
        <time>2022-04-14T16:29:07Z</time>
      </trkpt>
      <trkpt lat="42.9239910" lon="-8.4870140">
        <ele>289.7</ele>
        <time>2022-04-14T16:29:08Z</time>
      </trkpt>
      <trkpt lat="42.9241290" lon="-8.4868970">
        <ele>288.7</ele>
        <time>2022-04-14T16:29:09Z</time>
      </trkpt>
      <trkpt lat="42.9241740" lon="-8.4868550">
        <ele>288.3</ele>
        <time>2022-04-14T16:29:10Z</time>
      </trkpt>
      <trkpt lat="42.9242640" lon="-8.4867710">
        <ele>287.5</ele>
        <time>2022-04-14T16:29:11Z</time>
      </trkpt>
      <trkpt lat="42.9243550" lon="-8.4866690">
        <ele>286.5</ele>
        <time>2022-04-14T16:29:12Z</time>
      </trkpt>
      <trkpt lat="42.9245130" lon="-8.4864130">
        <ele>284.5</ele>
        <time>2022-04-14T16:29:13Z</time>
      </trkpt>
      <trkpt lat="42.9245500" lon="-8.4863480">
        <ele>283.9</ele>
        <time>2022-04-14T16:29:14Z</time>
      </trkpt>
      <trkpt lat="42.9245870" lon="-8.4862830">
        <ele>283.4</ele>
        <time>2022-04-14T16:29:15Z</time>
      </trkpt>
      <trkpt lat="42.9246610" lon="-8.4861530">
        <ele>282.3</ele>
        <time>2022-04-14T16:29:16Z</time>
      </trkpt>
      <trkpt lat="42.9247270" lon="-8.4860130">
        <ele>281.1</ele>
        <time>2022-04-14T16:29:17Z</time>
      </trkpt>
      <trkpt lat="42.9248100" lon="-8.4857730">
        <ele>279.3</ele>
        <time>2022-04-14T16:29:18Z</time>
      </trkpt>
      <trkpt lat="42.9248370" lon="-8.4856930">
        <ele>278.7</ele>
        <time>2022-04-14T16:29:19Z</time>
      </trkpt>
      <trkpt lat="42.9248920" lon="-8.4855330">
        <ele>277.6</ele>
        <time>2022-04-14T16:29:20Z</time>
      </trkpt>
      <trkpt lat="42.9249420" lon="-8.4853770">
        <ele>276.5</ele>
        <time>2022-04-14T16:29:21Z</time>
      </trkpt>
      <trkpt lat="42.9250260" lon="-8.4851270">
        <ele>274.7</ele>
        <time>2022-04-14T16:29:22Z</time>
      </trkpt>
      <trkpt lat="42.9250520" lon="-8.4850440">
        <ele>274.1</ele>
        <time>2022-04-14T16:29:23Z</time>
      </trkpt>
      <trkpt lat="42.9251060" lon="-8.4848780">
        <ele>272.9</ele>
        <time>2022-04-14T16:29:24Z</time>
      </trkpt>
      <trkpt lat="42.9251650" lon="-8.4847160">
        <ele>271.7</ele>
        <time>2022-04-14T16:29:25Z</time>
      </trkpt>
      <trkpt lat="42.9252530" lon="-8.4844580">
        <ele>269.9</ele>
        <time>2022-04-14T16:29:26Z</time>
      </trkpt>
      <trkpt lat="42.9252830" lon="-8.4843720">
        <ele>269.3</ele>
        <time>2022-04-14T16:29:27Z</time>
      </trkpt>
      <trkpt lat="42.9253440" lon="-8.4842000">
        <ele>268.0</ele>
        <time>2022-04-14T16:29:28Z</time>
      </trkpt>
      <trkpt lat="42.9254240" lon="-8.4840430">
        <ele>266.7</ele>
        <time>2022-04-14T16:29:29Z</time>
      </trkpt>
      <trkpt lat="42.9255040" lon="-8.4838870">
        <ele>265.4</ele>
        <time>2022-04-14T16:29:30Z</time>
      </trkpt>
      <trkpt lat="42.9255840" lon="-8.4837300">
        <ele>264.2</ele>
        <time>2022-04-14T16:29:31Z</time>
      </trkpt>
      <trkpt lat="42.9256640" lon="-8.4835740">
        <ele>263.1</ele>
        <time>2022-04-14T16:29:32Z</time>
      </trkpt>
      <trkpt lat="42.9258150" lon="-8.4833680">
        <ele>261.4</ele>
        <time>2022-04-14T16:29:33Z</time>
      </trkpt>
      <trkpt lat="42.9258690" lon="-8.4832990">
        <ele>260.8</ele>
        <time>2022-04-14T16:29:34Z</time>
      </trkpt>
      <trkpt lat="42.9259790" lon="-8.4831620">
        <ele>259.6</ele>
        <time>2022-04-14T16:29:35Z</time>
      </trkpt>
      <trkpt lat="42.9261500" lon="-8.4829740">
        <ele>258.1</ele>
        <time>2022-04-14T16:29:36Z</time>
      </trkpt>
      <trkpt lat="42.9262070" lon="-8.4829130">
        <ele>257.6</ele>
        <time>2022-04-14T16:29:37Z</time>
      </trkpt>
      <trkpt lat="42.9263210" lon="-8.4827910">
        <ele>256.7</ele>
        <time>2022-04-14T16:29:38Z</time>
      </trkpt>
      <trkpt lat="42.9264350" lon="-8.4826690">
        <ele>255.8</ele>
        <time>2022-04-14T16:29:39Z</time>
      </trkpt>
      <trkpt lat="42.9265950" lon="-8.4824960">
        <ele>254.7</ele>
        <time>2022-04-14T16:29:40Z</time>
      </trkpt>
      <trkpt lat="42.9266500" lon="-8.4824360">
        <ele>254.3</ele>
        <time>2022-04-14T16:29:41Z</time>
      </trkpt>
      <trkpt lat="42.9267610" lon="-8.4823160">
        <ele>253.7</ele>
        <time>2022-04-14T16:29:42Z</time>
      </trkpt>
      <trkpt lat="42.9269240" lon="-8.4821530">
        <ele>253.1</ele>
        <time>2022-04-14T16:29:43Z</time>
      </trkpt>
      <trkpt lat="42.9269760" lon="-8.4820960">
        <ele>253.0</ele>
        <time>2022-04-14T16:29:44Z</time>
      </trkpt>
      <trkpt lat="42.9270790" lon="-8.4819810">
        <ele>252.8</ele>
        <time>2022-04-14T16:29:45Z</time>
      </trkpt>
      <trkpt lat="42.9271780" lon="-8.4818590">
        <ele>252.3</ele>
        <time>2022-04-14T16:29:46Z</time>
      </trkpt>
      <trkpt lat="42.9273290" lon="-8.4816980">
        <ele>251.7</ele>
        <time>2022-04-14T16:29:47Z</time>
      </trkpt>
      <trkpt lat="42.9273780" lon="-8.4816450">
        <ele>251.5</ele>
        <time>2022-04-14T16:29:48Z</time>
      </trkpt>
      <trkpt lat="42.9274770" lon="-8.4815400">
        <ele>251.2</ele>
        <time>2022-04-14T16:29:49Z</time>
      </trkpt>
      <trkpt lat="42.9275730" lon="-8.4814380">
        <ele>250.9</ele>
        <time>2022-04-14T16:29:50Z</time>
      </trkpt>
      <trkpt lat="42.9277210" lon="-8.4812810">
        <ele>250.5</ele>
        <time>2022-04-14T16:29:51Z</time>
      </trkpt>
      <trkpt lat="42.9277700" lon="-8.4812300">
        <ele>250.4</ele>
        <time>2022-04-14T16:29:52Z</time>
      </trkpt>
      <trkpt lat="42.9278670" lon="-8.4811280">
        <ele>250.2</ele>
        <time>2022-04-14T16:29:53Z</time>
      </trkpt>
      <trkpt lat="42.9279600" lon="-8.4810260">
        <ele>250.0</ele>
        <time>2022-04-14T16:29:54Z</time>
      </trkpt>
      <trkpt lat="42.9280970" lon="-8.4808740">
        <ele>249.9</ele>
        <time>2022-04-14T16:29:55Z</time>
      </trkpt>
      <trkpt lat="42.9281410" lon="-8.4808240">
        <ele>249.9</ele>
        <time>2022-04-14T16:29:56Z</time>
      </trkpt>
      <trkpt lat="42.9282280" lon="-8.4807240">
        <ele>249.9</ele>
        <time>2022-04-14T16:29:57Z</time>
      </trkpt>
      <trkpt lat="42.9283160" lon="-8.4806250">
        <ele>249.9</ele>
        <time>2022-04-14T16:29:58Z</time>
      </trkpt>
      <trkpt lat="42.9284390" lon="-8.4804910">
        <ele>249.9</ele>
        <time>2022-04-14T16:29:59Z</time>
      </trkpt>
      <trkpt lat="42.9284820" lon="-8.4804440">
        <ele>249.8</ele>
        <time>2022-04-14T16:30:00Z</time>
      </trkpt>
      <trkpt lat="42.9285690" lon="-8.4803490">
        <ele>249.7</ele>
        <time>2022-04-14T16:30:01Z</time>
      </trkpt>
      <trkpt lat="42.9286490" lon="-8.4802600">
        <ele>249.6</ele>
        <time>2022-04-14T16:30:02Z</time>
      </trkpt>
      <trkpt lat="42.9287320" lon="-8.4801710">
        <ele>249.5</ele>
        <time>2022-04-14T16:30:03Z</time>
      </trkpt>
      <trkpt lat="42.9288550" lon="-8.4800390">
        <ele>249.6</ele>
        <time>2022-04-14T16:30:04Z</time>
      </trkpt>
      <trkpt lat="42.9288930" lon="-8.4799930">
        <ele>249.6</ele>
        <time>2022-04-14T16:30:05Z</time>
      </trkpt>
      <trkpt lat="42.9289710" lon="-8.4799020">
        <ele>249.7</ele>
        <time>2022-04-14T16:30:06Z</time>
      </trkpt>
      <trkpt lat="42.9290490" lon="-8.4798170">
        <ele>249.8</ele>
        <time>2022-04-14T16:30:07Z</time>
      </trkpt>
      <trkpt lat="42.9291260" lon="-8.4797350">
        <ele>249.9</ele>
        <time>2022-04-14T16:30:08Z</time>
      </trkpt>
      <trkpt lat="42.9292200" lon="-8.4796420">
        <ele>250.1</ele>
        <time>2022-04-14T16:30:09Z</time>
      </trkpt>
      <trkpt lat="42.9292390" lon="-8.4796240">
        <ele>250.1</ele>
        <time>2022-04-14T16:30:10Z</time>
      </trkpt>
      <trkpt lat="42.9293150" lon="-8.4795510">
        <ele>250.2</ele>
        <time>2022-04-14T16:30:11Z</time>
      </trkpt>
      <trkpt lat="42.9293500" lon="-8.4795150">
        <ele>250.3</ele>
        <time>2022-04-14T16:30:12Z</time>
      </trkpt>
      <trkpt lat="42.9294550" lon="-8.4794070">
        <ele>250.7</ele>
        <time>2022-04-14T16:30:13Z</time>
      </trkpt>
      <trkpt lat="42.9294880" lon="-8.4793720">
        <ele>250.9</ele>
        <time>2022-04-14T16:30:14Z</time>
      </trkpt>
      <trkpt lat="42.9296190" lon="-8.4792330">
        <ele>251.7</ele>
        <time>2022-04-14T16:30:15Z</time>
      </trkpt>
      <trkpt lat="42.9296830" lon="-8.4791650">
        <ele>252.2</ele>
        <time>2022-04-14T16:30:16Z</time>
      </trkpt>
      <trkpt lat="42.9297480" lon="-8.4790970">
        <ele>252.7</ele>
        <time>2022-04-14T16:30:17Z</time>
      </trkpt>
      <trkpt lat="42.9298080" lon="-8.4790270">
        <ele>253.3</ele>
        <time>2022-04-14T16:30:18Z</time>
      </trkpt>
      <trkpt lat="42.9298380" lon="-8.4789950">
        <ele>253.5</ele>
        <time>2022-04-14T16:30:19Z</time>
      </trkpt>
      <trkpt lat="42.9298680" lon="-8.4789620">
        <ele>253.8</ele>
        <time>2022-04-14T16:30:20Z</time>
      </trkpt>
      <trkpt lat="42.9299840" lon="-8.4788380">
        <ele>255.0</ele>
        <time>2022-04-14T16:30:21Z</time>
      </trkpt>
      <trkpt lat="42.9300380" lon="-8.4787790">
        <ele>255.6</ele>
        <time>2022-04-14T16:30:22Z</time>
      </trkpt>
      <trkpt lat="42.9300930" lon="-8.4787190">
        <ele>256.2</ele>
        <time>2022-04-14T16:30:23Z</time>
      </trkpt>
      <trkpt lat="42.9301470" lon="-8.4786660">
        <ele>256.8</ele>
        <time>2022-04-14T16:30:24Z</time>
      </trkpt>
      <trkpt lat="42.9301740" lon="-8.4786370">
        <ele>257.1</ele>
        <time>2022-04-14T16:30:25Z</time>
      </trkpt>
      <trkpt lat="42.9302000" lon="-8.4786070">
        <ele>257.4</ele>
        <time>2022-04-14T16:30:26Z</time>
      </trkpt>
      <trkpt lat="42.9302790" lon="-8.4785240">
        <ele>258.2</ele>
        <time>2022-04-14T16:30:27Z</time>
      </trkpt>
      <trkpt lat="42.9303030" lon="-8.4784990">
        <ele>258.5</ele>
        <time>2022-04-14T16:30:28Z</time>
      </trkpt>
      <trkpt lat="42.9304000" lon="-8.4783980">
        <ele>259.5</ele>
        <time>2022-04-14T16:30:29Z</time>
      </trkpt>
      <trkpt lat="42.9304480" lon="-8.4783470">
        <ele>260.0</ele>
        <time>2022-04-14T16:30:30Z</time>
      </trkpt>
      <trkpt lat="42.9304960" lon="-8.4782960">
        <ele>260.5</ele>
        <time>2022-04-14T16:30:31Z</time>
      </trkpt>
      <trkpt lat="42.9305410" lon="-8.4782450">
        <ele>260.9</ele>
        <time>2022-04-14T16:30:32Z</time>
      </trkpt>
      <trkpt lat="42.9305870" lon="-8.4782010">
        <ele>261.3</ele>
        <time>2022-04-14T16:30:33Z</time>
      </trkpt>
      <trkpt lat="42.9306330" lon="-8.4781570">
        <ele>261.6</ele>
        <time>2022-04-14T16:30:34Z</time>
      </trkpt>
      <trkpt lat="42.9306790" lon="-8.4781140">
        <ele>261.7</ele>
        <time>2022-04-14T16:30:35Z</time>
      </trkpt>
      <trkpt lat="42.9307220" lon="-8.4780640">
        <ele>261.9</ele>
        <time>2022-04-14T16:30:36Z</time>
      </trkpt>
      <trkpt lat="42.9307560" lon="-8.4780050">
        <ele>262.1</ele>
        <time>2022-04-14T16:30:37Z</time>
      </trkpt>
      <trkpt lat="42.9307900" lon="-8.4779450">
        <ele>262.4</ele>
        <time>2022-04-14T16:30:38Z</time>
      </trkpt>
      <trkpt lat="42.9308240" lon="-8.4778860">
        <ele>262.7</ele>
        <time>2022-04-14T16:30:39Z</time>
      </trkpt>
      <trkpt lat="42.9308630" lon="-8.4778340">
        <ele>263.0</ele>
        <time>2022-04-14T16:30:40Z</time>
      </trkpt>
      <trkpt lat="42.9308980" lon="-8.4777860">
        <ele>263.3</ele>
        <time>2022-04-14T16:30:41Z</time>
      </trkpt>
      <trkpt lat="42.9309330" lon="-8.4777370">
        <ele>263.6</ele>
        <time>2022-04-14T16:30:42Z</time>
      </trkpt>
      <trkpt lat="42.9309660" lon="-8.4776940">
        <ele>263.9</ele>
        <time>2022-04-14T16:30:43Z</time>
      </trkpt>
      <trkpt lat="42.9310000" lon="-8.4776500">
        <ele>264.1</ele>
        <time>2022-04-14T16:30:44Z</time>
      </trkpt>
      <trkpt lat="42.9310370" lon="-8.4776080">
        <ele>264.3</ele>
        <time>2022-04-14T16:30:45Z</time>
      </trkpt>
      <trkpt lat="42.9310740" lon="-8.4775670">
        <ele>264.6</ele>
        <time>2022-04-14T16:30:46Z</time>
      </trkpt>
      <trkpt lat="42.9311020" lon="-8.4775430">
        <ele>264.7</ele>
        <time>2022-04-14T16:30:47Z</time>
      </trkpt>
      <trkpt lat="42.9311310" lon="-8.4775190">
        <ele>264.8</ele>
        <time>2022-04-14T16:30:48Z</time>
      </trkpt>
      <trkpt lat="42.9311600" lon="-8.4774950">
        <ele>265.0</ele>
        <time>2022-04-14T16:30:49Z</time>
      </trkpt>
      <trkpt lat="42.9312350" lon="-8.4774070">
        <ele>265.3</ele>
        <time>2022-04-14T16:30:50Z</time>
      </trkpt>
      <trkpt lat="42.9312740" lon="-8.4773740">
        <ele>265.5</ele>
        <time>2022-04-14T16:30:51Z</time>
      </trkpt>
      <trkpt lat="42.9313130" lon="-8.4773400">
        <ele>265.7</ele>
        <time>2022-04-14T16:30:52Z</time>
      </trkpt>
      <trkpt lat="42.9313520" lon="-8.4773030">
        <ele>265.8</ele>
        <time>2022-04-14T16:30:53Z</time>
      </trkpt>
      <trkpt lat="42.9313920" lon="-8.4772660">
        <ele>265.9</ele>
        <time>2022-04-14T16:30:54Z</time>
      </trkpt>
      <trkpt lat="42.9314290" lon="-8.4772200">
        <ele>266.0</ele>
        <time>2022-04-14T16:30:55Z</time>
      </trkpt>
      <trkpt lat="42.9314670" lon="-8.4771750">
        <ele>266.1</ele>
        <time>2022-04-14T16:30:56Z</time>
      </trkpt>
      <trkpt lat="42.9315100" lon="-8.4771310">
        <ele>266.2</ele>
        <time>2022-04-14T16:30:57Z</time>
      </trkpt>
      <trkpt lat="42.9315540" lon="-8.4770860">
        <ele>266.2</ele>
        <time>2022-04-14T16:30:58Z</time>
      </trkpt>
      <trkpt lat="42.9315980" lon="-8.4770420">
        <ele>266.2</ele>
        <time>2022-04-14T16:30:59Z</time>
      </trkpt>
      <trkpt lat="42.9316430" lon="-8.4769900">
        <ele>266.3</ele>
        <time>2022-04-14T16:31:00Z</time>
      </trkpt>
      <trkpt lat="42.9316670" lon="-8.4769630">
        <ele>266.3</ele>
        <time>2022-04-14T16:31:01Z</time>
      </trkpt>
      <trkpt lat="42.9316910" lon="-8.4769360">
        <ele>266.3</ele>
        <time>2022-04-14T16:31:02Z</time>
      </trkpt>
      <trkpt lat="42.9317630" lon="-8.4768530">
        <ele>266.4</ele>
        <time>2022-04-14T16:31:03Z</time>
      </trkpt>
      <trkpt lat="42.9317880" lon="-8.4768250">
        <ele>266.4</ele>
        <time>2022-04-14T16:31:04Z</time>
      </trkpt>
      <trkpt lat="42.9318900" lon="-8.4767070">
        <ele>266.4</ele>
        <time>2022-04-14T16:31:05Z</time>
      </trkpt>
      <trkpt lat="42.9319430" lon="-8.4766460">
        <ele>266.3</ele>
        <time>2022-04-14T16:31:06Z</time>
      </trkpt>
      <trkpt lat="42.9319950" lon="-8.4765850">
        <ele>266.3</ele>
        <time>2022-04-14T16:31:07Z</time>
      </trkpt>
      <trkpt lat="42.9320500" lon="-8.4765250">
        <ele>266.3</ele>
        <time>2022-04-14T16:31:08Z</time>
      </trkpt>
      <trkpt lat="42.9320780" lon="-8.4764920">
        <ele>266.3</ele>
        <time>2022-04-14T16:31:09Z</time>
      </trkpt>
      <trkpt lat="42.9321070" lon="-8.4764600">
        <ele>266.2</ele>
        <time>2022-04-14T16:31:10Z</time>
      </trkpt>
      <trkpt lat="42.9322250" lon="-8.4763300">
        <ele>266.0</ele>
        <time>2022-04-14T16:31:11Z</time>
      </trkpt>
      <trkpt lat="42.9322870" lon="-8.4762660">
        <ele>265.8</ele>
        <time>2022-04-14T16:31:12Z</time>
      </trkpt>
      <trkpt lat="42.9323480" lon="-8.4762010">
        <ele>265.7</ele>
        <time>2022-04-14T16:31:13Z</time>
      </trkpt>
      <trkpt lat="42.9324090" lon="-8.4761360">
        <ele>265.7</ele>
        <time>2022-04-14T16:31:14Z</time>
      </trkpt>
      <trkpt lat="42.9324370" lon="-8.4761040">
        <ele>265.6</ele>
        <time>2022-04-14T16:31:15Z</time>
      </trkpt>
      <trkpt lat="42.9324650" lon="-8.4760720">
        <ele>265.6</ele>
        <time>2022-04-14T16:31:16Z</time>
      </trkpt>
      <trkpt lat="42.9325510" lon="-8.4759750">
        <ele>265.5</ele>
        <time>2022-04-14T16:31:17Z</time>
      </trkpt>
      <trkpt lat="42.9325810" lon="-8.4759420">
        <ele>265.4</ele>
        <time>2022-04-14T16:31:18Z</time>
      </trkpt>
      <trkpt lat="42.9327040" lon="-8.4758060">
        <ele>265.3</ele>
        <time>2022-04-14T16:31:19Z</time>
      </trkpt>
      <trkpt lat="42.9327650" lon="-8.4757360">
        <ele>265.2</ele>
        <time>2022-04-14T16:31:20Z</time>
      </trkpt>
      <trkpt lat="42.9328260" lon="-8.4756670">
        <ele>265.2</ele>
        <time>2022-04-14T16:31:21Z</time>
      </trkpt>
      <trkpt lat="42.9328890" lon="-8.4755970">
        <ele>265.1</ele>
        <time>2022-04-14T16:31:22Z</time>
      </trkpt>
      <trkpt lat="42.9329210" lon="-8.4755600">
        <ele>265.1</ele>
        <time>2022-04-14T16:31:23Z</time>
      </trkpt>
      <trkpt lat="42.9329530" lon="-8.4755230">
        <ele>265.1</ele>
        <time>2022-04-14T16:31:24Z</time>
      </trkpt>
      <trkpt lat="42.9330810" lon="-8.4753790">
        <ele>264.9</ele>
        <time>2022-04-14T16:31:25Z</time>
      </trkpt>
      <trkpt lat="42.9331460" lon="-8.4753080">
        <ele>264.8</ele>
        <time>2022-04-14T16:31:26Z</time>
      </trkpt>
      <trkpt lat="42.9332110" lon="-8.4752370">
        <ele>264.8</ele>
        <time>2022-04-14T16:31:27Z</time>
      </trkpt>
      <trkpt lat="42.9332780" lon="-8.4751670">
        <ele>264.8</ele>
        <time>2022-04-14T16:31:28Z</time>
      </trkpt>
      <trkpt lat="42.9333100" lon="-8.4751330">
        <ele>264.8</ele>
        <time>2022-04-14T16:31:29Z</time>
      </trkpt>
      <trkpt lat="42.9333410" lon="-8.4751000">
        <ele>264.8</ele>
        <time>2022-04-14T16:31:30Z</time>
      </trkpt>
      <trkpt lat="42.9334650" lon="-8.4749640">
        <ele>264.9</ele>
        <time>2022-04-14T16:31:31Z</time>
      </trkpt>
      <trkpt lat="42.9335270" lon="-8.4748950">
        <ele>265.0</ele>
        <time>2022-04-14T16:31:32Z</time>
      </trkpt>
      <trkpt lat="42.9335880" lon="-8.4748250">
        <ele>265.0</ele>
        <time>2022-04-14T16:31:33Z</time>
      </trkpt>
      <trkpt lat="42.9336480" lon="-8.4747560">
        <ele>265.1</ele>
        <time>2022-04-14T16:31:34Z</time>
      </trkpt>
      <trkpt lat="42.9336780" lon="-8.4747250">
        <ele>265.2</ele>
        <time>2022-04-14T16:31:35Z</time>
      </trkpt>
      <trkpt lat="42.9337080" lon="-8.4746940">
        <ele>265.2</ele>
        <time>2022-04-14T16:31:36Z</time>
      </trkpt>
      <trkpt lat="42.9338270" lon="-8.4745700">
        <ele>265.5</ele>
        <time>2022-04-14T16:31:37Z</time>
      </trkpt>
      <trkpt lat="42.9338860" lon="-8.4745080">
        <ele>265.6</ele>
        <time>2022-04-14T16:31:38Z</time>
      </trkpt>
      <trkpt lat="42.9339450" lon="-8.4744460">
        <ele>265.7</ele>
        <time>2022-04-14T16:31:39Z</time>
      </trkpt>
      <trkpt lat="42.9340030" lon="-8.4743830">
        <ele>265.9</ele>
        <time>2022-04-14T16:31:40Z</time>
      </trkpt>
      <trkpt lat="42.9340320" lon="-8.4743530">
        <ele>265.9</ele>
        <time>2022-04-14T16:31:41Z</time>
      </trkpt>
      <trkpt lat="42.9340610" lon="-8.4743230">
        <ele>266.0</ele>
        <time>2022-04-14T16:31:42Z</time>
      </trkpt>
      <trkpt lat="42.9341760" lon="-8.4742060">
        <ele>266.3</ele>
        <time>2022-04-14T16:31:43Z</time>
      </trkpt>
      <trkpt lat="42.9342340" lon="-8.4741480">
        <ele>266.5</ele>
        <time>2022-04-14T16:31:44Z</time>
      </trkpt>
      <trkpt lat="42.9342910" lon="-8.4740900">
        <ele>266.7</ele>
        <time>2022-04-14T16:31:45Z</time>
      </trkpt>
      <trkpt lat="42.9343450" lon="-8.4740330">
        <ele>266.9</ele>
        <time>2022-04-14T16:31:46Z</time>
      </trkpt>
      <trkpt lat="42.9343730" lon="-8.4740040">
        <ele>267.0</ele>
        <time>2022-04-14T16:31:47Z</time>
      </trkpt>
      <trkpt lat="42.9344000" lon="-8.4739750">
        <ele>267.1</ele>
        <time>2022-04-14T16:31:48Z</time>
      </trkpt>
      <trkpt lat="42.9345140" lon="-8.4738620">
        <ele>267.6</ele>
        <time>2022-04-14T16:31:49Z</time>
      </trkpt>
      <trkpt lat="42.9345720" lon="-8.4738060">
        <ele>267.9</ele>
        <time>2022-04-14T16:31:50Z</time>
      </trkpt>
      <trkpt lat="42.9346300" lon="-8.4737490">
        <ele>268.1</ele>
        <time>2022-04-14T16:31:51Z</time>
      </trkpt>
      <trkpt lat="42.9347170" lon="-8.4736670">
        <ele>268.5</ele>
        <time>2022-04-14T16:31:52Z</time>
      </trkpt>
      <trkpt lat="42.9347450" lon="-8.4736410">
        <ele>268.7</ele>
        <time>2022-04-14T16:31:53Z</time>
      </trkpt>
      <trkpt lat="42.9348010" lon="-8.4735880">
        <ele>268.9</ele>
        <time>2022-04-14T16:31:54Z</time>
      </trkpt>
      <trkpt lat="42.9348290" lon="-8.4735670">
        <ele>269.0</ele>
        <time>2022-04-14T16:31:55Z</time>
      </trkpt>
      <trkpt lat="42.9348560" lon="-8.4735470">
        <ele>269.1</ele>
        <time>2022-04-14T16:31:56Z</time>
      </trkpt>
      <trkpt lat="42.9349390" lon="-8.4734840">
        <ele>269.4</ele>
        <time>2022-04-14T16:31:57Z</time>
      </trkpt>
      <trkpt lat="42.9349670" lon="-8.4734620">
        <ele>269.5</ele>
        <time>2022-04-14T16:31:58Z</time>
      </trkpt>
      <trkpt lat="42.9350820" lon="-8.4733750">
        <ele>269.9</ele>
        <time>2022-04-14T16:31:59Z</time>
      </trkpt>
      <trkpt lat="42.9351400" lon="-8.4733320">
        <ele>270.1</ele>
        <time>2022-04-14T16:32:00Z</time>
      </trkpt>
      <trkpt lat="42.9351980" lon="-8.4732890">
        <ele>270.3</ele>
        <time>2022-04-14T16:32:01Z</time>
      </trkpt>
      <trkpt lat="42.9352570" lon="-8.4732520">
        <ele>270.5</ele>
        <time>2022-04-14T16:32:02Z</time>
      </trkpt>
      <trkpt lat="42.9352860" lon="-8.4732310">
        <ele>270.6</ele>
        <time>2022-04-14T16:32:03Z</time>
      </trkpt>
      <trkpt lat="42.9353150" lon="-8.4732100">
        <ele>270.7</ele>
        <time>2022-04-14T16:32:04Z</time>
      </trkpt>
      <trkpt lat="42.9354020" lon="-8.4731500">
        <ele>271.0</ele>
        <time>2022-04-14T16:32:05Z</time>
      </trkpt>
      <trkpt lat="42.9354320" lon="-8.4731310">
        <ele>271.0</ele>
        <time>2022-04-14T16:32:06Z</time>
      </trkpt>
      <trkpt lat="42.9355510" lon="-8.4730540">
        <ele>271.4</ele>
        <time>2022-04-14T16:32:07Z</time>
      </trkpt>
      <trkpt lat="42.9356100" lon="-8.4730140">
        <ele>271.6</ele>
        <time>2022-04-14T16:32:08Z</time>
      </trkpt>
      <trkpt lat="42.9356690" lon="-8.4729740">
        <ele>271.8</ele>
        <time>2022-04-14T16:32:09Z</time>
      </trkpt>
      <trkpt lat="42.9357250" lon="-8.4729340">
        <ele>272.0</ele>
        <time>2022-04-14T16:32:10Z</time>
      </trkpt>
      <trkpt lat="42.9357530" lon="-8.4729140">
        <ele>272.1</ele>
        <time>2022-04-14T16:32:11Z</time>
      </trkpt>
      <trkpt lat="42.9357810" lon="-8.4728940">
        <ele>272.2</ele>
        <time>2022-04-14T16:32:12Z</time>
      </trkpt>
      <trkpt lat="42.9358950" lon="-8.4728080">
        <ele>272.4</ele>
        <time>2022-04-14T16:32:13Z</time>
      </trkpt>
      <trkpt lat="42.9359510" lon="-8.4727620">
        <ele>272.6</ele>
        <time>2022-04-14T16:32:14Z</time>
      </trkpt>
      <trkpt lat="42.9360080" lon="-8.4727150">
        <ele>272.7</ele>
        <time>2022-04-14T16:32:15Z</time>
      </trkpt>
      <trkpt lat="42.9360640" lon="-8.4726740">
        <ele>272.9</ele>
        <time>2022-04-14T16:32:16Z</time>
      </trkpt>
      <trkpt lat="42.9360930" lon="-8.4726560">
        <ele>272.9</ele>
        <time>2022-04-14T16:32:17Z</time>
      </trkpt>
      <trkpt lat="42.9361230" lon="-8.4726380">
        <ele>273.0</ele>
        <time>2022-04-14T16:32:18Z</time>
      </trkpt>
      <trkpt lat="42.9362100" lon="-8.4725810">
        <ele>273.3</ele>
        <time>2022-04-14T16:32:19Z</time>
      </trkpt>
      <trkpt lat="42.9362390" lon="-8.4725600">
        <ele>273.4</ele>
        <time>2022-04-14T16:32:20Z</time>
      </trkpt>
      <trkpt lat="42.9363560" lon="-8.4724770">
        <ele>273.8</ele>
        <time>2022-04-14T16:32:21Z</time>
      </trkpt>
      <trkpt lat="42.9364170" lon="-8.4724360">
        <ele>274.0</ele>
        <time>2022-04-14T16:32:22Z</time>
      </trkpt>
      <trkpt lat="42.9364770" lon="-8.4723950">
        <ele>274.2</ele>
        <time>2022-04-14T16:32:23Z</time>
      </trkpt>
      <trkpt lat="42.9365380" lon="-8.4723540">
        <ele>274.4</ele>
        <time>2022-04-14T16:32:24Z</time>
      </trkpt>
      <trkpt lat="42.9365680" lon="-8.4723340">
        <ele>274.5</ele>
        <time>2022-04-14T16:32:25Z</time>
      </trkpt>
      <trkpt lat="42.9365980" lon="-8.4723150">
        <ele>274.6</ele>
        <time>2022-04-14T16:32:26Z</time>
      </trkpt>
      <trkpt lat="42.9367170" lon="-8.4722370">
        <ele>275.0</ele>
        <time>2022-04-14T16:32:27Z</time>
      </trkpt>
      <trkpt lat="42.9367750" lon="-8.4721990">
        <ele>275.2</ele>
        <time>2022-04-14T16:32:28Z</time>
      </trkpt>
      <trkpt lat="42.9368330" lon="-8.4721600">
        <ele>275.3</ele>
        <time>2022-04-14T16:32:29Z</time>
      </trkpt>
      <trkpt lat="42.9369210" lon="-8.4721010">
        <ele>275.6</ele>
        <time>2022-04-14T16:32:30Z</time>
      </trkpt>
      <trkpt lat="42.9369510" lon="-8.4720800">
        <ele>275.7</ele>
        <time>2022-04-14T16:32:31Z</time>
      </trkpt>
      <trkpt lat="42.9370100" lon="-8.4720380">
        <ele>275.9</ele>
        <time>2022-04-14T16:32:32Z</time>
      </trkpt>
      <trkpt lat="42.9370360" lon="-8.4720190">
        <ele>276.0</ele>
        <time>2022-04-14T16:32:33Z</time>
      </trkpt>
      <trkpt lat="42.9370620" lon="-8.4720000">
        <ele>276.1</ele>
        <time>2022-04-14T16:32:34Z</time>
      </trkpt>
      <trkpt lat="42.9371430" lon="-8.4719440">
        <ele>276.4</ele>
        <time>2022-04-14T16:32:35Z</time>
      </trkpt>
      <trkpt lat="42.9371710" lon="-8.4719260">
        <ele>276.5</ele>
        <time>2022-04-14T16:32:36Z</time>
      </trkpt>
      <trkpt lat="42.9372820" lon="-8.4718490">
        <ele>276.8</ele>
        <time>2022-04-14T16:32:37Z</time>
      </trkpt>
      <trkpt lat="42.9373370" lon="-8.4718100">
        <ele>277.0</ele>
        <time>2022-04-14T16:32:38Z</time>
      </trkpt>
      <trkpt lat="42.9373920" lon="-8.4717710">
        <ele>277.2</ele>
        <time>2022-04-14T16:32:39Z</time>
      </trkpt>
      <trkpt lat="42.9374480" lon="-8.4717330">
        <ele>277.4</ele>
        <time>2022-04-14T16:32:40Z</time>
      </trkpt>
      <trkpt lat="42.9374770" lon="-8.4717140">
        <ele>277.5</ele>
        <time>2022-04-14T16:32:41Z</time>
      </trkpt>
      <trkpt lat="42.9375070" lon="-8.4716950">
        <ele>277.5</ele>
        <time>2022-04-14T16:32:42Z</time>
      </trkpt>
      <trkpt lat="42.9375950" lon="-8.4716380">
        <ele>277.8</ele>
        <time>2022-04-14T16:32:43Z</time>
      </trkpt>
      <trkpt lat="42.9376230" lon="-8.4716180">
        <ele>277.9</ele>
        <time>2022-04-14T16:32:44Z</time>
      </trkpt>
      <trkpt lat="42.9377350" lon="-8.4715430">
        <ele>278.1</ele>
        <time>2022-04-14T16:32:45Z</time>
      </trkpt>
      <trkpt lat="42.9377920" lon="-8.4715070">
        <ele>278.2</ele>
        <time>2022-04-14T16:32:46Z</time>
      </trkpt>
      <trkpt lat="42.9378480" lon="-8.4714720">
        <ele>278.3</ele>
        <time>2022-04-14T16:32:47Z</time>
      </trkpt>
      <trkpt lat="42.9379070" lon="-8.4714360">
        <ele>278.3</ele>
        <time>2022-04-14T16:32:48Z</time>
      </trkpt>
      <trkpt lat="42.9379360" lon="-8.4714150">
        <ele>278.4</ele>
        <time>2022-04-14T16:32:49Z</time>
      </trkpt>
      <trkpt lat="42.9379650" lon="-8.4713940">
        <ele>278.4</ele>
        <time>2022-04-14T16:32:50Z</time>
      </trkpt>
      <trkpt lat="42.9380520" lon="-8.4713340">
        <ele>278.5</ele>
        <time>2022-04-14T16:32:51Z</time>
      </trkpt>
      <trkpt lat="42.9380810" lon="-8.4713160">
        <ele>278.5</ele>
        <time>2022-04-14T16:32:52Z</time>
      </trkpt>
      <trkpt lat="42.9381960" lon="-8.4712390">
        <ele>278.6</ele>
        <time>2022-04-14T16:32:53Z</time>
      </trkpt>
      <trkpt lat="42.9382530" lon="-8.4712000">
        <ele>278.6</ele>
        <time>2022-04-14T16:32:54Z</time>
      </trkpt>
      <trkpt lat="42.9383110" lon="-8.4711610">
        <ele>278.6</ele>
        <time>2022-04-14T16:32:55Z</time>
      </trkpt>
      <trkpt lat="42.9383690" lon="-8.4711230">
        <ele>278.6</ele>
        <time>2022-04-14T16:32:56Z</time>
      </trkpt>
      <trkpt lat="42.9383980" lon="-8.4711030">
        <ele>278.6</ele>
        <time>2022-04-14T16:32:57Z</time>
      </trkpt>
      <trkpt lat="42.9384280" lon="-8.4710830">
        <ele>278.7</ele>
        <time>2022-04-14T16:32:58Z</time>
      </trkpt>
      <trkpt lat="42.9385170" lon="-8.4710230">
        <ele>278.7</ele>
        <time>2022-04-14T16:32:59Z</time>
      </trkpt>
      <trkpt lat="42.9385470" lon="-8.4710030">
        <ele>278.7</ele>
        <time>2022-04-14T16:33:00Z</time>
      </trkpt>
      <trkpt lat="42.9386650" lon="-8.4709220">
        <ele>278.7</ele>
        <time>2022-04-14T16:33:01Z</time>
      </trkpt>
      <trkpt lat="42.9387250" lon="-8.4708820">
        <ele>278.7</ele>
        <time>2022-04-14T16:33:02Z</time>
      </trkpt>
      <trkpt lat="42.9387850" lon="-8.4708420">
        <ele>278.7</ele>
        <time>2022-04-14T16:33:03Z</time>
      </trkpt>
      <trkpt lat="42.9388440" lon="-8.4708000">
        <ele>278.7</ele>
        <time>2022-04-14T16:33:04Z</time>
      </trkpt>
      <trkpt lat="42.9389040" lon="-8.4707600">
        <ele>278.7</ele>
        <time>2022-04-14T16:33:05Z</time>
      </trkpt>
      <trkpt lat="42.9389630" lon="-8.4707200">
        <ele>278.7</ele>
        <time>2022-04-14T16:33:06Z</time>
      </trkpt>
      <trkpt lat="42.9390230" lon="-8.4706800">
        <ele>278.7</ele>
        <time>2022-04-14T16:33:07Z</time>
      </trkpt>
      <trkpt lat="42.9391150" lon="-8.4706200">
        <ele>278.7</ele>
        <time>2022-04-14T16:33:08Z</time>
      </trkpt>
      <trkpt lat="42.9391450" lon="-8.4706010">
        <ele>278.8</ele>
        <time>2022-04-14T16:33:09Z</time>
      </trkpt>
      <trkpt lat="42.9392060" lon="-8.4705640">
        <ele>278.8</ele>
        <time>2022-04-14T16:33:10Z</time>
      </trkpt>
      <trkpt lat="42.9392350" lon="-8.4705450">
        <ele>278.8</ele>
        <time>2022-04-14T16:33:11Z</time>
      </trkpt>
      <trkpt lat="42.9392640" lon="-8.4705250">
        <ele>278.8</ele>
        <time>2022-04-14T16:33:12Z</time>
      </trkpt>
      <trkpt lat="42.9393520" lon="-8.4704650">
        <ele>278.9</ele>
        <time>2022-04-14T16:33:13Z</time>
      </trkpt>
      <trkpt lat="42.9393810" lon="-8.4704450">
        <ele>278.9</ele>
        <time>2022-04-14T16:33:14Z</time>
      </trkpt>
      <trkpt lat="42.9394960" lon="-8.4703650">
        <ele>278.9</ele>
        <time>2022-04-14T16:33:15Z</time>
      </trkpt>
      <trkpt lat="42.9395540" lon="-8.4703250">
        <ele>279.0</ele>
        <time>2022-04-14T16:33:16Z</time>
      </trkpt>
      <trkpt lat="42.9396110" lon="-8.4702850">
        <ele>279.0</ele>
        <time>2022-04-14T16:33:17Z</time>
      </trkpt>
      <trkpt lat="42.9396700" lon="-8.4702440">
        <ele>279.1</ele>
        <time>2022-04-14T16:33:18Z</time>
      </trkpt>
      <trkpt lat="42.9396990" lon="-8.4702240">
        <ele>279.1</ele>
        <time>2022-04-14T16:33:19Z</time>
      </trkpt>
      <trkpt lat="42.9397290" lon="-8.4702040">
        <ele>279.1</ele>
        <time>2022-04-14T16:33:20Z</time>
      </trkpt>
      <trkpt lat="42.9398170" lon="-8.4701450">
        <ele>279.2</ele>
        <time>2022-04-14T16:33:21Z</time>
      </trkpt>
      <trkpt lat="42.9398470" lon="-8.4701260">
        <ele>279.2</ele>
        <time>2022-04-14T16:33:22Z</time>
      </trkpt>
      <trkpt lat="42.9399660" lon="-8.4700460">
        <ele>279.3</ele>
        <time>2022-04-14T16:33:23Z</time>
      </trkpt>
      <trkpt lat="42.9400250" lon="-8.4700060">
        <ele>279.4</ele>
        <time>2022-04-14T16:33:24Z</time>
      </trkpt>
      <trkpt lat="42.9400850" lon="-8.4699650">
        <ele>279.5</ele>
        <time>2022-04-14T16:33:25Z</time>
      </trkpt>
      <trkpt lat="42.9401460" lon="-8.4699240">
        <ele>279.6</ele>
        <time>2022-04-14T16:33:26Z</time>
      </trkpt>
      <trkpt lat="42.9401770" lon="-8.4699030">
        <ele>279.6</ele>
        <time>2022-04-14T16:33:27Z</time>
      </trkpt>
      <trkpt lat="42.9402080" lon="-8.4698810">
        <ele>279.6</ele>
        <time>2022-04-14T16:33:28Z</time>
      </trkpt>
      <trkpt lat="42.9402980" lon="-8.4698200">
        <ele>279.8</ele>
        <time>2022-04-14T16:33:29Z</time>
      </trkpt>
      <trkpt lat="42.9403270" lon="-8.4698010">
        <ele>279.9</ele>
        <time>2022-04-14T16:33:30Z</time>
      </trkpt>
      <trkpt lat="42.9404400" lon="-8.4697250">
        <ele>280.2</ele>
        <time>2022-04-14T16:33:31Z</time>
      </trkpt>
      <trkpt lat="42.9404970" lon="-8.4696880">
        <ele>280.4</ele>
        <time>2022-04-14T16:33:32Z</time>
      </trkpt>
      <trkpt lat="42.9405530" lon="-8.4696500">
        <ele>280.6</ele>
        <time>2022-04-14T16:33:33Z</time>
      </trkpt>
      <trkpt lat="42.9406080" lon="-8.4696100">
        <ele>280.8</ele>
        <time>2022-04-14T16:33:34Z</time>
      </trkpt>
      <trkpt lat="42.9406340" lon="-8.4695900">
        <ele>280.9</ele>
        <time>2022-04-14T16:33:35Z</time>
      </trkpt>
      <trkpt lat="42.9406590" lon="-8.4695690">
        <ele>281.0</ele>
        <time>2022-04-14T16:33:36Z</time>
      </trkpt>
      <trkpt lat="42.9407340" lon="-8.4695080">
        <ele>281.4</ele>
        <time>2022-04-14T16:33:37Z</time>
      </trkpt>
      <trkpt lat="42.9407580" lon="-8.4694890">
        <ele>281.5</ele>
        <time>2022-04-14T16:33:38Z</time>
      </trkpt>
      <trkpt lat="42.9408570" lon="-8.4694160">
        <ele>282.0</ele>
        <time>2022-04-14T16:33:39Z</time>
      </trkpt>
      <trkpt lat="42.9409090" lon="-8.4693810">
        <ele>282.3</ele>
        <time>2022-04-14T16:33:40Z</time>
      </trkpt>
      <trkpt lat="42.9409610" lon="-8.4693460">
        <ele>282.5</ele>
        <time>2022-04-14T16:33:41Z</time>
      </trkpt>
      <trkpt lat="42.9410120" lon="-8.4693110">
        <ele>282.8</ele>
        <time>2022-04-14T16:33:42Z</time>
      </trkpt>
      <trkpt lat="42.9410580" lon="-8.4692760">
        <ele>283.1</ele>
        <time>2022-04-14T16:33:43Z</time>
      </trkpt>
      <trkpt lat="42.9411040" lon="-8.4692410">
        <ele>283.3</ele>
        <time>2022-04-14T16:33:44Z</time>
      </trkpt>
      <trkpt lat="42.9411500" lon="-8.4692060">
        <ele>283.6</ele>
        <time>2022-04-14T16:33:45Z</time>
      </trkpt>
      <trkpt lat="42.9411970" lon="-8.4691740">
        <ele>283.8</ele>
        <time>2022-04-14T16:33:46Z</time>
      </trkpt>
      <trkpt lat="42.9412390" lon="-8.4691430">
        <ele>284.0</ele>
        <time>2022-04-14T16:33:47Z</time>
      </trkpt>
      <trkpt lat="42.9412810" lon="-8.4691120">
        <ele>284.2</ele>
        <time>2022-04-14T16:33:48Z</time>
      </trkpt>
      <trkpt lat="42.9413100" lon="-8.4690930">
        <ele>284.3</ele>
        <time>2022-04-14T16:33:49Z</time>
      </trkpt>
      <trkpt lat="42.9413390" lon="-8.4690740">
        <ele>284.5</ele>
        <time>2022-04-14T16:33:50Z</time>
      </trkpt>
      <trkpt lat="42.9413680" lon="-8.4690540">
        <ele>284.6</ele>
        <time>2022-04-14T16:33:51Z</time>
      </trkpt>
      <trkpt lat="42.9414550" lon="-8.4689950">
        <ele>285.0</ele>
        <time>2022-04-14T16:33:52Z</time>
      </trkpt>
      <trkpt lat="42.9414980" lon="-8.4689620">
        <ele>285.2</ele>
        <time>2022-04-14T16:33:53Z</time>
      </trkpt>
      <trkpt lat="42.9415410" lon="-8.4689290">
        <ele>285.4</ele>
        <time>2022-04-14T16:33:54Z</time>
      </trkpt>
      <trkpt lat="42.9415810" lon="-8.4689020">
        <ele>285.6</ele>
        <time>2022-04-14T16:33:55Z</time>
      </trkpt>
      <trkpt lat="42.9416220" lon="-8.4688740">
        <ele>285.8</ele>
        <time>2022-04-14T16:33:56Z</time>
      </trkpt>
      <trkpt lat="42.9416440" lon="-8.4688600">
        <ele>285.9</ele>
        <time>2022-04-14T16:33:57Z</time>
      </trkpt>
      <trkpt lat="42.9416670" lon="-8.4688460">
        <ele>286.0</ele>
        <time>2022-04-14T16:33:58Z</time>
      </trkpt>
      <trkpt lat="42.9417390" lon="-8.4687980">
        <ele>286.3</ele>
        <time>2022-04-14T16:33:59Z</time>
      </trkpt>
      <trkpt lat="42.9417670" lon="-8.4687790">
        <ele>286.4</ele>
        <time>2022-04-14T16:34:00Z</time>
      </trkpt>
      <trkpt lat="42.9417950" lon="-8.4687600">
        <ele>286.5</ele>
        <time>2022-04-14T16:34:01Z</time>
      </trkpt>
      <trkpt lat="42.9418840" lon="-8.4687030">
        <ele>286.9</ele>
        <time>2022-04-14T16:34:02Z</time>
      </trkpt>
      <trkpt lat="42.9419300" lon="-8.4686730">
        <ele>287.0</ele>
        <time>2022-04-14T16:34:03Z</time>
      </trkpt>
      <trkpt lat="42.9419750" lon="-8.4686440">
        <ele>287.2</ele>
        <time>2022-04-14T16:34:04Z</time>
      </trkpt>
      <trkpt lat="42.9420180" lon="-8.4686120">
        <ele>287.4</ele>
        <time>2022-04-14T16:34:05Z</time>
      </trkpt>
      <trkpt lat="42.9420600" lon="-8.4685810">
        <ele>287.5</ele>
        <time>2022-04-14T16:34:06Z</time>
      </trkpt>
      <trkpt lat="42.9421040" lon="-8.4685520">
        <ele>287.7</ele>
        <time>2022-04-14T16:34:07Z</time>
      </trkpt>
      <trkpt lat="42.9421480" lon="-8.4685230">
        <ele>287.8</ele>
        <time>2022-04-14T16:34:08Z</time>
      </trkpt>
      <trkpt lat="42.9421780" lon="-8.4685040">
        <ele>287.9</ele>
        <time>2022-04-14T16:34:09Z</time>
      </trkpt>
      <trkpt lat="42.9422070" lon="-8.4684850">
        <ele>288.0</ele>
        <time>2022-04-14T16:34:10Z</time>
      </trkpt>
      <trkpt lat="42.9422360" lon="-8.4684660">
        <ele>288.1</ele>
        <time>2022-04-14T16:34:11Z</time>
      </trkpt>
      <trkpt lat="42.9423200" lon="-8.4684130">
        <ele>288.5</ele>
        <time>2022-04-14T16:34:12Z</time>
      </trkpt>
      <trkpt lat="42.9423610" lon="-8.4683820">
        <ele>288.6</ele>
        <time>2022-04-14T16:34:13Z</time>
      </trkpt>
      <trkpt lat="42.9424010" lon="-8.4683510">
        <ele>288.8</ele>
        <time>2022-04-14T16:34:14Z</time>
      </trkpt>
      <trkpt lat="42.9424420" lon="-8.4683260">
        <ele>289.0</ele>
        <time>2022-04-14T16:34:15Z</time>
      </trkpt>
      <trkpt lat="42.9424830" lon="-8.4683020">
        <ele>289.2</ele>
        <time>2022-04-14T16:34:16Z</time>
      </trkpt>
      <trkpt lat="42.9425040" lon="-8.4682890">
        <ele>289.3</ele>
        <time>2022-04-14T16:34:17Z</time>
      </trkpt>
      <trkpt lat="42.9425240" lon="-8.4682760">
        <ele>289.4</ele>
        <time>2022-04-14T16:34:18Z</time>
      </trkpt>
      <trkpt lat="42.9425440" lon="-8.4682630">
        <ele>289.5</ele>
        <time>2022-04-14T16:34:19Z</time>
      </trkpt>
      <trkpt lat="42.9426350" lon="-8.4682030">
        <ele>290.0</ele>
        <time>2022-04-14T16:34:20Z</time>
      </trkpt>
      <trkpt lat="42.9426650" lon="-8.4681820">
        <ele>290.2</ele>
        <time>2022-04-14T16:34:21Z</time>
      </trkpt>
      <trkpt lat="42.9426950" lon="-8.4681610">
        <ele>290.4</ele>
        <time>2022-04-14T16:34:22Z</time>
      </trkpt>
      <trkpt lat="42.9427240" lon="-8.4681410">
        <ele>290.7</ele>
        <time>2022-04-14T16:34:23Z</time>
      </trkpt>
      <trkpt lat="42.9427540" lon="-8.4681220">
        <ele>290.9</ele>
        <time>2022-04-14T16:34:24Z</time>
      </trkpt>
      <trkpt lat="42.9427830" lon="-8.4681030">
        <ele>291.1</ele>
        <time>2022-04-14T16:34:25Z</time>
      </trkpt>
      <trkpt lat="42.9428610" lon="-8.4680540">
        <ele>291.8</ele>
        <time>2022-04-14T16:34:26Z</time>
      </trkpt>
      <trkpt lat="42.9428810" lon="-8.4680420">
        <ele>292.0</ele>
        <time>2022-04-14T16:34:27Z</time>
      </trkpt>
      <trkpt lat="42.9429010" lon="-8.4680300">
        <ele>292.1</ele>
        <time>2022-04-14T16:34:28Z</time>
      </trkpt>
      <trkpt lat="42.9429800" lon="-8.4679810">
        <ele>292.8</ele>
        <time>2022-04-14T16:34:29Z</time>
      </trkpt>
      <trkpt lat="42.9429990" lon="-8.4679680">
        <ele>293.0</ele>
        <time>2022-04-14T16:34:30Z</time>
      </trkpt>
      <trkpt lat="42.9430180" lon="-8.4679540">
        <ele>293.2</ele>
        <time>2022-04-14T16:34:31Z</time>
      </trkpt>
      <trkpt lat="42.9431050" lon="-8.4678930">
        <ele>294.1</ele>
        <time>2022-04-14T16:34:32Z</time>
      </trkpt>
      <trkpt lat="42.9431330" lon="-8.4678720">
        <ele>294.4</ele>
        <time>2022-04-14T16:34:33Z</time>
      </trkpt>
      <trkpt lat="42.9431610" lon="-8.4678510">
        <ele>294.7</ele>
        <time>2022-04-14T16:34:34Z</time>
      </trkpt>
      <trkpt lat="42.9431890" lon="-8.4678310">
        <ele>295.0</ele>
        <time>2022-04-14T16:34:35Z</time>
      </trkpt>
      <trkpt lat="42.9432180" lon="-8.4678110">
        <ele>295.3</ele>
        <time>2022-04-14T16:34:36Z</time>
      </trkpt>
      <trkpt lat="42.9432460" lon="-8.4677920">
        <ele>295.6</ele>
        <time>2022-04-14T16:34:37Z</time>
      </trkpt>
      <trkpt lat="42.9433300" lon="-8.4677310">
        <ele>296.6</ele>
        <time>2022-04-14T16:34:38Z</time>
      </trkpt>
      <trkpt lat="42.9433580" lon="-8.4677080">
        <ele>296.9</ele>
        <time>2022-04-14T16:34:39Z</time>
      </trkpt>
      <trkpt lat="42.9433850" lon="-8.4676850">
        <ele>297.2</ele>
        <time>2022-04-14T16:34:40Z</time>
      </trkpt>
      <trkpt lat="42.9434130" lon="-8.4676590">
        <ele>297.5</ele>
        <time>2022-04-14T16:34:41Z</time>
      </trkpt>
      <trkpt lat="42.9434410" lon="-8.4676340">
        <ele>297.8</ele>
        <time>2022-04-14T16:34:42Z</time>
      </trkpt>
      <trkpt lat="42.9434680" lon="-8.4676090">
        <ele>298.1</ele>
        <time>2022-04-14T16:34:43Z</time>
      </trkpt>
      <trkpt lat="42.9434910" lon="-8.4675900">
        <ele>298.2</ele>
        <time>2022-04-14T16:34:44Z</time>
      </trkpt>
      <trkpt lat="42.9435130" lon="-8.4675710">
        <ele>298.2</ele>
        <time>2022-04-14T16:34:45Z</time>
      </trkpt>
      <trkpt lat="42.9435350" lon="-8.4675520">
        <ele>298.2</ele>
        <time>2022-04-14T16:34:46Z</time>
      </trkpt>
      <trkpt lat="42.9435570" lon="-8.4675340">
        <ele>298.3</ele>
        <time>2022-04-14T16:34:47Z</time>
      </trkpt>
      <trkpt lat="42.9435850" lon="-8.4675150">
        <ele>298.6</ele>
        <time>2022-04-14T16:34:48Z</time>
      </trkpt>
      <trkpt lat="42.9436130" lon="-8.4674970">
        <ele>298.9</ele>
        <time>2022-04-14T16:34:49Z</time>
      </trkpt>
      <trkpt lat="42.9436860" lon="-8.4674480">
        <ele>299.6</ele>
        <time>2022-04-14T16:34:50Z</time>
      </trkpt>
      <trkpt lat="42.9437030" lon="-8.4674360">
        <ele>299.8</ele>
        <time>2022-04-14T16:34:51Z</time>
      </trkpt>
      <trkpt lat="42.9437210" lon="-8.4674230">
        <ele>299.9</ele>
        <time>2022-04-14T16:34:52Z</time>
      </trkpt>
      <trkpt lat="42.9437910" lon="-8.4673740">
        <ele>300.6</ele>
        <time>2022-04-14T16:34:53Z</time>
      </trkpt>
      <trkpt lat="42.9438090" lon="-8.4673620">
        <ele>300.8</ele>
        <time>2022-04-14T16:34:54Z</time>
      </trkpt>
      <trkpt lat="42.9438260" lon="-8.4673510">
        <ele>301.0</ele>
        <time>2022-04-14T16:34:55Z</time>
      </trkpt>
      <trkpt lat="42.9439070" lon="-8.4672980">
        <ele>301.8</ele>
        <time>2022-04-14T16:34:56Z</time>
      </trkpt>
      <trkpt lat="42.9439340" lon="-8.4672810">
        <ele>302.0</ele>
        <time>2022-04-14T16:34:57Z</time>
      </trkpt>
      <trkpt lat="42.9439610" lon="-8.4672640">
        <ele>302.3</ele>
        <time>2022-04-14T16:34:58Z</time>
      </trkpt>
      <trkpt lat="42.9439880" lon="-8.4672470">
        <ele>302.5</ele>
        <time>2022-04-14T16:34:59Z</time>
      </trkpt>
      <trkpt lat="42.9440150" lon="-8.4672300">
        <ele>302.8</ele>
        <time>2022-04-14T16:35:00Z</time>
      </trkpt>
      <trkpt lat="42.9440420" lon="-8.4672140">
        <ele>303.0</ele>
        <time>2022-04-14T16:35:01Z</time>
      </trkpt>
      <trkpt lat="42.9441140" lon="-8.4671700">
        <ele>303.7</ele>
        <time>2022-04-14T16:35:02Z</time>
      </trkpt>
      <trkpt lat="42.9441320" lon="-8.4671590">
        <ele>303.8</ele>
        <time>2022-04-14T16:35:03Z</time>
      </trkpt>
      <trkpt lat="42.9441500" lon="-8.4671470">
        <ele>304.0</ele>
        <time>2022-04-14T16:35:04Z</time>
      </trkpt>
      <trkpt lat="42.9442220" lon="-8.4671020">
        <ele>304.6</ele>
        <time>2022-04-14T16:35:05Z</time>
      </trkpt>
      <trkpt lat="42.9442400" lon="-8.4670910">
        <ele>304.8</ele>
        <time>2022-04-14T16:35:06Z</time>
      </trkpt>
      <trkpt lat="42.9442580" lon="-8.4670810">
        <ele>304.9</ele>
        <time>2022-04-14T16:35:07Z</time>
      </trkpt>
      <trkpt lat="42.9443390" lon="-8.4670290">
        <ele>305.7</ele>
        <time>2022-04-14T16:35:08Z</time>
      </trkpt>
      <trkpt lat="42.9443650" lon="-8.4670090">
        <ele>305.9</ele>
        <time>2022-04-14T16:35:09Z</time>
      </trkpt>
      <trkpt lat="42.9443920" lon="-8.4669900">
        <ele>306.2</ele>
        <time>2022-04-14T16:35:10Z</time>
      </trkpt>
      <trkpt lat="42.9444180" lon="-8.4669700">
        <ele>306.4</ele>
        <time>2022-04-14T16:35:11Z</time>
      </trkpt>
      <trkpt lat="42.9444460" lon="-8.4669530">
        <ele>306.7</ele>
        <time>2022-04-14T16:35:12Z</time>
      </trkpt>
      <trkpt lat="42.9444730" lon="-8.4669370">
        <ele>306.9</ele>
        <time>2022-04-14T16:35:13Z</time>
      </trkpt>
      <trkpt lat="42.9445460" lon="-8.4668920">
        <ele>307.5</ele>
        <time>2022-04-14T16:35:14Z</time>
      </trkpt>
      <trkpt lat="42.9445630" lon="-8.4668810">
        <ele>307.7</ele>
        <time>2022-04-14T16:35:15Z</time>
      </trkpt>
      <trkpt lat="42.9445800" lon="-8.4668690">
        <ele>307.8</ele>
        <time>2022-04-14T16:35:16Z</time>
      </trkpt>
      <trkpt lat="42.9446590" lon="-8.4668130">
        <ele>308.4</ele>
        <time>2022-04-14T16:35:17Z</time>
      </trkpt>
      <trkpt lat="42.9446860" lon="-8.4667920">
        <ele>308.6</ele>
        <time>2022-04-14T16:35:18Z</time>
      </trkpt>
      <trkpt lat="42.9447130" lon="-8.4667700">
        <ele>308.8</ele>
        <time>2022-04-14T16:35:19Z</time>
      </trkpt>
      <trkpt lat="42.9447400" lon="-8.4667490">
        <ele>309.0</ele>
        <time>2022-04-14T16:35:20Z</time>
      </trkpt>
      <trkpt lat="42.9447680" lon="-8.4667300">
        <ele>309.3</ele>
        <time>2022-04-14T16:35:21Z</time>
      </trkpt>
      <trkpt lat="42.9447970" lon="-8.4667100">
        <ele>309.4</ele>
        <time>2022-04-14T16:35:22Z</time>
      </trkpt>
      <trkpt lat="42.9448810" lon="-8.4666530">
        <ele>309.8</ele>
        <time>2022-04-14T16:35:23Z</time>
      </trkpt>
      <trkpt lat="42.9449080" lon="-8.4666350">
        <ele>309.9</ele>
        <time>2022-04-14T16:35:24Z</time>
      </trkpt>
      <trkpt lat="42.9449350" lon="-8.4666170">
        <ele>310.0</ele>
        <time>2022-04-14T16:35:25Z</time>
      </trkpt>
      <trkpt lat="42.9450190" lon="-8.4665610">
        <ele>310.4</ele>
        <time>2022-04-14T16:35:26Z</time>
      </trkpt>
      <trkpt lat="42.9450620" lon="-8.4665350">
        <ele>310.5</ele>
        <time>2022-04-14T16:35:27Z</time>
      </trkpt>
      <trkpt lat="42.9451050" lon="-8.4665090">
        <ele>310.6</ele>
        <time>2022-04-14T16:35:28Z</time>
      </trkpt>
      <trkpt lat="42.9451480" lon="-8.4664800">
        <ele>310.7</ele>
        <time>2022-04-14T16:35:29Z</time>
      </trkpt>
      <trkpt lat="42.9451900" lon="-8.4664510">
        <ele>310.8</ele>
        <time>2022-04-14T16:35:30Z</time>
      </trkpt>
      <trkpt lat="42.9452350" lon="-8.4664270">
        <ele>310.9</ele>
        <time>2022-04-14T16:35:31Z</time>
      </trkpt>
      <trkpt lat="42.9452790" lon="-8.4664030">
        <ele>310.9</ele>
        <time>2022-04-14T16:35:32Z</time>
      </trkpt>
      <trkpt lat="42.9453080" lon="-8.4663840">
        <ele>310.9</ele>
        <time>2022-04-14T16:35:33Z</time>
      </trkpt>
      <trkpt lat="42.9453360" lon="-8.4663650">
        <ele>310.9</ele>
        <time>2022-04-14T16:35:34Z</time>
      </trkpt>
      <trkpt lat="42.9453640" lon="-8.4663470">
        <ele>310.9</ele>
        <time>2022-04-14T16:35:35Z</time>
      </trkpt>
      <trkpt lat="42.9454560" lon="-8.4662930">
        <ele>310.9</ele>
        <time>2022-04-14T16:35:36Z</time>
      </trkpt>
      <trkpt lat="42.9454880" lon="-8.4662730">
        <ele>310.8</ele>
        <time>2022-04-14T16:35:37Z</time>
      </trkpt>
      <trkpt lat="42.9455200" lon="-8.4662530">
        <ele>310.8</ele>
        <time>2022-04-14T16:35:38Z</time>
      </trkpt>
      <trkpt lat="42.9455520" lon="-8.4662340">
        <ele>310.7</ele>
        <time>2022-04-14T16:35:39Z</time>
      </trkpt>
      <trkpt lat="42.9456560" lon="-8.4661600">
        <ele>310.4</ele>
        <time>2022-04-14T16:35:40Z</time>
      </trkpt>
      <trkpt lat="42.9456820" lon="-8.4661420">
        <ele>310.3</ele>
        <time>2022-04-14T16:35:41Z</time>
      </trkpt>
      <trkpt lat="42.9457080" lon="-8.4661240">
        <ele>310.2</ele>
        <time>2022-04-14T16:35:42Z</time>
      </trkpt>
      <trkpt lat="42.9458140" lon="-8.4660480">
        <ele>309.9</ele>
        <time>2022-04-14T16:35:43Z</time>
      </trkpt>
      <trkpt lat="42.9458680" lon="-8.4660090">
        <ele>309.8</ele>
        <time>2022-04-14T16:35:44Z</time>
      </trkpt>
      <trkpt lat="42.9459210" lon="-8.4659700">
        <ele>309.6</ele>
        <time>2022-04-14T16:35:45Z</time>
      </trkpt>
      <trkpt lat="42.9459790" lon="-8.4659300">
        <ele>309.4</ele>
        <time>2022-04-14T16:35:46Z</time>
      </trkpt>
      <trkpt lat="42.9460090" lon="-8.4659080">
        <ele>309.3</ele>
        <time>2022-04-14T16:35:47Z</time>
      </trkpt>
      <trkpt lat="42.9460400" lon="-8.4658870">
        <ele>309.2</ele>
        <time>2022-04-14T16:35:48Z</time>
      </trkpt>
      <trkpt lat="42.9461650" lon="-8.4657960">
        <ele>308.7</ele>
        <time>2022-04-14T16:35:49Z</time>
      </trkpt>
      <trkpt lat="42.9462300" lon="-8.4657490">
        <ele>308.4</ele>
        <time>2022-04-14T16:35:50Z</time>
      </trkpt>
      <trkpt lat="42.9462950" lon="-8.4657020">
        <ele>308.1</ele>
        <time>2022-04-14T16:35:51Z</time>
      </trkpt>
      <trkpt lat="42.9463620" lon="-8.4656500">
        <ele>307.7</ele>
        <time>2022-04-14T16:35:52Z</time>
      </trkpt>
      <trkpt lat="42.9463960" lon="-8.4656230">
        <ele>307.6</ele>
        <time>2022-04-14T16:35:53Z</time>
      </trkpt>
      <trkpt lat="42.9464290" lon="-8.4655960">
        <ele>307.4</ele>
        <time>2022-04-14T16:35:54Z</time>
      </trkpt>
      <trkpt lat="42.9465300" lon="-8.4655160">
        <ele>306.8</ele>
        <time>2022-04-14T16:35:55Z</time>
      </trkpt>
      <trkpt lat="42.9465640" lon="-8.4654900">
        <ele>306.6</ele>
        <time>2022-04-14T16:35:56Z</time>
      </trkpt>
      <trkpt lat="42.9467040" lon="-8.4653830">
        <ele>305.9</ele>
        <time>2022-04-14T16:35:57Z</time>
      </trkpt>
      <trkpt lat="42.9467760" lon="-8.4653270">
        <ele>305.6</ele>
        <time>2022-04-14T16:35:58Z</time>
      </trkpt>
      <trkpt lat="42.9468480" lon="-8.4652710">
        <ele>305.2</ele>
        <time>2022-04-14T16:35:59Z</time>
      </trkpt>
      <trkpt lat="42.9469200" lon="-8.4652150">
        <ele>304.8</ele>
        <time>2022-04-14T16:36:00Z</time>
      </trkpt>
      <trkpt lat="42.9470010" lon="-8.4651530">
        <ele>304.4</ele>
        <time>2022-04-14T16:36:01Z</time>
      </trkpt>
      <trkpt lat="42.9470660" lon="-8.4651040">
        <ele>304.1</ele>
        <time>2022-04-14T16:36:02Z</time>
      </trkpt>
      <trkpt lat="42.9471310" lon="-8.4650540">
        <ele>303.8</ele>
        <time>2022-04-14T16:36:03Z</time>
      </trkpt>
      <trkpt lat="42.9471960" lon="-8.4650040">
        <ele>303.5</ele>
        <time>2022-04-14T16:36:04Z</time>
      </trkpt>
      <trkpt lat="42.9472950" lon="-8.4649310">
        <ele>303.0</ele>
        <time>2022-04-14T16:36:05Z</time>
      </trkpt>
      <trkpt lat="42.9473530" lon="-8.4648880">
        <ele>302.8</ele>
        <time>2022-04-14T16:36:06Z</time>
      </trkpt>
      <trkpt lat="42.9474700" lon="-8.4648020">
        <ele>302.2</ele>
        <time>2022-04-14T16:36:07Z</time>
      </trkpt>
      <trkpt lat="42.9475700" lon="-8.4647220">
        <ele>301.8</ele>
        <time>2022-04-14T16:36:08Z</time>
      </trkpt>
      <trkpt lat="42.9475910" lon="-8.4647060">
        <ele>301.8</ele>
        <time>2022-04-14T16:36:09Z</time>
      </trkpt>
      <trkpt lat="42.9476710" lon="-8.4646420">
        <ele>301.7</ele>
        <time>2022-04-14T16:36:10Z</time>
      </trkpt>
      <trkpt lat="42.9477100" lon="-8.4646110">
        <ele>301.4</ele>
        <time>2022-04-14T16:36:11Z</time>
      </trkpt>
      <trkpt lat="42.9478680" lon="-8.4644870">
        <ele>300.5</ele>
        <time>2022-04-14T16:36:12Z</time>
      </trkpt>
      <trkpt lat="42.9479470" lon="-8.4644240">
        <ele>300.1</ele>
        <time>2022-04-14T16:36:13Z</time>
      </trkpt>
      <trkpt lat="42.9480270" lon="-8.4643620">
        <ele>299.6</ele>
        <time>2022-04-14T16:36:14Z</time>
      </trkpt>
      <trkpt lat="42.9481090" lon="-8.4642990">
        <ele>299.1</ele>
        <time>2022-04-14T16:36:15Z</time>
      </trkpt>
      <trkpt lat="42.9482320" lon="-8.4642020">
        <ele>298.4</ele>
        <time>2022-04-14T16:36:16Z</time>
      </trkpt>
      <trkpt lat="42.9482740" lon="-8.4641690">
        <ele>298.2</ele>
        <time>2022-04-14T16:36:17Z</time>
      </trkpt>
      <trkpt lat="42.9483560" lon="-8.4641020">
        <ele>297.7</ele>
        <time>2022-04-14T16:36:18Z</time>
      </trkpt>
      <trkpt lat="42.9484740" lon="-8.4640040">
        <ele>297.4</ele>
        <time>2022-04-14T16:36:19Z</time>
      </trkpt>
      <trkpt lat="42.9485150" lon="-8.4639720">
        <ele>297.3</ele>
        <time>2022-04-14T16:36:20Z</time>
      </trkpt>
      <trkpt lat="42.9485970" lon="-8.4639080">
        <ele>297.1</ele>
        <time>2022-04-14T16:36:21Z</time>
      </trkpt>
      <trkpt lat="42.9486760" lon="-8.4638420">
        <ele>296.8</ele>
        <time>2022-04-14T16:36:22Z</time>
      </trkpt>
      <trkpt lat="42.9487570" lon="-8.4637780">
        <ele>296.4</ele>
        <time>2022-04-14T16:36:23Z</time>
      </trkpt>
      <trkpt lat="42.9488790" lon="-8.4636800">
        <ele>295.8</ele>
        <time>2022-04-14T16:36:24Z</time>
      </trkpt>
      <trkpt lat="42.9489200" lon="-8.4636480">
        <ele>295.6</ele>
        <time>2022-04-14T16:36:25Z</time>
      </trkpt>
      <trkpt lat="42.9490030" lon="-8.4635850">
        <ele>295.2</ele>
        <time>2022-04-14T16:36:26Z</time>
      </trkpt>
      <trkpt lat="42.9490850" lon="-8.4635200">
        <ele>294.8</ele>
        <time>2022-04-14T16:36:27Z</time>
      </trkpt>
      <trkpt lat="42.9491690" lon="-8.4634590">
        <ele>294.4</ele>
        <time>2022-04-14T16:36:28Z</time>
      </trkpt>
      <trkpt lat="42.9492930" lon="-8.4633590">
        <ele>293.7</ele>
        <time>2022-04-14T16:36:29Z</time>
      </trkpt>
      <trkpt lat="42.9493330" lon="-8.4633260">
        <ele>293.5</ele>
        <time>2022-04-14T16:36:30Z</time>
      </trkpt>
      <trkpt lat="42.9494140" lon="-8.4632610">
        <ele>293.0</ele>
        <time>2022-04-14T16:36:31Z</time>
      </trkpt>
      <trkpt lat="42.9494960" lon="-8.4631980">
        <ele>292.5</ele>
        <time>2022-04-14T16:36:32Z</time>
      </trkpt>
      <trkpt lat="42.9495800" lon="-8.4631350">
        <ele>292.0</ele>
        <time>2022-04-14T16:36:33Z</time>
      </trkpt>
      <trkpt lat="42.9496630" lon="-8.4630740">
        <ele>291.5</ele>
        <time>2022-04-14T16:36:34Z</time>
      </trkpt>
      <trkpt lat="42.9497890" lon="-8.4629830">
        <ele>290.8</ele>
        <time>2022-04-14T16:36:35Z</time>
      </trkpt>
      <trkpt lat="42.9498320" lon="-8.4629510">
        <ele>290.5</ele>
        <time>2022-04-14T16:36:36Z</time>
      </trkpt>
      <trkpt lat="42.9499160" lon="-8.4628870">
        <ele>290.0</ele>
        <time>2022-04-14T16:36:37Z</time>
      </trkpt>
      <trkpt lat="42.9499940" lon="-8.4628220">
        <ele>289.6</ele>
        <time>2022-04-14T16:36:38Z</time>
      </trkpt>
      <trkpt lat="42.9500800" lon="-8.4627540">
        <ele>289.1</ele>
        <time>2022-04-14T16:36:39Z</time>
      </trkpt>
      <trkpt lat="42.9502050" lon="-8.4626590">
        <ele>288.4</ele>
        <time>2022-04-14T16:36:40Z</time>
      </trkpt>
      <trkpt lat="42.9502470" lon="-8.4626290">
        <ele>288.2</ele>
        <time>2022-04-14T16:36:41Z</time>
      </trkpt>
      <trkpt lat="42.9503300" lon="-8.4625690">
        <ele>287.7</ele>
        <time>2022-04-14T16:36:42Z</time>
      </trkpt>
      <trkpt lat="42.9504110" lon="-8.4625050">
        <ele>287.3</ele>
        <time>2022-04-14T16:36:43Z</time>
      </trkpt>
      <trkpt lat="42.9504930" lon="-8.4624410">
        <ele>286.8</ele>
        <time>2022-04-14T16:36:44Z</time>
      </trkpt>
      <trkpt lat="42.9506140" lon="-8.4623480">
        <ele>286.1</ele>
        <time>2022-04-14T16:36:45Z</time>
      </trkpt>
      <trkpt lat="42.9506540" lon="-8.4623170">
        <ele>285.9</ele>
        <time>2022-04-14T16:36:46Z</time>
      </trkpt>
      <trkpt lat="42.9507350" lon="-8.4622560">
        <ele>285.5</ele>
        <time>2022-04-14T16:36:47Z</time>
      </trkpt>
      <trkpt lat="42.9508170" lon="-8.4621940">
        <ele>285.0</ele>
        <time>2022-04-14T16:36:48Z</time>
      </trkpt>
      <trkpt lat="42.9508980" lon="-8.4621250">
        <ele>284.6</ele>
        <time>2022-04-14T16:36:49Z</time>
      </trkpt>
      <trkpt lat="42.9509740" lon="-8.4620580">
        <ele>284.2</ele>
        <time>2022-04-14T16:36:50Z</time>
      </trkpt>
      <trkpt lat="42.9510960" lon="-8.4619630">
        <ele>283.6</ele>
        <time>2022-04-14T16:36:51Z</time>
      </trkpt>
      <trkpt lat="42.9511380" lon="-8.4619320">
        <ele>283.4</ele>
        <time>2022-04-14T16:36:52Z</time>
      </trkpt>
      <trkpt lat="42.9512220" lon="-8.4618700">
        <ele>283.1</ele>
        <time>2022-04-14T16:36:53Z</time>
      </trkpt>
      <trkpt lat="42.9513500" lon="-8.4617670">
        <ele>282.6</ele>
        <time>2022-04-14T16:36:54Z</time>
      </trkpt>
      <trkpt lat="42.9513920" lon="-8.4617340">
        <ele>282.5</ele>
        <time>2022-04-14T16:36:55Z</time>
      </trkpt>
      <trkpt lat="42.9515200" lon="-8.4616330">
        <ele>282.1</ele>
        <time>2022-04-14T16:36:56Z</time>
      </trkpt>
      <trkpt lat="42.9515640" lon="-8.4615990">
        <ele>281.9</ele>
        <time>2022-04-14T16:36:57Z</time>
      </trkpt>
      <trkpt lat="42.9516500" lon="-8.4615290">
        <ele>281.7</ele>
        <time>2022-04-14T16:36:58Z</time>
      </trkpt>
      <trkpt lat="42.9517360" lon="-8.4614610">
        <ele>281.4</ele>
        <time>2022-04-14T16:36:59Z</time>
      </trkpt>
      <trkpt lat="42.9518220" lon="-8.4613980">
        <ele>281.2</ele>
        <time>2022-04-14T16:37:00Z</time>
      </trkpt>
      <trkpt lat="42.9519510" lon="-8.4613050">
        <ele>281.0</ele>
        <time>2022-04-14T16:37:01Z</time>
      </trkpt>
      <trkpt lat="42.9519930" lon="-8.4612740">
        <ele>280.9</ele>
        <time>2022-04-14T16:37:02Z</time>
      </trkpt>
      <trkpt lat="42.9520770" lon="-8.4612130">
        <ele>280.8</ele>
        <time>2022-04-14T16:37:03Z</time>
      </trkpt>
      <trkpt lat="42.9521600" lon="-8.4611540">
        <ele>280.6</ele>
        <time>2022-04-14T16:37:04Z</time>
      </trkpt>
      <trkpt lat="42.9522440" lon="-8.4610950">
        <ele>280.4</ele>
        <time>2022-04-14T16:37:05Z</time>
      </trkpt>
      <trkpt lat="42.9523680" lon="-8.4610080">
        <ele>280.1</ele>
        <time>2022-04-14T16:37:06Z</time>
      </trkpt>
      <trkpt lat="42.9524080" lon="-8.4609770">
        <ele>280.0</ele>
        <time>2022-04-14T16:37:07Z</time>
      </trkpt>
      <trkpt lat="42.9524870" lon="-8.4609150">
        <ele>279.9</ele>
        <time>2022-04-14T16:37:08Z</time>
      </trkpt>
      <trkpt lat="42.9525640" lon="-8.4608510">
        <ele>279.7</ele>
        <time>2022-04-14T16:37:09Z</time>
      </trkpt>
      <trkpt lat="42.9526420" lon="-8.4607900">
        <ele>279.6</ele>
        <time>2022-04-14T16:37:10Z</time>
      </trkpt>
      <trkpt lat="42.9527200" lon="-8.4607280">
        <ele>279.4</ele>
        <time>2022-04-14T16:37:11Z</time>
      </trkpt>
      <trkpt lat="42.9527970" lon="-8.4606660">
        <ele>279.3</ele>
        <time>2022-04-14T16:37:12Z</time>
      </trkpt>
      <trkpt lat="42.9528750" lon="-8.4606050">
        <ele>279.2</ele>
        <time>2022-04-14T16:37:13Z</time>
      </trkpt>
      <trkpt lat="42.9529520" lon="-8.4605420">
        <ele>279.1</ele>
        <time>2022-04-14T16:37:14Z</time>
      </trkpt>
      <trkpt lat="42.9530290" lon="-8.4604780">
        <ele>278.9</ele>
        <time>2022-04-14T16:37:15Z</time>
      </trkpt>
      <trkpt lat="42.9531020" lon="-8.4604190">
        <ele>278.8</ele>
        <time>2022-04-14T16:37:16Z</time>
      </trkpt>
      <trkpt lat="42.9531750" lon="-8.4603590">
        <ele>278.7</ele>
        <time>2022-04-14T16:37:17Z</time>
      </trkpt>
      <trkpt lat="42.9532480" lon="-8.4603000">
        <ele>278.6</ele>
        <time>2022-04-14T16:37:18Z</time>
      </trkpt>
      <trkpt lat="42.9533210" lon="-8.4602420">
        <ele>278.5</ele>
        <time>2022-04-14T16:37:19Z</time>
      </trkpt>
      <trkpt lat="42.9533580" lon="-8.4602160">
        <ele>278.4</ele>
        <time>2022-04-14T16:37:20Z</time>
      </trkpt>
      <trkpt lat="42.9533940" lon="-8.4601890">
        <ele>278.4</ele>
        <time>2022-04-14T16:37:21Z</time>
      </trkpt>
      <trkpt lat="42.9535380" lon="-8.4600800">
        <ele>278.2</ele>
        <time>2022-04-14T16:37:22Z</time>
      </trkpt>
      <trkpt lat="42.9536080" lon="-8.4600250">
        <ele>278.0</ele>
        <time>2022-04-14T16:37:23Z</time>
      </trkpt>
      <trkpt lat="42.9536780" lon="-8.4599690">
        <ele>277.9</ele>
        <time>2022-04-14T16:37:24Z</time>
      </trkpt>
      <trkpt lat="42.9537490" lon="-8.4599170">
        <ele>277.8</ele>
        <time>2022-04-14T16:37:25Z</time>
      </trkpt>
      <trkpt lat="42.9537840" lon="-8.4598840">
        <ele>277.7</ele>
        <time>2022-04-14T16:37:26Z</time>
      </trkpt>
      <trkpt lat="42.9538190" lon="-8.4598510">
        <ele>277.7</ele>
        <time>2022-04-14T16:37:27Z</time>
      </trkpt>
      <trkpt lat="42.9539600" lon="-8.4597320">
        <ele>277.5</ele>
        <time>2022-04-14T16:37:28Z</time>
      </trkpt>
      <trkpt lat="42.9540320" lon="-8.4596780">
        <ele>277.3</ele>
        <time>2022-04-14T16:37:29Z</time>
      </trkpt>
      <trkpt lat="42.9541030" lon="-8.4596250">
        <ele>277.2</ele>
        <time>2022-04-14T16:37:30Z</time>
      </trkpt>
      <trkpt lat="42.9541710" lon="-8.4595670">
        <ele>277.1</ele>
        <time>2022-04-14T16:37:31Z</time>
      </trkpt>
      <trkpt lat="42.9542050" lon="-8.4595320">
        <ele>277.0</ele>
        <time>2022-04-14T16:37:32Z</time>
      </trkpt>
      <trkpt lat="42.9542390" lon="-8.4594980">
        <ele>277.0</ele>
        <time>2022-04-14T16:37:33Z</time>
      </trkpt>
      <trkpt lat="42.9543760" lon="-8.4593690">
        <ele>276.8</ele>
        <time>2022-04-14T16:37:34Z</time>
      </trkpt>
      <trkpt lat="42.9544450" lon="-8.4593100">
        <ele>276.7</ele>
        <time>2022-04-14T16:37:35Z</time>
      </trkpt>
      <trkpt lat="42.9545150" lon="-8.4592510">
        <ele>276.6</ele>
        <time>2022-04-14T16:37:36Z</time>
      </trkpt>
      <trkpt lat="42.9545900" lon="-8.4591980">
        <ele>276.5</ele>
        <time>2022-04-14T16:37:37Z</time>
      </trkpt>
      <trkpt lat="42.9546280" lon="-8.4591690">
        <ele>276.4</ele>
        <time>2022-04-14T16:37:38Z</time>
      </trkpt>
      <trkpt lat="42.9546660" lon="-8.4591400">
        <ele>276.4</ele>
        <time>2022-04-14T16:37:39Z</time>
      </trkpt>
      <trkpt lat="42.9548150" lon="-8.4590160">
        <ele>276.1</ele>
        <time>2022-04-14T16:37:40Z</time>
      </trkpt>
      <trkpt lat="42.9548890" lon="-8.4589500">
        <ele>276.0</ele>
        <time>2022-04-14T16:37:41Z</time>
      </trkpt>
      <trkpt lat="42.9549630" lon="-8.4588830">
        <ele>275.8</ele>
        <time>2022-04-14T16:37:42Z</time>
      </trkpt>
      <trkpt lat="42.9550390" lon="-8.4588260">
        <ele>275.7</ele>
        <time>2022-04-14T16:37:43Z</time>
      </trkpt>
      <trkpt lat="42.9550760" lon="-8.4587930">
        <ele>275.6</ele>
        <time>2022-04-14T16:37:44Z</time>
      </trkpt>
      <trkpt lat="42.9551140" lon="-8.4587610">
        <ele>275.5</ele>
        <time>2022-04-14T16:37:45Z</time>
      </trkpt>
      <trkpt lat="42.9552630" lon="-8.4586340">
        <ele>275.3</ele>
        <time>2022-04-14T16:37:46Z</time>
      </trkpt>
      <trkpt lat="42.9553370" lon="-8.4585720">
        <ele>275.1</ele>
        <time>2022-04-14T16:37:47Z</time>
      </trkpt>
      <trkpt lat="42.9554120" lon="-8.4585100">
        <ele>275.0</ele>
        <time>2022-04-14T16:37:48Z</time>
      </trkpt>
      <trkpt lat="42.9554860" lon="-8.4584550">
        <ele>274.9</ele>
        <time>2022-04-14T16:37:49Z</time>
      </trkpt>
      <trkpt lat="42.9555590" lon="-8.4583900">
        <ele>274.7</ele>
        <time>2022-04-14T16:37:50Z</time>
      </trkpt>
      <trkpt lat="42.9556330" lon="-8.4583240">
        <ele>274.6</ele>
        <time>2022-04-14T16:37:51Z</time>
      </trkpt>
      <trkpt lat="42.9557060" lon="-8.4582580">
        <ele>274.5</ele>
        <time>2022-04-14T16:37:52Z</time>
      </trkpt>
      <trkpt lat="42.9558090" lon="-8.4581430">
        <ele>274.3</ele>
        <time>2022-04-14T16:37:53Z</time>
      </trkpt>
      <trkpt lat="42.9558430" lon="-8.4581080">
        <ele>274.2</ele>
        <time>2022-04-14T16:37:54Z</time>
      </trkpt>
      <trkpt lat="42.9559130" lon="-8.4580380">
        <ele>274.0</ele>
        <time>2022-04-14T16:37:55Z</time>
      </trkpt>
      <trkpt lat="42.9559500" lon="-8.4580060">
        <ele>274.0</ele>
        <time>2022-04-14T16:37:56Z</time>
      </trkpt>
      <trkpt lat="42.9559860" lon="-8.4579740">
        <ele>273.9</ele>
        <time>2022-04-14T16:37:57Z</time>
      </trkpt>
      <trkpt lat="42.9561340" lon="-8.4578450">
        <ele>273.5</ele>
        <time>2022-04-14T16:37:58Z</time>
      </trkpt>
      <trkpt lat="42.9562080" lon="-8.4577800">
        <ele>273.2</ele>
        <time>2022-04-14T16:37:59Z</time>
      </trkpt>
      <trkpt lat="42.9562820" lon="-8.4577140">
        <ele>273.0</ele>
        <time>2022-04-14T16:38:00Z</time>
      </trkpt>
      <trkpt lat="42.9563540" lon="-8.4576380">
        <ele>272.7</ele>
        <time>2022-04-14T16:38:01Z</time>
      </trkpt>
      <trkpt lat="42.9564130" lon="-8.4575940">
        <ele>272.5</ele>
        <time>2022-04-14T16:38:02Z</time>
      </trkpt>
      <trkpt lat="42.9564720" lon="-8.4575500">
        <ele>272.2</ele>
        <time>2022-04-14T16:38:03Z</time>
      </trkpt>
      <trkpt lat="42.9566110" lon="-8.4574490">
        <ele>271.7</ele>
        <time>2022-04-14T16:38:04Z</time>
      </trkpt>
      <trkpt lat="42.9566320" lon="-8.4574370">
        <ele>271.6</ele>
        <time>2022-04-14T16:38:05Z</time>
      </trkpt>
      <trkpt lat="42.9567160" lon="-8.4573930">
        <ele>271.3</ele>
        <time>2022-04-14T16:38:06Z</time>
      </trkpt>
      <trkpt lat="42.9567590" lon="-8.4573750">
        <ele>271.1</ele>
        <time>2022-04-14T16:38:07Z</time>
      </trkpt>
      <trkpt lat="42.9569280" lon="-8.4572710">
        <ele>270.3</ele>
        <time>2022-04-14T16:38:08Z</time>
      </trkpt>
      <trkpt lat="42.9570130" lon="-8.4572030">
        <ele>269.9</ele>
        <time>2022-04-14T16:38:09Z</time>
      </trkpt>
      <trkpt lat="42.9570970" lon="-8.4571350">
        <ele>269.5</ele>
        <time>2022-04-14T16:38:10Z</time>
      </trkpt>
      <trkpt lat="42.9571820" lon="-8.4570680">
        <ele>269.2</ele>
        <time>2022-04-14T16:38:11Z</time>
      </trkpt>
      <trkpt lat="42.9572680" lon="-8.4569930">
        <ele>268.8</ele>
        <time>2022-04-14T16:38:12Z</time>
      </trkpt>
      <trkpt lat="42.9573500" lon="-8.4569300">
        <ele>268.5</ele>
        <time>2022-04-14T16:38:13Z</time>
      </trkpt>
      <trkpt lat="42.9574780" lon="-8.4568310">
        <ele>268.2</ele>
        <time>2022-04-14T16:38:14Z</time>
      </trkpt>
      <trkpt lat="42.9575220" lon="-8.4567980">
        <ele>268.1</ele>
        <time>2022-04-14T16:38:15Z</time>
      </trkpt>
      <trkpt lat="42.9576090" lon="-8.4567310">
        <ele>267.8</ele>
        <time>2022-04-14T16:38:16Z</time>
      </trkpt>
      <trkpt lat="42.9576950" lon="-8.4566590">
        <ele>267.7</ele>
        <time>2022-04-14T16:38:17Z</time>
      </trkpt>
      <trkpt lat="42.9577760" lon="-8.4565860">
        <ele>267.5</ele>
        <time>2022-04-14T16:38:18Z</time>
      </trkpt>
      <trkpt lat="42.9578950" lon="-8.4564610">
        <ele>267.3</ele>
        <time>2022-04-14T16:38:19Z</time>
      </trkpt>
      <trkpt lat="42.9579360" lon="-8.4564200">
        <ele>267.3</ele>
        <time>2022-04-14T16:38:20Z</time>
      </trkpt>
      <trkpt lat="42.9580180" lon="-8.4563380">
        <ele>267.1</ele>
        <time>2022-04-14T16:38:21Z</time>
      </trkpt>
      <trkpt lat="42.9581070" lon="-8.4562630">
        <ele>267.0</ele>
        <time>2022-04-14T16:38:22Z</time>
      </trkpt>
      <trkpt lat="42.9581960" lon="-8.4561910">
        <ele>267.0</ele>
        <time>2022-04-14T16:38:23Z</time>
      </trkpt>
      <trkpt lat="42.9582960" lon="-8.4561040">
        <ele>267.0</ele>
        <time>2022-04-14T16:38:24Z</time>
      </trkpt>
      <trkpt lat="42.9583150" lon="-8.4560870">
        <ele>267.0</ele>
        <time>2022-04-14T16:38:25Z</time>
      </trkpt>
      <trkpt lat="42.9583880" lon="-8.4560240">
        <ele>267.1</ele>
        <time>2022-04-14T16:38:26Z</time>
      </trkpt>
      <trkpt lat="42.9584250" lon="-8.4559950">
        <ele>267.1</ele>
        <time>2022-04-14T16:38:27Z</time>
      </trkpt>
      <trkpt lat="42.9585640" lon="-8.4558700">
        <ele>267.2</ele>
        <time>2022-04-14T16:38:28Z</time>
      </trkpt>
      <trkpt lat="42.9586320" lon="-8.4558040">
        <ele>267.3</ele>
        <time>2022-04-14T16:38:29Z</time>
      </trkpt>
      <trkpt lat="42.9586990" lon="-8.4557390">
        <ele>267.4</ele>
        <time>2022-04-14T16:38:30Z</time>
      </trkpt>
      <trkpt lat="42.9587950" lon="-8.4556380">
        <ele>267.5</ele>
        <time>2022-04-14T16:38:31Z</time>
      </trkpt>
      <trkpt lat="42.9588250" lon="-8.4556080">
        <ele>267.6</ele>
        <time>2022-04-14T16:38:32Z</time>
      </trkpt>
      <trkpt lat="42.9588860" lon="-8.4555490">
        <ele>267.7</ele>
        <time>2022-04-14T16:38:33Z</time>
      </trkpt>
      <trkpt lat="42.9589160" lon="-8.4555180">
        <ele>267.7</ele>
        <time>2022-04-14T16:38:34Z</time>
      </trkpt>
      <trkpt lat="42.9589470" lon="-8.4554870">
        <ele>267.8</ele>
        <time>2022-04-14T16:38:35Z</time>
      </trkpt>
      <trkpt lat="42.9590660" lon="-8.4553660">
        <ele>267.9</ele>
        <time>2022-04-14T16:38:36Z</time>
      </trkpt>
      <trkpt lat="42.9591240" lon="-8.4553050">
        <ele>267.9</ele>
        <time>2022-04-14T16:38:37Z</time>
      </trkpt>
      <trkpt lat="42.9591830" lon="-8.4552450">
        <ele>267.9</ele>
        <time>2022-04-14T16:38:38Z</time>
      </trkpt>
      <trkpt lat="42.9592440" lon="-8.4551850">
        <ele>267.9</ele>
        <time>2022-04-14T16:38:39Z</time>
      </trkpt>
      <trkpt lat="42.9592730" lon="-8.4551540">
        <ele>267.9</ele>
        <time>2022-04-14T16:38:40Z</time>
      </trkpt>
      <trkpt lat="42.9593020" lon="-8.4551240">
        <ele>267.9</ele>
        <time>2022-04-14T16:38:41Z</time>
      </trkpt>
      <trkpt lat="42.9594180" lon="-8.4550040">
        <ele>267.8</ele>
        <time>2022-04-14T16:38:42Z</time>
      </trkpt>
      <trkpt lat="42.9594760" lon="-8.4549450">
        <ele>267.8</ele>
        <time>2022-04-14T16:38:43Z</time>
      </trkpt>
      <trkpt lat="42.9595340" lon="-8.4548860">
        <ele>267.8</ele>
        <time>2022-04-14T16:38:44Z</time>
      </trkpt>
      <trkpt lat="42.9595930" lon="-8.4548230">
        <ele>267.7</ele>
        <time>2022-04-14T16:38:45Z</time>
      </trkpt>
      <trkpt lat="42.9596220" lon="-8.4547930">
        <ele>267.6</ele>
        <time>2022-04-14T16:38:46Z</time>
      </trkpt>
      <trkpt lat="42.9596510" lon="-8.4547640">
        <ele>267.6</ele>
        <time>2022-04-14T16:38:47Z</time>
      </trkpt>
      <trkpt lat="42.9597400" lon="-8.4546720">
        <ele>267.4</ele>
        <time>2022-04-14T16:38:48Z</time>
      </trkpt>
      <trkpt lat="42.9597700" lon="-8.4546400">
        <ele>267.4</ele>
        <time>2022-04-14T16:38:49Z</time>
      </trkpt>
      <trkpt lat="42.9598930" lon="-8.4545080">
        <ele>267.1</ele>
        <time>2022-04-14T16:38:50Z</time>
      </trkpt>
      <trkpt lat="42.9599540" lon="-8.4544390">
        <ele>267.0</ele>
        <time>2022-04-14T16:38:51Z</time>
      </trkpt>
      <trkpt lat="42.9600160" lon="-8.4543710">
        <ele>266.9</ele>
        <time>2022-04-14T16:38:52Z</time>
      </trkpt>
      <trkpt lat="42.9600800" lon="-8.4543060">
        <ele>266.8</ele>
        <time>2022-04-14T16:38:53Z</time>
      </trkpt>
      <trkpt lat="42.9601120" lon="-8.4542710">
        <ele>266.7</ele>
        <time>2022-04-14T16:38:54Z</time>
      </trkpt>
      <trkpt lat="42.9601440" lon="-8.4542370">
        <ele>266.7</ele>
        <time>2022-04-14T16:38:55Z</time>
      </trkpt>
      <trkpt lat="42.9602750" lon="-8.4541010">
        <ele>266.4</ele>
        <time>2022-04-14T16:38:56Z</time>
      </trkpt>
      <trkpt lat="42.9603410" lon="-8.4540330">
        <ele>266.2</ele>
        <time>2022-04-14T16:38:57Z</time>
      </trkpt>
      <trkpt lat="42.9604080" lon="-8.4539660">
        <ele>266.1</ele>
        <time>2022-04-14T16:38:58Z</time>
      </trkpt>
      <trkpt lat="42.9604760" lon="-8.4538970">
        <ele>265.9</ele>
        <time>2022-04-14T16:38:59Z</time>
      </trkpt>
      <trkpt lat="42.9605100" lon="-8.4538590">
        <ele>265.9</ele>
        <time>2022-04-14T16:39:00Z</time>
      </trkpt>
      <trkpt lat="42.9605440" lon="-8.4538220">
        <ele>265.8</ele>
        <time>2022-04-14T16:39:01Z</time>
      </trkpt>
      <trkpt lat="42.9606790" lon="-8.4536720">
        <ele>265.4</ele>
        <time>2022-04-14T16:39:02Z</time>
      </trkpt>
      <trkpt lat="42.9607470" lon="-8.4535970">
        <ele>265.1</ele>
        <time>2022-04-14T16:39:03Z</time>
      </trkpt>
      <trkpt lat="42.9608150" lon="-8.4535220">
        <ele>264.7</ele>
        <time>2022-04-14T16:39:04Z</time>
      </trkpt>
      <trkpt lat="42.9608860" lon="-8.4534470">
        <ele>264.3</ele>
        <time>2022-04-14T16:39:05Z</time>
      </trkpt>
      <trkpt lat="42.9609580" lon="-8.4533710">
        <ele>263.9</ele>
        <time>2022-04-14T16:39:06Z</time>
      </trkpt>
      <trkpt lat="42.9610300" lon="-8.4532960">
        <ele>263.4</ele>
        <time>2022-04-14T16:39:07Z</time>
      </trkpt>
      <trkpt lat="42.9611010" lon="-8.4532200">
        <ele>262.9</ele>
        <time>2022-04-14T16:39:08Z</time>
      </trkpt>
      <trkpt lat="42.9611780" lon="-8.4531360">
        <ele>262.3</ele>
        <time>2022-04-14T16:39:09Z</time>
      </trkpt>
      <trkpt lat="42.9612510" lon="-8.4530510">
        <ele>261.7</ele>
        <time>2022-04-14T16:39:10Z</time>
      </trkpt>
      <trkpt lat="42.9613300" lon="-8.4529560">
        <ele>261.0</ele>
        <time>2022-04-14T16:39:11Z</time>
      </trkpt>
      <trkpt lat="42.9614140" lon="-8.4528690">
        <ele>260.3</ele>
        <time>2022-04-14T16:39:12Z</time>
      </trkpt>
      <trkpt lat="42.9614970" lon="-8.4527770">
        <ele>259.5</ele>
        <time>2022-04-14T16:39:13Z</time>
      </trkpt>
      <trkpt lat="42.9614970" lon="-8.4527770">
        <ele>259.5</ele>
        <time>2022-04-14T16:39:14Z</time>
      </trkpt>
      <trkpt lat="42.9615880" lon="-8.4526800">
        <ele>258.5</ele>
        <time>2022-04-14T16:39:15Z</time>
      </trkpt>
      <trkpt lat="42.9616780" lon="-8.4525830">
        <ele>257.5</ele>
        <time>2022-04-14T16:39:16Z</time>
      </trkpt>
      <trkpt lat="42.9619060" lon="-8.4523400">
        <ele>255.0</ele>
        <time>2022-04-14T16:39:17Z</time>
      </trkpt>
      <trkpt lat="42.9619530" lon="-8.4522910">
        <ele>254.5</ele>
        <time>2022-04-14T16:39:18Z</time>
      </trkpt>
      <trkpt lat="42.9620470" lon="-8.4521930">
        <ele>253.6</ele>
        <time>2022-04-14T16:39:19Z</time>
      </trkpt>
      <trkpt lat="42.9621350" lon="-8.4520900">
        <ele>252.6</ele>
        <time>2022-04-14T16:39:20Z</time>
      </trkpt>
      <trkpt lat="42.9622760" lon="-8.4519350">
        <ele>251.3</ele>
        <time>2022-04-14T16:39:21Z</time>
      </trkpt>
      <trkpt lat="42.9623240" lon="-8.4518840">
        <ele>250.8</ele>
        <time>2022-04-14T16:39:22Z</time>
      </trkpt>
      <trkpt lat="42.9624180" lon="-8.4517820">
        <ele>250.0</ele>
        <time>2022-04-14T16:39:23Z</time>
      </trkpt>
      <trkpt lat="42.9625920" lon="-8.4515580">
        <ele>248.5</ele>
        <time>2022-04-14T16:39:24Z</time>
      </trkpt>
      <trkpt lat="42.9625920" lon="-8.4515580">
        <ele>248.5</ele>
        <time>2022-04-14T16:39:25Z</time>
      </trkpt>
      <trkpt lat="42.9627300" lon="-8.4514120">
        <ele>247.5</ele>
        <time>2022-04-14T16:39:26Z</time>
      </trkpt>
      <trkpt lat="42.9627760" lon="-8.4513630">
        <ele>247.2</ele>
        <time>2022-04-14T16:39:27Z</time>
      </trkpt>
      <trkpt lat="42.9628680" lon="-8.4512650">
        <ele>246.7</ele>
        <time>2022-04-14T16:39:28Z</time>
      </trkpt>
      <trkpt lat="42.9629570" lon="-8.4511700">
        <ele>246.3</ele>
        <time>2022-04-14T16:39:29Z</time>
      </trkpt>
      <trkpt lat="42.9630890" lon="-8.4510120">
        <ele>245.8</ele>
        <time>2022-04-14T16:39:30Z</time>
      </trkpt>
      <trkpt lat="42.9631330" lon="-8.4509640">
        <ele>245.7</ele>
        <time>2022-04-14T16:39:31Z</time>
      </trkpt>
      <trkpt lat="42.9632190" lon="-8.4508680">
        <ele>245.3</ele>
        <time>2022-04-14T16:39:32Z</time>
      </trkpt>
      <trkpt lat="42.9633100" lon="-8.4507760">
        <ele>245.0</ele>
        <time>2022-04-14T16:39:33Z</time>
      </trkpt>
      <trkpt lat="42.9634310" lon="-8.4506310">
        <ele>244.5</ele>
        <time>2022-04-14T16:39:34Z</time>
      </trkpt>
      <trkpt lat="42.9634720" lon="-8.4505850">
        <ele>244.4</ele>
        <time>2022-04-14T16:39:35Z</time>
      </trkpt>
      <trkpt lat="42.9635540" lon="-8.4504920">
        <ele>244.1</ele>
        <time>2022-04-14T16:39:36Z</time>
      </trkpt>
      <trkpt lat="42.9636400" lon="-8.4504060">
        <ele>243.8</ele>
        <time>2022-04-14T16:39:37Z</time>
      </trkpt>
      <trkpt lat="42.9637260" lon="-8.4503210">
        <ele>243.5</ele>
        <time>2022-04-14T16:39:38Z</time>
      </trkpt>
      <trkpt lat="42.9638500" lon="-8.4501940">
        <ele>243.0</ele>
        <time>2022-04-14T16:39:39Z</time>
      </trkpt>
      <trkpt lat="42.9638900" lon="-8.4501520">
        <ele>242.8</ele>
        <time>2022-04-14T16:39:40Z</time>
      </trkpt>
      <trkpt lat="42.9639710" lon="-8.4500680">
        <ele>242.4</ele>
        <time>2022-04-14T16:39:41Z</time>
      </trkpt>
      <trkpt lat="42.9640470" lon="-8.4499900">
        <ele>242.0</ele>
        <time>2022-04-14T16:39:42Z</time>
      </trkpt>
      <trkpt lat="42.9641170" lon="-8.4499070">
        <ele>241.5</ele>
        <time>2022-04-14T16:39:43Z</time>
      </trkpt>
      <trkpt lat="42.9642160" lon="-8.4497690">
        <ele>240.7</ele>
        <time>2022-04-14T16:39:44Z</time>
      </trkpt>
      <trkpt lat="42.9642470" lon="-8.4497170">
        <ele>240.4</ele>
        <time>2022-04-14T16:39:45Z</time>
      </trkpt>
      <trkpt lat="42.9642470" lon="-8.4497170">
        <ele>240.4</ele>
        <time>2022-04-14T16:39:46Z</time>
      </trkpt>
      <trkpt lat="42.9643680" lon="-8.4495120">
        <ele>239.8</ele>
        <time>2022-04-14T16:39:47Z</time>
      </trkpt>
      <trkpt lat="42.9644330" lon="-8.4494230">
        <ele>239.2</ele>
        <time>2022-04-14T16:39:48Z</time>
      </trkpt>
      <trkpt lat="42.9645000" lon="-8.4493120">
        <ele>238.4</ele>
        <time>2022-04-14T16:39:49Z</time>
      </trkpt>
      <trkpt lat="42.9645660" lon="-8.4492010">
        <ele>237.6</ele>
        <time>2022-04-14T16:39:50Z</time>
      </trkpt>
      <trkpt lat="42.9646330" lon="-8.4490900">
        <ele>236.8</ele>
        <time>2022-04-14T16:39:51Z</time>
      </trkpt>
      <trkpt lat="42.9646920" lon="-8.4489660">
        <ele>235.9</ele>
        <time>2022-04-14T16:39:52Z</time>
      </trkpt>
      <trkpt lat="42.9647470" lon="-8.4488250">
        <ele>234.9</ele>
        <time>2022-04-14T16:39:53Z</time>
      </trkpt>
      <trkpt lat="42.9648400" lon="-8.4486160">
        <ele>233.5</ele>
        <time>2022-04-14T16:39:54Z</time>
      </trkpt>
      <trkpt lat="42.9648710" lon="-8.4485430">
        <ele>233.0</ele>
        <time>2022-04-14T16:39:55Z</time>
      </trkpt>
      <trkpt lat="42.9649310" lon="-8.4483980">
        <ele>232.1</ele>
        <time>2022-04-14T16:39:56Z</time>
      </trkpt>
      <trkpt lat="42.9650010" lon="-8.4482830">
        <ele>231.4</ele>
        <time>2022-04-14T16:39:57Z</time>
      </trkpt>
      <trkpt lat="42.9651020" lon="-8.4480830">
        <ele>230.3</ele>
        <time>2022-04-14T16:39:58Z</time>
      </trkpt>
      <trkpt lat="42.9651340" lon="-8.4480180">
        <ele>230.0</ele>
        <time>2022-04-14T16:39:59Z</time>
      </trkpt>
      <trkpt lat="42.9652270" lon="-8.4478190">
        <ele>229.1</ele>
        <time>2022-04-14T16:40:00Z</time>
      </trkpt>
      <trkpt lat="42.9652560" lon="-8.4477510">
        <ele>228.9</ele>
        <time>2022-04-14T16:40:01Z</time>
      </trkpt>
      <trkpt lat="42.9653140" lon="-8.4476140">
        <ele>228.4</ele>
        <time>2022-04-14T16:40:02Z</time>
      </trkpt>
      <trkpt lat="42.9653140" lon="-8.4476140">
        <ele>228.4</ele>
        <time>2022-04-14T16:40:03Z</time>
      </trkpt>
      <trkpt lat="42.9653510" lon="-8.4474790">
        <ele>228.0</ele>
        <time>2022-04-14T16:40:04Z</time>
      </trkpt>
      <trkpt lat="42.9653880" lon="-8.4473440">
        <ele>227.7</ele>
        <time>2022-04-14T16:40:05Z</time>
      </trkpt>
      <trkpt lat="42.9654630" lon="-8.4470740">
        <ele>227.2</ele>
        <time>2022-04-14T16:40:06Z</time>
      </trkpt>
      <trkpt lat="42.9655060" lon="-8.4468730">
        <ele>227.0</ele>
        <time>2022-04-14T16:40:07Z</time>
      </trkpt>
      <trkpt lat="42.9655220" lon="-8.4468050">
        <ele>227.0</ele>
        <time>2022-04-14T16:40:08Z</time>
      </trkpt>
      <trkpt lat="42.9655530" lon="-8.4466710">
        <ele>227.1</ele>
        <time>2022-04-14T16:40:09Z</time>
      </trkpt>
      <trkpt lat="42.9655800" lon="-8.4465400">
        <ele>227.1</ele>
        <time>2022-04-14T16:40:10Z</time>
      </trkpt>
      <trkpt lat="42.9656040" lon="-8.4463990">
        <ele>227.2</ele>
        <time>2022-04-14T16:40:11Z</time>
      </trkpt>
      <trkpt lat="42.9656520" lon="-8.4462160">
        <ele>227.4</ele>
        <time>2022-04-14T16:40:12Z</time>
      </trkpt>
      <trkpt lat="42.9656660" lon="-8.4461560">
        <ele>227.4</ele>
        <time>2022-04-14T16:40:13Z</time>
      </trkpt>
      <trkpt lat="42.9656940" lon="-8.4460350">
        <ele>227.5</ele>
        <time>2022-04-14T16:40:14Z</time>
      </trkpt>
      <trkpt lat="42.9657080" lon="-8.4459800">
        <ele>227.6</ele>
        <time>2022-04-14T16:40:15Z</time>
      </trkpt>
      <trkpt lat="42.9657220" lon="-8.4459250">
        <ele>227.6</ele>
        <time>2022-04-14T16:40:16Z</time>
      </trkpt>
      <trkpt lat="42.9657760" lon="-8.4457060">
        <ele>227.7</ele>
        <time>2022-04-14T16:40:17Z</time>
      </trkpt>
      <trkpt lat="42.9658020" lon="-8.4455980">
        <ele>227.8</ele>
        <time>2022-04-14T16:40:18Z</time>
      </trkpt>
      <trkpt lat="42.9658290" lon="-8.4454890">
        <ele>227.8</ele>
        <time>2022-04-14T16:40:19Z</time>
      </trkpt>
      <trkpt lat="42.9658580" lon="-8.4453760">
        <ele>227.8</ele>
        <time>2022-04-14T16:40:20Z</time>
      </trkpt>
      <trkpt lat="42.9658890" lon="-8.4452550">
        <ele>227.7</ele>
        <time>2022-04-14T16:40:21Z</time>
      </trkpt>
      <trkpt lat="42.9659270" lon="-8.4451450">
        <ele>227.7</ele>
        <time>2022-04-14T16:40:22Z</time>
      </trkpt>
      <trkpt lat="42.9659660" lon="-8.4450360">
        <ele>227.7</ele>
        <time>2022-04-14T16:40:23Z</time>
      </trkpt>
      <trkpt lat="42.9660050" lon="-8.4449270">
        <ele>227.6</ele>
        <time>2022-04-14T16:40:24Z</time>
      </trkpt>
      <trkpt lat="42.9660500" lon="-8.4448130">
        <ele>227.6</ele>
        <time>2022-04-14T16:40:25Z</time>
      </trkpt>
      <trkpt lat="42.9660790" lon="-8.4447640">
        <ele>227.6</ele>
        <time>2022-04-14T16:40:26Z</time>
      </trkpt>
      <trkpt lat="42.9661090" lon="-8.4447140">
        <ele>227.6</ele>
        <time>2022-04-14T16:40:27Z</time>
      </trkpt>
      <trkpt lat="42.9662310" lon="-8.4445390">
        <ele>227.5</ele>
        <time>2022-04-14T16:40:28Z</time>
      </trkpt>
      <trkpt lat="42.9662940" lon="-8.4444630">
        <ele>227.6</ele>
        <time>2022-04-14T16:40:29Z</time>
      </trkpt>
      <trkpt lat="42.9663570" lon="-8.4443870">
        <ele>227.7</ele>
        <time>2022-04-14T16:40:30Z</time>
      </trkpt>
      <trkpt lat="42.9664180" lon="-8.4443200">
        <ele>227.8</ele>
        <time>2022-04-14T16:40:31Z</time>
      </trkpt>
      <trkpt lat="42.9664450" lon="-8.4442900">
        <ele>227.9</ele>
        <time>2022-04-14T16:40:32Z</time>
      </trkpt>
      <trkpt lat="42.9664730" lon="-8.4442600">
        <ele>227.9</ele>
        <time>2022-04-14T16:40:33Z</time>
      </trkpt>
      <trkpt lat="42.9665490" lon="-8.4441690">
        <ele>228.2</ele>
        <time>2022-04-14T16:40:34Z</time>
      </trkpt>
      <trkpt lat="42.9665700" lon="-8.4441380">
        <ele>228.2</ele>
        <time>2022-04-14T16:40:35Z</time>
      </trkpt>
      <trkpt lat="42.9666300" lon="-8.4439990">
        <ele>228.6</ele>
        <time>2022-04-14T16:40:36Z</time>
      </trkpt>
      <trkpt lat="42.9666480" lon="-8.4439230">
        <ele>229.1</ele>
        <time>2022-04-14T16:40:37Z</time>
      </trkpt>
      <trkpt lat="42.9666670" lon="-8.4438470">
        <ele>229.6</ele>
        <time>2022-04-14T16:40:38Z</time>
      </trkpt>
      <trkpt lat="42.9666780" lon="-8.4437700">
        <ele>230.0</ele>
        <time>2022-04-14T16:40:39Z</time>
      </trkpt>
      <trkpt lat="42.9666830" lon="-8.4437250">
        <ele>230.2</ele>
        <time>2022-04-14T16:40:40Z</time>
      </trkpt>
      <trkpt lat="42.9666880" lon="-8.4436810">
        <ele>230.3</ele>
        <time>2022-04-14T16:40:41Z</time>
      </trkpt>
      <trkpt lat="42.9667040" lon="-8.4435560">
        <ele>230.7</ele>
        <time>2022-04-14T16:40:42Z</time>
      </trkpt>
      <trkpt lat="42.9667090" lon="-8.4435210">
        <ele>230.9</ele>
        <time>2022-04-14T16:40:43Z</time>
      </trkpt>
      <trkpt lat="42.9667310" lon="-8.4433960">
        <ele>231.4</ele>
        <time>2022-04-14T16:40:44Z</time>
      </trkpt>
      <trkpt lat="42.9667420" lon="-8.4433420">
        <ele>231.7</ele>
        <time>2022-04-14T16:40:45Z</time>
      </trkpt>
      <trkpt lat="42.9667530" lon="-8.4432880">
        <ele>232.0</ele>
        <time>2022-04-14T16:40:46Z</time>
      </trkpt>
      <trkpt lat="42.9667720" lon="-8.4432340">
        <ele>232.2</ele>
        <time>2022-04-14T16:40:47Z</time>
      </trkpt>
      <trkpt lat="42.9667910" lon="-8.4431800">
        <ele>232.5</ele>
        <time>2022-04-14T16:40:48Z</time>
      </trkpt>
      <trkpt lat="42.9668320" lon="-8.4430290">
        <ele>233.3</ele>
        <time>2022-04-14T16:40:49Z</time>
      </trkpt>
      <trkpt lat="42.9668350" lon="-8.4429860">
        <ele>233.5</ele>
        <time>2022-04-14T16:40:50Z</time>
      </trkpt>
      <trkpt lat="42.9668440" lon="-8.4428620">
        <ele>234.1</ele>
        <time>2022-04-14T16:40:51Z</time>
      </trkpt>
      <trkpt lat="42.9668470" lon="-8.4428230">
        <ele>234.2</ele>
        <time>2022-04-14T16:40:52Z</time>
      </trkpt>
      <trkpt lat="42.9668710" lon="-8.4426710">
        <ele>234.9</ele>
        <time>2022-04-14T16:40:53Z</time>
      </trkpt>
      <trkpt lat="42.9668890" lon="-8.4425950">
        <ele>235.1</ele>
        <time>2022-04-14T16:40:54Z</time>
      </trkpt>
      <trkpt lat="42.9669060" lon="-8.4425190">
        <ele>235.2</ele>
        <time>2022-04-14T16:40:55Z</time>
      </trkpt>
      <trkpt lat="42.9669130" lon="-8.4424460">
        <ele>235.4</ele>
        <time>2022-04-14T16:40:56Z</time>
      </trkpt>
      <trkpt lat="42.9669160" lon="-8.4424070">
        <ele>235.4</ele>
        <time>2022-04-14T16:40:57Z</time>
      </trkpt>
      <trkpt lat="42.9669200" lon="-8.4423690">
        <ele>235.5</ele>
        <time>2022-04-14T16:40:58Z</time>
      </trkpt>
      <trkpt lat="42.9669240" lon="-8.4423300">
        <ele>235.6</ele>
        <time>2022-04-14T16:40:59Z</time>
      </trkpt>
      <trkpt lat="42.9669280" lon="-8.4422910">
        <ele>235.7</ele>
        <time>2022-04-14T16:41:00Z</time>
      </trkpt>
      <trkpt lat="42.9669670" lon="-8.4420560">
        <ele>236.2</ele>
        <time>2022-04-14T16:41:01Z</time>
      </trkpt>
      <trkpt lat="42.9669910" lon="-8.4419750">
        <ele>236.4</ele>
        <time>2022-04-14T16:41:02Z</time>
      </trkpt>
      <trkpt lat="42.9670150" lon="-8.4418940">
        <ele>236.6</ele>
        <time>2022-04-14T16:41:03Z</time>
      </trkpt>
      <trkpt lat="42.9670330" lon="-8.4418190">
        <ele>236.8</ele>
        <time>2022-04-14T16:41:04Z</time>
      </trkpt>
      <trkpt lat="42.9670430" lon="-8.4417850">
        <ele>236.9</ele>
        <time>2022-04-14T16:41:05Z</time>
      </trkpt>
      <trkpt lat="42.9670540" lon="-8.4417510">
        <ele>237.0</ele>
        <time>2022-04-14T16:41:06Z</time>
      </trkpt>
      <trkpt lat="42.9670860" lon="-8.4416480">
        <ele>237.3</ele>
        <time>2022-04-14T16:41:07Z</time>
      </trkpt>
      <trkpt lat="42.9670960" lon="-8.4416130">
        <ele>237.4</ele>
        <time>2022-04-14T16:41:08Z</time>
      </trkpt>
      <trkpt lat="42.9671430" lon="-8.4414750">
        <ele>237.9</ele>
        <time>2022-04-14T16:41:09Z</time>
      </trkpt>
      <trkpt lat="42.9671680" lon="-8.4414080">
        <ele>238.1</ele>
        <time>2022-04-14T16:41:10Z</time>
      </trkpt>
      <trkpt lat="42.9671940" lon="-8.4413410">
        <ele>238.3</ele>
        <time>2022-04-14T16:41:11Z</time>
      </trkpt>
      <trkpt lat="42.9672120" lon="-8.4412820">
        <ele>238.5</ele>
        <time>2022-04-14T16:41:12Z</time>
      </trkpt>
      <trkpt lat="42.9672240" lon="-8.4412490">
        <ele>238.7</ele>
        <time>2022-04-14T16:41:13Z</time>
      </trkpt>
      <trkpt lat="42.9672350" lon="-8.4412160">
        <ele>238.8</ele>
        <time>2022-04-14T16:41:14Z</time>
      </trkpt>
      <trkpt lat="42.9672700" lon="-8.4411200">
        <ele>239.1</ele>
        <time>2022-04-14T16:41:15Z</time>
      </trkpt>
      <trkpt lat="42.9672810" lon="-8.4410890">
        <ele>239.2</ele>
        <time>2022-04-14T16:41:16Z</time>
      </trkpt>
      <trkpt lat="42.9673200" lon="-8.4409950">
        <ele>239.5</ele>
        <time>2022-04-14T16:41:17Z</time>
      </trkpt>
      <trkpt lat="42.9673360" lon="-8.4409630">
        <ele>239.6</ele>
        <time>2022-04-14T16:41:18Z</time>
      </trkpt>
      <trkpt lat="42.9673910" lon="-8.4408300">
        <ele>240.0</ele>
        <time>2022-04-14T16:41:19Z</time>
      </trkpt>
      <trkpt lat="42.9674140" lon="-8.4407610">
        <ele>240.1</ele>
        <time>2022-04-14T16:41:20Z</time>
      </trkpt>
      <trkpt lat="42.9674360" lon="-8.4406920">
        <ele>240.3</ele>
        <time>2022-04-14T16:41:21Z</time>
      </trkpt>
      <trkpt lat="42.9674560" lon="-8.4406150">
        <ele>240.5</ele>
        <time>2022-04-14T16:41:22Z</time>
      </trkpt>
      <trkpt lat="42.9674790" lon="-8.4405460">
        <ele>240.7</ele>
        <time>2022-04-14T16:41:23Z</time>
      </trkpt>
      <trkpt lat="42.9675010" lon="-8.4404770">
        <ele>240.9</ele>
        <time>2022-04-14T16:41:24Z</time>
      </trkpt>
      <trkpt lat="42.9675460" lon="-8.4403400">
        <ele>241.3</ele>
        <time>2022-04-14T16:41:25Z</time>
      </trkpt>
      <trkpt lat="42.9675460" lon="-8.4403400">
        <ele>241.3</ele>
        <time>2022-04-14T16:41:26Z</time>
      </trkpt>
      <trkpt lat="42.9675630" lon="-8.4402990">
        <ele>241.5</ele>
        <time>2022-04-14T16:41:27Z</time>
      </trkpt>
      <trkpt lat="42.9675810" lon="-8.4402590">
        <ele>241.6</ele>
        <time>2022-04-14T16:41:28Z</time>
      </trkpt>
      <trkpt lat="42.9675980" lon="-8.4402190">
        <ele>241.8</ele>
        <time>2022-04-14T16:41:29Z</time>
      </trkpt>
      <trkpt lat="42.9676470" lon="-8.4400780">
        <ele>242.3</ele>
        <time>2022-04-14T16:41:30Z</time>
      </trkpt>
      <trkpt lat="42.9676690" lon="-8.4400150">
        <ele>242.5</ele>
        <time>2022-04-14T16:41:31Z</time>
      </trkpt>
      <trkpt lat="42.9676900" lon="-8.4399530">
        <ele>242.7</ele>
        <time>2022-04-14T16:41:32Z</time>
      </trkpt>
      <trkpt lat="42.9677130" lon="-8.4398910">
        <ele>242.8</ele>
        <time>2022-04-14T16:41:33Z</time>
      </trkpt>
      <trkpt lat="42.9677350" lon="-8.4398300">
        <ele>242.9</ele>
        <time>2022-04-14T16:41:34Z</time>
      </trkpt>
      <trkpt lat="42.9677500" lon="-8.4397950">
        <ele>243.0</ele>
        <time>2022-04-14T16:41:35Z</time>
      </trkpt>
      <trkpt lat="42.9677640" lon="-8.4397610">
        <ele>243.0</ele>
        <time>2022-04-14T16:41:36Z</time>
      </trkpt>
      <trkpt lat="42.9678190" lon="-8.4396190">
        <ele>243.2</ele>
        <time>2022-04-14T16:41:37Z</time>
      </trkpt>
      <trkpt lat="42.9678460" lon="-8.4395470">
        <ele>243.2</ele>
        <time>2022-04-14T16:41:38Z</time>
      </trkpt>
      <trkpt lat="42.9678730" lon="-8.4394740">
        <ele>243.1</ele>
        <time>2022-04-14T16:41:39Z</time>
      </trkpt>
      <trkpt lat="42.9679000" lon="-8.4393980">
        <ele>243.0</ele>
        <time>2022-04-14T16:41:40Z</time>
      </trkpt>
      <trkpt lat="42.9679130" lon="-8.4393580">
        <ele>242.9</ele>
        <time>2022-04-14T16:41:41Z</time>
      </trkpt>
      <trkpt lat="42.9679260" lon="-8.4393170">
        <ele>242.9</ele>
        <time>2022-04-14T16:41:42Z</time>
      </trkpt>
      <trkpt lat="42.9679650" lon="-8.4391900">
        <ele>242.7</ele>
        <time>2022-04-14T16:41:43Z</time>
      </trkpt>
      <trkpt lat="42.9679780" lon="-8.4391440">
        <ele>242.6</ele>
        <time>2022-04-14T16:41:44Z</time>
      </trkpt>
      <trkpt lat="42.9680270" lon="-8.4389640">
        <ele>242.4</ele>
        <time>2022-04-14T16:41:45Z</time>
      </trkpt>
      <trkpt lat="42.9680520" lon="-8.4388770">
        <ele>242.3</ele>
        <time>2022-04-14T16:41:46Z</time>
      </trkpt>
      <trkpt lat="42.9680770" lon="-8.4387900">
        <ele>242.2</ele>
        <time>2022-04-14T16:41:47Z</time>
      </trkpt>
      <trkpt lat="42.9681040" lon="-8.4387030">
        <ele>242.1</ele>
        <time>2022-04-14T16:41:48Z</time>
      </trkpt>
      <trkpt lat="42.9681180" lon="-8.4386570">
        <ele>242.0</ele>
        <time>2022-04-14T16:41:49Z</time>
      </trkpt>
      <trkpt lat="42.9681320" lon="-8.4386110">
        <ele>242.0</ele>
        <time>2022-04-14T16:41:50Z</time>
      </trkpt>
      <trkpt lat="42.9681870" lon="-8.4384250">
        <ele>241.8</ele>
        <time>2022-04-14T16:41:51Z</time>
      </trkpt>
      <trkpt lat="42.9682150" lon="-8.4383310">
        <ele>241.8</ele>
        <time>2022-04-14T16:41:52Z</time>
      </trkpt>
      <trkpt lat="42.9682430" lon="-8.4382380">
        <ele>241.7</ele>
        <time>2022-04-14T16:41:53Z</time>
      </trkpt>
      <trkpt lat="42.9682710" lon="-8.4381420">
        <ele>241.6</ele>
        <time>2022-04-14T16:41:54Z</time>
      </trkpt>
      <trkpt lat="42.9682850" lon="-8.4380950">
        <ele>241.6</ele>
        <time>2022-04-14T16:41:55Z</time>
      </trkpt>
      <trkpt lat="42.9683000" lon="-8.4380480">
        <ele>241.6</ele>
        <time>2022-04-14T16:41:56Z</time>
      </trkpt>
      <trkpt lat="42.9683570" lon="-8.4378590">
        <ele>241.6</ele>
        <time>2022-04-14T16:41:57Z</time>
      </trkpt>
      <trkpt lat="42.9683860" lon="-8.4377640">
        <ele>241.6</ele>
        <time>2022-04-14T16:41:58Z</time>
      </trkpt>
      <trkpt lat="42.9684150" lon="-8.4376680">
        <ele>241.6</ele>
        <time>2022-04-14T16:41:59Z</time>
      </trkpt>
      <trkpt lat="42.9684580" lon="-8.4375220">
        <ele>241.6</ele>
        <time>2022-04-14T16:42:00Z</time>
      </trkpt>
      <trkpt lat="42.9684710" lon="-8.4374760">
        <ele>241.6</ele>
        <time>2022-04-14T16:42:01Z</time>
      </trkpt>
      <trkpt lat="42.9684990" lon="-8.4373860">
        <ele>241.7</ele>
        <time>2022-04-14T16:42:02Z</time>
      </trkpt>
      <trkpt lat="42.9685120" lon="-8.4373370">
        <ele>241.7</ele>
        <time>2022-04-14T16:42:03Z</time>
      </trkpt>
      <trkpt lat="42.9685260" lon="-8.4372880">
        <ele>241.7</ele>
        <time>2022-04-14T16:42:04Z</time>
      </trkpt>
      <trkpt lat="42.9685810" lon="-8.4370930">
        <ele>241.9</ele>
        <time>2022-04-14T16:42:05Z</time>
      </trkpt>
      <trkpt lat="42.9686090" lon="-8.4369970">
        <ele>241.9</ele>
        <time>2022-04-14T16:42:06Z</time>
      </trkpt>
      <trkpt lat="42.9686370" lon="-8.4369000">
        <ele>241.9</ele>
        <time>2022-04-14T16:42:07Z</time>
      </trkpt>
      <trkpt lat="42.9686650" lon="-8.4368010">
        <ele>241.8</ele>
        <time>2022-04-14T16:42:08Z</time>
      </trkpt>
      <trkpt lat="42.9686790" lon="-8.4367490">
        <ele>241.8</ele>
        <time>2022-04-14T16:42:09Z</time>
      </trkpt>
      <trkpt lat="42.9686940" lon="-8.4366960">
        <ele>241.8</ele>
        <time>2022-04-14T16:42:10Z</time>
      </trkpt>
      <trkpt lat="42.9687540" lon="-8.4364880">
        <ele>241.7</ele>
        <time>2022-04-14T16:42:11Z</time>
      </trkpt>
      <trkpt lat="42.9687850" lon="-8.4363850">
        <ele>241.7</ele>
        <time>2022-04-14T16:42:12Z</time>
      </trkpt>
      <trkpt lat="42.9688160" lon="-8.4362810">
        <ele>241.8</ele>
        <time>2022-04-14T16:42:13Z</time>
      </trkpt>
      <trkpt lat="42.9688480" lon="-8.4361780">
        <ele>241.8</ele>
        <time>2022-04-14T16:42:14Z</time>
      </trkpt>
      <trkpt lat="42.9688640" lon="-8.4361290">
        <ele>241.9</ele>
        <time>2022-04-14T16:42:15Z</time>
      </trkpt>
      <trkpt lat="42.9688790" lon="-8.4360800">
        <ele>241.9</ele>
        <time>2022-04-14T16:42:16Z</time>
      </trkpt>
      <trkpt lat="42.9689410" lon="-8.4358870">
        <ele>242.1</ele>
        <time>2022-04-14T16:42:17Z</time>
      </trkpt>
      <trkpt lat="42.9689710" lon="-8.4357920">
        <ele>242.3</ele>
        <time>2022-04-14T16:42:18Z</time>
      </trkpt>
      <trkpt lat="42.9690010" lon="-8.4356970">
        <ele>242.5</ele>
        <time>2022-04-14T16:42:19Z</time>
      </trkpt>
      <trkpt lat="42.9690280" lon="-8.4356070">
        <ele>242.7</ele>
        <time>2022-04-14T16:42:20Z</time>
      </trkpt>
      <trkpt lat="42.9690420" lon="-8.4355630">
        <ele>242.8</ele>
        <time>2022-04-14T16:42:21Z</time>
      </trkpt>
      <trkpt lat="42.9690550" lon="-8.4355190">
        <ele>243.0</ele>
        <time>2022-04-14T16:42:22Z</time>
      </trkpt>
      <trkpt lat="42.9690970" lon="-8.4353910">
        <ele>243.4</ele>
        <time>2022-04-14T16:42:23Z</time>
      </trkpt>
      <trkpt lat="42.9691110" lon="-8.4353510">
        <ele>243.6</ele>
        <time>2022-04-14T16:42:24Z</time>
      </trkpt>
      <trkpt lat="42.9691660" lon="-8.4352000">
        <ele>244.3</ele>
        <time>2022-04-14T16:42:25Z</time>
      </trkpt>
      <trkpt lat="42.9691910" lon="-8.4351280">
        <ele>244.6</ele>
        <time>2022-04-14T16:42:26Z</time>
      </trkpt>
      <trkpt lat="42.9692170" lon="-8.4350570">
        <ele>245.0</ele>
        <time>2022-04-14T16:42:27Z</time>
      </trkpt>
      <trkpt lat="42.9692400" lon="-8.4349850">
        <ele>245.3</ele>
        <time>2022-04-14T16:42:28Z</time>
      </trkpt>
      <trkpt lat="42.9692520" lon="-8.4349460">
        <ele>245.5</ele>
        <time>2022-04-14T16:42:29Z</time>
      </trkpt>
      <trkpt lat="42.9692640" lon="-8.4349060">
        <ele>245.7</ele>
        <time>2022-04-14T16:42:30Z</time>
      </trkpt>
      <trkpt lat="42.9693080" lon="-8.4347690">
        <ele>246.5</ele>
        <time>2022-04-14T16:42:31Z</time>
      </trkpt>
      <trkpt lat="42.9693280" lon="-8.4347110">
        <ele>246.7</ele>
        <time>2022-04-14T16:42:32Z</time>
      </trkpt>
      <trkpt lat="42.9693520" lon="-8.4346480">
        <ele>247.1</ele>
        <time>2022-04-14T16:42:33Z</time>
      </trkpt>
      <trkpt lat="42.9693770" lon="-8.4345860">
        <ele>247.4</ele>
        <time>2022-04-14T16:42:34Z</time>
      </trkpt>
      <trkpt lat="42.9694020" lon="-8.4345230">
        <ele>247.7</ele>
        <time>2022-04-14T16:42:35Z</time>
      </trkpt>
      <trkpt lat="42.9694240" lon="-8.4344660">
        <ele>248.0</ele>
        <time>2022-04-14T16:42:36Z</time>
      </trkpt>
      <trkpt lat="42.9694240" lon="-8.4344660">
        <ele>248.0</ele>
        <time>2022-04-14T16:42:37Z</time>
      </trkpt>
      <trkpt lat="42.9694730" lon="-8.4343540">
        <ele>248.4</ele>
        <time>2022-04-14T16:42:38Z</time>
      </trkpt>
      <trkpt lat="42.9694840" lon="-8.4343280">
        <ele>248.6</ele>
        <time>2022-04-14T16:42:39Z</time>
      </trkpt>
      <trkpt lat="42.9694950" lon="-8.4343020">
        <ele>248.6</ele>
        <time>2022-04-14T16:42:40Z</time>
      </trkpt>
      <trkpt lat="42.9695070" lon="-8.4342760">
        <ele>248.7</ele>
        <time>2022-04-14T16:42:41Z</time>
      </trkpt>
      <trkpt lat="42.9695520" lon="-8.4341610">
        <ele>249.1</ele>
        <time>2022-04-14T16:42:42Z</time>
      </trkpt>
      <trkpt lat="42.9695620" lon="-8.4341230">
        <ele>249.2</ele>
        <time>2022-04-14T16:42:43Z</time>
      </trkpt>
      <trkpt lat="42.9696080" lon="-8.4339740">
        <ele>249.5</ele>
        <time>2022-04-14T16:42:44Z</time>
      </trkpt>
      <trkpt lat="42.9696320" lon="-8.4338980">
        <ele>249.6</ele>
        <time>2022-04-14T16:42:45Z</time>
      </trkpt>
      <trkpt lat="42.9696570" lon="-8.4338230">
        <ele>249.7</ele>
        <time>2022-04-14T16:42:46Z</time>
      </trkpt>
      <trkpt lat="42.9696800" lon="-8.4337470">
        <ele>249.7</ele>
        <time>2022-04-14T16:42:47Z</time>
      </trkpt>
      <trkpt lat="42.9696930" lon="-8.4337150">
        <ele>249.7</ele>
        <time>2022-04-14T16:42:48Z</time>
      </trkpt>
      <trkpt lat="42.9697050" lon="-8.4336820">
        <ele>249.7</ele>
        <time>2022-04-14T16:42:49Z</time>
      </trkpt>
      <trkpt lat="42.9697440" lon="-8.4335850">
        <ele>249.7</ele>
        <time>2022-04-14T16:42:50Z</time>
      </trkpt>
      <trkpt lat="42.9697570" lon="-8.4335520">
        <ele>249.7</ele>
        <time>2022-04-14T16:42:51Z</time>
      </trkpt>
      <trkpt lat="42.9698130" lon="-8.4334190">
        <ele>249.6</ele>
        <time>2022-04-14T16:42:52Z</time>
      </trkpt>
      <trkpt lat="42.9698420" lon="-8.4333500">
        <ele>249.5</ele>
        <time>2022-04-14T16:42:53Z</time>
      </trkpt>
      <trkpt lat="42.9698710" lon="-8.4332820">
        <ele>249.4</ele>
        <time>2022-04-14T16:42:54Z</time>
      </trkpt>
      <trkpt lat="42.9699220" lon="-8.4331720">
        <ele>249.1</ele>
        <time>2022-04-14T16:42:55Z</time>
      </trkpt>
      <trkpt lat="42.9699390" lon="-8.4331320">
        <ele>249.0</ele>
        <time>2022-04-14T16:42:56Z</time>
      </trkpt>
      <trkpt lat="42.9699750" lon="-8.4330520">
        <ele>248.8</ele>
        <time>2022-04-14T16:42:57Z</time>
      </trkpt>
      <trkpt lat="42.9699940" lon="-8.4330070">
        <ele>248.6</ele>
        <time>2022-04-14T16:42:58Z</time>
      </trkpt>
      <trkpt lat="42.9700120" lon="-8.4329620">
        <ele>248.5</ele>
        <time>2022-04-14T16:42:59Z</time>
      </trkpt>
      <trkpt lat="42.9700930" lon="-8.4327710">
        <ele>247.7</ele>
        <time>2022-04-14T16:43:00Z</time>
      </trkpt>
      <trkpt lat="42.9701370" lon="-8.4326710">
        <ele>247.3</ele>
        <time>2022-04-14T16:43:01Z</time>
      </trkpt>
      <trkpt lat="42.9701800" lon="-8.4325700">
        <ele>246.8</ele>
        <time>2022-04-14T16:43:02Z</time>
      </trkpt>
      <trkpt lat="42.9702280" lon="-8.4324650">
        <ele>246.4</ele>
        <time>2022-04-14T16:43:03Z</time>
      </trkpt>
      <trkpt lat="42.9702780" lon="-8.4323490">
        <ele>246.0</ele>
        <time>2022-04-14T16:43:04Z</time>
      </trkpt>
      <trkpt lat="42.9703290" lon="-8.4322440">
        <ele>245.6</ele>
        <time>2022-04-14T16:43:05Z</time>
      </trkpt>
      <trkpt lat="42.9704060" lon="-8.4320790">
        <ele>245.0</ele>
        <time>2022-04-14T16:43:06Z</time>
      </trkpt>
      <trkpt lat="42.9704310" lon="-8.4320220">
        <ele>244.9</ele>
        <time>2022-04-14T16:43:07Z</time>
      </trkpt>
      <trkpt lat="42.9704790" lon="-8.4319090">
        <ele>244.6</ele>
        <time>2022-04-14T16:43:08Z</time>
      </trkpt>
      <trkpt lat="42.9705270" lon="-8.4317890">
        <ele>244.4</ele>
        <time>2022-04-14T16:43:09Z</time>
      </trkpt>
      <trkpt lat="42.9705790" lon="-8.4316800">
        <ele>244.2</ele>
        <time>2022-04-14T16:43:10Z</time>
      </trkpt>
      <trkpt lat="42.9706540" lon="-8.4315190">
        <ele>243.9</ele>
        <time>2022-04-14T16:43:11Z</time>
      </trkpt>
      <trkpt lat="42.9706790" lon="-8.4314640">
        <ele>243.9</ele>
        <time>2022-04-14T16:43:12Z</time>
      </trkpt>
      <trkpt lat="42.9707270" lon="-8.4313540">
        <ele>243.7</ele>
        <time>2022-04-14T16:43:13Z</time>
      </trkpt>
      <trkpt lat="42.9707990" lon="-8.4311930">
        <ele>243.6</ele>
        <time>2022-04-14T16:43:14Z</time>
      </trkpt>
      <trkpt lat="42.9708230" lon="-8.4311390">
        <ele>243.6</ele>
        <time>2022-04-14T16:43:15Z</time>
      </trkpt>
      <trkpt lat="42.9708710" lon="-8.4310300">
        <ele>243.6</ele>
        <time>2022-04-14T16:43:16Z</time>
      </trkpt>
      <trkpt lat="42.9708710" lon="-8.4310300">
        <ele>243.6</ele>
        <time>2022-04-14T16:43:17Z</time>
      </trkpt>
      <trkpt lat="42.9709580" lon="-8.4308290">
        <ele>243.7</ele>
        <time>2022-04-14T16:43:18Z</time>
      </trkpt>
      <trkpt lat="42.9709800" lon="-8.4307810">
        <ele>243.7</ele>
        <time>2022-04-14T16:43:19Z</time>
      </trkpt>
      <trkpt lat="42.9710010" lon="-8.4307340">
        <ele>243.7</ele>
        <time>2022-04-14T16:43:20Z</time>
      </trkpt>
      <trkpt lat="42.9710860" lon="-8.4305510">
        <ele>243.8</ele>
        <time>2022-04-14T16:43:21Z</time>
      </trkpt>
      <trkpt lat="42.9711290" lon="-8.4304640">
        <ele>243.9</ele>
        <time>2022-04-14T16:43:22Z</time>
      </trkpt>
      <trkpt lat="42.9711710" lon="-8.4303760">
        <ele>244.0</ele>
        <time>2022-04-14T16:43:23Z</time>
      </trkpt>
      <trkpt lat="42.9712120" lon="-8.4302900">
        <ele>244.0</ele>
        <time>2022-04-14T16:43:24Z</time>
      </trkpt>
      <trkpt lat="42.9712310" lon="-8.4302470">
        <ele>244.1</ele>
        <time>2022-04-14T16:43:25Z</time>
      </trkpt>
      <trkpt lat="42.9712490" lon="-8.4302040">
        <ele>244.2</ele>
        <time>2022-04-14T16:43:26Z</time>
      </trkpt>
      <trkpt lat="42.9713220" lon="-8.4300400">
        <ele>244.5</ele>
        <time>2022-04-14T16:43:27Z</time>
      </trkpt>
      <trkpt lat="42.9713580" lon="-8.4299620">
        <ele>244.7</ele>
        <time>2022-04-14T16:43:28Z</time>
      </trkpt>
      <trkpt lat="42.9714410" lon="-8.4297810">
        <ele>245.2</ele>
        <time>2022-04-14T16:43:29Z</time>
      </trkpt>
      <trkpt lat="42.9714520" lon="-8.4297580">
        <ele>245.3</ele>
        <time>2022-04-14T16:43:30Z</time>
      </trkpt>
      <trkpt lat="42.9714620" lon="-8.4297340">
        <ele>245.4</ele>
        <time>2022-04-14T16:43:31Z</time>
      </trkpt>
      <trkpt lat="42.9714940" lon="-8.4296640">
        <ele>245.6</ele>
        <time>2022-04-14T16:43:32Z</time>
      </trkpt>
      <trkpt lat="42.9715110" lon="-8.4296280">
        <ele>245.7</ele>
        <time>2022-04-14T16:43:33Z</time>
      </trkpt>
      <trkpt lat="42.9715280" lon="-8.4295930">
        <ele>245.8</ele>
        <time>2022-04-14T16:43:34Z</time>
      </trkpt>
      <trkpt lat="42.9715740" lon="-8.4294900">
        <ele>246.2</ele>
        <time>2022-04-14T16:43:35Z</time>
      </trkpt>
      <trkpt lat="42.9715880" lon="-8.4294570">
        <ele>246.3</ele>
        <time>2022-04-14T16:43:36Z</time>
      </trkpt>
      <trkpt lat="42.9716420" lon="-8.4293280">
        <ele>246.7</ele>
        <time>2022-04-14T16:43:37Z</time>
      </trkpt>
      <trkpt lat="42.9716690" lon="-8.4292650">
        <ele>246.9</ele>
        <time>2022-04-14T16:43:38Z</time>
      </trkpt>
      <trkpt lat="42.9716970" lon="-8.4292010">
        <ele>247.1</ele>
        <time>2022-04-14T16:43:39Z</time>
      </trkpt>
      <trkpt lat="42.9717240" lon="-8.4291390">
        <ele>247.2</ele>
        <time>2022-04-14T16:43:40Z</time>
      </trkpt>
      <trkpt lat="42.9717410" lon="-8.4291060">
        <ele>247.3</ele>
        <time>2022-04-14T16:43:41Z</time>
      </trkpt>
      <trkpt lat="42.9717570" lon="-8.4290730">
        <ele>247.4</ele>
        <time>2022-04-14T16:43:42Z</time>
      </trkpt>
      <trkpt lat="42.9718050" lon="-8.4289710">
        <ele>247.6</ele>
        <time>2022-04-14T16:43:43Z</time>
      </trkpt>
      <trkpt lat="42.9718210" lon="-8.4289340">
        <ele>247.6</ele>
        <time>2022-04-14T16:43:44Z</time>
      </trkpt>
      <trkpt lat="42.9718850" lon="-8.4287890">
        <ele>247.7</ele>
        <time>2022-04-14T16:43:45Z</time>
      </trkpt>
      <trkpt lat="42.9719190" lon="-8.4287180">
        <ele>247.7</ele>
        <time>2022-04-14T16:43:46Z</time>
      </trkpt>
      <trkpt lat="42.9719530" lon="-8.4286460">
        <ele>247.7</ele>
        <time>2022-04-14T16:43:47Z</time>
      </trkpt>
      <trkpt lat="42.9719870" lon="-8.4285720">
        <ele>247.7</ele>
        <time>2022-04-14T16:43:48Z</time>
      </trkpt>
      <trkpt lat="42.9720040" lon="-8.4285340">
        <ele>247.7</ele>
        <time>2022-04-14T16:43:49Z</time>
      </trkpt>
      <trkpt lat="42.9720200" lon="-8.4284970">
        <ele>247.7</ele>
        <time>2022-04-14T16:43:50Z</time>
      </trkpt>
      <trkpt lat="42.9720910" lon="-8.4283390">
        <ele>247.5</ele>
        <time>2022-04-14T16:43:51Z</time>
      </trkpt>
      <trkpt lat="42.9721290" lon="-8.4282570">
        <ele>247.4</ele>
        <time>2022-04-14T16:43:52Z</time>
      </trkpt>
      <trkpt lat="42.9721670" lon="-8.4281750">
        <ele>247.3</ele>
        <time>2022-04-14T16:43:53Z</time>
      </trkpt>
      <trkpt lat="42.9722250" lon="-8.4280460">
        <ele>247.1</ele>
        <time>2022-04-14T16:43:54Z</time>
      </trkpt>
      <trkpt lat="42.9722440" lon="-8.4280040">
        <ele>247.0</ele>
        <time>2022-04-14T16:43:55Z</time>
      </trkpt>
      <trkpt lat="42.9722820" lon="-8.4279200">
        <ele>246.8</ele>
        <time>2022-04-14T16:43:56Z</time>
      </trkpt>
      <trkpt lat="42.9723020" lon="-8.4278750">
        <ele>246.7</ele>
        <time>2022-04-14T16:43:57Z</time>
      </trkpt>
      <trkpt lat="42.9723220" lon="-8.4278300">
        <ele>246.6</ele>
        <time>2022-04-14T16:43:58Z</time>
      </trkpt>
      <trkpt lat="42.9724010" lon="-8.4276460">
        <ele>246.3</ele>
        <time>2022-04-14T16:43:59Z</time>
      </trkpt>
      <trkpt lat="42.9724400" lon="-8.4275510">
        <ele>246.1</ele>
        <time>2022-04-14T16:44:00Z</time>
      </trkpt>
      <trkpt lat="42.9724780" lon="-8.4274560">
        <ele>246.0</ele>
        <time>2022-04-14T16:44:01Z</time>
      </trkpt>
      <trkpt lat="42.9725190" lon="-8.4273580">
        <ele>245.8</ele>
        <time>2022-04-14T16:44:02Z</time>
      </trkpt>
      <trkpt lat="42.9725400" lon="-8.4273110">
        <ele>245.8</ele>
        <time>2022-04-14T16:44:03Z</time>
      </trkpt>
      <trkpt lat="42.9725600" lon="-8.4272650">
        <ele>245.7</ele>
        <time>2022-04-14T16:44:04Z</time>
      </trkpt>
      <trkpt lat="42.9726400" lon="-8.4270800">
        <ele>245.4</ele>
        <time>2022-04-14T16:44:05Z</time>
      </trkpt>
      <trkpt lat="42.9726780" lon="-8.4269880">
        <ele>245.3</ele>
        <time>2022-04-14T16:44:06Z</time>
      </trkpt>
      <trkpt lat="42.9727160" lon="-8.4268970">
        <ele>245.2</ele>
        <time>2022-04-14T16:44:07Z</time>
      </trkpt>
      <trkpt lat="42.9727530" lon="-8.4268080">
        <ele>245.1</ele>
        <time>2022-04-14T16:44:08Z</time>
      </trkpt>
      <trkpt lat="42.9727720" lon="-8.4267650">
        <ele>245.1</ele>
        <time>2022-04-14T16:44:09Z</time>
      </trkpt>
      <trkpt lat="42.9727910" lon="-8.4267220">
        <ele>245.1</ele>
        <time>2022-04-14T16:44:10Z</time>
      </trkpt>
      <trkpt lat="42.9728470" lon="-8.4265940">
        <ele>245.1</ele>
        <time>2022-04-14T16:44:11Z</time>
      </trkpt>
      <trkpt lat="42.9728660" lon="-8.4265530">
        <ele>245.1</ele>
        <time>2022-04-14T16:44:12Z</time>
      </trkpt>
      <trkpt lat="42.9729410" lon="-8.4263840">
        <ele>245.1</ele>
        <time>2022-04-14T16:44:13Z</time>
      </trkpt>
      <trkpt lat="42.9729780" lon="-8.4262980">
        <ele>245.1</ele>
        <time>2022-04-14T16:44:14Z</time>
      </trkpt>
      <trkpt lat="42.9730150" lon="-8.4262110">
        <ele>245.1</ele>
        <time>2022-04-14T16:44:15Z</time>
      </trkpt>
      <trkpt lat="42.9730500" lon="-8.4261280">
        <ele>245.1</ele>
        <time>2022-04-14T16:44:16Z</time>
      </trkpt>
      <trkpt lat="42.9730680" lon="-8.4260870">
        <ele>245.1</ele>
        <time>2022-04-14T16:44:17Z</time>
      </trkpt>
      <trkpt lat="42.9730860" lon="-8.4260470">
        <ele>245.1</ele>
        <time>2022-04-14T16:44:18Z</time>
      </trkpt>
      <trkpt lat="42.9731590" lon="-8.4258860">
        <ele>245.2</ele>
        <time>2022-04-14T16:44:19Z</time>
      </trkpt>
      <trkpt lat="42.9731950" lon="-8.4258050">
        <ele>245.2</ele>
        <time>2022-04-14T16:44:20Z</time>
      </trkpt>
      <trkpt lat="42.9732320" lon="-8.4257240">
        <ele>245.3</ele>
        <time>2022-04-14T16:44:21Z</time>
      </trkpt>
      <trkpt lat="42.9732690" lon="-8.4256470">
        <ele>245.3</ele>
        <time>2022-04-14T16:44:22Z</time>
      </trkpt>
      <trkpt lat="42.9732870" lon="-8.4256060">
        <ele>245.3</ele>
        <time>2022-04-14T16:44:23Z</time>
      </trkpt>
      <trkpt lat="42.9733040" lon="-8.4255650">
        <ele>245.4</ele>
        <time>2022-04-14T16:44:24Z</time>
      </trkpt>
      <trkpt lat="42.9733570" lon="-8.4254440">
        <ele>245.4</ele>
        <time>2022-04-14T16:44:25Z</time>
      </trkpt>
      <trkpt lat="42.9733740" lon="-8.4254050">
        <ele>245.5</ele>
        <time>2022-04-14T16:44:26Z</time>
      </trkpt>
      <trkpt lat="42.9734450" lon="-8.4252470">
        <ele>245.6</ele>
        <time>2022-04-14T16:44:27Z</time>
      </trkpt>
      <trkpt lat="42.9734810" lon="-8.4251680">
        <ele>245.8</ele>
        <time>2022-04-14T16:44:28Z</time>
      </trkpt>
      <trkpt lat="42.9735170" lon="-8.4250880">
        <ele>246.0</ele>
        <time>2022-04-14T16:44:29Z</time>
      </trkpt>
      <trkpt lat="42.9735700" lon="-8.4249720">
        <ele>246.2</ele>
        <time>2022-04-14T16:44:30Z</time>
      </trkpt>
      <trkpt lat="42.9735870" lon="-8.4249350">
        <ele>246.3</ele>
        <time>2022-04-14T16:44:31Z</time>
      </trkpt>
      <trkpt lat="42.9736200" lon="-8.4248610">
        <ele>246.6</ele>
        <time>2022-04-14T16:44:32Z</time>
      </trkpt>
      <trkpt lat="42.9736370" lon="-8.4248220">
        <ele>246.7</ele>
        <time>2022-04-14T16:44:33Z</time>
      </trkpt>
      <trkpt lat="42.9736530" lon="-8.4247830">
        <ele>246.8</ele>
        <time>2022-04-14T16:44:34Z</time>
      </trkpt>
      <trkpt lat="42.9737200" lon="-8.4246330">
        <ele>247.2</ele>
        <time>2022-04-14T16:44:35Z</time>
      </trkpt>
      <trkpt lat="42.9737530" lon="-8.4245600">
        <ele>247.4</ele>
        <time>2022-04-14T16:44:36Z</time>
      </trkpt>
      <trkpt lat="42.9737860" lon="-8.4244870">
        <ele>247.6</ele>
        <time>2022-04-14T16:44:37Z</time>
      </trkpt>
      <trkpt lat="42.9738170" lon="-8.4244150">
        <ele>247.8</ele>
        <time>2022-04-14T16:44:38Z</time>
      </trkpt>
      <trkpt lat="42.9738320" lon="-8.4243770">
        <ele>247.9</ele>
        <time>2022-04-14T16:44:39Z</time>
      </trkpt>
      <trkpt lat="42.9738470" lon="-8.4243400">
        <ele>248.0</ele>
        <time>2022-04-14T16:44:40Z</time>
      </trkpt>
      <trkpt lat="42.9738940" lon="-8.4242290">
        <ele>248.3</ele>
        <time>2022-04-14T16:44:41Z</time>
      </trkpt>
      <trkpt lat="42.9739100" lon="-8.4241930">
        <ele>248.4</ele>
        <time>2022-04-14T16:44:42Z</time>
      </trkpt>
      <trkpt lat="42.9739750" lon="-8.4240480">
        <ele>248.7</ele>
        <time>2022-04-14T16:44:43Z</time>
      </trkpt>
      <trkpt lat="42.9740080" lon="-8.4239750">
        <ele>248.8</ele>
        <time>2022-04-14T16:44:44Z</time>
      </trkpt>
      <trkpt lat="42.9740410" lon="-8.4239010">
        <ele>248.9</ele>
        <time>2022-04-14T16:44:45Z</time>
      </trkpt>
      <trkpt lat="42.9740730" lon="-8.4238300">
        <ele>249.1</ele>
        <time>2022-04-14T16:44:46Z</time>
      </trkpt>
      <trkpt lat="42.9740890" lon="-8.4237940">
        <ele>249.2</ele>
        <time>2022-04-14T16:44:47Z</time>
      </trkpt>
      <trkpt lat="42.9741040" lon="-8.4237590">
        <ele>249.2</ele>
        <time>2022-04-14T16:44:48Z</time>
      </trkpt>
      <trkpt lat="42.9741510" lon="-8.4236520">
        <ele>249.4</ele>
        <time>2022-04-14T16:44:49Z</time>
      </trkpt>
      <trkpt lat="42.9741670" lon="-8.4236150">
        <ele>249.5</ele>
        <time>2022-04-14T16:44:50Z</time>
      </trkpt>
      <trkpt lat="42.9742320" lon="-8.4234670">
        <ele>249.7</ele>
        <time>2022-04-14T16:44:51Z</time>
      </trkpt>
      <trkpt lat="42.9742640" lon="-8.4233940">
        <ele>249.7</ele>
        <time>2022-04-14T16:44:52Z</time>
      </trkpt>
      <trkpt lat="42.9742960" lon="-8.4233210">
        <ele>249.8</ele>
        <time>2022-04-14T16:44:53Z</time>
      </trkpt>
      <trkpt lat="42.9743300" lon="-8.4232490">
        <ele>249.9</ele>
        <time>2022-04-14T16:44:54Z</time>
      </trkpt>
      <trkpt lat="42.9743470" lon="-8.4232150">
        <ele>249.9</ele>
        <time>2022-04-14T16:44:55Z</time>
      </trkpt>
      <trkpt lat="42.9743640" lon="-8.4231820">
        <ele>250.0</ele>
        <time>2022-04-14T16:44:56Z</time>
      </trkpt>
      <trkpt lat="42.9744320" lon="-8.4230400">
        <ele>250.2</ele>
        <time>2022-04-14T16:44:57Z</time>
      </trkpt>
      <trkpt lat="42.9744670" lon="-8.4229650">
        <ele>250.3</ele>
        <time>2022-04-14T16:44:58Z</time>
      </trkpt>
      <trkpt lat="42.9745470" lon="-8.4227920">
        <ele>250.7</ele>
        <time>2022-04-14T16:44:59Z</time>
      </trkpt>
      <trkpt lat="42.9745580" lon="-8.4227680">
        <ele>250.8</ele>
        <time>2022-04-14T16:45:00Z</time>
      </trkpt>
      <trkpt lat="42.9745680" lon="-8.4227440">
        <ele>250.8</ele>
        <time>2022-04-14T16:45:01Z</time>
      </trkpt>
      <trkpt lat="42.9746000" lon="-8.4226720">
        <ele>251.0</ele>
        <time>2022-04-14T16:45:02Z</time>
      </trkpt>
      <trkpt lat="42.9746160" lon="-8.4226340">
        <ele>251.1</ele>
        <time>2022-04-14T16:45:03Z</time>
      </trkpt>
      <trkpt lat="42.9746310" lon="-8.4225960">
        <ele>251.3</ele>
        <time>2022-04-14T16:45:04Z</time>
      </trkpt>
      <trkpt lat="42.9746790" lon="-8.4224860">
        <ele>251.6</ele>
        <time>2022-04-14T16:45:05Z</time>
      </trkpt>
      <trkpt lat="42.9746960" lon="-8.4224520">
        <ele>251.7</ele>
        <time>2022-04-14T16:45:06Z</time>
      </trkpt>
      <trkpt lat="42.9747630" lon="-8.4223080">
        <ele>252.3</ele>
        <time>2022-04-14T16:45:07Z</time>
      </trkpt>
      <trkpt lat="42.9747960" lon="-8.4222320">
        <ele>252.6</ele>
        <time>2022-04-14T16:45:08Z</time>
      </trkpt>
      <trkpt lat="42.9748300" lon="-8.4221550">
        <ele>252.9</ele>
        <time>2022-04-14T16:45:09Z</time>
      </trkpt>
      <trkpt lat="42.9748630" lon="-8.4220770">
        <ele>253.2</ele>
        <time>2022-04-14T16:45:10Z</time>
      </trkpt>
      <trkpt lat="42.9748770" lon="-8.4220380">
        <ele>253.4</ele>
        <time>2022-04-14T16:45:11Z</time>
      </trkpt>
      <trkpt lat="42.9748910" lon="-8.4219980">
        <ele>253.5</ele>
        <time>2022-04-14T16:45:12Z</time>
      </trkpt>
      <trkpt lat="42.9749350" lon="-8.4218850">
        <ele>254.0</ele>
        <time>2022-04-14T16:45:13Z</time>
      </trkpt>
      <trkpt lat="42.9749510" lon="-8.4218500">
        <ele>254.2</ele>
        <time>2022-04-14T16:45:14Z</time>
      </trkpt>
      <trkpt lat="42.9750120" lon="-8.4217140">
        <ele>254.8</ele>
        <time>2022-04-14T16:45:15Z</time>
      </trkpt>
      <trkpt lat="42.9750430" lon="-8.4216480">
        <ele>255.1</ele>
        <time>2022-04-14T16:45:16Z</time>
      </trkpt>
      <trkpt lat="42.9750730" lon="-8.4215820">
        <ele>255.3</ele>
        <time>2022-04-14T16:45:17Z</time>
      </trkpt>
      <trkpt lat="42.9751020" lon="-8.4215150">
        <ele>255.6</ele>
        <time>2022-04-14T16:45:18Z</time>
      </trkpt>
      <trkpt lat="42.9751330" lon="-8.4214550">
        <ele>255.9</ele>
        <time>2022-04-14T16:45:19Z</time>
      </trkpt>
      <trkpt lat="42.9751630" lon="-8.4213950">
        <ele>256.1</ele>
        <time>2022-04-14T16:45:20Z</time>
      </trkpt>
      <trkpt lat="42.9751770" lon="-8.4213630">
        <ele>256.3</ele>
        <time>2022-04-14T16:45:21Z</time>
      </trkpt>
      <trkpt lat="42.9751920" lon="-8.4213300">
        <ele>256.4</ele>
        <time>2022-04-14T16:45:22Z</time>
      </trkpt>
      <trkpt lat="42.9752490" lon="-8.4212010">
        <ele>256.9</ele>
        <time>2022-04-14T16:45:23Z</time>
      </trkpt>
      <trkpt lat="42.9752780" lon="-8.4211380">
        <ele>257.2</ele>
        <time>2022-04-14T16:45:24Z</time>
      </trkpt>
      <trkpt lat="42.9753070" lon="-8.4210750">
        <ele>257.5</ele>
        <time>2022-04-14T16:45:25Z</time>
      </trkpt>
      <trkpt lat="42.9753350" lon="-8.4210130">
        <ele>257.7</ele>
        <time>2022-04-14T16:45:26Z</time>
      </trkpt>
      <trkpt lat="42.9753500" lon="-8.4209820">
        <ele>257.8</ele>
        <time>2022-04-14T16:45:27Z</time>
      </trkpt>
      <trkpt lat="42.9753650" lon="-8.4209510">
        <ele>258.0</ele>
        <time>2022-04-14T16:45:28Z</time>
      </trkpt>
      <trkpt lat="42.9754060" lon="-8.4208540">
        <ele>258.3</ele>
        <time>2022-04-14T16:45:29Z</time>
      </trkpt>
      <trkpt lat="42.9754190" lon="-8.4208190">
        <ele>258.4</ele>
        <time>2022-04-14T16:45:30Z</time>
      </trkpt>
      <trkpt lat="42.9754430" lon="-8.4207110">
        <ele>258.7</ele>
        <time>2022-04-14T16:45:31Z</time>
      </trkpt>
      <trkpt lat="42.9754430" lon="-8.4206730">
        <ele>258.8</ele>
        <time>2022-04-14T16:45:32Z</time>
      </trkpt>
      <trkpt lat="42.9754250" lon="-8.4205240">
        <ele>259.0</ele>
        <time>2022-04-14T16:45:33Z</time>
      </trkpt>
      <trkpt lat="42.9754080" lon="-8.4204510">
        <ele>258.9</ele>
        <time>2022-04-14T16:45:34Z</time>
      </trkpt>
      <trkpt lat="42.9753910" lon="-8.4203790">
        <ele>258.8</ele>
        <time>2022-04-14T16:45:35Z</time>
      </trkpt>
      <trkpt lat="42.9753700" lon="-8.4203030">
        <ele>258.6</ele>
        <time>2022-04-14T16:45:36Z</time>
      </trkpt>
      <trkpt lat="42.9753570" lon="-8.4202640">
        <ele>258.5</ele>
        <time>2022-04-14T16:45:37Z</time>
      </trkpt>
      <trkpt lat="42.9753450" lon="-8.4202240">
        <ele>258.4</ele>
        <time>2022-04-14T16:45:38Z</time>
      </trkpt>
      <trkpt lat="42.9753060" lon="-8.4201030">
        <ele>258.0</ele>
        <time>2022-04-14T16:45:39Z</time>
      </trkpt>
      <trkpt lat="42.9752920" lon="-8.4200600">
        <ele>257.9</ele>
        <time>2022-04-14T16:45:40Z</time>
      </trkpt>
      <trkpt lat="42.9752340" lon="-8.4198880">
        <ele>257.1</ele>
        <time>2022-04-14T16:45:41Z</time>
      </trkpt>
      <trkpt lat="42.9752020" lon="-8.4198000">
        <ele>256.6</ele>
        <time>2022-04-14T16:45:42Z</time>
      </trkpt>
      <trkpt lat="42.9751710" lon="-8.4197120">
        <ele>256.1</ele>
        <time>2022-04-14T16:45:43Z</time>
      </trkpt>
      <trkpt lat="42.9751400" lon="-8.4196180">
        <ele>255.5</ele>
        <time>2022-04-14T16:45:44Z</time>
      </trkpt>
      <trkpt lat="42.9751080" lon="-8.4195110">
        <ele>254.8</ele>
        <time>2022-04-14T16:45:45Z</time>
      </trkpt>
      <trkpt lat="42.9750760" lon="-8.4194040">
        <ele>254.1</ele>
        <time>2022-04-14T16:45:46Z</time>
      </trkpt>
      <trkpt lat="42.9750440" lon="-8.4192960">
        <ele>253.4</ele>
        <time>2022-04-14T16:45:47Z</time>
      </trkpt>
      <trkpt lat="42.9749940" lon="-8.4191170">
        <ele>252.3</ele>
        <time>2022-04-14T16:45:48Z</time>
      </trkpt>
      <trkpt lat="42.9749760" lon="-8.4190540">
        <ele>251.9</ele>
        <time>2022-04-14T16:45:49Z</time>
      </trkpt>
      <trkpt lat="42.9749410" lon="-8.4189280">
        <ele>251.1</ele>
        <time>2022-04-14T16:45:50Z</time>
      </trkpt>
      <trkpt lat="42.9749060" lon="-8.4187910">
        <ele>250.3</ele>
        <time>2022-04-14T16:45:51Z</time>
      </trkpt>
      <trkpt lat="42.9748720" lon="-8.4186530">
        <ele>249.7</ele>
        <time>2022-04-14T16:45:52Z</time>
      </trkpt>
      <trkpt lat="42.9748240" lon="-8.4184490">
        <ele>249.2</ele>
        <time>2022-04-14T16:45:53Z</time>
      </trkpt>
      <trkpt lat="42.9748080" lon="-8.4183800">
        <ele>249.1</ele>
        <time>2022-04-14T16:45:54Z</time>
      </trkpt>
      <trkpt lat="42.9747770" lon="-8.4182430">
        <ele>249.0</ele>
        <time>2022-04-14T16:45:55Z</time>
      </trkpt>
      <trkpt lat="42.9747520" lon="-8.4181140">
        <ele>248.9</ele>
        <time>2022-04-14T16:45:56Z</time>
      </trkpt>
      <trkpt lat="42.9747080" lon="-8.4179200">
        <ele>249.0</ele>
        <time>2022-04-14T16:45:57Z</time>
      </trkpt>
      <trkpt lat="42.9746940" lon="-8.4178570">
        <ele>249.0</ele>
        <time>2022-04-14T16:45:58Z</time>
      </trkpt>
      <trkpt lat="42.9746650" lon="-8.4177320">
        <ele>249.1</ele>
        <time>2022-04-14T16:45:59Z</time>
      </trkpt>
      <trkpt lat="42.9746390" lon="-8.4176120">
        <ele>249.3</ele>
        <time>2022-04-14T16:46:00Z</time>
      </trkpt>
      <trkpt lat="42.9746140" lon="-8.4174920">
        <ele>249.5</ele>
        <time>2022-04-14T16:46:01Z</time>
      </trkpt>
      <trkpt lat="42.9745900" lon="-8.4173810">
        <ele>249.7</ele>
        <time>2022-04-14T16:46:02Z</time>
      </trkpt>
      <trkpt lat="42.9745650" lon="-8.4172700">
        <ele>250.0</ele>
        <time>2022-04-14T16:46:03Z</time>
      </trkpt>
      <trkpt lat="42.9745410" lon="-8.4171590">
        <ele>250.4</ele>
        <time>2022-04-14T16:46:04Z</time>
      </trkpt>
      <trkpt lat="42.9745040" lon="-8.4170080">
        <ele>251.1</ele>
        <time>2022-04-14T16:46:05Z</time>
      </trkpt>
      <trkpt lat="42.9744910" lon="-8.4169600">
        <ele>251.3</ele>
        <time>2022-04-14T16:46:06Z</time>
      </trkpt>
      <trkpt lat="42.9744660" lon="-8.4168640">
        <ele>251.8</ele>
        <time>2022-04-14T16:46:07Z</time>
      </trkpt>
      <trkpt lat="42.9744250" lon="-8.4168020">
        <ele>252.2</ele>
        <time>2022-04-14T16:46:08Z</time>
      </trkpt>
      <trkpt lat="42.9743840" lon="-8.4167410">
        <ele>252.6</ele>
        <time>2022-04-14T16:46:09Z</time>
      </trkpt>
      <trkpt lat="42.9743430" lon="-8.4166800">
        <ele>253.8</ele>
        <time>2022-04-14T16:46:10Z</time>
      </trkpt>
      <trkpt lat="42.9742910" lon="-8.4166540">
        <ele>254.0</ele>
        <time>2022-04-14T16:46:11Z</time>
      </trkpt>
      <trkpt lat="42.9742530" lon="-8.4166690">
        <ele>254.2</ele>
        <time>2022-04-14T16:46:12Z</time>
      </trkpt>
      <trkpt lat="42.9742150" lon="-8.4166840">
        <ele>254.3</ele>
        <time>2022-04-14T16:46:13Z</time>
      </trkpt>
      <trkpt lat="42.9741100" lon="-8.4167330">
        <ele>254.5</ele>
        <time>2022-04-14T16:46:14Z</time>
      </trkpt>
      <trkpt lat="42.9740810" lon="-8.4167520">
        <ele>254.5</ele>
        <time>2022-04-14T16:46:15Z</time>
      </trkpt>
      <trkpt lat="42.9739580" lon="-8.4168310">
        <ele>254.7</ele>
        <time>2022-04-14T16:46:16Z</time>
      </trkpt>
      <trkpt lat="42.9738940" lon="-8.4168730">
        <ele>254.8</ele>
        <time>2022-04-14T16:46:17Z</time>
      </trkpt>
      <trkpt lat="42.9738290" lon="-8.4169140">
        <ele>254.8</ele>
        <time>2022-04-14T16:46:18Z</time>
      </trkpt>
      <trkpt lat="42.9737620" lon="-8.4169530">
        <ele>254.9</ele>
        <time>2022-04-14T16:46:19Z</time>
      </trkpt>
      <trkpt lat="42.9737250" lon="-8.4169710">
        <ele>255.0</ele>
        <time>2022-04-14T16:46:20Z</time>
      </trkpt>
      <trkpt lat="42.9736870" lon="-8.4169890">
        <ele>255.0</ele>
        <time>2022-04-14T16:46:21Z</time>
      </trkpt>
      <trkpt lat="42.9735800" lon="-8.4170430">
        <ele>254.9</ele>
        <time>2022-04-14T16:46:22Z</time>
      </trkpt>
      <trkpt lat="42.9735470" lon="-8.4170600">
        <ele>254.9</ele>
        <time>2022-04-14T16:46:23Z</time>
      </trkpt>
      <trkpt lat="42.9734150" lon="-8.4171290">
        <ele>254.7</ele>
        <time>2022-04-14T16:46:24Z</time>
      </trkpt>
      <trkpt lat="42.9733490" lon="-8.4171630">
        <ele>254.7</ele>
        <time>2022-04-14T16:46:25Z</time>
      </trkpt>
      <trkpt lat="42.9732830" lon="-8.4171970">
        <ele>254.6</ele>
        <time>2022-04-14T16:46:26Z</time>
      </trkpt>
      <trkpt lat="42.9732110" lon="-8.4172340">
        <ele>254.5</ele>
        <time>2022-04-14T16:46:27Z</time>
      </trkpt>
      <trkpt lat="42.9731750" lon="-8.4172550">
        <ele>254.5</ele>
        <time>2022-04-14T16:46:28Z</time>
      </trkpt>
      <trkpt lat="42.9731390" lon="-8.4172770">
        <ele>254.4</ele>
        <time>2022-04-14T16:46:29Z</time>
      </trkpt>
      <trkpt lat="42.9729970" lon="-8.4173610">
        <ele>254.3</ele>
        <time>2022-04-14T16:46:30Z</time>
      </trkpt>
      <trkpt lat="42.9729260" lon="-8.4174010">
        <ele>254.3</ele>
        <time>2022-04-14T16:46:31Z</time>
      </trkpt>
      <trkpt lat="42.9728550" lon="-8.4174420">
        <ele>254.2</ele>
        <time>2022-04-14T16:46:32Z</time>
      </trkpt>
      <trkpt lat="42.9727840" lon="-8.4174810">
        <ele>254.0</ele>
        <time>2022-04-14T16:46:33Z</time>
      </trkpt>
      <trkpt lat="42.9727490" lon="-8.4175020">
        <ele>253.9</ele>
        <time>2022-04-14T16:46:34Z</time>
      </trkpt>
      <trkpt lat="42.9727150" lon="-8.4175240">
        <ele>253.8</ele>
        <time>2022-04-14T16:46:35Z</time>
      </trkpt>
      <trkpt lat="42.9725820" lon="-8.4176110">
        <ele>253.2</ele>
        <time>2022-04-14T16:46:36Z</time>
      </trkpt>
      <trkpt lat="42.9725190" lon="-8.4176540">
        <ele>252.8</ele>
        <time>2022-04-14T16:46:37Z</time>
      </trkpt>
      <trkpt lat="42.9724560" lon="-8.4176970">
        <ele>252.5</ele>
        <time>2022-04-14T16:46:38Z</time>
      </trkpt>
      <trkpt lat="42.9723920" lon="-8.4177400">
        <ele>252.1</ele>
        <time>2022-04-14T16:46:39Z</time>
      </trkpt>
      <trkpt lat="42.9723070" lon="-8.4177840">
        <ele>251.6</ele>
        <time>2022-04-14T16:46:40Z</time>
      </trkpt>
      <trkpt lat="42.9722670" lon="-8.4178050">
        <ele>251.4</ele>
        <time>2022-04-14T16:46:41Z</time>
      </trkpt>
      <trkpt lat="42.9720890" lon="-8.4179030">
        <ele>250.3</ele>
        <time>2022-04-14T16:46:42Z</time>
      </trkpt>
      <trkpt lat="42.9719920" lon="-8.4179590">
        <ele>249.7</ele>
        <time>2022-04-14T16:46:43Z</time>
      </trkpt>
      <trkpt lat="42.9718950" lon="-8.4180160">
        <ele>249.2</ele>
        <time>2022-04-14T16:46:44Z</time>
      </trkpt>
      <trkpt lat="42.9717670" lon="-8.4180930">
        <ele>248.5</ele>
        <time>2022-04-14T16:46:45Z</time>
      </trkpt>
      <trkpt lat="42.9717670" lon="-8.4180930">
        <ele>248.5</ele>
        <time>2022-04-14T16:46:46Z</time>
      </trkpt>
      <trkpt lat="42.9716740" lon="-8.4181370">
        <ele>248.1</ele>
        <time>2022-04-14T16:46:47Z</time>
      </trkpt>
      <trkpt lat="42.9715770" lon="-8.4181810">
        <ele>247.7</ele>
        <time>2022-04-14T16:46:48Z</time>
      </trkpt>
      <trkpt lat="42.9715770" lon="-8.4181810">
        <ele>247.7</ele>
        <time>2022-04-14T16:46:49Z</time>
      </trkpt>
      <trkpt lat="42.9714980" lon="-8.4182250">
        <ele>247.1</ele>
        <time>2022-04-14T16:46:50Z</time>
      </trkpt>
      <trkpt lat="42.9714190" lon="-8.4182690">
        <ele>246.6</ele>
        <time>2022-04-14T16:46:51Z</time>
      </trkpt>
      <trkpt lat="42.9713400" lon="-8.4183130">
        <ele>246.0</ele>
        <time>2022-04-14T16:46:52Z</time>
      </trkpt>
      <trkpt lat="42.9710660" lon="-8.4184530">
        <ele>244.4</ele>
        <time>2022-04-14T16:46:53Z</time>
      </trkpt>
      <trkpt lat="42.9710290" lon="-8.4184610">
        <ele>244.2</ele>
        <time>2022-04-14T16:46:54Z</time>
      </trkpt>
      <trkpt lat="42.9709560" lon="-8.4184780">
        <ele>243.9</ele>
        <time>2022-04-14T16:46:55Z</time>
      </trkpt>
      <trkpt lat="42.9709250" lon="-8.4184510">
        <ele>243.2</ele>
        <time>2022-04-14T16:46:56Z</time>
      </trkpt>
      <trkpt lat="42.9708950" lon="-8.4184250">
        <ele>243.1</ele>
        <time>2022-04-14T16:46:57Z</time>
      </trkpt>
      <trkpt lat="42.9708040" lon="-8.4182930">
        <ele>242.7</ele>
        <time>2022-04-14T16:46:58Z</time>
      </trkpt>
      <trkpt lat="42.9707740" lon="-8.4182140">
        <ele>242.7</ele>
        <time>2022-04-14T16:46:59Z</time>
      </trkpt>
      <trkpt lat="42.9707440" lon="-8.4181350">
        <ele>242.8</ele>
        <time>2022-04-14T16:47:00Z</time>
      </trkpt>
      <trkpt lat="42.9707240" lon="-8.4180560">
        <ele>242.9</ele>
        <time>2022-04-14T16:47:01Z</time>
      </trkpt>
      <trkpt lat="42.9707110" lon="-8.4180240">
        <ele>243.0</ele>
        <time>2022-04-14T16:47:02Z</time>
      </trkpt>
      <trkpt lat="42.9706980" lon="-8.4179920">
        <ele>243.0</ele>
        <time>2022-04-14T16:47:03Z</time>
      </trkpt>
      <trkpt lat="42.9706550" lon="-8.4178660">
        <ele>243.3</ele>
        <time>2022-04-14T16:47:04Z</time>
      </trkpt>
      <trkpt lat="42.9706370" lon="-8.4178050">
        <ele>243.5</ele>
        <time>2022-04-14T16:47:05Z</time>
      </trkpt>
      <trkpt lat="42.9706170" lon="-8.4177490">
        <ele>243.6</ele>
        <time>2022-04-14T16:47:06Z</time>
      </trkpt>
      <trkpt lat="42.9705970" lon="-8.4176930">
        <ele>243.8</ele>
        <time>2022-04-14T16:47:07Z</time>
      </trkpt>
      <trkpt lat="42.9705900" lon="-8.4176510">
        <ele>243.9</ele>
        <time>2022-04-14T16:47:08Z</time>
      </trkpt>
      <trkpt lat="42.9705820" lon="-8.4176080">
        <ele>244.0</ele>
        <time>2022-04-14T16:47:09Z</time>
      </trkpt>
      <trkpt lat="42.9705740" lon="-8.4175660">
        <ele>244.1</ele>
        <time>2022-04-14T16:47:10Z</time>
      </trkpt>
      <trkpt lat="42.9705660" lon="-8.4175230">
        <ele>244.2</ele>
        <time>2022-04-14T16:47:11Z</time>
      </trkpt>
      <trkpt lat="42.9705660" lon="-8.4175230">
        <ele>244.2</ele>
        <time>2022-04-14T16:47:12Z</time>
      </trkpt>
    </trkseg>
  </trk>
</gpx>
